<?xml version='1.0' encoding='UTF-8'?><gpx version="1.1" creator="JPX - https://github.com/jenetics/jpx" xmlns="http://www.topografix.com/GPX/1/1"><trk><trkseg><trkpt lat="36.81854528766168" lon="14.945617440080934"><ele>155.0</ele><time>2026-04-30T12:58:56.999Z</time></trkpt><trkpt lat="36.81861932446134" lon="14.945664100089388"><ele>155.0</ele><time>2026-04-30T13:01:36.001Z</time></trkpt><trkpt lat="36.8186773214519" lon="14.945755655558063"><ele>155.0</ele><time>2026-04-30T13:01:38.001Z</time></trkpt><trkpt lat="36.818705546736055" lon="14.94583507007428"><ele>155.0</ele><time>2026-04-30T13:01:41.001Z</time></trkpt><trkpt lat="36.8186538342694" lon="14.945931951195378"><ele>155.0</ele><time>2026-04-30T13:01:43.001Z</time></trkpt><trkpt lat="36.81861030690016" lon="14.946000049717842"><ele>155.0</ele><time>2026-04-30T13:01:44.001Z</time></trkpt><trkpt lat="36.81856083893616" lon="14.946073634408426"><ele>155.0</ele><time>2026-04-30T13:01:45.001Z</time></trkpt><trkpt lat="36.81851269416024" lon="14.9461488378209"><ele>155.0</ele><time>2026-04-30T13:01:46.001Z</time></trkpt><trkpt lat="36.818444386559655" lon="14.946218295588293"><ele>155.0</ele><time>2026-04-30T13:01:47.001Z</time></trkpt><trkpt lat="36.81839460455668" lon="14.946305112309123"><ele>155.0</ele><time>2026-04-30T13:01:48.001Z</time></trkpt><trkpt lat="36.81835024617805" lon="14.946381655192496"><ele>155.0</ele><time>2026-04-30T13:01:49.001Z</time></trkpt><trkpt lat="36.818307356710804" lon="14.946455543655677"><ele>155.0</ele><time>2026-04-30T13:01:50.001Z</time></trkpt><trkpt lat="36.81827129114515" lon="14.946536858194174"><ele>153.5</ele><time>2026-04-30T13:01:51.001Z</time></trkpt><trkpt lat="36.81822744539067" lon="14.946611337671179"><ele>152.0</ele><time>2026-04-30T13:01:52.001Z</time></trkpt><trkpt lat="36.81818289163068" lon="14.946679502916393"><ele>150.5</ele><time>2026-04-30T13:01:53.001Z</time></trkpt><trkpt lat="36.818116543646916" lon="14.946791757514706"><ele>149.0</ele><time>2026-04-30T13:01:55.001Z</time></trkpt><trkpt lat="36.81825233441206" lon="14.947025299999467"><ele>149.0</ele><time>2026-04-30T13:02:00.002Z</time></trkpt><trkpt lat="36.81832731891956" lon="14.947051339778467"><ele>149.0</ele><time>2026-04-30T13:02:01.002Z</time></trkpt><trkpt lat="36.818390348143446" lon="14.947104775158131"><ele>149.0</ele><time>2026-04-30T13:02:02.002Z</time></trkpt><trkpt lat="36.818484957147724" lon="14.947184392994844"><ele>149.0</ele><time>2026-04-30T13:02:04.002Z</time></trkpt><trkpt lat="36.81854211139861" lon="14.947236939918847"><ele>149.0</ele><time>2026-04-30T13:02:05.002Z</time></trkpt><trkpt lat="36.81861298679904" lon="14.947301421719498"><ele>149.0</ele><time>2026-04-30T13:02:06.002Z</time></trkpt><trkpt lat="36.81868564519718" lon="14.947369423635628"><ele>149.33333333333331</ele><time>2026-04-30T13:02:07.002Z</time></trkpt><trkpt lat="36.818745285753145" lon="14.94742772638472"><ele>149.66666666666666</ele><time>2026-04-30T13:02:08.002Z</time></trkpt><trkpt lat="36.818833997501855" lon="14.947522625697145"><ele>150.0</ele><time>2026-04-30T13:02:10.002Z</time></trkpt><trkpt lat="36.81888913436004" lon="14.947591759503405"><ele>150.33333333333334</ele><time>2026-04-30T13:02:11.002Z</time></trkpt><trkpt lat="36.81894763545401" lon="14.947628777147239"><ele>150.66666666666669</ele><time>2026-04-30T13:02:12.002Z</time></trkpt><trkpt lat="36.81903257471545" lon="14.947691753604069"><ele>151.0</ele><time>2026-04-30T13:02:14.002Z</time></trkpt><trkpt lat="36.819077737473194" lon="14.94775606723369"><ele>151.0</ele><time>2026-04-30T13:02:19.002Z</time></trkpt><trkpt lat="36.81916447624402" lon="14.947788187701578"><ele>151.0</ele><time>2026-04-30T13:02:21.002Z</time></trkpt><trkpt lat="36.81926744793362" lon="14.947878600102625"><ele>151.0</ele><time>2026-04-30T13:02:23.002Z</time></trkpt><trkpt lat="36.81932937654166" lon="14.94794800807356"><ele>151.0</ele><time>2026-04-30T13:02:24.002Z</time></trkpt><trkpt lat="36.819393860721455" lon="14.948017248638546"><ele>151.0</ele><time>2026-04-30T13:02:25.002Z</time></trkpt><trkpt lat="36.81946248312069" lon="14.948092037775448"><ele>151.0</ele><time>2026-04-30T13:02:26.002Z</time></trkpt><trkpt lat="36.81953417222818" lon="14.948165333972499"><ele>151.0</ele><time>2026-04-30T13:02:27.002Z</time></trkpt><trkpt lat="36.81961419237946" lon="14.948226573202568"><ele>151.0</ele><time>2026-04-30T13:02:28.002Z</time></trkpt><trkpt lat="36.81969163650672" lon="14.948284078041194"><ele>151.0</ele><time>2026-04-30T13:02:29.002Z</time></trkpt><trkpt lat="36.81975700940302" lon="14.948343441582512"><ele>151.0</ele><time>2026-04-30T13:02:30.002Z</time></trkpt><trkpt lat="36.81982031529026" lon="14.948401297087537"><ele>151.0</ele><time>2026-04-30T13:02:31.002Z</time></trkpt><trkpt lat="36.8198797659782" lon="14.94845036527443"><ele>151.0</ele><time>2026-04-30T13:02:32.002Z</time></trkpt><trkpt lat="36.81992341510203" lon="14.948523205701958"><ele>151.0</ele><time>2026-04-30T13:02:34.002Z</time></trkpt><trkpt lat="36.81998963015099" lon="14.948544829435331"><ele>151.0</ele><time>2026-04-30T13:02:36.002Z</time></trkpt><trkpt lat="36.820065783346436" lon="14.948607058351945"><ele>151.0</ele><time>2026-04-30T13:02:37.002Z</time></trkpt><trkpt lat="36.82015913621609" lon="14.948683237248522"><ele>151.0</ele><time>2026-04-30T13:02:38.002Z</time></trkpt><trkpt lat="36.8202406446167" lon="14.94875030042909"><ele>151.0</ele><time>2026-04-30T13:02:39.002Z</time></trkpt><trkpt lat="36.82029667057075" lon="14.948805150958307"><ele>151.2</ele><time>2026-04-30T13:02:40.002Z</time></trkpt><trkpt lat="36.82036548434335" lon="14.948880832695453"><ele>151.39999999999998</ele><time>2026-04-30T13:02:42.001Z</time></trkpt><trkpt lat="36.82046692779514" lon="14.948994760478051"><ele>151.6</ele><time>2026-04-30T13:02:44.001Z</time></trkpt><trkpt lat="36.820558444119825" lon="14.949075532970191"><ele>151.79999999999998</ele><time>2026-04-30T13:02:45.001Z</time></trkpt><trkpt lat="36.820644113049525" lon="14.949151144540567"><ele>152.0</ele><time>2026-04-30T13:02:46.001Z</time></trkpt><trkpt lat="36.82074386180755" lon="14.949239756937832"><ele>151.66666666666666</ele><time>2026-04-30T13:02:47.001Z</time></trkpt><trkpt lat="36.82083898869747" lon="14.949324163182597"><ele>151.33333333333331</ele><time>2026-04-30T13:02:48.001Z</time></trkpt><trkpt lat="36.82091022760307" lon="14.949387632983786"><ele>151.0</ele><time>2026-04-30T13:02:49.001Z</time></trkpt><trkpt lat="36.82096791078022" lon="14.949438965719771"><ele>150.66666666666666</ele><time>2026-04-30T13:02:50.001Z</time></trkpt><trkpt lat="36.821034008987304" lon="14.949497787065846"><ele>150.33333333333334</ele><time>2026-04-30T13:02:51.001Z</time></trkpt><trkpt lat="36.82110548840169" lon="14.949560365851829"><ele>150.0</ele><time>2026-04-30T13:02:52.001Z</time></trkpt><trkpt lat="36.82117644692701" lon="14.949623034322094"><ele>149.8</ele><time>2026-04-30T13:02:53.001Z</time></trkpt><trkpt lat="36.82125659133334" lon="14.94966839364116"><ele>149.6</ele><time>2026-04-30T13:02:54.001Z</time></trkpt><trkpt lat="36.821334681008054" lon="14.94976090090302"><ele>149.4</ele><time>2026-04-30T13:02:56.001Z</time></trkpt><trkpt lat="36.8212843457772" lon="14.949904951656398"><ele>149.2</ele><time>2026-04-30T13:03:00.001Z</time></trkpt><trkpt lat="36.82123393269584" lon="14.949994099195191"><ele>149.0</ele><time>2026-04-30T13:03:01.001Z</time></trkpt><trkpt lat="36.82116944452576" lon="14.950108318912577"><ele>148.8</ele><time>2026-04-30T13:03:02.001Z</time></trkpt><trkpt lat="36.821112869245795" lon="14.950228403700281"><ele>148.60000000000002</ele><time>2026-04-30T13:03:03.001Z</time></trkpt><trkpt lat="36.82105663956881" lon="14.950317494502594"><ele>148.4</ele><time>2026-04-30T13:03:04.001Z</time></trkpt><trkpt lat="36.82101180709696" lon="14.950386458104854"><ele>148.20000000000002</ele><time>2026-04-30T13:03:05.001Z</time></trkpt><trkpt lat="36.82095336013554" lon="14.950462724919634"><ele>148.0</ele><time>2026-04-30T13:03:07.001Z</time></trkpt><trkpt lat="36.82089698552909" lon="14.950616036201037"><ele>148.0</ele><time>2026-04-30T13:03:10.001Z</time></trkpt><trkpt lat="36.820834471397596" lon="14.950728463158757"><ele>148.0</ele><time>2026-04-30T13:03:11.001Z</time></trkpt><trkpt lat="36.82077360130443" lon="14.950834151695666"><ele>148.0</ele><time>2026-04-30T13:03:12.001Z</time></trkpt><trkpt lat="36.820726648604925" lon="14.950923248290177"><ele>148.0</ele><time>2026-04-30T13:03:13.001Z</time></trkpt><trkpt lat="36.820683125475725" lon="14.950999366846725"><ele>148.0</ele><time>2026-04-30T13:03:14.001Z</time></trkpt><trkpt lat="36.820616685220315" lon="14.951093608059233"><ele>147.4</ele><time>2026-04-30T13:03:16.001Z</time></trkpt><trkpt lat="36.820564763194916" lon="14.951191787845927"><ele>146.8</ele><time>2026-04-30T13:03:19.001Z</time></trkpt><trkpt lat="36.82052192861026" lon="14.951264106933559"><ele>146.2</ele><time>2026-04-30T13:03:20.001Z</time></trkpt><trkpt lat="36.82047473202547" lon="14.951361414105417"><ele>145.6</ele><time>2026-04-30T13:03:21.001Z</time></trkpt><trkpt lat="36.82041038845738" lon="14.951479614196241"><ele>145.0</ele><time>2026-04-30T13:03:22.001Z</time></trkpt><trkpt lat="36.820347760406904" lon="14.951597266168186"><ele>145.0</ele><time>2026-04-30T13:03:23.001Z</time></trkpt><trkpt lat="36.820292878566256" lon="14.951695087169744"><ele>145.0</ele><time>2026-04-30T13:03:24.001Z</time></trkpt><trkpt lat="36.82023611236916" lon="14.951793117749379"><ele>145.0</ele><time>2026-04-30T13:03:25.001Z</time></trkpt><trkpt lat="36.82017888767989" lon="14.951889384010439"><ele>145.0</ele><time>2026-04-30T13:03:26.001Z</time></trkpt><trkpt lat="36.82013169321894" lon="14.951978358088613"><ele>145.0</ele><time>2026-04-30T13:03:27.001Z</time></trkpt><trkpt lat="36.82009114061342" lon="14.952051903199951"><ele>145.0</ele><time>2026-04-30T13:03:28.001Z</time></trkpt><trkpt lat="36.82005238827337" lon="14.952117608165732"><ele>144.57142857142858</ele><time>2026-04-30T13:03:29.001Z</time></trkpt><trkpt lat="36.82001194858406" lon="14.952192109697592"><ele>144.14285714285717</ele><time>2026-04-30T13:03:30.001Z</time></trkpt><trkpt lat="36.81996891382314" lon="14.952258557421414"><ele>143.71428571428572</ele><time>2026-04-30T13:03:31.001Z</time></trkpt><trkpt lat="36.81993070183296" lon="14.952326011764121"><ele>143.28571428571428</ele><time>2026-04-30T13:03:32.001Z</time></trkpt><trkpt lat="36.81989261830499" lon="14.952394102720014"><ele>142.85714285714283</ele><time>2026-04-30T13:03:33.001Z</time></trkpt><trkpt lat="36.819848787312516" lon="14.952460312130095"><ele>142.42857142857142</ele><time>2026-04-30T13:03:34.001Z</time></trkpt><trkpt lat="36.81980889209477" lon="14.952542536991967"><ele>142.0</ele><time>2026-04-30T13:03:35.001Z</time></trkpt><trkpt lat="36.8197632361598" lon="14.952621992399328"><ele>141.66666666666669</ele><time>2026-04-30T13:03:36.001Z</time></trkpt><trkpt lat="36.8197038831613" lon="14.952718040063774"><ele>141.33333333333334</ele><time>2026-04-30T13:03:38.001Z</time></trkpt><trkpt lat="36.81965532451182" lon="14.952798892256482"><ele>141.0</ele><time>2026-04-30T13:03:40.001Z</time></trkpt><trkpt lat="36.819617372950695" lon="14.952874049080576"><ele>140.66666666666666</ele><time>2026-04-30T13:03:41.001Z</time></trkpt><trkpt lat="36.81956914323943" lon="14.952961974458415"><ele>140.33333333333331</ele><time>2026-04-30T13:03:42.001Z</time></trkpt><trkpt lat="36.819527546396365" lon="14.953061679432357"><ele>140.0</ele><time>2026-04-30T13:03:43.001Z</time></trkpt><trkpt lat="36.819476547943125" lon="14.953155006334118"><ele>140.0</ele><time>2026-04-30T13:03:44.001Z</time></trkpt><trkpt lat="36.819421072259324" lon="14.953221679566825"><ele>140.0</ele><time>2026-04-30T13:03:45.001Z</time></trkpt><trkpt lat="36.81937102685179" lon="14.953342902959411"><ele>140.0</ele><time>2026-04-30T13:03:47.002Z</time></trkpt><trkpt lat="36.81934737658411" lon="14.953428229473813"><ele>140.0</ele><time>2026-04-30T13:03:50.002Z</time></trkpt><trkpt lat="36.81952500512991" lon="14.953564061712777"><ele>139.4</ele><time>2026-04-30T13:03:52.002Z</time></trkpt><trkpt lat="36.81961941505154" lon="14.953647215256215"><ele>138.8</ele><time>2026-04-30T13:03:53.002Z</time></trkpt><trkpt lat="36.819717210432685" lon="14.95372721742058"><ele>138.2</ele><time>2026-04-30T13:03:54.002Z</time></trkpt><trkpt lat="36.81980950834063" lon="14.953793217305241"><ele>137.6</ele><time>2026-04-30T13:03:55.002Z</time></trkpt><trkpt lat="36.819878548198425" lon="14.953871188268094"><ele>137.0</ele><time>2026-04-30T13:03:56.002Z</time></trkpt><trkpt lat="36.81997750474849" lon="14.953934754424951"><ele>137.0</ele><time>2026-04-30T13:03:57.002Z</time></trkpt><trkpt lat="36.820098791844906" lon="14.954052971810889"><ele>137.0</ele><time>2026-04-30T13:03:58.002Z</time></trkpt><trkpt lat="36.82020254757441" lon="14.954138471282661"><ele>137.0</ele><time>2026-04-30T13:03:59.002Z</time></trkpt><trkpt lat="36.820336887048114" lon="14.95423409880433"><ele>137.0</ele><time>2026-04-30T13:04:00.002Z</time></trkpt><trkpt lat="36.82044255108584" lon="14.95432735192467"><ele>136.4</ele><time>2026-04-30T13:04:01.002Z</time></trkpt><trkpt lat="36.820553871040694" lon="14.954424881496347"><ele>135.79999999999998</ele><time>2026-04-30T13:04:02.002Z</time></trkpt><trkpt lat="36.82065425339914" lon="14.95450154578127"><ele>135.2</ele><time>2026-04-30T13:04:03.002Z</time></trkpt><trkpt lat="36.82070705573097" lon="14.954556603538883"><ele>134.6</ele><time>2026-04-30T13:04:04.002Z</time></trkpt><trkpt lat="36.82077751539972" lon="14.954630180429987"><ele>134.0</ele><time>2026-04-30T13:04:06.002Z</time></trkpt><trkpt lat="36.820851863714104" lon="14.95468697394247"><ele>134.0</ele><time>2026-04-30T13:04:07.002Z</time></trkpt><trkpt lat="36.820935666622105" lon="14.954760341125631"><ele>134.0</ele><time>2026-04-30T13:04:08.002Z</time></trkpt><trkpt lat="36.8210407832279" lon="14.95485139780845"><ele>134.0</ele><time>2026-04-30T13:04:09.002Z</time></trkpt><trkpt lat="36.82117842976076" lon="14.954960943386247"><ele>134.0</ele><time>2026-04-30T13:04:10.002Z</time></trkpt><trkpt lat="36.8212857449603" lon="14.955053633193476"><ele>134.33333333333331</ele><time>2026-04-30T13:04:11.002Z</time></trkpt><trkpt lat="36.821363400001694" lon="14.955127190466749"><ele>134.66666666666666</ele><time>2026-04-30T13:04:12.002Z</time></trkpt><trkpt lat="36.82141803619427" lon="14.955173874604812"><ele>135.0</ele><time>2026-04-30T13:04:13.002Z</time></trkpt><trkpt lat="36.821479278831184" lon="14.95523253736376"><ele>135.33333333333334</ele><time>2026-04-30T13:04:15.002Z</time></trkpt><trkpt lat="36.82152169610702" lon="14.955314942014981"><ele>135.66666666666669</ele><time>2026-04-30T13:04:17.002Z</time></trkpt><trkpt lat="36.82150161088534" lon="14.955417678052894"><ele>136.0</ele><time>2026-04-30T13:04:18.002Z</time></trkpt><trkpt lat="36.82150421792817" lon="14.955557523691954"><ele>136.0</ele><time>2026-04-30T13:04:19.002Z</time></trkpt><trkpt lat="36.82152075829352" lon="14.955680010458968"><ele>136.0</ele><time>2026-04-30T13:04:20.002Z</time></trkpt><trkpt lat="36.8215073536248" lon="14.955763560499044"><ele>136.0</ele><time>2026-04-30T13:04:21.002Z</time></trkpt><trkpt lat="36.82152022607101" lon="14.955860810256272"><ele>136.0</ele><time>2026-04-30T13:04:24.002Z</time></trkpt><trkpt lat="36.82151076425245" lon="14.955940189765442"><ele>136.0</ele><time>2026-04-30T13:04:28.002Z</time></trkpt><trkpt lat="36.82155078722455" lon="14.956027858596872"><ele>136.0</ele><time>2026-04-30T13:04:52.001Z</time></trkpt><trkpt lat="36.821556742258" lon="14.956127875399455"><ele>135.0</ele><time>2026-04-30T13:04:54.001Z</time></trkpt><trkpt lat="36.821574713439055" lon="14.956249748623831"><ele>134.0</ele><time>2026-04-30T13:04:56.001Z</time></trkpt><trkpt lat="36.82158493915518" lon="14.956393068742186"><ele>133.0</ele><time>2026-04-30T13:04:58.001Z</time></trkpt><trkpt lat="36.82156705765258" lon="14.956476443398486"><ele>132.0</ele><time>2026-04-30T13:04:59.001Z</time></trkpt><trkpt lat="36.82159303556567" lon="14.956596724701225"><ele>131.0</ele><time>2026-04-30T13:05:01.001Z</time></trkpt><trkpt lat="36.82161719402794" lon="14.956709218304493"><ele>132.0</ele><time>2026-04-30T13:05:03.001Z</time></trkpt><trkpt lat="36.82165802915142" lon="14.956863589707583"><ele>133.0</ele><time>2026-04-30T13:05:05.001Z</time></trkpt><trkpt lat="36.82170541902704" lon="14.956977108015472"><ele>134.0</ele><time>2026-04-30T13:05:06.001Z</time></trkpt><trkpt lat="36.82176198772301" lon="14.957092038474817"><ele>135.0</ele><time>2026-04-30T13:05:07.001Z</time></trkpt><trkpt lat="36.82182888222203" lon="14.957222113407008"><ele>135.0</ele><time>2026-04-30T13:05:08.001Z</time></trkpt><trkpt lat="36.821892956725826" lon="14.957346704921987"><ele>135.0</ele><time>2026-04-30T13:05:09.001Z</time></trkpt><trkpt lat="36.821949142871624" lon="14.957457393211028"><ele>135.0</ele><time>2026-04-30T13:05:10.001Z</time></trkpt><trkpt lat="36.82201503262326" lon="14.95758780898289"><ele>135.0</ele><time>2026-04-30T13:05:11.001Z</time></trkpt><trkpt lat="36.822092004604556" lon="14.95770866624522"><ele>133.5</ele><time>2026-04-30T13:05:12.001Z</time></trkpt><trkpt lat="36.82213320772182" lon="14.957825693490872"><ele>132.0</ele><time>2026-04-30T13:05:13.001Z</time></trkpt><trkpt lat="36.82217826022181" lon="14.95792309289032"><ele>130.5</ele><time>2026-04-30T13:05:14.001Z</time></trkpt><trkpt lat="36.8222239901699" lon="14.958023357934415"><ele>129.0</ele><time>2026-04-30T13:05:15.001Z</time></trkpt><trkpt lat="36.82225692332168" lon="14.95811962305213"><ele>127.5</ele><time>2026-04-30T13:05:16.001Z</time></trkpt><trkpt lat="36.82228894363888" lon="14.958209202160836"><ele>126.0</ele><time>2026-04-30T13:05:17.001Z</time></trkpt><trkpt lat="36.822318367274704" lon="14.958291516871615"><ele>125.0</ele><time>2026-04-30T13:05:18.001Z</time></trkpt><trkpt lat="36.82236517520376" lon="14.958405874405651"><ele>124.0</ele><time>2026-04-30T13:05:20.001Z</time></trkpt><trkpt lat="36.82237344642342" lon="14.958503923750163"><ele>123.0</ele><time>2026-04-30T13:05:22.001Z</time></trkpt><trkpt lat="36.82223064866932" lon="14.95855736415589"><ele>122.0</ele><time>2026-04-30T13:05:23.001Z</time></trkpt><trkpt lat="36.82218601388328" lon="14.95861502035493"><ele>121.0</ele><time>2026-04-30T13:05:24.001Z</time></trkpt><trkpt lat="36.82214316287203" lon="14.958721908664941"><ele>121.0</ele><time>2026-04-30T13:05:26.001Z</time></trkpt><trkpt lat="36.82213005269609" lon="14.958821015993045"><ele>121.0</ele><time>2026-04-30T13:05:28.001Z</time></trkpt><trkpt lat="36.82205620622867" lon="14.958840311164012"><ele>121.0</ele><time>2026-04-30T13:05:30.001Z</time></trkpt><trkpt lat="36.82211763252611" lon="14.958989093878708"><ele>121.0</ele><time>2026-04-30T13:05:31.001Z</time></trkpt><trkpt lat="36.82220359023238" lon="14.958932044471338"><ele>121.0</ele><time>2026-04-30T13:05:32.001Z</time></trkpt><trkpt lat="36.822248482144985" lon="14.958874756803619"><ele>121.0</ele><time>2026-04-30T13:05:37.001Z</time></trkpt><trkpt lat="36.82225863337146" lon="14.958959555725416"><ele>121.0</ele><time>2026-04-30T13:05:53.002Z</time></trkpt><trkpt lat="36.82239656220546" lon="14.959010702937775"><ele>121.0</ele><time>2026-04-30T13:05:55.002Z</time></trkpt><trkpt lat="36.82228025169993" lon="14.95888708599382"><ele>121.0</ele><time>2026-04-30T13:05:56.002Z</time></trkpt><trkpt lat="36.822293503924996" lon="14.959007959231272"><ele>121.00000000000001</ele><time>2026-04-30T13:08:59.001Z</time></trkpt><trkpt lat="36.822311117830345" lon="14.959105585813644"><ele>121.0</ele><time>2026-04-30T13:09:02.001Z</time></trkpt><trkpt lat="36.8223048462795" lon="14.959205779594479"><ele>121.0</ele><time>2026-04-30T13:09:04.001Z</time></trkpt><trkpt lat="36.82235251815828" lon="14.95929441613435"><ele>121.0</ele><time>2026-04-30T13:09:05.001Z</time></trkpt><trkpt lat="36.82241256104829" lon="14.959384301101988"><ele>121.00000000000001</ele><time>2026-04-30T13:09:06.001Z</time></trkpt><trkpt lat="36.82245042762802" lon="14.959479675951753"><ele>121.0</ele><time>2026-04-30T13:09:07.001Z</time></trkpt><trkpt lat="36.82250831827127" lon="14.95954955457595"><ele>119.83333333333334</ele><time>2026-04-30T13:09:08.001Z</time></trkpt><trkpt lat="36.82254751715466" lon="14.959644975653553"><ele>118.66666666666667</ele><time>2026-04-30T13:09:09.001Z</time></trkpt><trkpt lat="36.822570527103956" lon="14.959745300847928"><ele>117.5</ele><time>2026-04-30T13:09:10.001Z</time></trkpt><trkpt lat="36.82257811113215" lon="14.959863625320422"><ele>116.33333333333334</ele><time>2026-04-30T13:09:11.001Z</time></trkpt><trkpt lat="36.822578886419926" lon="14.959976761076007"><ele>115.16666666666667</ele><time>2026-04-30T13:09:12.001Z</time></trkpt><trkpt lat="36.82258051938159" lon="14.960093846380817"><ele>114.0</ele><time>2026-04-30T13:09:13.001Z</time></trkpt><trkpt lat="36.82257458781726" lon="14.960214300402773"><ele>113.66666666666667</ele><time>2026-04-30T13:09:14.001Z</time></trkpt><trkpt lat="36.8225723359478" lon="14.96032543180255"><ele>113.33333333333334</ele><time>2026-04-30T13:09:15.001Z</time></trkpt><trkpt lat="36.82259867065888" lon="14.960420676705274"><ele>113.0</ele><time>2026-04-30T13:09:16.001Z</time></trkpt><trkpt lat="36.82263956940318" lon="14.960489622804209"><ele>112.66666666666667</ele><time>2026-04-30T13:09:17.001Z</time></trkpt><trkpt lat="36.82270417249609" lon="14.960543619258454"><ele>112.33333333333334</ele><time>2026-04-30T13:09:18.001Z</time></trkpt><trkpt lat="36.82279414340415" lon="14.960586496428398"><ele>112.0</ele><time>2026-04-30T13:09:19.001Z</time></trkpt><trkpt lat="36.82289764093174" lon="14.960614210853832"><ele>112.0</ele><time>2026-04-30T13:09:20.001Z</time></trkpt><trkpt lat="36.82301003957544" lon="14.960648869813241"><ele>111.99999999999999</ele><time>2026-04-30T13:09:21.001Z</time></trkpt><trkpt lat="36.823106823092296" lon="14.960697011372785"><ele>111.99999999999999</ele><time>2026-04-30T13:09:22.001Z</time></trkpt><trkpt lat="36.82319480356315" lon="14.96076058855874"><ele>112.0</ele><time>2026-04-30T13:09:23.001Z</time></trkpt><trkpt lat="36.82326050986332" lon="14.960836768246285"><ele>112.0</ele><time>2026-04-30T13:09:24.001Z</time></trkpt><trkpt lat="36.82330410798973" lon="14.960947657704455"><ele>111.0</ele><time>2026-04-30T13:09:25.001Z</time></trkpt><trkpt lat="36.82336775409829" lon="14.961071670029154"><ele>110.0</ele><time>2026-04-30T13:09:26.001Z</time></trkpt><trkpt lat="36.82343876663097" lon="14.96119594761451"><ele>109.0</ele><time>2026-04-30T13:09:27.001Z</time></trkpt><trkpt lat="36.82350504963911" lon="14.961328734818462"><ele>108.0</ele><time>2026-04-30T13:09:28.001Z</time></trkpt><trkpt lat="36.82358130717213" lon="14.961461665678621"><ele>107.75</ele><time>2026-04-30T13:09:29.001Z</time></trkpt><trkpt lat="36.823645518820015" lon="14.96158158557498"><ele>107.5</ele><time>2026-04-30T13:09:30.001Z</time></trkpt><trkpt lat="36.823706809279095" lon="14.961708221087212"><ele>107.25</ele><time>2026-04-30T13:09:31.001Z</time></trkpt><trkpt lat="36.8237724064078" lon="14.961834418099194"><ele>107.0</ele><time>2026-04-30T13:09:32.001Z</time></trkpt><trkpt lat="36.823832565525805" lon="14.96195028372751"><ele>106.8</ele><time>2026-04-30T13:09:33.001Z</time></trkpt><trkpt lat="36.823889131875575" lon="14.962056633043314"><ele>106.6</ele><time>2026-04-30T13:09:34.001Z</time></trkpt><trkpt lat="36.823941280507526" lon="14.962165457649908"><ele>106.39999999999999</ele><time>2026-04-30T13:09:35.001Z</time></trkpt><trkpt lat="36.823994604953285" lon="14.962279246598413"><ele>106.19999999999999</ele><time>2026-04-30T13:09:36.001Z</time></trkpt><trkpt lat="36.82405587539769" lon="14.962401100648263"><ele>106.0</ele><time>2026-04-30T13:09:37.001Z</time></trkpt><trkpt lat="36.82412536956939" lon="14.962529944167766"><ele>105.5</ele><time>2026-04-30T13:09:38.001Z</time></trkpt><trkpt lat="36.82419518584431" lon="14.962673492527859"><ele>105.0</ele><time>2026-04-30T13:09:39.001Z</time></trkpt><trkpt lat="36.824267409277894" lon="14.962818551751262"><ele>104.5</ele><time>2026-04-30T13:09:40.001Z</time></trkpt><trkpt lat="36.824331976474305" lon="14.96294805431787"><ele>104.0</ele><time>2026-04-30T13:09:41.001Z</time></trkpt><trkpt lat="36.824396484975686" lon="14.963079097297214"><ele>104.0</ele><time>2026-04-30T13:09:42.001Z</time></trkpt><trkpt lat="36.82446678858068" lon="14.963230940618848"><ele>104.0</ele><time>2026-04-30T13:09:43.001Z</time></trkpt><trkpt lat="36.82454965696554" lon="14.963391953990701"><ele>104.0</ele><time>2026-04-30T13:09:44.001Z</time></trkpt><trkpt lat="36.824627728313445" lon="14.96353726184422"><ele>104.0</ele><time>2026-04-30T13:09:45.001Z</time></trkpt><trkpt lat="36.82470032639079" lon="14.96367704981657"><ele>104.0</ele><time>2026-04-30T13:09:46.001Z</time></trkpt><trkpt lat="36.8247727778806" lon="14.963814780092154"><ele>104.0</ele><time>2026-04-30T13:09:47.001Z</time></trkpt><trkpt lat="36.824843342816145" lon="14.963950951059985"><ele>104.0</ele><time>2026-04-30T13:09:48.001Z</time></trkpt><trkpt lat="36.824915598672796" lon="14.964083767913245"><ele>104.0</ele><time>2026-04-30T13:09:49.001Z</time></trkpt><trkpt lat="36.82498751406457" lon="14.964219574050292"><ele>103.75</ele><time>2026-04-30T13:09:50.001Z</time></trkpt><trkpt lat="36.82505078292978" lon="14.964351846135004"><ele>103.5</ele><time>2026-04-30T13:09:51.001Z</time></trkpt><trkpt lat="36.82511149353404" lon="14.964467573149735"><ele>103.25</ele><time>2026-04-30T13:09:52.001Z</time></trkpt><trkpt lat="36.82517356278198" lon="14.964589557808123"><ele>103.0</ele><time>2026-04-30T13:09:53.001Z</time></trkpt><trkpt lat="36.825235413227176" lon="14.964714134802682"><ele>103.0</ele><time>2026-04-30T13:09:54.001Z</time></trkpt><trkpt lat="36.82529641298766" lon="14.964828500071862"><ele>103.0</ele><time>2026-04-30T13:09:55.001Z</time></trkpt><trkpt lat="36.82535153384554" lon="14.964931965677136"><ele>103.0</ele><time>2026-04-30T13:09:56.001Z</time></trkpt><trkpt lat="36.82540151284291" lon="14.965034068699092"><ele>103.0</ele><time>2026-04-30T13:09:57.001Z</time></trkpt><trkpt lat="36.82544746885536" lon="14.965127518209693"><ele>103.0</ele><time>2026-04-30T13:09:58.001Z</time></trkpt><trkpt lat="36.825488065059865" lon="14.965206487548615"><ele>102.80000000000001</ele><time>2026-04-30T13:09:59.001Z</time></trkpt><trkpt lat="36.82552719231308" lon="14.96529137545727"><ele>102.6</ele><time>2026-04-30T13:10:00.001Z</time></trkpt><trkpt lat="36.82556911751593" lon="14.96538008090129"><ele>102.4</ele><time>2026-04-30T13:10:01.001Z</time></trkpt><trkpt lat="36.82560726576864" lon="14.965455931055043"><ele>102.19999999999999</ele><time>2026-04-30T13:10:02.001Z</time></trkpt><trkpt lat="36.8256656734331" lon="14.96558234400653"><ele>102.0</ele><time>2026-04-30T13:10:04.001Z</time></trkpt><trkpt lat="36.82567923114437" lon="14.965721026141637"><ele>101.25</ele><time>2026-04-30T13:10:06.001Z</time></trkpt><trkpt lat="36.82566621153638" lon="14.965955185069149"><ele>100.5</ele><time>2026-04-30T13:10:08.001Z</time></trkpt><trkpt lat="36.82560265916702" lon="14.966051462879575"><ele>99.75</ele><time>2026-04-30T13:10:09.001Z</time></trkpt><trkpt lat="36.82554935038525" lon="14.9661584901735"><ele>99.0</ele><time>2026-04-30T13:10:10.001Z</time></trkpt><trkpt lat="36.82549400911262" lon="14.966248005436565"><ele>99.0</ele><time>2026-04-30T13:10:11.001Z</time></trkpt><trkpt lat="36.8254436230856" lon="14.966325945628759"><ele>99.0</ele><time>2026-04-30T13:10:12.001Z</time></trkpt><trkpt lat="36.82537798260527" lon="14.966427482346537"><ele>99.0</ele><time>2026-04-30T13:10:13.001Z</time></trkpt><trkpt lat="36.82532169548499" lon="14.96654656634806"><ele>99.0</ele><time>2026-04-30T13:10:14.001Z</time></trkpt><trkpt lat="36.82525317569197" lon="14.966641587038614"><ele>99.0</ele><time>2026-04-30T13:10:15.001Z</time></trkpt><trkpt lat="36.82518761909433" lon="14.966747905376543"><ele>98.2</ele><time>2026-04-30T13:10:16.001Z</time></trkpt><trkpt lat="36.825121307460066" lon="14.96685415378148"><ele>97.4</ele><time>2026-04-30T13:10:17.001Z</time></trkpt><trkpt lat="36.8250401855691" lon="14.966943339776565"><ele>96.6</ele><time>2026-04-30T13:10:18.001Z</time></trkpt><trkpt lat="36.82497094160172" lon="14.967048510445018"><ele>95.8</ele><time>2026-04-30T13:10:19.001Z</time></trkpt><trkpt lat="36.82490492479644" lon="14.967148197179492"><ele>95.0</ele><time>2026-04-30T13:10:20.001Z</time></trkpt><trkpt lat="36.82483772157315" lon="14.967249675430857"><ele>95.0</ele><time>2026-04-30T13:10:21.001Z</time></trkpt><trkpt lat="36.82477812973587" lon="14.967370258565548"><ele>95.0</ele><time>2026-04-30T13:10:22.001Z</time></trkpt><trkpt lat="36.824701214503236" lon="14.967483366257532"><ele>95.0</ele><time>2026-04-30T13:10:23.001Z</time></trkpt><trkpt lat="36.82463129128214" lon="14.967590823011058"><ele>95.0</ele><time>2026-04-30T13:10:24.001Z</time></trkpt><trkpt lat="36.824570459664265" lon="14.967684166855836"><ele>95.0</ele><time>2026-04-30T13:10:25.001Z</time></trkpt><trkpt lat="36.82451354162841" lon="14.96776740973196"><ele>94.57142857142857</ele><time>2026-04-30T13:10:26.001Z</time></trkpt><trkpt lat="36.82445960258103" lon="14.967842712942993"><ele>94.14285714285714</ele><time>2026-04-30T13:10:27.001Z</time></trkpt><trkpt lat="36.82441291100812" lon="14.967920128826911"><ele>93.71428571428572</ele><time>2026-04-30T13:10:28.001Z</time></trkpt><trkpt lat="36.82436061921354" lon="14.967985691670927"><ele>93.28571428571428</ele><time>2026-04-30T13:10:29.001Z</time></trkpt><trkpt lat="36.824309589060064" lon="14.96804858864811"><ele>92.85714285714285</ele><time>2026-04-30T13:10:30.001Z</time></trkpt><trkpt lat="36.82426205247473" lon="14.968101409915327"><ele>92.42857142857143</ele><time>2026-04-30T13:10:31.001Z</time></trkpt><trkpt lat="36.82421248336116" lon="14.968150256395626"><ele>92.0</ele><time>2026-04-30T13:10:32.002Z</time></trkpt><trkpt lat="36.82409984723593" lon="14.968210911736907"><ele>91.5</ele><time>2026-04-30T13:10:34.002Z</time></trkpt><trkpt lat="36.823978222722424" lon="14.96819585137744"><ele>91.0</ele><time>2026-04-30T13:10:36.002Z</time></trkpt><trkpt lat="36.82391254106726" lon="14.968176517666064"><ele>90.5</ele><time>2026-04-30T13:10:37.002Z</time></trkpt><trkpt lat="36.82384232651832" lon="14.968160117844254"><ele>90.0</ele><time>2026-04-30T13:10:38.002Z</time></trkpt><trkpt lat="36.82377571700486" lon="14.96815681802709"><ele>89.5</ele><time>2026-04-30T13:10:39.002Z</time></trkpt><trkpt lat="36.82371432544899" lon="14.968181435261666"><ele>89.0</ele><time>2026-04-30T13:10:40.002Z</time></trkpt><trkpt lat="36.82365870451393" lon="14.968228475284526"><ele>89.0</ele><time>2026-04-30T13:10:41.002Z</time></trkpt><trkpt lat="36.82361108691409" lon="14.96828620599665"><ele>89.0</ele><time>2026-04-30T13:10:42.002Z</time></trkpt><trkpt lat="36.823560077664254" lon="14.968373843909943"><ele>89.0</ele><time>2026-04-30T13:10:43.002Z</time></trkpt><trkpt lat="36.82350378429444" lon="14.968466952195987"><ele>89.0</ele><time>2026-04-30T13:10:44.002Z</time></trkpt><trkpt lat="36.82344206412822" lon="14.968567000680842"><ele>89.0</ele><time>2026-04-30T13:10:45.002Z</time></trkpt><trkpt lat="36.82338649542869" lon="14.968665241941212"><ele>89.0</ele><time>2026-04-30T13:10:46.002Z</time></trkpt><trkpt lat="36.82332932334671" lon="14.96876198411548"><ele>89.6</ele><time>2026-04-30T13:10:47.002Z</time></trkpt><trkpt lat="36.82327152240503" lon="14.968853951143235"><ele>90.2</ele><time>2026-04-30T13:10:48.002Z</time></trkpt><trkpt lat="36.82321348233203" lon="14.968946372836003"><ele>90.8</ele><time>2026-04-30T13:10:49.002Z</time></trkpt><trkpt lat="36.82315219693858" lon="14.969049895613127"><ele>91.39999999999999</ele><time>2026-04-30T13:10:50.002Z</time></trkpt><trkpt lat="36.82309613861399" lon="14.969160695216281"><ele>92.0</ele><time>2026-04-30T13:10:51.002Z</time></trkpt><trkpt lat="36.823061288930404" lon="14.969275416923363"><ele>93.0</ele><time>2026-04-30T13:10:52.002Z</time></trkpt><trkpt lat="36.8230431623736" lon="14.969395292791422"><ele>94.0</ele><time>2026-04-30T13:10:53.002Z</time></trkpt><trkpt lat="36.82304133036027" lon="14.969522727891343"><ele>95.0</ele><time>2026-04-30T13:10:54.002Z</time></trkpt><trkpt lat="36.823050730499375" lon="14.969642385661187"><ele>96.0</ele><time>2026-04-30T13:10:55.002Z</time></trkpt><trkpt lat="36.823066322870616" lon="14.96976120077366"><ele>97.0</ele><time>2026-04-30T13:10:56.002Z</time></trkpt><trkpt lat="36.82308346100069" lon="14.969878351667829"><ele>97.0</ele><time>2026-04-30T13:10:57.002Z</time></trkpt><trkpt lat="36.82311674005694" lon="14.969986074092866"><ele>97.0</ele><time>2026-04-30T13:10:58.002Z</time></trkpt><trkpt lat="36.82315683547487" lon="14.9700929722259"><ele>97.0</ele><time>2026-04-30T13:10:59.002Z</time></trkpt><trkpt lat="36.82319498882449" lon="14.97019765491436"><ele>97.0</ele><time>2026-04-30T13:11:00.002Z</time></trkpt><trkpt lat="36.82323800572364" lon="14.970303906496454"><ele>97.0</ele><time>2026-04-30T13:11:01.002Z</time></trkpt><trkpt lat="36.823284260413544" lon="14.97041354662839"><ele>96.8</ele><time>2026-04-30T13:11:02.002Z</time></trkpt><trkpt lat="36.82333738877661" lon="14.970527639615762"><ele>96.6</ele><time>2026-04-30T13:11:03.002Z</time></trkpt><trkpt lat="36.82338174304387" lon="14.970639869785893"><ele>96.39999999999999</ele><time>2026-04-30T13:11:04.002Z</time></trkpt><trkpt lat="36.823420836110586" lon="14.970744577911612"><ele>96.19999999999999</ele><time>2026-04-30T13:11:05.001Z</time></trkpt><trkpt lat="36.82345046627616" lon="14.970840726563416"><ele>96.0</ele><time>2026-04-30T13:11:06.001Z</time></trkpt><trkpt lat="36.82346994872173" lon="14.970939837615385"><ele>95.6</ele><time>2026-04-30T13:11:07.001Z</time></trkpt><trkpt lat="36.82347080971685" lon="14.971051680010742"><ele>95.19999999999999</ele><time>2026-04-30T13:11:08.001Z</time></trkpt><trkpt lat="36.823458900461226" lon="14.971181055052861"><ele>94.80000000000001</ele><time>2026-04-30T13:11:09.001Z</time></trkpt><trkpt lat="36.82345466726455" lon="14.971319916981258"><ele>94.4</ele><time>2026-04-30T13:11:10.001Z</time></trkpt><trkpt lat="36.8234535373959" lon="14.97145723171446"><ele>94.0</ele><time>2026-04-30T13:11:11.001Z</time></trkpt><trkpt lat="36.82343901481417" lon="14.971590678345057"><ele>93.6</ele><time>2026-04-30T13:11:12.001Z</time></trkpt><trkpt lat="36.82343144680037" lon="14.971717973704331"><ele>93.2</ele><time>2026-04-30T13:11:13.001Z</time></trkpt><trkpt lat="36.82342277555036" lon="14.971836417810085"><ele>92.8</ele><time>2026-04-30T13:11:14.001Z</time></trkpt><trkpt lat="36.823420930660184" lon="14.971963420197225"><ele>92.39999999999999</ele><time>2026-04-30T13:11:15.001Z</time></trkpt><trkpt lat="36.823417021925906" lon="14.972104056069645"><ele>92.0</ele><time>2026-04-30T13:11:16.001Z</time></trkpt><trkpt lat="36.82341044398304" lon="14.972245968186684"><ele>92.0</ele><time>2026-04-30T13:11:17.001Z</time></trkpt><trkpt lat="36.82340996284542" lon="14.972384712778178"><ele>92.0</ele><time>2026-04-30T13:11:18.001Z</time></trkpt><trkpt lat="36.82341095007102" lon="14.972526379828741"><ele>92.0</ele><time>2026-04-30T13:11:19.001Z</time></trkpt><trkpt lat="36.82340940420999" lon="14.972664155735428"><ele>92.0</ele><time>2026-04-30T13:11:20.001Z</time></trkpt><trkpt lat="36.823408697912" lon="14.972801752221386"><ele>92.0</ele><time>2026-04-30T13:11:21.001Z</time></trkpt><trkpt lat="36.82338707133612" lon="14.972937195345834"><ele>91.8</ele><time>2026-04-30T13:11:22.001Z</time></trkpt><trkpt lat="36.82340453368861" lon="14.973067698535521"><ele>91.6</ele><time>2026-04-30T13:11:23.001Z</time></trkpt><trkpt lat="36.8234122199942" lon="14.973211008829"><ele>91.39999999999999</ele><time>2026-04-30T13:11:24.001Z</time></trkpt><trkpt lat="36.823417062086904" lon="14.97335462809686"><ele>91.19999999999999</ele><time>2026-04-30T13:11:25.001Z</time></trkpt><trkpt lat="36.823420790940766" lon="14.973491579992467"><ele>91.0</ele><time>2026-04-30T13:11:26.001Z</time></trkpt><trkpt lat="36.82342356371851" lon="14.973628821932701"><ele>91.0</ele><time>2026-04-30T13:11:27.001Z</time></trkpt><trkpt lat="36.82342892728282" lon="14.973771317401734"><ele>91.0</ele><time>2026-04-30T13:11:28.001Z</time></trkpt><trkpt lat="36.823435277648436" lon="14.973913067151614"><ele>91.0</ele><time>2026-04-30T13:11:29.001Z</time></trkpt><trkpt lat="36.82344474070025" lon="14.974051367796502"><ele>91.0</ele><time>2026-04-30T13:11:30.001Z</time></trkpt><trkpt lat="36.823451249800804" lon="14.974175812762812"><ele>91.0</ele><time>2026-04-30T13:11:31.001Z</time></trkpt><trkpt lat="36.82345674767712" lon="14.974287865174354"><ele>90.66666666666666</ele><time>2026-04-30T13:11:32.001Z</time></trkpt><trkpt lat="36.82345916915266" lon="14.974390112881025"><ele>90.33333333333333</ele><time>2026-04-30T13:11:33.001Z</time></trkpt><trkpt lat="36.823462123026765" lon="14.974491272887432"><ele>90.0</ele><time>2026-04-30T13:11:34.001Z</time></trkpt><trkpt lat="36.8234663252831" lon="14.974598279640205"><ele>89.66666666666667</ele><time>2026-04-30T13:11:35.001Z</time></trkpt><trkpt lat="36.82347515041845" lon="14.974712302400164"><ele>89.33333333333334</ele><time>2026-04-30T13:11:36.001Z</time></trkpt><trkpt lat="36.823488656511294" lon="14.974828769214568"><ele>89.0</ele><time>2026-04-30T13:11:37.001Z</time></trkpt><trkpt lat="36.823505914326546" lon="14.974932222012635"><ele>89.6</ele><time>2026-04-30T13:11:38.001Z</time></trkpt><trkpt lat="36.823523247711705" lon="14.97503897547317"><ele>90.2</ele><time>2026-04-30T13:11:39.001Z</time></trkpt><trkpt lat="36.82355052111561" lon="14.975150045640083"><ele>90.8</ele><time>2026-04-30T13:11:40.001Z</time></trkpt><trkpt lat="36.82357789947344" lon="14.97526432824344"><ele>91.39999999999999</ele><time>2026-04-30T13:11:41.001Z</time></trkpt><trkpt lat="36.82359776723438" lon="14.975370787729597"><ele>92.0</ele><time>2026-04-30T13:11:42.001Z</time></trkpt><trkpt lat="36.82360339522042" lon="14.975486280933769"><ele>92.0</ele><time>2026-04-30T13:11:43.001Z</time></trkpt><trkpt lat="36.823599113706095" lon="14.975605241942153"><ele>92.0</ele><time>2026-04-30T13:11:44.001Z</time></trkpt><trkpt lat="36.82358840593555" lon="14.975718343590968"><ele>92.0</ele><time>2026-04-30T13:11:45.001Z</time></trkpt><trkpt lat="36.82357566745374" lon="14.975818715170865"><ele>92.0</ele><time>2026-04-30T13:11:46.001Z</time></trkpt><trkpt lat="36.823558730013616" lon="14.975909477096158"><ele>92.0</ele><time>2026-04-30T13:11:47.001Z</time></trkpt><trkpt lat="36.823545365104096" lon="14.975997417929413"><ele>92.0</ele><time>2026-04-30T13:11:48.001Z</time></trkpt><trkpt lat="36.82353027472148" lon="14.976094172002878"><ele>91.33333333333334</ele><time>2026-04-30T13:11:49.001Z</time></trkpt><trkpt lat="36.823510168072815" lon="14.976208792794782"><ele>90.66666666666667</ele><time>2026-04-30T13:11:50.001Z</time></trkpt><trkpt lat="36.8234917720059" lon="14.976323555618634"><ele>90.0</ele><time>2026-04-30T13:11:51.001Z</time></trkpt><trkpt lat="36.823476779846786" lon="14.97642181834949"><ele>89.33333333333333</ele><time>2026-04-30T13:11:52.001Z</time></trkpt><trkpt lat="36.823466165166565" lon="14.97650618287125"><ele>88.66666666666666</ele><time>2026-04-30T13:11:53.001Z</time></trkpt><trkpt lat="36.82345832394259" lon="14.976645702274773"><ele>88.0</ele><time>2026-04-30T13:11:55.001Z</time></trkpt><trkpt lat="36.823464585849806" lon="14.97678004261618"><ele>87.5</ele><time>2026-04-30T13:11:57.001Z</time></trkpt><trkpt lat="36.823507382170334" lon="14.976855584043266"><ele>87.0</ele><time>2026-04-30T13:11:59.001Z</time></trkpt><trkpt lat="36.823528476584194" lon="14.976943344179194"><ele>86.5</ele><time>2026-04-30T13:12:04.001Z</time></trkpt><trkpt lat="36.82352599720213" lon="14.977024073359775"><ele>86.0</ele><time>2026-04-30T13:12:08.001Z</time></trkpt><trkpt lat="36.82349245914987" lon="14.977108992876293"><ele>85.5</ele><time>2026-04-30T13:12:11.001Z</time></trkpt><trkpt lat="36.82343632492768" lon="14.97721785259615"><ele>85.0</ele><time>2026-04-30T13:12:13.001Z</time></trkpt><trkpt lat="36.82340934249691" lon="14.97736724021105"><ele>84.0</ele><time>2026-04-30T13:12:15.001Z</time></trkpt><trkpt lat="36.823407039290245" lon="14.977466879245052"><ele>83.0</ele><time>2026-04-30T13:12:16.001Z</time></trkpt><trkpt lat="36.82340452997427" lon="14.977567839969913"><ele>82.0</ele><time>2026-04-30T13:12:17.001Z</time></trkpt><trkpt lat="36.82340312968871" lon="14.977691727327837"><ele>81.0</ele><time>2026-04-30T13:12:18.001Z</time></trkpt><trkpt lat="36.82340607409353" lon="14.977825050065999"><ele>80.0</ele><time>2026-04-30T13:12:19.001Z</time></trkpt><trkpt lat="36.823411050667154" lon="14.977962548783225"><ele>79.33333333333334</ele><time>2026-04-30T13:12:20.001Z</time></trkpt><trkpt lat="36.8234172954932" lon="14.97810740539921"><ele>78.66666666666667</ele><time>2026-04-30T13:12:21.001Z</time></trkpt><trkpt lat="36.8234247971723" lon="14.978303361355344"><ele>78.0</ele><time>2026-04-30T13:12:22.001Z</time></trkpt><trkpt lat="36.82343329216655" lon="14.97852846157494"><ele>77.0</ele><time>2026-04-30T13:12:23.001Z</time></trkpt><trkpt lat="36.82344266413473" lon="14.978776799804233"><ele>76.0</ele><time>2026-04-30T13:12:24.001Z</time></trkpt><trkpt lat="36.82346453118312" lon="14.979032538532561"><ele>75.0</ele><time>2026-04-30T13:12:25.001Z</time></trkpt><trkpt lat="36.82347081045399" lon="14.979296554509126"><ele>75.33333333333333</ele><time>2026-04-30T13:12:26.001Z</time></trkpt><trkpt lat="36.823482463616735" lon="14.97956605246231"><ele>75.66666666666666</ele><time>2026-04-30T13:12:27.001Z</time></trkpt><trkpt lat="36.823493901686504" lon="14.979840159554922"><ele>76.0</ele><time>2026-04-30T13:12:28.001Z</time></trkpt><trkpt lat="36.82351084531159" lon="14.980127154226134"><ele>76.0</ele><time>2026-04-30T13:12:29.001Z</time></trkpt><trkpt lat="36.82353738778513" lon="14.980415253330468"><ele>76.0</ele><time>2026-04-30T13:12:30.001Z</time></trkpt><trkpt lat="36.82356646671884" lon="14.980706489778516"><ele>74.5</ele><time>2026-04-30T13:12:31.001Z</time></trkpt><trkpt lat="36.82360289706875" lon="14.981002778689584"><ele>73.0</ele><time>2026-04-30T13:12:32.001Z</time></trkpt><trkpt lat="36.82362185516037" lon="14.981304785295386"><ele>73.0</ele><time>2026-04-30T13:12:33.001Z</time></trkpt><trkpt lat="36.82367742899457" lon="14.98160750628817"><ele>73.0</ele><time>2026-04-30T13:12:34.001Z</time></trkpt><trkpt lat="36.82371751073982" lon="14.98190457379596"><ele>72.5</ele><time>2026-04-30T13:12:35.001Z</time></trkpt><trkpt lat="36.82376347490228" lon="14.982191518697423"><ele>72.0</ele><time>2026-04-30T13:12:36.001Z</time></trkpt><trkpt lat="36.823806980978986" lon="14.98248315768026"><ele>71.5</ele><time>2026-04-30T13:12:37.001Z</time></trkpt><trkpt lat="36.82381342950314" lon="14.98278612608666"><ele>71.0</ele><time>2026-04-30T13:12:38.001Z</time></trkpt><trkpt lat="36.82383678287091" lon="14.983089249171272"><ele>69.5</ele><time>2026-04-30T13:12:39.001Z</time></trkpt><trkpt lat="36.823875415235975" lon="14.98338733615947"><ele>68.0</ele><time>2026-04-30T13:12:40.001Z</time></trkpt><trkpt lat="36.823896436048926" lon="14.983677171805352"><ele>68.0</ele><time>2026-04-30T13:12:41.001Z</time></trkpt><trkpt lat="36.823918505534195" lon="14.98396732225418"><ele>68.0</ele><time>2026-04-30T13:12:42.001Z</time></trkpt><trkpt lat="36.82393879297469" lon="14.984235589933013"><ele>68.0</ele><time>2026-04-30T13:12:43.001Z</time></trkpt><trkpt lat="36.82395936818385" lon="14.984491082162297"><ele>67.33333333333334</ele><time>2026-04-30T13:12:44.001Z</time></trkpt><trkpt lat="36.82398830129313" lon="14.98475004073275"><ele>66.66666666666667</ele><time>2026-04-30T13:12:45.001Z</time></trkpt><trkpt lat="36.82402012635272" lon="14.98500541178367"><ele>66.0</ele><time>2026-04-30T13:12:46.001Z</time></trkpt><trkpt lat="36.82405272535778" lon="14.98524689380701"><ele>64.66666666666667</ele><time>2026-04-30T13:12:47.001Z</time></trkpt><trkpt lat="36.82407931223768" lon="14.985465190326405"><ele>63.333333333333336</ele><time>2026-04-30T13:12:48.001Z</time></trkpt><trkpt lat="36.82410317380198" lon="14.985672907162881"><ele>62.0</ele><time>2026-04-30T13:12:49.001Z</time></trkpt><trkpt lat="36.824125825664005" lon="14.985867222583456"><ele>61.25</ele><time>2026-04-30T13:12:50.001Z</time></trkpt><trkpt lat="36.82414701703259" lon="14.986051508718196"><ele>60.5</ele><time>2026-04-30T13:12:51.001Z</time></trkpt><trkpt lat="36.824153837661385" lon="14.986225191891634"><ele>59.75</ele><time>2026-04-30T13:12:52.001Z</time></trkpt><trkpt lat="36.82419106069896" lon="14.986381654557743"><ele>59.0</ele><time>2026-04-30T13:12:53.001Z</time></trkpt><trkpt lat="36.82420531549245" lon="14.98651602400602"><ele>59.0</ele><time>2026-04-30T13:12:54.001Z</time></trkpt><trkpt lat="36.82420444564232" lon="14.986622238538393"><ele>59.00000000000001</ele><time>2026-04-30T13:12:55.001Z</time></trkpt><trkpt lat="36.82414817657202" lon="14.986703686862176"><ele>59.00000000000001</ele><time>2026-04-30T13:12:56.001Z</time></trkpt><trkpt lat="36.824083544233666" lon="14.98678983784905"><ele>59.0</ele><time>2026-04-30T13:12:57.001Z</time></trkpt><trkpt lat="36.824004366267594" lon="14.98692255455043"><ele>59.0</ele><time>2026-04-30T13:12:58.001Z</time></trkpt><trkpt lat="36.82391696348009" lon="14.987076656313718"><ele>58.25</ele><time>2026-04-30T13:12:59.001Z</time></trkpt><trkpt lat="36.8238302938006" lon="14.987229465515965"><ele>57.5</ele><time>2026-04-30T13:13:00.001Z</time></trkpt><trkpt lat="36.82375437181474" lon="14.987359547997658"><ele>56.75</ele><time>2026-04-30T13:13:01.001Z</time></trkpt><trkpt lat="36.82369256046375" lon="14.987484083552175"><ele>56.0</ele><time>2026-04-30T13:13:02.001Z</time></trkpt><trkpt lat="36.82361484834523" lon="14.98754309844984"><ele>55.8</ele><time>2026-04-30T13:13:03.001Z</time></trkpt><trkpt lat="36.82354369697874" lon="14.98759580307105"><ele>55.599999999999994</ele><time>2026-04-30T13:13:04.002Z</time></trkpt><trkpt lat="36.823449133374325" lon="14.987586867179905"><ele>55.4</ele><time>2026-04-30T13:13:05.002Z</time></trkpt><trkpt lat="36.8233603844249" lon="14.987556959952666"><ele>55.2</ele><time>2026-04-30T13:13:06.002Z</time></trkpt><trkpt lat="36.823233484446924" lon="14.987522204258868"><ele>55.0</ele><time>2026-04-30T13:13:07.002Z</time></trkpt><trkpt lat="36.82310031921152" lon="14.987503160529979"><ele>55.0</ele><time>2026-04-30T13:13:08.002Z</time></trkpt><trkpt lat="36.822992763074446" lon="14.987460489266285"><ele>55.0</ele><time>2026-04-30T13:13:09.002Z</time></trkpt><trkpt lat="36.822900073043776" lon="14.987405838579942"><ele>55.0</ele><time>2026-04-30T13:13:10.002Z</time></trkpt><trkpt lat="36.822833463807825" lon="14.987304077771748"><ele>55.0</ele><time>2026-04-30T13:13:11Z</time></trkpt><trkpt lat="36.82275589089187" lon="14.987243874061601"><ele>55.0</ele><time>2026-04-30T13:13:12Z</time></trkpt><trkpt lat="36.82271757800884" lon="14.987180004497723"><ele>55.0</ele><time>2026-04-30T13:13:13Z</time></trkpt><trkpt lat="36.822651459904975" lon="14.98713281141888"><ele>55.0</ele><time>2026-04-30T13:13:15Z</time></trkpt><trkpt lat="36.822511879245695" lon="14.987315673340463"><ele>55.0</ele><time>2026-04-30T13:13:16Z</time></trkpt><trkpt lat="36.82245070888813" lon="14.987409606164395"><ele>55.0</ele><time>2026-04-30T13:13:17Z</time></trkpt><trkpt lat="36.82238523254884" lon="14.987528281137408"><ele>55.25</ele><time>2026-04-30T13:13:18Z</time></trkpt><trkpt lat="36.822302109217254" lon="14.9876564673701"><ele>55.5</ele><time>2026-04-30T13:13:19Z</time></trkpt><trkpt lat="36.822212748631955" lon="14.987804376792711"><ele>55.75</ele><time>2026-04-30T13:13:20Z</time></trkpt><trkpt lat="36.822100565951374" lon="14.98795198965637"><ele>56.0</ele><time>2026-04-30T13:13:21Z</time></trkpt><trkpt lat="36.82199964772981" lon="14.98812186564882"><ele>56.0</ele><time>2026-04-30T13:13:22Z</time></trkpt><trkpt lat="36.82189136701506" lon="14.988304294821848"><ele>56.0</ele><time>2026-04-30T13:13:23Z</time></trkpt><trkpt lat="36.82177435088349" lon="14.988490915564332"><ele>56.0</ele><time>2026-04-30T13:13:24Z</time></trkpt><trkpt lat="36.82166383551836" lon="14.988667628042952"><ele>57.333333333333336</ele><time>2026-04-30T13:13:25Z</time></trkpt><trkpt lat="36.82156045050619" lon="14.988836188419144"><ele>58.66666666666667</ele><time>2026-04-30T13:13:26Z</time></trkpt><trkpt lat="36.82145822876516" lon="14.989000862838347"><ele>60.0</ele><time>2026-04-30T13:13:27Z</time></trkpt><trkpt lat="36.82135452041144" lon="14.989162388341013"><ele>61.33333333333333</ele><time>2026-04-30T13:13:28Z</time></trkpt><trkpt lat="36.82125105433691" lon="14.989321134090414"><ele>62.666666666666664</ele><time>2026-04-30T13:13:29Z</time></trkpt><trkpt lat="36.8211513551948" lon="14.989479772197763"><ele>64.0</ele><time>2026-04-30T13:13:30Z</time></trkpt><trkpt lat="36.8210555394287" lon="14.989631464662551"><ele>64.75</ele><time>2026-04-30T13:13:31Z</time></trkpt><trkpt lat="36.820960991483375" lon="14.98978016592685"><ele>65.5</ele><time>2026-04-30T13:13:32Z</time></trkpt><trkpt lat="36.8208716582028" lon="14.989923681573842"><ele>66.25</ele><time>2026-04-30T13:13:33Z</time></trkpt><trkpt lat="36.8207950676385" lon="14.990055370185823"><ele>67.0</ele><time>2026-04-30T13:13:34Z</time></trkpt><trkpt lat="36.82071736055846" lon="14.99018358027242"><ele>67.75</ele><time>2026-04-30T13:13:35Z</time></trkpt><trkpt lat="36.820629668446685" lon="14.99031525628058"><ele>68.5</ele><time>2026-04-30T13:13:36Z</time></trkpt><trkpt lat="36.820543424413216" lon="14.990448509198012"><ele>69.25</ele><time>2026-04-30T13:13:37Z</time></trkpt><trkpt lat="36.82046914495882" lon="14.990564196059603"><ele>70.0</ele><time>2026-04-30T13:13:38Z</time></trkpt><trkpt lat="36.820414900192105" lon="14.990664958885203"><ele>70.0</ele><time>2026-04-30T13:13:39Z</time></trkpt><trkpt lat="36.820376523976456" lon="14.990736754798384"><ele>70.0</ele><time>2026-04-30T13:13:40Z</time></trkpt><trkpt lat="36.82030881552857" lon="14.990812469178376"><ele>70.0</ele><time>2026-04-30T13:13:42Z</time></trkpt><trkpt lat="36.82020991768824" lon="14.990755636676777"><ele>70.0</ele><time>2026-04-30T13:13:44Z</time></trkpt><trkpt lat="36.82012905180955" lon="14.99068441962062"><ele>70.0</ele><time>2026-04-30T13:13:45Z</time></trkpt><trkpt lat="36.8200388909611" lon="14.990560532524391"><ele>71.75</ele><time>2026-04-30T13:13:46Z</time></trkpt><trkpt lat="36.819927645461426" lon="14.990460628784426"><ele>73.5</ele><time>2026-04-30T13:13:47Z</time></trkpt><trkpt lat="36.819813618869226" lon="14.990360661457748"><ele>75.25</ele><time>2026-04-30T13:13:48Z</time></trkpt><trkpt lat="36.819678122789476" lon="14.990248615338453"><ele>77.0</ele><time>2026-04-30T13:13:49Z</time></trkpt><trkpt lat="36.81953004028613" lon="14.99016842320124"><ele>77.0</ele><time>2026-04-30T13:13:50Z</time></trkpt><trkpt lat="36.81940753539922" lon="14.990077596966307"><ele>77.0</ele><time>2026-04-30T13:13:51Z</time></trkpt><trkpt lat="36.819287833970286" lon="14.990015101247797"><ele>77.0</ele><time>2026-04-30T13:13:52Z</time></trkpt><trkpt lat="36.81917556809941" lon="14.989899896076682"><ele>77.0</ele><time>2026-04-30T13:13:53Z</time></trkpt><trkpt lat="36.8190603479907" lon="14.989780161447921"><ele>76.5</ele><time>2026-04-30T13:13:54Z</time></trkpt><trkpt lat="36.818928337687396" lon="14.989667084516736"><ele>76.0</ele><time>2026-04-30T13:13:55Z</time></trkpt><trkpt lat="36.818820870363" lon="14.989543607162787"><ele>75.5</ele><time>2026-04-30T13:13:56Z</time></trkpt><trkpt lat="36.81872020378404" lon="14.989434143074845"><ele>75.0</ele><time>2026-04-30T13:13:57Z</time></trkpt><trkpt lat="36.81864017184847" lon="14.989346174948041"><ele>75.0</ele><time>2026-04-30T13:13:58.001Z</time></trkpt><trkpt lat="36.818558767038795" lon="14.989269091632753"><ele>75.0</ele><time>2026-04-30T13:13:59.001Z</time></trkpt><trkpt lat="36.81847494244315" lon="14.98922067185036"><ele>75.0</ele><time>2026-04-30T13:14:00.001Z</time></trkpt><trkpt lat="36.81840595642381" lon="14.989221201542385"><ele>75.0</ele><time>2026-04-30T13:14:01.001Z</time></trkpt><trkpt lat="36.818323176325016" lon="14.989251299398575"><ele>75.0</ele><time>2026-04-30T13:14:02.001Z</time></trkpt><trkpt lat="36.818232244943125" lon="14.989296820647112"><ele>75.0</ele><time>2026-04-30T13:14:03.001Z</time></trkpt><trkpt lat="36.81817024789983" lon="14.989351277913965"><ele>76.66666666666667</ele><time>2026-04-30T13:14:04.001Z</time></trkpt><trkpt lat="36.818111885239745" lon="14.989425734519726"><ele>78.33333333333333</ele><time>2026-04-30T13:14:05.001Z</time></trkpt><trkpt lat="36.81804881136349" lon="14.989489139714149"><ele>80.0</ele><time>2026-04-30T13:14:06.001Z</time></trkpt><trkpt lat="36.81799423232888" lon="14.989529381913202"><ele>81.66666666666666</ele><time>2026-04-30T13:14:07.001Z</time></trkpt><trkpt lat="36.81790015880903" lon="14.98950362274294"><ele>83.33333333333333</ele><time>2026-04-30T13:14:08.001Z</time></trkpt><trkpt lat="36.817781409915135" lon="14.989546004946105"><ele>85.0</ele><time>2026-04-30T13:14:09.001Z</time></trkpt><trkpt lat="36.81765549270405" lon="14.989592896515191"><ele>86.0</ele><time>2026-04-30T13:14:10.001Z</time></trkpt><trkpt lat="36.81751385540737" lon="14.989638582184725"><ele>87.0</ele><time>2026-04-30T13:14:11.001Z</time></trkpt><trkpt lat="36.81739811921518" lon="14.98967277862476"><ele>88.0</ele><time>2026-04-30T13:14:12.001Z</time></trkpt><trkpt lat="36.81728519170952" lon="14.989706145186581"><ele>89.0</ele><time>2026-04-30T13:14:13.001Z</time></trkpt><trkpt lat="36.81716284494421" lon="14.98974229484244"><ele>89.0</ele><time>2026-04-30T13:14:14.001Z</time></trkpt><trkpt lat="36.8170466747313" lon="14.989776619524633"><ele>89.0</ele><time>2026-04-30T13:14:15.001Z</time></trkpt><trkpt lat="36.81692624632023" lon="14.98981220237827"><ele>89.0</ele><time>2026-04-30T13:14:16.001Z</time></trkpt><trkpt lat="36.816794333824824" lon="14.989853348464244"><ele>89.0</ele><time>2026-04-30T13:14:17.001Z</time></trkpt><trkpt lat="36.81663505108748" lon="14.989912790075827"><ele>88.0</ele><time>2026-04-30T13:14:18.001Z</time></trkpt><trkpt lat="36.816478523219764" lon="14.9899844154823"><ele>87.0</ele><time>2026-04-30T13:14:19.001Z</time></trkpt><trkpt lat="36.8163399867801" lon="14.99004447629682"><ele>86.0</ele><time>2026-04-30T13:14:20.001Z</time></trkpt><trkpt lat="36.8162165061397" lon="14.990090165156081"><ele>85.0</ele><time>2026-04-30T13:14:21.001Z</time></trkpt><trkpt lat="36.816093613703146" lon="14.99012851380845"><ele>86.4</ele><time>2026-04-30T13:14:22.001Z</time></trkpt><trkpt lat="36.81598247058484" lon="14.990148975461127"><ele>87.8</ele><time>2026-04-30T13:14:23.001Z</time></trkpt><trkpt lat="36.815878882078835" lon="14.990160332193936"><ele>89.19999999999999</ele><time>2026-04-30T13:14:24.001Z</time></trkpt><trkpt lat="36.81577194318964" lon="14.990173187487063"><ele>90.6</ele><time>2026-04-30T13:14:25.001Z</time></trkpt><trkpt lat="36.815673076184446" lon="14.990211406710383"><ele>92.0</ele><time>2026-04-30T13:14:26.001Z</time></trkpt><trkpt lat="36.81557922305799" lon="14.990232341949806"><ele>92.0</ele><time>2026-04-30T13:14:27.001Z</time></trkpt><trkpt lat="36.815464893584" lon="14.990281538640359"><ele>92.0</ele><time>2026-04-30T13:14:28.001Z</time></trkpt><trkpt lat="36.815329050942665" lon="14.990311927115561"><ele>92.0</ele><time>2026-04-30T13:14:29.001Z</time></trkpt><trkpt lat="36.815224572355774" lon="14.990364945496124"><ele>92.0</ele><time>2026-04-30T13:14:30.001Z</time></trkpt><trkpt lat="36.815135258736746" lon="14.990395445358466"><ele>91.6</ele><time>2026-04-30T13:14:31.001Z</time></trkpt><trkpt lat="36.81505231949765" lon="14.99042867604678"><ele>91.19999999999999</ele><time>2026-04-30T13:14:32.001Z</time></trkpt><trkpt lat="36.81495669001108" lon="14.990516533036242"><ele>90.8</ele><time>2026-04-30T13:14:33.001Z</time></trkpt><trkpt lat="36.81486162354036" lon="14.990617048598187"><ele>90.4</ele><time>2026-04-30T13:14:34.001Z</time></trkpt><trkpt lat="36.814780620535444" lon="14.990719038305658"><ele>90.0</ele><time>2026-04-30T13:14:35.001Z</time></trkpt><trkpt lat="36.814674858060485" lon="14.990828683722789"><ele>91.5</ele><time>2026-04-30T13:14:36.001Z</time></trkpt><trkpt lat="36.81457109738698" lon="14.990912996256423"><ele>93.0</ele><time>2026-04-30T13:14:37.001Z</time></trkpt><trkpt lat="36.81446935345572" lon="14.990976463874485"><ele>94.5</ele><time>2026-04-30T13:14:38.001Z</time></trkpt><trkpt lat="36.81436769977217" lon="14.991030772221213"><ele>96.0</ele><time>2026-04-30T13:14:39.001Z</time></trkpt><trkpt lat="36.81424535875953" lon="14.991089135634324"><ele>96.0</ele><time>2026-04-30T13:14:40.001Z</time></trkpt><trkpt lat="36.81408812904402" lon="14.991154829710455"><ele>96.0</ele><time>2026-04-30T13:14:41.001Z</time></trkpt><trkpt lat="36.81393987759288" lon="14.99121182227402"><ele>96.0</ele><time>2026-04-30T13:14:42.001Z</time></trkpt><trkpt lat="36.813813286394115" lon="14.991256860589468"><ele>96.0</ele><time>2026-04-30T13:14:43.001Z</time></trkpt><trkpt lat="36.81369496777474" lon="14.991317045604337"><ele>96.0</ele><time>2026-04-30T13:14:44.001Z</time></trkpt><trkpt lat="36.81356493149435" lon="14.99136180391234"><ele>96.0</ele><time>2026-04-30T13:14:45.001Z</time></trkpt><trkpt lat="36.81340934941178" lon="14.99139674466546"><ele>96.0</ele><time>2026-04-30T13:14:46.001Z</time></trkpt><trkpt lat="36.81326085403801" lon="14.991447718400627"><ele>95.0</ele><time>2026-04-30T13:14:47.001Z</time></trkpt><trkpt lat="36.81313410085696" lon="14.991507742688322"><ele>94.0</ele><time>2026-04-30T13:14:48.001Z</time></trkpt><trkpt lat="36.813012980905725" lon="14.99154739987442"><ele>93.0</ele><time>2026-04-30T13:14:49.001Z</time></trkpt><trkpt lat="36.81290498009467" lon="14.991588083974074"><ele>92.0</ele><time>2026-04-30T13:14:50.001Z</time></trkpt><trkpt lat="36.812806509036356" lon="14.991629181140038"><ele>92.0</ele><time>2026-04-30T13:14:51.001Z</time></trkpt><trkpt lat="36.81270525743316" lon="14.991648959716134"><ele>92.0</ele><time>2026-04-30T13:14:52.001Z</time></trkpt><trkpt lat="36.812619557932045" lon="14.991682689683493"><ele>92.0</ele><time>2026-04-30T13:14:53.001Z</time></trkpt><trkpt lat="36.81252462266518" lon="14.991715007634866"><ele>92.0</ele><time>2026-04-30T13:14:54.001Z</time></trkpt><trkpt lat="36.81243040389952" lon="14.991742149179206"><ele>92.0</ele><time>2026-04-30T13:14:55.001Z</time></trkpt><trkpt lat="36.812341615158346" lon="14.991765379163942"><ele>92.16666666666667</ele><time>2026-04-30T13:14:56.001Z</time></trkpt><trkpt lat="36.8122663120953" lon="14.99178338262352"><ele>92.33333333333334</ele><time>2026-04-30T13:14:57.001Z</time></trkpt><trkpt lat="36.8121891738623" lon="14.991799284257626"><ele>92.5</ele><time>2026-04-30T13:14:58.001Z</time></trkpt><trkpt lat="36.812109442127316" lon="14.991815720530573"><ele>92.66666666666667</ele><time>2026-04-30T13:14:59.001Z</time></trkpt><trkpt lat="36.81202656723274" lon="14.991856540516805"><ele>92.83333333333333</ele><time>2026-04-30T13:15:00.001Z</time></trkpt><trkpt lat="36.81193184296401" lon="14.991868567344438"><ele>93.0</ele><time>2026-04-30T13:15:01.001Z</time></trkpt><trkpt lat="36.81183818309253" lon="14.991905317911165"><ele>91.2</ele><time>2026-04-30T13:15:02.001Z</time></trkpt><trkpt lat="36.811748711093536" lon="14.991942140707302"><ele>89.4</ele><time>2026-04-30T13:15:03.001Z</time></trkpt><trkpt lat="36.81166865302847" lon="14.991973795118858"><ele>87.60000000000001</ele><time>2026-04-30T13:15:04.001Z</time></trkpt><trkpt lat="36.811573059653696" lon="14.992031395470667"><ele>85.80000000000001</ele><time>2026-04-30T13:15:05.001Z</time></trkpt><trkpt lat="36.81146800256007" lon="14.992067771879091"><ele>84.0</ele><time>2026-04-30T13:15:06.001Z</time></trkpt><trkpt lat="36.81135957367764" lon="14.992108015893395"><ele>84.0</ele><time>2026-04-30T13:15:07.001Z</time></trkpt><trkpt lat="36.81122271948876" lon="14.992139600627965"><ele>84.0</ele><time>2026-04-30T13:15:08.001Z</time></trkpt><trkpt lat="36.811099951767424" lon="14.99218301119342"><ele>84.0</ele><time>2026-04-30T13:15:09.001Z</time></trkpt><trkpt lat="36.81098951361894" lon="14.992221203824183"><ele>84.0</ele><time>2026-04-30T13:15:10.001Z</time></trkpt><trkpt lat="36.810856786895286" lon="14.992280483828152"><ele>82.0</ele><time>2026-04-30T13:15:11.001Z</time></trkpt><trkpt lat="36.81072973888639" lon="14.992319234929038"><ele>80.0</ele><time>2026-04-30T13:15:12.001Z</time></trkpt><trkpt lat="36.81059520450896" lon="14.992370026963366"><ele>78.0</ele><time>2026-04-30T13:15:13.001Z</time></trkpt><trkpt lat="36.81046952930768" lon="14.992398417116489"><ele>76.0</ele><time>2026-04-30T13:15:14.001Z</time></trkpt><trkpt lat="36.810345697352275" lon="14.992468637365592"><ele>75.75</ele><time>2026-04-30T13:15:15.001Z</time></trkpt><trkpt lat="36.81020436273526" lon="14.992511709821292"><ele>75.5</ele><time>2026-04-30T13:15:16.001Z</time></trkpt><trkpt lat="36.810091825934215" lon="14.992563427911108"><ele>75.25</ele><time>2026-04-30T13:15:17Z</time></trkpt><trkpt lat="36.80999070930143" lon="14.992610166515913"><ele>75.0</ele><time>2026-04-30T13:15:18Z</time></trkpt><trkpt lat="36.80990260560955" lon="14.992649520759384"><ele>75.0</ele><time>2026-04-30T13:15:19Z</time></trkpt><trkpt lat="36.80981677498447" lon="14.992663398344627"><ele>75.0</ele><time>2026-04-30T13:15:21Z</time></trkpt><trkpt lat="36.80985926275411" lon="14.992862873503123"><ele>75.0</ele><time>2026-04-30T13:15:26Z</time></trkpt><trkpt lat="36.809860104473195" lon="14.992972405130018"><ele>75.0</ele><time>2026-04-30T13:15:29Z</time></trkpt><trkpt lat="36.8098602267692" lon="14.993077005870964"><ele>75.0</ele><time>2026-04-30T13:15:31Z</time></trkpt><trkpt lat="36.80986386062745" lon="14.993191414310786"><ele>75.0</ele><time>2026-04-30T13:15:33Z</time></trkpt><trkpt lat="36.80986688740027" lon="14.9933129829578"><ele>75.0</ele><time>2026-04-30T13:15:35Z</time></trkpt><trkpt lat="36.809871475543694" lon="14.99340863850163"><ele>75.0</ele><time>2026-04-30T13:15:37Z</time></trkpt><trkpt lat="36.809853947877485" lon="14.993513758948582"><ele>75.0</ele><time>2026-04-30T13:15:39Z</time></trkpt><trkpt lat="36.80985621273593" lon="14.99360938758959"><ele>75.0</ele><time>2026-04-30T13:15:41Z</time></trkpt><trkpt lat="36.80985562139149" lon="14.993716700289351"><ele>75.0</ele><time>2026-04-30T13:15:43Z</time></trkpt><trkpt lat="36.80985927951939" lon="14.993822060756445"><ele>74.2</ele><time>2026-04-30T13:15:45Z</time></trkpt><trkpt lat="36.80985376810136" lon="14.993927948908546"><ele>73.4</ele><time>2026-04-30T13:15:47Z</time></trkpt><trkpt lat="36.80985453655862" lon="14.994035150027795"><ele>72.6</ele><time>2026-04-30T13:15:49Z</time></trkpt><trkpt lat="36.80985816009146" lon="14.994146738135955"><ele>71.8</ele><time>2026-04-30T13:15:51Z</time></trkpt><trkpt lat="36.809864868514936" lon="14.994267596755092"><ele>71.0</ele><time>2026-04-30T13:15:53Z</time></trkpt><trkpt lat="36.80986546127392" lon="14.994410425872411"><ele>70.33333333333334</ele><time>2026-04-30T13:15:55Z</time></trkpt><trkpt lat="36.8098693538347" lon="14.994540291019684"><ele>69.66666666666667</ele><time>2026-04-30T13:15:57Z</time></trkpt><trkpt lat="36.809875709675346" lon="14.994642892847716"><ele>69.0</ele><time>2026-04-30T13:15:59Z</time></trkpt><trkpt lat="36.80991258819776" lon="14.994720081441807"><ele>68.33333333333333</ele><time>2026-04-30T13:16:03Z</time></trkpt><trkpt lat="36.80990252868052" lon="14.994838958458619"><ele>67.66666666666666</ele><time>2026-04-30T13:16:05Z</time></trkpt><trkpt lat="36.809888865208386" lon="14.99495108273062"><ele>67.0</ele><time>2026-04-30T13:16:09Z</time></trkpt><trkpt lat="36.809880384828546" lon="14.995064870751515"><ele>66.2</ele><time>2026-04-30T13:16:11Z</time></trkpt><trkpt lat="36.80989815640456" lon="14.995205011091368"><ele>65.4</ele><time>2026-04-30T13:16:13Z</time></trkpt><trkpt lat="36.809910172609925" lon="14.995348601764318"><ele>64.6</ele><time>2026-04-30T13:16:15Z</time></trkpt><trkpt lat="36.809905731195066" lon="14.9954768782151"><ele>63.8</ele><time>2026-04-30T13:16:17.001Z</time></trkpt><trkpt lat="36.80990805907291" lon="14.995571486935765"><ele>63.0</ele><time>2026-04-30T13:16:19.001Z</time></trkpt><trkpt lat="36.80991646497617" lon="14.995693852945177"><ele>63.0</ele><time>2026-04-30T13:16:21.001Z</time></trkpt><trkpt lat="36.809927505610105" lon="14.99579998135958"><ele>63.0</ele><time>2026-04-30T13:16:23.001Z</time></trkpt><trkpt lat="36.809919719863956" lon="14.995918151668736"><ele>63.0</ele><time>2026-04-30T13:16:25.001Z</time></trkpt><trkpt lat="36.80993506694303" lon="14.99606772788834"><ele>63.0</ele><time>2026-04-30T13:16:27.001Z</time></trkpt><trkpt lat="36.80994419839587" lon="14.996153215474527"><ele>63.0</ele><time>2026-04-30T13:16:28.001Z</time></trkpt><trkpt lat="36.80995365700565" lon="14.996236310692218"><ele>63.0</ele><time>2026-04-30T13:16:29.001Z</time></trkpt><trkpt lat="36.80996037845147" lon="14.996380676224488"><ele>62.599999999999994</ele><time>2026-04-30T13:16:31.001Z</time></trkpt><trkpt lat="36.809976516636155" lon="14.996511655284634"><ele>62.199999999999996</ele><time>2026-04-30T13:16:33.001Z</time></trkpt><trkpt lat="36.80998061517712" lon="14.996626377972564"><ele>61.8</ele><time>2026-04-30T13:16:35.001Z</time></trkpt><trkpt lat="36.81006092123458" lon="14.996687055706646"><ele>61.4</ele><time>2026-04-30T13:16:38.001Z</time></trkpt><trkpt lat="36.81020242302742" lon="14.996660478573393"><ele>61.0</ele><time>2026-04-30T13:16:40.001Z</time></trkpt><trkpt lat="36.81027734377626" lon="14.99665640857225"><ele>61.0</ele><time>2026-04-30T13:16:41.001Z</time></trkpt><trkpt lat="36.81039065148762" lon="14.996680945768281"><ele>61.0</ele><time>2026-04-30T13:16:43.001Z</time></trkpt><trkpt lat="36.81044173342139" lon="14.996774351074073"><ele>61.0</ele><time>2026-04-30T13:16:45.001Z</time></trkpt><trkpt lat="36.81042718719008" lon="14.996952086340519"><ele>61.0</ele><time>2026-04-30T13:16:47.001Z</time></trkpt><trkpt lat="36.810400445403104" lon="14.997085523831077"><ele>61.0</ele><time>2026-04-30T13:16:48.001Z</time></trkpt><trkpt lat="36.8103715928346" lon="14.997228544494204"><ele>61.0</ele><time>2026-04-30T13:16:49.001Z</time></trkpt><trkpt lat="36.81034073282317" lon="14.99738218137753"><ele>61.0</ele><time>2026-04-30T13:16:50.001Z</time></trkpt><trkpt lat="36.810308686184484" lon="14.99752666834672"><ele>61.0</ele><time>2026-04-30T13:16:51.001Z</time></trkpt><trkpt lat="36.81027764119636" lon="14.997655795003629"><ele>60.599999999999994</ele><time>2026-04-30T13:16:52.001Z</time></trkpt><trkpt lat="36.810248618186556" lon="14.99777732766083"><ele>60.199999999999996</ele><time>2026-04-30T13:16:53.001Z</time></trkpt><trkpt lat="36.810234004727356" lon="14.997897334305215"><ele>59.800000000000004</ele><time>2026-04-30T13:16:54.001Z</time></trkpt><trkpt lat="36.81021631964876" lon="14.998027917416236"><ele>59.400000000000006</ele><time>2026-04-30T13:16:55.001Z</time></trkpt><trkpt lat="36.81019386495434" lon="14.9981498674626"><ele>59.0</ele><time>2026-04-30T13:16:56.001Z</time></trkpt><trkpt lat="36.810161077345434" lon="14.998265530353027"><ele>59.16666666666667</ele><time>2026-04-30T13:16:57.001Z</time></trkpt><trkpt lat="36.8101438805428" lon="14.998369344939505"><ele>59.333333333333336</ele><time>2026-04-30T13:16:58.001Z</time></trkpt><trkpt lat="36.81013786245" lon="14.998466928150757"><ele>59.5</ele><time>2026-04-30T13:16:59.001Z</time></trkpt><trkpt lat="36.81014884229097" lon="14.998572476520408"><ele>59.66666666666667</ele><time>2026-04-30T13:17:00.001Z</time></trkpt><trkpt lat="36.810167322093164" lon="14.998673483297468"><ele>59.833333333333336</ele><time>2026-04-30T13:17:01.001Z</time></trkpt><trkpt lat="36.81017916237824" lon="14.998795638684236"><ele>60.0</ele><time>2026-04-30T13:17:02.001Z</time></trkpt><trkpt lat="36.81019006054284" lon="14.998931749747348"><ele>60.0</ele><time>2026-04-30T13:17:03.001Z</time></trkpt><trkpt lat="36.81018568984256" lon="14.999063613616036"><ele>60.0</ele><time>2026-04-30T13:17:04.001Z</time></trkpt><trkpt lat="36.81017433464694" lon="14.999171591741906"><ele>60.0</ele><time>2026-04-30T13:17:05.001Z</time></trkpt><trkpt lat="36.81015830837585" lon="14.999277843820096"><ele>60.0</ele><time>2026-04-30T13:17:06.001Z</time></trkpt><trkpt lat="36.81012437605228" lon="14.999372397950973"><ele>60.0</ele><time>2026-04-30T13:17:07.001Z</time></trkpt><trkpt lat="36.810103694626044" lon="14.999484484126993"><ele>60.8</ele><time>2026-04-30T13:17:08.001Z</time></trkpt><trkpt lat="36.81009713075319" lon="14.999620047529046"><ele>61.6</ele><time>2026-04-30T13:17:09.001Z</time></trkpt><trkpt lat="36.810094506100604" lon="14.999725649559414"><ele>62.400000000000006</ele><time>2026-04-30T13:17:10.001Z</time></trkpt><trkpt lat="36.81013678537561" lon="14.999878279951654"><ele>63.2</ele><time>2026-04-30T13:17:12.001Z</time></trkpt><trkpt lat="36.81017572663992" lon="14.999986628289491"><ele>64.0</ele><time>2026-04-30T13:17:13.001Z</time></trkpt><trkpt lat="36.81022255569279" lon="15.000137116377202"><ele>64.0</ele><time>2026-04-30T13:17:14.001Z</time></trkpt><trkpt lat="36.8102662858937" lon="15.000278913252542"><ele>64.0</ele><time>2026-04-30T13:17:15.001Z</time></trkpt><trkpt lat="36.81030486093295" lon="15.000395585692548"><ele>64.0</ele><time>2026-04-30T13:17:16.001Z</time></trkpt><trkpt lat="36.81034565679844" lon="15.000518976048113"><ele>64.0</ele><time>2026-04-30T13:17:17.001Z</time></trkpt><trkpt lat="36.81037602854848" lon="15.000646321002085"><ele>64.0</ele><time>2026-04-30T13:17:18.001Z</time></trkpt><trkpt lat="36.81041520336527" lon="15.000774595253858"><ele>62.0</ele><time>2026-04-30T13:17:19.001Z</time></trkpt><trkpt lat="36.81046577426052" lon="15.000899977345782"><ele>60.0</ele><time>2026-04-30T13:17:20.001Z</time></trkpt><trkpt lat="36.81052397774214" lon="15.00101050677567"><ele>58.0</ele><time>2026-04-30T13:17:21.001Z</time></trkpt><trkpt lat="36.8105949912826" lon="15.00111947943413"><ele>56.0</ele><time>2026-04-30T13:17:22.001Z</time></trkpt><trkpt lat="36.810674280040374" lon="15.001240209463399"><ele>56.0</ele><time>2026-04-30T13:17:23Z</time></trkpt><trkpt lat="36.81075580015621" lon="15.001356001047316"><ele>55.99999999999999</ele><time>2026-04-30T13:17:24Z</time></trkpt><trkpt lat="36.81082791809119" lon="15.00144628690268"><ele>55.99999999999999</ele><time>2026-04-30T13:17:25Z</time></trkpt><trkpt lat="36.81090979231134" lon="15.001520934028536"><ele>56.0</ele><time>2026-04-30T13:17:26Z</time></trkpt><trkpt lat="36.8110048653417" lon="15.001593915217857"><ele>56.0</ele><time>2026-04-30T13:17:27Z</time></trkpt><trkpt lat="36.81111007493203" lon="15.001664796451633"><ele>55.199999999999996</ele><time>2026-04-30T13:17:28Z</time></trkpt><trkpt lat="36.81122040058236" lon="15.001726123547067"><ele>54.39999999999999</ele><time>2026-04-30T13:17:29Z</time></trkpt><trkpt lat="36.81131841355428" lon="15.001783850252615"><ele>53.6</ele><time>2026-04-30T13:17:30Z</time></trkpt><trkpt lat="36.811389695933435" lon="15.001837482953919"><ele>52.8</ele><time>2026-04-30T13:17:31Z</time></trkpt><trkpt lat="36.811453161190755" lon="15.001912436682662"><ele>52.0</ele><time>2026-04-30T13:17:32Z</time></trkpt><trkpt lat="36.81149196023225" lon="15.002007905519156"><ele>52.0</ele><time>2026-04-30T13:17:33Z</time></trkpt><trkpt lat="36.81154969926729" lon="15.00213683317202"><ele>52.0</ele><time>2026-04-30T13:17:34Z</time></trkpt><trkpt lat="36.81160822052073" lon="15.00223221728336"><ele>52.0</ele><time>2026-04-30T13:17:35Z</time></trkpt><trkpt lat="36.811651259825894" lon="15.002321798321923"><ele>52.0</ele><time>2026-04-30T13:17:36Z</time></trkpt><trkpt lat="36.81167598647786" lon="15.002401286646192"><ele>52.0</ele><time>2026-04-30T13:17:37Z</time></trkpt><trkpt lat="36.81173029517735" lon="15.002514905022474"><ele>50.8</ele><time>2026-04-30T13:17:39Z</time></trkpt><trkpt lat="36.811777274171114" lon="15.002592033149083"><ele>49.6</ele><time>2026-04-30T13:17:41Z</time></trkpt><trkpt lat="36.81179772507042" lon="15.002684200281"><ele>48.4</ele><time>2026-04-30T13:17:42Z</time></trkpt><trkpt lat="36.81178977037645" lon="15.002826598416807"><ele>47.199999999999996</ele><time>2026-04-30T13:17:43Z</time></trkpt><trkpt lat="36.81179723111849" lon="15.002976563256002"><ele>46.0</ele><time>2026-04-30T13:17:44Z</time></trkpt><trkpt lat="36.811805391925226" lon="15.003137981712923"><ele>46.0</ele><time>2026-04-30T13:17:45Z</time></trkpt><trkpt lat="36.811815812172604" lon="15.003305158734806"><ele>46.0</ele><time>2026-04-30T13:17:46Z</time></trkpt><trkpt lat="36.81182696550939" lon="15.003495913909099"><ele>46.0</ele><time>2026-04-30T13:17:47Z</time></trkpt><trkpt lat="36.81183821408449" lon="15.0036882980317"><ele>46.0</ele><time>2026-04-30T13:17:48Z</time></trkpt><trkpt lat="36.811851681938066" lon="15.003918216017729"><ele>44.66666666666667</ele><time>2026-04-30T13:17:49Z</time></trkpt><trkpt lat="36.81186180742974" lon="15.004143963539523"><ele>43.333333333333336</ele><time>2026-04-30T13:17:50Z</time></trkpt><trkpt lat="36.81187593057718" lon="15.004339045018671"><ele>42.0</ele><time>2026-04-30T13:17:51Z</time></trkpt><trkpt lat="36.811897115651576" lon="15.004523986830646"><ele>41.5</ele><time>2026-04-30T13:17:52Z</time></trkpt><trkpt lat="36.81192084535876" lon="15.004695269412835"><ele>41.0</ele><time>2026-04-30T13:17:53Z</time></trkpt><trkpt lat="36.81192642887543" lon="15.004860889124329"><ele>40.5</ele><time>2026-04-30T13:17:54Z</time></trkpt><trkpt lat="36.811924688221886" lon="15.005048181235438"><ele>40.0</ele><time>2026-04-30T13:17:55Z</time></trkpt><trkpt lat="36.81193504901245" lon="15.005228460019133"><ele>39.333333333333336</ele><time>2026-04-30T13:17:56Z</time></trkpt><trkpt lat="36.81204326710469" lon="15.005351835054679"><ele>38.666666666666664</ele><time>2026-04-30T13:17:57Z</time></trkpt><trkpt lat="36.81194291612234" lon="15.005596199483328"><ele>38.0</ele><time>2026-04-30T13:17:58Z</time></trkpt><trkpt lat="36.81192248494274" lon="15.005820121950357"><ele>38.33333333333333</ele><time>2026-04-30T13:17:59Z</time></trkpt><trkpt lat="36.81190332270428" lon="15.005999911887871"><ele>38.666666666666664</ele><time>2026-04-30T13:18:00Z</time></trkpt><trkpt lat="36.81188548769447" lon="15.006200401183111"><ele>39.0</ele><time>2026-04-30T13:18:01Z</time></trkpt><trkpt lat="36.811869843936435" lon="15.00638708433968"><ele>39.0</ele><time>2026-04-30T13:18:02Z</time></trkpt><trkpt lat="36.81184726151409" lon="15.006577369833435"><ele>39.0</ele><time>2026-04-30T13:18:03Z</time></trkpt><trkpt lat="36.811822223618805" lon="15.006777556007759"><ele>39.0</ele><time>2026-04-30T13:18:04Z</time></trkpt><trkpt lat="36.81178504786155" lon="15.006974362464687"><ele>40.333333333333336</ele><time>2026-04-30T13:18:05Z</time></trkpt><trkpt lat="36.811744251496066" lon="15.007157383125246"><ele>41.66666666666667</ele><time>2026-04-30T13:18:06Z</time></trkpt><trkpt lat="36.81169438940794" lon="15.007361194287766"><ele>43.0</ele><time>2026-04-30T13:18:07Z</time></trkpt><trkpt lat="36.81164604981074" lon="15.0075491152022"><ele>43.25</ele><time>2026-04-30T13:18:08Z</time></trkpt><trkpt lat="36.81160244216661" lon="15.007728724769054"><ele>43.5</ele><time>2026-04-30T13:18:09Z</time></trkpt><trkpt lat="36.81156086505424" lon="15.007874438883666"><ele>43.75</ele><time>2026-04-30T13:18:10Z</time></trkpt><trkpt lat="36.81151503158952" lon="15.008040055803242"><ele>44.0</ele><time>2026-04-30T13:18:11Z</time></trkpt><trkpt lat="36.81147057538778" lon="15.008182819543443"><ele>44.0</ele><time>2026-04-30T13:18:12Z</time></trkpt><trkpt lat="36.8114218282539" lon="15.008299884647048"><ele>44.0</ele><time>2026-04-30T13:18:13Z</time></trkpt><trkpt lat="36.811367693539715" lon="15.008407717510968"><ele>44.0</ele><time>2026-04-30T13:18:14Z</time></trkpt><trkpt lat="36.81130288071857" lon="15.008539883823735"><ele>44.0</ele><time>2026-04-30T13:18:15Z</time></trkpt><trkpt lat="36.8112369564869" lon="15.008688052905834"><ele>44.5</ele><time>2026-04-30T13:18:16Z</time></trkpt><trkpt lat="36.81118123436586" lon="15.00883927592046"><ele>45.0</ele><time>2026-04-30T13:18:17Z</time></trkpt><trkpt lat="36.81113249036999" lon="15.008988886315477"><ele>45.5</ele><time>2026-04-30T13:18:18Z</time></trkpt><trkpt lat="36.81109048385352" lon="15.009106350326556"><ele>46.0</ele><time>2026-04-30T13:18:19Z</time></trkpt><trkpt lat="36.81105641178237" lon="15.009219891524982"><ele>46.5</ele><time>2026-04-30T13:18:20Z</time></trkpt><trkpt lat="36.81102392656593" lon="15.0093290027625"><ele>47.0</ele><time>2026-04-30T13:18:21Z</time></trkpt><trkpt lat="36.81095487088432" lon="15.0094331744294"><ele>47.5</ele><time>2026-04-30T13:18:22Z</time></trkpt><trkpt lat="36.81085773764802" lon="15.009546439032809"><ele>48.0</ele><time>2026-04-30T13:18:23Z</time></trkpt><trkpt lat="36.810758658807735" lon="15.009649527152373"><ele>48.833333333333336</ele><time>2026-04-30T13:18:24Z</time></trkpt><trkpt lat="36.81067688956113" lon="15.009719161218722"><ele>49.66666666666667</ele><time>2026-04-30T13:18:25Z</time></trkpt><trkpt lat="36.81061453593272" lon="15.009779703301628"><ele>50.5</ele><time>2026-04-30T13:18:26.001Z</time></trkpt><trkpt lat="36.81055398701706" lon="15.009851980575485"><ele>51.333333333333336</ele><time>2026-04-30T13:18:27.001Z</time></trkpt><trkpt lat="36.810505369409206" lon="15.009917736693044"><ele>52.16666666666667</ele><time>2026-04-30T13:18:28.001Z</time></trkpt><trkpt lat="36.81045290030883" lon="15.010026591436871"><ele>53.0</ele><time>2026-04-30T13:18:30.001Z</time></trkpt><trkpt lat="36.810486497619245" lon="15.010185446430146"><ele>53.599999999999994</ele><time>2026-04-30T13:18:32.001Z</time></trkpt><trkpt lat="36.81052821770475" lon="15.010305379965654"><ele>54.199999999999996</ele><time>2026-04-30T13:18:33.001Z</time></trkpt><trkpt lat="36.81058615359842" lon="15.010427939381422"><ele>54.8</ele><time>2026-04-30T13:18:34.001Z</time></trkpt><trkpt lat="36.81063655570328" lon="15.010508790873148"><ele>55.4</ele><time>2026-04-30T13:18:35.001Z</time></trkpt><trkpt lat="36.810686447607445" lon="15.010574061772399"><ele>56.0</ele><time>2026-04-30T13:18:36.001Z</time></trkpt><trkpt lat="36.81075312814629" lon="15.010644828273607"><ele>56.0</ele><time>2026-04-30T13:18:37.001Z</time></trkpt><trkpt lat="36.810826199204556" lon="15.010702945132348"><ele>55.99999999999999</ele><time>2026-04-30T13:18:38.001Z</time></trkpt><trkpt lat="36.810908620497116" lon="15.010753017146953"><ele>55.99999999999999</ele><time>2026-04-30T13:18:39.001Z</time></trkpt><trkpt lat="36.811016371297534" lon="15.010818444827596"><ele>56.0</ele><time>2026-04-30T13:18:40.001Z</time></trkpt><trkpt lat="36.81111335003433" lon="15.010872014987042"><ele>56.0</ele><time>2026-04-30T13:18:41.001Z</time></trkpt><trkpt lat="36.8111901243989" lon="15.010927569379366"><ele>57.4</ele><time>2026-04-30T13:18:42.001Z</time></trkpt><trkpt lat="36.811250747972274" lon="15.01100675170552"><ele>58.8</ele><time>2026-04-30T13:18:43.001Z</time></trkpt><trkpt lat="36.811310556803626" lon="15.0110898280818"><ele>60.199999999999996</ele><time>2026-04-30T13:18:44.001Z</time></trkpt><trkpt lat="36.81138519341244" lon="15.011186704766104"><ele>61.599999999999994</ele><time>2026-04-30T13:18:45.001Z</time></trkpt><trkpt lat="36.81146261626046" lon="15.011268900424833"><ele>63.0</ele><time>2026-04-30T13:18:46.001Z</time></trkpt><trkpt lat="36.81153113287482" lon="15.011329112228237"><ele>63.0</ele><time>2026-04-30T13:18:47.001Z</time></trkpt><trkpt lat="36.81158958349865" lon="15.011392301427856"><ele>63.0</ele><time>2026-04-30T13:18:48.001Z</time></trkpt><trkpt lat="36.81167067464186" lon="15.011472417420851"><ele>63.0</ele><time>2026-04-30T13:18:49.001Z</time></trkpt><trkpt lat="36.81176129096709" lon="15.011565233460551"><ele>63.0</ele><time>2026-04-30T13:18:50.001Z</time></trkpt><trkpt lat="36.81184118678215" lon="15.011643882286545"><ele>63.0</ele><time>2026-04-30T13:18:51.001Z</time></trkpt><trkpt lat="36.811920387585765" lon="15.011708438241778"><ele>65.4</ele><time>2026-04-30T13:18:52.001Z</time></trkpt><trkpt lat="36.81199835189255" lon="15.011765057456223"><ele>67.8</ele><time>2026-04-30T13:18:53.001Z</time></trkpt><trkpt lat="36.812091320685425" lon="15.011824564828249"><ele>70.2</ele><time>2026-04-30T13:18:54.001Z</time></trkpt><trkpt lat="36.812193354689825" lon="15.01188807735501"><ele>72.6</ele><time>2026-04-30T13:18:55.001Z</time></trkpt><trkpt lat="36.81227276534022" lon="15.011934688040316"><ele>75.0</ele><time>2026-04-30T13:18:56.001Z</time></trkpt><trkpt lat="36.812337532502916" lon="15.011982443627302"><ele>75.0</ele><time>2026-04-30T13:18:57.001Z</time></trkpt><trkpt lat="36.81239396772686" lon="15.012021417020067"><ele>75.0</ele><time>2026-04-30T13:18:58.001Z</time></trkpt><trkpt lat="36.812500616542884" lon="15.012026341402864"><ele>75.0</ele><time>2026-04-30T13:19:00.001Z</time></trkpt><trkpt lat="36.8125666392515" lon="15.01201454049713"><ele>75.0</ele><time>2026-04-30T13:19:01.001Z</time></trkpt><trkpt lat="36.81265365273069" lon="15.012008070516913"><ele>75.0</ele><time>2026-04-30T13:19:02.001Z</time></trkpt><trkpt lat="36.81272508424486" lon="15.01201020695807"><ele>75.0</ele><time>2026-04-30T13:19:03.001Z</time></trkpt><trkpt lat="36.812806611594695" lon="15.012020329422544"><ele>74.8</ele><time>2026-04-30T13:19:04.001Z</time></trkpt><trkpt lat="36.81287018975696" lon="15.012029899730702"><ele>74.6</ele><time>2026-04-30T13:19:05.001Z</time></trkpt><trkpt lat="36.812971363932405" lon="15.012103303386136"><ele>74.4</ele><time>2026-04-30T13:19:07.001Z</time></trkpt><trkpt lat="36.81305182962138" lon="15.012182801672392"><ele>74.2</ele><time>2026-04-30T13:19:09.001Z</time></trkpt><trkpt lat="36.81312292066224" lon="15.012258388826465"><ele>74.0</ele><time>2026-04-30T13:19:50Z</time></trkpt><trkpt lat="36.81321082500792" lon="15.012337062883198"><ele>74.0</ele><time>2026-04-30T13:19:52Z</time></trkpt><trkpt lat="36.81326572135666" lon="15.012391013485955"><ele>74.0</ele><time>2026-04-30T13:19:54Z</time></trkpt><trkpt lat="36.81329996613513" lon="15.01246251423238"><ele>74.0</ele><time>2026-04-30T13:19:56Z</time></trkpt><trkpt lat="36.81333645719357" lon="15.012557042648256"><ele>74.0</ele><time>2026-04-30T13:19:59Z</time></trkpt><trkpt lat="36.813388600677065" lon="15.01265936581803"><ele>74.0</ele><time>2026-04-30T13:20:02Z</time></trkpt><trkpt lat="36.81344215985279" lon="15.012731321756036"><ele>74.0</ele><time>2026-04-30T13:20:06Z</time></trkpt><trkpt lat="36.813415985635515" lon="15.012813089844329"><ele>75.71428571428572</ele><time>2026-04-30T13:20:24Z</time></trkpt><trkpt lat="36.81337541648146" lon="15.012898102679628"><ele>77.42857142857143</ele><time>2026-04-30T13:20:28Z</time></trkpt><trkpt lat="36.81334374766405" lon="15.012969676675278"><ele>79.14285714285714</ele><time>2026-04-30T13:20:31Z</time></trkpt><trkpt lat="36.81330146344023" lon="15.013034115792314"><ele>80.85714285714286</ele><time>2026-04-30T13:20:33.001Z</time></trkpt><trkpt lat="36.81327745155304" lon="15.013111610900248"><ele>82.57142857142857</ele><time>2026-04-30T13:20:36.001Z</time></trkpt><trkpt lat="36.813255987240105" lon="15.013203448051637"><ele>84.28571428571429</ele><time>2026-04-30T13:20:39.001Z</time></trkpt><trkpt lat="36.81324628455615" lon="15.013288483613879"><ele>86.0</ele><time>2026-04-30T13:20:42.001Z</time></trkpt><trkpt lat="36.81327022160257" lon="15.013402266134461"><ele>89.6</ele><time>2026-04-30T13:20:45.001Z</time></trkpt><trkpt lat="36.8133042378005" lon="15.01351474855751"><ele>93.19999999999999</ele><time>2026-04-30T13:20:47.001Z</time></trkpt><trkpt lat="36.81328882206367" lon="15.013638501090506"><ele>96.80000000000001</ele><time>2026-04-30T13:20:49.001Z</time></trkpt><trkpt lat="36.81328138194615" lon="15.01376916410302"><ele>100.4</ele><time>2026-04-30T13:20:51.001Z</time></trkpt><trkpt lat="36.813271831487334" lon="15.013874016520807"><ele>104.0</ele><time>2026-04-30T13:20:53.001Z</time></trkpt><trkpt lat="36.813236196581904" lon="15.013957533307854"><ele>104.0</ele><time>2026-04-30T13:20:55.001Z</time></trkpt><trkpt lat="36.81322967781738" lon="15.01404931768817"><ele>104.0</ele><time>2026-04-30T13:20:57.001Z</time></trkpt><trkpt lat="36.813224270869284" lon="15.01414462506624"><ele>104.0</ele><time>2026-04-30T13:21:00.001Z</time></trkpt><trkpt lat="36.81323255345174" lon="15.014231840488769"><ele>104.0</ele><time>2026-04-30T13:21:03.001Z</time></trkpt><trkpt lat="36.81324771891967" lon="15.014308229640472"><ele>104.0</ele><time>2026-04-30T13:21:10.001Z</time></trkpt><trkpt lat="36.81320000311418" lon="15.014379675359342"><ele>104.0</ele><time>2026-04-30T13:21:14.001Z</time></trkpt><trkpt lat="36.81317255434083" lon="15.01447248040059"><ele>104.0</ele><time>2026-04-30T13:21:18.001Z</time></trkpt><trkpt lat="36.81315650239873" lon="15.014567507658791"><ele>103.99999999999999</ele><time>2026-04-30T13:21:21.001Z</time></trkpt><trkpt lat="36.81313734945419" lon="15.014669303820924"><ele>104.0</ele><time>2026-04-30T13:21:24.001Z</time></trkpt><trkpt lat="36.81312124311911" lon="15.01475588707272"><ele>104.0</ele><time>2026-04-30T13:21:28.001Z</time></trkpt><trkpt lat="36.81312761709378" lon="15.01485696111982"><ele>104.0</ele><time>2026-04-30T13:21:32.001Z</time></trkpt><trkpt lat="36.81320105227746" lon="15.014911492810395"><ele>103.99999999999999</ele><time>2026-04-30T13:21:35Z</time></trkpt><trkpt lat="36.81325796353609" lon="15.01495417542963"><ele>104.0</ele><time>2026-04-30T13:21:37Z</time></trkpt><trkpt lat="36.81330857395331" lon="15.015009029900908"><ele>104.0</ele><time>2026-04-30T13:21:39Z</time></trkpt><trkpt lat="36.81336215733376" lon="15.015056769509437"><ele>104.0</ele><time>2026-04-30T13:21:41Z</time></trkpt><trkpt lat="36.81339741591776" lon="15.015127278410395"><ele>104.0</ele><time>2026-04-30T13:21:45Z</time></trkpt><trkpt lat="36.813441512995205" lon="15.015216028341195"><ele>104.0</ele><time>2026-04-30T13:21:47Z</time></trkpt><trkpt lat="36.81346181655597" lon="15.015294292595089"><ele>104.0</ele><time>2026-04-30T13:21:49Z</time></trkpt><trkpt lat="36.81349844810579" lon="15.015371710011982"><ele>104.0</ele><time>2026-04-30T13:21:51Z</time></trkpt><trkpt lat="36.813540471032795" lon="15.015463531653127"><ele>104.0</ele><time>2026-04-30T13:21:53Z</time></trkpt><trkpt lat="36.81357827189407" lon="15.015563979764034"><ele>104.4</ele><time>2026-04-30T13:21:55Z</time></trkpt><trkpt lat="36.8135755452479" lon="15.015663536747114"><ele>104.80000000000001</ele><time>2026-04-30T13:21:57Z</time></trkpt><trkpt lat="36.81357615174727" lon="15.0157848058719"><ele>105.19999999999999</ele><time>2026-04-30T13:21:59Z</time></trkpt><trkpt lat="36.81358599538413" lon="15.015866170623418"><ele>105.6</ele><time>2026-04-30T13:22:00Z</time></trkpt><trkpt lat="36.81354223620991" lon="15.015999264172146"><ele>106.0</ele><time>2026-04-30T13:22:02Z</time></trkpt><trkpt lat="36.81351504890926" lon="15.016126107815644"><ele>105.00000000000001</ele><time>2026-04-30T13:22:04Z</time></trkpt><trkpt lat="36.81349561972826" lon="15.016200937027637"><ele>104.0</ele><time>2026-04-30T13:22:05Z</time></trkpt><trkpt lat="36.81347717995863" lon="15.016282405511854"><ele>103.0</ele><time>2026-04-30T13:22:06Z</time></trkpt><trkpt lat="36.813480517117355" lon="15.016366453949283"><ele>102.0</ele><time>2026-04-30T13:22:07Z</time></trkpt><trkpt lat="36.81344799529766" lon="15.016507023546682"><ele>101.00000000000001</ele><time>2026-04-30T13:22:09Z</time></trkpt><trkpt lat="36.813457897145845" lon="15.016651353689566"><ele>100.0</ele><time>2026-04-30T13:22:11Z</time></trkpt><trkpt lat="36.813471249210274" lon="15.016730697459161"><ele>98.0</ele><time>2026-04-30T13:22:12Z</time></trkpt><trkpt lat="36.81346260473417" lon="15.016838267919473"><ele>96.0</ele><time>2026-04-30T13:22:13Z</time></trkpt><trkpt lat="36.81346717717859" lon="15.016977896700578"><ele>94.0</ele><time>2026-04-30T13:22:14Z</time></trkpt><trkpt lat="36.81347426390051" lon="15.017125098576404"><ele>92.0</ele><time>2026-04-30T13:22:15Z</time></trkpt><trkpt lat="36.813483207355084" lon="15.017301689833289"><ele>91.25</ele><time>2026-04-30T13:22:16Z</time></trkpt><trkpt lat="36.81350902823634" lon="15.017472795508745"><ele>90.5</ele><time>2026-04-30T13:22:17Z</time></trkpt><trkpt lat="36.8135236079225" lon="15.017620033517304"><ele>89.75</ele><time>2026-04-30T13:22:18Z</time></trkpt><trkpt lat="36.81354899866734" lon="15.017742513421602"><ele>89.0</ele><time>2026-04-30T13:22:19Z</time></trkpt><trkpt lat="36.8135777676793" lon="15.017863375735363"><ele>86.75</ele><time>2026-04-30T13:22:20Z</time></trkpt><trkpt lat="36.813588717879874" lon="15.018006992390069"><ele>84.5</ele><time>2026-04-30T13:22:21Z</time></trkpt><trkpt lat="36.813609483906" lon="15.018141692829875"><ele>82.25</ele><time>2026-04-30T13:22:22Z</time></trkpt><trkpt lat="36.8136380900436" lon="15.018278994136008"><ele>80.0</ele><time>2026-04-30T13:22:23Z</time></trkpt><trkpt lat="36.81363576729269" lon="15.018419209302207"><ele>79.0</ele><time>2026-04-30T13:22:24Z</time></trkpt><trkpt lat="36.81363117274026" lon="15.0185580254998"><ele>78.0</ele><time>2026-04-30T13:22:25Z</time></trkpt><trkpt lat="36.81361910850417" lon="15.018670479235334"><ele>77.0</ele><time>2026-04-30T13:22:26Z</time></trkpt><trkpt lat="36.81358791079797" lon="15.01876991679256"><ele>76.0</ele><time>2026-04-30T13:22:27Z</time></trkpt><trkpt lat="36.813570809494465" lon="15.01889045943356"><ele>75.0</ele><time>2026-04-30T13:22:28Z</time></trkpt><trkpt lat="36.813544109586175" lon="15.01900512747373"><ele>75.0</ele><time>2026-04-30T13:22:29Z</time></trkpt><trkpt lat="36.81351091815321" lon="15.019113378806917"><ele>75.0</ele><time>2026-04-30T13:22:30Z</time></trkpt><trkpt lat="36.813489258263" lon="15.019210056977586"><ele>75.0</ele><time>2026-04-30T13:22:31Z</time></trkpt><trkpt lat="36.81345722711447" lon="15.019312830579674"><ele>75.0</ele><time>2026-04-30T13:22:32Z</time></trkpt><trkpt lat="36.81340632651894" lon="15.019420335611802"><ele>75.0</ele><time>2026-04-30T13:22:33Z</time></trkpt><trkpt lat="36.813377648843385" lon="15.019545492217915"><ele>76.66666666666667</ele><time>2026-04-30T13:22:34Z</time></trkpt><trkpt lat="36.813343485803195" lon="15.019651813487666"><ele>78.33333333333333</ele><time>2026-04-30T13:22:35.001Z</time></trkpt><trkpt lat="36.813326447674854" lon="15.019752815436108"><ele>80.0</ele><time>2026-04-30T13:22:36.001Z</time></trkpt><trkpt lat="36.81332526631814" lon="15.019856827818407"><ele>81.66666666666666</ele><time>2026-04-30T13:22:37.001Z</time></trkpt><trkpt lat="36.813336228856514" lon="15.019951903420324"><ele>83.33333333333333</ele><time>2026-04-30T13:22:38.001Z</time></trkpt><trkpt lat="36.81336316649666" lon="15.020047134305333"><ele>85.0</ele><time>2026-04-30T13:22:39.001Z</time></trkpt><trkpt lat="36.813386468799564" lon="15.020130244735226"><ele>85.0</ele><time>2026-04-30T13:22:40.001Z</time></trkpt><trkpt lat="36.81337361837492" lon="15.020210833284658"><ele>85.0</ele><time>2026-04-30T13:22:41.001Z</time></trkpt><trkpt lat="36.81338502668247" lon="15.02030357455611"><ele>85.0</ele><time>2026-04-30T13:22:42.001Z</time></trkpt><trkpt lat="36.81338099035696" lon="15.020414604856025"><ele>85.0</ele><time>2026-04-30T13:22:43.001Z</time></trkpt><trkpt lat="36.813380935140295" lon="15.020517157212169"><ele>85.0</ele><time>2026-04-30T13:22:44.001Z</time></trkpt><trkpt lat="36.81337898762909" lon="15.020629165681372"><ele>85.0</ele><time>2026-04-30T13:22:45.001Z</time></trkpt><trkpt lat="36.813376527356624" lon="15.020712032834407"><ele>85.0</ele><time>2026-04-30T13:22:46.001Z</time></trkpt><trkpt lat="36.813378501946005" lon="15.020808174841827"><ele>85.0</ele><time>2026-04-30T13:22:47.001Z</time></trkpt><trkpt lat="36.81337402989861" lon="15.020907598384959"><ele>85.0</ele><time>2026-04-30T13:22:48.001Z</time></trkpt><trkpt lat="36.813366099719744" lon="15.020990019834409"><ele>85.0</ele><time>2026-04-30T13:22:49.001Z</time></trkpt><trkpt lat="36.8133616119301" lon="15.021076325123595"><ele>85.0</ele><time>2026-04-30T13:22:50.001Z</time></trkpt><trkpt lat="36.813355770130045" lon="15.02115784506453"><ele>85.0</ele><time>2026-04-30T13:22:51.001Z</time></trkpt><trkpt lat="36.813350657316015" lon="15.021308430492539"><ele>83.66666666666666</ele><time>2026-04-30T13:22:53.001Z</time></trkpt><trkpt lat="36.81333454872933" lon="15.021396944798335"><ele>82.33333333333333</ele><time>2026-04-30T13:22:54.001Z</time></trkpt><trkpt lat="36.81334754647184" lon="15.021496212297045"><ele>81.0</ele><time>2026-04-30T13:22:55.001Z</time></trkpt><trkpt lat="36.81332768315069" lon="15.021592573718578"><ele>79.66666666666667</ele><time>2026-04-30T13:22:56.001Z</time></trkpt><trkpt lat="36.813338349465816" lon="15.021699618624776"><ele>78.33333333333334</ele><time>2026-04-30T13:22:57.001Z</time></trkpt><trkpt lat="36.81332328849492" lon="15.021780889280018"><ele>77.0</ele><time>2026-04-30T13:22:58.001Z</time></trkpt><trkpt lat="36.81333858833849" lon="15.021879306783484"><ele>75.42857142857143</ele><time>2026-04-30T13:22:59.001Z</time></trkpt><trkpt lat="36.813339024853015" lon="15.02196980767065"><ele>73.85714285714286</ele><time>2026-04-30T13:23:00.001Z</time></trkpt><trkpt lat="36.81333546978082" lon="15.022056836477157"><ele>72.28571428571428</ele><time>2026-04-30T13:23:01.001Z</time></trkpt><trkpt lat="36.813341213960406" lon="15.022151091649285"><ele>70.71428571428572</ele><time>2026-04-30T13:23:02.001Z</time></trkpt><trkpt lat="36.8133442205146" lon="15.022242131419468"><ele>69.14285714285714</ele><time>2026-04-30T13:23:03.001Z</time></trkpt><trkpt lat="36.81334175488163" lon="15.022331633867829"><ele>67.57142857142857</ele><time>2026-04-30T13:23:04.001Z</time></trkpt><trkpt lat="36.81334242912377" lon="15.022419165714716"><ele>66.0</ele><time>2026-04-30T13:23:05.001Z</time></trkpt><trkpt lat="36.813325279559166" lon="15.022503219298038"><ele>64.5</ele><time>2026-04-30T13:23:06.001Z</time></trkpt><trkpt lat="36.81334410884184" lon="15.022586618793898"><ele>63.0</ele><time>2026-04-30T13:23:07.001Z</time></trkpt><trkpt lat="36.8133428528023" lon="15.022669171737409"><ele>61.5</ele><time>2026-04-30T13:23:08.001Z</time></trkpt><trkpt lat="36.813367300239776" lon="15.022753691454199"><ele>60.0</ele><time>2026-04-30T13:23:09.001Z</time></trkpt><trkpt lat="36.81338492315761" lon="15.022929501645656"><ele>58.5</ele><time>2026-04-30T13:23:11.001Z</time></trkpt><trkpt lat="36.81338248136504" lon="15.02301150236123"><ele>57.0</ele><time>2026-04-30T13:23:12.001Z</time></trkpt><trkpt lat="36.813374039053336" lon="15.023111200607689"><ele>57.0</ele><time>2026-04-30T13:23:13.001Z</time></trkpt><trkpt lat="36.81337318777877" lon="15.023220909692306"><ele>57.0</ele><time>2026-04-30T13:23:14.001Z</time></trkpt><trkpt lat="36.813341537592336" lon="15.023343555284733"><ele>57.0</ele><time>2026-04-30T13:23:15.001Z</time></trkpt><trkpt lat="36.8133412616136" lon="15.023446588712094"><ele>57.0</ele><time>2026-04-30T13:23:16.001Z</time></trkpt><trkpt lat="36.81331461213078" lon="15.023560518809317"><ele>57.0</ele><time>2026-04-30T13:23:17.001Z</time></trkpt><trkpt lat="36.81330012658651" lon="15.023685769784564"><ele>55.2</ele><time>2026-04-30T13:23:18.001Z</time></trkpt><trkpt lat="36.813300282667875" lon="15.023804568197425"><ele>53.400000000000006</ele><time>2026-04-30T13:23:19.001Z</time></trkpt><trkpt lat="36.81328012673722" lon="15.023945201257197"><ele>51.599999999999994</ele><time>2026-04-30T13:23:20.001Z</time></trkpt><trkpt lat="36.81326396717331" lon="15.024063474397167"><ele>49.8</ele><time>2026-04-30T13:23:21.001Z</time></trkpt><trkpt lat="36.81324409753152" lon="15.024182497027446"><ele>48.0</ele><time>2026-04-30T13:23:22.001Z</time></trkpt><trkpt lat="36.81320752049661" lon="15.024312372350753"><ele>45.5</ele><time>2026-04-30T13:23:23.001Z</time></trkpt><trkpt lat="36.813181175624486" lon="15.024463773147119"><ele>43.0</ele><time>2026-04-30T13:23:24.001Z</time></trkpt><trkpt lat="36.813171987632565" lon="15.024613482092382"><ele>40.5</ele><time>2026-04-30T13:23:25.001Z</time></trkpt><trkpt lat="36.81314072180228" lon="15.024766929719787"><ele>38.0</ele><time>2026-04-30T13:23:26.001Z</time></trkpt><trkpt lat="36.81311821461777" lon="15.024921047021005"><ele>36.75</ele><time>2026-04-30T13:23:27.001Z</time></trkpt><trkpt lat="36.81309338032694" lon="15.025075049730544"><ele>35.5</ele><time>2026-04-30T13:23:28.001Z</time></trkpt><trkpt lat="36.81306301214501" lon="15.025255690616035"><ele>34.25</ele><time>2026-04-30T13:23:29.001Z</time></trkpt><trkpt lat="36.8130355425743" lon="15.025435508089478"><ele>33.0</ele><time>2026-04-30T13:23:30.001Z</time></trkpt><trkpt lat="36.81300400126037" lon="15.025620387927175"><ele>33.0</ele><time>2026-04-30T13:23:31.001Z</time></trkpt><trkpt lat="36.812974470841695" lon="15.025786207778712"><ele>33.0</ele><time>2026-04-30T13:23:32.001Z</time></trkpt><trkpt lat="36.81295266319613" lon="15.025935072131553"><ele>33.0</ele><time>2026-04-30T13:23:33.001Z</time></trkpt><trkpt lat="36.8129292840116" lon="15.02608334117723"><ele>33.0</ele><time>2026-04-30T13:23:34.001Z</time></trkpt><trkpt lat="36.812900145446825" lon="15.026236557673906"><ele>32.0</ele><time>2026-04-30T13:23:35.001Z</time></trkpt><trkpt lat="36.812875095524994" lon="15.026385882836795"><ele>30.999999999999996</ele><time>2026-04-30T13:23:36.001Z</time></trkpt><trkpt lat="36.81285538247066" lon="15.02652772982561"><ele>29.999999999999996</ele><time>2026-04-30T13:23:37.001Z</time></trkpt><trkpt lat="36.812845364254684" lon="15.026649112603318"><ele>29.0</ele><time>2026-04-30T13:23:38.001Z</time></trkpt><trkpt lat="36.81281891469726" lon="15.026762051086884"><ele>28.0</ele><time>2026-04-30T13:23:39.001Z</time></trkpt><trkpt lat="36.812805654377904" lon="15.02686997130752"><ele>27.5</ele><time>2026-04-30T13:23:40.001Z</time></trkpt><trkpt lat="36.812803492974616" lon="15.026989168183514"><ele>27.0</ele><time>2026-04-30T13:23:41Z</time></trkpt><trkpt lat="36.81278810372687" lon="15.027111944606315"><ele>26.5</ele><time>2026-04-30T13:23:42Z</time></trkpt><trkpt lat="36.81278284232904" lon="15.027273288911339"><ele>26.0</ele><time>2026-04-30T13:23:43Z</time></trkpt><trkpt lat="36.81278527381897" lon="15.02744851891406"><ele>25.75</ele><time>2026-04-30T13:23:44Z</time></trkpt><trkpt lat="36.812783778795804" lon="15.027612438549035"><ele>25.5</ele><time>2026-04-30T13:23:45Z</time></trkpt><trkpt lat="36.81278272531568" lon="15.027766007192337"><ele>25.25</ele><time>2026-04-30T13:23:46Z</time></trkpt><trkpt lat="36.81278488889508" lon="15.027929614644933"><ele>25.0</ele><time>2026-04-30T13:23:47Z</time></trkpt><trkpt lat="36.81279963179086" lon="15.028093824623832"><ele>25.0</ele><time>2026-04-30T13:23:48Z</time></trkpt><trkpt lat="36.81282495378564" lon="15.028242228271942"><ele>25.0</ele><time>2026-04-30T13:23:49Z</time></trkpt><trkpt lat="36.8128523961735" lon="15.028396736477115"><ele>25.0</ele><time>2026-04-30T13:23:50Z</time></trkpt><trkpt lat="36.81289484837395" lon="15.028548042565077"><ele>25.0</ele><time>2026-04-30T13:23:51Z</time></trkpt><trkpt lat="36.81293355160423" lon="15.028700569084954"><ele>25.0</ele><time>2026-04-30T13:23:52Z</time></trkpt><trkpt lat="36.81297250060815" lon="15.02884307250782"><ele>25.0</ele><time>2026-04-30T13:23:53Z</time></trkpt><trkpt lat="36.81301378009535" lon="15.028989019366872"><ele>25.0</ele><time>2026-04-30T13:23:54Z</time></trkpt><trkpt lat="36.813054397499016" lon="15.02913354292677"><ele>25.0</ele><time>2026-04-30T13:23:55Z</time></trkpt><trkpt lat="36.81309078355557" lon="15.029281813579919"><ele>25.0</ele><time>2026-04-30T13:23:56Z</time></trkpt><trkpt lat="36.81313041393811" lon="15.029430649394941"><ele>25.0</ele><time>2026-04-30T13:23:57Z</time></trkpt><trkpt lat="36.81317494279676" lon="15.029579922251955"><ele>25.0</ele><time>2026-04-30T13:23:58Z</time></trkpt><trkpt lat="36.813213736657524" lon="15.029726780511465"><ele>25.0</ele><time>2026-04-30T13:23:59Z</time></trkpt><trkpt lat="36.8132446465221" lon="15.029877795836503"><ele>25.25</ele><time>2026-04-30T13:24:00Z</time></trkpt><trkpt lat="36.81326296279943" lon="15.030025079714061"><ele>25.5</ele><time>2026-04-30T13:24:01Z</time></trkpt><trkpt lat="36.81327674227595" lon="15.030155440182469"><ele>25.75</ele><time>2026-04-30T13:24:02Z</time></trkpt><trkpt lat="36.81329568425402" lon="15.03028634828078"><ele>26.0</ele><time>2026-04-30T13:24:03Z</time></trkpt><trkpt lat="36.81332086429913" lon="15.03044584485707"><ele>26.0</ele><time>2026-04-30T13:24:04Z</time></trkpt><trkpt lat="36.813347739267364" lon="15.030638306956062"><ele>26.0</ele><time>2026-04-30T13:24:05Z</time></trkpt><trkpt lat="36.81337497436183" lon="15.030810091690274"><ele>26.0</ele><time>2026-04-30T13:24:06Z</time></trkpt><trkpt lat="36.81340110902095" lon="15.030971793767286"><ele>26.0</ele><time>2026-04-30T13:24:07Z</time></trkpt><trkpt lat="36.813424779388946" lon="15.03113137699955"><ele>26.25</ele><time>2026-04-30T13:24:08Z</time></trkpt><trkpt lat="36.813447640905046" lon="15.031290805944515"><ele>26.5</ele><time>2026-04-30T13:24:09Z</time></trkpt><trkpt lat="36.813474986527396" lon="15.03144943206708"><ele>26.75</ele><time>2026-04-30T13:24:10Z</time></trkpt><trkpt lat="36.81351117261403" lon="15.03160884443209"><ele>27.0</ele><time>2026-04-30T13:24:11Z</time></trkpt><trkpt lat="36.81354840789033" lon="15.031763975138823"><ele>26.0</ele><time>2026-04-30T13:24:12Z</time></trkpt><trkpt lat="36.81358419208233" lon="15.031923599209984"><ele>25.0</ele><time>2026-04-30T13:24:13Z</time></trkpt><trkpt lat="36.81361901685508" lon="15.032090817978355"><ele>24.0</ele><time>2026-04-30T13:24:14Z</time></trkpt><trkpt lat="36.81366285742795" lon="15.032262804069017"><ele>23.0</ele><time>2026-04-30T13:24:15Z</time></trkpt><trkpt lat="36.81371097454238" lon="15.032430258228528"><ele>23.5</ele><time>2026-04-30T13:24:16Z</time></trkpt><trkpt lat="36.81377305290814" lon="15.032589266981637"><ele>24.0</ele><time>2026-04-30T13:24:17Z</time></trkpt><trkpt lat="36.8138491092345" lon="15.032728243736386"><ele>24.5</ele><time>2026-04-30T13:24:18Z</time></trkpt><trkpt lat="36.81393415393952" lon="15.032861802645597"><ele>25.0</ele><time>2026-04-30T13:24:19Z</time></trkpt><trkpt lat="36.81401252901805" lon="15.03299241857636"><ele>25.0</ele><time>2026-04-30T13:24:20Z</time></trkpt><trkpt lat="36.81408084926795" lon="15.033108349052158"><ele>25.0</ele><time>2026-04-30T13:24:21Z</time></trkpt><trkpt lat="36.81414019554322" lon="15.033212323170583"><ele>25.0</ele><time>2026-04-30T13:24:22Z</time></trkpt><trkpt lat="36.81419287307496" lon="15.033307804634404"><ele>25.0</ele><time>2026-04-30T13:24:23Z</time></trkpt><trkpt lat="36.81423958910456" lon="15.033394334137737"><ele>25.0</ele><time>2026-04-30T13:24:24Z</time></trkpt><trkpt lat="36.81427665566514" lon="15.033463808422356"><ele>25.6</ele><time>2026-04-30T13:24:25Z</time></trkpt><trkpt lat="36.81430546108854" lon="15.033537503479488"><ele>26.2</ele><time>2026-04-30T13:24:27Z</time></trkpt><trkpt lat="36.81419306480651" lon="15.033639569045674"><ele>26.799999999999997</ele><time>2026-04-30T13:24:30Z</time></trkpt><trkpt lat="36.814122466324065" lon="15.033702304415636"><ele>27.4</ele><time>2026-04-30T13:24:31Z</time></trkpt><trkpt lat="36.814017323106036" lon="15.033807824438913"><ele>28.0</ele><time>2026-04-30T13:24:32Z</time></trkpt><trkpt lat="36.81392454388229" lon="15.03394687940972"><ele>28.0</ele><time>2026-04-30T13:24:33Z</time></trkpt><trkpt lat="36.813836274144606" lon="15.034041810876639"><ele>28.0</ele><time>2026-04-30T13:24:34Z</time></trkpt><trkpt lat="36.81375193200975" lon="15.03407443927376"><ele>28.0</ele><time>2026-04-30T13:24:35Z</time></trkpt><trkpt lat="36.81364391900224" lon="15.034050818206515"><ele>28.0</ele><time>2026-04-30T13:24:36Z</time></trkpt><trkpt lat="36.81348441300089" lon="15.034119305809247"><ele>32.333333333333336</ele><time>2026-04-30T13:24:37Z</time></trkpt><trkpt lat="36.81333623573287" lon="15.034197000853066"><ele>36.666666666666664</ele><time>2026-04-30T13:24:38Z</time></trkpt><trkpt lat="36.81318199864782" lon="15.034275483692491"><ele>41.0</ele><time>2026-04-30T13:24:39Z</time></trkpt><trkpt lat="36.81301222582553" lon="15.034361871827537"><ele>41.0</ele><time>2026-04-30T13:24:40Z</time></trkpt><trkpt lat="36.812851588412016" lon="15.034439774538797"><ele>41.0</ele><time>2026-04-30T13:24:41.001Z</time></trkpt><trkpt lat="36.81274786909132" lon="15.034482768657513"><ele>41.0</ele><time>2026-04-30T13:24:42.001Z</time></trkpt><trkpt lat="36.812647207125096" lon="15.034519244483887"><ele>41.0</ele><time>2026-04-30T13:24:43.001Z</time></trkpt><trkpt lat="36.812561861074194" lon="15.034537494525505"><ele>44.25</ele><time>2026-04-30T13:24:44.001Z</time></trkpt><trkpt lat="36.81245999201966" lon="15.034537795986273"><ele>47.5</ele><time>2026-04-30T13:24:45.001Z</time></trkpt><trkpt lat="36.81232599004862" lon="15.034495971476705"><ele>50.75</ele><time>2026-04-30T13:24:46.001Z</time></trkpt><trkpt lat="36.81217201837891" lon="15.034434060901182"><ele>54.0</ele><time>2026-04-30T13:24:47.001Z</time></trkpt><trkpt lat="36.81203091056427" lon="15.034323863155622"><ele>54.0</ele><time>2026-04-30T13:24:48.001Z</time></trkpt><trkpt lat="36.8119069491328" lon="15.034281773469342"><ele>54.0</ele><time>2026-04-30T13:24:49.001Z</time></trkpt><trkpt lat="36.811793252639035" lon="15.034235896274161"><ele>54.0</ele><time>2026-04-30T13:24:50.001Z</time></trkpt><trkpt lat="36.81166853888014" lon="15.03421121304823"><ele>54.0</ele><time>2026-04-30T13:24:51.001Z</time></trkpt><trkpt lat="36.81156245804792" lon="15.034180933449429"><ele>58.0</ele><time>2026-04-30T13:24:52.001Z</time></trkpt><trkpt lat="36.81146042399194" lon="15.034136384988116"><ele>62.0</ele><time>2026-04-30T13:24:53.001Z</time></trkpt><trkpt lat="36.811363579818995" lon="15.034082935214123"><ele>66.0</ele><time>2026-04-30T13:24:54.001Z</time></trkpt><trkpt lat="36.81123569848217" lon="15.034006663143813"><ele>70.0</ele><time>2026-04-30T13:24:55.001Z</time></trkpt><trkpt lat="36.811106016782226" lon="15.03392385758127"><ele>70.0</ele><time>2026-04-30T13:24:56.001Z</time></trkpt><trkpt lat="36.81099308863438" lon="15.033842345926606"><ele>70.0</ele><time>2026-04-30T13:24:57.001Z</time></trkpt><trkpt lat="36.81086843854008" lon="15.033770030775461"><ele>70.0</ele><time>2026-04-30T13:24:58.001Z</time></trkpt><trkpt lat="36.810766315076584" lon="15.033681994237819"><ele>70.0</ele><time>2026-04-30T13:24:59.001Z</time></trkpt><trkpt lat="36.81066611957522" lon="15.033605584098359"><ele>72.5</ele><time>2026-04-30T13:25:00.001Z</time></trkpt><trkpt lat="36.8105426484523" lon="15.033505656296674"><ele>75.0</ele><time>2026-04-30T13:25:01.001Z</time></trkpt><trkpt lat="36.8104543521474" lon="15.033434533125082"><ele>77.5</ele><time>2026-04-30T13:25:02.001Z</time></trkpt><trkpt lat="36.81038010992923" lon="15.033355078342131"><ele>80.0</ele><time>2026-04-30T13:25:03.001Z</time></trkpt><trkpt lat="36.810308308809596" lon="15.033262023828819"><ele>80.0</ele><time>2026-04-30T13:25:04.001Z</time></trkpt><trkpt lat="36.81024370540304" lon="15.033156046063553"><ele>80.0</ele><time>2026-04-30T13:25:05.001Z</time></trkpt><trkpt lat="36.810183242955034" lon="15.033050250192924"><ele>80.0</ele><time>2026-04-30T13:25:06.001Z</time></trkpt><trkpt lat="36.81012378029385" lon="15.03293507146611"><ele>80.0</ele><time>2026-04-30T13:25:07.001Z</time></trkpt><trkpt lat="36.81005820183527" lon="15.03278597002931"><ele>81.4</ele><time>2026-04-30T13:25:08.001Z</time></trkpt><trkpt lat="36.809998610644726" lon="15.032641978125286"><ele>82.8</ele><time>2026-04-30T13:25:09.001Z</time></trkpt><trkpt lat="36.809953700676935" lon="15.032527540626145"><ele>84.19999999999999</ele><time>2026-04-30T13:25:10.001Z</time></trkpt><trkpt lat="36.80992678241637" lon="15.032419395147379"><ele>85.6</ele><time>2026-04-30T13:25:11.001Z</time></trkpt><trkpt lat="36.80990298240203" lon="15.032302372356732"><ele>87.0</ele><time>2026-04-30T13:25:12.001Z</time></trkpt><trkpt lat="36.80985835599759" lon="15.032220170783786"><ele>84.5</ele><time>2026-04-30T13:25:13.001Z</time></trkpt><trkpt lat="36.80980123050008" lon="15.032164188794091"><ele>82.0</ele><time>2026-04-30T13:25:14.001Z</time></trkpt><trkpt lat="36.8097330654055" lon="15.032133356503275"><ele>79.5</ele><time>2026-04-30T13:25:15.001Z</time></trkpt><trkpt lat="36.809669663121056" lon="15.032097986169587"><ele>77.0</ele><time>2026-04-30T13:25:16.001Z</time></trkpt><trkpt lat="36.80958487384616" lon="15.03206782001996"><ele>74.5</ele><time>2026-04-30T13:25:17.001Z</time></trkpt><trkpt lat="36.80949782903745" lon="15.032031430935035"><ele>72.0</ele><time>2026-04-30T13:25:18.001Z</time></trkpt><trkpt lat="36.80940802102417" lon="15.031976334388753"><ele>70.8</ele><time>2026-04-30T13:25:19.001Z</time></trkpt><trkpt lat="36.809308049779716" lon="15.031916388524428"><ele>69.6</ele><time>2026-04-30T13:25:20.001Z</time></trkpt><trkpt lat="36.80921171235466" lon="15.031860893051151"><ele>68.39999999999999</ele><time>2026-04-30T13:25:21.001Z</time></trkpt><trkpt lat="36.80912222476737" lon="15.031793234516254"><ele>67.2</ele><time>2026-04-30T13:25:22.001Z</time></trkpt><trkpt lat="36.809048528866235" lon="15.031712531777156"><ele>66.0</ele><time>2026-04-30T13:25:23.001Z</time></trkpt><trkpt lat="36.80895644577117" lon="15.031623472803908"><ele>66.0</ele><time>2026-04-30T13:25:24.001Z</time></trkpt><trkpt lat="36.80886239735681" lon="15.031507505413611"><ele>66.0</ele><time>2026-04-30T13:25:25.001Z</time></trkpt><trkpt lat="36.808743202981304" lon="15.031374549050856"><ele>66.0</ele><time>2026-04-30T13:25:26.001Z</time></trkpt><trkpt lat="36.808635017177686" lon="15.031247614283496"><ele>66.0</ele><time>2026-04-30T13:25:27.001Z</time></trkpt><trkpt lat="36.80853527411128" lon="15.031131499138143"><ele>66.6</ele><time>2026-04-30T13:25:28.001Z</time></trkpt><trkpt lat="36.80844418101744" lon="15.031027082201573"><ele>67.19999999999999</ele><time>2026-04-30T13:25:29.001Z</time></trkpt><trkpt lat="36.80836547670198" lon="15.030960752757453"><ele>67.80000000000001</ele><time>2026-04-30T13:25:30.001Z</time></trkpt><trkpt lat="36.80830562256898" lon="15.03087175513135"><ele>68.4</ele><time>2026-04-30T13:25:31.001Z</time></trkpt><trkpt lat="36.80822748515468" lon="15.030820772438965"><ele>69.0</ele><time>2026-04-30T13:25:32.001Z</time></trkpt><trkpt lat="36.80815951101633" lon="15.030784715652018"><ele>69.0</ele><time>2026-04-30T13:25:33.001Z</time></trkpt><trkpt lat="36.808070056452664" lon="15.030753679592465"><ele>69.0</ele><time>2026-04-30T13:25:34.001Z</time></trkpt><trkpt lat="36.807972192525675" lon="15.030763978789698"><ele>69.0</ele><time>2026-04-30T13:25:35.001Z</time></trkpt><trkpt lat="36.80786275941602" lon="15.030544411281928"><ele>69.0</ele><time>2026-04-30T13:25:37.001Z</time></trkpt><trkpt lat="36.80779761344233" lon="15.030447717128661"><ele>69.0</ele><time>2026-04-30T13:25:38.001Z</time></trkpt><trkpt lat="36.80770702865187" lon="15.030359802954958"><ele>69.0</ele><time>2026-04-30T13:25:39.001Z</time></trkpt><trkpt lat="36.80760292520612" lon="15.030275126064808"><ele>69.0</ele><time>2026-04-30T13:25:40.001Z</time></trkpt><trkpt lat="36.80750549851685" lon="15.030185893532634"><ele>69.0</ele><time>2026-04-30T13:25:41.001Z</time></trkpt><trkpt lat="36.80742230052448" lon="15.030103752436725"><ele>69.75</ele><time>2026-04-30T13:25:42.001Z</time></trkpt><trkpt lat="36.80733303074389" lon="15.030034946220292"><ele>70.5</ele><time>2026-04-30T13:25:43.001Z</time></trkpt><trkpt lat="36.80723431171088" lon="15.029963785430473"><ele>71.25</ele><time>2026-04-30T13:25:44.001Z</time></trkpt><trkpt lat="36.807123725613" lon="15.029860884779726"><ele>72.0</ele><time>2026-04-30T13:25:45.001Z</time></trkpt><trkpt lat="36.807024729045764" lon="15.029754114160204"><ele>72.0</ele><time>2026-04-30T13:25:46.001Z</time></trkpt><trkpt lat="36.80693606882092" lon="15.029664798645408"><ele>72.0</ele><time>2026-04-30T13:25:47Z</time></trkpt><trkpt lat="36.8068617035752" lon="15.029594715448217"><ele>72.0</ele><time>2026-04-30T13:25:48Z</time></trkpt><trkpt lat="36.80677550257909" lon="15.029534601637302"><ele>72.0</ele><time>2026-04-30T13:25:49Z</time></trkpt><trkpt lat="36.80667882137751" lon="15.029495515166714"><ele>72.0</ele><time>2026-04-30T13:25:50Z</time></trkpt><trkpt lat="36.80655676182131" lon="15.02945884000849"><ele>75.66666666666667</ele><time>2026-04-30T13:25:51Z</time></trkpt><trkpt lat="36.80641701703571" lon="15.029405940871051"><ele>79.33333333333334</ele><time>2026-04-30T13:25:52Z</time></trkpt><trkpt lat="36.806271166653076" lon="15.029331662758592"><ele>83.0</ele><time>2026-04-30T13:25:53Z</time></trkpt><trkpt lat="36.806116840554445" lon="15.029250970311923"><ele>83.0</ele><time>2026-04-30T13:25:54Z</time></trkpt><trkpt lat="36.80598111546444" lon="15.02917787614028"><ele>83.0</ele><time>2026-04-30T13:25:55Z</time></trkpt><trkpt lat="36.80585170720799" lon="15.02911838449494"><ele>83.0</ele><time>2026-04-30T13:25:56Z</time></trkpt><trkpt lat="36.805715105875485" lon="15.029074918417466"><ele>83.0</ele><time>2026-04-30T13:25:57Z</time></trkpt><trkpt lat="36.80557270549956" lon="15.029048065068194"><ele>84.0</ele><time>2026-04-30T13:25:58Z</time></trkpt><trkpt lat="36.80542192115897" lon="15.029032317076133"><ele>85.0</ele><time>2026-04-30T13:25:59Z</time></trkpt><trkpt lat="36.80529105820553" lon="15.02901137916239"><ele>86.0</ele><time>2026-04-30T13:26:00Z</time></trkpt><trkpt lat="36.805180719455535" lon="15.028989988763643"><ele>87.0</ele><time>2026-04-30T13:26:01Z</time></trkpt><trkpt lat="36.80508243661128" lon="15.028958434631916"><ele>87.5</ele><time>2026-04-30T13:26:02Z</time></trkpt><trkpt lat="36.80497035505933" lon="15.028899153184925"><ele>88.0</ele><time>2026-04-30T13:26:03Z</time></trkpt><trkpt lat="36.80483795734338" lon="15.02881374257091"><ele>88.5</ele><time>2026-04-30T13:26:04Z</time></trkpt><trkpt lat="36.80468713922999" lon="15.028744734013323"><ele>89.0</ele><time>2026-04-30T13:26:05Z</time></trkpt><trkpt lat="36.80453129022507" lon="15.028700925925728"><ele>89.0</ele><time>2026-04-30T13:26:06Z</time></trkpt><trkpt lat="36.8043876046578" lon="15.028672274453397"><ele>89.0</ele><time>2026-04-30T13:26:07Z</time></trkpt><trkpt lat="36.804241062408884" lon="15.028666803277435"><ele>89.0</ele><time>2026-04-30T13:26:08Z</time></trkpt><trkpt lat="36.80408124312618" lon="15.028676490261024"><ele>89.0</ele><time>2026-04-30T13:26:09Z</time></trkpt><trkpt lat="36.803909226751514" lon="15.028685137251744"><ele>89.0</ele><time>2026-04-30T13:26:10Z</time></trkpt><trkpt lat="36.80375318699425" lon="15.028691271487192"><ele>89.0</ele><time>2026-04-30T13:26:11Z</time></trkpt><trkpt lat="36.803621479341565" lon="15.028692139676895"><ele>89.25</ele><time>2026-04-30T13:26:12Z</time></trkpt><trkpt lat="36.80348313755474" lon="15.028690788635465"><ele>89.5</ele><time>2026-04-30T13:26:13Z</time></trkpt><trkpt lat="36.803339425427815" lon="15.028683590833545"><ele>89.75</ele><time>2026-04-30T13:26:14Z</time></trkpt><trkpt lat="36.80322076489274" lon="15.028672341788406"><ele>90.0</ele><time>2026-04-30T13:26:15Z</time></trkpt><trkpt lat="36.80312100418987" lon="15.028644502588058"><ele>90.0</ele><time>2026-04-30T13:26:16Z</time></trkpt><trkpt lat="36.803026932202776" lon="15.028610539550556"><ele>90.0</ele><time>2026-04-30T13:26:17Z</time></trkpt><trkpt lat="36.802932483324284" lon="15.028615736886433"><ele>90.0</ele><time>2026-04-30T13:26:18Z</time></trkpt><trkpt lat="36.80283129496904" lon="15.028661024924746"><ele>90.0</ele><time>2026-04-30T13:26:19Z</time></trkpt><trkpt lat="36.80271793701769" lon="15.02874200745629"><ele>90.0</ele><time>2026-04-30T13:26:20Z</time></trkpt><trkpt lat="36.802593799407454" lon="15.028861008477154"><ele>90.2</ele><time>2026-04-30T13:26:21Z</time></trkpt><trkpt lat="36.8024834027661" lon="15.028930285107911"><ele>90.4</ele><time>2026-04-30T13:26:22Z</time></trkpt><trkpt lat="36.80239654791539" lon="15.028973885333405"><ele>90.6</ele><time>2026-04-30T13:26:23Z</time></trkpt><trkpt lat="36.80230250169311" lon="15.028982216040575"><ele>90.8</ele><time>2026-04-30T13:26:24Z</time></trkpt><trkpt lat="36.80218682016154" lon="15.028987708643006"><ele>91.0</ele><time>2026-04-30T13:26:25Z</time></trkpt><trkpt lat="36.80203665287499" lon="15.02897865589203"><ele>91.0</ele><time>2026-04-30T13:26:26Z</time></trkpt><trkpt lat="36.80186273184133" lon="15.028966269498751"><ele>91.0</ele><time>2026-04-30T13:26:27Z</time></trkpt><trkpt lat="36.80165118601634" lon="15.02896818153574"><ele>91.0</ele><time>2026-04-30T13:26:28Z</time></trkpt><trkpt lat="36.80145067845699" lon="15.02894761495299"><ele>88.5</ele><time>2026-04-30T13:26:29Z</time></trkpt><trkpt lat="36.80122260286715" lon="15.028926931943465"><ele>86.0</ele><time>2026-04-30T13:26:30Z</time></trkpt><trkpt lat="36.800999032317826" lon="15.02894579745478"><ele>85.33333333333334</ele><time>2026-04-30T13:26:31Z</time></trkpt><trkpt lat="36.80078670317814" lon="15.02894742611433"><ele>84.66666666666667</ele><time>2026-04-30T13:26:32Z</time></trkpt><trkpt lat="36.800606607540274" lon="15.02893826180941"><ele>84.0</ele><time>2026-04-30T13:26:33Z</time></trkpt><trkpt lat="36.80044796767868" lon="15.028932403772881"><ele>84.0</ele><time>2026-04-30T13:26:34Z</time></trkpt><trkpt lat="36.800304132245984" lon="15.028926889560411"><ele>84.0</ele><time>2026-04-30T13:26:35Z</time></trkpt><trkpt lat="36.80017022388132" lon="15.028924760356409"><ele>84.0</ele><time>2026-04-30T13:26:36Z</time></trkpt><trkpt lat="36.80003269728429" lon="15.028923544737083"><ele>84.0</ele><time>2026-04-30T13:26:37Z</time></trkpt><trkpt lat="36.79990033832664" lon="15.028923050270842"><ele>83.6</ele><time>2026-04-30T13:26:38Z</time></trkpt><trkpt lat="36.79978264301519" lon="15.028923951983046"><ele>83.2</ele><time>2026-04-30T13:26:39Z</time></trkpt><trkpt lat="36.79967493627087" lon="15.028906691498234"><ele>82.8</ele><time>2026-04-30T13:26:40Z</time></trkpt><trkpt lat="36.799571886814746" lon="15.028904698897334"><ele>82.39999999999999</ele><time>2026-04-30T13:26:41Z</time></trkpt><trkpt lat="36.79947236465704" lon="15.028901617130362"><ele>82.0</ele><time>2026-04-30T13:26:42Z</time></trkpt><trkpt lat="36.79937630459323" lon="15.02891414203064"><ele>81.5</ele><time>2026-04-30T13:26:43Z</time></trkpt><trkpt lat="36.799279167830825" lon="15.028904711861461"><ele>81.0</ele><time>2026-04-30T13:26:44Z</time></trkpt><trkpt lat="36.79918746925465" lon="15.028894818574638"><ele>80.5</ele><time>2026-04-30T13:26:45Z</time></trkpt><trkpt lat="36.79910142515112" lon="15.028879716259157"><ele>80.0</ele><time>2026-04-30T13:26:46Z</time></trkpt><trkpt lat="36.799032979758394" lon="15.028881642002153"><ele>79.5</ele><time>2026-04-30T13:26:47Z</time></trkpt><trkpt lat="36.798936367970356" lon="15.02887402901808"><ele>79.0</ele><time>2026-04-30T13:26:49.001Z</time></trkpt><trkpt lat="36.79893732078865" lon="15.02897439054041"><ele>79.0</ele><time>2026-04-30T13:26:54.001Z</time></trkpt><trkpt lat="36.79899311078187" lon="15.029015190497365"><ele>79.0</ele><time>2026-04-30T13:26:55.001Z</time></trkpt><trkpt lat="36.799040444580214" lon="15.02908336286473"><ele>79.0</ele><time>2026-04-30T13:26:56.001Z</time></trkpt><trkpt lat="36.79911140540536" lon="15.029207859535981"><ele>79.0</ele><time>2026-04-30T13:26:58.001Z</time></trkpt><trkpt lat="36.79913454157743" lon="15.029328405086561"><ele>79.0</ele><time>2026-04-30T13:27:00.001Z</time></trkpt><trkpt lat="36.79915447686023" lon="15.029445445159528"><ele>79.0</ele><time>2026-04-30T13:27:02.001Z</time></trkpt><trkpt lat="36.79917617226304" lon="15.029561301114446"><ele>79.0</ele><time>2026-04-30T13:27:04.001Z</time></trkpt><trkpt lat="36.79920265913988" lon="15.0296881765499"><ele>79.0</ele><time>2026-04-30T13:27:06.001Z</time></trkpt><trkpt lat="36.79922913907096" lon="15.029801014317243"><ele>79.0</ele><time>2026-04-30T13:27:08.001Z</time></trkpt><trkpt lat="36.799259212279864" lon="15.02992203302116"><ele>79.0</ele><time>2026-04-30T13:27:10.001Z</time></trkpt><trkpt lat="36.79929358094658" lon="15.030054007368909"><ele>79.0</ele><time>2026-04-30T13:27:12.001Z</time></trkpt><trkpt lat="36.79933214263977" lon="15.030199081828897"><ele>79.0</ele><time>2026-04-30T13:27:14.001Z</time></trkpt><trkpt lat="36.79935517648735" lon="15.030285738394348"><ele>79.0</ele><time>2026-04-30T13:27:15.001Z</time></trkpt><trkpt lat="36.79937841804178" lon="15.030369388668397"><ele>79.0</ele><time>2026-04-30T13:27:16.001Z</time></trkpt><trkpt lat="36.79941073196288" lon="15.030463635449898"><ele>79.0</ele><time>2026-04-30T13:27:17.001Z</time></trkpt><trkpt lat="36.79946523421276" lon="15.030574352240958"><ele>80.2</ele><time>2026-04-30T13:27:18.001Z</time></trkpt><trkpt lat="36.79952405825835" lon="15.030679219953761"><ele>81.4</ele><time>2026-04-30T13:27:19.001Z</time></trkpt><trkpt lat="36.79957808727826" lon="15.030772554370804"><ele>82.6</ele><time>2026-04-30T13:27:20.001Z</time></trkpt><trkpt lat="36.799619224537146" lon="15.030845188974359"><ele>83.8</ele><time>2026-04-30T13:27:21.001Z</time></trkpt><trkpt lat="36.799660888549056" lon="15.030997176466784"><ele>85.0</ele><time>2026-04-30T13:27:23.001Z</time></trkpt><trkpt lat="36.799594099839545" lon="15.03109661078607"><ele>85.0</ele><time>2026-04-30T13:27:24.001Z</time></trkpt><trkpt lat="36.79954157124487" lon="15.031249625351034"><ele>85.0</ele><time>2026-04-30T13:27:25.001Z</time></trkpt><trkpt lat="36.79947890131788" lon="15.03143222566022"><ele>85.0</ele><time>2026-04-30T13:27:26.001Z</time></trkpt><trkpt lat="36.79940084046015" lon="15.031647343861023"><ele>80.0</ele><time>2026-04-30T13:27:27.001Z</time></trkpt><trkpt lat="36.799322963277135" lon="15.031848756089026"><ele>75.0</ele><time>2026-04-30T13:27:28.001Z</time></trkpt><trkpt lat="36.79923933457228" lon="15.032052524079663"><ele>70.0</ele><time>2026-04-30T13:27:29.001Z</time></trkpt><trkpt lat="36.79917577115017" lon="15.032226365510475"><ele>70.0</ele><time>2026-04-30T13:27:30.001Z</time></trkpt><trkpt lat="36.79911259234127" lon="15.032399198409664"><ele>70.0</ele><time>2026-04-30T13:27:31.001Z</time></trkpt><trkpt lat="36.799056003272156" lon="15.0325541113522"><ele>70.0</ele><time>2026-04-30T13:27:32.001Z</time></trkpt><trkpt lat="36.79900494102998" lon="15.032693894583899"><ele>70.0</ele><time>2026-04-30T13:27:33.001Z</time></trkpt><trkpt lat="36.79895351275802" lon="15.032834679809074"><ele>68.5</ele><time>2026-04-30T13:27:34.001Z</time></trkpt><trkpt lat="36.79889964508274" lon="15.032981168251835"><ele>67.0</ele><time>2026-04-30T13:27:35.001Z</time></trkpt><trkpt lat="36.79884216754466" lon="15.033137101853095"><ele>65.5</ele><time>2026-04-30T13:27:36.001Z</time></trkpt><trkpt lat="36.79877741718675" lon="15.033312766242254"><ele>64.0</ele><time>2026-04-30T13:27:37.001Z</time></trkpt><trkpt lat="36.79871601582664" lon="15.033479552448336"><ele>63.800000000000004</ele><time>2026-04-30T13:27:38.001Z</time></trkpt><trkpt lat="36.7986642514978" lon="15.033620332467217"><ele>63.60000000000001</ele><time>2026-04-30T13:27:39.001Z</time></trkpt><trkpt lat="36.79862130713245" lon="15.033741932156998"><ele>63.4</ele><time>2026-04-30T13:27:40.001Z</time></trkpt><trkpt lat="36.798600757814455" lon="15.03385251428109"><ele>63.2</ele><time>2026-04-30T13:27:41.001Z</time></trkpt><trkpt lat="36.798566499208434" lon="15.033935463748845"><ele>63.0</ele><time>2026-04-30T13:27:42.001Z</time></trkpt><trkpt lat="36.79853858937125" lon="15.034009599742038"><ele>63.0</ele><time>2026-04-30T13:27:43.001Z</time></trkpt><trkpt lat="36.79850848853126" lon="15.03407985401769"><ele>63.0</ele><time>2026-04-30T13:27:44.001Z</time></trkpt><trkpt lat="36.79845412271356" lon="15.034121327002428"><ele>63.0</ele><time>2026-04-30T13:27:47.001Z</time></trkpt><trkpt lat="36.79856651656417" lon="15.034255230593061"><ele>63.0</ele><time>2026-04-30T13:28:11Z</time></trkpt><trkpt lat="36.798507455784986" lon="15.034356350680932"><ele>63.0</ele><time>2026-04-30T13:29:02.001Z</time></trkpt><trkpt lat="36.79846316785621" lon="15.034473965293806"><ele>64.66666666666667</ele><time>2026-04-30T13:29:04.001Z</time></trkpt><trkpt lat="36.798439462545645" lon="15.034553252188246"><ele>66.33333333333333</ele><time>2026-04-30T13:29:05.001Z</time></trkpt><trkpt lat="36.79840928714404" lon="15.034666559365707"><ele>68.0</ele><time>2026-04-30T13:29:07.001Z</time></trkpt><trkpt lat="36.798395759386764" lon="15.034754767090504"><ele>69.66666666666666</ele><time>2026-04-30T13:29:09.001Z</time></trkpt><trkpt lat="36.798379173443124" lon="15.034859803208757"><ele>71.33333333333333</ele><time>2026-04-30T13:29:12.001Z</time></trkpt><trkpt lat="36.79834732247471" lon="15.034953989014577"><ele>73.0</ele><time>2026-04-30T13:29:15.001Z</time></trkpt><trkpt lat="36.79833832625129" lon="15.035048154052207"><ele>75.5</ele><time>2026-04-30T13:29:21.001Z</time></trkpt><trkpt lat="36.79829292736704" lon="15.035117383725545"><ele>78.0</ele><time>2026-04-30T13:32:43Z</time></trkpt><trkpt lat="36.798220069565005" lon="15.03515019076381"><ele>80.5</ele><time>2026-04-30T13:33:46.001Z</time></trkpt><trkpt lat="36.79815560366503" lon="15.035123406088129"><ele>83.0</ele><time>2026-04-30T13:33:49.001Z</time></trkpt><trkpt lat="36.79807290922904" lon="15.035206249702943"><ele>85.5</ele><time>2026-04-30T13:33:52.001Z</time></trkpt><trkpt lat="36.798049798669695" lon="15.03529051055928"><ele>88.0</ele><time>2026-04-30T13:33:53.001Z</time></trkpt><trkpt lat="36.79802720989279" lon="15.035407223794307"><ele>88.0</ele><time>2026-04-30T13:33:54.001Z</time></trkpt><trkpt lat="36.7979661088219" lon="15.035517713293109"><ele>88.0</ele><time>2026-04-30T13:33:55.001Z</time></trkpt><trkpt lat="36.79791399775059" lon="15.035655521704538"><ele>88.0</ele><time>2026-04-30T13:33:56.001Z</time></trkpt><trkpt lat="36.79785646495679" lon="15.035807668051724"><ele>88.0</ele><time>2026-04-30T13:33:57.001Z</time></trkpt><trkpt lat="36.79779813569291" lon="15.035961920539481"><ele>88.25</ele><time>2026-04-30T13:33:58.001Z</time></trkpt><trkpt lat="36.797739382872315" lon="15.036117293207255"><ele>88.5</ele><time>2026-04-30T13:33:59.001Z</time></trkpt><trkpt lat="36.797679709352" lon="15.036275100697516"><ele>88.75</ele><time>2026-04-30T13:34:00.001Z</time></trkpt><trkpt lat="36.79763518070372" lon="15.036444244315806"><ele>89.0</ele><time>2026-04-30T13:34:01.001Z</time></trkpt><trkpt lat="36.79757313100784" lon="15.036603552812727"><ele>85.5</ele><time>2026-04-30T13:34:02.001Z</time></trkpt><trkpt lat="36.79751574400526" lon="15.036760509186424"><ele>82.0</ele><time>2026-04-30T13:34:03.001Z</time></trkpt><trkpt lat="36.79746211224462" lon="15.036909240142363"><ele>78.5</ele><time>2026-04-30T13:34:04.001Z</time></trkpt><trkpt lat="36.79741000996523" lon="15.037056321003346"><ele>75.0</ele><time>2026-04-30T13:34:05.001Z</time></trkpt><trkpt lat="36.79734562186764" lon="15.037183061750675"><ele>75.0</ele><time>2026-04-30T13:34:06.001Z</time></trkpt><trkpt lat="36.79729987062524" lon="15.037308146830872"><ele>75.0</ele><time>2026-04-30T13:34:07.001Z</time></trkpt><trkpt lat="36.79725443087698" lon="15.037433162291435"><ele>75.0</ele><time>2026-04-30T13:34:08.001Z</time></trkpt><trkpt lat="36.79722371469819" lon="15.037565275620453"><ele>75.0</ele><time>2026-04-30T13:34:09.001Z</time></trkpt><trkpt lat="36.79718309830676" lon="15.037679317893868"><ele>75.0</ele><time>2026-04-30T13:34:10.001Z</time></trkpt><trkpt lat="36.79714668032311" lon="15.03778649061321"><ele>74.2</ele><time>2026-04-30T13:34:10.999Z</time></trkpt><trkpt lat="36.79710807431632" lon="15.037886312782724"><ele>73.4</ele><time>2026-04-30T13:34:11.999Z</time></trkpt><trkpt lat="36.79709692755955" lon="15.037971192129254"><ele>72.6</ele><time>2026-04-30T13:34:12.999Z</time></trkpt><trkpt lat="36.79711102727256" lon="15.038099972387277"><ele>71.8</ele><time>2026-04-30T13:34:14.999Z</time></trkpt><trkpt lat="36.79717293761164" lon="15.038169988008232"><ele>71.0</ele><time>2026-04-30T13:34:15.999Z</time></trkpt><trkpt lat="36.7972608572337" lon="15.038245241399533"><ele>72.0</ele><time>2026-04-30T13:34:16.999Z</time></trkpt><trkpt lat="36.79735691839992" lon="15.038311915979532"><ele>73.0</ele><time>2026-04-30T13:34:17.999Z</time></trkpt><trkpt lat="36.797450675632504" lon="15.03841116857537"><ele>74.0</ele><time>2026-04-30T13:34:18.999Z</time></trkpt><trkpt lat="36.7975604101654" lon="15.03851154035154"><ele>75.0</ele><time>2026-04-30T13:34:19.999Z</time></trkpt><trkpt lat="36.797663782074096" lon="15.03860952046993"><ele>76.5</ele><time>2026-04-30T13:34:20.999Z</time></trkpt><trkpt lat="36.79776678290867" lon="15.038680926100273"><ele>78.0</ele><time>2026-04-30T13:34:21.999Z</time></trkpt><trkpt lat="36.797859811127495" lon="15.038763662992642"><ele>79.5</ele><time>2026-04-30T13:34:22.999Z</time></trkpt><trkpt lat="36.79795668054468" lon="15.038851313028632"><ele>81.0</ele><time>2026-04-30T13:34:23.999Z</time></trkpt><trkpt lat="36.798054465093344" lon="15.038935041546303"><ele>81.0</ele><time>2026-04-30T13:34:24.999Z</time></trkpt><trkpt lat="36.79815530467606" lon="15.039030093930023"><ele>81.0</ele><time>2026-04-30T13:34:26Z</time></trkpt><trkpt lat="36.79823854565518" lon="15.039117589073607"><ele>81.0</ele><time>2026-04-30T13:34:27Z</time></trkpt><trkpt lat="36.79832623365244" lon="15.039180808986327"><ele>81.0</ele><time>2026-04-30T13:34:28Z</time></trkpt><trkpt lat="36.79839263677876" lon="15.03926494238243"><ele>81.0</ele><time>2026-04-30T13:34:29Z</time></trkpt><trkpt lat="36.79844709521464" lon="15.039333402575368"><ele>81.8</ele><time>2026-04-30T13:34:30Z</time></trkpt><trkpt lat="36.79851747858133" lon="15.039378572814284"><ele>82.6</ele><time>2026-04-30T13:34:31Z</time></trkpt><trkpt lat="36.7985905587243" lon="15.039446384989622"><ele>83.4</ele><time>2026-04-30T13:34:32Z</time></trkpt><trkpt lat="36.79867608183649" lon="15.039521283810618"><ele>84.2</ele><time>2026-04-30T13:34:33Z</time></trkpt><trkpt lat="36.798762778965646" lon="15.039622753125805"><ele>85.0</ele><time>2026-04-30T13:34:34Z</time></trkpt><trkpt lat="36.79886404000975" lon="15.039712000078271"><ele>85.0</ele><time>2026-04-30T13:34:35Z</time></trkpt><trkpt lat="36.79896505013654" lon="15.03980246651686"><ele>85.0</ele><time>2026-04-30T13:34:36Z</time></trkpt><trkpt lat="36.79907875414277" lon="15.039885919350905"><ele>85.0</ele><time>2026-04-30T13:34:37Z</time></trkpt><trkpt lat="36.79915708096174" lon="15.039989702430818"><ele>85.0</ele><time>2026-04-30T13:34:38Z</time></trkpt><trkpt lat="36.79923186554129" lon="15.04006522782997"><ele>84.8</ele><time>2026-04-30T13:34:39Z</time></trkpt><trkpt lat="36.79931360149647" lon="15.040148895132596"><ele>84.6</ele><time>2026-04-30T13:34:40Z</time></trkpt><trkpt lat="36.7993961928332" lon="15.04023759635684"><ele>84.4</ele><time>2026-04-30T13:34:41Z</time></trkpt><trkpt lat="36.79949409542772" lon="15.040314375262389"><ele>84.2</ele><time>2026-04-30T13:34:42Z</time></trkpt><trkpt lat="36.79957832462923" lon="15.040405822446994"><ele>84.0</ele><time>2026-04-30T13:34:43Z</time></trkpt><trkpt lat="36.799653407218734" lon="15.040481007529486"><ele>84.0</ele><time>2026-04-30T13:34:44Z</time></trkpt><trkpt lat="36.79971757247333" lon="15.040521842039494"><ele>84.0</ele><time>2026-04-30T13:34:45Z</time></trkpt><trkpt lat="36.79976793203263" lon="15.040573862219343"><ele>84.0</ele><time>2026-04-30T13:34:47Z</time></trkpt><trkpt lat="36.79980225312945" lon="15.040665035466713"><ele>84.0</ele><time>2026-04-30T13:34:53Z</time></trkpt><trkpt lat="36.799840687234884" lon="15.040808412552074"><ele>84.0</ele><time>2026-04-30T13:34:55Z</time></trkpt><trkpt lat="36.79985867534554" lon="15.04088832121539"><ele>84.0</ele><time>2026-04-30T13:34:56Z</time></trkpt><trkpt lat="36.79989488590048" lon="15.041053884851864"><ele>85.33333333333333</ele><time>2026-04-30T13:34:58Z</time></trkpt><trkpt lat="36.79987635243746" lon="15.041153862974625"><ele>86.66666666666667</ele><time>2026-04-30T13:34:59Z</time></trkpt><trkpt lat="36.79986902966288" lon="15.041232679972596"><ele>88.0</ele><time>2026-04-30T13:35:00Z</time></trkpt><trkpt lat="36.7998885084686" lon="15.041353604124117"><ele>89.33333333333334</ele><time>2026-04-30T13:35:02Z</time></trkpt><trkpt lat="36.79990247447266" lon="15.041447195867189"><ele>90.66666666666667</ele><time>2026-04-30T13:35:04Z</time></trkpt><trkpt lat="36.799920968605136" lon="15.041580792758152"><ele>92.0</ele><time>2026-04-30T13:35:06Z</time></trkpt><trkpt lat="36.79992973570212" lon="15.04166669431534"><ele>92.0</ele><time>2026-04-30T13:35:07Z</time></trkpt><trkpt lat="36.799944898036244" lon="15.041749188081313"><ele>92.0</ele><time>2026-04-30T13:35:08Z</time></trkpt><trkpt lat="36.79994551489615" lon="15.041843155921127"><ele>92.0</ele><time>2026-04-30T13:35:09Z</time></trkpt><trkpt lat="36.79998257276837" lon="15.041936833991038"><ele>92.0</ele><time>2026-04-30T13:35:10Z</time></trkpt><trkpt lat="36.80002189674377" lon="15.042047756269428"><ele>92.0</ele><time>2026-04-30T13:35:11Z</time></trkpt><trkpt lat="36.80006898031009" lon="15.042154542121164"><ele>92.0</ele><time>2026-04-30T13:35:12Z</time></trkpt><trkpt lat="36.80012539738038" lon="15.042248458867222"><ele>91.0</ele><time>2026-04-30T13:35:13Z</time></trkpt><trkpt lat="36.80018983402562" lon="15.042330942016243"><ele>90.0</ele><time>2026-04-30T13:35:14Z</time></trkpt><trkpt lat="36.80026145606112" lon="15.042408480557558"><ele>89.0</ele><time>2026-04-30T13:35:15Z</time></trkpt><trkpt lat="36.8003233118481" lon="15.0424950383947"><ele>88.0</ele><time>2026-04-30T13:35:16Z</time></trkpt><trkpt lat="36.80039367984081" lon="15.042584575371475"><ele>87.0</ele><time>2026-04-30T13:35:17Z</time></trkpt><trkpt lat="36.800463760839534" lon="15.042682301715748"><ele>86.19999999999999</ele><time>2026-04-30T13:35:18Z</time></trkpt><trkpt lat="36.800533326072056" lon="15.042791433188322"><ele>85.4</ele><time>2026-04-30T13:35:19Z</time></trkpt><trkpt lat="36.80058756301922" lon="15.042904369359315"><ele>84.6</ele><time>2026-04-30T13:35:20Z</time></trkpt><trkpt lat="36.80063496189317" lon="15.043007512355835"><ele>83.80000000000001</ele><time>2026-04-30T13:35:21Z</time></trkpt><trkpt lat="36.8006750078865" lon="15.04309980299706"><ele>83.0</ele><time>2026-04-30T13:35:22Z</time></trkpt><trkpt lat="36.80070806832747" lon="15.043182520043846"><ele>83.0</ele><time>2026-04-30T13:35:23Z</time></trkpt><trkpt lat="36.80077490370474" lon="15.043279550855734"><ele>83.0</ele><time>2026-04-30T13:35:25Z</time></trkpt><trkpt lat="36.80087483263682" lon="15.043234364482332"><ele>83.0</ele><time>2026-04-30T13:35:27Z</time></trkpt><trkpt lat="36.800866007156586" lon="15.043085534697745"><ele>83.0</ele><time>2026-04-30T13:35:29Z</time></trkpt><trkpt lat="36.800842902872915" lon="15.042981529652018"><ele>83.0</ele><time>2026-04-30T13:35:30.001Z</time></trkpt><trkpt lat="36.800807187089625" lon="15.042852179416789"><ele>83.0</ele><time>2026-04-30T13:35:31.001Z</time></trkpt><trkpt lat="36.80077448787748" lon="15.042755209205646"><ele>83.0</ele><time>2026-04-30T13:35:32.001Z</time></trkpt><trkpt lat="36.8007556822539" lon="15.042669308354458"><ele>83.0</ele><time>2026-04-30T13:35:33.001Z</time></trkpt><trkpt lat="36.800746427230216" lon="15.042538840645665"><ele>83.0</ele><time>2026-04-30T13:35:35.001Z</time></trkpt><trkpt lat="36.80083520477544" lon="15.042496091937437"><ele>83.0</ele><time>2026-04-30T13:35:37.001Z</time></trkpt><trkpt lat="36.80091248172872" lon="15.04264137261241"><ele>83.0</ele><time>2026-04-30T13:35:39.001Z</time></trkpt><trkpt lat="36.80098885088583" lon="15.042744492239942"><ele>83.0</ele><time>2026-04-30T13:35:40.001Z</time></trkpt><trkpt lat="36.80107612722552" lon="15.042841950217115"><ele>83.0</ele><time>2026-04-30T13:35:41.001Z</time></trkpt><trkpt lat="36.80115456077334" lon="15.042952244847143"><ele>83.0</ele><time>2026-04-30T13:35:42.001Z</time></trkpt><trkpt lat="36.80126369278351" lon="15.04304606134984"><ele>81.75</ele><time>2026-04-30T13:35:43.001Z</time></trkpt><trkpt lat="36.8013767538235" lon="15.04315168590609"><ele>80.5</ele><time>2026-04-30T13:35:44.001Z</time></trkpt><trkpt lat="36.80147376453398" lon="15.043244833780344"><ele>79.25</ele><time>2026-04-30T13:35:45.001Z</time></trkpt><trkpt lat="36.801562754587906" lon="15.043329059010922"><ele>78.0</ele><time>2026-04-30T13:35:46.001Z</time></trkpt><trkpt lat="36.801657777837505" lon="15.043409142262734"><ele>76.6</ele><time>2026-04-30T13:35:47.001Z</time></trkpt><trkpt lat="36.80172499160508" lon="15.04350931424296"><ele>75.19999999999999</ele><time>2026-04-30T13:35:48.001Z</time></trkpt><trkpt lat="36.801792948084014" lon="15.04360227147628"><ele>73.8</ele><time>2026-04-30T13:35:49.001Z</time></trkpt><trkpt lat="36.801835449686216" lon="15.043722449181017"><ele>72.39999999999999</ele><time>2026-04-30T13:35:50.001Z</time></trkpt><trkpt lat="36.801865985916876" lon="15.04384089486813"><ele>71.0</ele><time>2026-04-30T13:35:51.001Z</time></trkpt><trkpt lat="36.801896980810504" lon="15.043936441779762"><ele>69.2</ele><time>2026-04-30T13:35:52.001Z</time></trkpt><trkpt lat="36.801922627235605" lon="15.04401748208553"><ele>67.39999999999999</ele><time>2026-04-30T13:35:53.001Z</time></trkpt><trkpt lat="36.80193385871171" lon="15.044179824929829"><ele>65.6</ele><time>2026-04-30T13:35:55.001Z</time></trkpt><trkpt lat="36.801923257556616" lon="15.044291493524716"><ele>63.8</ele><time>2026-04-30T13:35:56.001Z</time></trkpt><trkpt lat="36.8018993408672" lon="15.044446232382972"><ele>62.0</ele><time>2026-04-30T13:35:57.001Z</time></trkpt><trkpt lat="36.80188050519683" lon="15.044576706930698"><ele>62.6</ele><time>2026-04-30T13:35:58.001Z</time></trkpt><trkpt lat="36.801896740816176" lon="15.04468230132281"><ele>63.2</ele><time>2026-04-30T13:35:59.001Z</time></trkpt><trkpt lat="36.801938446827904" lon="15.044781669114661"><ele>63.8</ele><time>2026-04-30T13:36:00.001Z</time></trkpt><trkpt lat="36.801996906209354" lon="15.044881951084081"><ele>64.4</ele><time>2026-04-30T13:36:01.001Z</time></trkpt><trkpt lat="36.8020652676109" lon="15.044956198273868"><ele>65.0</ele><time>2026-04-30T13:36:02.001Z</time></trkpt><trkpt lat="36.80215180774798" lon="15.04501120236939"><ele>65.0</ele><time>2026-04-30T13:36:03.001Z</time></trkpt><trkpt lat="36.80225471098656" lon="15.045074298496363"><ele>65.0</ele><time>2026-04-30T13:36:04.001Z</time></trkpt><trkpt lat="36.802347496385025" lon="15.045104211087788"><ele>65.0</ele><time>2026-04-30T13:36:05.001Z</time></trkpt><trkpt lat="36.802431992835764" lon="15.045119360442419"><ele>65.0</ele><time>2026-04-30T13:36:06.001Z</time></trkpt><trkpt lat="36.80250566908079" lon="15.045054790593378"><ele>65.0</ele><time>2026-04-30T13:36:07.001Z</time></trkpt><trkpt lat="36.802606953335925" lon="15.044984046121453"><ele>62.0</ele><time>2026-04-30T13:36:08.001Z</time></trkpt><trkpt lat="36.802741718075744" lon="15.044937042672421"><ele>59.0</ele><time>2026-04-30T13:36:09.001Z</time></trkpt><trkpt lat="36.80289893282768" lon="15.044889277350421"><ele>56.0</ele><time>2026-04-30T13:36:10.001Z</time></trkpt><trkpt lat="36.80306184730302" lon="15.044839614681962"><ele>56.0</ele><time>2026-04-30T13:36:11.001Z</time></trkpt><trkpt lat="36.803205101708265" lon="15.044796134177764"><ele>55.99999999999999</ele><time>2026-04-30T13:36:12.001Z</time></trkpt><trkpt lat="36.8033188897525" lon="15.044772895747803"><ele>55.99999999999999</ele><time>2026-04-30T13:36:13.001Z</time></trkpt><trkpt lat="36.80341226922403" lon="15.044779555196921"><ele>56.0</ele><time>2026-04-30T13:36:14.001Z</time></trkpt><trkpt lat="36.803491444439864" lon="15.044819991176356"><ele>56.0</ele><time>2026-04-30T13:36:15.001Z</time></trkpt><trkpt lat="36.80358553469581" lon="15.044876276951557"><ele>58.0</ele><time>2026-04-30T13:36:16.001Z</time></trkpt><trkpt lat="36.80369100110998" lon="15.044947067626877"><ele>60.0</ele><time>2026-04-30T13:36:17Z</time></trkpt><trkpt lat="36.80379435689028" lon="15.0450322115243"><ele>62.0</ele><time>2026-04-30T13:36:18Z</time></trkpt><trkpt lat="36.80387918756749" lon="15.045122345039823"><ele>64.0</ele><time>2026-04-30T13:36:19Z</time></trkpt><trkpt lat="36.80396703698987" lon="15.045191978464278"><ele>66.4</ele><time>2026-04-30T13:36:20Z</time></trkpt><trkpt lat="36.80404991906044" lon="15.045262985564973"><ele>68.80000000000001</ele><time>2026-04-30T13:36:21Z</time></trkpt><trkpt lat="36.80413243562002" lon="15.045316203783216"><ele>71.19999999999999</ele><time>2026-04-30T13:36:22Z</time></trkpt><trkpt lat="36.8041988476265" lon="15.045412322372101"><ele>73.6</ele><time>2026-04-30T13:36:24Z</time></trkpt><trkpt lat="36.80417099159599" lon="15.045562821288366"><ele>76.0</ele><time>2026-04-30T13:36:27Z</time></trkpt><trkpt lat="36.8040331794124" lon="15.045668563161186"><ele>76.0</ele><time>2026-04-30T13:36:29Z</time></trkpt><trkpt lat="36.803928913977266" lon="15.045761002990737"><ele>76.0</ele><time>2026-04-30T13:36:30Z</time></trkpt><trkpt lat="36.80382472288126" lon="15.045853376875428"><ele>76.0</ele><time>2026-04-30T13:36:31Z</time></trkpt><trkpt lat="36.80373132997939" lon="15.045935625925859"><ele>76.0</ele><time>2026-04-30T13:36:32Z</time></trkpt><trkpt lat="36.803638991094815" lon="15.046012895048296"><ele>76.25</ele><time>2026-04-30T13:36:33Z</time></trkpt><trkpt lat="36.803533363068304" lon="15.046101284486024"><ele>76.5</ele><time>2026-04-30T13:36:34Z</time></trkpt><trkpt lat="36.8034150937721" lon="15.046202083850783"><ele>76.75</ele><time>2026-04-30T13:36:35Z</time></trkpt><trkpt lat="36.80328312400955" lon="15.046314791438334"><ele>77.0</ele><time>2026-04-30T13:36:36Z</time></trkpt><trkpt lat="36.80317300672739" lon="15.046408836102543"><ele>78.0</ele><time>2026-04-30T13:36:37Z</time></trkpt><trkpt lat="36.803080208266394" lon="15.046489403184802"><ele>79.0</ele><time>2026-04-30T13:36:38Z</time></trkpt><trkpt lat="36.803002396553076" lon="15.04657859265832"><ele>80.0</ele><time>2026-04-30T13:36:39Z</time></trkpt><trkpt lat="36.80293976516324" lon="15.04671501117894"><ele>81.0</ele><time>2026-04-30T13:36:40Z</time></trkpt><trkpt lat="36.80288005041291" lon="15.04686244379137"><ele>81.33333333333333</ele><time>2026-04-30T13:36:41Z</time></trkpt><trkpt lat="36.802802656820695" lon="15.04702509730627"><ele>81.66666666666666</ele><time>2026-04-30T13:36:42Z</time></trkpt><trkpt lat="36.802736310505544" lon="15.047210915063989"><ele>82.0</ele><time>2026-04-30T13:36:43Z</time></trkpt><trkpt lat="36.80267181619804" lon="15.047414240707912"><ele>86.0</ele><time>2026-04-30T13:36:44Z</time></trkpt><trkpt lat="36.802600612884014" lon="15.047636418001224"><ele>90.0</ele><time>2026-04-30T13:36:45Z</time></trkpt><trkpt lat="36.802535952848956" lon="15.047829654154217"><ele>94.0</ele><time>2026-04-30T13:36:46Z</time></trkpt><trkpt lat="36.80251034390773" lon="15.047969797217782"><ele>94.0</ele><time>2026-04-30T13:36:47Z</time></trkpt><trkpt lat="36.802484118057016" lon="15.04809392392126"><ele>94.0</ele><time>2026-04-30T13:36:48Z</time></trkpt><trkpt lat="36.80248259981496" lon="15.04818355456645"><ele>94.0</ele><time>2026-04-30T13:36:49Z</time></trkpt><trkpt lat="36.80250941881445" lon="15.048276629409655"><ele>94.0</ele><time>2026-04-30T13:36:50Z</time></trkpt><trkpt lat="36.802560280233834" lon="15.048333245964075"><ele>94.0</ele><time>2026-04-30T13:36:51Z</time></trkpt><trkpt lat="36.8025991664172" lon="15.048457228260776"><ele>94.0</ele><time>2026-04-30T13:36:53Z</time></trkpt><trkpt lat="36.802653663483866" lon="15.04856597932657"><ele>92.83333333333333</ele><time>2026-04-30T13:36:55Z</time></trkpt><trkpt lat="36.80270368387351" lon="15.048685002395084"><ele>91.66666666666666</ele><time>2026-04-30T13:36:57Z</time></trkpt><trkpt lat="36.80274904741686" lon="15.0487498741745"><ele>90.5</ele><time>2026-04-30T13:36:58Z</time></trkpt><trkpt lat="36.80278022735979" lon="15.048823796991217"><ele>89.33333333333333</ele><time>2026-04-30T13:36:59Z</time></trkpt><trkpt lat="36.802834029870716" lon="15.04887882702875"><ele>88.16666666666667</ele><time>2026-04-30T13:37:00Z</time></trkpt><trkpt lat="36.80289879370791" lon="15.048922016050449"><ele>87.0</ele><time>2026-04-30T13:37:01Z</time></trkpt><trkpt lat="36.802987072128246" lon="15.04901446658758"><ele>87.0</ele><time>2026-04-30T13:37:03Z</time></trkpt><trkpt lat="36.803066207217725" lon="15.049122135820438"><ele>87.0</ele><time>2026-04-30T13:37:05Z</time></trkpt><trkpt lat="36.80310341912577" lon="15.04920247526235"><ele>87.0</ele><time>2026-04-30T13:37:06Z</time></trkpt><trkpt lat="36.80313412564732" lon="15.04929627632371"><ele>87.0</ele><time>2026-04-30T13:37:07Z</time></trkpt><trkpt lat="36.80314264024244" lon="15.04939902413785"><ele>87.0</ele><time>2026-04-30T13:37:08Z</time></trkpt><trkpt lat="36.80317211707211" lon="15.04949420425295"><ele>87.0</ele><time>2026-04-30T13:37:09Z</time></trkpt><trkpt lat="36.803187522428175" lon="15.04963172613694"><ele>88.39999999999999</ele><time>2026-04-30T13:37:10Z</time></trkpt><trkpt lat="36.803210500558755" lon="15.049781980574195"><ele>89.8</ele><time>2026-04-30T13:37:11Z</time></trkpt><trkpt lat="36.803228353704796" lon="15.049895374845086"><ele>91.2</ele><time>2026-04-30T13:37:12Z</time></trkpt><trkpt lat="36.80325001039599" lon="15.049982496524041"><ele>92.6</ele><time>2026-04-30T13:37:13Z</time></trkpt><trkpt lat="36.803313275049824" lon="15.050075740086914"><ele>94.0</ele><time>2026-04-30T13:37:14Z</time></trkpt><trkpt lat="36.80338442125214" lon="15.05014803250306"><ele>94.25</ele><time>2026-04-30T13:37:15Z</time></trkpt><trkpt lat="36.80342523707759" lon="15.050273593227386"><ele>94.5</ele><time>2026-04-30T13:37:16Z</time></trkpt><trkpt lat="36.80351427745153" lon="15.050430246531585"><ele>94.75</ele><time>2026-04-30T13:37:17Z</time></trkpt><trkpt lat="36.80359796211992" lon="15.050593867189964"><ele>95.0</ele><time>2026-04-30T13:37:18.001Z</time></trkpt><trkpt lat="36.80366026175937" lon="15.050699989730225"><ele>94.0</ele><time>2026-04-30T13:37:19.001Z</time></trkpt><trkpt lat="36.803723129311486" lon="15.05082081252878"><ele>93.0</ele><time>2026-04-30T13:37:20.001Z</time></trkpt><trkpt lat="36.80377154871918" lon="15.050927529865096"><ele>92.0</ele><time>2026-04-30T13:37:21.001Z</time></trkpt><trkpt lat="36.80380259304784" lon="15.0510152553666"><ele>91.0</ele><time>2026-04-30T13:37:22.001Z</time></trkpt><trkpt lat="36.80380110556747" lon="15.051125857341702"><ele>90.0</ele><time>2026-04-30T13:37:23.001Z</time></trkpt><trkpt lat="36.803794050718366" lon="15.051222734176239"><ele>90.0</ele><time>2026-04-30T13:37:24.001Z</time></trkpt><trkpt lat="36.80378861890454" lon="15.051345352397401"><ele>90.0</ele><time>2026-04-30T13:37:25.001Z</time></trkpt><trkpt lat="36.80378878013785" lon="15.051473280637627"><ele>90.0</ele><time>2026-04-30T13:37:26.001Z</time></trkpt><trkpt lat="36.803797241508754" lon="15.05158326912752"><ele>90.0</ele><time>2026-04-30T13:37:27.001Z</time></trkpt><trkpt lat="36.80380960985567" lon="15.051670650910618"><ele>90.0</ele><time>2026-04-30T13:37:28.001Z</time></trkpt><trkpt lat="36.80384005318444" lon="15.051747830309715"><ele>90.0</ele><time>2026-04-30T13:37:29.001Z</time></trkpt><trkpt lat="36.803887962886684" lon="15.051806995776513"><ele>91.0</ele><time>2026-04-30T13:37:30.001Z</time></trkpt><trkpt lat="36.803934087241814" lon="15.051890683220305"><ele>92.0</ele><time>2026-04-30T13:37:32.001Z</time></trkpt><trkpt lat="36.803793998427565" lon="15.051946549095046"><ele>93.0</ele><time>2026-04-30T13:37:33.001Z</time></trkpt><trkpt lat="36.80374493504796" lon="15.052028156188138"><ele>94.0</ele><time>2026-04-30T13:37:34.001Z</time></trkpt><trkpt lat="36.80376941857969" lon="15.052211288547841"><ele>94.0</ele><time>2026-04-30T13:37:35.001Z</time></trkpt><trkpt lat="36.803710112113585" lon="15.052338925622053"><ele>94.0</ele><time>2026-04-30T13:37:36.001Z</time></trkpt><trkpt lat="36.803655459541794" lon="15.052459960957453"><ele>94.0</ele><time>2026-04-30T13:37:37.001Z</time></trkpt><trkpt lat="36.80360422112547" lon="15.052577433292598"><ele>94.0</ele><time>2026-04-30T13:37:38.001Z</time></trkpt><trkpt lat="36.80355534601801" lon="15.052694081212998"><ele>94.0</ele><time>2026-04-30T13:37:39.001Z</time></trkpt><trkpt lat="36.80350727053277" lon="15.05281339055833"><ele>92.80000000000001</ele><time>2026-04-30T13:37:40.001Z</time></trkpt><trkpt lat="36.80344646153396" lon="15.05291978127953"><ele>91.60000000000001</ele><time>2026-04-30T13:37:41.001Z</time></trkpt><trkpt lat="36.803391854358104" lon="15.05304120234203"><ele>90.4</ele><time>2026-04-30T13:37:42.001Z</time></trkpt><trkpt lat="36.80334684017853" lon="15.053170309479283"><ele>89.2</ele><time>2026-04-30T13:37:43.001Z</time></trkpt><trkpt lat="36.803282221746976" lon="15.053285970564174"><ele>88.0</ele><time>2026-04-30T13:37:44.001Z</time></trkpt><trkpt lat="36.803226507006094" lon="15.053413489534453"><ele>88.0</ele><time>2026-04-30T13:37:45.001Z</time></trkpt><trkpt lat="36.80317746087665" lon="15.053569340386536"><ele>88.0</ele><time>2026-04-30T13:37:46.001Z</time></trkpt><trkpt lat="36.803107978655696" lon="15.053743389339388"><ele>88.0</ele><time>2026-04-30T13:37:47.001Z</time></trkpt><trkpt lat="36.80302722134065" lon="15.053895579028119"><ele>88.0</ele><time>2026-04-30T13:37:48.001Z</time></trkpt><trkpt lat="36.80296700960764" lon="15.054032349818927"><ele>88.0</ele><time>2026-04-30T13:37:49.001Z</time></trkpt><trkpt lat="36.80292255341634" lon="15.054162639924185"><ele>88.0</ele><time>2026-04-30T13:37:50.001Z</time></trkpt><trkpt lat="36.80286368320965" lon="15.054264054588645"><ele>88.0</ele><time>2026-04-30T13:37:51.001Z</time></trkpt><trkpt lat="36.80283532819349" lon="15.054370707359768"><ele>88.0</ele><time>2026-04-30T13:37:52.001Z</time></trkpt><trkpt lat="36.80280214842738" lon="15.054445504252497"><ele>88.0</ele><time>2026-04-30T13:37:53.001Z</time></trkpt><trkpt lat="36.80273258761076" lon="15.054537391714913"><ele>88.0</ele><time>2026-04-30T13:37:55.001Z</time></trkpt><trkpt lat="36.80269080862168" lon="15.0546099102567"><ele>88.0</ele><time>2026-04-30T13:37:57.001Z</time></trkpt><trkpt lat="36.80266528396414" lon="15.054685448482138"><ele>88.0</ele><time>2026-04-30T13:37:59.001Z</time></trkpt><trkpt lat="36.802742764893644" lon="15.054933532224034"><ele>88.0</ele><time>2026-04-30T13:38:01.001Z</time></trkpt><trkpt lat="36.80271259216846" lon="15.055022259383652"><ele>88.0</ele><time>2026-04-30T13:38:02.001Z</time></trkpt><trkpt lat="36.80267912504607" lon="15.055114662801786"><ele>86.66666666666666</ele><time>2026-04-30T13:38:03.001Z</time></trkpt><trkpt lat="36.802651889935184" lon="15.055210796339987"><ele>85.33333333333333</ele><time>2026-04-30T13:38:04.001Z</time></trkpt><trkpt lat="36.802629710022806" lon="15.055304151212626"><ele>84.0</ele><time>2026-04-30T13:38:05.001Z</time></trkpt><trkpt lat="36.802609125928086" lon="15.055401287170225"><ele>82.66666666666667</ele><time>2026-04-30T13:38:06.001Z</time></trkpt><trkpt lat="36.80258769857679" lon="15.055495969164134"><ele>81.33333333333334</ele><time>2026-04-30T13:38:07.001Z</time></trkpt><trkpt lat="36.80257221697355" lon="15.055581728952326"><ele>80.0</ele><time>2026-04-30T13:38:08.001Z</time></trkpt><trkpt lat="36.80254218412543" lon="15.055690169852534"><ele>80.0</ele><time>2026-04-30T13:38:10.001Z</time></trkpt><trkpt lat="36.802462657569166" lon="15.055722085308481"><ele>80.0</ele><time>2026-04-30T13:38:13.001Z</time></trkpt><trkpt lat="36.80237860180354" lon="15.055685882206141"><ele>80.0</ele><time>2026-04-30T13:38:15.001Z</time></trkpt><trkpt lat="36.80230384145685" lon="15.055644114451455"><ele>80.0</ele><time>2026-04-30T13:38:16.001Z</time></trkpt><trkpt lat="36.80219764290942" lon="15.055590664954728"><ele>80.0</ele><time>2026-04-30T13:38:17.001Z</time></trkpt><trkpt lat="36.80211858548444" lon="15.055575941247685"><ele>80.0</ele><time>2026-04-30T13:38:18.001Z</time></trkpt><trkpt lat="36.802053008814006" lon="15.055588833790061"><ele>80.0</ele><time>2026-04-30T13:38:19.001Z</time></trkpt><trkpt lat="36.80197478359403" lon="15.055674758069221"><ele>80.0</ele><time>2026-04-30T13:38:21.001Z</time></trkpt><trkpt lat="36.80194707416195" lon="15.055871678963765"><ele>80.0</ele><time>2026-04-30T13:38:23Z</time></trkpt><trkpt lat="36.80191108659137" lon="15.056019047852992"><ele>80.0</ele><time>2026-04-30T13:38:24Z</time></trkpt><trkpt lat="36.801870456683325" lon="15.056181446425656"><ele>78.6</ele><time>2026-04-30T13:38:25Z</time></trkpt><trkpt lat="36.80183394699559" lon="15.05631838051773"><ele>77.2</ele><time>2026-04-30T13:38:26Z</time></trkpt><trkpt lat="36.80180232061422" lon="15.05644691422007"><ele>75.8</ele><time>2026-04-30T13:38:27Z</time></trkpt><trkpt lat="36.80177088311957" lon="15.056572675101716"><ele>74.4</ele><time>2026-04-30T13:38:28Z</time></trkpt><trkpt lat="36.80173737442713" lon="15.056702259338222"><ele>73.0</ele><time>2026-04-30T13:38:29Z</time></trkpt><trkpt lat="36.80170481558596" lon="15.056810029843808"><ele>71.8</ele><time>2026-04-30T13:38:30Z</time></trkpt><trkpt lat="36.80167306640109" lon="15.056917521619226"><ele>70.6</ele><time>2026-04-30T13:38:31Z</time></trkpt><trkpt lat="36.80163963961802" lon="15.056997012610317"><ele>69.4</ele><time>2026-04-30T13:38:32Z</time></trkpt><trkpt lat="36.80166816983837" lon="15.057098995223367"><ele>68.2</ele><time>2026-04-30T13:38:35Z</time></trkpt><trkpt lat="36.80177156197237" lon="15.057211954815017"><ele>67.0</ele><time>2026-04-30T13:38:37Z</time></trkpt><trkpt lat="36.80185458536103" lon="15.057301900365127"><ele>67.0</ele><time>2026-04-30T13:38:38Z</time></trkpt><trkpt lat="36.80194038916333" lon="15.057397444240936"><ele>67.0</ele><time>2026-04-30T13:38:39Z</time></trkpt><trkpt lat="36.802028388092936" lon="15.057477479569926"><ele>67.0</ele><time>2026-04-30T13:38:40Z</time></trkpt><trkpt lat="36.802097171428514" lon="15.05756950955354"><ele>67.0</ele><time>2026-04-30T13:38:41Z</time></trkpt><trkpt lat="36.80215840888948" lon="15.057635670732472"><ele>67.0</ele><time>2026-04-30T13:38:42Z</time></trkpt><trkpt lat="36.80222761036411" lon="15.05770295014393"><ele>66.0</ele><time>2026-04-30T13:38:43Z</time></trkpt><trkpt lat="36.80232199283792" lon="15.057768644617209"><ele>65.0</ele><time>2026-04-30T13:38:44Z</time></trkpt><trkpt lat="36.80241671779367" lon="15.057839513466828"><ele>64.0</ele><time>2026-04-30T13:38:45Z</time></trkpt><trkpt lat="36.802495745146985" lon="15.057904982219958"><ele>63.0</ele><time>2026-04-30T13:38:46Z</time></trkpt><trkpt lat="36.80256635237595" lon="15.057943558223727"><ele>62.0</ele><time>2026-04-30T13:38:47Z</time></trkpt><trkpt lat="36.80261707077742" lon="15.057991605641604"><ele>62.0</ele><time>2026-04-30T13:38:48Z</time></trkpt><trkpt lat="36.802659271817525" lon="15.05805359543194"><ele>62.00000000000001</ele><time>2026-04-30T13:38:49Z</time></trkpt><trkpt lat="36.80271578895614" lon="15.058107976945797"><ele>62.0</ele><time>2026-04-30T13:38:50Z</time></trkpt><trkpt lat="36.802777771038805" lon="15.058167616865836"><ele>62.0</ele><time>2026-04-30T13:38:51Z</time></trkpt><trkpt lat="36.802852120534" lon="15.058214937096324"><ele>62.00000000000001</ele><time>2026-04-30T13:38:52Z</time></trkpt><trkpt lat="36.80290667991514" lon="15.058264969997651"><ele>62.0</ele><time>2026-04-30T13:38:53Z</time></trkpt><trkpt lat="36.802950799689896" lon="15.058325648942382"><ele>62.0</ele><time>2026-04-30T13:38:54Z</time></trkpt><trkpt lat="36.803016687455575" lon="15.058382440476375"><ele>61.66666666666667</ele><time>2026-04-30T13:38:55Z</time></trkpt><trkpt lat="36.803086430178766" lon="15.0584247730431"><ele>61.333333333333336</ele><time>2026-04-30T13:38:56Z</time></trkpt><trkpt lat="36.80315320897737" lon="15.058478212717139"><ele>61.0</ele><time>2026-04-30T13:38:57Z</time></trkpt><trkpt lat="36.80321593669082" lon="15.05854936242121"><ele>60.66666666666667</ele><time>2026-04-30T13:38:58Z</time></trkpt><trkpt lat="36.80328816110546" lon="15.058593901623881"><ele>60.333333333333336</ele><time>2026-04-30T13:38:59Z</time></trkpt><trkpt lat="36.803353566953675" lon="15.058654192802283"><ele>60.0</ele><time>2026-04-30T13:39:00Z</time></trkpt><trkpt lat="36.8034385499427" lon="15.058715230507604"><ele>60.25</ele><time>2026-04-30T13:39:01Z</time></trkpt><trkpt lat="36.80352555145557" lon="15.058772353697009"><ele>60.5</ele><time>2026-04-30T13:39:02Z</time></trkpt><trkpt lat="36.803641781470866" lon="15.058826644570168"><ele>60.75</ele><time>2026-04-30T13:39:03Z</time></trkpt><trkpt lat="36.80376434005168" lon="15.05888861006512"><ele>61.0</ele><time>2026-04-30T13:39:04Z</time></trkpt><trkpt lat="36.80387628788852" lon="15.058973675243726"><ele>60.25</ele><time>2026-04-30T13:39:05Z</time></trkpt><trkpt lat="36.80397790629863" lon="15.059118479756876"><ele>59.5</ele><time>2026-04-30T13:39:06Z</time></trkpt><trkpt lat="36.804098199770024" lon="15.059215488698431"><ele>58.75</ele><time>2026-04-30T13:39:07Z</time></trkpt><trkpt lat="36.804199318532994" lon="15.059323472530686"><ele>58.0</ele><time>2026-04-30T13:39:08Z</time></trkpt><trkpt lat="36.80428285821378" lon="15.059416091936715"><ele>59.0</ele><time>2026-04-30T13:39:09Z</time></trkpt><trkpt lat="36.804357398196544" lon="15.05949454668423"><ele>60.0</ele><time>2026-04-30T13:39:10Z</time></trkpt><trkpt lat="36.804402538757074" lon="15.059571726026567"><ele>61.0</ele><time>2026-04-30T13:39:11Z</time></trkpt><trkpt lat="36.80437780075376" lon="15.059675799853357"><ele>62.0</ele><time>2026-04-30T13:39:12Z</time></trkpt><trkpt lat="36.80439360775629" lon="15.059820673284895"><ele>63.0</ele><time>2026-04-30T13:39:13Z</time></trkpt><trkpt lat="36.80441436074601" lon="15.059998572111914"><ele>63.0</ele><time>2026-04-30T13:39:14Z</time></trkpt><trkpt lat="36.80442601875928" lon="15.060148784023085"><ele>63.0</ele><time>2026-04-30T13:39:15Z</time></trkpt><trkpt lat="36.8044406478111" lon="15.060271706473637"><ele>63.0</ele><time>2026-04-30T13:39:16Z</time></trkpt><trkpt lat="36.8044558203715" lon="15.060385845380459"><ele>63.0</ele><time>2026-04-30T13:39:17Z</time></trkpt><trkpt lat="36.804465300488026" lon="15.060522321105966"><ele>63.0</ele><time>2026-04-30T13:39:18Z</time></trkpt><trkpt lat="36.804461606860656" lon="15.060665349303022"><ele>61.75</ele><time>2026-04-30T13:39:19Z</time></trkpt><trkpt lat="36.80447589444757" lon="15.06080699478291"><ele>60.5</ele><time>2026-04-30T13:39:20Z</time></trkpt><trkpt lat="36.80449115950521" lon="15.060958330702714"><ele>59.25</ele><time>2026-04-30T13:39:21.001Z</time></trkpt><trkpt lat="36.8045217953671" lon="15.061106158440678"><ele>58.0</ele><time>2026-04-30T13:39:22.001Z</time></trkpt><trkpt lat="36.80453157466039" lon="15.061241538848885"><ele>58.0</ele><time>2026-04-30T13:39:23.001Z</time></trkpt><trkpt lat="36.80454063580194" lon="15.061369649627233"><ele>58.0</ele><time>2026-04-30T13:39:24.001Z</time></trkpt><trkpt lat="36.80450002596768" lon="15.061492385093628"><ele>58.0</ele><time>2026-04-30T13:39:25.001Z</time></trkpt><trkpt lat="36.804486881308414" lon="15.061614920588612"><ele>58.0</ele><time>2026-04-30T13:39:26.001Z</time></trkpt><trkpt lat="36.8044920658231" lon="15.061732211406495"><ele>58.0</ele><time>2026-04-30T13:39:27.001Z</time></trkpt><trkpt lat="36.80448576912943" lon="15.061838925203181"><ele>57.33333333333333</ele><time>2026-04-30T13:39:28.001Z</time></trkpt><trkpt lat="36.8044857499566" lon="15.061934668440028"><ele>56.666666666666664</ele><time>2026-04-30T13:39:29.001Z</time></trkpt><trkpt lat="36.804452450976946" lon="15.062019108624247"><ele>56.0</ele><time>2026-04-30T13:39:30.001Z</time></trkpt><trkpt lat="36.8044399315841" lon="15.062123217896207"><ele>55.33333333333333</ele><time>2026-04-30T13:39:31.001Z</time></trkpt><trkpt lat="36.804438729550654" lon="15.062209818972082"><ele>54.666666666666664</ele><time>2026-04-30T13:39:32.001Z</time></trkpt><trkpt lat="36.804458766336985" lon="15.062312071030565"><ele>54.0</ele><time>2026-04-30T13:39:34.001Z</time></trkpt><trkpt lat="36.80457558831633" lon="15.062377097613023"><ele>54.0</ele><time>2026-04-30T13:39:36.001Z</time></trkpt><trkpt lat="36.8046610644809" lon="15.062329982057715"><ele>54.0</ele><time>2026-04-30T13:39:37.001Z</time></trkpt><trkpt lat="36.80473879816117" lon="15.062333427172007"><ele>54.0</ele><time>2026-04-30T13:39:38.001Z</time></trkpt><trkpt lat="36.804811921532526" lon="15.062350756571112"><ele>54.0</ele><time>2026-04-30T13:39:39.001Z</time></trkpt><trkpt lat="36.80487685948717" lon="15.062368476571805"><ele>54.0</ele><time>2026-04-30T13:39:40.001Z</time></trkpt><trkpt lat="36.80493370419607" lon="15.06240982056853"><ele>54.0</ele><time>2026-04-30T13:39:41.001Z</time></trkpt><trkpt lat="36.80498004904627" lon="15.062463388336813"><ele>54.0</ele><time>2026-04-30T13:39:42.001Z</time></trkpt><trkpt lat="36.805028650554796" lon="15.062515252897427"><ele>53.400000000000006</ele><time>2026-04-30T13:39:43.001Z</time></trkpt><trkpt lat="36.80509457783575" lon="15.062651422573794"><ele>52.800000000000004</ele><time>2026-04-30T13:39:45.001Z</time></trkpt><trkpt lat="36.80522407936352" lon="15.062633619166693"><ele>52.2</ele><time>2026-04-30T13:39:46.001Z</time></trkpt><trkpt lat="36.80530214041035" lon="15.062677422912753"><ele>51.599999999999994</ele><time>2026-04-30T13:39:47.001Z</time></trkpt><trkpt lat="36.80537516568892" lon="15.062730173541045"><ele>51.0</ele><time>2026-04-30T13:39:48.001Z</time></trkpt><trkpt lat="36.8054487480103" lon="15.06280865034621"><ele>51.0</ele><time>2026-04-30T13:39:49.001Z</time></trkpt><trkpt lat="36.80551108591394" lon="15.062882088760519"><ele>51.0</ele><time>2026-04-30T13:39:50.001Z</time></trkpt><trkpt lat="36.80558875062638" lon="15.062985160022489"><ele>51.0</ele><time>2026-04-30T13:39:51.001Z</time></trkpt><trkpt lat="36.80565677933266" lon="15.063055174776007"><ele>51.0</ele><time>2026-04-30T13:39:52.001Z</time></trkpt><trkpt lat="36.8057315247758" lon="15.063090215423907"><ele>51.0</ele><time>2026-04-30T13:39:53.001Z</time></trkpt><trkpt lat="36.80581708879608" lon="15.06308665405011"><ele>51.0</ele><time>2026-04-30T13:39:54.001Z</time></trkpt><trkpt lat="36.80593377110031" lon="15.063087895082504"><ele>51.0</ele><time>2026-04-30T13:39:55.001Z</time></trkpt><trkpt lat="36.8060332455017" lon="15.0631009073888"><ele>51.0</ele><time>2026-04-30T13:39:56.001Z</time></trkpt><trkpt lat="36.806126922516015" lon="15.063138966590467"><ele>51.0</ele><time>2026-04-30T13:39:57.001Z</time></trkpt><trkpt lat="36.80624275864297" lon="15.063195080526134"><ele>51.0</ele><time>2026-04-30T13:39:58.001Z</time></trkpt><trkpt lat="36.80635102930762" lon="15.063267252809993"><ele>51.0</ele><time>2026-04-30T13:39:59.001Z</time></trkpt><trkpt lat="36.8064568015384" lon="15.063322603352082"><ele>51.0</ele><time>2026-04-30T13:40:00.001Z</time></trkpt><trkpt lat="36.80655761135699" lon="15.063364077883396"><ele>51.0</ele><time>2026-04-30T13:40:01.001Z</time></trkpt><trkpt lat="36.80665330204963" lon="15.063393432551551"><ele>51.0</ele><time>2026-04-30T13:40:02.001Z</time></trkpt><trkpt lat="36.80674942693912" lon="15.063417233262903"><ele>51.0</ele><time>2026-04-30T13:40:03.001Z</time></trkpt><trkpt lat="36.8068476422272" lon="15.063457908191344"><ele>51.8</ele><time>2026-04-30T13:40:04.001Z</time></trkpt><trkpt lat="36.8069330253033" lon="15.06349226194965"><ele>52.599999999999994</ele><time>2026-04-30T13:40:05.001Z</time></trkpt><trkpt lat="36.807026184184075" lon="15.063522468168253"><ele>53.4</ele><time>2026-04-30T13:40:06.001Z</time></trkpt><trkpt lat="36.80712902484786" lon="15.06353846152861"><ele>54.2</ele><time>2026-04-30T13:40:07.001Z</time></trkpt><trkpt lat="36.807232703007" lon="15.063532723536959"><ele>55.0</ele><time>2026-04-30T13:40:08.001Z</time></trkpt><trkpt lat="36.80732832162943" lon="15.063493109666183"><ele>55.0</ele><time>2026-04-30T13:40:09.001Z</time></trkpt><trkpt lat="36.80741648453793" lon="15.06345544389098"><ele>55.0</ele><time>2026-04-30T13:40:10.001Z</time></trkpt><trkpt lat="36.80749607765217" lon="15.063431602052338"><ele>55.0</ele><time>2026-04-30T13:40:11.001Z</time></trkpt><trkpt lat="36.80759910077168" lon="15.063455627196575"><ele>55.0</ele><time>2026-04-30T13:40:12.001Z</time></trkpt><trkpt lat="36.807715559497034" lon="15.063492910329671"><ele>55.0</ele><time>2026-04-30T13:40:13.001Z</time></trkpt><trkpt lat="36.80781558968637" lon="15.063531639664632"><ele>55.99999999999999</ele><time>2026-04-30T13:40:14.001Z</time></trkpt><trkpt lat="36.807902532546926" lon="15.063540660505977"><ele>57.0</ele><time>2026-04-30T13:40:15.001Z</time></trkpt><trkpt lat="36.807976021018305" lon="15.06352055957454"><ele>58.0</ele><time>2026-04-30T13:40:16.001Z</time></trkpt><trkpt lat="36.808059188646816" lon="15.06348724245619"><ele>59.0</ele><time>2026-04-30T13:40:17.001Z</time></trkpt><trkpt lat="36.808142786909826" lon="15.063452247411028"><ele>59.99999999999999</ele><time>2026-04-30T13:40:18.001Z</time></trkpt><trkpt lat="36.80821190946677" lon="15.063455585603098"><ele>61.0</ele><time>2026-04-30T13:40:19.001Z</time></trkpt><trkpt lat="36.80831127465749" lon="15.063513071592253"><ele>61.0</ele><time>2026-04-30T13:40:20.001Z</time></trkpt><trkpt lat="36.80842186451025" lon="15.063560433289837"><ele>60.99999999999999</ele><time>2026-04-30T13:40:21.001Z</time></trkpt><trkpt lat="36.808516435138614" lon="15.06359011252265"><ele>60.99999999999999</ele><time>2026-04-30T13:40:22.001Z</time></trkpt><trkpt lat="36.80860347075358" lon="15.063597300511745"><ele>61.0</ele><time>2026-04-30T13:40:23.001Z</time></trkpt><trkpt lat="36.808709663483945" lon="15.063579290604377"><ele>61.0</ele><time>2026-04-30T13:40:24.001Z</time></trkpt><trkpt lat="36.80882627286764" lon="15.063562670314429"><ele>61.599999999999994</ele><time>2026-04-30T13:40:25.001Z</time></trkpt><trkpt lat="36.80893166021076" lon="15.063579995927297"><ele>62.199999999999996</ele><time>2026-04-30T13:40:26.001Z</time></trkpt><trkpt lat="36.80901310353921" lon="15.063624187014353"><ele>62.800000000000004</ele><time>2026-04-30T13:40:27.001Z</time></trkpt><trkpt lat="36.809080972995226" lon="15.063642369182125"><ele>63.400000000000006</ele><time>2026-04-30T13:40:28.001Z</time></trkpt><trkpt lat="36.80920687867045" lon="15.063575784487766"><ele>64.0</ele><time>2026-04-30T13:40:30Z</time></trkpt><trkpt lat="36.80931447090011" lon="15.063533498462123"><ele>64.0</ele><time>2026-04-30T13:40:31Z</time></trkpt><trkpt lat="36.809412964728075" lon="15.063507924646864"><ele>64.0</ele><time>2026-04-30T13:40:32Z</time></trkpt><trkpt lat="36.80950965678542" lon="15.063491514245515"><ele>64.0</ele><time>2026-04-30T13:40:33Z</time></trkpt><trkpt lat="36.80959860235929" lon="15.063493438029791"><ele>64.0</ele><time>2026-04-30T13:40:34Z</time></trkpt><trkpt lat="36.80968592051807" lon="15.063517453692231"><ele>64.0</ele><time>2026-04-30T13:40:35Z</time></trkpt><trkpt lat="36.809771485479075" lon="15.063536372084934"><ele>64.0</ele><time>2026-04-30T13:40:36Z</time></trkpt><trkpt lat="36.80985836931362" lon="15.063523370101821"><ele>64.0</ele><time>2026-04-30T13:40:37Z</time></trkpt><trkpt lat="36.80996533766932" lon="15.063478222472625"><ele>64.0</ele><time>2026-04-30T13:40:38Z</time></trkpt><trkpt lat="36.81006207459016" lon="15.063439967059791"><ele>64.0</ele><time>2026-04-30T13:40:39Z</time></trkpt><trkpt lat="36.81014904717093" lon="15.063409979625652"><ele>64.0</ele><time>2026-04-30T13:40:40Z</time></trkpt><trkpt lat="36.810226461577926" lon="15.063381050682729"><ele>64.2</ele><time>2026-04-30T13:40:41Z</time></trkpt><trkpt lat="36.81029574204441" lon="15.063369062234273"><ele>64.4</ele><time>2026-04-30T13:40:42Z</time></trkpt><trkpt lat="36.81038872013559" lon="15.063361872970615"><ele>64.6</ele><time>2026-04-30T13:40:43Z</time></trkpt><trkpt lat="36.81050678370282" lon="15.063358055883997"><ele>64.8</ele><time>2026-04-30T13:40:44Z</time></trkpt><trkpt lat="36.81061575361664" lon="15.063360726036269"><ele>65.0</ele><time>2026-04-30T13:40:45Z</time></trkpt><trkpt lat="36.81072757496344" lon="15.063387336456463"><ele>65.0</ele><time>2026-04-30T13:40:46Z</time></trkpt><trkpt lat="36.81084067224996" lon="15.063426831610329"><ele>65.0</ele><time>2026-04-30T13:40:47Z</time></trkpt><trkpt lat="36.810938009534674" lon="15.06344144612037"><ele>65.0</ele><time>2026-04-30T13:40:48Z</time></trkpt><trkpt lat="36.81103272979227" lon="15.063448881308068"><ele>65.0</ele><time>2026-04-30T13:40:49Z</time></trkpt><trkpt lat="36.81113282853239" lon="15.063439947925078"><ele>65.0</ele><time>2026-04-30T13:40:50Z</time></trkpt><trkpt lat="36.81124428538736" lon="15.063427737299685"><ele>65.0</ele><time>2026-04-30T13:40:51Z</time></trkpt><trkpt lat="36.81136792952863" lon="15.063420207575088"><ele>65.0</ele><time>2026-04-30T13:40:52Z</time></trkpt><trkpt lat="36.81147933988011" lon="15.06342639770802"><ele>65.0</ele><time>2026-04-30T13:40:53Z</time></trkpt><trkpt lat="36.81159102447282" lon="15.0634458074893"><ele>65.0</ele><time>2026-04-30T13:40:54Z</time></trkpt><trkpt lat="36.81169848953821" lon="15.063473296167983"><ele>65.0</ele><time>2026-04-30T13:40:55Z</time></trkpt><trkpt lat="36.81180756488627" lon="15.063515623125642"><ele>65.0</ele><time>2026-04-30T13:40:56Z</time></trkpt><trkpt lat="36.811909663930045" lon="15.063566168670167"><ele>65.0</ele><time>2026-04-30T13:40:57Z</time></trkpt><trkpt lat="36.81199529304841" lon="15.063632789789823"><ele>65.0</ele><time>2026-04-30T13:40:58Z</time></trkpt><trkpt lat="36.812073854421214" lon="15.063711397973416"><ele>65.0</ele><time>2026-04-30T13:40:59Z</time></trkpt><trkpt lat="36.81214621987748" lon="15.063794595021573"><ele>64.4</ele><time>2026-04-30T13:41:00Z</time></trkpt><trkpt lat="36.81221867586291" lon="15.063870690752823"><ele>63.8</ele><time>2026-04-30T13:41:01Z</time></trkpt><trkpt lat="36.812293672247286" lon="15.063947059856625"><ele>63.2</ele><time>2026-04-30T13:41:02Z</time></trkpt><trkpt lat="36.81237504416441" lon="15.064053503487703"><ele>62.6</ele><time>2026-04-30T13:41:03Z</time></trkpt><trkpt lat="36.81246535407691" lon="15.064146749284873"><ele>62.0</ele><time>2026-04-30T13:41:04Z</time></trkpt><trkpt lat="36.812559531827496" lon="15.06421445570812"><ele>63.6</ele><time>2026-04-30T13:41:05Z</time></trkpt><trkpt lat="36.812666284094796" lon="15.064291333923618"><ele>65.2</ele><time>2026-04-30T13:41:06Z</time></trkpt><trkpt lat="36.81275701072395" lon="15.064356114871718"><ele>66.8</ele><time>2026-04-30T13:41:07Z</time></trkpt><trkpt lat="36.81284663365141" lon="15.064426318450918"><ele>68.4</ele><time>2026-04-30T13:41:08Z</time></trkpt><trkpt lat="36.8129355601191" lon="15.064505510466523"><ele>70.0</ele><time>2026-04-30T13:41:09Z</time></trkpt><trkpt lat="36.81301972396581" lon="15.064585589818382"><ele>70.0</ele><time>2026-04-30T13:41:10Z</time></trkpt><trkpt lat="36.81310284816534" lon="15.064662429015632"><ele>70.0</ele><time>2026-04-30T13:41:11Z</time></trkpt><trkpt lat="36.81319110884085" lon="15.064734701731808"><ele>70.0</ele><time>2026-04-30T13:41:12.001Z</time></trkpt><trkpt lat="36.813276987883974" lon="15.064811812047695"><ele>70.0</ele><time>2026-04-30T13:41:13.001Z</time></trkpt><trkpt lat="36.81336940016679" lon="15.064881144653794"><ele>70.0</ele><time>2026-04-30T13:41:14.001Z</time></trkpt><trkpt lat="36.81344423647527" lon="15.064951884897548"><ele>69.33333333333333</ele><time>2026-04-30T13:41:15.001Z</time></trkpt><trkpt lat="36.81351242358817" lon="15.065042384221787"><ele>68.66666666666666</ele><time>2026-04-30T13:41:16.001Z</time></trkpt><trkpt lat="36.81356470574096" lon="15.065129930321289"><ele>68.0</ele><time>2026-04-30T13:41:17.001Z</time></trkpt><trkpt lat="36.81362154254583" lon="15.065198637654223"><ele>67.33333333333333</ele><time>2026-04-30T13:41:18.001Z</time></trkpt><trkpt lat="36.81367833382366" lon="15.065263611231895"><ele>66.66666666666667</ele><time>2026-04-30T13:41:19.001Z</time></trkpt><trkpt lat="36.813731052847636" lon="15.06534146213937"><ele>66.0</ele><time>2026-04-30T13:41:20.001Z</time></trkpt><trkpt lat="36.81376345768087" lon="15.065411152284407"><ele>66.0</ele><time>2026-04-30T13:41:21.001Z</time></trkpt><trkpt lat="36.81378171071463" lon="15.065564470358003"><ele>66.0</ele><time>2026-04-30T13:41:23.001Z</time></trkpt><trkpt lat="36.813793931898296" lon="15.065704110105834"><ele>66.0</ele><time>2026-04-30T13:41:25.001Z</time></trkpt><trkpt lat="36.813794448409254" lon="15.065839856243109"><ele>66.0</ele><time>2026-04-30T13:41:27.001Z</time></trkpt><trkpt lat="36.81382360570974" lon="15.06598694932982"><ele>65.2</ele><time>2026-04-30T13:41:29.001Z</time></trkpt><trkpt lat="36.81387088606278" lon="15.066108733364533"><ele>64.39999999999999</ele><time>2026-04-30T13:41:31.001Z</time></trkpt><trkpt lat="36.81391598419684" lon="15.066212426163833"><ele>63.6</ele><time>2026-04-30T13:41:33.001Z</time></trkpt><trkpt lat="36.813987370659795" lon="15.066290506725098"><ele>62.8</ele><time>2026-04-30T13:41:35.001Z</time></trkpt><trkpt lat="36.81407250620731" lon="15.066368807937229"><ele>62.0</ele><time>2026-04-30T13:41:37.001Z</time></trkpt><trkpt lat="36.814176004399414" lon="15.066446051068647"><ele>62.0</ele><time>2026-04-30T13:41:39.001Z</time></trkpt><trkpt lat="36.81426262023209" lon="15.06649998951521"><ele>62.0</ele><time>2026-04-30T13:41:41.001Z</time></trkpt><trkpt lat="36.81434927314621" lon="15.06653873941755"><ele>62.0</ele><time>2026-04-30T13:41:43.001Z</time></trkpt><trkpt lat="36.814415377118436" lon="15.06659511945271"><ele>62.0</ele><time>2026-04-30T13:41:45.001Z</time></trkpt><trkpt lat="36.81450377964763" lon="15.066670699840662"><ele>62.0</ele><time>2026-04-30T13:41:47.001Z</time></trkpt><trkpt lat="36.81459207492071" lon="15.066758423230343"><ele>61.6</ele><time>2026-04-30T13:41:49.001Z</time></trkpt><trkpt lat="36.81467905420795" lon="15.066840006984402"><ele>61.2</ele><time>2026-04-30T13:41:51.001Z</time></trkpt><trkpt lat="36.81476639820063" lon="15.066906516329956"><ele>60.8</ele><time>2026-04-30T13:41:53.001Z</time></trkpt><trkpt lat="36.81484771919024" lon="15.066969651208263"><ele>60.4</ele><time>2026-04-30T13:41:55.001Z</time></trkpt><trkpt lat="36.814869803010616" lon="15.067079372620224"><ele>60.0</ele><time>2026-04-30T13:41:57.001Z</time></trkpt><trkpt lat="36.81478121035341" lon="15.067145175476188"><ele>60.0</ele><time>2026-04-30T13:41:59.001Z</time></trkpt><trkpt lat="36.814701992339565" lon="15.067276453797229"><ele>60.0</ele><time>2026-04-30T13:42:01.001Z</time></trkpt><trkpt lat="36.814658738678794" lon="15.067346974225154"><ele>60.0</ele><time>2026-04-30T13:42:02.001Z</time></trkpt><trkpt lat="36.814621369054436" lon="15.067432535225754"><ele>60.0</ele><time>2026-04-30T13:42:03.001Z</time></trkpt><trkpt lat="36.81457768461945" lon="15.067506342622496"><ele>60.0</ele><time>2026-04-30T13:42:04.001Z</time></trkpt><trkpt lat="36.81453426798813" lon="15.067583545529144"><ele>60.0</ele><time>2026-04-30T13:42:05.001Z</time></trkpt><trkpt lat="36.81448679061941" lon="15.067660140955308"><ele>59.5</ele><time>2026-04-30T13:42:06.001Z</time></trkpt><trkpt lat="36.8144373586531" lon="15.067742636245038"><ele>59.0</ele><time>2026-04-30T13:42:07.001Z</time></trkpt><trkpt lat="36.81437255962977" lon="15.067834433850926"><ele>58.5</ele><time>2026-04-30T13:42:08.001Z</time></trkpt><trkpt lat="36.8143250049674" lon="15.06792127181809"><ele>58.0</ele><time>2026-04-30T13:42:09.001Z</time></trkpt><trkpt lat="36.81427403589443" lon="15.067980106685138"><ele>57.5</ele><time>2026-04-30T13:42:10.001Z</time></trkpt><trkpt lat="36.814261470481966" lon="15.068058159538912"><ele>57.0</ele><time>2026-04-30T13:42:11.001Z</time></trkpt><trkpt lat="36.81423640525275" lon="15.068131042970933"><ele>57.0</ele><time>2026-04-30T13:42:12.001Z</time></trkpt><trkpt lat="36.814273919468185" lon="15.068230699683486"><ele>57.0</ele><time>2026-04-30T13:42:13.001Z</time></trkpt><trkpt lat="36.81434044629469" lon="15.068300223800891"><ele>57.0</ele><time>2026-04-30T13:42:14.001Z</time></trkpt><trkpt lat="36.81439602000125" lon="15.068393325901148"><ele>57.0</ele><time>2026-04-30T13:42:15.001Z</time></trkpt><trkpt lat="36.81446028884342" lon="15.06849364335651"><ele>57.0</ele><time>2026-04-30T13:42:16.001Z</time></trkpt><trkpt lat="36.814505471305885" lon="15.068598624437602"><ele>56.0</ele><time>2026-04-30T13:42:17.001Z</time></trkpt><trkpt lat="36.81457939584568" lon="15.06868679039268"><ele>55.0</ele><time>2026-04-30T13:42:18.001Z</time></trkpt><trkpt lat="36.81464277076117" lon="15.068786570937322"><ele>54.0</ele><time>2026-04-30T13:42:19.001Z</time></trkpt><trkpt lat="36.814703584894495" lon="15.068882385646722"><ele>53.0</ele><time>2026-04-30T13:42:20.001Z</time></trkpt><trkpt lat="36.81476704550134" lon="15.068987132890197"><ele>52.0</ele><time>2026-04-30T13:42:21.001Z</time></trkpt><trkpt lat="36.8148333469115" lon="15.069093684318872"><ele>51.6</ele><time>2026-04-30T13:42:22.001Z</time></trkpt><trkpt lat="36.814882743538206" lon="15.06921915896929"><ele>51.2</ele><time>2026-04-30T13:42:23.001Z</time></trkpt><trkpt lat="36.814954252262964" lon="15.069310560652971"><ele>50.8</ele><time>2026-04-30T13:42:24.001Z</time></trkpt><trkpt lat="36.815001509019105" lon="15.069404965387704"><ele>50.4</ele><time>2026-04-30T13:42:25.001Z</time></trkpt><trkpt lat="36.81504569405397" lon="15.069488520090017"><ele>50.0</ele><time>2026-04-30T13:42:26.001Z</time></trkpt><trkpt lat="36.81508628771863" lon="15.069554364592536"><ele>50.2</ele><time>2026-04-30T13:42:27.001Z</time></trkpt><trkpt lat="36.8151810034011" lon="15.069639946579422"><ele>50.4</ele><time>2026-04-30T13:42:29.001Z</time></trkpt><trkpt lat="36.81528658312207" lon="15.069722560371444"><ele>50.599999999999994</ele><time>2026-04-30T13:42:31.001Z</time></trkpt><trkpt lat="36.81531258713726" lon="15.069851486491013"><ele>50.8</ele><time>2026-04-30T13:42:32.001Z</time></trkpt><trkpt lat="36.81534906973296" lon="15.06996078157873"><ele>51.0</ele><time>2026-04-30T13:42:33.001Z</time></trkpt><trkpt lat="36.81539550007098" lon="15.070077390270022"><ele>50.5</ele><time>2026-04-30T13:42:34.001Z</time></trkpt><trkpt lat="36.81545269799181" lon="15.070193913983033"><ele>50.0</ele><time>2026-04-30T13:42:35Z</time></trkpt><trkpt lat="36.815509323343605" lon="15.070316680806178"><ele>49.5</ele><time>2026-04-30T13:42:36Z</time></trkpt><trkpt lat="36.81556482048025" lon="15.070441407377887"><ele>49.0</ele><time>2026-04-30T13:42:37Z</time></trkpt><trkpt lat="36.815619649659446" lon="15.070571161509365"><ele>49.0</ele><time>2026-04-30T13:42:38Z</time></trkpt><trkpt lat="36.815675540460234" lon="15.07070013963837"><ele>49.0</ele><time>2026-04-30T13:42:39Z</time></trkpt><trkpt lat="36.81573551943943" lon="15.070825175319568"><ele>49.0</ele><time>2026-04-30T13:42:40Z</time></trkpt><trkpt lat="36.81579670460289" lon="15.070950998458454"><ele>49.0</ele><time>2026-04-30T13:42:41Z</time></trkpt><trkpt lat="36.81585613616117" lon="15.071080093210156"><ele>49.0</ele><time>2026-04-30T13:42:42Z</time></trkpt><trkpt lat="36.81590966003505" lon="15.07121152895677"><ele>49.0</ele><time>2026-04-30T13:42:43Z</time></trkpt><trkpt lat="36.81596281543132" lon="15.071348898272536"><ele>49.0</ele><time>2026-04-30T13:42:44Z</time></trkpt><trkpt lat="36.81602737593831" lon="15.071481321141606"><ele>49.0</ele><time>2026-04-30T13:42:45Z</time></trkpt><trkpt lat="36.816091315979534" lon="15.07160904949961"><ele>48.5</ele><time>2026-04-30T13:42:46Z</time></trkpt><trkpt lat="36.81614898811743" lon="15.071728748358199"><ele>48.0</ele><time>2026-04-30T13:42:47Z</time></trkpt><trkpt lat="36.816200683519256" lon="15.071853964742619"><ele>47.5</ele><time>2026-04-30T13:42:48Z</time></trkpt><trkpt lat="36.81625896442105" lon="15.071984702579213"><ele>47.0</ele><time>2026-04-30T13:42:49Z</time></trkpt><trkpt lat="36.81631687485983" lon="15.072113778561546"><ele>47.0</ele><time>2026-04-30T13:42:50Z</time></trkpt><trkpt lat="36.81637133082671" lon="15.07223952464388"><ele>47.0</ele><time>2026-04-30T13:42:51Z</time></trkpt><trkpt lat="36.81642592844266" lon="15.072364243806755"><ele>47.0</ele><time>2026-04-30T13:42:52Z</time></trkpt><trkpt lat="36.81648291179705" lon="15.072487676590123"><ele>47.0</ele><time>2026-04-30T13:42:53Z</time></trkpt><trkpt lat="36.81654271274886" lon="15.072606663118032"><ele>46.75</ele><time>2026-04-30T13:42:54Z</time></trkpt><trkpt lat="36.81660093329727" lon="15.07272261780562"><ele>46.5</ele><time>2026-04-30T13:42:55Z</time></trkpt><trkpt lat="36.81665955378917" lon="15.072839893286595"><ele>46.25</ele><time>2026-04-30T13:42:56Z</time></trkpt><trkpt lat="36.81672073923981" lon="15.072963608942507"><ele>46.0</ele><time>2026-04-30T13:42:57Z</time></trkpt><trkpt lat="36.816787024815845" lon="15.073100730242881"><ele>47.25</ele><time>2026-04-30T13:42:58Z</time></trkpt><trkpt lat="36.81685048916357" lon="15.073230466488013"><ele>48.5</ele><time>2026-04-30T13:42:59Z</time></trkpt><trkpt lat="36.81691185194018" lon="15.073347513413617"><ele>49.75</ele><time>2026-04-30T13:43:00Z</time></trkpt><trkpt lat="36.816972934655055" lon="15.0734569208874"><ele>51.0</ele><time>2026-04-30T13:43:01Z</time></trkpt><trkpt lat="36.81704687671765" lon="15.073562485214559"><ele>51.0</ele><time>2026-04-30T13:43:02Z</time></trkpt><trkpt lat="36.81713005649221" lon="15.07365373236984"><ele>51.0</ele><time>2026-04-30T13:43:03Z</time></trkpt><trkpt lat="36.81722678494399" lon="15.073715955963698"><ele>51.0</ele><time>2026-04-30T13:43:04Z</time></trkpt><trkpt lat="36.81733933032856" lon="15.073763133709292"><ele>51.0</ele><time>2026-04-30T13:43:05Z</time></trkpt><trkpt lat="36.81745125607634" lon="15.073800760631203"><ele>51.0</ele><time>2026-04-30T13:43:06Z</time></trkpt><trkpt lat="36.81754129382555" lon="15.073818595987026"><ele>51.0</ele><time>2026-04-30T13:43:07Z</time></trkpt><trkpt lat="36.81762617247453" lon="15.073839751216942"><ele>51.0</ele><time>2026-04-30T13:43:08Z</time></trkpt><trkpt lat="36.8176995400395" lon="15.073863529317622"><ele>51.0</ele><time>2026-04-30T13:43:09Z</time></trkpt><trkpt lat="36.81777887317027" lon="15.07388040995937"><ele>51.0</ele><time>2026-04-30T13:43:10Z</time></trkpt><trkpt lat="36.817878054097136" lon="15.073889308803075"><ele>51.0</ele><time>2026-04-30T13:43:11Z</time></trkpt><trkpt lat="36.81797871714421" lon="15.07389098129322"><ele>51.166666666666664</ele><time>2026-04-30T13:43:12Z</time></trkpt><trkpt lat="36.81806703764159" lon="15.073880935507788"><ele>51.33333333333333</ele><time>2026-04-30T13:43:13Z</time></trkpt><trkpt lat="36.81815315386449" lon="15.073873500329762"><ele>51.5</ele><time>2026-04-30T13:43:14Z</time></trkpt><trkpt lat="36.81823263668902" lon="15.073869786030196"><ele>51.666666666666664</ele><time>2026-04-30T13:43:15Z</time></trkpt><trkpt lat="36.81830468768244" lon="15.073861491633977"><ele>51.83333333333333</ele><time>2026-04-30T13:43:16Z</time></trkpt><trkpt lat="36.818371580201614" lon="15.073849940279995"><ele>52.0</ele><time>2026-04-30T13:43:17Z</time></trkpt><trkpt lat="36.81843829432155" lon="15.073844933866038"><ele>51.857142857142854</ele><time>2026-04-30T13:43:18Z</time></trkpt><trkpt lat="36.81850331564026" lon="15.073839408866483"><ele>51.714285714285715</ele><time>2026-04-30T13:43:19Z</time></trkpt><trkpt lat="36.81856858490897" lon="15.07382996479753"><ele>51.57142857142857</ele><time>2026-04-30T13:43:20Z</time></trkpt><trkpt lat="36.81863244377392" lon="15.073824355340262"><ele>51.42857142857143</ele><time>2026-04-30T13:43:21Z</time></trkpt><trkpt lat="36.818709784120756" lon="15.073847898926916"><ele>51.28571428571429</ele><time>2026-04-30T13:43:22Z</time></trkpt><trkpt lat="36.81878465571598" lon="15.073854093208768"><ele>51.142857142857146</ele><time>2026-04-30T13:43:23Z</time></trkpt><trkpt lat="36.818855814439914" lon="15.073853909109783"><ele>51.0</ele><time>2026-04-30T13:43:24Z</time></trkpt><trkpt lat="36.818927454665754" lon="15.073883127513973"><ele>51.0</ele><time>2026-04-30T13:43:25.001Z</time></trkpt><trkpt lat="36.819000950077594" lon="15.0739198279167"><ele>51.0</ele><time>2026-04-30T13:43:26.001Z</time></trkpt><trkpt lat="36.81906600556746" lon="15.073983750467535"><ele>51.0</ele><time>2026-04-30T13:43:27.001Z</time></trkpt><trkpt lat="36.81914602934765" lon="15.07401457509539"><ele>51.0</ele><time>2026-04-30T13:43:28.001Z</time></trkpt><trkpt lat="36.81922479870988" lon="15.074081570076139"><ele>51.0</ele><time>2026-04-30T13:43:29.001Z</time></trkpt><trkpt lat="36.81930550544559" lon="15.074149943474312"><ele>51.0</ele><time>2026-04-30T13:43:30.001Z</time></trkpt><trkpt lat="36.81938424148219" lon="15.07420324535021"><ele>50.333333333333336</ele><time>2026-04-30T13:43:31.001Z</time></trkpt><trkpt lat="36.819460994392024" lon="15.074250939235302"><ele>49.666666666666664</ele><time>2026-04-30T13:43:32.001Z</time></trkpt><trkpt lat="36.81953516298839" lon="15.074302445597757"><ele>49.0</ele><time>2026-04-30T13:43:33.001Z</time></trkpt><trkpt lat="36.81961554558604" lon="15.074361421476393"><ele>48.33333333333333</ele><time>2026-04-30T13:43:34.001Z</time></trkpt><trkpt lat="36.81969744030745" lon="15.074422721300676"><ele>47.666666666666664</ele><time>2026-04-30T13:43:35.001Z</time></trkpt><trkpt lat="36.819770444219046" lon="15.074481754328795"><ele>47.0</ele><time>2026-04-30T13:43:36.001Z</time></trkpt><trkpt lat="36.81984740027736" lon="15.074548305249166"><ele>47.0</ele><time>2026-04-30T13:43:37.001Z</time></trkpt><trkpt lat="36.819929124576824" lon="15.074604357356005"><ele>47.0</ele><time>2026-04-30T13:43:38.001Z</time></trkpt><trkpt lat="36.820004141148374" lon="15.074655477240261"><ele>47.0</ele><time>2026-04-30T13:43:39.001Z</time></trkpt><trkpt lat="36.82007380680314" lon="15.07470288144985"><ele>47.0</ele><time>2026-04-30T13:43:40.001Z</time></trkpt><trkpt lat="36.82013892118667" lon="15.074750016918637"><ele>47.0</ele><time>2026-04-30T13:43:41.001Z</time></trkpt><trkpt lat="36.82019658360608" lon="15.074792443373129"><ele>47.0</ele><time>2026-04-30T13:43:42.001Z</time></trkpt><trkpt lat="36.820255914838235" lon="15.074831244923518"><ele>47.0</ele><time>2026-04-30T13:43:43.001Z</time></trkpt><trkpt lat="36.82031400488885" lon="15.074877611877023"><ele>47.0</ele><time>2026-04-30T13:43:44.001Z</time></trkpt><trkpt lat="36.820381356385454" lon="15.074926418695917"><ele>47.0</ele><time>2026-04-30T13:43:45.001Z</time></trkpt><trkpt lat="36.820458719505474" lon="15.074983512425352"><ele>47.0</ele><time>2026-04-30T13:43:46.001Z</time></trkpt><trkpt lat="36.820537604548896" lon="15.07504312517376"><ele>47.0</ele><time>2026-04-30T13:43:47.001Z</time></trkpt><trkpt lat="36.8206107350874" lon="15.075100719134308"><ele>47.0</ele><time>2026-04-30T13:43:48.001Z</time></trkpt><trkpt lat="36.8206793730612" lon="15.075152839574324"><ele>47.0</ele><time>2026-04-30T13:43:49.001Z</time></trkpt><trkpt lat="36.82076164152455" lon="15.07520124534483"><ele>47.0</ele><time>2026-04-30T13:43:50.001Z</time></trkpt><trkpt lat="36.820840378419355" lon="15.075257222156317"><ele>47.0</ele><time>2026-04-30T13:43:51.001Z</time></trkpt><trkpt lat="36.820917566290845" lon="15.075316344647469"><ele>47.0</ele><time>2026-04-30T13:43:52.001Z</time></trkpt><trkpt lat="36.820996690533704" lon="15.075370031870914"><ele>47.0</ele><time>2026-04-30T13:43:53.001Z</time></trkpt><trkpt lat="36.821069238730914" lon="15.075414467928974"><ele>47.0</ele><time>2026-04-30T13:43:54.001Z</time></trkpt><trkpt lat="36.82113401165009" lon="15.075454934129894"><ele>47.166666666666664</ele><time>2026-04-30T13:43:55.001Z</time></trkpt><trkpt lat="36.821199351072615" lon="15.075495781501159"><ele>47.33333333333333</ele><time>2026-04-30T13:43:56.001Z</time></trkpt><trkpt lat="36.82126438968858" lon="15.07552414590484"><ele>47.5</ele><time>2026-04-30T13:43:57.001Z</time></trkpt><trkpt lat="36.82133192166689" lon="15.075554098994173"><ele>47.666666666666664</ele><time>2026-04-30T13:43:58.001Z</time></trkpt><trkpt lat="36.82141567791209" lon="15.075591232121365"><ele>47.833333333333336</ele><time>2026-04-30T13:43:59.001Z</time></trkpt><trkpt lat="36.82149112000486" lon="15.075621073437189"><ele>48.0</ele><time>2026-04-30T13:44:00.001Z</time></trkpt><trkpt lat="36.82156083133513" lon="15.075651096519197"><ele>48.0</ele><time>2026-04-30T13:44:01.001Z</time></trkpt><trkpt lat="36.821644674923846" lon="15.075684107354066"><ele>48.0</ele><time>2026-04-30T13:44:02.001Z</time></trkpt><trkpt lat="36.821736220006606" lon="15.07572130408432"><ele>48.0</ele><time>2026-04-30T13:44:03.001Z</time></trkpt><trkpt lat="36.82181812096831" lon="15.07575593488896"><ele>48.0</ele><time>2026-04-30T13:44:04.001Z</time></trkpt><trkpt lat="36.82189677397148" lon="15.07578290156141"><ele>48.0</ele><time>2026-04-30T13:44:05.001Z</time></trkpt><trkpt lat="36.82199250757933" lon="15.075803105176021"><ele>48.0</ele><time>2026-04-30T13:44:06.001Z</time></trkpt><trkpt lat="36.822089845038654" lon="15.075821223367477"><ele>47.8</ele><time>2026-04-30T13:44:07.001Z</time></trkpt><trkpt lat="36.8221982528861" lon="15.075841039031692"><ele>47.599999999999994</ele><time>2026-04-30T13:44:08.001Z</time></trkpt><trkpt lat="36.82229895453541" lon="15.075858842607033"><ele>47.400000000000006</ele><time>2026-04-30T13:44:09.001Z</time></trkpt><trkpt lat="36.822388315710235" lon="15.075874766102718"><ele>47.2</ele><time>2026-04-30T13:44:10.001Z</time></trkpt><trkpt lat="36.822486252736574" lon="15.075889465285718"><ele>47.0</ele><time>2026-04-30T13:44:11.001Z</time></trkpt><trkpt lat="36.82258742287631" lon="15.075908433464203"><ele>46.83333333333333</ele><time>2026-04-30T13:44:12.001Z</time></trkpt><trkpt lat="36.822683481312424" lon="15.07592154611573"><ele>46.666666666666664</ele><time>2026-04-30T13:44:13.001Z</time></trkpt><trkpt lat="36.822769247401105" lon="15.075936308336793"><ele>46.5</ele><time>2026-04-30T13:44:14.001Z</time></trkpt><trkpt lat="36.82285555735708" lon="15.075950714617827"><ele>46.333333333333336</ele><time>2026-04-30T13:44:15.001Z</time></trkpt><trkpt lat="36.82294130434448" lon="15.075960426704532"><ele>46.16666666666667</ele><time>2026-04-30T13:44:16.001Z</time></trkpt><trkpt lat="36.823030111407384" lon="15.075961955164072"><ele>46.0</ele><time>2026-04-30T13:44:17.001Z</time></trkpt><trkpt lat="36.82312341575188" lon="15.07596586290518"><ele>46.0</ele><time>2026-04-30T13:44:18.001Z</time></trkpt><trkpt lat="36.82321811862502" lon="15.075975066885494"><ele>46.0</ele><time>2026-04-30T13:44:19.001Z</time></trkpt><trkpt lat="36.823317434028894" lon="15.07598022743444"><ele>46.0</ele><time>2026-04-30T13:44:20.001Z</time></trkpt><trkpt lat="36.82342391662363" lon="15.075987033343917"><ele>46.0</ele><time>2026-04-30T13:44:21.001Z</time></trkpt><trkpt lat="36.82354171398464" lon="15.075998430108855"><ele>46.0</ele><time>2026-04-30T13:44:22.001Z</time></trkpt><trkpt lat="36.82366693379689" lon="15.076001592887442"><ele>44.5</ele><time>2026-04-30T13:44:23.001Z</time></trkpt><trkpt lat="36.82379256664647" lon="15.076003857993225"><ele>43.0</ele><time>2026-04-30T13:44:24.001Z</time></trkpt><trkpt lat="36.82391875309506" lon="15.076008069012115"><ele>41.5</ele><time>2026-04-30T13:44:25.001Z</time></trkpt><trkpt lat="36.824038654513004" lon="15.076011414771658"><ele>40.0</ele><time>2026-04-30T13:44:26.001Z</time></trkpt><trkpt lat="36.824164166814505" lon="15.076005003192128"><ele>40.0</ele><time>2026-04-30T13:44:27.001Z</time></trkpt><trkpt lat="36.8242875298154" lon="15.075996212186343"><ele>40.0</ele><time>2026-04-30T13:44:28.001Z</time></trkpt><trkpt lat="36.82440892124915" lon="15.075989850588781"><ele>40.0</ele><time>2026-04-30T13:44:29.001Z</time></trkpt><trkpt lat="36.824534170878664" lon="15.07598847198015"><ele>40.0</ele><time>2026-04-30T13:44:30.001Z</time></trkpt><trkpt lat="36.82465193322668" lon="15.075986818590163"><ele>38.75</ele><time>2026-04-30T13:44:31.001Z</time></trkpt><trkpt lat="36.82476460361705" lon="15.075990313969076"><ele>37.5</ele><time>2026-04-30T13:44:32.001Z</time></trkpt><trkpt lat="36.82487426445093" lon="15.075990748756762"><ele>36.25</ele><time>2026-04-30T13:44:33.001Z</time></trkpt><trkpt lat="36.82498805384069" lon="15.07599864427104"><ele>35.0</ele><time>2026-04-30T13:44:34.001Z</time></trkpt><trkpt lat="36.82511161488957" lon="15.076018978830334"><ele>33.25</ele><time>2026-04-30T13:44:35.001Z</time></trkpt><trkpt lat="36.82524678402003" lon="15.07603933707175"><ele>31.5</ele><time>2026-04-30T13:44:36.001Z</time></trkpt><trkpt lat="36.82538477009941" lon="15.076055337329779"><ele>29.75</ele><time>2026-04-30T13:44:37.001Z</time></trkpt><trkpt lat="36.82552189708515" lon="15.076073999929015"><ele>28.0</ele><time>2026-04-30T13:44:38.001Z</time></trkpt><trkpt lat="36.8256496310613" lon="15.076093556188695"><ele>28.0</ele><time>2026-04-30T13:44:39.001Z</time></trkpt><trkpt lat="36.82578357447645" lon="15.076111956222944"><ele>28.0</ele><time>2026-04-30T13:44:40.001Z</time></trkpt><trkpt lat="36.825917633214665" lon="15.076128870041103"><ele>28.0</ele><time>2026-04-30T13:44:41Z</time></trkpt><trkpt lat="36.82604261653386" lon="15.076144844042123"><ele>28.0</ele><time>2026-04-30T13:44:42Z</time></trkpt><trkpt lat="36.82616823654441" lon="15.07616209598711"><ele>26.5</ele><time>2026-04-30T13:44:43Z</time></trkpt><trkpt lat="36.82629965266349" lon="15.076175483435838"><ele>25.0</ele><time>2026-04-30T13:44:44Z</time></trkpt><trkpt lat="36.82643499182354" lon="15.076201153168158"><ele>23.5</ele><time>2026-04-30T13:44:45Z</time></trkpt><trkpt lat="36.82657455359643" lon="15.076221249391654"><ele>22.0</ele><time>2026-04-30T13:44:46Z</time></trkpt><trkpt lat="36.82670472159503" lon="15.07623587730126"><ele>21.0</ele><time>2026-04-30T13:44:47Z</time></trkpt><trkpt lat="36.82683585009619" lon="15.076251403038325"><ele>20.0</ele><time>2026-04-30T13:44:48Z</time></trkpt><trkpt lat="36.826959048744996" lon="15.076272868899807"><ele>19.0</ele><time>2026-04-30T13:44:49Z</time></trkpt><trkpt lat="36.8270747716891" lon="15.076288376774658"><ele>18.0</ele><time>2026-04-30T13:44:50Z</time></trkpt><trkpt lat="36.827193950418945" lon="15.076301128664758"><ele>18.0</ele><time>2026-04-30T13:44:51Z</time></trkpt><trkpt lat="36.827324912076705" lon="15.076317701326754"><ele>18.0</ele><time>2026-04-30T13:44:52Z</time></trkpt><trkpt lat="36.82745847151332" lon="15.0763358943767"><ele>18.0</ele><time>2026-04-30T13:44:53Z</time></trkpt><trkpt lat="36.82758582500661" lon="15.07635150519795"><ele>18.0</ele><time>2026-04-30T13:44:54Z</time></trkpt><trkpt lat="36.827705173764315" lon="15.076367234372318"><ele>17.5</ele><time>2026-04-30T13:44:55Z</time></trkpt><trkpt lat="36.827826874431814" lon="15.076388660008742"><ele>17.0</ele><time>2026-04-30T13:44:56Z</time></trkpt><trkpt lat="36.827960465091216" lon="15.076411134203417"><ele>16.5</ele><time>2026-04-30T13:44:57Z</time></trkpt><trkpt lat="36.82809688807969" lon="15.076449406981464"><ele>16.0</ele><time>2026-04-30T13:44:58Z</time></trkpt><trkpt lat="36.828233566469976" lon="15.076504926962157"><ele>16.0</ele><time>2026-04-30T13:44:59Z</time></trkpt><trkpt lat="36.82837760695007" lon="15.07655164740294"><ele>16.0</ele><time>2026-04-30T13:45:00Z</time></trkpt><trkpt lat="36.82852225627459" lon="15.076598525216081"><ele>16.0</ele><time>2026-04-30T13:45:01Z</time></trkpt><trkpt lat="36.82865491982917" lon="15.076642890882775"><ele>16.0</ele><time>2026-04-30T13:45:02Z</time></trkpt><trkpt lat="36.82878278949287" lon="15.076689704711871"><ele>16.75</ele><time>2026-04-30T13:45:03Z</time></trkpt><trkpt lat="36.8289193818446" lon="15.07672433149726"><ele>17.5</ele><time>2026-04-30T13:45:04Z</time></trkpt><trkpt lat="36.82904916718138" lon="15.076762252134877"><ele>18.25</ele><time>2026-04-30T13:45:05Z</time></trkpt><trkpt lat="36.829189243386224" lon="15.076791557537685"><ele>19.0</ele><time>2026-04-30T13:45:06Z</time></trkpt><trkpt lat="36.82933316854261" lon="15.076823494331146"><ele>19.0</ele><time>2026-04-30T13:45:07Z</time></trkpt><trkpt lat="36.82946817143521" lon="15.076854975835426"><ele>19.0</ele><time>2026-04-30T13:45:08Z</time></trkpt><trkpt lat="36.82959604764002" lon="15.076888931183545"><ele>19.0</ele><time>2026-04-30T13:45:09Z</time></trkpt><trkpt lat="36.82972585740082" lon="15.076926598951376"><ele>19.0</ele><time>2026-04-30T13:45:10Z</time></trkpt><trkpt lat="36.829859382382566" lon="15.076961905639129"><ele>19.0</ele><time>2026-04-30T13:45:11Z</time></trkpt><trkpt lat="36.82999956625661" lon="15.077001876172549"><ele>19.0</ele><time>2026-04-30T13:45:12Z</time></trkpt><trkpt lat="36.83014268835167" lon="15.077047689404823"><ele>19.0</ele><time>2026-04-30T13:45:13Z</time></trkpt><trkpt lat="36.830288882349876" lon="15.077096125467895"><ele>19.0</ele><time>2026-04-30T13:45:14Z</time></trkpt><trkpt lat="36.83042906206467" lon="15.077146078668498"><ele>17.75</ele><time>2026-04-30T13:45:15Z</time></trkpt><trkpt lat="36.830556330944056" lon="15.077188393396813"><ele>16.5</ele><time>2026-04-30T13:45:16Z</time></trkpt><trkpt lat="36.83067289779018" lon="15.077227378414987"><ele>15.25</ele><time>2026-04-30T13:45:17Z</time></trkpt><trkpt lat="36.830780498533784" lon="15.077262389564881"><ele>14.0</ele><time>2026-04-30T13:45:18Z</time></trkpt><trkpt lat="36.83087689918776" lon="15.077291384825486"><ele>14.0</ele><time>2026-04-30T13:45:19Z</time></trkpt><trkpt lat="36.83096576061335" lon="15.077321491653523"><ele>13.999999999999998</ele><time>2026-04-30T13:45:20Z</time></trkpt><trkpt lat="36.83106180208838" lon="15.077359687678827"><ele>13.999999999999998</ele><time>2026-04-30T13:45:21Z</time></trkpt><trkpt lat="36.8311684716438" lon="15.077400995627702"><ele>14.0</ele><time>2026-04-30T13:45:22Z</time></trkpt><trkpt lat="36.8312860145482" lon="15.07744996538406"><ele>14.0</ele><time>2026-04-30T13:45:23Z</time></trkpt><trkpt lat="36.831404731620296" lon="15.077509169021727"><ele>14.75</ele><time>2026-04-30T13:45:24Z</time></trkpt><trkpt lat="36.831504475194805" lon="15.07756964525358"><ele>15.5</ele><time>2026-04-30T13:45:25Z</time></trkpt><trkpt lat="36.83160518411298" lon="15.077634893953732"><ele>16.25</ele><time>2026-04-30T13:45:26Z</time></trkpt><trkpt lat="36.83171230470825" lon="15.077698426084337"><ele>17.0</ele><time>2026-04-30T13:45:27Z</time></trkpt><trkpt lat="36.83182281908481" lon="15.077769481918871"><ele>17.0</ele><time>2026-04-30T13:45:28Z</time></trkpt><trkpt lat="36.83193642268044" lon="15.077843452257671"><ele>17.0</ele><time>2026-04-30T13:45:29Z</time></trkpt><trkpt lat="36.83204384858784" lon="15.077932526048615"><ele>17.0</ele><time>2026-04-30T13:45:30Z</time></trkpt><trkpt lat="36.832147427735045" lon="15.078034070426288"><ele>17.0</ele><time>2026-04-30T13:45:31Z</time></trkpt><trkpt lat="36.832251452688794" lon="15.078143474397038"><ele>17.0</ele><time>2026-04-30T13:45:32.001Z</time></trkpt><trkpt lat="36.832363606911606" lon="15.07826044785781"><ele>17.0</ele><time>2026-04-30T13:45:33.001Z</time></trkpt><trkpt lat="36.83247529353629" lon="15.078390133096473"><ele>17.0</ele><time>2026-04-30T13:45:34.001Z</time></trkpt><trkpt lat="36.83258826583517" lon="15.078522018408036"><ele>17.0</ele><time>2026-04-30T13:45:35.001Z</time></trkpt><trkpt lat="36.832710757803454" lon="15.078633141949558"><ele>17.0</ele><time>2026-04-30T13:45:36.001Z</time></trkpt><trkpt lat="36.832849257976825" lon="15.07872916463377"><ele>17.0</ele><time>2026-04-30T13:45:37.001Z</time></trkpt><trkpt lat="36.832982069428255" lon="15.078821883114427"><ele>17.0</ele><time>2026-04-30T13:45:38.001Z</time></trkpt><trkpt lat="36.83310377437282" lon="15.078905408729296"><ele>17.0</ele><time>2026-04-30T13:45:39.001Z</time></trkpt><trkpt lat="36.83321928475958" lon="15.07900146954713"><ele>17.0</ele><time>2026-04-30T13:45:40.001Z</time></trkpt><trkpt lat="36.83333632028351" lon="15.079096303501508"><ele>17.0</ele><time>2026-04-30T13:45:41.001Z</time></trkpt><trkpt lat="36.833452833822875" lon="15.079186495225894"><ele>17.0</ele><time>2026-04-30T13:45:42.001Z</time></trkpt><trkpt lat="36.83356298692105" lon="15.079278896077707"><ele>17.0</ele><time>2026-04-30T13:45:43.001Z</time></trkpt><trkpt lat="36.83367065721625" lon="15.079363938148537"><ele>17.0</ele><time>2026-04-30T13:45:44.001Z</time></trkpt><trkpt lat="36.83377824910372" lon="15.079442969824635"><ele>17.0</ele><time>2026-04-30T13:45:45.001Z</time></trkpt><trkpt lat="36.83389337748619" lon="15.079532408821487"><ele>17.0</ele><time>2026-04-30T13:45:46.001Z</time></trkpt><trkpt lat="36.83402037538044" lon="15.079636545306945"><ele>17.0</ele><time>2026-04-30T13:45:47.001Z</time></trkpt><trkpt lat="36.834157826190044" lon="15.079746974531904"><ele>17.0</ele><time>2026-04-30T13:45:48.001Z</time></trkpt><trkpt lat="36.834295690872125" lon="15.079870573330863"><ele>15.666666666666668</ele><time>2026-04-30T13:45:49.001Z</time></trkpt><trkpt lat="36.834436083464865" lon="15.08000104655307"><ele>14.333333333333332</ele><time>2026-04-30T13:45:50.001Z</time></trkpt><trkpt lat="36.834576410723265" lon="15.080134674059783"><ele>13.0</ele><time>2026-04-30T13:45:51.001Z</time></trkpt><trkpt lat="36.83472170854601" lon="15.080266329668111"><ele>13.0</ele><time>2026-04-30T13:45:52.001Z</time></trkpt><trkpt lat="36.834852012621695" lon="15.080381437294662"><ele>13.0</ele><time>2026-04-30T13:45:53.001Z</time></trkpt><trkpt lat="36.83497735863501" lon="15.08049362612131"><ele>13.0</ele><time>2026-04-30T13:45:54.001Z</time></trkpt><trkpt lat="36.83510529550019" lon="15.08061058401164"><ele>12.25</ele><time>2026-04-30T13:45:55.001Z</time></trkpt><trkpt lat="36.83522708990064" lon="15.0807184921156"><ele>11.5</ele><time>2026-04-30T13:45:56.001Z</time></trkpt><trkpt lat="36.83535344078828" lon="15.080822571026824"><ele>10.75</ele><time>2026-04-30T13:45:57.001Z</time></trkpt><trkpt lat="36.835474749712304" lon="15.08092554954875"><ele>10.0</ele><time>2026-04-30T13:45:58.001Z</time></trkpt><trkpt lat="36.83559092537843" lon="15.081029140210305"><ele>10.0</ele><time>2026-04-30T13:45:59.001Z</time></trkpt><trkpt lat="36.83570317529617" lon="15.081139345159679"><ele>10.0</ele><time>2026-04-30T13:46:00.001Z</time></trkpt><trkpt lat="36.835814779099714" lon="15.08123803768713"><ele>10.0</ele><time>2026-04-30T13:46:01.001Z</time></trkpt><trkpt lat="36.835915499334476" lon="15.081326563159307"><ele>10.0</ele><time>2026-04-30T13:46:02.001Z</time></trkpt><trkpt lat="36.83600174821563" lon="15.081404352018142"><ele>10.0</ele><time>2026-04-30T13:46:03.001Z</time></trkpt><trkpt lat="36.8360888417802" lon="15.081478253957767"><ele>10.0</ele><time>2026-04-30T13:46:04.001Z</time></trkpt><trkpt lat="36.836174657192004" lon="15.081548601451297"><ele>10.0</ele><time>2026-04-30T13:46:05.001Z</time></trkpt><trkpt lat="36.83625165789451" lon="15.08162050479526"><ele>10.0</ele><time>2026-04-30T13:46:06.001Z</time></trkpt><trkpt lat="36.83632667925166" lon="15.081696457702309"><ele>10.0</ele><time>2026-04-30T13:46:07.001Z</time></trkpt><trkpt lat="36.83639808641188" lon="15.08179458291472"><ele>10.0</ele><time>2026-04-30T13:46:08.001Z</time></trkpt><trkpt lat="36.836460009536495" lon="15.081921468856663"><ele>10.0</ele><time>2026-04-30T13:46:09.001Z</time></trkpt><trkpt lat="36.83649818511919" lon="15.082074680926592"><ele>10.0</ele><time>2026-04-30T13:46:10.001Z</time></trkpt><trkpt lat="36.836564851291485" lon="15.082220441536665"><ele>10.0</ele><time>2026-04-30T13:46:11.001Z</time></trkpt><trkpt lat="36.83661146153517" lon="15.082383179398372"><ele>9.75</ele><time>2026-04-30T13:46:12.001Z</time></trkpt><trkpt lat="36.83666085718193" lon="15.0825411390673"><ele>9.5</ele><time>2026-04-30T13:46:13.001Z</time></trkpt><trkpt lat="36.83671559068166" lon="15.082683658983747"><ele>9.25</ele><time>2026-04-30T13:46:14.001Z</time></trkpt><trkpt lat="36.836771515867426" lon="15.082813157291138"><ele>9.0</ele><time>2026-04-30T13:46:15.001Z</time></trkpt><trkpt lat="36.83684310207045" lon="15.0829400812213"><ele>9.0</ele><time>2026-04-30T13:46:16.001Z</time></trkpt><trkpt lat="36.836941665305744" lon="15.08305720453946"><ele>9.0</ele><time>2026-04-30T13:46:17.001Z</time></trkpt><trkpt lat="36.83706469785806" lon="15.08317441190059"><ele>9.0</ele><time>2026-04-30T13:46:18.001Z</time></trkpt><trkpt lat="36.83718933318142" lon="15.083281924002014"><ele>9.0</ele><time>2026-04-30T13:46:19.001Z</time></trkpt><trkpt lat="36.83731888231496" lon="15.083390025382437"><ele>9.0</ele><time>2026-04-30T13:46:20.001Z</time></trkpt><trkpt lat="36.837443587169126" lon="15.083493129701246"><ele>9.0</ele><time>2026-04-30T13:46:21.001Z</time></trkpt><trkpt lat="36.83755714863018" lon="15.083586649706215"><ele>9.0</ele><time>2026-04-30T13:46:22.001Z</time></trkpt><trkpt lat="36.83765883741386" lon="15.083671064924806"><ele>9.0</ele><time>2026-04-30T13:46:23.001Z</time></trkpt><trkpt lat="36.83774896312611" lon="15.083749866464304"><ele>9.0</ele><time>2026-04-30T13:46:24.001Z</time></trkpt><trkpt lat="36.8378337012622" lon="15.083819485777148"><ele>9.0</ele><time>2026-04-30T13:46:25.001Z</time></trkpt><trkpt lat="36.83791677150056" lon="15.083898064847475"><ele>9.0</ele><time>2026-04-30T13:46:26.001Z</time></trkpt><trkpt lat="36.83799362820135" lon="15.08396638508296"><ele>9.0</ele><time>2026-04-30T13:46:27.001Z</time></trkpt><trkpt lat="36.838056346943524" lon="15.084023709165223"><ele>9.0</ele><time>2026-04-30T13:46:28.001Z</time></trkpt><trkpt lat="36.83810670671418" lon="15.084081699097196"><ele>9.0</ele><time>2026-04-30T13:46:29.001Z</time></trkpt><trkpt lat="36.83815466991539" lon="15.08413757333888"><ele>9.0</ele><time>2026-04-30T13:46:30.001Z</time></trkpt><trkpt lat="36.83821877492845" lon="15.084221860477841"><ele>9.0</ele><time>2026-04-30T13:46:32.001Z</time></trkpt><trkpt lat="36.838290319747095" lon="15.084260882242779"><ele>9.0</ele><time>2026-04-30T13:46:35.001Z</time></trkpt><trkpt lat="36.83837571920088" lon="15.084168721327062"><ele>9.0</ele><time>2026-04-30T13:46:37.001Z</time></trkpt><trkpt lat="36.838430963150515" lon="15.084093797149265"><ele>9.0</ele><time>2026-04-30T13:46:38.001Z</time></trkpt><trkpt lat="36.83848667720892" lon="15.08402505590327"><ele>9.0</ele><time>2026-04-30T13:46:39.001Z</time></trkpt><trkpt lat="36.8385402688858" lon="15.083963039868873"><ele>9.285714285714286</ele><time>2026-04-30T13:46:40.001Z</time></trkpt><trkpt lat="36.838597285171815" lon="15.08389770413713"><ele>9.571428571428571</ele><time>2026-04-30T13:46:41.001Z</time></trkpt><trkpt lat="36.83865356462922" lon="15.083840931633421"><ele>9.857142857142858</ele><time>2026-04-30T13:46:42.001Z</time></trkpt><trkpt lat="36.8387026254147" lon="15.083784395848774"><ele>10.142857142857142</ele><time>2026-04-30T13:46:43.001Z</time></trkpt><trkpt lat="36.838747635737434" lon="15.083723186087166"><ele>10.428571428571429</ele><time>2026-04-30T13:46:44.001Z</time></trkpt><trkpt lat="36.83879868384461" lon="15.08366214029251"><ele>10.714285714285715</ele><time>2026-04-30T13:46:45.001Z</time></trkpt><trkpt lat="36.83885488505415" lon="15.083598009516939"><ele>11.0</ele><time>2026-04-30T13:46:46.001Z</time></trkpt><trkpt lat="36.838908897662506" lon="15.083533518719468"><ele>11.0</ele><time>2026-04-30T13:46:47Z</time></trkpt><trkpt lat="36.838964917839775" lon="15.08346403548045"><ele>11.0</ele><time>2026-04-30T13:46:48Z</time></trkpt><trkpt lat="36.83902299463674" lon="15.083395064155244"><ele>11.0</ele><time>2026-04-30T13:46:49Z</time></trkpt><trkpt lat="36.839081171983025" lon="15.083330660209246"><ele>11.0</ele><time>2026-04-30T13:46:50Z</time></trkpt><trkpt lat="36.839133776010726" lon="15.08327013054493"><ele>11.0</ele><time>2026-04-30T13:46:51Z</time></trkpt><trkpt lat="36.83918491674648" lon="15.083211469297458"><ele>11.0</ele><time>2026-04-30T13:46:52Z</time></trkpt><trkpt lat="36.83923596319349" lon="15.083156985545822"><ele>11.0</ele><time>2026-04-30T13:46:53Z</time></trkpt><trkpt lat="36.83928231170291" lon="15.083101941948696"><ele>10.666666666666666</ele><time>2026-04-30T13:46:54Z</time></trkpt><trkpt lat="36.83937007072582" lon="15.08298496272461"><ele>10.333333333333332</ele><time>2026-04-30T13:46:56Z</time></trkpt><trkpt lat="36.839416662219996" lon="15.082921119925222"><ele>10.0</ele><time>2026-04-30T13:46:57Z</time></trkpt><trkpt lat="36.839459187175194" lon="15.082847024191596"><ele>9.666666666666666</ele><time>2026-04-30T13:46:58Z</time></trkpt><trkpt lat="36.8395164529807" lon="15.082784518608314"><ele>9.333333333333334</ele><time>2026-04-30T13:46:59Z</time></trkpt><trkpt lat="36.83954335190391" lon="15.082689500821122"><ele>9.0</ele><time>2026-04-30T13:47:00Z</time></trkpt><trkpt lat="36.83959092248923" lon="15.082608377286977"><ele>9.0</ele><time>2026-04-30T13:47:01Z</time></trkpt><trkpt lat="36.83963877592058" lon="15.082536174309297"><ele>9.0</ele><time>2026-04-30T13:47:02Z</time></trkpt><trkpt lat="36.83970678815202" lon="15.082493975282434"><ele>9.0</ele><time>2026-04-30T13:47:03Z</time></trkpt><trkpt lat="36.839768955676355" lon="15.082460693960842"><ele>9.0</ele><time>2026-04-30T13:47:04Z</time></trkpt><trkpt lat="36.83984133035543" lon="15.0824208115697"><ele>9.0</ele><time>2026-04-30T13:47:05Z</time></trkpt><trkpt lat="36.839909807664284" lon="15.082364783881902"><ele>9.0</ele><time>2026-04-30T13:47:06Z</time></trkpt><trkpt lat="36.83998258636925" lon="15.082327526426896"><ele>9.0</ele><time>2026-04-30T13:47:07Z</time></trkpt><trkpt lat="36.84004818166155" lon="15.082287663888028"><ele>9.0</ele><time>2026-04-30T13:47:08Z</time></trkpt><trkpt lat="36.84012344768141" lon="15.082267769138202"><ele>9.0</ele><time>2026-04-30T13:47:09Z</time></trkpt><trkpt lat="36.840193398845784" lon="15.082212660156483"><ele>9.0</ele><time>2026-04-30T13:47:10Z</time></trkpt><trkpt lat="36.840284325867565" lon="15.082170739600386"><ele>9.0</ele><time>2026-04-30T13:47:11Z</time></trkpt><trkpt lat="36.840369110213594" lon="15.082118772027831"><ele>9.0</ele><time>2026-04-30T13:47:12Z</time></trkpt><trkpt lat="36.84043698034525" lon="15.08205720565594"><ele>9.166666666666666</ele><time>2026-04-30T13:47:13Z</time></trkpt><trkpt lat="36.840502231369555" lon="15.081980819528365"><ele>9.333333333333334</ele><time>2026-04-30T13:47:14Z</time></trkpt><trkpt lat="36.84058002550401" lon="15.081912087766051"><ele>9.5</ele><time>2026-04-30T13:47:15Z</time></trkpt><trkpt lat="36.84064761151417" lon="15.08184089329117"><ele>9.666666666666668</ele><time>2026-04-30T13:47:16Z</time></trkpt><trkpt lat="36.84070859311286" lon="15.081777548845785"><ele>9.833333333333334</ele><time>2026-04-30T13:47:17Z</time></trkpt><trkpt lat="36.840768767372175" lon="15.081721006590197"><ele>10.0</ele><time>2026-04-30T13:47:18Z</time></trkpt><trkpt lat="36.840828610463355" lon="15.081654746351012"><ele>9.833333333333334</ele><time>2026-04-30T13:47:19Z</time></trkpt><trkpt lat="36.840906998662426" lon="15.08159637220739"><ele>9.666666666666668</ele><time>2026-04-30T13:47:20Z</time></trkpt><trkpt lat="36.84097166044013" lon="15.081536387874074"><ele>9.5</ele><time>2026-04-30T13:47:21Z</time></trkpt><trkpt lat="36.841041160197356" lon="15.081479721413116"><ele>9.333333333333334</ele><time>2026-04-30T13:47:22Z</time></trkpt><trkpt lat="36.841113677776285" lon="15.081421384002102"><ele>9.166666666666666</ele><time>2026-04-30T13:47:23Z</time></trkpt><trkpt lat="36.841187988552626" lon="15.081359973339982"><ele>9.0</ele><time>2026-04-30T13:47:24Z</time></trkpt><trkpt lat="36.841263976426326" lon="15.081291253798655"><ele>9.0</ele><time>2026-04-30T13:47:25Z</time></trkpt><trkpt lat="36.84134079832127" lon="15.081218937916875"><ele>9.0</ele><time>2026-04-30T13:47:26Z</time></trkpt><trkpt lat="36.8414230483146" lon="15.081148313636247"><ele>9.0</ele><time>2026-04-30T13:47:27Z</time></trkpt><trkpt lat="36.841501902669286" lon="15.081084100786535"><ele>9.0</ele><time>2026-04-30T13:47:28Z</time></trkpt><trkpt lat="36.84157475340395" lon="15.081036735366684"><ele>9.0</ele><time>2026-04-30T13:47:29Z</time></trkpt><trkpt lat="36.84163666307504" lon="15.081001246023359"><ele>9.0</ele><time>2026-04-30T13:47:30Z</time></trkpt><trkpt lat="36.8416964925708" lon="15.080964721762637"><ele>9.0</ele><time>2026-04-30T13:47:31Z</time></trkpt><trkpt lat="36.84176350657913" lon="15.080915092786944"><ele>9.0</ele><time>2026-04-30T13:47:33Z</time></trkpt><trkpt lat="36.84183600180176" lon="15.08086691392674"><ele>9.0</ele><time>2026-04-30T13:47:36Z</time></trkpt><trkpt lat="36.84189850458008" lon="15.08084255106235"><ele>9.0</ele><time>2026-04-30T13:47:41Z</time></trkpt><trkpt lat="36.84181484545946" lon="15.08087524204994"><ele>9.0</ele><time>2026-04-30T13:48:01.001Z</time></trkpt><trkpt lat="36.841741997077115" lon="15.080913712938303"><ele>9.0</ele><time>2026-04-30T13:48:04.001Z</time></trkpt><trkpt lat="36.84165147701041" lon="15.080988481793135"><ele>9.0</ele><time>2026-04-30T13:48:19.001Z</time></trkpt><trkpt lat="36.84156236087655" lon="15.081049922084564"><ele>9.0</ele><time>2026-04-30T13:48:21.001Z</time></trkpt><trkpt lat="36.84145111500323" lon="15.081127581572462"><ele>9.0</ele><time>2026-04-30T13:48:23.001Z</time></trkpt><trkpt lat="36.841382681257684" lon="15.081178272071316"><ele>9.0</ele><time>2026-04-30T13:48:24.001Z</time></trkpt><trkpt lat="36.84132668549008" lon="15.081226990520205"><ele>9.0</ele><time>2026-04-30T13:48:25.001Z</time></trkpt><trkpt lat="36.84127218032495" lon="15.08127584371202"><ele>9.0</ele><time>2026-04-30T13:48:26.001Z</time></trkpt><trkpt lat="36.84121294353282" lon="15.081323550733213"><ele>9.0</ele><time>2026-04-30T13:48:27.001Z</time></trkpt><trkpt lat="36.841157759293914" lon="15.08137333476792"><ele>9.0</ele><time>2026-04-30T13:48:28.001Z</time></trkpt><trkpt lat="36.841098733073466" lon="15.08143610230069"><ele>9.0</ele><time>2026-04-30T13:48:29.001Z</time></trkpt><trkpt lat="36.84102812628601" lon="15.081501726845822"><ele>9.0</ele><time>2026-04-30T13:48:30.001Z</time></trkpt><trkpt lat="36.84095764511829" lon="15.08155260171901"><ele>9.0</ele><time>2026-04-30T13:48:31.001Z</time></trkpt><trkpt lat="36.84089923144235" lon="15.08159737893828"><ele>9.0</ele><time>2026-04-30T13:48:32.001Z</time></trkpt><trkpt lat="36.84081235690616" lon="15.081682352992651"><ele>9.166666666666666</ele><time>2026-04-30T13:48:34.001Z</time></trkpt><trkpt lat="36.840714490141494" lon="15.081745891575007"><ele>9.333333333333334</ele><time>2026-04-30T13:48:36.001Z</time></trkpt><trkpt lat="36.84062632896698" lon="15.081839588902836"><ele>9.5</ele><time>2026-04-30T13:48:38.001Z</time></trkpt><trkpt lat="36.840576062580155" lon="15.081893927066442"><ele>9.666666666666668</ele><time>2026-04-30T13:48:39.001Z</time></trkpt><trkpt lat="36.8405200487567" lon="15.081954919076672"><ele>9.833333333333334</ele><time>2026-04-30T13:48:40.001Z</time></trkpt><trkpt lat="36.840463941358294" lon="15.082017407507237"><ele>10.0</ele><time>2026-04-30T13:48:41.001Z</time></trkpt><trkpt lat="36.840414282046986" lon="15.082074610930018"><ele>10.0</ele><time>2026-04-30T13:48:42.001Z</time></trkpt><trkpt lat="36.84035923198739" lon="15.082127222143724"><ele>10.0</ele><time>2026-04-30T13:48:43.001Z</time></trkpt><trkpt lat="36.84030708539106" lon="15.082201306054488"><ele>10.0</ele><time>2026-04-30T13:48:44.001Z</time></trkpt><trkpt lat="36.84022733434355" lon="15.082252085954313"><ele>10.0</ele><time>2026-04-30T13:48:45.001Z</time></trkpt><trkpt lat="36.84013548285556" lon="15.082283368892794"><ele>10.0</ele><time>2026-04-30T13:48:46.001Z</time></trkpt><trkpt lat="36.840041255517725" lon="15.082325676563066"><ele>10.0</ele><time>2026-04-30T13:48:47.001Z</time></trkpt><trkpt lat="36.83993703746084" lon="15.082349430495228"><ele>9.8</ele><time>2026-04-30T13:48:48.001Z</time></trkpt><trkpt lat="36.83983324435443" lon="15.082403053449424"><ele>9.6</ele><time>2026-04-30T13:48:49.001Z</time></trkpt><trkpt lat="36.839742057965196" lon="15.082457304450918"><ele>9.4</ele><time>2026-04-30T13:48:50.001Z</time></trkpt><trkpt lat="36.83966612817132" lon="15.082518245921692"><ele>9.2</ele><time>2026-04-30T13:48:51.001Z</time></trkpt><trkpt lat="36.83960140951939" lon="15.082587050163108"><ele>9.0</ele><time>2026-04-30T13:48:52.001Z</time></trkpt><trkpt lat="36.83955512106123" lon="15.08266886361924"><ele>9.0</ele><time>2026-04-30T13:48:53Z</time></trkpt><trkpt lat="36.83951118110385" lon="15.082767252731283"><ele>9.0</ele><time>2026-04-30T13:48:54Z</time></trkpt><trkpt lat="36.83946429241116" lon="15.082866433415376"><ele>9.0</ele><time>2026-04-30T13:48:55Z</time></trkpt><trkpt lat="36.83940199232362" lon="15.082967520586246"><ele>9.0</ele><time>2026-04-30T13:48:56Z</time></trkpt><trkpt lat="36.83930553337265" lon="15.08304346174115"><ele>9.0</ele><time>2026-04-30T13:48:57Z</time></trkpt><trkpt lat="36.83922722578036" lon="15.083147002533835"><ele>9.4</ele><time>2026-04-30T13:48:58Z</time></trkpt><trkpt lat="36.839147840383085" lon="15.083243191881998"><ele>9.8</ele><time>2026-04-30T13:48:59Z</time></trkpt><trkpt lat="36.83906758573193" lon="15.083336249430333"><ele>10.200000000000001</ele><time>2026-04-30T13:49:00Z</time></trkpt><trkpt lat="36.83898832114032" lon="15.083425839563782"><ele>10.600000000000001</ele><time>2026-04-30T13:49:01Z</time></trkpt><trkpt lat="36.83890618678802" lon="15.083518673225033"><ele>11.0</ele><time>2026-04-30T13:49:02Z</time></trkpt><trkpt lat="36.83882500965922" lon="15.083610425101396"><ele>11.0</ele><time>2026-04-30T13:49:03Z</time></trkpt><trkpt lat="36.83874018901347" lon="15.083707462593301"><ele>11.0</ele><time>2026-04-30T13:49:04Z</time></trkpt><trkpt lat="36.83865947897948" lon="15.083803363268201"><ele>11.0</ele><time>2026-04-30T13:49:05Z</time></trkpt><trkpt lat="36.83858160667195" lon="15.083895891992094"><ele>11.0</ele><time>2026-04-30T13:49:06Z</time></trkpt><trkpt lat="36.83851390782482" lon="15.083976332610321"><ele>11.0</ele><time>2026-04-30T13:49:07Z</time></trkpt><trkpt lat="36.83845290210098" lon="15.084046047386682"><ele>11.0</ele><time>2026-04-30T13:49:08Z</time></trkpt><trkpt lat="36.83839242745827" lon="15.0841176287257"><ele>11.0</ele><time>2026-04-30T13:49:09Z</time></trkpt><trkpt lat="36.83835555895555" lon="15.084183993874476"><ele>11.0</ele><time>2026-04-30T13:49:10Z</time></trkpt><trkpt lat="36.838291421532304" lon="15.084245750243122"><ele>11.0</ele><time>2026-04-30T13:49:12Z</time></trkpt><trkpt lat="36.83829619200789" lon="15.084339180815979"><ele>11.0</ele><time>2026-04-30T13:49:15Z</time></trkpt><trkpt lat="36.838370526393625" lon="15.08434459057428"><ele>11.0</ele><time>2026-04-30T13:49:20Z</time></trkpt><trkpt lat="36.83844588608501" lon="15.084305947998152"><ele>11.0</ele><time>2026-04-30T13:49:21Z</time></trkpt><trkpt lat="36.83852188504065" lon="15.084221342931231"><ele>11.0</ele><time>2026-04-30T13:49:22Z</time></trkpt><trkpt lat="36.838607555421014" lon="15.084121398514371"><ele>11.0</ele><time>2026-04-30T13:49:23Z</time></trkpt><trkpt lat="36.83870630085092" lon="15.084021181544534"><ele>11.0</ele><time>2026-04-30T13:49:24Z</time></trkpt><trkpt lat="36.838819653403064" lon="15.08390916319284"><ele>11.0</ele><time>2026-04-30T13:49:25Z</time></trkpt><trkpt lat="36.83894595862374" lon="15.083782420767253"><ele>11.0</ele><time>2026-04-30T13:49:26Z</time></trkpt><trkpt lat="36.8390774012903" lon="15.083653146972157"><ele>11.0</ele><time>2026-04-30T13:49:27Z</time></trkpt><trkpt lat="36.83919331308154" lon="15.083532599866944"><ele>11.0</ele><time>2026-04-30T13:49:28Z</time></trkpt><trkpt lat="36.839300293071354" lon="15.083425441228759"><ele>11.0</ele><time>2026-04-30T13:49:29Z</time></trkpt><trkpt lat="36.839410242956866" lon="15.0833188126364"><ele>11.0</ele><time>2026-04-30T13:49:30Z</time></trkpt><trkpt lat="36.83951743554324" lon="15.08321112164437"><ele>11.0</ele><time>2026-04-30T13:49:31Z</time></trkpt><trkpt lat="36.83961335825293" lon="15.083112195452225"><ele>10.5</ele><time>2026-04-30T13:49:32Z</time></trkpt><trkpt lat="36.83970287774275" lon="15.08302204379511"><ele>10.0</ele><time>2026-04-30T13:49:33Z</time></trkpt><trkpt lat="36.83979040863659" lon="15.082933952853473"><ele>9.5</ele><time>2026-04-30T13:49:34Z</time></trkpt><trkpt lat="36.83988191548306" lon="15.082844696618107"><ele>9.0</ele><time>2026-04-30T13:49:35Z</time></trkpt><trkpt lat="36.839980885482355" lon="15.082744246920967"><ele>9.0</ele><time>2026-04-30T13:49:36Z</time></trkpt><trkpt lat="36.84007814241613" lon="15.082642415235366"><ele>9.0</ele><time>2026-04-30T13:49:37Z</time></trkpt><trkpt lat="36.84017024956744" lon="15.082546274985184"><ele>9.0</ele><time>2026-04-30T13:49:38Z</time></trkpt><trkpt lat="36.84026327988894" lon="15.08245248626604"><ele>9.0</ele><time>2026-04-30T13:49:39Z</time></trkpt><trkpt lat="36.84035123873986" lon="15.082364020384897"><ele>9.2</ele><time>2026-04-30T13:49:40Z</time></trkpt><trkpt lat="36.840438184702265" lon="15.082278750329671"><ele>9.4</ele><time>2026-04-30T13:49:41Z</time></trkpt><trkpt lat="36.840522361809334" lon="15.082194005135147"><ele>9.6</ele><time>2026-04-30T13:49:42Z</time></trkpt><trkpt lat="36.840609698971356" lon="15.082108239459384"><ele>9.8</ele><time>2026-04-30T13:49:43Z</time></trkpt><trkpt lat="36.84069156059855" lon="15.082024348246664"><ele>10.0</ele><time>2026-04-30T13:49:44Z</time></trkpt><trkpt lat="36.84076845855661" lon="15.081944406981258"><ele>10.0</ele><time>2026-04-30T13:49:45Z</time></trkpt><trkpt lat="36.840854353780536" lon="15.081853950169082"><ele>10.0</ele><time>2026-04-30T13:49:46Z</time></trkpt><trkpt lat="36.84095735024339" lon="15.081751041954105"><ele>10.0</ele><time>2026-04-30T13:49:47Z</time></trkpt><trkpt lat="36.841060248518126" lon="15.081657352349199"><ele>10.0</ele><time>2026-04-30T13:49:48Z</time></trkpt><trkpt lat="36.84116797130693" lon="15.08157119830381"><ele>9.75</ele><time>2026-04-30T13:49:49Z</time></trkpt><trkpt lat="36.84128450776189" lon="15.08148366207006"><ele>9.5</ele><time>2026-04-30T13:49:50Z</time></trkpt><trkpt lat="36.84140789010209" lon="15.08139751234491"><ele>9.25</ele><time>2026-04-30T13:49:51Z</time></trkpt><trkpt lat="36.841549616147134" lon="15.081306483428577"><ele>9.0</ele><time>2026-04-30T13:49:52Z</time></trkpt><trkpt lat="36.84170599062826" lon="15.081217275382777"><ele>9.0</ele><time>2026-04-30T13:49:53Z</time></trkpt><trkpt lat="36.84186756463903" lon="15.081136392260678"><ele>9.0</ele><time>2026-04-30T13:49:54Z</time></trkpt><trkpt lat="36.842034107665626" lon="15.081059552556532"><ele>9.0</ele><time>2026-04-30T13:49:55Z</time></trkpt><trkpt lat="36.84219671770869" lon="15.08099987191994"><ele>9.0</ele><time>2026-04-30T13:49:56Z</time></trkpt><trkpt lat="36.84236095935876" lon="15.08095120749858"><ele>9.0</ele><time>2026-04-30T13:49:57Z</time></trkpt><trkpt lat="36.84252721532991" lon="15.080900355284516"><ele>9.0</ele><time>2026-04-30T13:49:58Z</time></trkpt><trkpt lat="36.84270106227807" lon="15.080844719286759"><ele>9.0</ele><time>2026-04-30T13:49:59Z</time></trkpt><trkpt lat="36.84288970403164" lon="15.080789201523876"><ele>9.0</ele><time>2026-04-30T13:50:00Z</time></trkpt><trkpt lat="36.84307442900488" lon="15.080729976512009"><ele>9.0</ele><time>2026-04-30T13:50:01Z</time></trkpt><trkpt lat="36.84326107405436" lon="15.080671555144747"><ele>9.0</ele><time>2026-04-30T13:50:02Z</time></trkpt><trkpt lat="36.843434337435696" lon="15.08061692841875"><ele>9.0</ele><time>2026-04-30T13:50:03.001Z</time></trkpt><trkpt lat="36.84360804720586" lon="15.08056554007393"><ele>9.0</ele><time>2026-04-30T13:50:04.001Z</time></trkpt><trkpt lat="36.8437735838903" lon="15.08051674768178"><ele>9.333333333333334</ele><time>2026-04-30T13:50:05.001Z</time></trkpt><trkpt lat="36.843937101024444" lon="15.080467933224858"><ele>9.666666666666668</ele><time>2026-04-30T13:50:06.001Z</time></trkpt><trkpt lat="36.844110948272665" lon="15.08042737571445"><ele>10.0</ele><time>2026-04-30T13:50:07.001Z</time></trkpt><trkpt lat="36.844289081227075" lon="15.080396421388542"><ele>10.0</ele><time>2026-04-30T13:50:08.001Z</time></trkpt><trkpt lat="36.84445465291906" lon="15.080384213997444"><ele>10.0</ele><time>2026-04-30T13:50:09.001Z</time></trkpt><trkpt lat="36.84460936850686" lon="15.08038247666729"><ele>10.0</ele><time>2026-04-30T13:50:10.001Z</time></trkpt><trkpt lat="36.8447651762152" lon="15.080385669991117"><ele>10.0</ele><time>2026-04-30T13:50:11.001Z</time></trkpt><trkpt lat="36.84491866324379" lon="15.080401048058505"><ele>10.0</ele><time>2026-04-30T13:50:12.001Z</time></trkpt><trkpt lat="36.84505896564824" lon="15.08042044813244"><ele>10.0</ele><time>2026-04-30T13:50:13.001Z</time></trkpt><trkpt lat="36.84519302824506" lon="15.080438632152212"><ele>10.0</ele><time>2026-04-30T13:50:14.001Z</time></trkpt><trkpt lat="36.845325628128016" lon="15.080452184482557"><ele>10.0</ele><time>2026-04-30T13:50:15.001Z</time></trkpt><trkpt lat="36.84547022439686" lon="15.080467432495615"><ele>10.0</ele><time>2026-04-30T13:50:16.001Z</time></trkpt><trkpt lat="36.845635543225626" lon="15.080485577346213"><ele>10.0</ele><time>2026-04-30T13:50:17.001Z</time></trkpt><trkpt lat="36.84582036704325" lon="15.080497872192813"><ele>9.333333333333334</ele><time>2026-04-30T13:50:18.001Z</time></trkpt><trkpt lat="36.84599745226577" lon="15.080512072563241"><ele>8.666666666666666</ele><time>2026-04-30T13:50:19.001Z</time></trkpt><trkpt lat="36.8461499958443" lon="15.080531066450833"><ele>8.0</ele><time>2026-04-30T13:50:20.001Z</time></trkpt><trkpt lat="36.84629015197668" lon="15.080548950573224"><ele>8.0</ele><time>2026-04-30T13:50:21.001Z</time></trkpt><trkpt lat="36.84642727766513" lon="15.08056852040134"><ele>8.0</ele><time>2026-04-30T13:50:22.001Z</time></trkpt><trkpt lat="36.84655728009855" lon="15.080585962396253"><ele>8.0</ele><time>2026-04-30T13:50:23.001Z</time></trkpt><trkpt lat="36.846669122462956" lon="15.080605602905596"><ele>8.0</ele><time>2026-04-30T13:50:24.001Z</time></trkpt><trkpt lat="36.84677275095239" lon="15.080627921749423"><ele>8.166666666666666</ele><time>2026-04-30T13:50:25.001Z</time></trkpt><trkpt lat="36.846863163462416" lon="15.08065650034788"><ele>8.333333333333332</ele><time>2026-04-30T13:50:26.001Z</time></trkpt><trkpt lat="36.84694095078976" lon="15.080692292723175"><ele>8.5</ele><time>2026-04-30T13:50:27.001Z</time></trkpt><trkpt lat="36.847014268748566" lon="15.080744915704704"><ele>8.666666666666666</ele><time>2026-04-30T13:50:28.001Z</time></trkpt><trkpt lat="36.84707834752471" lon="15.080822293801505"><ele>8.833333333333334</ele><time>2026-04-30T13:50:29.001Z</time></trkpt><trkpt lat="36.84714053536459" lon="15.080914034629034"><ele>9.0</ele><time>2026-04-30T13:50:30.001Z</time></trkpt><trkpt lat="36.84721003925139" lon="15.08098114962037"><ele>9.0</ele><time>2026-04-30T13:50:31.001Z</time></trkpt><trkpt lat="36.84729611228769" lon="15.081022283515852"><ele>9.0</ele><time>2026-04-30T13:50:32.001Z</time></trkpt><trkpt lat="36.84737274576185" lon="15.081061066002206"><ele>9.0</ele><time>2026-04-30T13:50:33.001Z</time></trkpt><trkpt lat="36.84745640180013" lon="15.08100854213915"><ele>9.0</ele><time>2026-04-30T13:50:34.001Z</time></trkpt><trkpt lat="36.84753292933139" lon="15.080958713108405"><ele>9.0</ele><time>2026-04-30T13:50:35.001Z</time></trkpt><trkpt lat="36.84761732196776" lon="15.080884345690873"><ele>9.0</ele><time>2026-04-30T13:50:36.001Z</time></trkpt><trkpt lat="36.847710284854315" lon="15.080805977814395"><ele>9.0</ele><time>2026-04-30T13:50:37.001Z</time></trkpt><trkpt lat="36.84781200165753" lon="15.08075141305847"><ele>9.0</ele><time>2026-04-30T13:50:38.001Z</time></trkpt><trkpt lat="36.84794023346425" lon="15.080727766620258"><ele>9.0</ele><time>2026-04-30T13:50:39.001Z</time></trkpt><trkpt lat="36.8480919067015" lon="15.080740303689762"><ele>9.0</ele><time>2026-04-30T13:50:40.001Z</time></trkpt><trkpt lat="36.848251568609705" lon="15.08076695455866"><ele>9.0</ele><time>2026-04-30T13:50:41.001Z</time></trkpt><trkpt lat="36.84841257779665" lon="15.080793884017124"><ele>9.0</ele><time>2026-04-30T13:50:42.001Z</time></trkpt><trkpt lat="36.84856816729058" lon="15.080824431890537"><ele>9.333333333333334</ele><time>2026-04-30T13:50:43.001Z</time></trkpt><trkpt lat="36.848716445720555" lon="15.080867523201423"><ele>9.666666666666668</ele><time>2026-04-30T13:50:44.001Z</time></trkpt><trkpt lat="36.84885678999058" lon="15.08092899190581"><ele>10.0</ele><time>2026-04-30T13:50:45.001Z</time></trkpt><trkpt lat="36.84899972209367" lon="15.081009903531978"><ele>10.0</ele><time>2026-04-30T13:50:46.001Z</time></trkpt><trkpt lat="36.84914168789098" lon="15.081115104316698"><ele>10.0</ele><time>2026-04-30T13:50:47.001Z</time></trkpt><trkpt lat="36.84927087355378" lon="15.081237427614196"><ele>10.0</ele><time>2026-04-30T13:50:48.001Z</time></trkpt><trkpt lat="36.84939251455613" lon="15.081384357689412"><ele>10.666666666666668</ele><time>2026-04-30T13:50:49.001Z</time></trkpt><trkpt lat="36.84949478681176" lon="15.081545598448658"><ele>11.333333333333334</ele><time>2026-04-30T13:50:50.001Z</time></trkpt><trkpt lat="36.84959536467391" lon="15.081720870641137"><ele>12.0</ele><time>2026-04-30T13:50:51.001Z</time></trkpt><trkpt lat="36.84969036406516" lon="15.081894271050912"><ele>12.333333333333332</ele><time>2026-04-30T13:50:52.001Z</time></trkpt><trkpt lat="36.84978368640189" lon="15.082070309350927"><ele>12.666666666666666</ele><time>2026-04-30T13:50:53.001Z</time></trkpt><trkpt lat="36.84988241171649" lon="15.08225425422334"><ele>13.0</ele><time>2026-04-30T13:50:54.001Z</time></trkpt><trkpt lat="36.849989897708625" lon="15.082439615073715"><ele>13.333333333333332</ele><time>2026-04-30T13:50:55.001Z</time></trkpt><trkpt lat="36.85009284596464" lon="15.082622806850404"><ele>13.666666666666668</ele><time>2026-04-30T13:50:56.001Z</time></trkpt><trkpt lat="36.850197986727636" lon="15.08280914229248"><ele>14.0</ele><time>2026-04-30T13:50:57.001Z</time></trkpt><trkpt lat="36.85029974145485" lon="15.082983467002322"><ele>17.666666666666668</ele><time>2026-04-30T13:50:58.001Z</time></trkpt><trkpt lat="36.8503996267186" lon="15.083139247379918"><ele>21.333333333333336</ele><time>2026-04-30T13:50:59Z</time></trkpt><trkpt lat="36.850511841693944" lon="15.083285444426183"><ele>25.0</ele><time>2026-04-30T13:51:00Z</time></trkpt><trkpt lat="36.850636397630225" lon="15.083412873319922"><ele>25.0</ele><time>2026-04-30T13:51:01Z</time></trkpt><trkpt lat="36.850766793338366" lon="15.083528303690693"><ele>25.0</ele><time>2026-04-30T13:51:02Z</time></trkpt><trkpt lat="36.85090748787476" lon="15.083633658226384"><ele>25.0</ele><time>2026-04-30T13:51:03Z</time></trkpt><trkpt lat="36.85104368128843" lon="15.083699061498683"><ele>27.666666666666668</ele><time>2026-04-30T13:51:04Z</time></trkpt><trkpt lat="36.85119119771527" lon="15.083754899085152"><ele>30.333333333333336</ele><time>2026-04-30T13:51:05Z</time></trkpt><trkpt lat="36.851347819424674" lon="15.083803143857763"><ele>33.0</ele><time>2026-04-30T13:51:06Z</time></trkpt><trkpt lat="36.85150471395791" lon="15.083836233976811"><ele>33.0</ele><time>2026-04-30T13:51:07Z</time></trkpt><trkpt lat="36.851656814202876" lon="15.083852563614762"><ele>33.0</ele><time>2026-04-30T13:51:08Z</time></trkpt><trkpt lat="36.851804131918065" lon="15.083870872324123"><ele>33.0</ele><time>2026-04-30T13:51:09Z</time></trkpt><trkpt lat="36.85194914380207" lon="15.083895468961742"><ele>33.0</ele><time>2026-04-30T13:51:10Z</time></trkpt><trkpt lat="36.85209746186679" lon="15.083927686668643"><ele>34.75</ele><time>2026-04-30T13:51:11Z</time></trkpt><trkpt lat="36.852243897706146" lon="15.083952124982378"><ele>36.5</ele><time>2026-04-30T13:51:12Z</time></trkpt><trkpt lat="36.852389595583844" lon="15.083961842762395"><ele>38.25</ele><time>2026-04-30T13:51:13Z</time></trkpt><trkpt lat="36.85250444612539" lon="15.083947390244123"><ele>40.0</ele><time>2026-04-30T13:51:14Z</time></trkpt><trkpt lat="36.85264220473677" lon="15.083922928615602"><ele>41.0</ele><time>2026-04-30T13:51:15Z</time></trkpt><trkpt lat="36.852779171074495" lon="15.083869803098848"><ele>42.0</ele><time>2026-04-30T13:51:16Z</time></trkpt><trkpt lat="36.852908380021574" lon="15.083786604221107"><ele>43.0</ele><time>2026-04-30T13:51:17Z</time></trkpt><trkpt lat="36.853033921577314" lon="15.083682406244595"><ele>44.0</ele><time>2026-04-30T13:51:18Z</time></trkpt><trkpt lat="36.85315214216118" lon="15.083565324075202"><ele>44.0</ele><time>2026-04-30T13:51:19Z</time></trkpt><trkpt lat="36.8532672148073" lon="15.083441099895605"><ele>44.0</ele><time>2026-04-30T13:51:20Z</time></trkpt><trkpt lat="36.853367952320056" lon="15.083325387458112"><ele>44.0</ele><time>2026-04-30T13:51:21Z</time></trkpt><trkpt lat="36.85346161127986" lon="15.083233552683954"><ele>44.0</ele><time>2026-04-30T13:51:22Z</time></trkpt><trkpt lat="36.85355151781523" lon="15.08315706756437"><ele>45.2</ele><time>2026-04-30T13:51:23Z</time></trkpt><trkpt lat="36.85363468240887" lon="15.083083586557022"><ele>46.400000000000006</ele><time>2026-04-30T13:51:24Z</time></trkpt><trkpt lat="36.853716691573794" lon="15.083009533524946"><ele>47.6</ele><time>2026-04-30T13:51:25Z</time></trkpt><trkpt lat="36.85380395786964" lon="15.082940482572077"><ele>48.8</ele><time>2026-04-30T13:51:26Z</time></trkpt><trkpt lat="36.85389457378052" lon="15.08288417950656"><ele>50.0</ele><time>2026-04-30T13:51:27Z</time></trkpt><trkpt lat="36.85398192830534" lon="15.082836102169559"><ele>50.00000000000001</ele><time>2026-04-30T13:51:28Z</time></trkpt><trkpt lat="36.85406361065175" lon="15.082796142937285"><ele>50.0</ele><time>2026-04-30T13:51:29Z</time></trkpt><trkpt lat="36.854141663963425" lon="15.082755009585243"><ele>50.0</ele><time>2026-04-30T13:51:30Z</time></trkpt><trkpt lat="36.854216099508015" lon="15.082716014454913"><ele>50.0</ele><time>2026-04-30T13:51:31Z</time></trkpt><trkpt lat="36.85429816167929" lon="15.082679891054939"><ele>50.00000000000001</ele><time>2026-04-30T13:51:32Z</time></trkpt><trkpt lat="36.85438014676528" lon="15.082644288578246"><ele>50.0</ele><time>2026-04-30T13:51:33Z</time></trkpt><trkpt lat="36.854455919721886" lon="15.082610062452604"><ele>50.6</ele><time>2026-04-30T13:51:34Z</time></trkpt><trkpt lat="36.85453761285307" lon="15.08257373417712"><ele>51.2</ele><time>2026-04-30T13:51:35Z</time></trkpt><trkpt lat="36.85462455845444" lon="15.082536150096391"><ele>51.8</ele><time>2026-04-30T13:51:36Z</time></trkpt><trkpt lat="36.85472408526797" lon="15.082490291811053"><ele>52.4</ele><time>2026-04-30T13:51:37Z</time></trkpt><trkpt lat="36.85482464791882" lon="15.082422568737899"><ele>53.0</ele><time>2026-04-30T13:51:38Z</time></trkpt><trkpt lat="36.85491269435092" lon="15.08233724126279"><ele>53.0</ele><time>2026-04-30T13:51:39Z</time></trkpt><trkpt lat="36.85499205211631" lon="15.082241684576617"><ele>53.0</ele><time>2026-04-30T13:51:40Z</time></trkpt><trkpt lat="36.855071000986825" lon="15.082130382138292"><ele>53.0</ele><time>2026-04-30T13:51:41Z</time></trkpt><trkpt lat="36.85515065268157" lon="15.081999962345103"><ele>53.0</ele><time>2026-04-30T13:51:42Z</time></trkpt><trkpt lat="36.855228463813965" lon="15.081864543988015"><ele>55.2</ele><time>2026-04-30T13:51:43Z</time></trkpt><trkpt lat="36.855304042581544" lon="15.081755235065607"><ele>57.4</ele><time>2026-04-30T13:51:44Z</time></trkpt><trkpt lat="36.85538404525956" lon="15.081666970336723"><ele>59.60000000000001</ele><time>2026-04-30T13:51:45Z</time></trkpt><trkpt lat="36.855471985912075" lon="15.08158337851389"><ele>61.800000000000004</ele><time>2026-04-30T13:51:46Z</time></trkpt><trkpt lat="36.855553824406236" lon="15.081512422151965"><ele>64.0</ele><time>2026-04-30T13:51:47Z</time></trkpt><trkpt lat="36.85562862729779" lon="15.081456894581166"><ele>63.99999999999999</ele><time>2026-04-30T13:51:48Z</time></trkpt><trkpt lat="36.85569562328773" lon="15.081411345528222"><ele>64.0</ele><time>2026-04-30T13:51:49Z</time></trkpt><trkpt lat="36.85575020141813" lon="15.081371970193763"><ele>64.0</ele><time>2026-04-30T13:51:50Z</time></trkpt><trkpt lat="36.855865234193345" lon="15.081325143072664"><ele>64.0</ele><time>2026-04-30T13:51:52Z</time></trkpt><trkpt lat="36.85594132633293" lon="15.081316704591972"><ele>63.99999999999999</ele><time>2026-04-30T13:51:53Z</time></trkpt><trkpt lat="36.85602095887557" lon="15.08131396838497"><ele>64.0</ele><time>2026-04-30T13:51:54Z</time></trkpt><trkpt lat="36.85609552591062" lon="15.081300748300649"><ele>64.0</ele><time>2026-04-30T13:51:55Z</time></trkpt><trkpt lat="36.85615043991532" lon="15.081255971093894"><ele>63.99999999999999</ele><time>2026-04-30T13:51:56Z</time></trkpt><trkpt lat="36.85618270789464" lon="15.081177310470657"><ele>64.0</ele><time>2026-04-30T13:51:57Z</time></trkpt><trkpt lat="36.856188627231816" lon="15.081089361571868"><ele>64.0</ele><time>2026-04-30T13:51:58Z</time></trkpt><trkpt lat="36.85616159563842" lon="15.081000314991199"><ele>63.99999999999999</ele><time>2026-04-30T13:51:59Z</time></trkpt><trkpt lat="36.85611498289718" lon="15.08092591177576"><ele>64.0</ele><time>2026-04-30T13:52:00Z</time></trkpt><trkpt lat="36.85604520952852" lon="15.08087073802659"><ele>64.0</ele><time>2026-04-30T13:52:01Z</time></trkpt><trkpt lat="36.85595290557574" lon="15.080839530842464"><ele>64.0</ele><time>2026-04-30T13:52:02Z</time></trkpt><trkpt lat="36.85585289668974" lon="15.080864665227434"><ele>64.0</ele><time>2026-04-30T13:52:03Z</time></trkpt><trkpt lat="36.855744574845104" lon="15.080761125013519"><ele>64.0</ele><time>2026-04-30T13:52:04Z</time></trkpt><trkpt lat="36.85563771135773" lon="15.08069159044328"><ele>64.0</ele><time>2026-04-30T13:52:05Z</time></trkpt><trkpt lat="36.85555239674548" lon="15.080618629032314"><ele>63.6</ele><time>2026-04-30T13:52:06Z</time></trkpt><trkpt lat="36.85547256951812" lon="15.080542867089465"><ele>63.2</ele><time>2026-04-30T13:52:07.001Z</time></trkpt><trkpt lat="36.85540757349625" lon="15.080434628321303"><ele>62.800000000000004</ele><time>2026-04-30T13:52:08.001Z</time></trkpt><trkpt lat="36.85533348930961" lon="15.080325336189036"><ele>62.400000000000006</ele><time>2026-04-30T13:52:09.001Z</time></trkpt><trkpt lat="36.85526384075398" lon="15.080205378828422"><ele>62.0</ele><time>2026-04-30T13:52:10.001Z</time></trkpt><trkpt lat="36.855218553145406" lon="15.080064932978063"><ele>61.5</ele><time>2026-04-30T13:52:11.001Z</time></trkpt><trkpt lat="36.85518772852238" lon="15.07991521454145"><ele>61.0</ele><time>2026-04-30T13:52:12.001Z</time></trkpt><trkpt lat="36.85516846854084" lon="15.079749394769381"><ele>60.5</ele><time>2026-04-30T13:52:13.001Z</time></trkpt><trkpt lat="36.85514104564595" lon="15.079564036816432"><ele>60.0</ele><time>2026-04-30T13:52:14.001Z</time></trkpt><trkpt lat="36.85511236166107" lon="15.07937080843357"><ele>57.75</ele><time>2026-04-30T13:52:15.001Z</time></trkpt><trkpt lat="36.85509207202578" lon="15.079188887928499"><ele>55.5</ele><time>2026-04-30T13:52:16.001Z</time></trkpt><trkpt lat="36.85506871668253" lon="15.079020640571521"><ele>53.25</ele><time>2026-04-30T13:52:17.001Z</time></trkpt><trkpt lat="36.855038395148725" lon="15.078855346630881"><ele>51.0</ele><time>2026-04-30T13:52:18.001Z</time></trkpt><trkpt lat="36.85501000898339" lon="15.078696712606295"><ele>50.75</ele><time>2026-04-30T13:52:19.001Z</time></trkpt><trkpt lat="36.8549911901474" lon="15.078545224973015"><ele>50.5</ele><time>2026-04-30T13:52:20.001Z</time></trkpt><trkpt lat="36.854979178771785" lon="15.078399631910301"><ele>50.25</ele><time>2026-04-30T13:52:21.001Z</time></trkpt><trkpt lat="36.85497779029982" lon="15.078252967381012"><ele>50.0</ele><time>2026-04-30T13:52:22.001Z</time></trkpt><trkpt lat="36.854995127056135" lon="15.078117443457463"><ele>49.75</ele><time>2026-04-30T13:52:23.001Z</time></trkpt><trkpt lat="36.85502395594325" lon="15.077976282543643"><ele>49.5</ele><time>2026-04-30T13:52:24.001Z</time></trkpt><trkpt lat="36.85506645490134" lon="15.077829843214769"><ele>49.25</ele><time>2026-04-30T13:52:25.001Z</time></trkpt><trkpt lat="36.85511965456439" lon="15.077676615657454"><ele>49.0</ele><time>2026-04-30T13:52:26.001Z</time></trkpt><trkpt lat="36.855178520524" lon="15.077530338324317"><ele>51.0</ele><time>2026-04-30T13:52:27.001Z</time></trkpt><trkpt lat="36.85524648856968" lon="15.077383858750107"><ele>53.0</ele><time>2026-04-30T13:52:28.001Z</time></trkpt><trkpt lat="36.8553181723154" lon="15.077249974638553"><ele>55.0</ele><time>2026-04-30T13:52:29.001Z</time></trkpt><trkpt lat="36.85538805930261" lon="15.07713183056535"><ele>57.0</ele><time>2026-04-30T13:52:30.001Z</time></trkpt><trkpt lat="36.855447137723836" lon="15.077014204196225"><ele>57.0</ele><time>2026-04-30T13:52:31.001Z</time></trkpt><trkpt lat="36.855482030238925" lon="15.07690672972929"><ele>57.0</ele><time>2026-04-30T13:52:32.001Z</time></trkpt><trkpt lat="36.85548634266266" lon="15.076803825988392"><ele>57.0</ele><time>2026-04-30T13:52:33.001Z</time></trkpt><trkpt lat="36.855462053593634" lon="15.076699645817706"><ele>57.0</ele><time>2026-04-30T13:52:34.001Z</time></trkpt><trkpt lat="36.855406631244826" lon="15.076584932002355"><ele>57.0</ele><time>2026-04-30T13:52:35.001Z</time></trkpt><trkpt lat="36.85532682527577" lon="15.07648940881058"><ele>57.2</ele><time>2026-04-30T13:52:36.001Z</time></trkpt><trkpt lat="36.85525993914222" lon="15.076404522942658"><ele>57.400000000000006</ele><time>2026-04-30T13:52:37.001Z</time></trkpt><trkpt lat="36.85524520410056" lon="15.076297843207598"><ele>57.599999999999994</ele><time>2026-04-30T13:52:38.001Z</time></trkpt><trkpt lat="36.85521166979285" lon="15.076178553292564"><ele>57.8</ele><time>2026-04-30T13:52:39.001Z</time></trkpt><trkpt lat="36.85518785394913" lon="15.076035712597138"><ele>58.0</ele><time>2026-04-30T13:52:40.001Z</time></trkpt><trkpt lat="36.855170779049445" lon="15.075894614917964"><ele>58.5</ele><time>2026-04-30T13:52:41.001Z</time></trkpt><trkpt lat="36.85518095482411" lon="15.075757091455056"><ele>59.0</ele><time>2026-04-30T13:52:42.001Z</time></trkpt><trkpt lat="36.85521816064664" lon="15.075626744347188"><ele>59.5</ele><time>2026-04-30T13:52:43.001Z</time></trkpt><trkpt lat="36.85527243215176" lon="15.075503042303927"><ele>60.0</ele><time>2026-04-30T13:52:44.001Z</time></trkpt><trkpt lat="36.85534879323665" lon="15.075353330854956"><ele>60.0</ele><time>2026-04-30T13:52:45.001Z</time></trkpt><trkpt lat="36.85544576351736" lon="15.075194663651217"><ele>60.0</ele><time>2026-04-30T13:52:46.001Z</time></trkpt><trkpt lat="36.855550614955376" lon="15.07501211732829"><ele>60.0</ele><time>2026-04-30T13:52:47.001Z</time></trkpt><trkpt lat="36.85564866624066" lon="15.074826024710916"><ele>59.33333333333333</ele><time>2026-04-30T13:52:48.001Z</time></trkpt><trkpt lat="36.85573562825334" lon="15.074654906206092"><ele>58.666666666666664</ele><time>2026-04-30T13:52:49.001Z</time></trkpt><trkpt lat="36.855825714252184" lon="15.074490285189102"><ele>58.0</ele><time>2026-04-30T13:52:50.001Z</time></trkpt><trkpt lat="36.8558978406173" lon="15.074335532844433"><ele>59.75</ele><time>2026-04-30T13:52:51.001Z</time></trkpt><trkpt lat="36.85596940114503" lon="15.074192628168719"><ele>61.5</ele><time>2026-04-30T13:52:52.001Z</time></trkpt><trkpt lat="36.856041479978316" lon="15.074050884768301"><ele>63.25</ele><time>2026-04-30T13:52:53.001Z</time></trkpt><trkpt lat="36.856118736783415" lon="15.073908017882527"><ele>65.0</ele><time>2026-04-30T13:52:54.001Z</time></trkpt><trkpt lat="36.85619341201289" lon="15.073766762786748"><ele>65.0</ele><time>2026-04-30T13:52:55.001Z</time></trkpt><trkpt lat="36.85627031775885" lon="15.073628749693208"><ele>65.0</ele><time>2026-04-30T13:52:56.001Z</time></trkpt><trkpt lat="36.85636073626012" lon="15.073485972154788"><ele>65.0</ele><time>2026-04-30T13:52:57.001Z</time></trkpt><trkpt lat="36.85645208514529" lon="15.073345857866485"><ele>65.0</ele><time>2026-04-30T13:52:58.001Z</time></trkpt><trkpt lat="36.85653517866016" lon="15.073209512742158"><ele>64.25</ele><time>2026-04-30T13:52:59.001Z</time></trkpt><trkpt lat="36.85661862926526" lon="15.073075921333666"><ele>63.5</ele><time>2026-04-30T13:53:00.001Z</time></trkpt><trkpt lat="36.85669732970178" lon="15.072936812116673"><ele>62.75</ele><time>2026-04-30T13:53:01.001Z</time></trkpt><trkpt lat="36.856774417154895" lon="15.07279699608006"><ele>62.0</ele><time>2026-04-30T13:53:02.001Z</time></trkpt><trkpt lat="36.85684077943104" lon="15.072645470780836"><ele>64.25</ele><time>2026-04-30T13:53:03.001Z</time></trkpt><trkpt lat="36.856905155432806" lon="15.072483234332717"><ele>66.5</ele><time>2026-04-30T13:53:04.001Z</time></trkpt><trkpt lat="36.85696466064343" lon="15.072316404227605"><ele>68.75</ele><time>2026-04-30T13:53:05Z</time></trkpt><trkpt lat="36.85701963120299" lon="15.072158456186617"><ele>71.0</ele><time>2026-04-30T13:53:06Z</time></trkpt><trkpt lat="36.85706988804017" lon="15.072019093769194"><ele>71.0</ele><time>2026-04-30T13:53:07Z</time></trkpt><trkpt lat="36.857123822360876" lon="15.071878653485982"><ele>71.0</ele><time>2026-04-30T13:53:08Z</time></trkpt><trkpt lat="36.85718111745635" lon="15.07173336967627"><ele>71.0</ele><time>2026-04-30T13:53:09Z</time></trkpt><trkpt lat="36.85723631869678" lon="15.071605824737718"><ele>71.0</ele><time>2026-04-30T13:53:10Z</time></trkpt><trkpt lat="36.85728476750619" lon="15.071486647620953"><ele>69.25</ele><time>2026-04-30T13:53:11Z</time></trkpt><trkpt lat="36.857337796440746" lon="15.071378400988518"><ele>67.5</ele><time>2026-04-30T13:53:12Z</time></trkpt><trkpt lat="36.85740511358501" lon="15.071260134524982"><ele>65.75</ele><time>2026-04-30T13:53:13Z</time></trkpt><trkpt lat="36.85749518968247" lon="15.07114209914232"><ele>64.0</ele><time>2026-04-30T13:53:14Z</time></trkpt><trkpt lat="36.85758851792246" lon="15.071008486768278"><ele>66.0</ele><time>2026-04-30T13:53:15Z</time></trkpt><trkpt lat="36.85766709126208" lon="15.070857672653059"><ele>68.0</ele><time>2026-04-30T13:53:16Z</time></trkpt><trkpt lat="36.85773496875518" lon="15.070673511842196"><ele>70.0</ele><time>2026-04-30T13:53:17Z</time></trkpt><trkpt lat="36.857799769441925" lon="15.070514028521835"><ele>72.0</ele><time>2026-04-30T13:53:18Z</time></trkpt><trkpt lat="36.857867896504196" lon="15.070381840955298"><ele>72.0</ele><time>2026-04-30T13:53:19Z</time></trkpt><trkpt lat="36.85792512246435" lon="15.070252649956558"><ele>72.0</ele><time>2026-04-30T13:53:20Z</time></trkpt><trkpt lat="36.85796941018187" lon="15.070105234144652"><ele>72.0</ele><time>2026-04-30T13:53:21Z</time></trkpt><trkpt lat="36.85800494875171" lon="15.069943077414953"><ele>72.0</ele><time>2026-04-30T13:53:22Z</time></trkpt><trkpt lat="36.85803680915351" lon="15.069782647844656"><ele>72.5</ele><time>2026-04-30T13:53:23Z</time></trkpt><trkpt lat="36.858073079704376" lon="15.069618783497965"><ele>73.0</ele><time>2026-04-30T13:53:24Z</time></trkpt><trkpt lat="36.85813481811262" lon="15.069442619910625"><ele>73.5</ele><time>2026-04-30T13:53:25Z</time></trkpt><trkpt lat="36.85821058876769" lon="15.069272647410886"><ele>74.0</ele><time>2026-04-30T13:53:26Z</time></trkpt><trkpt lat="36.8582704706456" lon="15.069132135678897"><ele>74.4</ele><time>2026-04-30T13:53:27Z</time></trkpt><trkpt lat="36.85831682528865" lon="15.069011830500706"><ele>74.80000000000001</ele><time>2026-04-30T13:53:28Z</time></trkpt><trkpt lat="36.858342725286036" lon="15.068910411171986"><ele>75.19999999999999</ele><time>2026-04-30T13:53:29Z</time></trkpt><trkpt lat="36.85836813686102" lon="15.068822182261785"><ele>75.6</ele><time>2026-04-30T13:53:30Z</time></trkpt><trkpt lat="36.85830593512233" lon="15.068704277141563"><ele>76.0</ele><time>2026-04-30T13:53:31Z</time></trkpt><trkpt lat="36.85825419455904" lon="15.068578040579512"><ele>76.0</ele><time>2026-04-30T13:53:32Z</time></trkpt><trkpt lat="36.85821149046903" lon="15.068438079197282"><ele>76.0</ele><time>2026-04-30T13:53:33Z</time></trkpt><trkpt lat="36.85817927779404" lon="15.068283507478007"><ele>76.0</ele><time>2026-04-30T13:53:34Z</time></trkpt><trkpt lat="36.85816232564609" lon="15.06812751498356"><ele>76.0</ele><time>2026-04-30T13:53:35Z</time></trkpt><trkpt lat="36.85815278379062" lon="15.06799146197304"><ele>76.75</ele><time>2026-04-30T13:53:36Z</time></trkpt><trkpt lat="36.85813888960783" lon="15.067853675359668"><ele>77.5</ele><time>2026-04-30T13:53:37Z</time></trkpt><trkpt lat="36.85812786856489" lon="15.067699432037644"><ele>78.25</ele><time>2026-04-30T13:53:38Z</time></trkpt><trkpt lat="36.85811518199728" lon="15.067531348221824"><ele>79.0</ele><time>2026-04-30T13:53:39Z</time></trkpt><trkpt lat="36.85809764628001" lon="15.067370099344812"><ele>80.25</ele><time>2026-04-30T13:53:40Z</time></trkpt><trkpt lat="36.858074838685695" lon="15.067217888310365"><ele>81.5</ele><time>2026-04-30T13:53:41Z</time></trkpt><trkpt lat="36.85806485003409" lon="15.067061106524118"><ele>82.75</ele><time>2026-04-30T13:53:42Z</time></trkpt><trkpt lat="36.85802371681459" lon="15.066908817337048"><ele>84.0</ele><time>2026-04-30T13:53:43Z</time></trkpt><trkpt lat="36.857955627059944" lon="15.06675902867062"><ele>85.0</ele><time>2026-04-30T13:53:44Z</time></trkpt><trkpt lat="36.85789911699024" lon="15.066575419525636"><ele>86.0</ele><time>2026-04-30T13:53:45Z</time></trkpt><trkpt lat="36.85783257279318" lon="15.066412091725352"><ele>87.0</ele><time>2026-04-30T13:53:46Z</time></trkpt><trkpt lat="36.857750869291486" lon="15.066259021789934"><ele>87.0</ele><time>2026-04-30T13:53:47Z</time></trkpt><trkpt lat="36.85770100239734" lon="15.066094511731317"><ele>87.0</ele><time>2026-04-30T13:53:48Z</time></trkpt><trkpt lat="36.85764044556778" lon="15.065950361463633"><ele>87.0</ele><time>2026-04-30T13:53:49Z</time></trkpt><trkpt lat="36.857575588038024" lon="15.065799495987127"><ele>87.0</ele><time>2026-04-30T13:53:50Z</time></trkpt><trkpt lat="36.85751421712825" lon="15.065656740710667"><ele>89.6</ele><time>2026-04-30T13:53:51Z</time></trkpt><trkpt lat="36.85745867018421" lon="15.065527532573915"><ele>92.19999999999999</ele><time>2026-04-30T13:53:52Z</time></trkpt><trkpt lat="36.85740810735077" lon="15.065400686299226"><ele>94.8</ele><time>2026-04-30T13:53:53Z</time></trkpt><trkpt lat="36.85737079033949" lon="15.065293625411982"><ele>97.4</ele><time>2026-04-30T13:53:54Z</time></trkpt><trkpt lat="36.85734072133111" lon="15.065193510476675"><ele>100.0</ele><time>2026-04-30T13:53:55Z</time></trkpt><trkpt lat="36.85732171034866" lon="15.06508922312487"><ele>100.0</ele><time>2026-04-30T13:53:56Z</time></trkpt><trkpt lat="36.85731707015881" lon="15.064969194657365"><ele>100.0</ele><time>2026-04-30T13:53:57Z</time></trkpt><trkpt lat="36.857326363619855" lon="15.064845587654569"><ele>100.0</ele><time>2026-04-30T13:53:58Z</time></trkpt><trkpt lat="36.85732087313086" lon="15.064718248711372"><ele>100.0</ele><time>2026-04-30T13:53:59Z</time></trkpt><trkpt lat="36.857333873657254" lon="15.064588094048236"><ele>100.0</ele><time>2026-04-30T13:54:00Z</time></trkpt><trkpt lat="36.857351208036064" lon="15.064466845150271"><ele>100.8</ele><time>2026-04-30T13:54:01Z</time></trkpt><trkpt lat="36.85736460909096" lon="15.064344632507742"><ele>101.6</ele><time>2026-04-30T13:54:02Z</time></trkpt><trkpt lat="36.857380355531184" lon="15.06421734943898"><ele>102.4</ele><time>2026-04-30T13:54:03Z</time></trkpt><trkpt lat="36.857408296016175" lon="15.064071809196774"><ele>103.2</ele><time>2026-04-30T13:54:04Z</time></trkpt><trkpt lat="36.85743487191635" lon="15.063915338568282"><ele>104.0</ele><time>2026-04-30T13:54:05Z</time></trkpt><trkpt lat="36.85745667965646" lon="15.063761228676752"><ele>104.25</ele><time>2026-04-30T13:54:06Z</time></trkpt><trkpt lat="36.85750572749254" lon="15.063619544497982"><ele>104.5</ele><time>2026-04-30T13:54:07Z</time></trkpt><trkpt lat="36.857540904284136" lon="15.063480876461357"><ele>104.75</ele><time>2026-04-30T13:54:08Z</time></trkpt><trkpt lat="36.8575670433188" lon="15.063339591785708"><ele>105.0</ele><time>2026-04-30T13:54:09Z</time></trkpt><trkpt lat="36.85759006584572" lon="15.063195143225531"><ele>105.0</ele><time>2026-04-30T13:54:10Z</time></trkpt><trkpt lat="36.85760751089942" lon="15.063058607303647"><ele>105.0</ele><time>2026-04-30T13:54:11Z</time></trkpt><trkpt lat="36.857642321496314" lon="15.062930020152834"><ele>105.0</ele><time>2026-04-30T13:54:12.001Z</time></trkpt><trkpt lat="36.85769470458581" lon="15.062803225690454"><ele>105.0</ele><time>2026-04-30T13:54:13.001Z</time></trkpt><trkpt lat="36.85773878934146" lon="15.062639278578555"><ele>106.4</ele><time>2026-04-30T13:54:14.001Z</time></trkpt><trkpt lat="36.85778679189968" lon="15.062507553467512"><ele>107.8</ele><time>2026-04-30T13:54:15.001Z</time></trkpt><trkpt lat="36.857825084370354" lon="15.06236947734142"><ele>109.19999999999999</ele><time>2026-04-30T13:54:16.001Z</time></trkpt><trkpt lat="36.85786589291202" lon="15.062245881223078"><ele>110.6</ele><time>2026-04-30T13:54:17.001Z</time></trkpt><trkpt lat="36.85792072505741" lon="15.062146909744097"><ele>112.0</ele><time>2026-04-30T13:54:18.001Z</time></trkpt><trkpt lat="36.857981582826795" lon="15.062055971605208"><ele>112.5</ele><time>2026-04-30T13:54:19.001Z</time></trkpt><trkpt lat="36.85802308363921" lon="15.061941283802089"><ele>113.0</ele><time>2026-04-30T13:54:20.001Z</time></trkpt><trkpt lat="36.85805665016027" lon="15.06180422479707"><ele>113.5</ele><time>2026-04-30T13:54:21.001Z</time></trkpt><trkpt lat="36.858087838297585" lon="15.06165374698337"><ele>114.0</ele><time>2026-04-30T13:54:22.001Z</time></trkpt><trkpt lat="36.858111934735" lon="15.061510755787696"><ele>114.25</ele><time>2026-04-30T13:54:23.001Z</time></trkpt><trkpt lat="36.85815781916197" lon="15.06133824207292"><ele>114.5</ele><time>2026-04-30T13:54:24.001Z</time></trkpt><trkpt lat="36.85820522665076" lon="15.061176803991001"><ele>114.75</ele><time>2026-04-30T13:54:25.001Z</time></trkpt><trkpt lat="36.85824116647236" lon="15.061036957280121"><ele>115.0</ele><time>2026-04-30T13:54:26.001Z</time></trkpt><trkpt lat="36.85826774695372" lon="15.06089775643162"><ele>114.0</ele><time>2026-04-30T13:54:27.001Z</time></trkpt><trkpt lat="36.858302790372925" lon="15.060746376524857"><ele>113.0</ele><time>2026-04-30T13:54:28.001Z</time></trkpt><trkpt lat="36.85835099911857" lon="15.060598014408455"><ele>112.0</ele><time>2026-04-30T13:54:29.001Z</time></trkpt><trkpt lat="36.858404219376936" lon="15.060432149748369"><ele>111.0</ele><time>2026-04-30T13:54:30.001Z</time></trkpt><trkpt lat="36.85844489203277" lon="15.060292359194971"><ele>109.8</ele><time>2026-04-30T13:54:31.001Z</time></trkpt><trkpt lat="36.858474918639935" lon="15.060169723594932"><ele>108.6</ele><time>2026-04-30T13:54:32.001Z</time></trkpt><trkpt lat="36.85849152093218" lon="15.060055917802716"><ele>107.4</ele><time>2026-04-30T13:54:33.001Z</time></trkpt><trkpt lat="36.85850436411795" lon="15.059932470860742"><ele>106.2</ele><time>2026-04-30T13:54:34.001Z</time></trkpt><trkpt lat="36.858510202757756" lon="15.059795591697533"><ele>105.0</ele><time>2026-04-30T13:54:35.001Z</time></trkpt><trkpt lat="36.85850952827276" lon="15.059662260868992"><ele>103.0</ele><time>2026-04-30T13:54:36.001Z</time></trkpt><trkpt lat="36.8585034500512" lon="15.059525553919224"><ele>101.0</ele><time>2026-04-30T13:54:37.001Z</time></trkpt><trkpt lat="36.85849566742046" lon="15.059398808254835"><ele>99.0</ele><time>2026-04-30T13:54:38.001Z</time></trkpt><trkpt lat="36.85849409940498" lon="15.059272686736536"><ele>97.0</ele><time>2026-04-30T13:54:39.001Z</time></trkpt><trkpt lat="36.858491087796416" lon="15.059165006493146"><ele>95.0</ele><time>2026-04-30T13:54:40.001Z</time></trkpt><trkpt lat="36.85849379405196" lon="15.059043847332202"><ele>94.33333333333334</ele><time>2026-04-30T13:54:41.001Z</time></trkpt><trkpt lat="36.85847549723429" lon="15.05896194908035"><ele>93.66666666666667</ele><time>2026-04-30T13:54:42.001Z</time></trkpt><trkpt lat="36.85846429164441" lon="15.058871613164944"><ele>93.0</ele><time>2026-04-30T13:54:43.001Z</time></trkpt><trkpt lat="36.85845451024719" lon="15.058781107233916"><ele>92.33333333333333</ele><time>2026-04-30T13:54:44.001Z</time></trkpt><trkpt lat="36.85845887389842" lon="15.058695515870111"><ele>91.66666666666666</ele><time>2026-04-30T13:54:45.001Z</time></trkpt><trkpt lat="36.85846473879603" lon="15.058598280298574"><ele>91.0</ele><time>2026-04-30T13:54:46.001Z</time></trkpt><trkpt lat="36.85849006199754" lon="15.05845681684581"><ele>91.0</ele><time>2026-04-30T13:54:48.001Z</time></trkpt><trkpt lat="36.85851225150984" lon="15.058380883315339"><ele>91.0</ele><time>2026-04-30T13:54:49.001Z</time></trkpt><trkpt lat="36.85852975883815" lon="15.0583035315079"><ele>91.0</ele><time>2026-04-30T13:54:50.001Z</time></trkpt><trkpt lat="36.85858298624727" lon="15.058158935538776"><ele>91.0</ele><time>2026-04-30T13:54:52.001Z</time></trkpt><trkpt lat="36.85862731500952" lon="15.058075326639777"><ele>91.0</ele><time>2026-04-30T13:54:53.001Z</time></trkpt><trkpt lat="36.858672409595364" lon="15.058011192817695"><ele>91.0</ele><time>2026-04-30T13:54:54.001Z</time></trkpt><trkpt lat="36.85871540849449" lon="15.057942457826222"><ele>91.16666666666666</ele><time>2026-04-30T13:54:55.001Z</time></trkpt><trkpt lat="36.85875682049037" lon="15.057863177684514"><ele>91.33333333333333</ele><time>2026-04-30T13:54:56.001Z</time></trkpt><trkpt lat="36.858795388989186" lon="15.057785000584863"><ele>91.5</ele><time>2026-04-30T13:54:57.001Z</time></trkpt><trkpt lat="36.858829121631864" lon="15.057711799021446"><ele>91.66666666666667</ele><time>2026-04-30T13:54:58.001Z</time></trkpt><trkpt lat="36.85885549275595" lon="15.057632395512139"><ele>91.83333333333334</ele><time>2026-04-30T13:54:59.001Z</time></trkpt><trkpt lat="36.858884390322366" lon="15.057550376804803"><ele>92.0</ele><time>2026-04-30T13:55:00.001Z</time></trkpt><trkpt lat="36.858961798400884" lon="15.057440485045072"><ele>92.0</ele><time>2026-04-30T13:55:02.001Z</time></trkpt><trkpt lat="36.85902051840225" lon="15.057408854556105"><ele>92.0</ele><time>2026-04-30T13:55:03.001Z</time></trkpt><trkpt lat="36.859101953516905" lon="15.057339124023514"><ele>92.0</ele><time>2026-04-30T13:55:05.001Z</time></trkpt><trkpt lat="36.85902324727321" lon="15.057186949385475"><ele>92.0</ele><time>2026-04-30T13:55:09.001Z</time></trkpt><trkpt lat="36.85895235325845" lon="15.05711240751481"><ele>92.0</ele><time>2026-04-30T13:55:10.001Z</time></trkpt><trkpt lat="36.85887368065249" lon="15.057028489940455"><ele>92.0</ele><time>2026-04-30T13:55:11Z</time></trkpt><trkpt lat="36.858776690131975" lon="15.05692689350248"><ele>92.0</ele><time>2026-04-30T13:55:12Z</time></trkpt><trkpt lat="36.85867015980943" lon="15.056815775897125"><ele>92.0</ele><time>2026-04-30T13:55:13Z</time></trkpt><trkpt lat="36.85855819275153" lon="15.056698987698255"><ele>92.0</ele><time>2026-04-30T13:55:14Z</time></trkpt><trkpt lat="36.858439575842105" lon="15.056597829782639"><ele>92.25</ele><time>2026-04-30T13:55:15Z</time></trkpt><trkpt lat="36.85834700258346" lon="15.056486333116208"><ele>92.5</ele><time>2026-04-30T13:55:16Z</time></trkpt><trkpt lat="36.85825805393268" lon="15.056383817646415"><ele>92.75</ele><time>2026-04-30T13:55:17Z</time></trkpt><trkpt lat="36.85817941621464" lon="15.05627820174372"><ele>93.0</ele><time>2026-04-30T13:55:18Z</time></trkpt><trkpt lat="36.85808676102914" lon="15.056186979182227"><ele>93.0</ele><time>2026-04-30T13:55:19Z</time></trkpt><trkpt lat="36.858009511148836" lon="15.056077412434899"><ele>93.0</ele><time>2026-04-30T13:55:20Z</time></trkpt><trkpt lat="36.85791664180121" lon="15.055980439071385"><ele>93.0</ele><time>2026-04-30T13:55:21Z</time></trkpt><trkpt lat="36.85782504967468" lon="15.05586309954701"><ele>93.0</ele><time>2026-04-30T13:55:22Z</time></trkpt><trkpt lat="36.85773096461144" lon="15.055739142183393"><ele>94.5</ele><time>2026-04-30T13:55:23Z</time></trkpt><trkpt lat="36.85763998325299" lon="15.055616398986636"><ele>96.0</ele><time>2026-04-30T13:55:24Z</time></trkpt><trkpt lat="36.857554746294895" lon="15.055495369359297"><ele>97.5</ele><time>2026-04-30T13:55:25Z</time></trkpt><trkpt lat="36.85747487101889" lon="15.055373280262149"><ele>99.0</ele><time>2026-04-30T13:55:26Z</time></trkpt><trkpt lat="36.85739091217724" lon="15.055250505668791"><ele>95.5</ele><time>2026-04-30T13:55:27Z</time></trkpt><trkpt lat="36.857304469102544" lon="15.055120138529409"><ele>92.0</ele><time>2026-04-30T13:55:28Z</time></trkpt><trkpt lat="36.85723442073714" lon="15.054974796349438"><ele>88.5</ele><time>2026-04-30T13:55:29Z</time></trkpt><trkpt lat="36.857185521140394" lon="15.054827258716251"><ele>85.0</ele><time>2026-04-30T13:55:30Z</time></trkpt><trkpt lat="36.85714268342004" lon="15.054670935542868"><ele>84.0</ele><time>2026-04-30T13:55:31Z</time></trkpt><trkpt lat="36.85710080660268" lon="15.054514528262771"><ele>83.0</ele><time>2026-04-30T13:55:32Z</time></trkpt><trkpt lat="36.85704749250969" lon="15.054359736623228"><ele>82.0</ele><time>2026-04-30T13:55:33Z</time></trkpt><trkpt lat="36.85699138227315" lon="15.054216096401039"><ele>81.0</ele><time>2026-04-30T13:55:34Z</time></trkpt><trkpt lat="36.85692250188848" lon="15.054086862894753"><ele>79.5</ele><time>2026-04-30T13:55:35Z</time></trkpt><trkpt lat="36.85683322737547" lon="15.053985680722624"><ele>78.0</ele><time>2026-04-30T13:55:36Z</time></trkpt><trkpt lat="36.856723072825964" lon="15.05391523306731"><ele>76.5</ele><time>2026-04-30T13:55:37Z</time></trkpt><trkpt lat="36.85659986697119" lon="15.053849772862787"><ele>75.0</ele><time>2026-04-30T13:55:38Z</time></trkpt><trkpt lat="36.85648331706669" lon="15.053769491705685"><ele>73.75</ele><time>2026-04-30T13:55:39Z</time></trkpt><trkpt lat="36.856365172746656" lon="15.053703772535098"><ele>72.5</ele><time>2026-04-30T13:55:40Z</time></trkpt><trkpt lat="36.85625381436595" lon="15.053632375287672"><ele>71.25</ele><time>2026-04-30T13:55:41Z</time></trkpt><trkpt lat="36.856133483871304" lon="15.053563379338826"><ele>70.0</ele><time>2026-04-30T13:55:42Z</time></trkpt><trkpt lat="36.85602003803815" lon="15.053471014104074"><ele>69.25</ele><time>2026-04-30T13:55:43Z</time></trkpt><trkpt lat="36.85591222819482" lon="15.053378920158234"><ele>68.5</ele><time>2026-04-30T13:55:44Z</time></trkpt><trkpt lat="36.85581759416314" lon="15.053291869851511"><ele>67.75</ele><time>2026-04-30T13:55:45Z</time></trkpt><trkpt lat="36.85572429171465" lon="15.053210279742887"><ele>67.0</ele><time>2026-04-30T13:55:46Z</time></trkpt><trkpt lat="36.85562324500485" lon="15.05313647676078"><ele>64.25</ele><time>2026-04-30T13:55:47Z</time></trkpt><trkpt lat="36.855519597411536" lon="15.053053911863278"><ele>61.5</ele><time>2026-04-30T13:55:48Z</time></trkpt><trkpt lat="36.855421837018255" lon="15.052957168569604"><ele>58.75</ele><time>2026-04-30T13:55:49Z</time></trkpt><trkpt lat="36.85530656219264" lon="15.052889249684197"><ele>56.0</ele><time>2026-04-30T13:55:50Z</time></trkpt><trkpt lat="36.855212441332284" lon="15.05280602297283"><ele>56.0</ele><time>2026-04-30T13:55:51Z</time></trkpt><trkpt lat="36.855141453901744" lon="15.052696615776366"><ele>55.99999999999999</ele><time>2026-04-30T13:55:52Z</time></trkpt><trkpt lat="36.85507210871066" lon="15.052605536633495"><ele>55.99999999999999</ele><time>2026-04-30T13:55:53Z</time></trkpt><trkpt lat="36.854999223712326" lon="15.052531730213175"><ele>56.0</ele><time>2026-04-30T13:55:54Z</time></trkpt><trkpt lat="36.85493082520794" lon="15.052447554589193"><ele>56.0</ele><time>2026-04-30T13:55:55Z</time></trkpt><trkpt lat="36.85485698085136" lon="15.052366137170752"><ele>54.833333333333336</ele><time>2026-04-30T13:55:56Z</time></trkpt><trkpt lat="36.85478996048611" lon="15.052308736827577"><ele>53.66666666666667</ele><time>2026-04-30T13:55:57Z</time></trkpt><trkpt lat="36.854711344508935" lon="15.052248933948901"><ele>52.5</ele><time>2026-04-30T13:55:58Z</time></trkpt><trkpt lat="36.854640009131806" lon="15.052186311408686"><ele>51.33333333333333</ele><time>2026-04-30T13:55:59Z</time></trkpt><trkpt lat="36.85457257405138" lon="15.05214836880764"><ele>50.166666666666664</ele><time>2026-04-30T13:56:00Z</time></trkpt><trkpt lat="36.854499051780216" lon="15.05211204377425"><ele>49.0</ele><time>2026-04-30T13:56:01Z</time></trkpt><trkpt lat="36.85443190899486" lon="15.052050419113725"><ele>49.0</ele><time>2026-04-30T13:56:02Z</time></trkpt><trkpt lat="36.85434358372145" lon="15.051997110936068"><ele>49.0</ele><time>2026-04-30T13:56:03Z</time></trkpt><trkpt lat="36.85425254745075" lon="15.051945484345168"><ele>49.0</ele><time>2026-04-30T13:56:04Z</time></trkpt><trkpt lat="36.85415704504264" lon="15.051910894732492"><ele>49.0</ele><time>2026-04-30T13:56:05Z</time></trkpt><trkpt lat="36.85405864279979" lon="15.051862753568221"><ele>49.0</ele><time>2026-04-30T13:56:06Z</time></trkpt><trkpt lat="36.853982299531" lon="15.051809246984424"><ele>48.6</ele><time>2026-04-30T13:56:07Z</time></trkpt><trkpt lat="36.85388619661197" lon="15.051760545956363"><ele>48.2</ele><time>2026-04-30T13:56:08Z</time></trkpt><trkpt lat="36.85379862342047" lon="15.05171316630414"><ele>47.800000000000004</ele><time>2026-04-30T13:56:09Z</time></trkpt><trkpt lat="36.853707132899004" lon="15.05166296713189"><ele>47.400000000000006</ele><time>2026-04-30T13:56:10Z</time></trkpt><trkpt lat="36.853620985386364" lon="15.05163965160097"><ele>47.0</ele><time>2026-04-30T13:56:11Z</time></trkpt><trkpt lat="36.853545167450605" lon="15.051596206063135"><ele>46.5</ele><time>2026-04-30T13:56:12Z</time></trkpt><trkpt lat="36.85348510777214" lon="15.051548389230971"><ele>46.0</ele><time>2026-04-30T13:56:13Z</time></trkpt><trkpt lat="36.853436032497875" lon="15.051497571181798"><ele>45.5</ele><time>2026-04-30T13:56:14Z</time></trkpt><trkpt lat="36.85340460516842" lon="15.051415522158624"><ele>45.0</ele><time>2026-04-30T13:56:16Z</time></trkpt><trkpt lat="36.85335434376937" lon="15.051363249774107"><ele>44.5</ele><time>2026-04-30T13:56:22Z</time></trkpt><trkpt lat="36.85325293939643" lon="15.051454192233498"><ele>44.0</ele><time>2026-04-30T13:56:23Z</time></trkpt><trkpt lat="36.853187594320886" lon="15.051470802667339"><ele>43.2</ele><time>2026-04-30T13:56:25Z</time></trkpt><trkpt lat="36.853137568995216" lon="15.051538492499219"><ele>42.400000000000006</ele><time>2026-04-30T13:56:26Z</time></trkpt><trkpt lat="36.853044657688066" lon="15.051448635663657"><ele>41.6</ele><time>2026-04-30T13:56:29Z</time></trkpt><trkpt lat="36.85300118367827" lon="15.051379195461662"><ele>40.8</ele><time>2026-04-30T13:56:30Z</time></trkpt><trkpt lat="36.8529456708407" lon="15.051295509873139"><ele>40.0</ele><time>2026-04-30T13:56:31Z</time></trkpt><trkpt lat="36.85287447448663" lon="15.05119516101519"><ele>40.0</ele><time>2026-04-30T13:56:32Z</time></trkpt><trkpt lat="36.85279334746897" lon="15.051078548127016"><ele>40.0</ele><time>2026-04-30T13:56:33Z</time></trkpt><trkpt lat="36.85272153360308" lon="15.050976290072283"><ele>40.0</ele><time>2026-04-30T13:56:34.001Z</time></trkpt><trkpt lat="36.85265274907917" lon="15.050897466345047"><ele>40.0</ele><time>2026-04-30T13:56:35.001Z</time></trkpt><trkpt lat="36.85258551085916" lon="15.050808619979541"><ele>40.0</ele><time>2026-04-30T13:56:36.001Z</time></trkpt><trkpt lat="36.85250426363755" lon="15.050726834841548"><ele>41.8</ele><time>2026-04-30T13:56:37.001Z</time></trkpt><trkpt lat="36.852418695040306" lon="15.050655061641752"><ele>43.6</ele><time>2026-04-30T13:56:38.001Z</time></trkpt><trkpt lat="36.85232837071192" lon="15.050578879134296"><ele>45.400000000000006</ele><time>2026-04-30T13:56:39.001Z</time></trkpt><trkpt lat="36.85224684339456" lon="15.050506235341373"><ele>47.2</ele><time>2026-04-30T13:56:40.001Z</time></trkpt><trkpt lat="36.85217341932711" lon="15.050431375471234"><ele>49.0</ele><time>2026-04-30T13:56:41.001Z</time></trkpt><trkpt lat="36.85207773552725" lon="15.05033390028118"><ele>49.0</ele><time>2026-04-30T13:56:42.001Z</time></trkpt><trkpt lat="36.851983546280344" lon="15.050239390209642"><ele>49.0</ele><time>2026-04-30T13:56:43.001Z</time></trkpt><trkpt lat="36.85189969394124" lon="15.050150516246747"><ele>49.0</ele><time>2026-04-30T13:56:44.001Z</time></trkpt><trkpt lat="36.85181508793335" lon="15.050072730463958"><ele>49.0</ele><time>2026-04-30T13:56:45.001Z</time></trkpt><trkpt lat="36.85173587587913" lon="15.049998246932764"><ele>49.0</ele><time>2026-04-30T13:56:46.001Z</time></trkpt><trkpt lat="36.851660923744916" lon="15.049923238048303"><ele>52.400000000000006</ele><time>2026-04-30T13:56:47.001Z</time></trkpt><trkpt lat="36.85157368517958" lon="15.049851124147578"><ele>55.8</ele><time>2026-04-30T13:56:48.001Z</time></trkpt><trkpt lat="36.8514940611793" lon="15.04978081501685"><ele>59.199999999999996</ele><time>2026-04-30T13:56:49.001Z</time></trkpt><trkpt lat="36.85141908490241" lon="15.049722170066094"><ele>62.599999999999994</ele><time>2026-04-30T13:56:50.001Z</time></trkpt><trkpt lat="36.8513611476606" lon="15.049672285820238"><ele>66.0</ele><time>2026-04-30T13:56:51.001Z</time></trkpt><trkpt lat="36.85133109901192" lon="15.049541689679701"><ele>66.0</ele><time>2026-04-30T13:56:53.001Z</time></trkpt><trkpt lat="36.85132364343464" lon="15.049462344266365"><ele>66.0</ele><time>2026-04-30T13:56:55.001Z</time></trkpt><trkpt lat="36.85120186074118" lon="15.049586290943017"><ele>66.0</ele><time>2026-04-30T13:57:01.001Z</time></trkpt><trkpt lat="36.85116024013616" lon="15.049657221945859"><ele>66.0</ele><time>2026-04-30T13:57:02.001Z</time></trkpt><trkpt lat="36.85111138879238" lon="15.049715618687086"><ele>66.0</ele><time>2026-04-30T13:57:03.001Z</time></trkpt><trkpt lat="36.85105758903537" lon="15.049757447918617"><ele>66.0</ele><time>2026-04-30T13:57:04.001Z</time></trkpt><trkpt lat="36.8509861361759" lon="15.049812003256706"><ele>66.33333333333333</ele><time>2026-04-30T13:57:05.001Z</time></trkpt><trkpt lat="36.85092458653376" lon="15.04986263127787"><ele>66.66666666666667</ele><time>2026-04-30T13:57:06.001Z</time></trkpt><trkpt lat="36.85087467518976" lon="15.049929878488001"><ele>67.0</ele><time>2026-04-30T13:57:07.001Z</time></trkpt><trkpt lat="36.85083008001" lon="15.050016076150486"><ele>67.33333333333334</ele><time>2026-04-30T13:57:08.001Z</time></trkpt><trkpt lat="36.85079029267046" lon="15.050114673539868"><ele>67.66666666666667</ele><time>2026-04-30T13:57:09.001Z</time></trkpt><trkpt lat="36.850749943227626" lon="15.050206894010635"><ele>68.0</ele><time>2026-04-30T13:57:10.001Z</time></trkpt><trkpt lat="36.850695890704806" lon="15.050253556565314"><ele>68.0</ele><time>2026-04-30T13:57:11.001Z</time></trkpt><trkpt lat="36.85059456348488" lon="15.050370135134372"><ele>68.0</ele><time>2026-04-30T13:57:13.001Z</time></trkpt><trkpt lat="36.85051855689662" lon="15.050446831793098"><ele>68.0</ele><time>2026-04-30T13:57:14.001Z</time></trkpt><trkpt lat="36.85043652443791" lon="15.050514320337411"><ele>68.0</ele><time>2026-04-30T13:57:15.001Z</time></trkpt><trkpt lat="36.85036553178381" lon="15.050566067718064"><ele>68.0</ele><time>2026-04-30T13:57:16.001Z</time></trkpt><trkpt lat="36.850287467277894" lon="15.050601752002384"><ele>68.0</ele><time>2026-04-30T13:57:17Z</time></trkpt><trkpt lat="36.850179330826016" lon="15.050618216478666"><ele>68.0</ele><time>2026-04-30T13:57:18Z</time></trkpt><trkpt lat="36.8500623576675" lon="15.05066442807257"><ele>68.0</ele><time>2026-04-30T13:57:19Z</time></trkpt><trkpt lat="36.84995122798123" lon="15.05072860921301"><ele>68.0</ele><time>2026-04-30T13:57:20Z</time></trkpt><trkpt lat="36.849843995830966" lon="15.050796192820629"><ele>70.2</ele><time>2026-04-30T13:57:21Z</time></trkpt><trkpt lat="36.84975505703909" lon="15.050852247101867"><ele>72.4</ele><time>2026-04-30T13:57:22Z</time></trkpt><trkpt lat="36.84967671416849" lon="15.050899036781818"><ele>74.60000000000001</ele><time>2026-04-30T13:57:23Z</time></trkpt><trkpt lat="36.84957833859527" lon="15.050955395495816"><ele>76.8</ele><time>2026-04-30T13:57:25Z</time></trkpt><trkpt lat="36.849493779620126" lon="15.050998146726972"><ele>79.0</ele><time>2026-04-30T13:57:27Z</time></trkpt><trkpt lat="36.849431894846084" lon="15.051017421505062"><ele>79.00000000000001</ele><time>2026-04-30T13:57:31Z</time></trkpt><trkpt lat="36.849368692607996" lon="15.051025534893864"><ele>79.0</ele><time>2026-04-30T13:57:35Z</time></trkpt><trkpt lat="36.84930268576641" lon="15.051029685720179"><ele>79.0</ele><time>2026-04-30T13:57:38Z</time></trkpt><trkpt lat="36.8492366974164" lon="15.051031938229285"><ele>79.0</ele><time>2026-04-30T13:57:43Z</time></trkpt><trkpt lat="36.849163948514615" lon="15.051062409942704"><ele>79.0</ele><time>2026-04-30T13:57:50Z</time></trkpt><trkpt lat="36.84908952175417" lon="15.051043217565665"><ele>79.00000000000001</ele><time>2026-04-30T13:57:56Z</time></trkpt><trkpt lat="36.84901424949695" lon="15.05105229560563"><ele>79.0</ele><time>2026-04-30T13:58:00Z</time></trkpt><trkpt lat="36.84895093019494" lon="15.051048681102607"><ele>77.5</ele><time>2026-04-30T13:58:04Z</time></trkpt><trkpt lat="36.84888746854753" lon="15.051055784959761"><ele>76.0</ele><time>2026-04-30T13:58:08Z</time></trkpt><trkpt lat="36.84879065527486" lon="15.051050046663631"><ele>74.5</ele><time>2026-04-30T13:58:27.001Z</time></trkpt><trkpt lat="36.848725149619426" lon="15.051041601009494"><ele>73.0</ele><time>2026-04-30T13:58:33.001Z</time></trkpt><trkpt lat="36.848646890823815" lon="15.051050352757187"><ele>71.5</ele><time>2026-04-30T13:58:37.001Z</time></trkpt><trkpt lat="36.84857569675178" lon="15.051061520940223"><ele>70.0</ele><time>2026-04-30T13:58:39.001Z</time></trkpt><trkpt lat="36.848492350187506" lon="15.051068628974988"><ele>67.0</ele><time>2026-04-30T13:58:41.001Z</time></trkpt><trkpt lat="36.848399308627435" lon="15.05106027025707"><ele>64.0</ele><time>2026-04-30T13:58:43.001Z</time></trkpt><trkpt lat="36.848307182761026" lon="15.051059443353138"><ele>61.0</ele><time>2026-04-30T13:58:45.001Z</time></trkpt><trkpt lat="36.848219008760864" lon="15.051051454126863"><ele>58.0</ele><time>2026-04-30T13:58:47.001Z</time></trkpt><trkpt lat="36.848142359142045" lon="15.051054187358064"><ele>54.99999999999999</ele><time>2026-04-30T13:58:49.001Z</time></trkpt><trkpt lat="36.848057310839536" lon="15.051062159519143"><ele>52.0</ele><time>2026-04-30T13:58:51.001Z</time></trkpt><trkpt lat="36.847947460311566" lon="15.051072288028289"><ele>51.99999999999999</ele><time>2026-04-30T13:58:54.001Z</time></trkpt><trkpt lat="36.847860695782394" lon="15.051051232606312"><ele>52.0</ele><time>2026-04-30T13:58:56.001Z</time></trkpt><trkpt lat="36.84777941694191" lon="15.05106059325594"><ele>52.0</ele><time>2026-04-30T13:58:58.001Z</time></trkpt><trkpt lat="36.84769655324502" lon="15.051049714846101"><ele>52.0</ele><time>2026-04-30T13:59:00.001Z</time></trkpt><trkpt lat="36.84762935835507" lon="15.05102764074012"><ele>51.99999999999999</ele><time>2026-04-30T14:00:08Z</time></trkpt><trkpt lat="36.84769262470332" lon="15.051055559063084"><ele>52.0</ele><time>2026-04-30T14:00:12Z</time></trkpt><trkpt lat="36.8477945101622" lon="15.05104707707722"><ele>51.99999999999999</ele><time>2026-04-30T14:00:14Z</time></trkpt><trkpt lat="36.84788717426438" lon="15.051047854694227"><ele>52.0</ele><time>2026-04-30T14:00:16Z</time></trkpt><trkpt lat="36.847967685221626" lon="15.05106642508569"><ele>52.0</ele><time>2026-04-30T14:00:18Z</time></trkpt><trkpt lat="36.84805550841247" lon="15.051064665294149"><ele>52.0</ele><time>2026-04-30T14:00:20Z</time></trkpt><trkpt lat="36.84813039358644" lon="15.05104195190593"><ele>51.99999999999999</ele><time>2026-04-30T14:00:22Z</time></trkpt><trkpt lat="36.848197162459655" lon="15.051049676549837"><ele>52.0</ele><time>2026-04-30T14:00:24Z</time></trkpt><trkpt lat="36.848276771198805" lon="15.051031670038869"><ele>52.0</ele><time>2026-04-30T14:04:57Z</time></trkpt><trkpt lat="36.84836249212456" lon="15.051032790299544"><ele>52.0</ele><time>2026-04-30T14:04:59Z</time></trkpt><trkpt lat="36.84846332506209" lon="15.051032610955048"><ele>52.0</ele><time>2026-04-30T14:05:01Z</time></trkpt><trkpt lat="36.84857679629226" lon="15.051044519543996"><ele>52.0</ele><time>2026-04-30T14:05:03Z</time></trkpt><trkpt lat="36.84866970860523" lon="15.051040511975387"><ele>52.0</ele><time>2026-04-30T14:05:05Z</time></trkpt><trkpt lat="36.848732919209915" lon="15.051035900724061"><ele>54.57142857142857</ele><time>2026-04-30T14:05:07Z</time></trkpt><trkpt lat="36.84880134468235" lon="15.051047858284612"><ele>57.142857142857146</ele><time>2026-04-30T14:05:09Z</time></trkpt><trkpt lat="36.84887282207223" lon="15.051041364769091"><ele>59.714285714285715</ele><time>2026-04-30T14:05:11Z</time></trkpt><trkpt lat="36.84895892338952" lon="15.051028715044175"><ele>62.285714285714285</ele><time>2026-04-30T14:05:14Z</time></trkpt><trkpt lat="36.849022996348" lon="15.051039028111147"><ele>64.85714285714286</ele><time>2026-04-30T14:05:17Z</time></trkpt><trkpt lat="36.8491012874878" lon="15.051073284719612"><ele>67.42857142857143</ele><time>2026-04-30T14:05:21Z</time></trkpt><trkpt lat="36.84917202227769" lon="15.051074304649285"><ele>70.0</ele><time>2026-04-30T14:05:24Z</time></trkpt><trkpt lat="36.84925066388416" lon="15.051056726864672"><ele>71.5</ele><time>2026-04-30T14:05:28Z</time></trkpt><trkpt lat="36.84934606662415" lon="15.051063128637022"><ele>73.0</ele><time>2026-04-30T14:05:31Z</time></trkpt><trkpt lat="36.84943924190263" lon="15.05105138474693"><ele>74.5</ele><time>2026-04-30T14:05:34Z</time></trkpt><trkpt lat="36.849521401389005" lon="15.051061559418994"><ele>76.0</ele><time>2026-04-30T14:05:37Z</time></trkpt><trkpt lat="36.84959629140949" lon="15.050994086938637"><ele>77.5</ele><time>2026-04-30T14:05:39.001Z</time></trkpt><trkpt lat="36.84966890665357" lon="15.050966757497"><ele>79.0</ele><time>2026-04-30T14:05:40.996Z</time></trkpt><trkpt lat="36.84957190611673" lon="15.051006992431235"><ele>79.0</ele><time>2026-04-30T14:05:50.997Z</time></trkpt><trkpt lat="36.8495088227736" lon="15.05101225004713"><ele>79.0</ele><time>2026-04-30T14:05:53.997Z</time></trkpt><trkpt lat="36.84958158030127" lon="15.051014492435202"><ele>79.0</ele><time>2026-04-30T14:08:44.001Z</time></trkpt><trkpt lat="36.849660596560305" lon="15.050973905749109"><ele>79.0</ele><time>2026-04-30T14:08:46.001Z</time></trkpt><trkpt lat="36.849751158751296" lon="15.050920293755736"><ele>79.0</ele><time>2026-04-30T14:08:48.001Z</time></trkpt><trkpt lat="36.849849103473055" lon="15.050849317133041"><ele>79.0</ele><time>2026-04-30T14:08:50.002Z</time></trkpt><trkpt lat="36.84994693755024" lon="15.050782315417399"><ele>77.16666666666666</ele><time>2026-04-30T14:08:52.002Z</time></trkpt><trkpt lat="36.85000350153318" lon="15.05074733136381"><ele>75.33333333333333</ele><time>2026-04-30T14:08:53.002Z</time></trkpt><trkpt lat="36.85006019775633" lon="15.05070865064846"><ele>73.5</ele><time>2026-04-30T14:08:54.002Z</time></trkpt><trkpt lat="36.85011676981597" lon="15.050673581485327"><ele>71.66666666666667</ele><time>2026-04-30T14:08:55.002Z</time></trkpt><trkpt lat="36.85023114672844" lon="15.050628471867224"><ele>69.83333333333334</ele><time>2026-04-30T14:08:57.002Z</time></trkpt><trkpt lat="36.85030275062885" lon="15.050615499966266"><ele>68.0</ele><time>2026-04-30T14:08:58.002Z</time></trkpt><trkpt lat="36.85037816128081" lon="15.05059040175215"><ele>68.0</ele><time>2026-04-30T14:08:59.002Z</time></trkpt><trkpt lat="36.850451068311195" lon="15.050553430140903"><ele>68.0</ele><time>2026-04-30T14:09:00.002Z</time></trkpt><trkpt lat="36.85054972889678" lon="15.050446633536179"><ele>68.0</ele><time>2026-04-30T14:09:02.002Z</time></trkpt><trkpt lat="36.850660483312105" lon="15.050354230026148"><ele>68.0</ele><time>2026-04-30T14:09:04.002Z</time></trkpt><trkpt lat="36.85070735962732" lon="15.050298485954833"><ele>68.0</ele><time>2026-04-30T14:09:05.002Z</time></trkpt><trkpt lat="36.85075182286359" lon="15.050234402195793"><ele>68.0</ele><time>2026-04-30T14:09:06.002Z</time></trkpt><trkpt lat="36.85077261327319" lon="15.050154495002511"><ele>68.0</ele><time>2026-04-30T14:09:07.002Z</time></trkpt><trkpt lat="36.850807367668665" lon="15.050086332701685"><ele>68.0</ele><time>2026-04-30T14:09:08.002Z</time></trkpt><trkpt lat="36.85085773469745" lon="15.0499680082863"><ele>68.0</ele><time>2026-04-30T14:09:10.002Z</time></trkpt><trkpt lat="36.850920718679184" lon="15.049865570660536"><ele>68.0</ele><time>2026-04-30T14:09:12.002Z</time></trkpt><trkpt lat="36.851010677386036" lon="15.04976850503994"><ele>67.6</ele><time>2026-04-30T14:09:14.002Z</time></trkpt><trkpt lat="36.85110287329502" lon="15.049700310366676"><ele>67.19999999999999</ele><time>2026-04-30T14:09:16.002Z</time></trkpt><trkpt lat="36.85116962921574" lon="15.049609209422597"><ele>66.8</ele><time>2026-04-30T14:09:18.002Z</time></trkpt><trkpt lat="36.8512396442784" lon="15.049523104367035"><ele>66.39999999999999</ele><time>2026-04-30T14:09:20.002Z</time></trkpt><trkpt lat="36.85128009722992" lon="15.049439744226031"><ele>66.0</ele><time>2026-04-30T14:09:22.002Z</time></trkpt><trkpt lat="36.851285648413665" lon="15.049324271241623"><ele>66.0</ele><time>2026-04-30T14:09:25.003Z</time></trkpt><trkpt lat="36.85122967068091" lon="15.049205898382816"><ele>66.0</ele><time>2026-04-30T14:09:27.003Z</time></trkpt><trkpt lat="36.85122153734629" lon="15.049104368905413"><ele>66.0</ele><time>2026-04-30T14:09:29.003Z</time></trkpt><trkpt lat="36.85127281942602" lon="15.049049791551878"><ele>66.0</ele><time>2026-04-30T14:09:30.003Z</time></trkpt><trkpt lat="36.8513095871863" lon="15.048944679775582"><ele>66.0</ele><time>2026-04-30T14:09:32.003Z</time></trkpt><trkpt lat="36.85134692067724" lon="15.048858708760708"><ele>66.0</ele><time>2026-04-30T14:09:34.003Z</time></trkpt><trkpt lat="36.851393227438535" lon="15.048725868726816"><ele>67.39999999999999</ele><time>2026-04-30T14:09:36.003Z</time></trkpt><trkpt lat="36.8514507396931" lon="15.048603842956076"><ele>68.8</ele><time>2026-04-30T14:09:38.003Z</time></trkpt><trkpt lat="36.851502361557344" lon="15.048487905081316"><ele>70.19999999999999</ele><time>2026-04-30T14:09:40.003Z</time></trkpt><trkpt lat="36.85155149941894" lon="15.04837773205247"><ele>71.6</ele><time>2026-04-30T14:09:42.003Z</time></trkpt><trkpt lat="36.851612383704826" lon="15.048279682339164"><ele>73.0</ele><time>2026-04-30T14:09:44.003Z</time></trkpt><trkpt lat="36.85167058822015" lon="15.04817791745873"><ele>73.2</ele><time>2026-04-30T14:09:46.003Z</time></trkpt><trkpt lat="36.851722779904556" lon="15.048055814790773"><ele>73.4</ele><time>2026-04-30T14:09:48.003Z</time></trkpt><trkpt lat="36.8517638342392" lon="15.047941654387492"><ele>73.60000000000001</ele><time>2026-04-30T14:09:50.003Z</time></trkpt><trkpt lat="36.85178112283542" lon="15.04785455013068"><ele>73.8</ele><time>2026-04-30T14:09:51.003Z</time></trkpt><trkpt lat="36.85180804193346" lon="15.04771333130837"><ele>74.0</ele><time>2026-04-30T14:09:53.001Z</time></trkpt><trkpt lat="36.8518272851162" lon="15.047629339481288"><ele>74.16666666666667</ele><time>2026-04-30T14:09:54.001Z</time></trkpt><trkpt lat="36.85183797256861" lon="15.04754989938558"><ele>74.33333333333334</ele><time>2026-04-30T14:09:55.001Z</time></trkpt><trkpt lat="36.85186102311143" lon="15.047423551943416"><ele>74.5</ele><time>2026-04-30T14:09:57.001Z</time></trkpt><trkpt lat="36.85188055442371" lon="15.047339697471847"><ele>74.66666666666667</ele><time>2026-04-30T14:09:58.001Z</time></trkpt><trkpt lat="36.85190685995987" lon="15.047257706090893"><ele>74.83333333333333</ele><time>2026-04-30T14:09:59.001Z</time></trkpt><trkpt lat="36.85195086985827" lon="15.047161447307658"><ele>75.0</ele><time>2026-04-30T14:10:00.001Z</time></trkpt><trkpt lat="36.85200932048667" lon="15.047069345516189"><ele>76.2</ele><time>2026-04-30T14:10:01.001Z</time></trkpt><trkpt lat="36.85207790152913" lon="15.046982909395437"><ele>77.4</ele><time>2026-04-30T14:10:02.001Z</time></trkpt><trkpt lat="36.85213974965339" lon="15.046885301632106"><ele>78.6</ele><time>2026-04-30T14:10:03.001Z</time></trkpt><trkpt lat="36.85219915508799" lon="15.046793122159087"><ele>79.8</ele><time>2026-04-30T14:10:04.001Z</time></trkpt><trkpt lat="36.85224544142355" lon="15.046696457098948"><ele>81.0</ele><time>2026-04-30T14:10:05.001Z</time></trkpt><trkpt lat="36.852297395346305" lon="15.046575916653826"><ele>82.33333333333333</ele><time>2026-04-30T14:10:06.001Z</time></trkpt><trkpt lat="36.85235407107094" lon="15.046480512467976"><ele>83.66666666666667</ele><time>2026-04-30T14:10:07.001Z</time></trkpt><trkpt lat="36.85241376066538" lon="15.046419632288378"><ele>85.0</ele><time>2026-04-30T14:10:08Z</time></trkpt><trkpt lat="36.85245833335718" lon="15.046346562838119"><ele>86.33333333333334</ele><time>2026-04-30T14:10:09Z</time></trkpt><trkpt lat="36.85249019144449" lon="15.046278313365235"><ele>87.66666666666667</ele><time>2026-04-30T14:10:10Z</time></trkpt><trkpt lat="36.852501799369755" lon="15.046197288809772"><ele>89.0</ele><time>2026-04-30T14:10:11Z</time></trkpt><trkpt lat="36.852550221500344" lon="15.046031510283303"><ele>89.0</ele><time>2026-04-30T14:10:13Z</time></trkpt><trkpt lat="36.85255476647417" lon="15.045936665136457"><ele>89.0</ele><time>2026-04-30T14:10:14Z</time></trkpt><trkpt lat="36.852562289672385" lon="15.045855938229389"><ele>89.0</ele><time>2026-04-30T14:10:15.001Z</time></trkpt><trkpt lat="36.85256526544738" lon="15.045703255157683"><ele>89.0</ele><time>2026-04-30T14:10:17.001Z</time></trkpt><trkpt lat="36.852590890732145" lon="15.045608124815237"><ele>89.0</ele><time>2026-04-30T14:10:19.001Z</time></trkpt><trkpt lat="36.8526151313514" lon="15.04550032984286"><ele>89.0</ele><time>2026-04-30T14:10:21.001Z</time></trkpt><trkpt lat="36.852641901163665" lon="15.045413757224189"><ele>89.83333333333334</ele><time>2026-04-30T14:10:22.001Z</time></trkpt><trkpt lat="36.85266831731172" lon="15.045325036951521"><ele>90.66666666666667</ele><time>2026-04-30T14:10:23.001Z</time></trkpt><trkpt lat="36.852698652182774" lon="15.045220619462807"><ele>91.5</ele><time>2026-04-30T14:10:24.001Z</time></trkpt><trkpt lat="36.852724485687155" lon="15.04513509127488"><ele>92.33333333333333</ele><time>2026-04-30T14:10:25.001Z</time></trkpt><trkpt lat="36.85277325388084" lon="15.04503014148086"><ele>93.16666666666666</ele><time>2026-04-30T14:10:26.001Z</time></trkpt><trkpt lat="36.85282862472181" lon="15.044911702344633"><ele>94.0</ele><time>2026-04-30T14:10:27.001Z</time></trkpt><trkpt lat="36.8528872715654" lon="15.04479919770682"><ele>94.0</ele><time>2026-04-30T14:10:28.001Z</time></trkpt><trkpt lat="36.85294355968446" lon="15.044707995876719"><ele>94.0</ele><time>2026-04-30T14:10:29.001Z</time></trkpt><trkpt lat="36.85300072868716" lon="15.044632838436657"><ele>94.0</ele><time>2026-04-30T14:10:30.001Z</time></trkpt><trkpt lat="36.85306603638605" lon="15.044555696993227"><ele>94.0</ele><time>2026-04-30T14:10:31.001Z</time></trkpt><trkpt lat="36.85311651476801" lon="15.044487943430601"><ele>94.0</ele><time>2026-04-30T14:10:32.001Z</time></trkpt><trkpt lat="36.85317247908326" lon="15.044430349279756"><ele>94.0</ele><time>2026-04-30T14:10:34.001Z</time></trkpt><trkpt lat="36.85325878384953" lon="15.044372299698919"><ele>94.0</ele><time>2026-04-30T14:11:14.001Z</time></trkpt><trkpt lat="36.85335468669555" lon="15.04425703167102"><ele>94.0</ele><time>2026-04-30T14:11:16.002Z</time></trkpt><trkpt lat="36.8534171396727" lon="15.04419278015149"><ele>94.0</ele><time>2026-04-30T14:11:17.002Z</time></trkpt><trkpt lat="36.85347267688834" lon="15.044130952772113"><ele>94.0</ele><time>2026-04-30T14:11:18.002Z</time></trkpt><trkpt lat="36.8535216391878" lon="15.044059938085784"><ele>94.0</ele><time>2026-04-30T14:11:19.002Z</time></trkpt><trkpt lat="36.853569679783945" lon="15.043977037832333"><ele>94.0</ele><time>2026-04-30T14:11:20.002Z</time></trkpt><trkpt lat="36.85360460562612" lon="15.043897977111662"><ele>94.66666666666666</ele><time>2026-04-30T14:11:21.002Z</time></trkpt><trkpt lat="36.853623856317974" lon="15.04381173248774"><ele>95.33333333333333</ele><time>2026-04-30T14:11:22.002Z</time></trkpt><trkpt lat="36.8536306818145" lon="15.043705559381708"><ele>96.0</ele><time>2026-04-30T14:11:23.002Z</time></trkpt><trkpt lat="36.85364554190658" lon="15.043592453291385"><ele>96.66666666666666</ele><time>2026-04-30T14:11:24.002Z</time></trkpt><trkpt lat="36.85365581932952" lon="15.043479635417404"><ele>97.33333333333333</ele><time>2026-04-30T14:11:25.002Z</time></trkpt><trkpt lat="36.853656668092626" lon="15.043395843956583"><ele>98.0</ele><time>2026-04-30T14:11:26.002Z</time></trkpt><trkpt lat="36.85365815207805" lon="15.043305375334677"><ele>98.66666666666666</ele><time>2026-04-30T14:11:27.002Z</time></trkpt><trkpt lat="36.853662232964474" lon="15.043203006923227"><ele>99.33333333333333</ele><time>2026-04-30T14:11:28.002Z</time></trkpt><trkpt lat="36.853665902458054" lon="15.043119254440937"><ele>100.0</ele><time>2026-04-30T14:11:29.002Z</time></trkpt><trkpt lat="36.85369859754501" lon="15.043017425413083"><ele>100.66666666666666</ele><time>2026-04-30T14:11:30.002Z</time></trkpt><trkpt lat="36.85372455860656" lon="15.04293242731159"><ele>101.33333333333333</ele><time>2026-04-30T14:11:31.002Z</time></trkpt><trkpt lat="36.85375310805041" lon="15.042854890263897"><ele>102.0</ele><time>2026-04-30T14:11:32.002Z</time></trkpt><trkpt lat="36.85379723688953" lon="15.042737500392764"><ele>102.0</ele><time>2026-04-30T14:11:33.002Z</time></trkpt><trkpt lat="36.85385193684598" lon="15.042620910985658"><ele>102.0</ele><time>2026-04-30T14:11:34.002Z</time></trkpt><trkpt lat="36.85392148276982" lon="15.042485037989747"><ele>102.0</ele><time>2026-04-30T14:11:35.002Z</time></trkpt><trkpt lat="36.85397978472022" lon="15.042371303334832"><ele>102.0</ele><time>2026-04-30T14:11:36.002Z</time></trkpt><trkpt lat="36.85404337702944" lon="15.042268563762667"><ele>102.0</ele><time>2026-04-30T14:11:37.002Z</time></trkpt><trkpt lat="36.8540854715565" lon="15.042180607463305"><ele>102.42857142857143</ele><time>2026-04-30T14:11:38.002Z</time></trkpt><trkpt lat="36.854110560191245" lon="15.042098338988604"><ele>102.85714285714286</ele><time>2026-04-30T14:11:39.002Z</time></trkpt><trkpt lat="36.854157392330954" lon="15.04201231956928"><ele>103.28571428571428</ele><time>2026-04-30T14:11:40.002Z</time></trkpt><trkpt lat="36.85418976467666" lon="15.041941842462334"><ele>103.71428571428572</ele><time>2026-04-30T14:11:41.002Z</time></trkpt><trkpt lat="36.85421559370134" lon="15.041869988807328"><ele>104.14285714285714</ele><time>2026-04-30T14:11:42.002Z</time></trkpt><trkpt lat="36.85424921803194" lon="15.041797004820333"><ele>104.57142857142857</ele><time>2026-04-30T14:11:43.002Z</time></trkpt><trkpt lat="36.85429748257128" lon="15.041723212936498"><ele>105.0</ele><time>2026-04-30T14:11:44.002Z</time></trkpt><trkpt lat="36.85434504020075" lon="15.041664374008917"><ele>105.2</ele><time>2026-04-30T14:11:45.002Z</time></trkpt><trkpt lat="36.85443963052272" lon="15.041564441528857"><ele>105.4</ele><time>2026-04-30T14:11:47.002Z</time></trkpt><trkpt lat="36.85449289443839" lon="15.041488394023576"><ele>105.6</ele><time>2026-04-30T14:11:48.002Z</time></trkpt><trkpt lat="36.85455588409925" lon="15.041382110256325"><ele>105.8</ele><time>2026-04-30T14:11:49.002Z</time></trkpt><trkpt lat="36.85461947248596" lon="15.041283516160803"><ele>106.0</ele><time>2026-04-30T14:11:50.002Z</time></trkpt><trkpt lat="36.85467224190291" lon="15.041202515607058"><ele>106.0</ele><time>2026-04-30T14:11:51.002Z</time></trkpt><trkpt lat="36.85472508994979" lon="15.041122648886434"><ele>106.0</ele><time>2026-04-30T14:11:52.002Z</time></trkpt><trkpt lat="36.85478617588159" lon="15.041048437401157"><ele>106.0</ele><time>2026-04-30T14:11:53.002Z</time></trkpt><trkpt lat="36.854853843682946" lon="15.040959383871247"><ele>106.0</ele><time>2026-04-30T14:11:54.002Z</time></trkpt><trkpt lat="36.85491660543237" lon="15.040866305562519"><ele>106.0</ele><time>2026-04-30T14:11:55.002Z</time></trkpt><trkpt lat="36.85497681276077" lon="15.040769882205185"><ele>105.16666666666667</ele><time>2026-04-30T14:11:56.002Z</time></trkpt><trkpt lat="36.85502170253506" lon="15.040686664932222"><ele>104.33333333333334</ele><time>2026-04-30T14:11:57.002Z</time></trkpt><trkpt lat="36.85507015331232" lon="15.040598643398273"><ele>103.5</ele><time>2026-04-30T14:11:58.002Z</time></trkpt><trkpt lat="36.85511420736119" lon="15.040514974450481"><ele>102.66666666666666</ele><time>2026-04-30T14:11:59Z</time></trkpt><trkpt lat="36.85516360001596" lon="15.040432830699759"><ele>101.83333333333333</ele><time>2026-04-30T14:12:00Z</time></trkpt><trkpt lat="36.85521129360747" lon="15.040346755209068"><ele>101.0</ele><time>2026-04-30T14:12:01Z</time></trkpt><trkpt lat="36.85525393931993" lon="15.040262178195476"><ele>100.83333333333333</ele><time>2026-04-30T14:12:02Z</time></trkpt><trkpt lat="36.85529220496631" lon="15.040183247398069"><ele>100.66666666666666</ele><time>2026-04-30T14:12:03Z</time></trkpt><trkpt lat="36.85534308891612" lon="15.040085033945973"><ele>100.5</ele><time>2026-04-30T14:12:04Z</time></trkpt><trkpt lat="36.85538496912633" lon="15.03999575934969"><ele>100.33333333333334</ele><time>2026-04-30T14:12:05Z</time></trkpt><trkpt lat="36.85543363085503" lon="15.03993110479212"><ele>100.16666666666667</ele><time>2026-04-30T14:12:06Z</time></trkpt><trkpt lat="36.8554813572271" lon="15.039832085582928"><ele>100.0</ele><time>2026-04-30T14:12:07Z</time></trkpt><trkpt lat="36.8555261960388" lon="15.039732639971161"><ele>99.5</ele><time>2026-04-30T14:12:08Z</time></trkpt><trkpt lat="36.855581147819514" lon="15.039615159642269"><ele>99.0</ele><time>2026-04-30T14:12:10Z</time></trkpt><trkpt lat="36.85563493098591" lon="15.039502847590365"><ele>98.5</ele><time>2026-04-30T14:12:12Z</time></trkpt><trkpt lat="36.855536927029135" lon="15.039325082364543"><ele>98.0</ele><time>2026-04-30T14:12:16Z</time></trkpt><trkpt lat="36.85548919872166" lon="15.039224987225902"><ele>97.99999999999999</ele><time>2026-04-30T14:12:18Z</time></trkpt><trkpt lat="36.85545925743543" lon="15.039141017037181"><ele>98.0</ele><time>2026-04-30T14:12:20Z</time></trkpt><trkpt lat="36.8554215524432" lon="15.039044206909965"><ele>98.0</ele><time>2026-04-30T14:12:22Z</time></trkpt><trkpt lat="36.855390151735975" lon="15.038957014302586"><ele>98.0</ele><time>2026-04-30T14:12:24Z</time></trkpt><trkpt lat="36.8553632478372" lon="15.038838227986842"><ele>97.99999999999999</ele><time>2026-04-30T14:12:26Z</time></trkpt><trkpt lat="36.85535552290508" lon="15.038739971569154"><ele>98.0</ele><time>2026-04-30T14:12:28Z</time></trkpt><trkpt lat="36.8553715423112" lon="15.038610075125439"><ele>96.60000000000001</ele><time>2026-04-30T14:12:30Z</time></trkpt><trkpt lat="36.85541528094224" lon="15.038523353533101"><ele>95.2</ele><time>2026-04-30T14:12:32Z</time></trkpt><trkpt lat="36.85544884997016" lon="15.038408424339103"><ele>93.8</ele><time>2026-04-30T14:12:34Z</time></trkpt><trkpt lat="36.855463810047375" lon="15.038306180980314"><ele>92.4</ele><time>2026-04-30T14:12:36.001Z</time></trkpt><trkpt lat="36.85548400563793" lon="15.038211567148714"><ele>91.0</ele><time>2026-04-30T14:12:38.001Z</time></trkpt><trkpt lat="36.8555015844268" lon="15.038055072429206"><ele>90.6</ele><time>2026-04-30T14:12:40.001Z</time></trkpt><trkpt lat="36.85551029728817" lon="15.037970671293106"><ele>90.19999999999999</ele><time>2026-04-30T14:12:41.001Z</time></trkpt><trkpt lat="36.85548894144128" lon="15.037832214239554"><ele>89.80000000000001</ele><time>2026-04-30T14:12:43.001Z</time></trkpt><trkpt lat="36.85545408116541" lon="15.037693090066906"><ele>89.4</ele><time>2026-04-30T14:12:45.001Z</time></trkpt><trkpt lat="36.855412513325405" lon="15.037601230860709"><ele>89.0</ele><time>2026-04-30T14:12:47.001Z</time></trkpt><trkpt lat="36.85534714912033" lon="15.037499992105634"><ele>90.0</ele><time>2026-04-30T14:12:49.001Z</time></trkpt><trkpt lat="36.85528665541608" lon="15.037389400844171"><ele>91.0</ele><time>2026-04-30T14:12:51.001Z</time></trkpt><trkpt lat="36.85525026652935" lon="15.037255574789492"><ele>92.0</ele><time>2026-04-30T14:12:53.001Z</time></trkpt><trkpt lat="36.85525263854706" lon="15.03711831283934"><ele>93.0</ele><time>2026-04-30T14:12:55.001Z</time></trkpt><trkpt lat="36.85526610270974" lon="15.03704032425242"><ele>94.0</ele><time>2026-04-30T14:12:56.001Z</time></trkpt><trkpt lat="36.85528637985655" lon="15.036965512773424"><ele>94.0</ele><time>2026-04-30T14:12:57.001Z</time></trkpt><trkpt lat="36.85532140308853" lon="15.036852574495775"><ele>94.0</ele><time>2026-04-30T14:12:59.001Z</time></trkpt><trkpt lat="36.85533801918369" lon="15.036716815062045"><ele>94.0</ele><time>2026-04-30T14:13:01.001Z</time></trkpt><trkpt lat="36.855362447167906" lon="15.036588033640292"><ele>94.0</ele><time>2026-04-30T14:13:03.001Z</time></trkpt><trkpt lat="36.855392124708594" lon="15.036470886427121"><ele>94.0</ele><time>2026-04-30T14:13:05.001Z</time></trkpt><trkpt lat="36.85546311785032" lon="15.036394462365113"><ele>96.66666666666666</ele><time>2026-04-30T14:13:08.001Z</time></trkpt><trkpt lat="36.85550817793179" lon="15.036303272854655"><ele>99.33333333333333</ele><time>2026-04-30T14:13:12.001Z</time></trkpt><trkpt lat="36.855556297995165" lon="15.036246747391894"><ele>102.0</ele><time>2026-04-30T14:14:41Z</time></trkpt><trkpt lat="36.855596290308924" lon="15.036134610841902"><ele>104.66666666666666</ele><time>2026-04-30T14:14:51Z</time></trkpt><trkpt lat="36.8556148785735" lon="15.036053482751209"><ele>107.33333333333333</ele><time>2026-04-30T14:14:53Z</time></trkpt><trkpt lat="36.85564006727117" lon="15.035954668537817"><ele>110.0</ele><time>2026-04-30T14:14:56Z</time></trkpt><trkpt lat="36.855661622954976" lon="15.035873510569914"><ele>110.83333333333333</ele><time>2026-04-30T14:14:58.001Z</time></trkpt><trkpt lat="36.855682477441576" lon="15.035782481382753"><ele>111.66666666666666</ele><time>2026-04-30T14:15:00.001Z</time></trkpt><trkpt lat="36.855711056903324" lon="15.035692725427168"><ele>112.5</ele><time>2026-04-30T14:15:02.001Z</time></trkpt><trkpt lat="36.855737698994105" lon="15.035590613000387"><ele>113.33333333333334</ele><time>2026-04-30T14:15:04.001Z</time></trkpt><trkpt lat="36.855761260299225" lon="15.035486410220363"><ele>114.16666666666667</ele><time>2026-04-30T14:15:06.001Z</time></trkpt><trkpt lat="36.85578996833945" lon="15.035404952975233"><ele>115.0</ele><time>2026-04-30T14:15:07.001Z</time></trkpt><trkpt lat="36.855831608160855" lon="15.035317716370406"><ele>115.00000000000001</ele><time>2026-04-30T14:15:08.001Z</time></trkpt><trkpt lat="36.85589276128523" lon="15.03518548226223"><ele>115.0</ele><time>2026-04-30T14:15:10.001Z</time></trkpt><trkpt lat="36.855953996312394" lon="15.035100603689346"><ele>115.0</ele><time>2026-04-30T14:15:12.001Z</time></trkpt><trkpt lat="36.855988938536456" lon="15.035034623838273"><ele>115.0</ele><time>2026-04-30T14:15:13.001Z</time></trkpt><trkpt lat="36.85601486183519" lon="15.034958893527723"><ele>115.00000000000001</ele><time>2026-04-30T14:15:14.001Z</time></trkpt><trkpt lat="36.85606854383475" lon="15.034845122272408"><ele>115.0</ele><time>2026-04-30T14:15:16.001Z</time></trkpt><trkpt lat="36.856116862653906" lon="15.03473750932304"><ele>115.33333333333334</ele><time>2026-04-30T14:15:18.001Z</time></trkpt><trkpt lat="36.85613328641946" lon="15.034660323447008"><ele>115.66666666666667</ele><time>2026-04-30T14:15:19.001Z</time></trkpt><trkpt lat="36.856165738670725" lon="15.03458325956888"><ele>116.0</ele><time>2026-04-30T14:15:20.001Z</time></trkpt><trkpt lat="36.85620193699142" lon="15.03451670857325"><ele>116.33333333333334</ele><time>2026-04-30T14:15:21.001Z</time></trkpt><trkpt lat="36.8562356826071" lon="15.034446406788227"><ele>116.66666666666667</ele><time>2026-04-30T14:15:22.001Z</time></trkpt><trkpt lat="36.85629794950329" lon="15.034324721864701"><ele>117.0</ele><time>2026-04-30T14:15:24.001Z</time></trkpt><trkpt lat="36.85635042248699" lon="15.034233809111889"><ele>116.8</ele><time>2026-04-30T14:15:26.001Z</time></trkpt><trkpt lat="36.85642697205638" lon="15.034096804090236"><ele>116.6</ele><time>2026-04-30T14:15:28.001Z</time></trkpt><trkpt lat="36.85650803058829" lon="15.034006871115608"><ele>116.39999999999999</ele><time>2026-04-30T14:15:30.001Z</time></trkpt><trkpt lat="36.85658367438664" lon="15.033905865572978"><ele>116.19999999999999</ele><time>2026-04-30T14:15:32.001Z</time></trkpt><trkpt lat="36.85664456336256" lon="15.033829171665733"><ele>116.0</ele><time>2026-04-30T14:15:35.001Z</time></trkpt><trkpt lat="36.85669982030776" lon="15.033731506561253"><ele>115.99999999999999</ele><time>2026-04-30T14:15:37.001Z</time></trkpt><trkpt lat="36.856730944582914" lon="15.033653560066474"><ele>116.0</ele><time>2026-04-30T14:15:39.001Z</time></trkpt><trkpt lat="36.85678960010219" lon="15.033581701696235"><ele>116.0</ele><time>2026-04-30T14:15:46.002Z</time></trkpt><trkpt lat="36.8568363569321" lon="15.033481376536045"><ele>116.0</ele><time>2026-04-30T14:15:48.002Z</time></trkpt><trkpt lat="36.85687033124967" lon="15.033364498897003"><ele>115.99999999999999</ele><time>2026-04-30T14:15:50.002Z</time></trkpt><trkpt lat="36.856906307762266" lon="15.03325984794304"><ele>116.0</ele><time>2026-04-30T14:15:52.002Z</time></trkpt><trkpt lat="36.85694950700681" lon="15.033184840001013"><ele>117.19999999999999</ele><time>2026-04-30T14:15:54.002Z</time></trkpt><trkpt lat="36.857018163958166" lon="15.033119213715462"><ele>118.39999999999999</ele><time>2026-04-30T14:15:56.002Z</time></trkpt><trkpt lat="36.857080645307505" lon="15.033049067993696"><ele>119.6</ele><time>2026-04-30T14:15:58.002Z</time></trkpt><trkpt lat="36.857157054395685" lon="15.032934922595299"><ele>120.8</ele><time>2026-04-30T14:16:00.002Z</time></trkpt><trkpt lat="36.85722832634193" lon="15.032813984737865"><ele>122.0</ele><time>2026-04-30T14:16:03.002Z</time></trkpt><trkpt lat="36.85726794847321" lon="15.03274746140944"><ele>122.0</ele><time>2026-04-30T14:16:04.002Z</time></trkpt><trkpt lat="36.85733050278399" lon="15.032694665020834"><ele>121.99999999999999</ele><time>2026-04-30T14:16:06.002Z</time></trkpt><trkpt lat="36.85743917206079" lon="15.032646300831532"><ele>121.99999999999999</ele><time>2026-04-30T14:16:09.002Z</time></trkpt><trkpt lat="36.8575453569258" lon="15.032580140459963"><ele>122.0</ele><time>2026-04-30T14:16:10.999Z</time></trkpt><trkpt lat="36.85765592901199" lon="15.032519072298467"><ele>122.0</ele><time>2026-04-30T14:16:12.999Z</time></trkpt><trkpt lat="36.85774064987492" lon="15.032474280455284"><ele>120.16666666666666</ele><time>2026-04-30T14:16:14.999Z</time></trkpt><trkpt lat="36.85784593275102" lon="15.032427490653351"><ele>118.33333333333333</ele><time>2026-04-30T14:16:16.999Z</time></trkpt><trkpt lat="36.85792045355689" lon="15.032383370665288"><ele>116.5</ele><time>2026-04-30T14:16:18.999Z</time></trkpt><trkpt lat="36.85799694795743" lon="15.032332963289647"><ele>114.66666666666666</ele><time>2026-04-30T14:16:20.999Z</time></trkpt><trkpt lat="36.85804329183575" lon="15.032274725636588"><ele>112.83333333333333</ele><time>2026-04-30T14:16:22.999Z</time></trkpt><trkpt lat="36.858078008091404" lon="15.03215533417716"><ele>111.0</ele><time>2026-04-30T14:16:24.999Z</time></trkpt><trkpt lat="36.858136377363905" lon="15.032053739545555"><ele>111.0</ele><time>2026-04-30T14:16:26.999Z</time></trkpt><trkpt lat="36.85817072912478" lon="15.031942365474594"><ele>111.0</ele><time>2026-04-30T14:16:28.999Z</time></trkpt><trkpt lat="36.85820165656562" lon="15.0318376795338"><ele>111.0</ele><time>2026-04-30T14:16:30.999Z</time></trkpt><trkpt lat="36.85823005199248" lon="15.031733979952064"><ele>111.0</ele><time>2026-04-30T14:16:32.999Z</time></trkpt><trkpt lat="36.85824377245649" lon="15.031653449216"><ele>111.0</ele><time>2026-04-30T14:16:33.999Z</time></trkpt><trkpt lat="36.85825142471439" lon="15.031569266749882"><ele>111.0</ele><time>2026-04-30T14:16:35Z</time></trkpt><trkpt lat="36.858264149664905" lon="15.031486623889124"><ele>112.8</ele><time>2026-04-30T14:16:36Z</time></trkpt><trkpt lat="36.85827413026441" lon="15.031401651934937"><ele>114.6</ele><time>2026-04-30T14:16:37Z</time></trkpt><trkpt lat="36.85827556028314" lon="15.031278857820253"><ele>116.4</ele><time>2026-04-30T14:16:39Z</time></trkpt><trkpt lat="36.85829350733864" lon="15.031157274472834"><ele>118.2</ele><time>2026-04-30T14:16:41Z</time></trkpt><trkpt lat="36.85839436618409" lon="15.03117794391459"><ele>120.0</ele><time>2026-04-30T14:16:44Z</time></trkpt><trkpt lat="36.858490323305965" lon="15.031249989634452"><ele>120.0</ele><time>2026-04-30T14:16:46Z</time></trkpt><trkpt lat="36.858587587668666" lon="15.03130730320179"><ele>120.0</ele><time>2026-04-30T14:16:48Z</time></trkpt><trkpt lat="36.85867332375884" lon="15.031314595702007"><ele>120.0</ele><time>2026-04-30T14:16:50Z</time></trkpt><trkpt lat="36.85878601212164" lon="15.031311900205008"><ele>120.0</ele><time>2026-04-30T14:16:52Z</time></trkpt><trkpt lat="36.858879914068396" lon="15.03132157810401"><ele>120.0</ele><time>2026-04-30T14:16:54Z</time></trkpt><trkpt lat="36.85896737477574" lon="15.03134856058863"><ele>120.0</ele><time>2026-04-30T14:16:56Z</time></trkpt><trkpt lat="36.859035118313415" lon="15.03139449597416"><ele>120.0</ele><time>2026-04-30T14:16:58Z</time></trkpt><trkpt lat="36.85909342990668" lon="15.031458009110812"><ele>120.0</ele><time>2026-04-30T14:17:01Z</time></trkpt><trkpt lat="36.85914898673877" lon="15.031543493569501"><ele>120.0</ele><time>2026-04-30T14:17:05.001Z</time></trkpt><trkpt lat="36.85920615691101" lon="15.031618031756377"><ele>120.0</ele><time>2026-04-30T14:17:07.001Z</time></trkpt><trkpt lat="36.85925488335977" lon="15.031677165242328"><ele>120.0</ele><time>2026-04-30T14:17:09.001Z</time></trkpt><trkpt lat="36.85931012049029" lon="15.031732114724946"><ele>116.5</ele><time>2026-04-30T14:17:11.001Z</time></trkpt><trkpt lat="36.8593757745961" lon="15.031710488320245"><ele>113.0</ele><time>2026-04-30T14:17:14.001Z</time></trkpt><trkpt lat="36.85945992000343" lon="15.031661383687018"><ele>109.5</ele><time>2026-04-30T14:17:17.001Z</time></trkpt><trkpt lat="36.859523297522045" lon="15.031634525976331"><ele>106.0</ele><time>2026-04-30T14:17:19.001Z</time></trkpt><trkpt lat="36.859614468742016" lon="15.031580063162401"><ele>102.5</ele><time>2026-04-30T14:17:22.001Z</time></trkpt><trkpt lat="36.85967458821251" lon="15.03153185021385"><ele>99.0</ele><time>2026-04-30T14:17:24.001Z</time></trkpt><trkpt lat="36.85976177781483" lon="15.031499017326025"><ele>99.0</ele><time>2026-04-30T14:17:27.001Z</time></trkpt><trkpt lat="36.859832212710934" lon="15.031432594475701"><ele>99.0</ele><time>2026-04-30T14:17:29.001Z</time></trkpt><trkpt lat="36.85992237115367" lon="15.031313258421017"><ele>99.0</ele><time>2026-04-30T14:17:31.001Z</time></trkpt><trkpt lat="36.85996850099531" lon="15.031232852565989"><ele>99.0</ele><time>2026-04-30T14:17:32.001Z</time></trkpt><trkpt lat="36.86001861209573" lon="15.03109980671924"><ele>99.0</ele><time>2026-04-30T14:17:34.001Z</time></trkpt><trkpt lat="36.86008927847989" lon="15.031035027124618"><ele>100.16666666666667</ele><time>2026-04-30T14:17:36.001Z</time></trkpt><trkpt lat="36.86015480095432" lon="15.030967753519382"><ele>101.33333333333334</ele><time>2026-04-30T14:17:38.001Z</time></trkpt><trkpt lat="36.86022846408917" lon="15.030981998352278"><ele>102.5</ele><time>2026-04-30T14:17:41.002Z</time></trkpt><trkpt lat="36.86024999628291" lon="15.031092762027088"><ele>103.66666666666667</ele><time>2026-04-30T14:17:44.002Z</time></trkpt><trkpt lat="36.860223027087606" lon="15.031185625984557"><ele>104.83333333333334</ele><time>2026-04-30T14:17:46.002Z</time></trkpt><trkpt lat="36.86019099063065" lon="15.031321794825686"><ele>106.0</ele><time>2026-04-30T14:17:48.002Z</time></trkpt><trkpt lat="36.86018854656556" lon="15.031403755575235"><ele>106.00000000000001</ele><time>2026-04-30T14:17:49.002Z</time></trkpt><trkpt lat="36.86018217515173" lon="15.031489563719907"><ele>106.0</ele><time>2026-04-30T14:17:50.002Z</time></trkpt><trkpt lat="36.860193229581945" lon="15.031639983623995"><ele>106.0</ele><time>2026-04-30T14:17:52.002Z</time></trkpt><trkpt lat="36.86022138962083" lon="15.031712022386504"><ele>106.0</ele><time>2026-04-30T14:17:53.002Z</time></trkpt><trkpt lat="36.86025589667778" lon="15.031796963252937"><ele>106.00000000000001</ele><time>2026-04-30T14:17:54.002Z</time></trkpt><trkpt lat="36.86028830331172" lon="15.031888879210127"><ele>106.0</ele><time>2026-04-30T14:17:55.002Z</time></trkpt><trkpt lat="36.860313709308855" lon="15.031964036889102"><ele>106.00000000000001</ele><time>2026-04-30T14:17:56.002Z</time></trkpt><trkpt lat="36.86035220293647" lon="15.032036158635652"><ele>106.0</ele><time>2026-04-30T14:17:57.002Z</time></trkpt><trkpt lat="36.860403927572776" lon="15.032116105422862"><ele>106.0</ele><time>2026-04-30T14:17:58.002Z</time></trkpt><trkpt lat="36.86046445288928" lon="15.032209744577752"><ele>106.0</ele><time>2026-04-30T14:17:59.002Z</time></trkpt><trkpt lat="36.860516773803695" lon="15.032299085256165"><ele>106.00000000000001</ele><time>2026-04-30T14:18:00.002Z</time></trkpt><trkpt lat="36.860566978242865" lon="15.032370089177043"><ele>106.0</ele><time>2026-04-30T14:18:01.002Z</time></trkpt><trkpt lat="36.86060601732536" lon="15.032437416270936"><ele>105.4</ele><time>2026-04-30T14:18:02.002Z</time></trkpt><trkpt lat="36.86069059796679" lon="15.032514174988561"><ele>104.8</ele><time>2026-04-30T14:18:04.002Z</time></trkpt><trkpt lat="36.860793869327416" lon="15.03258928157342"><ele>104.2</ele><time>2026-04-30T14:18:06.002Z</time></trkpt><trkpt lat="36.8608695305524" lon="15.032619190176769"><ele>103.60000000000001</ele><time>2026-04-30T14:18:07.002Z</time></trkpt><trkpt lat="36.86093842957539" lon="15.03266858245245"><ele>103.0</ele><time>2026-04-30T14:18:08.002Z</time></trkpt><trkpt lat="36.86100205847044" lon="15.032713446081827"><ele>103.00000000000001</ele><time>2026-04-30T14:18:09.002Z</time></trkpt><trkpt lat="36.861077028424006" lon="15.0327670483749"><ele>103.0</ele><time>2026-04-30T14:18:10.002Z</time></trkpt><trkpt lat="36.86116869062145" lon="15.032815979934153"><ele>103.0</ele><time>2026-04-30T14:18:11.002Z</time></trkpt><trkpt lat="36.86125451760974" lon="15.032855026906317"><ele>103.0</ele><time>2026-04-30T14:18:12.002Z</time></trkpt><trkpt lat="36.86132759298781" lon="15.03288963994594"><ele>103.00000000000001</ele><time>2026-04-30T14:18:13.002Z</time></trkpt><trkpt lat="36.86139857042196" lon="15.03289696803284"><ele>103.0</ele><time>2026-04-30T14:18:14.002Z</time></trkpt><trkpt lat="36.86146553645684" lon="15.032885799301669"><ele>103.00000000000001</ele><time>2026-04-30T14:18:15.002Z</time></trkpt><trkpt lat="36.86158242218339" lon="15.032853563592932"><ele>103.0</ele><time>2026-04-30T14:18:17Z</time></trkpt><trkpt lat="36.86165064756881" lon="15.032854288667796"><ele>103.0</ele><time>2026-04-30T14:18:18Z</time></trkpt><trkpt lat="36.861695767942535" lon="15.032918492991419"><ele>103.0</ele><time>2026-04-30T14:18:19Z</time></trkpt><trkpt lat="36.86173820394058" lon="15.033011313882206"><ele>103.00000000000001</ele><time>2026-04-30T14:18:20Z</time></trkpt><trkpt lat="36.86179325917493" lon="15.033110514533938"><ele>103.0</ele><time>2026-04-30T14:18:21Z</time></trkpt><trkpt lat="36.86184662436618" lon="15.033207144595004"><ele>105.4</ele><time>2026-04-30T14:18:22Z</time></trkpt><trkpt lat="36.861893677318655" lon="15.033292344821925"><ele>107.80000000000001</ele><time>2026-04-30T14:18:23Z</time></trkpt><trkpt lat="36.86195605757422" lon="15.033406199716024"><ele>110.2</ele><time>2026-04-30T14:18:24Z</time></trkpt><trkpt lat="36.862017108370914" lon="15.033517936402738"><ele>112.6</ele><time>2026-04-30T14:18:25Z</time></trkpt><trkpt lat="36.86208262077786" lon="15.033639760460881"><ele>115.0</ele><time>2026-04-30T14:18:26Z</time></trkpt><trkpt lat="36.862145909573385" lon="15.033755477048434"><ele>115.00000000000001</ele><time>2026-04-30T14:18:27Z</time></trkpt><trkpt lat="36.86220065650755" lon="15.033853590005027"><ele>115.0</ele><time>2026-04-30T14:18:28Z</time></trkpt><trkpt lat="36.86225726163333" lon="15.033934312151223"><ele>115.0</ele><time>2026-04-30T14:18:29Z</time></trkpt><trkpt lat="36.86230163656103" lon="15.034014315299858"><ele>115.0</ele><time>2026-04-30T14:18:30Z</time></trkpt><trkpt lat="36.862341530843125" lon="15.034075274700628"><ele>115.00000000000001</ele><time>2026-04-30T14:18:31Z</time></trkpt><trkpt lat="36.862427591075495" lon="15.034150654458898"><ele>115.0</ele><time>2026-04-30T14:18:33Z</time></trkpt><trkpt lat="36.862544918859804" lon="15.034185530655154"><ele>112.66666666666667</ele><time>2026-04-30T14:18:35Z</time></trkpt><trkpt lat="36.862615888390486" lon="15.034197496823667"><ele>110.33333333333334</ele><time>2026-04-30T14:18:36Z</time></trkpt><trkpt lat="36.86274818527605" lon="15.034218352769068"><ele>108.0</ele><time>2026-04-30T14:18:38Z</time></trkpt><trkpt lat="36.86281164232635" lon="15.034234928081682"><ele>105.66666666666666</ele><time>2026-04-30T14:18:39Z</time></trkpt><trkpt lat="36.86288137667966" lon="15.034249769476054"><ele>103.33333333333333</ele><time>2026-04-30T14:18:40Z</time></trkpt><trkpt lat="36.86296143925781" lon="15.03426466466666"><ele>101.0</ele><time>2026-04-30T14:18:41Z</time></trkpt><trkpt lat="36.863058545255015" lon="15.034281881346839"><ele>101.0</ele><time>2026-04-30T14:18:42Z</time></trkpt><trkpt lat="36.86315099900275" lon="15.034293540168267"><ele>101.0</ele><time>2026-04-30T14:18:43Z</time></trkpt><trkpt lat="36.8632588999188" lon="15.034313940617636"><ele>101.0</ele><time>2026-04-30T14:18:44Z</time></trkpt><trkpt lat="36.86336148468472" lon="15.034337371587908"><ele>101.0</ele><time>2026-04-30T14:18:45Z</time></trkpt><trkpt lat="36.8634474677219" lon="15.034368545795337"><ele>101.0</ele><time>2026-04-30T14:18:46Z</time></trkpt><trkpt lat="36.86352982765099" lon="15.034382423870776"><ele>100.66666666666666</ele><time>2026-04-30T14:18:47Z</time></trkpt><trkpt lat="36.86362414427413" lon="15.034398316703168"><ele>100.33333333333333</ele><time>2026-04-30T14:18:48Z</time></trkpt><trkpt lat="36.863718790629" lon="15.034397662557813"><ele>100.0</ele><time>2026-04-30T14:18:49Z</time></trkpt><trkpt lat="36.86380123924863" lon="15.034412103620344"><ele>99.66666666666666</ele><time>2026-04-30T14:18:50Z</time></trkpt><trkpt lat="36.86388195191361" lon="15.034415975991182"><ele>99.33333333333333</ele><time>2026-04-30T14:18:51Z</time></trkpt><trkpt lat="36.86396573992858" lon="15.03443442884945"><ele>99.0</ele><time>2026-04-30T14:18:52Z</time></trkpt><trkpt lat="36.86406249182232" lon="15.034447286902562"><ele>99.0</ele><time>2026-04-30T14:18:53.001Z</time></trkpt><trkpt lat="36.864146467801476" lon="15.034459719456267"><ele>99.0</ele><time>2026-04-30T14:18:54.001Z</time></trkpt><trkpt lat="36.864236612544715" lon="15.034469698124845"><ele>99.0</ele><time>2026-04-30T14:18:55.001Z</time></trkpt><trkpt lat="36.86433895218022" lon="15.034476378841319"><ele>99.0</ele><time>2026-04-30T14:18:56.001Z</time></trkpt><trkpt lat="36.86445377161841" lon="15.034480102023302"><ele>99.0</ele><time>2026-04-30T14:18:57.001Z</time></trkpt><trkpt lat="36.86456872587997" lon="15.034481863337898"><ele>99.2</ele><time>2026-04-30T14:18:58.001Z</time></trkpt><trkpt lat="36.86468019844767" lon="15.034501387922925"><ele>99.4</ele><time>2026-04-30T14:18:59.001Z</time></trkpt><trkpt lat="36.864785650573424" lon="15.034509467236346"><ele>99.6</ele><time>2026-04-30T14:19:00.001Z</time></trkpt><trkpt lat="36.86489662856994" lon="15.034520820772459"><ele>99.8</ele><time>2026-04-30T14:19:01.001Z</time></trkpt><trkpt lat="36.86501301911745" lon="15.034523871368691"><ele>100.0</ele><time>2026-04-30T14:19:02.001Z</time></trkpt><trkpt lat="36.865128266026574" lon="15.034545465887934"><ele>100.0</ele><time>2026-04-30T14:19:03.001Z</time></trkpt><trkpt lat="36.86523601352933" lon="15.034563688253474"><ele>100.0</ele><time>2026-04-30T14:19:04.001Z</time></trkpt><trkpt lat="36.865349559997206" lon="15.034587518578721"><ele>100.0</ele><time>2026-04-30T14:19:05.001Z</time></trkpt><trkpt lat="36.86547175319854" lon="15.034608908498788"><ele>100.0</ele><time>2026-04-30T14:19:06.001Z</time></trkpt><trkpt lat="36.86560355105343" lon="15.034612481722956"><ele>100.0</ele><time>2026-04-30T14:19:07.001Z</time></trkpt><trkpt lat="36.865733233887816" lon="15.034600596532991"><ele>100.0</ele><time>2026-04-30T14:19:08.001Z</time></trkpt><trkpt lat="36.865843385081895" lon="15.03458788915258"><ele>100.0</ele><time>2026-04-30T14:19:09.001Z</time></trkpt><trkpt lat="36.86594607101917" lon="15.03458249144348"><ele>100.0</ele><time>2026-04-30T14:19:10.001Z</time></trkpt><trkpt lat="36.86604673725195" lon="15.034575664626207"><ele>100.0</ele><time>2026-04-30T14:19:11.001Z</time></trkpt><trkpt lat="36.866146158860445" lon="15.034575475022587"><ele>100.6</ele><time>2026-04-30T14:19:12.001Z</time></trkpt><trkpt lat="36.86625643305858" lon="15.034588690410523"><ele>101.2</ele><time>2026-04-30T14:19:13.001Z</time></trkpt><trkpt lat="36.866363982193846" lon="15.034615778453654"><ele>101.80000000000001</ele><time>2026-04-30T14:19:14.001Z</time></trkpt><trkpt lat="36.86646731300601" lon="15.034647513938186"><ele>102.4</ele><time>2026-04-30T14:19:15.001Z</time></trkpt><trkpt lat="36.86656595285037" lon="15.034676204917893"><ele>103.0</ele><time>2026-04-30T14:19:16.001Z</time></trkpt><trkpt lat="36.86666765128746" lon="15.034735129363964"><ele>103.0</ele><time>2026-04-30T14:19:17.001Z</time></trkpt><trkpt lat="36.86677195452602" lon="15.034791294794859"><ele>103.0</ele><time>2026-04-30T14:19:18.001Z</time></trkpt><trkpt lat="36.86688025923596" lon="15.034875830751535"><ele>103.0</ele><time>2026-04-30T14:19:19.001Z</time></trkpt><trkpt lat="36.866989593896626" lon="15.034989986547767"><ele>103.0</ele><time>2026-04-30T14:19:20.001Z</time></trkpt><trkpt lat="36.86711578927354" lon="15.035108544327471"><ele>105.75</ele><time>2026-04-30T14:19:21.001Z</time></trkpt><trkpt lat="36.86722448560699" lon="15.03520218466389"><ele>108.5</ele><time>2026-04-30T14:19:22.001Z</time></trkpt><trkpt lat="36.86733147302612" lon="15.035271071014998"><ele>111.25</ele><time>2026-04-30T14:19:23.001Z</time></trkpt><trkpt lat="36.86742701800662" lon="15.035360318879844"><ele>114.0</ele><time>2026-04-30T14:19:24.001Z</time></trkpt><trkpt lat="36.86752537729647" lon="15.035438302064998"><ele>116.4</ele><time>2026-04-30T14:19:25.001Z</time></trkpt><trkpt lat="36.86761880630448" lon="15.035514654887121"><ele>118.80000000000001</ele><time>2026-04-30T14:19:26.001Z</time></trkpt><trkpt lat="36.86770617936488" lon="15.03559658347882"><ele>121.19999999999999</ele><time>2026-04-30T14:19:27.001Z</time></trkpt><trkpt lat="36.86780064057528" lon="15.035662188110281"><ele>123.6</ele><time>2026-04-30T14:19:28.001Z</time></trkpt><trkpt lat="36.86788635981224" lon="15.035734740408339"><ele>126.0</ele><time>2026-04-30T14:19:29.001Z</time></trkpt><trkpt lat="36.86797795559202" lon="15.035798148146675"><ele>126.6</ele><time>2026-04-30T14:19:30.001Z</time></trkpt><trkpt lat="36.8680703766106" lon="15.035864886768243"><ele>127.19999999999999</ele><time>2026-04-30T14:19:31.002Z</time></trkpt><trkpt lat="36.86816580969922" lon="15.035923769511832"><ele>127.80000000000001</ele><time>2026-04-30T14:19:32.002Z</time></trkpt><trkpt lat="36.86826028697694" lon="15.035983014155205"><ele>128.4</ele><time>2026-04-30T14:19:33.002Z</time></trkpt><trkpt lat="36.86835493716526" lon="15.036041378884423"><ele>129.0</ele><time>2026-04-30T14:19:34.002Z</time></trkpt><trkpt lat="36.86844926318416" lon="15.036092833315506"><ele>129.0</ele><time>2026-04-30T14:19:35.002Z</time></trkpt><trkpt lat="36.86854558523815" lon="15.036139769502858"><ele>129.0</ele><time>2026-04-30T14:19:36.002Z</time></trkpt><trkpt lat="36.86864252733112" lon="15.03617918874885"><ele>129.0</ele><time>2026-04-30T14:19:37.002Z</time></trkpt><trkpt lat="36.868747674526155" lon="15.036201506627581"><ele>129.0</ele><time>2026-04-30T14:19:38.002Z</time></trkpt><trkpt lat="36.8688504773693" lon="15.036196890816914"><ele>129.0</ele><time>2026-04-30T14:19:39.002Z</time></trkpt><trkpt lat="36.86894412355365" lon="15.036164724371078"><ele>129.0</ele><time>2026-04-30T14:19:40.002Z</time></trkpt><trkpt lat="36.86902100293159" lon="15.036105302719665"><ele>129.0</ele><time>2026-04-30T14:19:41.002Z</time></trkpt><trkpt lat="36.86906400665996" lon="15.0360343296486"><ele>129.0</ele><time>2026-04-30T14:19:42.002Z</time></trkpt><trkpt lat="36.86910901570447" lon="15.035941454117962"><ele>129.0</ele><time>2026-04-30T14:19:44.002Z</time></trkpt><trkpt lat="36.869203191642214" lon="15.035898330240432"><ele>129.0</ele><time>2026-04-30T14:19:46.002Z</time></trkpt><trkpt lat="36.86926719963577" lon="15.035883571350881"><ele>129.0</ele><time>2026-04-30T14:19:48.002Z</time></trkpt><trkpt lat="36.869361263776156" lon="15.03581384209597"><ele>128.8</ele><time>2026-04-30T14:19:51.002Z</time></trkpt><trkpt lat="36.8694427800622" lon="15.035756795750546"><ele>128.60000000000002</ele><time>2026-04-30T14:19:52.002Z</time></trkpt><trkpt lat="36.86953757067889" lon="15.035708821753591"><ele>128.4</ele><time>2026-04-30T14:19:53.002Z</time></trkpt><trkpt lat="36.869648635555954" lon="15.035657324360265"><ele>128.20000000000002</ele><time>2026-04-30T14:19:54.002Z</time></trkpt><trkpt lat="36.86975758138967" lon="15.035607888652883"><ele>128.0</ele><time>2026-04-30T14:19:55.002Z</time></trkpt><trkpt lat="36.86986440015996" lon="15.035563120727598"><ele>128.0</ele><time>2026-04-30T14:19:56.002Z</time></trkpt><trkpt lat="36.86997981066415" lon="15.035527873886199"><ele>128.0</ele><time>2026-04-30T14:19:57.002Z</time></trkpt><trkpt lat="36.87010442433173" lon="15.035509655233664"><ele>128.0</ele><time>2026-04-30T14:19:58.002Z</time></trkpt><trkpt lat="36.87023418183089" lon="15.03551544456554"><ele>128.0</ele><time>2026-04-30T14:19:59.002Z</time></trkpt><trkpt lat="36.87036920998068" lon="15.035528256515741"><ele>128.25</ele><time>2026-04-30T14:20:00.002Z</time></trkpt><trkpt lat="36.87051075252566" lon="15.035572901813909"><ele>128.5</ele><time>2026-04-30T14:20:01.002Z</time></trkpt><trkpt lat="36.87063491463157" lon="15.035634547983857"><ele>128.75</ele><time>2026-04-30T14:20:02.002Z</time></trkpt><trkpt lat="36.87074731005893" lon="15.035711555072114"><ele>129.0</ele><time>2026-04-30T14:20:03.002Z</time></trkpt><trkpt lat="36.8708454136874" lon="15.035807907240345"><ele>126.75</ele><time>2026-04-30T14:20:04.002Z</time></trkpt><trkpt lat="36.87092998114977" lon="15.035912244852021"><ele>124.5</ele><time>2026-04-30T14:20:05.002Z</time></trkpt><trkpt lat="36.87099952456184" lon="15.036028074970032"><ele>122.25</ele><time>2026-04-30T14:20:06.002Z</time></trkpt><trkpt lat="36.87106013611258" lon="15.036159183890657"><ele>120.0</ele><time>2026-04-30T14:20:07.002Z</time></trkpt><trkpt lat="36.87111613631439" lon="15.03631292826161"><ele>117.66666666666666</ele><time>2026-04-30T14:20:08.002Z</time></trkpt><trkpt lat="36.87116099185362" lon="15.036486211671573"><ele>115.33333333333333</ele><time>2026-04-30T14:20:09.003Z</time></trkpt><trkpt lat="36.871193187597235" lon="15.036672166358116"><ele>113.0</ele><time>2026-04-30T14:20:10.003Z</time></trkpt><trkpt lat="36.871225148285774" lon="15.036867295646664"><ele>112.5</ele><time>2026-04-30T14:20:11.003Z</time></trkpt><trkpt lat="36.87126861001155" lon="15.037060474995295"><ele>112.0</ele><time>2026-04-30T14:20:12.003Z</time></trkpt><trkpt lat="36.87132435236645" lon="15.037223859287206"><ele>111.5</ele><time>2026-04-30T14:20:13.003Z</time></trkpt><trkpt lat="36.87140257817609" lon="15.037376733456442"><ele>111.0</ele><time>2026-04-30T14:20:14.003Z</time></trkpt><trkpt lat="36.87149399783648" lon="15.037527596739148"><ele>110.0</ele><time>2026-04-30T14:20:15.003Z</time></trkpt><trkpt lat="36.87159854708821" lon="15.037677605040784"><ele>109.0</ele><time>2026-04-30T14:20:16.003Z</time></trkpt><trkpt lat="36.87171172581752" lon="15.037829127840023"><ele>108.0</ele><time>2026-04-30T14:20:17.003Z</time></trkpt><trkpt lat="36.8718210939635" lon="15.03796457338845"><ele>108.0</ele><time>2026-04-30T14:20:18.003Z</time></trkpt><trkpt lat="36.871928241394286" lon="15.038098526974474"><ele>108.0</ele><time>2026-04-30T14:20:19.003Z</time></trkpt><trkpt lat="36.872033155049756" lon="15.038242191187539"><ele>108.0</ele><time>2026-04-30T14:20:20.003Z</time></trkpt><trkpt lat="36.87215086978146" lon="15.038393581850178"><ele>108.0</ele><time>2026-04-30T14:20:21.003Z</time></trkpt><trkpt lat="36.872263896330644" lon="15.038539566371593"><ele>108.0</ele><time>2026-04-30T14:20:22.003Z</time></trkpt><trkpt lat="36.87238246141745" lon="15.038679271607553"><ele>108.0</ele><time>2026-04-30T14:20:23.001Z</time></trkpt><trkpt lat="36.872517342325324" lon="15.038821459093839"><ele>108.33333333333334</ele><time>2026-04-30T14:20:24.001Z</time></trkpt><trkpt lat="36.87265556377179" lon="15.038951840808902"><ele>108.66666666666667</ele><time>2026-04-30T14:20:25.001Z</time></trkpt><trkpt lat="36.87279364667994" lon="15.039074378524026"><ele>109.0</ele><time>2026-04-30T14:20:26.001Z</time></trkpt><trkpt lat="36.872933417489136" lon="15.039190512959426"><ele>110.0</ele><time>2026-04-30T14:20:27.001Z</time></trkpt><trkpt lat="36.87307859649388" lon="15.039307297700294"><ele>111.0</ele><time>2026-04-30T14:20:28.001Z</time></trkpt><trkpt lat="36.87322994743807" lon="15.039425892143957"><ele>112.0</ele><time>2026-04-30T14:20:29.001Z</time></trkpt><trkpt lat="36.87338241699794" lon="15.039549209964305"><ele>113.0</ele><time>2026-04-30T14:20:30.001Z</time></trkpt><trkpt lat="36.87353163629893" lon="15.039669110718574"><ele>114.0</ele><time>2026-04-30T14:20:31.001Z</time></trkpt><trkpt lat="36.873679108926325" lon="15.039782739596419"><ele>115.0</ele><time>2026-04-30T14:20:32.001Z</time></trkpt><trkpt lat="36.873848329302376" lon="15.039886244934882"><ele>115.0</ele><time>2026-04-30T14:20:33.001Z</time></trkpt><trkpt lat="36.873997663478356" lon="15.039956104390338"><ele>115.0</ele><time>2026-04-30T14:20:34.001Z</time></trkpt><trkpt lat="36.874153796501986" lon="15.040013749654827"><ele>115.0</ele><time>2026-04-30T14:20:35.001Z</time></trkpt><trkpt lat="36.87432402433584" lon="15.040054032996899"><ele>119.33333333333334</ele><time>2026-04-30T14:20:36.001Z</time></trkpt><trkpt lat="36.87449558931612" lon="15.040072408546111"><ele>123.66666666666666</ele><time>2026-04-30T14:20:37.001Z</time></trkpt><trkpt lat="36.87466700586695" lon="15.040072585073537"><ele>128.0</ele><time>2026-04-30T14:20:38.001Z</time></trkpt><trkpt lat="36.8748369398172" lon="15.040055474651204"><ele>128.0</ele><time>2026-04-30T14:20:39.001Z</time></trkpt><trkpt lat="36.87500412579825" lon="15.040015483795177"><ele>128.0</ele><time>2026-04-30T14:20:40.001Z</time></trkpt><trkpt lat="36.875169815442945" lon="15.039954087966416"><ele>128.0</ele><time>2026-04-30T14:20:41.001Z</time></trkpt><trkpt lat="36.87534205841956" lon="15.039889477413821"><ele>128.66666666666666</ele><time>2026-04-30T14:20:42.001Z</time></trkpt><trkpt lat="36.87551624680785" lon="15.03982107107271"><ele>129.33333333333334</ele><time>2026-04-30T14:20:43.001Z</time></trkpt><trkpt lat="36.87568833068957" lon="15.039764532590377"><ele>130.0</ele><time>2026-04-30T14:20:44.001Z</time></trkpt><trkpt lat="36.87586445043676" lon="15.03971575164682"><ele>131.33333333333334</ele><time>2026-04-30T14:20:45.001Z</time></trkpt><trkpt lat="36.87603598430928" lon="15.039678766848692"><ele>132.66666666666666</ele><time>2026-04-30T14:20:46.001Z</time></trkpt><trkpt lat="36.87618938517115" lon="15.039662800425766"><ele>134.0</ele><time>2026-04-30T14:20:47.001Z</time></trkpt><trkpt lat="36.876335192303834" lon="15.039677641106755"><ele>134.0</ele><time>2026-04-30T14:20:48.001Z</time></trkpt><trkpt lat="36.876483629158194" lon="15.039726646894788"><ele>134.0</ele><time>2026-04-30T14:20:49.001Z</time></trkpt><trkpt lat="36.87662338098574" lon="15.039813399140352"><ele>134.0</ele><time>2026-04-30T14:20:50.001Z</time></trkpt><trkpt lat="36.87674009898108" lon="15.039945813066876"><ele>137.66666666666666</ele><time>2026-04-30T14:20:51.001Z</time></trkpt><trkpt lat="36.87685498287291" lon="15.040078255049071"><ele>141.33333333333334</ele><time>2026-04-30T14:20:52.001Z</time></trkpt><trkpt lat="36.87696276907826" lon="15.040216862508913"><ele>145.0</ele><time>2026-04-30T14:20:53.001Z</time></trkpt><trkpt lat="36.877063086051145" lon="15.040351890094826"><ele>145.0</ele><time>2026-04-30T14:20:54.001Z</time></trkpt><trkpt lat="36.877153476958064" lon="15.040478397972675"><ele>145.0</ele><time>2026-04-30T14:20:55.001Z</time></trkpt><trkpt lat="36.87723461679007" lon="15.040599965035426"><ele>145.0</ele><time>2026-04-30T14:20:56.001Z</time></trkpt><trkpt lat="36.87730109142856" lon="15.040706389422976"><ele>145.0</ele><time>2026-04-30T14:20:57.001Z</time></trkpt><trkpt lat="36.877356459366126" lon="15.04080647028177"><ele>144.8</ele><time>2026-04-30T14:20:58.001Z</time></trkpt><trkpt lat="36.87739868903504" lon="15.040891733010174"><ele>144.6</ele><time>2026-04-30T14:20:59.001Z</time></trkpt><trkpt lat="36.87742943167603" lon="15.040965231441913"><ele>144.4</ele><time>2026-04-30T14:21:00.001Z</time></trkpt><trkpt lat="36.87746890103585" lon="15.041074327143127"><ele>144.2</ele><time>2026-04-30T14:21:02.001Z</time></trkpt><trkpt lat="36.87760440700783" lon="15.041026343804377"><ele>144.0</ele><time>2026-04-30T14:21:03.001Z</time></trkpt><trkpt lat="36.877681612291504" lon="15.040988890251738"><ele>144.0</ele><time>2026-04-30T14:21:04.001Z</time></trkpt><trkpt lat="36.8777748052691" lon="15.040928460250141"><ele>144.0</ele><time>2026-04-30T14:21:05.001Z</time></trkpt><trkpt lat="36.87788128193267" lon="15.040853339565084"><ele>144.0</ele><time>2026-04-30T14:21:06.001Z</time></trkpt><trkpt lat="36.87799262990304" lon="15.040782735258425"><ele>144.0</ele><time>2026-04-30T14:21:07.001Z</time></trkpt><trkpt lat="36.87811363818762" lon="15.040703785754046"><ele>144.75</ele><time>2026-04-30T14:21:08.001Z</time></trkpt><trkpt lat="36.878242458615524" lon="15.040616889017267"><ele>145.5</ele><time>2026-04-30T14:21:09.001Z</time></trkpt><trkpt lat="36.87836606913981" lon="15.040524861945121"><ele>146.25</ele><time>2026-04-30T14:21:10.001Z</time></trkpt><trkpt lat="36.87848084984533" lon="15.040448561638426"><ele>147.0</ele><time>2026-04-30T14:21:11.001Z</time></trkpt><trkpt lat="36.87860584608393" lon="15.040382035371858"><ele>148.0</ele><time>2026-04-30T14:21:12.001Z</time></trkpt><trkpt lat="36.87872668415295" lon="15.040310723226343"><ele>149.0</ele><time>2026-04-30T14:21:13.001Z</time></trkpt><trkpt lat="36.878853434552305" lon="15.040232531925858"><ele>150.0</ele><time>2026-04-30T14:21:14.001Z</time></trkpt><trkpt lat="36.87898446820834" lon="15.040157579979"><ele>151.0</ele><time>2026-04-30T14:21:15.001Z</time></trkpt><trkpt lat="36.87911988294299" lon="15.040076379810811"><ele>151.0</ele><time>2026-04-30T14:21:16.001Z</time></trkpt><trkpt lat="36.87923011679373" lon="15.040011854169132"><ele>151.0</ele><time>2026-04-30T14:21:17.001Z</time></trkpt><trkpt lat="36.879334608974354" lon="15.039942895226455"><ele>151.0</ele><time>2026-04-30T14:21:18.001Z</time></trkpt><trkpt lat="36.879442102002635" lon="15.039875901545617"><ele>151.0</ele><time>2026-04-30T14:21:19.001Z</time></trkpt><trkpt lat="36.87954894757569" lon="15.039816630658244"><ele>151.4</ele><time>2026-04-30T14:21:20.001Z</time></trkpt><trkpt lat="36.87964585803812" lon="15.039765386064088"><ele>151.8</ele><time>2026-04-30T14:21:21.001Z</time></trkpt><trkpt lat="36.879735675305014" lon="15.039712770346236"><ele>152.20000000000002</ele><time>2026-04-30T14:21:22.001Z</time></trkpt><trkpt lat="36.879822494869046" lon="15.039636890275162"><ele>152.6</ele><time>2026-04-30T14:21:23.001Z</time></trkpt><trkpt lat="36.87990403562482" lon="15.039531197490188"><ele>153.0</ele><time>2026-04-30T14:21:24.002Z</time></trkpt><trkpt lat="36.87997817342744" lon="15.039406054281272"><ele>153.0</ele><time>2026-04-30T14:21:25.002Z</time></trkpt><trkpt lat="36.88005496479949" lon="15.039269438324057"><ele>153.0</ele><time>2026-04-30T14:21:26.002Z</time></trkpt><trkpt lat="36.88013337087105" lon="15.039134680782151"><ele>153.0</ele><time>2026-04-30T14:21:27.002Z</time></trkpt><trkpt lat="36.88021841523083" lon="15.038993581601334"><ele>153.0</ele><time>2026-04-30T14:21:28.002Z</time></trkpt><trkpt lat="36.880307051581255" lon="15.038854327754809"><ele>150.66666666666666</ele><time>2026-04-30T14:21:29.002Z</time></trkpt><trkpt lat="36.88039574289569" lon="15.038712066493162"><ele>148.33333333333331</ele><time>2026-04-30T14:21:30.002Z</time></trkpt><trkpt lat="36.88049524524965" lon="15.038551779690563"><ele>146.0</ele><time>2026-04-30T14:21:31.002Z</time></trkpt><trkpt lat="36.88058213247127" lon="15.038382050766778"><ele>147.66666666666666</ele><time>2026-04-30T14:21:32.002Z</time></trkpt><trkpt lat="36.88067191218386" lon="15.038197750677249"><ele>149.33333333333334</ele><time>2026-04-30T14:21:33.002Z</time></trkpt><trkpt lat="36.88072852683981" lon="15.038043504011384"><ele>151.0</ele><time>2026-04-30T14:21:34.002Z</time></trkpt><trkpt lat="36.88079060128164" lon="15.037882525688868"><ele>151.0</ele><time>2026-04-30T14:21:35.002Z</time></trkpt><trkpt lat="36.88085941933639" lon="15.037734205178909"><ele>151.0</ele><time>2026-04-30T14:21:36.002Z</time></trkpt><trkpt lat="36.880933594439654" lon="15.037578991175593"><ele>151.0</ele><time>2026-04-30T14:21:37.002Z</time></trkpt><trkpt lat="36.88102428223314" lon="15.037417614188838"><ele>151.0</ele><time>2026-04-30T14:21:38.002Z</time></trkpt><trkpt lat="36.881125223977556" lon="15.037254564605588"><ele>151.0</ele><time>2026-04-30T14:21:39.002Z</time></trkpt><trkpt lat="36.88123348827823" lon="15.037076490208209"><ele>151.0</ele><time>2026-04-30T14:21:40.002Z</time></trkpt><trkpt lat="36.881339646482765" lon="15.036922326270066"><ele>151.0</ele><time>2026-04-30T14:21:41.002Z</time></trkpt><trkpt lat="36.88145351924412" lon="15.036763506986496"><ele>152.33333333333334</ele><time>2026-04-30T14:21:42.002Z</time></trkpt><trkpt lat="36.88155433830226" lon="15.036618755680914"><ele>153.66666666666666</ele><time>2026-04-30T14:21:43.002Z</time></trkpt><trkpt lat="36.88166132106565" lon="15.03647614149353"><ele>155.0</ele><time>2026-04-30T14:21:44.002Z</time></trkpt><trkpt lat="36.88177063875222" lon="15.036330928190484"><ele>155.0</ele><time>2026-04-30T14:21:45.002Z</time></trkpt><trkpt lat="36.88187296024114" lon="15.03619900499504"><ele>155.0</ele><time>2026-04-30T14:21:46.002Z</time></trkpt><trkpt lat="36.8819740694535" lon="15.036087005242576"><ele>155.0</ele><time>2026-04-30T14:21:47.002Z</time></trkpt><trkpt lat="36.882080827466744" lon="15.035996330307343"><ele>155.0</ele><time>2026-04-30T14:21:48.002Z</time></trkpt><trkpt lat="36.882203549199616" lon="15.035910705589782"><ele>155.0</ele><time>2026-04-30T14:21:49.002Z</time></trkpt><trkpt lat="36.882334675352084" lon="15.035820605771617"><ele>155.0</ele><time>2026-04-30T14:21:50.002Z</time></trkpt><trkpt lat="36.882464410151464" lon="15.03571365282938"><ele>155.0</ele><time>2026-04-30T14:21:51.002Z</time></trkpt><trkpt lat="36.88256279176145" lon="15.035592748179772"><ele>155.0</ele><time>2026-04-30T14:21:52.002Z</time></trkpt><trkpt lat="36.88264505454129" lon="15.035456534851871"><ele>156.33333333333331</ele><time>2026-04-30T14:21:53.002Z</time></trkpt><trkpt lat="36.88272348252429" lon="15.035294441153297"><ele>157.66666666666666</ele><time>2026-04-30T14:21:54.002Z</time></trkpt><trkpt lat="36.882809797012904" lon="15.035122359688865"><ele>159.0</ele><time>2026-04-30T14:21:55.002Z</time></trkpt><trkpt lat="36.882907545458316" lon="15.034931216199404"><ele>159.25</ele><time>2026-04-30T14:21:56.002Z</time></trkpt><trkpt lat="36.88297826300967" lon="15.034747808141491"><ele>159.5</ele><time>2026-04-30T14:21:57.002Z</time></trkpt><trkpt lat="36.883024557229774" lon="15.034587711196986"><ele>159.75</ele><time>2026-04-30T14:21:58.002Z</time></trkpt><trkpt lat="36.88305541723285" lon="15.034441531299004"><ele>160.0</ele><time>2026-04-30T14:21:59.002Z</time></trkpt><trkpt lat="36.88308111200885" lon="15.034314482721172"><ele>160.0</ele><time>2026-04-30T14:22:00.002Z</time></trkpt><trkpt lat="36.88310286239913" lon="15.034197071774855"><ele>160.0</ele><time>2026-04-30T14:22:01.002Z</time></trkpt><trkpt lat="36.88312414682928" lon="15.034112372556242"><ele>160.0</ele><time>2026-04-30T14:22:02.002Z</time></trkpt><trkpt lat="36.88315053615967" lon="15.034037533578198"><ele>160.0</ele><time>2026-04-30T14:22:03.002Z</time></trkpt><trkpt lat="36.88318070306036" lon="15.03395332649566"><ele>160.0</ele><time>2026-04-30T14:22:04.002Z</time></trkpt><trkpt lat="36.8831975746168" lon="15.033867132304069"><ele>160.0</ele><time>2026-04-30T14:22:06.003Z</time></trkpt><trkpt lat="36.88334940007975" lon="15.033919772342164"><ele>160.8</ele><time>2026-04-30T14:22:07.003Z</time></trkpt><trkpt lat="36.883457033370775" lon="15.033906499789525"><ele>161.6</ele><time>2026-04-30T14:22:08.003Z</time></trkpt><trkpt lat="36.8835533728673" lon="15.033889280279086"><ele>162.39999999999998</ele><time>2026-04-30T14:22:09.003Z</time></trkpt><trkpt lat="36.88365255698323" lon="15.033869996887793"><ele>163.2</ele><time>2026-04-30T14:22:10.003Z</time></trkpt><trkpt lat="36.88372292883549" lon="15.033856246522253"><ele>164.0</ele><time>2026-04-30T14:22:11.003Z</time></trkpt><trkpt lat="36.88379394029142" lon="15.03383240366277"><ele>164.0</ele><time>2026-04-30T14:22:12.003Z</time></trkpt><trkpt lat="36.8838713104844" lon="15.033811934935237"><ele>164.0</ele><time>2026-04-30T14:22:13.003Z</time></trkpt><trkpt lat="36.8839475466941" lon="15.033796483119243"><ele>164.0</ele><time>2026-04-30T14:22:14.003Z</time></trkpt><trkpt lat="36.884028381806054" lon="15.033777559362601"><ele>164.0</ele><time>2026-04-30T14:22:15.003Z</time></trkpt><trkpt lat="36.884110209158614" lon="15.033764158998478"><ele>164.0</ele><time>2026-04-30T14:22:16.003Z</time></trkpt><trkpt lat="36.88419121827082" lon="15.033746784054788"><ele>164.0</ele><time>2026-04-30T14:22:17.003Z</time></trkpt><trkpt lat="36.88428130304544" lon="15.033733367781776"><ele>164.33333333333331</ele><time>2026-04-30T14:22:18.003Z</time></trkpt><trkpt lat="36.88437584150744" lon="15.033732981595199"><ele>164.66666666666666</ele><time>2026-04-30T14:22:19.003Z</time></trkpt><trkpt lat="36.88446069764705" lon="15.033702629429012"><ele>165.0</ele><time>2026-04-30T14:22:20.003Z</time></trkpt><trkpt lat="36.88454096972348" lon="15.033691584654061"><ele>165.33333333333334</ele><time>2026-04-30T14:22:21.003Z</time></trkpt><trkpt lat="36.88463658714994" lon="15.033676454256403"><ele>165.66666666666669</ele><time>2026-04-30T14:22:22.003Z</time></trkpt><trkpt lat="36.88471897140464" lon="15.033659474064324"><ele>166.0</ele><time>2026-04-30T14:22:23.003Z</time></trkpt><trkpt lat="36.88480941793414" lon="15.033655927872616"><ele>166.0</ele><time>2026-04-30T14:22:24.003Z</time></trkpt><trkpt lat="36.88491207944443" lon="15.03363215183612"><ele>166.0</ele><time>2026-04-30T14:22:25.003Z</time></trkpt><trkpt lat="36.88500442334607" lon="15.033619689009216"><ele>166.0</ele><time>2026-04-30T14:22:26.003Z</time></trkpt><trkpt lat="36.88509709827049" lon="15.033609524942776"><ele>166.0</ele><time>2026-04-30T14:22:27.003Z</time></trkpt><trkpt lat="36.88517790421413" lon="15.033603611739311"><ele>166.0</ele><time>2026-04-30T14:22:28.003Z</time></trkpt><trkpt lat="36.88526751145086" lon="15.03360761780209"><ele>166.4</ele><time>2026-04-30T14:22:29.001Z</time></trkpt><trkpt lat="36.88536327597979" lon="15.033593504549978"><ele>166.8</ele><time>2026-04-30T14:22:30.001Z</time></trkpt><trkpt lat="36.885449591952465" lon="15.033570590050513"><ele>167.20000000000002</ele><time>2026-04-30T14:22:31.001Z</time></trkpt><trkpt lat="36.88555155795836" lon="15.033547512615671"><ele>167.60000000000002</ele><time>2026-04-30T14:22:32.001Z</time></trkpt><trkpt lat="36.88563408590202" lon="15.033538461079873"><ele>168.0</ele><time>2026-04-30T14:22:33.001Z</time></trkpt><trkpt lat="36.88573552084473" lon="15.033523867199076"><ele>168.0</ele><time>2026-04-30T14:22:34.001Z</time></trkpt><trkpt lat="36.885824640688234" lon="15.033499939916464"><ele>168.0</ele><time>2026-04-30T14:22:35.001Z</time></trkpt><trkpt lat="36.88592015043907" lon="15.03347394716621"><ele>168.0</ele><time>2026-04-30T14:22:36.001Z</time></trkpt><trkpt lat="36.88601132087291" lon="15.033453351824893"><ele>168.0</ele><time>2026-04-30T14:22:37.001Z</time></trkpt><trkpt lat="36.88610602855444" lon="15.033442559331892"><ele>168.0</ele><time>2026-04-30T14:22:38.001Z</time></trkpt><trkpt lat="36.8861805652112" lon="15.033430141786804"><ele>167.66666666666666</ele><time>2026-04-30T14:22:39.001Z</time></trkpt><trkpt lat="36.886263102114086" lon="15.033415055034542"><ele>167.33333333333334</ele><time>2026-04-30T14:22:40.001Z</time></trkpt><trkpt lat="36.88633883566664" lon="15.033395461062995"><ele>167.0</ele><time>2026-04-30T14:22:41.001Z</time></trkpt><trkpt lat="36.88641915319994" lon="15.0334008388798"><ele>166.66666666666669</ele><time>2026-04-30T14:22:42.001Z</time></trkpt><trkpt lat="36.88650891681392" lon="15.03339123274911"><ele>166.33333333333334</ele><time>2026-04-30T14:22:43.001Z</time></trkpt><trkpt lat="36.886590088262544" lon="15.033381868616322"><ele>166.0</ele><time>2026-04-30T14:22:44.001Z</time></trkpt><trkpt lat="36.88666880386059" lon="15.033370086344615"><ele>166.0</ele><time>2026-04-30T14:22:45.001Z</time></trkpt><trkpt lat="36.88675797434029" lon="15.033340464559839"><ele>166.0</ele><time>2026-04-30T14:22:46.001Z</time></trkpt><trkpt lat="36.88683198280593" lon="15.033343654780705"><ele>166.0</ele><time>2026-04-30T14:22:47.001Z</time></trkpt><trkpt lat="36.886898047233785" lon="15.033312283584392"><ele>166.0</ele><time>2026-04-30T14:22:48.001Z</time></trkpt><trkpt lat="36.886967800411554" lon="15.033300528432235"><ele>166.0</ele><time>2026-04-30T14:22:49.001Z</time></trkpt><trkpt lat="36.887050558698014" lon="15.033303463626005"><ele>166.0</ele><time>2026-04-30T14:22:50.001Z</time></trkpt><trkpt lat="36.88712294593055" lon="15.03329056661241"><ele>165.83333333333334</ele><time>2026-04-30T14:22:51.001Z</time></trkpt><trkpt lat="36.887185754942415" lon="15.033281715294072"><ele>165.66666666666669</ele><time>2026-04-30T14:22:52.001Z</time></trkpt><trkpt lat="36.88730586135061" lon="15.033276569948246"><ele>165.5</ele><time>2026-04-30T14:22:54.001Z</time></trkpt><trkpt lat="36.88740020947419" lon="15.033281424889564"><ele>165.33333333333334</ele><time>2026-04-30T14:22:56.001Z</time></trkpt><trkpt lat="36.88747340675592" lon="15.033292874434489"><ele>165.16666666666666</ele><time>2026-04-30T14:22:58.001Z</time></trkpt><trkpt lat="36.8875496825503" lon="15.033311365447547"><ele>165.0</ele><time>2026-04-30T14:23:00.001Z</time></trkpt><trkpt lat="36.88762898738465" lon="15.033342343105444"><ele>163.8</ele><time>2026-04-30T14:23:02.001Z</time></trkpt><trkpt lat="36.8877127547289" lon="15.033415168507311"><ele>162.6</ele><time>2026-04-30T14:23:04.001Z</time></trkpt><trkpt lat="36.88779177236635" lon="15.033507765427933"><ele>161.4</ele><time>2026-04-30T14:23:06.001Z</time></trkpt><trkpt lat="36.887836715014465" lon="15.033566655881236"><ele>160.2</ele><time>2026-04-30T14:23:07.001Z</time></trkpt><trkpt lat="36.88788886790858" lon="15.033669805516457"><ele>159.0</ele><time>2026-04-30T14:23:09.001Z</time></trkpt><trkpt lat="36.88792515970627" lon="15.03378055966426"><ele>159.0</ele><time>2026-04-30T14:23:11.001Z</time></trkpt><trkpt lat="36.887964014669556" lon="15.03384834738307"><ele>159.0</ele><time>2026-04-30T14:23:13.001Z</time></trkpt><trkpt lat="36.888004289937484" lon="15.033910084621644"><ele>159.0</ele><time>2026-04-30T14:23:15.001Z</time></trkpt><trkpt lat="36.88807523643138" lon="15.03398611007773"><ele>159.0</ele><time>2026-04-30T14:23:18.001Z</time></trkpt><trkpt lat="36.88814019016966" lon="15.03401865704984"><ele>159.0</ele><time>2026-04-30T14:23:20.001Z</time></trkpt><trkpt lat="36.88822103376829" lon="15.034028454028077"><ele>159.0</ele><time>2026-04-30T14:23:22.001Z</time></trkpt><trkpt lat="36.888306857988916" lon="15.034028121407095"><ele>159.0</ele><time>2026-04-30T14:23:24.001Z</time></trkpt><trkpt lat="36.88839863977262" lon="15.034035273494775"><ele>159.0</ele><time>2026-04-30T14:23:26.001Z</time></trkpt><trkpt lat="36.88847784885297" lon="15.034056727397221"><ele>159.0</ele><time>2026-04-30T14:23:28.001Z</time></trkpt><trkpt lat="36.888535897598494" lon="15.034097391218946"><ele>159.0</ele><time>2026-04-30T14:23:30.001Z</time></trkpt><trkpt lat="36.88860249939898" lon="15.034122120390151"><ele>159.0</ele><time>2026-04-30T14:23:32.001Z</time></trkpt><trkpt lat="36.88861733148754" lon="15.034218726389469"><ele>159.0</ele><time>2026-04-30T14:23:41.002Z</time></trkpt><trkpt lat="36.88855229397017" lon="15.034226056830219"><ele>157.83333333333334</ele><time>2026-04-30T14:23:43.002Z</time></trkpt><trkpt lat="36.88846024911835" lon="15.034255379245826"><ele>156.66666666666666</ele><time>2026-04-30T14:23:46.002Z</time></trkpt><trkpt lat="36.888398540644985" lon="15.034274659996102"><ele>155.5</ele><time>2026-04-30T14:23:47.002Z</time></trkpt><trkpt lat="36.88832725118904" lon="15.034299953603751"><ele>154.33333333333331</ele><time>2026-04-30T14:23:48.002Z</time></trkpt><trkpt lat="36.888286638979906" lon="15.034363293458574"><ele>153.16666666666666</ele><time>2026-04-30T14:23:50.002Z</time></trkpt><trkpt lat="36.88835853965832" lon="15.034482858342866"><ele>152.0</ele><time>2026-04-30T14:23:52.002Z</time></trkpt><trkpt lat="36.88843055955367" lon="15.034487365598585"><ele>152.0</ele><time>2026-04-30T14:23:53.002Z</time></trkpt><trkpt lat="36.88854679092726" lon="15.034517498857898"><ele>152.0</ele><time>2026-04-30T14:23:55.002Z</time></trkpt><trkpt lat="36.888637135893454" lon="15.034519277694613"><ele>152.0</ele><time>2026-04-30T14:23:57.002Z</time></trkpt><trkpt lat="36.8886999356889" lon="15.034554379557619"><ele>152.0</ele><time>2026-04-30T14:23:59.002Z</time></trkpt><trkpt lat="36.88878811006301" lon="15.034575613966926"><ele>152.0</ele><time>2026-04-30T14:24:01.002Z</time></trkpt><trkpt lat="36.8889024759096" lon="15.034606407575453"><ele>152.0</ele><time>2026-04-30T14:24:03.002Z</time></trkpt><trkpt lat="36.88896827389339" lon="15.034610210456687"><ele>152.0</ele><time>2026-04-30T14:24:04.002Z</time></trkpt><trkpt lat="36.88902569940227" lon="15.03466674692046"><ele>152.0</ele><time>2026-04-30T14:24:05.002Z</time></trkpt><trkpt lat="36.88909119376471" lon="15.034686331664274"><ele>152.0</ele><time>2026-04-30T14:24:06.002Z</time></trkpt><trkpt lat="36.88916055996818" lon="15.034644410261198"><ele>152.0</ele><time>2026-04-30T14:25:05.001Z</time></trkpt><trkpt lat="36.88926465525809" lon="15.034622527636662"><ele>152.0</ele><time>2026-04-30T14:25:07.001Z</time></trkpt><trkpt lat="36.88934610326215" lon="15.034619259019937"><ele>154.5</ele><time>2026-04-30T14:25:08.001Z</time></trkpt><trkpt lat="36.88944712177651" lon="15.034645769399592"><ele>157.0</ele><time>2026-04-30T14:25:09.001Z</time></trkpt><trkpt lat="36.889548493788695" lon="15.03470714646693"><ele>159.5</ele><time>2026-04-30T14:25:10.001Z</time></trkpt><trkpt lat="36.889679508054726" lon="15.034720143844424"><ele>162.0</ele><time>2026-04-30T14:25:11.001Z</time></trkpt><trkpt lat="36.889800766709314" lon="15.034772722247984"><ele>162.0</ele><time>2026-04-30T14:25:12.001Z</time></trkpt><trkpt lat="36.88992410290753" lon="15.034804782226503"><ele>162.0</ele><time>2026-04-30T14:25:13.001Z</time></trkpt><trkpt lat="36.89004941789542" lon="15.034837356594188"><ele>162.0</ele><time>2026-04-30T14:25:14.001Z</time></trkpt><trkpt lat="36.890160163273706" lon="15.034866144078562"><ele>162.0</ele><time>2026-04-30T14:25:15.001Z</time></trkpt><trkpt lat="36.890269809460776" lon="15.0348728238313"><ele>165.0</ele><time>2026-04-30T14:25:16.001Z</time></trkpt><trkpt lat="36.890379961037205" lon="15.03490477529513"><ele>168.0</ele><time>2026-04-30T14:25:17.001Z</time></trkpt><trkpt lat="36.890501930303515" lon="15.034919755575618"><ele>171.0</ele><time>2026-04-30T14:25:18.001Z</time></trkpt><trkpt lat="36.89061522219645" lon="15.034931221803948"><ele>174.0</ele><time>2026-04-30T14:25:19.001Z</time></trkpt><trkpt lat="36.890718618775296" lon="15.034939732986555"><ele>174.0</ele><time>2026-04-30T14:25:20.001Z</time></trkpt><trkpt lat="36.89082451203212" lon="15.034920660733658"><ele>174.0</ele><time>2026-04-30T14:25:21.001Z</time></trkpt><trkpt lat="36.890933040054" lon="15.034887732081902"><ele>174.0</ele><time>2026-04-30T14:25:22.001Z</time></trkpt><trkpt lat="36.89104285510189" lon="15.034817815260407"><ele>174.0</ele><time>2026-04-30T14:25:23.001Z</time></trkpt><trkpt lat="36.891146265907516" lon="15.03472275366236"><ele>173.2</ele><time>2026-04-30T14:25:24.001Z</time></trkpt><trkpt lat="36.891237697978035" lon="15.034626107901946"><ele>172.39999999999998</ele><time>2026-04-30T14:25:25.001Z</time></trkpt><trkpt lat="36.89131733083518" lon="15.034531475209572"><ele>171.6</ele><time>2026-04-30T14:25:26.001Z</time></trkpt><trkpt lat="36.89141080689644" lon="15.034484360752394"><ele>170.8</ele><time>2026-04-30T14:25:27.001Z</time></trkpt><trkpt lat="36.89151289294638" lon="15.034416544216981"><ele>170.0</ele><time>2026-04-30T14:25:28.001Z</time></trkpt><trkpt lat="36.89162227063863" lon="15.034335920277313"><ele>170.0</ele><time>2026-04-30T14:25:29.001Z</time></trkpt><trkpt lat="36.891731253419266" lon="15.03426264427603"><ele>170.0</ele><time>2026-04-30T14:25:30.001Z</time></trkpt><trkpt lat="36.891830673005614" lon="15.034165611954004"><ele>170.0</ele><time>2026-04-30T14:25:31.001Z</time></trkpt><trkpt lat="36.89192068877093" lon="15.034055298836172"><ele>170.0</ele><time>2026-04-30T14:25:32.001Z</time></trkpt><trkpt lat="36.89200871428563" lon="15.033962535564353"><ele>172.25</ele><time>2026-04-30T14:25:33.001Z</time></trkpt><trkpt lat="36.89208201166091" lon="15.033869997915682"><ele>174.5</ele><time>2026-04-30T14:25:34.001Z</time></trkpt><trkpt lat="36.89213490305944" lon="15.033742628348506"><ele>176.75</ele><time>2026-04-30T14:25:35.001Z</time></trkpt><trkpt lat="36.89217874952552" lon="15.033587704692987"><ele>179.0</ele><time>2026-04-30T14:25:36.001Z</time></trkpt><trkpt lat="36.89222957997025" lon="15.033436731005906"><ele>179.5</ele><time>2026-04-30T14:25:37.001Z</time></trkpt><trkpt lat="36.89229528645364" lon="15.033288977818756"><ele>180.0</ele><time>2026-04-30T14:25:38.001Z</time></trkpt><trkpt lat="36.89236873204496" lon="15.033152258623895"><ele>180.5</ele><time>2026-04-30T14:25:39.001Z</time></trkpt><trkpt lat="36.89243720593523" lon="15.033045508821724"><ele>181.0</ele><time>2026-04-30T14:25:40.001Z</time></trkpt><trkpt lat="36.89250682055315" lon="15.032964503266857"><ele>182.60000000000002</ele><time>2026-04-30T14:25:41.001Z</time></trkpt><trkpt lat="36.892596339806836" lon="15.032925423470106"><ele>184.2</ele><time>2026-04-30T14:25:42.001Z</time></trkpt><trkpt lat="36.89269282681615" lon="15.032851083611742"><ele>185.8</ele><time>2026-04-30T14:25:43.001Z</time></trkpt><trkpt lat="36.892801685930124" lon="15.032800557532095"><ele>187.39999999999998</ele><time>2026-04-30T14:25:44.001Z</time></trkpt><trkpt lat="36.89291090370214" lon="15.032740858753709"><ele>189.0</ele><time>2026-04-30T14:25:45.001Z</time></trkpt><trkpt lat="36.89301020779579" lon="15.032676270702963"><ele>189.0</ele><time>2026-04-30T14:25:46.001Z</time></trkpt><trkpt lat="36.89310548611185" lon="15.032613666076248"><ele>189.0</ele><time>2026-04-30T14:25:47.001Z</time></trkpt><trkpt lat="36.893189968806844" lon="15.032553535381245"><ele>189.0</ele><time>2026-04-30T14:25:48.001Z</time></trkpt><trkpt lat="36.893295807951205" lon="15.032544570446754"><ele>189.0</ele><time>2026-04-30T14:25:49.001Z</time></trkpt><trkpt lat="36.893393226803184" lon="15.032419267617286"><ele>190.5</ele><time>2026-04-30T14:25:50.001Z</time></trkpt><trkpt lat="36.893508220386956" lon="15.032328866099368"><ele>192.0</ele><time>2026-04-30T14:25:51.001Z</time></trkpt><trkpt lat="36.893619287321265" lon="15.032213342014034"><ele>193.5</ele><time>2026-04-30T14:25:52.001Z</time></trkpt><trkpt lat="36.893730936757564" lon="15.032089413861524"><ele>195.0</ele><time>2026-04-30T14:25:53.001Z</time></trkpt><trkpt lat="36.89383869731266" lon="15.031983607340916"><ele>195.0</ele><time>2026-04-30T14:25:54.001Z</time></trkpt><trkpt lat="36.893938019576964" lon="15.03189006616505"><ele>195.0</ele><time>2026-04-30T14:25:55.001Z</time></trkpt><trkpt lat="36.894031439991004" lon="15.031799595873636"><ele>195.0</ele><time>2026-04-30T14:25:56.002Z</time></trkpt><trkpt lat="36.89413113772515" lon="15.031723695388662"><ele>195.0</ele><time>2026-04-30T14:25:57.002Z</time></trkpt><trkpt lat="36.89421987214896" lon="15.031680822893522"><ele>194.8</ele><time>2026-04-30T14:25:58.002Z</time></trkpt><trkpt lat="36.894341139517635" lon="15.031660087727618"><ele>194.6</ele><time>2026-04-30T14:26:00.002Z</time></trkpt><trkpt lat="36.89442284295721" lon="15.031617005223193"><ele>194.39999999999998</ele><time>2026-04-30T14:26:01.002Z</time></trkpt><trkpt lat="36.89450648723454" lon="15.031559239935007"><ele>194.2</ele><time>2026-04-30T14:26:02.002Z</time></trkpt><trkpt lat="36.894590264650326" lon="15.03150606148941"><ele>194.0</ele><time>2026-04-30T14:26:03.002Z</time></trkpt><trkpt lat="36.8946817273584" lon="15.031447926854876"><ele>194.79999999999998</ele><time>2026-04-30T14:26:04.002Z</time></trkpt><trkpt lat="36.89478420770911" lon="15.031400735766796"><ele>195.6</ele><time>2026-04-30T14:26:05.002Z</time></trkpt><trkpt lat="36.894879212833146" lon="15.031350230511354"><ele>196.4</ele><time>2026-04-30T14:26:06.002Z</time></trkpt><trkpt lat="36.89499008015447" lon="15.031304125842281"><ele>197.2</ele><time>2026-04-30T14:26:07.002Z</time></trkpt><trkpt lat="36.89510273541353" lon="15.03125350784614"><ele>198.0</ele><time>2026-04-30T14:26:08.002Z</time></trkpt><trkpt lat="36.89520687896076" lon="15.031198882530623"><ele>199.25</ele><time>2026-04-30T14:26:09.002Z</time></trkpt><trkpt lat="36.895310719742746" lon="15.031147105692211"><ele>200.5</ele><time>2026-04-30T14:26:10.002Z</time></trkpt><trkpt lat="36.89541783436584" lon="15.031088349936272"><ele>201.75</ele><time>2026-04-30T14:26:11.002Z</time></trkpt><trkpt lat="36.8955311341331" lon="15.031027295029263"><ele>203.0</ele><time>2026-04-30T14:26:12.002Z</time></trkpt><trkpt lat="36.89565686649906" lon="15.030966375789959"><ele>203.0</ele><time>2026-04-30T14:26:13.002Z</time></trkpt><trkpt lat="36.895777591449246" lon="15.030901665067132"><ele>203.0</ele><time>2026-04-30T14:26:14.002Z</time></trkpt><trkpt lat="36.89589358926748" lon="15.030829918511387"><ele>203.0</ele><time>2026-04-30T14:26:15.002Z</time></trkpt><trkpt lat="36.89599903905346" lon="15.030755845459199"><ele>203.0</ele><time>2026-04-30T14:26:16.002Z</time></trkpt><trkpt lat="36.89608881582677" lon="15.030660500710477"><ele>204.0</ele><time>2026-04-30T14:26:17.002Z</time></trkpt><trkpt lat="36.896162410350485" lon="15.030559760946737"><ele>205.0</ele><time>2026-04-30T14:26:18.002Z</time></trkpt><trkpt lat="36.896232040214024" lon="15.030460934774151"><ele>206.0</ele><time>2026-04-30T14:26:19.002Z</time></trkpt><trkpt lat="36.89629381390973" lon="15.030366592513458"><ele>207.0</ele><time>2026-04-30T14:26:20.002Z</time></trkpt><trkpt lat="36.89634716883493" lon="15.030248860405848"><ele>208.0</ele><time>2026-04-30T14:26:21.002Z</time></trkpt><trkpt lat="36.89640098298569" lon="15.03012758376635"><ele>208.0</ele><time>2026-04-30T14:26:22.002Z</time></trkpt><trkpt lat="36.89644819147397" lon="15.029993947109919"><ele>208.0</ele><time>2026-04-30T14:26:23.002Z</time></trkpt><trkpt lat="36.896508609222835" lon="15.02985985031602"><ele>208.0</ele><time>2026-04-30T14:26:24.002Z</time></trkpt><trkpt lat="36.89657524420385" lon="15.029712482442338"><ele>208.0</ele><time>2026-04-30T14:26:25.002Z</time></trkpt><trkpt lat="36.89663875644158" lon="15.029560506481696"><ele>207.8</ele><time>2026-04-30T14:26:26.002Z</time></trkpt><trkpt lat="36.89669032209129" lon="15.02941473971225"><ele>207.60000000000002</ele><time>2026-04-30T14:26:27.002Z</time></trkpt><trkpt lat="36.89673867278635" lon="15.029292256260353"><ele>207.39999999999998</ele><time>2026-04-30T14:26:28.002Z</time></trkpt><trkpt lat="36.89678913670582" lon="15.02918177097578"><ele>207.2</ele><time>2026-04-30T14:26:29.002Z</time></trkpt><trkpt lat="36.89685162750086" lon="15.029093803684797"><ele>207.0</ele><time>2026-04-30T14:26:30.002Z</time></trkpt><trkpt lat="36.89694779596565" lon="15.02906443151095"><ele>207.39999999999998</ele><time>2026-04-30T14:26:31.002Z</time></trkpt><trkpt lat="36.89703548581216" lon="15.029044038989582"><ele>207.79999999999998</ele><time>2026-04-30T14:26:32.002Z</time></trkpt><trkpt lat="36.89714145537198" lon="15.029022129277992"><ele>208.2</ele><time>2026-04-30T14:26:33.002Z</time></trkpt><trkpt lat="36.897255352141144" lon="15.028979383875653"><ele>208.6</ele><time>2026-04-30T14:26:34.002Z</time></trkpt><trkpt lat="36.897374113509876" lon="15.028952703279684"><ele>209.0</ele><time>2026-04-30T14:26:35.002Z</time></trkpt><trkpt lat="36.89748590453405" lon="15.02892847637794"><ele>211.5</ele><time>2026-04-30T14:26:36.002Z</time></trkpt><trkpt lat="36.89759385829847" lon="15.02889211256799"><ele>214.0</ele><time>2026-04-30T14:26:37.002Z</time></trkpt><trkpt lat="36.897706947782225" lon="15.028857194283503"><ele>216.5</ele><time>2026-04-30T14:26:38.002Z</time></trkpt><trkpt lat="36.897827375465546" lon="15.028804083247035"><ele>219.0</ele><time>2026-04-30T14:26:39.002Z</time></trkpt><trkpt lat="36.897961633963014" lon="15.028792632927638"><ele>219.0</ele><time>2026-04-30T14:26:40.002Z</time></trkpt><trkpt lat="36.89809425226599" lon="15.028764703150653"><ele>219.0</ele><time>2026-04-30T14:26:41Z</time></trkpt><trkpt lat="36.89822817528821" lon="15.028742843198561"><ele>219.0</ele><time>2026-04-30T14:26:42Z</time></trkpt><trkpt lat="36.898355669135356" lon="15.028702644447165"><ele>219.0</ele><time>2026-04-30T14:26:43Z</time></trkpt><trkpt lat="36.89847326498498" lon="15.028682942119172"><ele>220.2</ele><time>2026-04-30T14:26:44Z</time></trkpt><trkpt lat="36.898571841085314" lon="15.028666370779623"><ele>221.39999999999998</ele><time>2026-04-30T14:26:45Z</time></trkpt><trkpt lat="36.89865595515578" lon="15.02863173340888"><ele>222.6</ele><time>2026-04-30T14:26:46Z</time></trkpt><trkpt lat="36.898716989533426" lon="15.028555479481549"><ele>223.8</ele><time>2026-04-30T14:26:47Z</time></trkpt><trkpt lat="36.89875179865985" lon="15.028444111974048"><ele>225.0</ele><time>2026-04-30T14:26:48Z</time></trkpt><trkpt lat="36.898792895322394" lon="15.028320105804216"><ele>225.8</ele><time>2026-04-30T14:26:49Z</time></trkpt><trkpt lat="36.898858821861815" lon="15.028250152944294"><ele>226.6</ele><time>2026-04-30T14:26:50Z</time></trkpt><trkpt lat="36.89893953623614" lon="15.028221859400153"><ele>227.39999999999998</ele><time>2026-04-30T14:26:51Z</time></trkpt><trkpt lat="36.89902869152297" lon="15.028128489002404"><ele>228.2</ele><time>2026-04-30T14:26:52Z</time></trkpt><trkpt lat="36.89911486683258" lon="15.028062825802293"><ele>229.0</ele><time>2026-04-30T14:26:53Z</time></trkpt><trkpt lat="36.89915266216037" lon="15.027981225616141"><ele>229.0</ele><time>2026-04-30T14:26:54Z</time></trkpt><trkpt lat="36.89915544227485" lon="15.027877542257068"><ele>228.99999999999997</ele><time>2026-04-30T14:26:55Z</time></trkpt><trkpt lat="36.89913423353824" lon="15.027752230994416"><ele>228.99999999999997</ele><time>2026-04-30T14:26:56Z</time></trkpt><trkpt lat="36.899100945831194" lon="15.027599672231288"><ele>229.0</ele><time>2026-04-30T14:26:57Z</time></trkpt><trkpt lat="36.89907838907189" lon="15.027446579238697"><ele>229.0</ele><time>2026-04-30T14:26:58Z</time></trkpt><trkpt lat="36.89907584160024" lon="15.027314141317765"><ele>228.79999999999998</ele><time>2026-04-30T14:26:59Z</time></trkpt><trkpt lat="36.899077135249506" lon="15.027194761285367"><ele>228.59999999999997</ele><time>2026-04-30T14:27:00Z</time></trkpt><trkpt lat="36.89909001031027" lon="15.027086988584438"><ele>228.4</ele><time>2026-04-30T14:27:01Z</time></trkpt><trkpt lat="36.89910373590053" lon="15.026983702064005"><ele>228.2</ele><time>2026-04-30T14:27:02Z</time></trkpt><trkpt lat="36.899144004433445" lon="15.026869756216648"><ele>228.0</ele><time>2026-04-30T14:27:03Z</time></trkpt><trkpt lat="36.899196015695274" lon="15.026721841717803"><ele>229.4</ele><time>2026-04-30T14:27:04Z</time></trkpt><trkpt lat="36.89925961979164" lon="15.026569331915395"><ele>230.8</ele><time>2026-04-30T14:27:05Z</time></trkpt><trkpt lat="36.899300725282785" lon="15.026428175743897"><ele>232.2</ele><time>2026-04-30T14:27:06Z</time></trkpt><trkpt lat="36.89932935996741" lon="15.026309773914114"><ele>233.6</ele><time>2026-04-30T14:27:07Z</time></trkpt><trkpt lat="36.89934426347557" lon="15.02620304653937"><ele>235.0</ele><time>2026-04-30T14:27:08Z</time></trkpt><trkpt lat="36.899332103241626" lon="15.026090199046253"><ele>235.0</ele><time>2026-04-30T14:27:09Z</time></trkpt><trkpt lat="36.89929397954485" lon="15.02597301081711"><ele>235.0</ele><time>2026-04-30T14:27:10Z</time></trkpt><trkpt lat="36.8992719098414" lon="15.02582929520598"><ele>235.0</ele><time>2026-04-30T14:27:11Z</time></trkpt><trkpt lat="36.899185975039444" lon="15.025696687528443"><ele>235.0</ele><time>2026-04-30T14:27:12.001Z</time></trkpt><trkpt lat="36.89912249699951" lon="15.025546558271863"><ele>234.5</ele><time>2026-04-30T14:27:13.001Z</time></trkpt><trkpt lat="36.89905415945066" lon="15.02539353715545"><ele>234.0</ele><time>2026-04-30T14:27:14.001Z</time></trkpt><trkpt lat="36.89898463377645" lon="15.025230491873492"><ele>233.5</ele><time>2026-04-30T14:27:15.001Z</time></trkpt><trkpt lat="36.898913274293406" lon="15.025067443410865"><ele>233.0</ele><time>2026-04-30T14:27:16.001Z</time></trkpt><trkpt lat="36.89886718221098" lon="15.024943696420042"><ele>233.0</ele><time>2026-04-30T14:27:17.001Z</time></trkpt><trkpt lat="36.898833444459555" lon="15.024827317608505"><ele>233.0</ele><time>2026-04-30T14:27:18.001Z</time></trkpt><trkpt lat="36.8988105167491" lon="15.024709177413838"><ele>233.0</ele><time>2026-04-30T14:27:19.001Z</time></trkpt><trkpt lat="36.898797709737295" lon="15.024600694890351"><ele>233.0</ele><time>2026-04-30T14:27:20.001Z</time></trkpt><trkpt lat="36.89878063545469" lon="15.02450942561624"><ele>233.0</ele><time>2026-04-30T14:27:21.001Z</time></trkpt><trkpt lat="36.898797569701294" lon="15.024375343033897"><ele>233.0</ele><time>2026-04-30T14:27:23.001Z</time></trkpt><trkpt lat="36.89881343768916" lon="15.024231289966421"><ele>233.0</ele><time>2026-04-30T14:27:25.001Z</time></trkpt><trkpt lat="36.89882258062749" lon="15.024121520204128"><ele>233.0</ele><time>2026-04-30T14:27:26.001Z</time></trkpt><trkpt lat="36.89883140778506" lon="15.024015540183282"><ele>233.0</ele><time>2026-04-30T14:27:27.001Z</time></trkpt><trkpt lat="36.8988418478064" lon="15.023890195886063"><ele>233.0</ele><time>2026-04-30T14:27:29.001Z</time></trkpt><trkpt lat="36.89884905774023" lon="15.023803632547041"><ele>232.8</ele><time>2026-04-30T14:27:31.001Z</time></trkpt><trkpt lat="36.89872677061599" lon="15.023658045825174"><ele>232.60000000000002</ele><time>2026-04-30T14:27:34.001Z</time></trkpt><trkpt lat="36.89870356245109" lon="15.023546782520137"><ele>232.39999999999998</ele><time>2026-04-30T14:27:36.001Z</time></trkpt><trkpt lat="36.89867572076152" lon="15.02345289305413"><ele>232.2</ele><time>2026-04-30T14:27:39.001Z</time></trkpt><trkpt lat="36.898675924811755" lon="15.023363528759857"><ele>232.0</ele><time>2026-04-30T14:27:46.001Z</time></trkpt><trkpt lat="36.898723214926974" lon="15.023271628029601"><ele>228.8</ele><time>2026-04-30T14:27:52.001Z</time></trkpt><trkpt lat="36.89870005122307" lon="15.023174484063855"><ele>225.6</ele><time>2026-04-30T14:27:54.001Z</time></trkpt><trkpt lat="36.898668188372305" lon="15.02305076116134"><ele>222.40000000000003</ele><time>2026-04-30T14:27:56.001Z</time></trkpt><trkpt lat="36.898645015210086" lon="15.022973798890158"><ele>219.20000000000002</ele><time>2026-04-30T14:27:57.001Z</time></trkpt><trkpt lat="36.89864005230973" lon="15.0228596059338"><ele>216.0</ele><time>2026-04-30T14:27:59.001Z</time></trkpt><trkpt lat="36.898698362558555" lon="15.022718263123727"><ele>216.0</ele><time>2026-04-30T14:28:01.001Z</time></trkpt><trkpt lat="36.89874029548172" lon="15.022633938951294"><ele>216.0</ele><time>2026-04-30T14:28:02.001Z</time></trkpt><trkpt lat="36.89878187943547" lon="15.02256199347798"><ele>216.0</ele><time>2026-04-30T14:28:03.001Z</time></trkpt><trkpt lat="36.898830097736294" lon="15.022495315333684"><ele>216.0</ele><time>2026-04-30T14:28:04.002Z</time></trkpt><trkpt lat="36.89887974625885" lon="15.02244217533853"><ele>216.0</ele><time>2026-04-30T14:28:05.002Z</time></trkpt><trkpt lat="36.89895081625358" lon="15.022380532920781"><ele>216.0</ele><time>2026-04-30T14:28:06.002Z</time></trkpt><trkpt lat="36.899008243622006" lon="15.02231908628489"><ele>216.16666666666666</ele><time>2026-04-30T14:28:07.002Z</time></trkpt><trkpt lat="36.899056287112714" lon="15.022260196117418"><ele>216.33333333333331</ele><time>2026-04-30T14:28:08.002Z</time></trkpt><trkpt lat="36.899129269283456" lon="15.02215110045886"><ele>216.5</ele><time>2026-04-30T14:28:10.002Z</time></trkpt><trkpt lat="36.899167400730036" lon="15.02207838915296"><ele>216.66666666666666</ele><time>2026-04-30T14:28:11.002Z</time></trkpt><trkpt lat="36.899193948797965" lon="15.022004340918741"><ele>216.83333333333331</ele><time>2026-04-30T14:28:12.002Z</time></trkpt><trkpt lat="36.899225201730694" lon="15.02191779616061"><ele>217.0</ele><time>2026-04-30T14:28:13.002Z</time></trkpt><trkpt lat="36.89926696194186" lon="15.021852524192543"><ele>216.99999999999997</ele><time>2026-04-30T14:28:14.002Z</time></trkpt><trkpt lat="36.899320855343916" lon="15.021777116544717"><ele>217.0</ele><time>2026-04-30T14:28:15.002Z</time></trkpt><trkpt lat="36.89936950279433" lon="15.021695504291964"><ele>217.0</ele><time>2026-04-30T14:28:16.002Z</time></trkpt><trkpt lat="36.899418930713765" lon="15.021603017332913"><ele>217.0</ele><time>2026-04-30T14:28:17.002Z</time></trkpt><trkpt lat="36.899468734573205" lon="15.021531229119025"><ele>216.99999999999997</ele><time>2026-04-30T14:28:18.002Z</time></trkpt><trkpt lat="36.89952195736267" lon="15.021478301551632"><ele>217.0</ele><time>2026-04-30T14:28:19.002Z</time></trkpt><trkpt lat="36.899593130819895" lon="15.021395445607206"><ele>214.99999999999997</ele><time>2026-04-30T14:28:20.002Z</time></trkpt><trkpt lat="36.8996552282154" lon="15.021339666606396"><ele>213.0</ele><time>2026-04-30T14:28:21.002Z</time></trkpt><trkpt lat="36.89972913162097" lon="15.021274838968358"><ele>211.0</ele><time>2026-04-30T14:28:22.002Z</time></trkpt><trkpt lat="36.89980701899889" lon="15.021222660557157"><ele>209.0</ele><time>2026-04-30T14:28:23.002Z</time></trkpt><trkpt lat="36.89988670786625" lon="15.02116624934792"><ele>206.99999999999997</ele><time>2026-04-30T14:28:24.002Z</time></trkpt><trkpt lat="36.89995536525216" lon="15.021099150760962"><ele>205.0</ele><time>2026-04-30T14:28:25.002Z</time></trkpt><trkpt lat="36.90000706818521" lon="15.021052722154423"><ele>204.99999999999997</ele><time>2026-04-30T14:28:26.002Z</time></trkpt><trkpt lat="36.90004834050226" lon="15.020989118392476"><ele>205.0</ele><time>2026-04-30T14:28:27.002Z</time></trkpt><trkpt lat="36.900078977373674" lon="15.020900915417354"><ele>205.0</ele><time>2026-04-30T14:28:28.002Z</time></trkpt><trkpt lat="36.90011495705027" lon="15.020777457389023"><ele>205.0</ele><time>2026-04-30T14:28:29.002Z</time></trkpt><trkpt lat="36.90015755603744" lon="15.020664954587604"><ele>204.99999999999997</ele><time>2026-04-30T14:28:30.002Z</time></trkpt><trkpt lat="36.90019673422965" lon="15.020571154454036"><ele>205.0</ele><time>2026-04-30T14:28:31.002Z</time></trkpt><trkpt lat="36.90023767075309" lon="15.020481255106057"><ele>205.33333333333331</ele><time>2026-04-30T14:28:32.002Z</time></trkpt><trkpt lat="36.90027832284576" lon="15.02039756725138"><ele>205.66666666666666</ele><time>2026-04-30T14:28:33.002Z</time></trkpt><trkpt lat="36.90032526523619" lon="15.020310673943378"><ele>206.0</ele><time>2026-04-30T14:28:34.002Z</time></trkpt><trkpt lat="36.90038151130817" lon="15.020235999536599"><ele>206.33333333333331</ele><time>2026-04-30T14:28:35.002Z</time></trkpt><trkpt lat="36.90044141435128" lon="15.02015920822976"><ele>206.66666666666666</ele><time>2026-04-30T14:28:36.002Z</time></trkpt><trkpt lat="36.90048588301822" lon="15.020080431978181"><ele>207.0</ele><time>2026-04-30T14:28:37.002Z</time></trkpt><trkpt lat="36.900545975046725" lon="15.019997411950195"><ele>206.66666666666666</ele><time>2026-04-30T14:28:38.002Z</time></trkpt><trkpt lat="36.900612622678004" lon="15.019931760058459"><ele>206.33333333333331</ele><time>2026-04-30T14:28:39.002Z</time></trkpt><trkpt lat="36.90068251722275" lon="15.019863480869038"><ele>206.0</ele><time>2026-04-30T14:28:40.002Z</time></trkpt><trkpt lat="36.900746776769694" lon="15.019809692052439"><ele>205.66666666666666</ele><time>2026-04-30T14:28:41.002Z</time></trkpt><trkpt lat="36.900826589440776" lon="15.019745742240614"><ele>205.33333333333331</ele><time>2026-04-30T14:28:42.002Z</time></trkpt><trkpt lat="36.900895666360746" lon="15.019706052297126"><ele>205.0</ele><time>2026-04-30T14:28:43.002Z</time></trkpt><trkpt lat="36.90098057059965" lon="15.019671764535374"><ele>204.99999999999997</ele><time>2026-04-30T14:28:44.002Z</time></trkpt><trkpt lat="36.90105592786465" lon="15.019645830676538"><ele>205.0</ele><time>2026-04-30T14:28:45.002Z</time></trkpt><trkpt lat="36.90113945342407" lon="15.01961682078185"><ele>205.0</ele><time>2026-04-30T14:28:46.002Z</time></trkpt><trkpt lat="36.901228532301985" lon="15.019594380206861"><ele>205.0</ele><time>2026-04-30T14:28:47Z</time></trkpt><trkpt lat="36.90130797436311" lon="15.019594469363673"><ele>204.99999999999997</ele><time>2026-04-30T14:28:48Z</time></trkpt><trkpt lat="36.90137618813887" lon="15.019585203112404"><ele>205.0</ele><time>2026-04-30T14:28:49Z</time></trkpt><trkpt lat="36.90149125698693" lon="15.01954247809411"><ele>204.99999999999997</ele><time>2026-04-30T14:28:51Z</time></trkpt><trkpt lat="36.90156241562115" lon="15.019500818475809"><ele>205.0</ele><time>2026-04-30T14:28:52Z</time></trkpt><trkpt lat="36.901639450882286" lon="15.019495804284627"><ele>205.0</ele><time>2026-04-30T14:28:53Z</time></trkpt><trkpt lat="36.90173974455962" lon="15.019513548067671"><ele>205.0</ele><time>2026-04-30T14:28:54Z</time></trkpt><trkpt lat="36.90181174241147" lon="15.01950801932087"><ele>204.99999999999997</ele><time>2026-04-30T14:28:55Z</time></trkpt><trkpt lat="36.901895092956885" lon="15.019471275793528"><ele>205.0</ele><time>2026-04-30T14:28:56Z</time></trkpt><trkpt lat="36.90197609681352" lon="15.019440422548954"><ele>206.4</ele><time>2026-04-30T14:28:57Z</time></trkpt><trkpt lat="36.90207226330693" lon="15.019402576449346"><ele>207.8</ele><time>2026-04-30T14:28:58Z</time></trkpt><trkpt lat="36.9021501591586" lon="15.019370528487899"><ele>209.2</ele><time>2026-04-30T14:28:59Z</time></trkpt><trkpt lat="36.90223356296774" lon="15.019340006316327"><ele>210.6</ele><time>2026-04-30T14:29:00Z</time></trkpt><trkpt lat="36.90235985515096" lon="15.019263007695075"><ele>212.0</ele><time>2026-04-30T14:29:02Z</time></trkpt><trkpt lat="36.90242535348012" lon="15.019214145792693"><ele>211.8</ele><time>2026-04-30T14:29:03Z</time></trkpt><trkpt lat="36.90249626342583" lon="15.01914078445623"><ele>211.6</ele><time>2026-04-30T14:29:04Z</time></trkpt><trkpt lat="36.902563988611995" lon="15.019086273984449"><ele>211.4</ele><time>2026-04-30T14:29:05Z</time></trkpt><trkpt lat="36.902630926615444" lon="15.019028627562767"><ele>211.20000000000002</ele><time>2026-04-30T14:29:06Z</time></trkpt><trkpt lat="36.90271956405974" lon="15.018960201225303"><ele>211.0</ele><time>2026-04-30T14:29:07Z</time></trkpt><trkpt lat="36.90279588416106" lon="15.018890130836608"><ele>212.66666666666666</ele><time>2026-04-30T14:29:08Z</time></trkpt><trkpt lat="36.902859493478985" lon="15.018830316403106"><ele>214.33333333333331</ele><time>2026-04-30T14:29:09Z</time></trkpt><trkpt lat="36.902917610671" lon="15.018744450560652"><ele>216.0</ele><time>2026-04-30T14:29:10Z</time></trkpt><trkpt lat="36.90295583401264" lon="15.018644500907772"><ele>217.66666666666669</ele><time>2026-04-30T14:29:11Z</time></trkpt><trkpt lat="36.90297445394709" lon="15.018535588053254"><ele>219.33333333333334</ele><time>2026-04-30T14:29:12Z</time></trkpt><trkpt lat="36.903005218628124" lon="15.01842328416081"><ele>221.0</ele><time>2026-04-30T14:29:13Z</time></trkpt><trkpt lat="36.90303509796481" lon="15.018338559136279"><ele>220.0</ele><time>2026-04-30T14:29:14Z</time></trkpt><trkpt lat="36.903064663258654" lon="15.018230027964247"><ele>219.00000000000003</ele><time>2026-04-30T14:29:15.001Z</time></trkpt><trkpt lat="36.9030966488565" lon="15.018087777322787"><ele>218.00000000000003</ele><time>2026-04-30T14:29:16.001Z</time></trkpt><trkpt lat="36.90313710546695" lon="15.01801521141547"><ele>217.0</ele><time>2026-04-30T14:29:17.001Z</time></trkpt><trkpt lat="36.90320244950302" lon="15.017922946955432"><ele>216.0</ele><time>2026-04-30T14:29:18.001Z</time></trkpt><trkpt lat="36.90326304379903" lon="15.017846260245696"><ele>216.0</ele><time>2026-04-30T14:29:19.001Z</time></trkpt><trkpt lat="36.90337102604897" lon="15.017786777879845"><ele>216.00000000000003</ele><time>2026-04-30T14:29:21.001Z</time></trkpt><trkpt lat="36.90344181998673" lon="15.017802866501386"><ele>216.00000000000003</ele><time>2026-04-30T14:29:22.001Z</time></trkpt><trkpt lat="36.903527501279854" lon="15.017835610728014"><ele>216.0</ele><time>2026-04-30T14:29:23.001Z</time></trkpt><trkpt lat="36.903642637058255" lon="15.017878724948158"><ele>216.0</ele><time>2026-04-30T14:29:24.001Z</time></trkpt><trkpt lat="36.903716325231194" lon="15.01788916086345"><ele>217.33333333333334</ele><time>2026-04-30T14:29:25.001Z</time></trkpt><trkpt lat="36.90378479031851" lon="15.017874003222609"><ele>218.66666666666669</ele><time>2026-04-30T14:29:26.001Z</time></trkpt><trkpt lat="36.90386274939076" lon="15.01793837962523"><ele>220.0</ele><time>2026-04-30T14:29:28.001Z</time></trkpt><trkpt lat="36.903899709785726" lon="15.018027894441222"><ele>221.33333333333334</ele><time>2026-04-30T14:29:29.001Z</time></trkpt><trkpt lat="36.90393738494283" lon="15.018102782182773"><ele>222.66666666666669</ele><time>2026-04-30T14:29:30.001Z</time></trkpt><trkpt lat="36.9040019456919" lon="15.018142966575025"><ele>224.0</ele><time>2026-04-30T14:29:31.001Z</time></trkpt><trkpt lat="36.90410869233347" lon="15.018197758651263"><ele>224.00000000000003</ele><time>2026-04-30T14:29:33.001Z</time></trkpt><trkpt lat="36.90417858049948" lon="15.018200610551466"><ele>224.0</ele><time>2026-04-30T14:29:39.001Z</time></trkpt><trkpt lat="36.904228948702276" lon="15.018127582357007"><ele>224.0</ele><time>2026-04-30T14:29:45.001Z</time></trkpt><trkpt lat="36.90429690313374" lon="15.018221651775459"><ele>224.0</ele><time>2026-04-30T14:29:48.001Z</time></trkpt><trkpt lat="36.90433706485285" lon="15.018294500485835"><ele>224.00000000000003</ele><time>2026-04-30T14:29:49.001Z</time></trkpt><trkpt lat="36.90437562536705" lon="15.01838914850237"><ele>224.0</ele><time>2026-04-30T14:29:50.001Z</time></trkpt><trkpt lat="36.90440811349194" lon="15.018494411533746"><ele>226.79999999999998</ele><time>2026-04-30T14:29:51.001Z</time></trkpt><trkpt lat="36.90444539014105" lon="15.018626863700456"><ele>229.59999999999997</ele><time>2026-04-30T14:29:52.001Z</time></trkpt><trkpt lat="36.90446741513726" lon="15.018744591191965"><ele>232.4</ele><time>2026-04-30T14:29:53.001Z</time></trkpt><trkpt lat="36.9044542801833" lon="15.018832751010464"><ele>235.2</ele><time>2026-04-30T14:29:54.001Z</time></trkpt><trkpt lat="36.904405040894076" lon="15.01892902709935"><ele>238.0</ele><time>2026-04-30T14:29:55.001Z</time></trkpt><trkpt lat="36.90438892381614" lon="15.019057068419372"><ele>241.25</ele><time>2026-04-30T14:29:56.001Z</time></trkpt><trkpt lat="36.904407456739" lon="15.019225768608221"><ele>244.5</ele><time>2026-04-30T14:29:57.001Z</time></trkpt><trkpt lat="36.90440915956384" lon="15.019391078920123"><ele>247.75</ele><time>2026-04-30T14:29:58.001Z</time></trkpt><trkpt lat="36.90439920461708" lon="15.019568527558997"><ele>251.0</ele><time>2026-04-30T14:29:59.001Z</time></trkpt><trkpt lat="36.90438309362055" lon="15.019754145188259"><ele>251.0</ele><time>2026-04-30T14:30:00.001Z</time></trkpt><trkpt lat="36.9043644565376" lon="15.019903890674383"><ele>251.00000000000003</ele><time>2026-04-30T14:30:01.001Z</time></trkpt><trkpt lat="36.904340843965365" lon="15.020022997747981"><ele>251.00000000000003</ele><time>2026-04-30T14:30:02.001Z</time></trkpt><trkpt lat="36.904305668006046" lon="15.020110967739907"><ele>251.0</ele><time>2026-04-30T14:30:03.001Z</time></trkpt><trkpt lat="36.90423778831102" lon="15.020200674794635"><ele>251.0</ele><time>2026-04-30T14:30:04.001Z</time></trkpt><trkpt lat="36.90414917478239" lon="15.020309005365387"><ele>251.4</ele><time>2026-04-30T14:30:05.001Z</time></trkpt><trkpt lat="36.90405474496556" lon="15.020418072815465"><ele>251.8</ele><time>2026-04-30T14:30:06.001Z</time></trkpt><trkpt lat="36.90397810914397" lon="15.020513675010198"><ele>252.20000000000002</ele><time>2026-04-30T14:30:07.001Z</time></trkpt><trkpt lat="36.903931184064135" lon="15.020593931750879"><ele>252.60000000000002</ele><time>2026-04-30T14:30:08.001Z</time></trkpt><trkpt lat="36.90390273398179" lon="15.02068767576273"><ele>253.0</ele><time>2026-04-30T14:30:09.002Z</time></trkpt><trkpt lat="36.903853550318495" lon="15.020763702104228"><ele>257.5</ele><time>2026-04-30T14:30:10.002Z</time></trkpt><trkpt lat="36.90378418703883" lon="15.020872019063567"><ele>262.0</ele><time>2026-04-30T14:30:11.002Z</time></trkpt><trkpt lat="36.90371236541469" lon="15.021005984552476"><ele>266.5</ele><time>2026-04-30T14:30:12.002Z</time></trkpt><trkpt lat="36.90366735593927" lon="15.021150652967213"><ele>271.0</ele><time>2026-04-30T14:30:13.002Z</time></trkpt><trkpt lat="36.903632498744095" lon="15.021287903592148"><ele>271.0</ele><time>2026-04-30T14:30:14.002Z</time></trkpt><trkpt lat="36.90362153082651" lon="15.021436272275663"><ele>271.0</ele><time>2026-04-30T14:30:15.002Z</time></trkpt><trkpt lat="36.903619334952786" lon="15.021582757766636"><ele>271.0</ele><time>2026-04-30T14:30:16.002Z</time></trkpt><trkpt lat="36.90362341993322" lon="15.02173368870464"><ele>271.0</ele><time>2026-04-30T14:30:17.002Z</time></trkpt><trkpt lat="36.90362640664191" lon="15.021874799087222"><ele>274.0</ele><time>2026-04-30T14:30:18.002Z</time></trkpt><trkpt lat="36.90363671470674" lon="15.022022948219028"><ele>277.0</ele><time>2026-04-30T14:30:19.002Z</time></trkpt><trkpt lat="36.9036515347699" lon="15.022164577512294"><ele>280.0</ele><time>2026-04-30T14:30:20.002Z</time></trkpt><trkpt lat="36.903679119809794" lon="15.022304771638268"><ele>283.0</ele><time>2026-04-30T14:30:21.002Z</time></trkpt><trkpt lat="36.90372186432742" lon="15.022443087478916"><ele>283.2</ele><time>2026-04-30T14:30:22.002Z</time></trkpt><trkpt lat="36.903792670043046" lon="15.022563045477607"><ele>283.4</ele><time>2026-04-30T14:30:23.002Z</time></trkpt><trkpt lat="36.90383121263611" lon="15.022674900878203"><ele>283.59999999999997</ele><time>2026-04-30T14:30:24.002Z</time></trkpt><trkpt lat="36.90390352397408" lon="15.022728683084013"><ele>283.8</ele><time>2026-04-30T14:30:25.002Z</time></trkpt><trkpt lat="36.903972337315665" lon="15.022788796507538"><ele>284.0</ele><time>2026-04-30T14:30:26.002Z</time></trkpt><trkpt lat="36.90404074125068" lon="15.022876389074106"><ele>284.0</ele><time>2026-04-30T14:30:27.002Z</time></trkpt><trkpt lat="36.904126715825804" lon="15.02296139401722"><ele>284.0</ele><time>2026-04-30T14:30:28.002Z</time></trkpt><trkpt lat="36.9042087099412" lon="15.023050201971168"><ele>284.0</ele><time>2026-04-30T14:30:29.002Z</time></trkpt><trkpt lat="36.904291001227804" lon="15.023137102977673"><ele>284.0</ele><time>2026-04-30T14:30:30.002Z</time></trkpt><trkpt lat="36.90438274417407" lon="15.023220704220876"><ele>284.0</ele><time>2026-04-30T14:30:31.002Z</time></trkpt><trkpt lat="36.90446802818056" lon="15.023298140634006"><ele>285.0</ele><time>2026-04-30T14:30:32.002Z</time></trkpt><trkpt lat="36.90454498949702" lon="15.023368706287133"><ele>286.0</ele><time>2026-04-30T14:30:33.002Z</time></trkpt><trkpt lat="36.90460614937205" lon="15.023502554620665"><ele>287.0</ele><time>2026-04-30T14:30:35.002Z</time></trkpt><trkpt lat="36.90460401017594" lon="15.023594477282332"><ele>288.0</ele><time>2026-04-30T14:30:36.002Z</time></trkpt><trkpt lat="36.90460045339232" lon="15.023717102412785"><ele>289.0</ele><time>2026-04-30T14:30:37.002Z</time></trkpt><trkpt lat="36.90460103247563" lon="15.023867505789708"><ele>289.0</ele><time>2026-04-30T14:30:38.002Z</time></trkpt><trkpt lat="36.90461202881499" lon="15.024026099403164"><ele>289.0</ele><time>2026-04-30T14:30:39.002Z</time></trkpt><trkpt lat="36.904644020848636" lon="15.024158288075595"><ele>289.0</ele><time>2026-04-30T14:30:40.002Z</time></trkpt><trkpt lat="36.90468916516452" lon="15.024283244909341"><ele>289.0</ele><time>2026-04-30T14:30:41.002Z</time></trkpt><trkpt lat="36.904781987655056" lon="15.024374388971681"><ele>288.59999999999997</ele><time>2026-04-30T14:30:42.002Z</time></trkpt><trkpt lat="36.90486433636694" lon="15.02445670253238"><ele>288.2</ele><time>2026-04-30T14:30:43.002Z</time></trkpt><trkpt lat="36.90497168583987" lon="15.024508765281682"><ele>287.79999999999995</ele><time>2026-04-30T14:30:44.002Z</time></trkpt><trkpt lat="36.90507067541055" lon="15.024581292115688"><ele>287.4</ele><time>2026-04-30T14:30:45.002Z</time></trkpt><trkpt lat="36.90516633371589" lon="15.024650656261104"><ele>287.0</ele><time>2026-04-30T14:30:46.002Z</time></trkpt><trkpt lat="36.90524935344088" lon="15.02472314958446"><ele>288.4</ele><time>2026-04-30T14:30:47.002Z</time></trkpt><trkpt lat="36.9053209774645" lon="15.024802215706268"><ele>289.79999999999995</ele><time>2026-04-30T14:30:48.002Z</time></trkpt><trkpt lat="36.905373562952356" lon="15.024886980596827"><ele>291.2</ele><time>2026-04-30T14:30:49.002Z</time></trkpt><trkpt lat="36.90542601518129" lon="15.024983336798332"><ele>292.59999999999997</ele><time>2026-04-30T14:30:50.002Z</time></trkpt><trkpt lat="36.90548789492425" lon="15.02509869045147"><ele>294.0</ele><time>2026-04-30T14:30:51.002Z</time></trkpt><trkpt lat="36.90555828196702" lon="15.0252124931661"><ele>294.0</ele><time>2026-04-30T14:30:52.002Z</time></trkpt><trkpt lat="36.90563967686261" lon="15.025323656059854"><ele>294.0</ele><time>2026-04-30T14:30:53.001Z</time></trkpt><trkpt lat="36.905747524657095" lon="15.025406744485025"><ele>294.0</ele><time>2026-04-30T14:30:54.001Z</time></trkpt><trkpt lat="36.905854755752266" lon="15.025481555374796"><ele>294.0</ele><time>2026-04-30T14:30:55.001Z</time></trkpt><trkpt lat="36.90595805037539" lon="15.025536631438493"><ele>296.4</ele><time>2026-04-30T14:30:56.001Z</time></trkpt><trkpt lat="36.90606073246126" lon="15.025572655000515"><ele>298.79999999999995</ele><time>2026-04-30T14:30:57Z</time></trkpt><trkpt lat="36.90616049748244" lon="15.02560051935966"><ele>301.20000000000005</ele><time>2026-04-30T14:30:58Z</time></trkpt><trkpt lat="36.906262469321504" lon="15.02561907093966"><ele>303.6</ele><time>2026-04-30T14:30:59Z</time></trkpt><trkpt lat="36.906365889051955" lon="15.02562246147274"><ele>306.0</ele><time>2026-04-30T14:31:00Z</time></trkpt><trkpt lat="36.906447650130154" lon="15.025618791712223"><ele>306.0</ele><time>2026-04-30T14:31:01Z</time></trkpt><trkpt lat="36.90651596732598" lon="15.025634467301128"><ele>306.0</ele><time>2026-04-30T14:31:02Z</time></trkpt><trkpt lat="36.906586398697776" lon="15.02568212449374"><ele>306.0</ele><time>2026-04-30T14:31:03Z</time></trkpt><trkpt lat="36.906621814324026" lon="15.025772876363812"><ele>306.0</ele><time>2026-04-30T14:31:04Z</time></trkpt><trkpt lat="36.90667878866903" lon="15.025857001200524"><ele>306.0</ele><time>2026-04-30T14:31:05Z</time></trkpt><trkpt lat="36.90670654945982" lon="15.025982466538254"><ele>306.0</ele><time>2026-04-30T14:31:06Z</time></trkpt><trkpt lat="36.90673871324622" lon="15.026077275042649"><ele>304.0</ele><time>2026-04-30T14:31:07Z</time></trkpt><trkpt lat="36.906804080081436" lon="15.026156086644477"><ele>302.0</ele><time>2026-04-30T14:31:08Z</time></trkpt><trkpt lat="36.906896514921506" lon="15.026217152792167"><ele>300.0</ele><time>2026-04-30T14:31:09Z</time></trkpt><trkpt lat="36.907016460068924" lon="15.026261013697468"><ele>298.0</ele><time>2026-04-30T14:31:10Z</time></trkpt><trkpt lat="36.90714604399924" lon="15.026285533543202"><ele>298.0</ele><time>2026-04-30T14:31:11Z</time></trkpt><trkpt lat="36.9072830476018" lon="15.02629299632523"><ele>298.0</ele><time>2026-04-30T14:31:12Z</time></trkpt><trkpt lat="36.90739350484239" lon="15.026308875502373"><ele>298.0</ele><time>2026-04-30T14:31:13Z</time></trkpt><trkpt lat="36.90749272783315" lon="15.026331470125376"><ele>298.0</ele><time>2026-04-30T14:31:14Z</time></trkpt><trkpt lat="36.907577554066435" lon="15.02635099651515"><ele>298.0</ele><time>2026-04-30T14:31:15Z</time></trkpt><trkpt lat="36.90767658037255" lon="15.02634950963892"><ele>299.8</ele><time>2026-04-30T14:31:16Z</time></trkpt><trkpt lat="36.9077713570241" lon="15.02633175823361"><ele>301.6</ele><time>2026-04-30T14:31:17Z</time></trkpt><trkpt lat="36.907841023539596" lon="15.026307865562964"><ele>303.4</ele><time>2026-04-30T14:31:18Z</time></trkpt><trkpt lat="36.90791225803211" lon="15.02635832552978"><ele>305.2</ele><time>2026-04-30T14:31:20.001Z</time></trkpt><trkpt lat="36.90790106517682" lon="15.026511025963236"><ele>307.0</ele><time>2026-04-30T14:31:22.001Z</time></trkpt><trkpt lat="36.9078774797399" lon="15.026613641678527"><ele>305.0</ele><time>2026-04-30T14:31:24.001Z</time></trkpt><trkpt lat="36.907848972018016" lon="15.02678019903981"><ele>303.0</ele><time>2026-04-30T14:31:26.001Z</time></trkpt><trkpt lat="36.90781151066087" lon="15.026932933260287"><ele>301.0</ele><time>2026-04-30T14:31:28.001Z</time></trkpt><trkpt lat="36.90778696027253" lon="15.027015612633713"><ele>299.0</ele><time>2026-04-30T14:31:29.001Z</time></trkpt><trkpt lat="36.90753335394597" lon="15.02701477733529"><ele>296.1666666666667</ele><time>2026-04-30T14:31:31.001Z</time></trkpt><trkpt lat="36.90748274424459" lon="15.027117194086568"><ele>293.33333333333337</ele><time>2026-04-30T14:31:32.001Z</time></trkpt><trkpt lat="36.90744212856383" lon="15.02726275345128"><ele>290.5</ele><time>2026-04-30T14:31:33.001Z</time></trkpt><trkpt lat="36.90743186331536" lon="15.02735569713934"><ele>287.6666666666667</ele><time>2026-04-30T14:31:34.001Z</time></trkpt><trkpt lat="36.90742805487656" lon="15.02744738867282"><ele>284.8333333333333</ele><time>2026-04-30T14:31:35.001Z</time></trkpt><trkpt lat="36.90742683529202" lon="15.02752931037488"><ele>282.0</ele><time>2026-04-30T14:31:36.001Z</time></trkpt><trkpt lat="36.90741530038244" lon="15.02764030636669"><ele>281.2</ele><time>2026-04-30T14:31:37.001Z</time></trkpt><trkpt lat="36.90739290795469" lon="15.027735666044663"><ele>280.4</ele><time>2026-04-30T14:31:38.001Z</time></trkpt><trkpt lat="36.90733205152948" lon="15.027823595711055"><ele>279.6</ele><time>2026-04-30T14:31:40.001Z</time></trkpt><trkpt lat="36.90727600332121" lon="15.027959105323733"><ele>278.8</ele><time>2026-04-30T14:31:41.001Z</time></trkpt><trkpt lat="36.90723032623074" lon="15.028090317350795"><ele>278.0</ele><time>2026-04-30T14:31:42.001Z</time></trkpt><trkpt lat="36.907197310357425" lon="15.028193921629335"><ele>278.0</ele><time>2026-04-30T14:31:43.001Z</time></trkpt><trkpt lat="36.907166308145925" lon="15.028290032434535"><ele>278.0</ele><time>2026-04-30T14:31:44.001Z</time></trkpt><trkpt lat="36.90714269596938" lon="15.028366966133163"><ele>278.0</ele><time>2026-04-30T14:31:45.001Z</time></trkpt><trkpt lat="36.90710632291232" lon="15.028525208152393"><ele>278.0</ele><time>2026-04-30T14:31:47.001Z</time></trkpt><trkpt lat="36.90708426869707" lon="15.02885635616712"><ele>282.0</ele><time>2026-04-30T14:31:48.001Z</time></trkpt><trkpt lat="36.90764224097681" lon="15.028780737129289"><ele>282.0</ele><time>2026-04-30T14:31:49.001Z</time></trkpt><trkpt lat="36.90767971483314" lon="15.028846512031889"><ele>282.0</ele><time>2026-04-30T14:31:51.001Z</time></trkpt><trkpt lat="36.90773730143783" lon="15.028942999776541"><ele>282.0</ele><time>2026-04-30T14:31:54.001Z</time></trkpt><trkpt lat="36.90781129214761" lon="15.028939376071127"><ele>282.0</ele><time>2026-04-30T14:31:56.001Z</time></trkpt><trkpt lat="36.9079187933423" lon="15.028863018563525"><ele>282.0</ele><time>2026-04-30T14:31:58.001Z</time></trkpt><trkpt lat="36.90800196958558" lon="15.028839699204658"><ele>282.0</ele><time>2026-04-30T14:31:59.001Z</time></trkpt><trkpt lat="36.90809064706914" lon="15.028832712998488"><ele>282.0</ele><time>2026-04-30T14:32:00.001Z</time></trkpt><trkpt lat="36.908155520186796" lon="15.028841056269691"><ele>282.0</ele><time>2026-04-30T14:32:01.001Z</time></trkpt><trkpt lat="36.908233216625725" lon="15.028845058272628"><ele>282.0</ele><time>2026-04-30T14:32:02.001Z</time></trkpt><trkpt lat="36.908302031362076" lon="15.028830877772581"><ele>282.0</ele><time>2026-04-30T14:32:03.001Z</time></trkpt><trkpt lat="36.908373218221676" lon="15.02878973643226"><ele>282.0</ele><time>2026-04-30T14:32:04.001Z</time></trkpt><trkpt lat="36.90845256868802" lon="15.028741668709204"><ele>282.0</ele><time>2026-04-30T14:32:05.001Z</time></trkpt><trkpt lat="36.9085321128885" lon="15.028686911827931"><ele>281.2</ele><time>2026-04-30T14:32:06.001Z</time></trkpt><trkpt lat="36.908606648560685" lon="15.02863817413423"><ele>280.4</ele><time>2026-04-30T14:32:07.001Z</time></trkpt><trkpt lat="36.908690414339176" lon="15.028585917917692"><ele>279.6</ele><time>2026-04-30T14:32:08.001Z</time></trkpt><trkpt lat="36.90876064091" lon="15.028529836345164"><ele>278.8</ele><time>2026-04-30T14:32:09.001Z</time></trkpt><trkpt lat="36.90882558676005" lon="15.028455152513768"><ele>278.0</ele><time>2026-04-30T14:32:10.001Z</time></trkpt><trkpt lat="36.90889745285013" lon="15.028358827484531"><ele>280.8</ele><time>2026-04-30T14:32:11.001Z</time></trkpt><trkpt lat="36.90897041646008" lon="15.02828610815945"><ele>283.6</ele><time>2026-04-30T14:32:12.001Z</time></trkpt><trkpt lat="36.9090550730469" lon="15.028204863722705"><ele>286.4</ele><time>2026-04-30T14:32:13.001Z</time></trkpt><trkpt lat="36.909130529613776" lon="15.028120081262955"><ele>289.2</ele><time>2026-04-30T14:32:14.001Z</time></trkpt><trkpt lat="36.90920227125103" lon="15.028010252461337"><ele>292.0</ele><time>2026-04-30T14:32:15.001Z</time></trkpt><trkpt lat="36.90926468894885" lon="15.027910609343499"><ele>292.0</ele><time>2026-04-30T14:32:16.001Z</time></trkpt><trkpt lat="36.90932498678133" lon="15.027834676503266"><ele>292.0</ele><time>2026-04-30T14:32:17.001Z</time></trkpt><trkpt lat="36.909406290140225" lon="15.027770878066477"><ele>292.0</ele><time>2026-04-30T14:32:18.001Z</time></trkpt><trkpt lat="36.909495126155655" lon="15.02770428740417"><ele>292.0</ele><time>2026-04-30T14:32:19.001Z</time></trkpt><trkpt lat="36.90958699495051" lon="15.027641340735805"><ele>292.0</ele><time>2026-04-30T14:32:20.001Z</time></trkpt><trkpt lat="36.90967641264538" lon="15.02763340446249"><ele>292.0</ele><time>2026-04-30T14:32:21.002Z</time></trkpt><trkpt lat="36.90976194216231" lon="15.027632809139448"><ele>292.0</ele><time>2026-04-30T14:32:22.002Z</time></trkpt><trkpt lat="36.90985712531886" lon="15.02763747829571"><ele>292.0</ele><time>2026-04-30T14:32:23.002Z</time></trkpt><trkpt lat="36.909969048959574" lon="15.027615662157787"><ele>292.0</ele><time>2026-04-30T14:32:24.002Z</time></trkpt><trkpt lat="36.910083740977534" lon="15.02761542205332"><ele>292.0</ele><time>2026-04-30T14:32:25.002Z</time></trkpt><trkpt lat="36.91018951013749" lon="15.027614967297257"><ele>291.0</ele><time>2026-04-30T14:32:26.002Z</time></trkpt><trkpt lat="36.91028518796458" lon="15.027608249461048"><ele>290.0</ele><time>2026-04-30T14:32:27.002Z</time></trkpt><trkpt lat="36.91038165105187" lon="15.027604183863067"><ele>289.0</ele><time>2026-04-30T14:32:28.002Z</time></trkpt><trkpt lat="36.910462478415546" lon="15.027589176903469"><ele>288.0</ele><time>2026-04-30T14:32:29.002Z</time></trkpt><trkpt lat="36.91054014666551" lon="15.027537446375272"><ele>287.0</ele><time>2026-04-30T14:32:30.002Z</time></trkpt><trkpt lat="36.9106146270682" lon="15.027476146035456"><ele>288.33333333333337</ele><time>2026-04-30T14:32:31.002Z</time></trkpt><trkpt lat="36.91069988889077" lon="15.027404419176948"><ele>289.6666666666667</ele><time>2026-04-30T14:32:32.002Z</time></trkpt><trkpt lat="36.91076570849929" lon="15.027364906578041"><ele>291.0</ele><time>2026-04-30T14:32:33.002Z</time></trkpt><trkpt lat="36.910837614356794" lon="15.02731965211815"><ele>292.3333333333333</ele><time>2026-04-30T14:32:34.002Z</time></trkpt><trkpt lat="36.91090026359142" lon="15.027247346988343"><ele>293.66666666666663</ele><time>2026-04-30T14:32:35.002Z</time></trkpt><trkpt lat="36.91095000575058" lon="15.027165193178742"><ele>295.0</ele><time>2026-04-30T14:32:36.002Z</time></trkpt><trkpt lat="36.91098487291244" lon="15.027089299047713"><ele>295.0</ele><time>2026-04-30T14:32:37.002Z</time></trkpt><trkpt lat="36.91103776675381" lon="15.027034716418113"><ele>295.0</ele><time>2026-04-30T14:32:38.002Z</time></trkpt><trkpt lat="36.911099352370144" lon="15.02698776109666"><ele>295.0</ele><time>2026-04-30T14:32:39.002Z</time></trkpt><trkpt lat="36.91115472125527" lon="15.02693992534769"><ele>295.0</ele><time>2026-04-30T14:32:40.002Z</time></trkpt><trkpt lat="36.911261094263345" lon="15.026870210629085"><ele>295.0</ele><time>2026-04-30T14:32:42.002Z</time></trkpt><trkpt lat="36.91135098331281" lon="15.026856676532306"><ele>295.0</ele><time>2026-04-30T14:32:43.002Z</time></trkpt><trkpt lat="36.91144515717343" lon="15.026794241504149"><ele>295.0</ele><time>2026-04-30T14:32:44.002Z</time></trkpt><trkpt lat="36.911541621536514" lon="15.02676012669362"><ele>295.0</ele><time>2026-04-30T14:32:45.002Z</time></trkpt><trkpt lat="36.911662194778394" lon="15.026757058842126"><ele>295.0</ele><time>2026-04-30T14:32:46.002Z</time></trkpt><trkpt lat="36.911791789548" lon="15.026731514772642"><ele>295.0</ele><time>2026-04-30T14:32:47.002Z</time></trkpt><trkpt lat="36.911917834483376" lon="15.026727102102669"><ele>294.75</ele><time>2026-04-30T14:32:48.002Z</time></trkpt><trkpt lat="36.912048919193566" lon="15.0267276844014"><ele>294.5</ele><time>2026-04-30T14:32:49.002Z</time></trkpt><trkpt lat="36.91218704687286" lon="15.02670434928567"><ele>294.25</ele><time>2026-04-30T14:32:50.002Z</time></trkpt><trkpt lat="36.91233368630327" lon="15.02667049452022"><ele>294.0</ele><time>2026-04-30T14:32:51.002Z</time></trkpt><trkpt lat="36.91246912108355" lon="15.026648783176114"><ele>298.5</ele><time>2026-04-30T14:32:52.002Z</time></trkpt><trkpt lat="36.91259270303182" lon="15.026593576509343"><ele>303.0</ele><time>2026-04-30T14:32:53.002Z</time></trkpt><trkpt lat="36.91271217295289" lon="15.026536219044345"><ele>307.5</ele><time>2026-04-30T14:32:54.002Z</time></trkpt><trkpt lat="36.91284009159999" lon="15.026464827499163"><ele>312.0</ele><time>2026-04-30T14:32:55.002Z</time></trkpt><trkpt lat="36.91296971277994" lon="15.026416402541592"><ele>312.0</ele><time>2026-04-30T14:32:56.002Z</time></trkpt><trkpt lat="36.913088613030986" lon="15.026363500048845"><ele>312.0</ele><time>2026-04-30T14:32:57.002Z</time></trkpt><trkpt lat="36.913213359723585" lon="15.026309750570835"><ele>312.0</ele><time>2026-04-30T14:32:58.002Z</time></trkpt><trkpt lat="36.913352093763926" lon="15.026255474211494"><ele>312.0</ele><time>2026-04-30T14:32:59.001Z</time></trkpt><trkpt lat="36.91348254635842" lon="15.026179356856403"><ele>310.5</ele><time>2026-04-30T14:33:00.001Z</time></trkpt><trkpt lat="36.913608841335346" lon="15.026118726355298"><ele>309.0</ele><time>2026-04-30T14:33:01.001Z</time></trkpt><trkpt lat="36.91372865168452" lon="15.026071546818475"><ele>307.5</ele><time>2026-04-30T14:33:02.001Z</time></trkpt><trkpt lat="36.9138252022049" lon="15.026043072683121"><ele>306.0</ele><time>2026-04-30T14:33:03.001Z</time></trkpt><trkpt lat="36.91392627557943" lon="15.026014566673986"><ele>306.0</ele><time>2026-04-30T14:33:04.001Z</time></trkpt><trkpt lat="36.91402678251069" lon="15.025994087092933"><ele>306.0</ele><time>2026-04-30T14:33:05.001Z</time></trkpt><trkpt lat="36.91413828352916" lon="15.025956773595558"><ele>306.0</ele><time>2026-04-30T14:33:06.001Z</time></trkpt><trkpt lat="36.91424819922527" lon="15.025967137047743"><ele>306.0</ele><time>2026-04-30T14:33:07.001Z</time></trkpt><trkpt lat="36.91436290521606" lon="15.025944029083837"><ele>306.0</ele><time>2026-04-30T14:33:08.001Z</time></trkpt><trkpt lat="36.91449002213048" lon="15.02592742400083"><ele>305.0</ele><time>2026-04-30T14:33:09Z</time></trkpt><trkpt lat="36.91460475164314" lon="15.025914114719406"><ele>304.0</ele><time>2026-04-30T14:33:10Z</time></trkpt><trkpt lat="36.91471751365845" lon="15.025890486482844"><ele>303.0</ele><time>2026-04-30T14:33:11Z</time></trkpt><trkpt lat="36.91480586679938" lon="15.025865622254095"><ele>302.0</ele><time>2026-04-30T14:33:12Z</time></trkpt><trkpt lat="36.91489225431982" lon="15.025844886171976"><ele>301.0</ele><time>2026-04-30T14:33:13Z</time></trkpt><trkpt lat="36.914982030008524" lon="15.025814985216211"><ele>304.6</ele><time>2026-04-30T14:33:14Z</time></trkpt><trkpt lat="36.91506800686521" lon="15.025791173778805"><ele>308.20000000000005</ele><time>2026-04-30T14:33:15Z</time></trkpt><trkpt lat="36.915171694340074" lon="15.025765339080529"><ele>311.79999999999995</ele><time>2026-04-30T14:33:16Z</time></trkpt><trkpt lat="36.91528696462328" lon="15.025743929395459"><ele>315.4</ele><time>2026-04-30T14:33:17Z</time></trkpt><trkpt lat="36.91538462618" lon="15.025751369731983"><ele>319.0</ele><time>2026-04-30T14:33:18Z</time></trkpt><trkpt lat="36.91545606882829" lon="15.025731369004408"><ele>319.0</ele><time>2026-04-30T14:33:19Z</time></trkpt><trkpt lat="36.915556868595324" lon="15.025724917544599"><ele>319.0</ele><time>2026-04-30T14:35:37.001Z</time></trkpt><trkpt lat="36.91568250701995" lon="15.025697391098069"><ele>319.0</ele><time>2026-04-30T14:35:39.001Z</time></trkpt><trkpt lat="36.915748924627536" lon="15.025683853191218"><ele>319.0</ele><time>2026-04-30T14:35:40.001Z</time></trkpt><trkpt lat="36.91581224404711" lon="15.025677505329433"><ele>319.0</ele><time>2026-04-30T14:35:41.001Z</time></trkpt><trkpt lat="36.91588195171845" lon="15.025689934308994"><ele>319.0</ele><time>2026-04-30T14:35:42.001Z</time></trkpt><trkpt lat="36.915948223344394" lon="15.0256857343238"><ele>319.4</ele><time>2026-04-30T14:35:43.001Z</time></trkpt><trkpt lat="36.91602450390307" lon="15.025680236698186"><ele>319.79999999999995</ele><time>2026-04-30T14:35:44.001Z</time></trkpt><trkpt lat="36.91612172003162" lon="15.025700429290824"><ele>320.20000000000005</ele><time>2026-04-30T14:35:46.001Z</time></trkpt><trkpt lat="36.91623926193468" lon="15.025746538676048"><ele>320.6</ele><time>2026-04-30T14:35:48.001Z</time></trkpt><trkpt lat="36.91636857377905" lon="15.025780357338485"><ele>321.0</ele><time>2026-04-30T14:35:50.001Z</time></trkpt><trkpt lat="36.91645291421397" lon="15.025806323305268"><ele>321.0</ele><time>2026-04-30T14:35:51.001Z</time></trkpt><trkpt lat="36.91653735128832" lon="15.025803239019723"><ele>321.0</ele><time>2026-04-30T14:35:52.001Z</time></trkpt><trkpt lat="36.9166143660647" lon="15.025815312526024"><ele>321.0</ele><time>2026-04-30T14:35:53.001Z</time></trkpt><trkpt lat="36.916682213687665" lon="15.025821513180741"><ele>321.0</ele><time>2026-04-30T14:35:54.001Z</time></trkpt><trkpt lat="36.91674768918044" lon="15.025846197153339"><ele>321.0</ele><time>2026-04-30T14:35:55.001Z</time></trkpt><trkpt lat="36.9168446027741" lon="15.02587256762278"><ele>321.0</ele><time>2026-04-30T14:35:57.001Z</time></trkpt><trkpt lat="36.91691404242374" lon="15.02588740290928"><ele>317.40000000000003</ele><time>2026-04-30T14:35:58.001Z</time></trkpt><trkpt lat="36.917022888925864" lon="15.025895826750359"><ele>313.8</ele><time>2026-04-30T14:36:00.001Z</time></trkpt><trkpt lat="36.91712254524779" lon="15.02588815044667"><ele>310.20000000000005</ele><time>2026-04-30T14:36:02.001Z</time></trkpt><trkpt lat="36.91722360536464" lon="15.025890576399851"><ele>306.6</ele><time>2026-04-30T14:36:04.001Z</time></trkpt><trkpt lat="36.91730193604999" lon="15.025917168639285"><ele>303.0</ele><time>2026-04-30T14:36:06.001Z</time></trkpt><trkpt lat="36.91737997428949" lon="15.025954753364951"><ele>303.0</ele><time>2026-04-30T14:36:08.001Z</time></trkpt><trkpt lat="36.91746987339505" lon="15.025988415403027"><ele>303.0</ele><time>2026-04-30T14:36:10.001Z</time></trkpt><trkpt lat="36.917560664811646" lon="15.02601371992436"><ele>303.0</ele><time>2026-04-30T14:36:12.001Z</time></trkpt><trkpt lat="36.91764739703599" lon="15.026040502327396"><ele>303.0</ele><time>2026-04-30T14:36:14.001Z</time></trkpt><trkpt lat="36.91773714180436" lon="15.02604162984776"><ele>303.0</ele><time>2026-04-30T14:36:16.001Z</time></trkpt><trkpt lat="36.917811302514664" lon="15.02604500381938"><ele>303.0</ele><time>2026-04-30T14:36:17.001Z</time></trkpt><trkpt lat="36.9178959783492" lon="15.026072462435831"><ele>302.6</ele><time>2026-04-30T14:36:19.001Z</time></trkpt><trkpt lat="36.9179695810097" lon="15.026126783781816"><ele>302.20000000000005</ele><time>2026-04-30T14:36:21.001Z</time></trkpt><trkpt lat="36.918080628738316" lon="15.026158808915328"><ele>301.8</ele><time>2026-04-30T14:36:23.001Z</time></trkpt><trkpt lat="36.91817178602062" lon="15.026187010690435"><ele>301.40000000000003</ele><time>2026-04-30T14:36:25.001Z</time></trkpt><trkpt lat="36.91829317924624" lon="15.026213740570794"><ele>301.0</ele><time>2026-04-30T14:36:27.001Z</time></trkpt><trkpt lat="36.91836434448429" lon="15.026226794321149"><ele>300.40000000000003</ele><time>2026-04-30T14:36:28.001Z</time></trkpt><trkpt lat="36.91848194821562" lon="15.026225615956196"><ele>299.8</ele><time>2026-04-30T14:36:30.001Z</time></trkpt><trkpt lat="36.9185598239273" lon="15.0262178582972"><ele>299.20000000000005</ele><time>2026-04-30T14:36:31.001Z</time></trkpt><trkpt lat="36.918667484658556" lon="15.026201771978757"><ele>298.6</ele><time>2026-04-30T14:36:32.001Z</time></trkpt><trkpt lat="36.918752864639366" lon="15.026222539838288"><ele>298.0</ele><time>2026-04-30T14:36:33.001Z</time></trkpt><trkpt lat="36.91882087081878" lon="15.026225960268372"><ele>298.0</ele><time>2026-04-30T14:36:34.001Z</time></trkpt><trkpt lat="36.918896992873144" lon="15.026219576218079"><ele>298.0</ele><time>2026-04-30T14:36:35.001Z</time></trkpt><trkpt lat="36.91898885927827" lon="15.026228888854776"><ele>298.0</ele><time>2026-04-30T14:36:36.001Z</time></trkpt><trkpt lat="36.91905598135047" lon="15.026229981980826"><ele>298.0</ele><time>2026-04-30T14:36:37.002Z</time></trkpt><trkpt lat="36.919164622916135" lon="15.026181124671908"><ele>298.0</ele><time>2026-04-30T14:36:39.002Z</time></trkpt><trkpt lat="36.91929993261928" lon="15.026139289758449"><ele>297.6</ele><time>2026-04-30T14:36:41.002Z</time></trkpt><trkpt lat="36.9193822934024" lon="15.02611458226644"><ele>297.20000000000005</ele><time>2026-04-30T14:36:42.002Z</time></trkpt><trkpt lat="36.91945387227198" lon="15.026096430120008"><ele>296.8</ele><time>2026-04-30T14:36:43.002Z</time></trkpt><trkpt lat="36.91959214322226" lon="15.026098505159455"><ele>296.40000000000003</ele><time>2026-04-30T14:36:45.002Z</time></trkpt><trkpt lat="36.9196833774913" lon="15.02609389592988"><ele>296.0</ele><time>2026-04-30T14:36:46.002Z</time></trkpt><trkpt lat="36.91976839036195" lon="15.026075579854643"><ele>296.0</ele><time>2026-04-30T14:36:47.002Z</time></trkpt><trkpt lat="36.91981547330052" lon="15.025955041713704"><ele>296.0</ele><time>2026-04-30T14:36:48.002Z</time></trkpt><trkpt lat="36.91988547101116" lon="15.025920290924825"><ele>296.0</ele><time>2026-04-30T14:36:49.002Z</time></trkpt><trkpt lat="36.91995591288306" lon="15.025889502829308"><ele>296.0</ele><time>2026-04-30T14:36:50.002Z</time></trkpt><trkpt lat="36.920031826543266" lon="15.025856087607316"><ele>296.0</ele><time>2026-04-30T14:36:51.002Z</time></trkpt><trkpt lat="36.92010164726988" lon="15.02582659799044"><ele>296.0</ele><time>2026-04-30T14:36:52.002Z</time></trkpt><trkpt lat="36.920162053892014" lon="15.02580108445371"><ele>298.83333333333337</ele><time>2026-04-30T14:36:53.002Z</time></trkpt><trkpt lat="36.920266899846695" lon="15.025756801376305"><ele>301.6666666666667</ele><time>2026-04-30T14:36:55.002Z</time></trkpt><trkpt lat="36.92033484069656" lon="15.025728105662697"><ele>304.5</ele><time>2026-04-30T14:36:56.002Z</time></trkpt><trkpt lat="36.920415176669586" lon="15.02569417469165"><ele>307.3333333333333</ele><time>2026-04-30T14:36:57.002Z</time></trkpt><trkpt lat="36.9204771647692" lon="15.025667207609327"><ele>310.16666666666663</ele><time>2026-04-30T14:36:58.002Z</time></trkpt><trkpt lat="36.920583958903435" lon="15.025617818447293"><ele>313.0</ele><time>2026-04-30T14:37:00.002Z</time></trkpt><trkpt lat="36.920664576607756" lon="15.025554778347525"><ele>313.0</ele><time>2026-04-30T14:37:02.002Z</time></trkpt><trkpt lat="36.92071439041233" lon="15.025499199285868"><ele>313.0</ele><time>2026-04-30T14:37:04.002Z</time></trkpt><trkpt lat="36.92077380874607" lon="15.025396690317269"><ele>313.0</ele><time>2026-04-30T14:37:07.002Z</time></trkpt><trkpt lat="36.921147335380915" lon="15.025827594204397"><ele>308.2</ele><time>2026-04-30T14:37:09.002Z</time></trkpt><trkpt lat="36.92122934293312" lon="15.025775130050365"><ele>303.4</ele><time>2026-04-30T14:37:11.001Z</time></trkpt><trkpt lat="36.92130455262126" lon="15.025669242245852"><ele>298.59999999999997</ele><time>2026-04-30T14:37:13.001Z</time></trkpt><trkpt lat="36.92141280879638" lon="15.025603752481372"><ele>293.8</ele><time>2026-04-30T14:37:15.001Z</time></trkpt><trkpt lat="36.921490033750025" lon="15.02552429645193"><ele>289.0</ele><time>2026-04-30T14:37:17.001Z</time></trkpt><trkpt lat="36.9215783048222" lon="15.025444564006909"><ele>289.0</ele><time>2026-04-30T14:37:19.001Z</time></trkpt><trkpt lat="36.92165098416827" lon="15.025362921361712"><ele>289.0</ele><time>2026-04-30T14:37:21.001Z</time></trkpt><trkpt lat="36.92175456620001" lon="15.025268258789168"><ele>289.0</ele><time>2026-04-30T14:37:23.001Z</time></trkpt><trkpt lat="36.921825247793876" lon="15.025182262160795"><ele>289.0</ele><time>2026-04-30T14:37:25.001Z</time></trkpt><trkpt lat="36.92187810604395" lon="15.025087016579063"><ele>289.0</ele><time>2026-04-30T14:37:27.001Z</time></trkpt><trkpt lat="36.921959939967614" lon="15.02501151166293"><ele>290.0</ele><time>2026-04-30T14:37:29.001Z</time></trkpt><trkpt lat="36.922026286230945" lon="15.024952352622737"><ele>291.0</ele><time>2026-04-30T14:37:31.001Z</time></trkpt><trkpt lat="36.92213602357024" lon="15.024917698990102"><ele>292.0</ele><time>2026-04-30T14:37:33.001Z</time></trkpt><trkpt lat="36.92221774274306" lon="15.024875937465076"><ele>293.0</ele><time>2026-04-30T14:37:35.001Z</time></trkpt><trkpt lat="36.922327725876116" lon="15.024852951840074"><ele>294.0</ele><time>2026-04-30T14:37:37.001Z</time></trkpt><trkpt lat="36.92238948291343" lon="15.024821938493922"><ele>294.0</ele><time>2026-04-30T14:37:38.001Z</time></trkpt><trkpt lat="36.922464172197614" lon="15.024769149900818"><ele>294.0</ele><time>2026-04-30T14:37:39.001Z</time></trkpt><trkpt lat="36.92253226674693" lon="15.024749542800135"><ele>294.0</ele><time>2026-04-30T14:37:40.001Z</time></trkpt><trkpt lat="36.922612371098126" lon="15.024730140285348"><ele>294.0</ele><time>2026-04-30T14:37:41.001Z</time></trkpt><trkpt lat="36.92267859550494" lon="15.024721202662665"><ele>294.0</ele><time>2026-04-30T14:37:42.001Z</time></trkpt><trkpt lat="36.92277993843232" lon="15.024746628754452"><ele>294.0</ele><time>2026-04-30T14:37:44.001Z</time></trkpt><trkpt lat="36.922870364565966" lon="15.024744404967336"><ele>291.1666666666667</ele><time>2026-04-30T14:37:46.001Z</time></trkpt><trkpt lat="36.92293646840998" lon="15.024731153789656"><ele>288.3333333333333</ele><time>2026-04-30T14:37:48.001Z</time></trkpt><trkpt lat="36.92300642951066" lon="15.0247365308987"><ele>285.5</ele><time>2026-04-30T14:37:50.001Z</time></trkpt><trkpt lat="36.923077071237216" lon="15.024772731204234"><ele>282.66666666666663</ele><time>2026-04-30T14:37:52.001Z</time></trkpt><trkpt lat="36.92315026712916" lon="15.024764377702287"><ele>279.8333333333333</ele><time>2026-04-30T14:37:55.001Z</time></trkpt><trkpt lat="36.92319838622752" lon="15.024687542802145"><ele>277.0</ele><time>2026-04-30T14:37:57.001Z</time></trkpt><trkpt lat="36.92324852683265" lon="15.02456671229716"><ele>277.0</ele><time>2026-04-30T14:37:59.001Z</time></trkpt><trkpt lat="36.92333178212173" lon="15.024522951493966"><ele>277.0</ele><time>2026-04-30T14:38:01.001Z</time></trkpt><trkpt lat="36.92343642037967" lon="15.024523685542542"><ele>277.0</ele><time>2026-04-30T14:38:03.001Z</time></trkpt><trkpt lat="36.923508774062405" lon="15.02454841222543"><ele>277.0</ele><time>2026-04-30T14:38:04.001Z</time></trkpt><trkpt lat="36.92361259471368" lon="15.024518670342445"><ele>277.0</ele><time>2026-04-30T14:38:06.001Z</time></trkpt><trkpt lat="36.92369192683461" lon="15.024470918268976"><ele>273.8333333333333</ele><time>2026-04-30T14:38:07.001Z</time></trkpt><trkpt lat="36.92377743317259" lon="15.024437449521086"><ele>270.66666666666663</ele><time>2026-04-30T14:38:08.001Z</time></trkpt><trkpt lat="36.92384844262973" lon="15.024412649988998"><ele>267.5</ele><time>2026-04-30T14:38:09.001Z</time></trkpt><trkpt lat="36.923908402961" lon="15.02437764870341"><ele>264.3333333333333</ele><time>2026-04-30T14:38:10.001Z</time></trkpt><trkpt lat="36.924013663372044" lon="15.024307636379937"><ele>261.1666666666667</ele><time>2026-04-30T14:38:12.001Z</time></trkpt><trkpt lat="36.924110050281186" lon="15.024283161753045"><ele>258.0</ele><time>2026-04-30T14:38:14.001Z</time></trkpt><trkpt lat="36.92423496574122" lon="15.024310443335603"><ele>255.66666666666666</ele><time>2026-04-30T14:38:16.001Z</time></trkpt><trkpt lat="36.92429875224481" lon="15.024310663399355"><ele>253.33333333333331</ele><time>2026-04-30T14:38:17.001Z</time></trkpt><trkpt lat="36.92440469606443" lon="15.02429428743944"><ele>251.0</ele><time>2026-04-30T14:38:19.001Z</time></trkpt><trkpt lat="36.924520134095054" lon="15.024325091593127"><ele>248.66666666666666</ele><time>2026-04-30T14:38:21.001Z</time></trkpt><trkpt lat="36.92459031837683" lon="15.024313136710354"><ele>246.33333333333331</ele><time>2026-04-30T14:38:22.001Z</time></trkpt><trkpt lat="36.92466255814924" lon="15.024312874700525"><ele>244.0</ele><time>2026-04-30T14:38:23.001Z</time></trkpt><trkpt lat="36.924725662320604" lon="15.02434964984409"><ele>244.0</ele><time>2026-04-30T14:38:24.001Z</time></trkpt><trkpt lat="36.924844034686394" lon="15.024357930162887"><ele>243.99999999999997</ele><time>2026-04-30T14:38:26.001Z</time></trkpt><trkpt lat="36.9249412669783" lon="15.024365745658399"><ele>243.99999999999997</ele><time>2026-04-30T14:38:28.001Z</time></trkpt><trkpt lat="36.925044092172655" lon="15.024343755820102"><ele>244.0</ele><time>2026-04-30T14:38:30.001Z</time></trkpt><trkpt lat="36.925111472129494" lon="15.02434715535398"><ele>244.0</ele><time>2026-04-30T14:38:31.001Z</time></trkpt><trkpt lat="36.92520427320543" lon="15.02436200139203"><ele>241.6</ele><time>2026-04-30T14:38:33.001Z</time></trkpt><trkpt lat="36.92530397928438" lon="15.02438133197645"><ele>239.2</ele><time>2026-04-30T14:38:35.001Z</time></trkpt><trkpt lat="36.92537609639332" lon="15.024399242949643"><ele>236.79999999999998</ele><time>2026-04-30T14:38:37.001Z</time></trkpt><trkpt lat="36.92544771472351" lon="15.024398455866802"><ele>234.39999999999998</ele><time>2026-04-30T14:38:39.001Z</time></trkpt><trkpt lat="36.92554824956945" lon="15.024387502560211"><ele>232.0</ele><time>2026-04-30T14:38:41.001Z</time></trkpt><trkpt lat="36.92565895762663" lon="15.024359812110362"><ele>232.0</ele><time>2026-04-30T14:38:43.001Z</time></trkpt><trkpt lat="36.92576230694482" lon="15.024369444301689"><ele>232.0</ele><time>2026-04-30T14:38:45.001Z</time></trkpt><trkpt lat="36.925830384694684" lon="15.02437007478205"><ele>232.0</ele><time>2026-04-30T14:38:46.001Z</time></trkpt><trkpt lat="36.9259865471817" lon="15.024387879059194"><ele>232.0</ele><time>2026-04-30T14:38:48.001Z</time></trkpt><trkpt lat="36.9260457311598" lon="15.024350853999858"><ele>232.0</ele><time>2026-04-30T14:38:49.001Z</time></trkpt><trkpt lat="36.926102117006266" lon="15.024315807528962"><ele>233.99999999999997</ele><time>2026-04-30T14:38:51.001Z</time></trkpt><trkpt lat="36.92616188019862" lon="15.024288879531644"><ele>236.0</ele><time>2026-04-30T14:38:56.001Z</time></trkpt><trkpt lat="36.92624551517152" lon="15.024233010940023"><ele>238.0</ele><time>2026-04-30T14:38:58.001Z</time></trkpt><trkpt lat="36.92631508900233" lon="15.024215530308698"><ele>240.0</ele><time>2026-04-30T14:38:59.001Z</time></trkpt><trkpt lat="36.92638890387644" lon="15.02417892498106"><ele>241.99999999999997</ele><time>2026-04-30T14:39:00.002Z</time></trkpt><trkpt lat="36.92646378941874" lon="15.024130595604987"><ele>244.0</ele><time>2026-04-30T14:39:01.002Z</time></trkpt><trkpt lat="36.92654288052465" lon="15.024081618423441"><ele>244.0</ele><time>2026-04-30T14:39:02.002Z</time></trkpt><trkpt lat="36.92663310756359" lon="15.024028308591157"><ele>244.0</ele><time>2026-04-30T14:39:03.002Z</time></trkpt><trkpt lat="36.926736812900394" lon="15.023958260407735"><ele>244.0</ele><time>2026-04-30T14:39:04.002Z</time></trkpt><trkpt lat="36.92688545480097" lon="15.02389241653605"><ele>244.0</ele><time>2026-04-30T14:39:05.002Z</time></trkpt><trkpt lat="36.92701270980021" lon="15.023826967303192"><ele>237.5</ele><time>2026-04-30T14:39:06.002Z</time></trkpt><trkpt lat="36.92716776978575" lon="15.023735886571538"><ele>231.0</ele><time>2026-04-30T14:39:07.002Z</time></trkpt><trkpt lat="36.92729958992311" lon="15.02366591941275"><ele>224.5</ele><time>2026-04-30T14:39:08.002Z</time></trkpt><trkpt lat="36.92739468575732" lon="15.023606631149555"><ele>218.0</ele><time>2026-04-30T14:39:09.002Z</time></trkpt><trkpt lat="36.927474216075" lon="15.023507597129479"><ele>218.0</ele><time>2026-04-30T14:39:10.002Z</time></trkpt><trkpt lat="36.927540243324486" lon="15.023410576458788"><ele>218.0</ele><time>2026-04-30T14:39:11.002Z</time></trkpt><trkpt lat="36.92759167948721" lon="15.023321797170885"><ele>218.0</ele><time>2026-04-30T14:39:12.002Z</time></trkpt><trkpt lat="36.92761468026959" lon="15.023222820374265"><ele>218.0</ele><time>2026-04-30T14:39:13.002Z</time></trkpt><trkpt lat="36.92761263293882" lon="15.023115514457698"><ele>218.0</ele><time>2026-04-30T14:39:14.002Z</time></trkpt><trkpt lat="36.9276025249721" lon="15.022990197301834"><ele>218.16666666666669</ele><time>2026-04-30T14:39:15.002Z</time></trkpt><trkpt lat="36.92761416967103" lon="15.022897660571175"><ele>218.33333333333334</ele><time>2026-04-30T14:39:16.002Z</time></trkpt><trkpt lat="36.92761681947799" lon="15.022813867075614"><ele>218.5</ele><time>2026-04-30T14:39:17Z</time></trkpt><trkpt lat="36.92763754731241" lon="15.022691066088715"><ele>218.66666666666669</ele><time>2026-04-30T14:39:19Z</time></trkpt><trkpt lat="36.92768429127137" lon="15.0226087687288"><ele>218.83333333333334</ele><time>2026-04-30T14:39:23Z</time></trkpt><trkpt lat="36.927736647437726" lon="15.022553350416821"><ele>219.0</ele><time>2026-04-30T14:39:25Z</time></trkpt><trkpt lat="36.92781358722444" lon="15.022522672089663"><ele>220.16666666666666</ele><time>2026-04-30T14:39:27Z</time></trkpt><trkpt lat="36.92790741923712" lon="15.022456505816265"><ele>221.33333333333331</ele><time>2026-04-30T14:39:29Z</time></trkpt><trkpt lat="36.92791910006914" lon="15.022372322494546"><ele>222.5</ele><time>2026-04-30T14:39:30Z</time></trkpt><trkpt lat="36.927923445247316" lon="15.022260529995735"><ele>223.66666666666666</ele><time>2026-04-30T14:39:31Z</time></trkpt><trkpt lat="36.9279270355749" lon="15.022138876396738"><ele>224.83333333333331</ele><time>2026-04-30T14:39:32Z</time></trkpt><trkpt lat="36.927949314797445" lon="15.022061214911481"><ele>226.0</ele><time>2026-04-30T14:39:33Z</time></trkpt><trkpt lat="36.92806517368996" lon="15.022017854456701"><ele>226.0</ele><time>2026-04-30T14:39:35Z</time></trkpt><trkpt lat="36.928152626575695" lon="15.022049235847158"><ele>226.0</ele><time>2026-04-30T14:39:36Z</time></trkpt><trkpt lat="36.92825133732367" lon="15.022144729227781"><ele>226.0</ele><time>2026-04-30T14:39:37Z</time></trkpt><trkpt lat="36.928376692314274" lon="15.02221932288105"><ele>226.0</ele><time>2026-04-30T14:39:38Z</time></trkpt><trkpt lat="36.92851925392055" lon="15.022314382638486"><ele>226.8</ele><time>2026-04-30T14:39:39Z</time></trkpt><trkpt lat="36.92861377825116" lon="15.022389791319247"><ele>227.60000000000002</ele><time>2026-04-30T14:39:40Z</time></trkpt><trkpt lat="36.928684930368526" lon="15.022467938716616"><ele>228.4</ele><time>2026-04-30T14:39:41Z</time></trkpt><trkpt lat="36.928760047696755" lon="15.022555108450657"><ele>229.2</ele><time>2026-04-30T14:39:42Z</time></trkpt><trkpt lat="36.928853396135416" lon="15.02266702533928"><ele>230.0</ele><time>2026-04-30T14:39:43Z</time></trkpt><trkpt lat="36.92895106507599" lon="15.022758100172982"><ele>230.0</ele><time>2026-04-30T14:39:44Z</time></trkpt><trkpt lat="36.929012296369564" lon="15.02280205367968"><ele>230.0</ele><time>2026-04-30T14:39:45Z</time></trkpt><trkpt lat="36.92910305015774" lon="15.022758990402734"><ele>230.0</ele><time>2026-04-30T14:39:47Z</time></trkpt><trkpt lat="36.929103686466696" lon="15.022628718098458"><ele>230.0</ele><time>2026-04-30T14:39:48Z</time></trkpt><trkpt lat="36.92910705406942" lon="15.022489535512834"><ele>230.0</ele><time>2026-04-30T14:39:49Z</time></trkpt><trkpt lat="36.92912058571144" lon="15.022349676880122"><ele>232.0</ele><time>2026-04-30T14:39:50Z</time></trkpt><trkpt lat="36.92915429279773" lon="15.022249465656742"><ele>234.0</ele><time>2026-04-30T14:39:51Z</time></trkpt><trkpt lat="36.929205102310775" lon="15.022319992899913"><ele>236.0</ele><time>2026-04-30T14:39:54Z</time></trkpt><trkpt lat="36.92920287191209" lon="15.022412205796918"><ele>238.0</ele><time>2026-04-30T14:39:55Z</time></trkpt><trkpt lat="36.92923735523483" lon="15.02258611454344"><ele>240.0</ele><time>2026-04-30T14:39:56.001Z</time></trkpt><trkpt lat="36.929259664099746" lon="15.022738532255556"><ele>247.5</ele><time>2026-04-30T14:39:57.001Z</time></trkpt><trkpt lat="36.92931713886189" lon="15.022845995144365"><ele>255.0</ele><time>2026-04-30T14:39:58.001Z</time></trkpt><trkpt lat="36.92941562737829" lon="15.022944256447838"><ele>262.5</ele><time>2026-04-30T14:39:59.001Z</time></trkpt><trkpt lat="36.92953301075688" lon="15.023071275633246"><ele>270.0</ele><time>2026-04-30T14:40:00.001Z</time></trkpt><trkpt lat="36.929658356454226" lon="15.023259030308946"><ele>267.0</ele><time>2026-04-30T14:40:01.001Z</time></trkpt><trkpt lat="36.92976543020554" lon="15.023420241003944"><ele>264.0</ele><time>2026-04-30T14:40:02.001Z</time></trkpt><trkpt lat="36.9298314944687" lon="15.023534614687309"><ele>261.0</ele><time>2026-04-30T14:40:03.001Z</time></trkpt><trkpt lat="36.92989395627544" lon="15.02366829227364"><ele>258.0</ele><time>2026-04-30T14:40:04.001Z</time></trkpt><trkpt lat="36.92994616128309" lon="15.023810390157117"><ele>258.0</ele><time>2026-04-30T14:40:05.001Z</time></trkpt><trkpt lat="36.930001624468304" lon="15.023952915978619"><ele>258.0</ele><time>2026-04-30T14:40:06.001Z</time></trkpt><trkpt lat="36.93004759427311" lon="15.024060437481666"><ele>258.0</ele><time>2026-04-30T14:40:07.001Z</time></trkpt><trkpt lat="36.930100716731125" lon="15.02415231129761"><ele>258.0</ele><time>2026-04-30T14:40:08.001Z</time></trkpt><trkpt lat="36.93018802300857" lon="15.0242259078711"><ele>258.0</ele><time>2026-04-30T14:40:09.001Z</time></trkpt><trkpt lat="36.930314477401446" lon="15.024262616257369"><ele>260.6</ele><time>2026-04-30T14:40:10.001Z</time></trkpt><trkpt lat="36.93044905309424" lon="15.024307927914265"><ele>263.20000000000005</ele><time>2026-04-30T14:40:11.001Z</time></trkpt><trkpt lat="36.930567392602605" lon="15.024328749975703"><ele>265.8</ele><time>2026-04-30T14:40:12.001Z</time></trkpt><trkpt lat="36.93065556999783" lon="15.024361177119909"><ele>268.40000000000003</ele><time>2026-04-30T14:40:13.001Z</time></trkpt><trkpt lat="36.93072469685409" lon="15.024410574094212"><ele>271.0</ele><time>2026-04-30T14:40:14.001Z</time></trkpt><trkpt lat="36.93078586058755" lon="15.024465441941835"><ele>271.0</ele><time>2026-04-30T14:40:15.001Z</time></trkpt><trkpt lat="36.93082650675971" lon="15.024535758187524"><ele>271.0</ele><time>2026-04-30T14:40:16.001Z</time></trkpt><trkpt lat="36.930843839114" lon="15.024625943666098"><ele>271.0</ele><time>2026-04-30T14:40:17.001Z</time></trkpt><trkpt lat="36.93080342726292" lon="15.024722240088227"><ele>271.0</ele><time>2026-04-30T14:40:18.001Z</time></trkpt><trkpt lat="36.93076397774022" lon="15.024831587833983"><ele>271.0</ele><time>2026-04-30T14:40:19.001Z</time></trkpt><trkpt lat="36.930703493484884" lon="15.024965373439573"><ele>271.0</ele><time>2026-04-30T14:40:20.001Z</time></trkpt><trkpt lat="36.93064869432569" lon="15.025128946473757"><ele>268.66666666666663</ele><time>2026-04-30T14:40:21.001Z</time></trkpt><trkpt lat="36.930601090735586" lon="15.02529716373734"><ele>266.3333333333333</ele><time>2026-04-30T14:40:22.001Z</time></trkpt><trkpt lat="36.930565263026544" lon="15.02547876240574"><ele>264.0</ele><time>2026-04-30T14:40:23.001Z</time></trkpt><trkpt lat="36.93055328636613" lon="15.025675708915479"><ele>269.0</ele><time>2026-04-30T14:40:24.001Z</time></trkpt><trkpt lat="36.93054451354511" lon="15.02587729973461"><ele>274.0</ele><time>2026-04-30T14:40:25.001Z</time></trkpt><trkpt lat="36.93052393648878" lon="15.026071212082332"><ele>279.0</ele><time>2026-04-30T14:40:26.001Z</time></trkpt><trkpt lat="36.930508362281365" lon="15.02625085570645"><ele>279.0</ele><time>2026-04-30T14:40:27.001Z</time></trkpt><trkpt lat="36.93049278030285" lon="15.026430588965448"><ele>279.0</ele><time>2026-04-30T14:40:28.001Z</time></trkpt><trkpt lat="36.93047759125087" lon="15.026605789947347"><ele>279.0</ele><time>2026-04-30T14:40:29.001Z</time></trkpt><trkpt lat="36.93062219302758" lon="15.026793168647094"><ele>279.2</ele><time>2026-04-30T14:40:30.001Z</time></trkpt><trkpt lat="36.9306628264503" lon="15.026960996051994"><ele>279.4</ele><time>2026-04-30T14:40:31.001Z</time></trkpt><trkpt lat="36.93071167145346" lon="15.02710304302497"><ele>279.6</ele><time>2026-04-30T14:40:32.001Z</time></trkpt><trkpt lat="36.93074533293129" lon="15.027216888381352"><ele>279.8</ele><time>2026-04-30T14:40:33.001Z</time></trkpt><trkpt lat="36.93076304116501" lon="15.027323750651346"><ele>280.0</ele><time>2026-04-30T14:40:34.001Z</time></trkpt><trkpt lat="36.93077857919441" lon="15.027410919385341"><ele>278.5</ele><time>2026-04-30T14:40:35.001Z</time></trkpt><trkpt lat="36.930833462602635" lon="15.027489968435084"><ele>277.0</ele><time>2026-04-30T14:40:36.001Z</time></trkpt><trkpt lat="36.93090791664439" lon="15.027562806199027"><ele>275.5</ele><time>2026-04-30T14:40:37.001Z</time></trkpt><trkpt lat="36.9309773981939" lon="15.027613246575207"><ele>274.0</ele><time>2026-04-30T14:40:38.001Z</time></trkpt><trkpt lat="36.93106608418279" lon="15.027570540886446"><ele>272.5</ele><time>2026-04-30T14:40:40.001Z</time></trkpt><trkpt lat="36.93108878143391" lon="15.02746886787133"><ele>271.0</ele><time>2026-04-30T14:40:41.001Z</time></trkpt><trkpt lat="36.931091942698636" lon="15.027324538695089"><ele>281.0</ele><time>2026-04-30T14:40:42.001Z</time></trkpt><trkpt lat="36.93109311104605" lon="15.027171630426238"><ele>291.0</ele><time>2026-04-30T14:40:43.001Z</time></trkpt><trkpt lat="36.93110182587718" lon="15.027030279030285"><ele>301.0</ele><time>2026-04-30T14:40:44.001Z</time></trkpt><trkpt lat="36.9311147987839" lon="15.026884381888056"><ele>311.0</ele><time>2026-04-30T14:40:45.001Z</time></trkpt><trkpt lat="36.93113039382901" lon="15.026740242152444"><ele>310.8</ele><time>2026-04-30T14:40:46.001Z</time></trkpt><trkpt lat="36.93116195639377" lon="15.026582011029072"><ele>310.6</ele><time>2026-04-30T14:40:47.001Z</time></trkpt><trkpt lat="36.93120168891363" lon="15.02643151315397"><ele>310.4</ele><time>2026-04-30T14:40:48.001Z</time></trkpt><trkpt lat="36.93123230974978" lon="15.026308006226245"><ele>310.2</ele><time>2026-04-30T14:40:49.001Z</time></trkpt><trkpt lat="36.93125546722125" lon="15.026225835378074"><ele>310.0</ele><time>2026-04-30T14:40:50.001Z</time></trkpt><trkpt lat="36.93129058441684" lon="15.026152574067662"><ele>310.0</ele><time>2026-04-30T14:40:51.001Z</time></trkpt><trkpt lat="36.931355292774455" lon="15.026180559566528"><ele>310.0</ele><time>2026-04-30T14:40:53.001Z</time></trkpt><trkpt lat="36.93137591302321" lon="15.026335712642046"><ele>310.0</ele><time>2026-04-30T14:40:55.001Z</time></trkpt><trkpt lat="36.93137073264037" lon="15.026452507745915"><ele>310.0</ele><time>2026-04-30T14:40:56.001Z</time></trkpt><trkpt lat="36.93138357552846" lon="15.02657972182353"><ele>310.0</ele><time>2026-04-30T14:40:57.001Z</time></trkpt><trkpt lat="36.93141358396131" lon="15.026697960325539"><ele>310.0</ele><time>2026-04-30T14:40:58.001Z</time></trkpt><trkpt lat="36.931461740184055" lon="15.026787995656761"><ele>310.0</ele><time>2026-04-30T14:40:59.001Z</time></trkpt><trkpt lat="36.93152536560671" lon="15.026854919344142"><ele>310.0</ele><time>2026-04-30T14:41:00.001Z</time></trkpt><trkpt lat="36.93162680438325" lon="15.02686482184344"><ele>310.0</ele><time>2026-04-30T14:41:02.001Z</time></trkpt><trkpt lat="36.93165461711934" lon="15.026696705527515"><ele>310.0</ele><time>2026-04-30T14:41:04.001Z</time></trkpt><trkpt lat="36.93164912486179" lon="15.026565859241765"><ele>310.0</ele><time>2026-04-30T14:41:05.001Z</time></trkpt><trkpt lat="36.93164929788576" lon="15.026423566033616"><ele>310.0</ele><time>2026-04-30T14:41:06.001Z</time></trkpt><trkpt lat="36.93166424272404" lon="15.026313576374921"><ele>310.0</ele><time>2026-04-30T14:41:07.001Z</time></trkpt><trkpt lat="36.93169625295545" lon="15.02621676063483"><ele>310.0</ele><time>2026-04-30T14:41:08.001Z</time></trkpt><trkpt lat="36.931749113900345" lon="15.02610578870096"><ele>310.0</ele><time>2026-04-30T14:41:09.001Z</time></trkpt><trkpt lat="36.931790287121935" lon="15.026029879950093"><ele>315.8</ele><time>2026-04-30T14:41:10.001Z</time></trkpt><trkpt lat="36.93186783929828" lon="15.026052575279628"><ele>321.6</ele><time>2026-04-30T14:41:12.001Z</time></trkpt><trkpt lat="36.93192972616181" lon="15.026233711136822"><ele>327.4</ele><time>2026-04-30T14:41:14.001Z</time></trkpt><trkpt lat="36.93197016041021" lon="15.026363343779005"><ele>333.2</ele><time>2026-04-30T14:41:15.001Z</time></trkpt><trkpt lat="36.932024920617685" lon="15.026465559414174"><ele>339.0</ele><time>2026-04-30T14:41:16.001Z</time></trkpt><trkpt lat="36.9321183206364" lon="15.02655063095861"><ele>339.0</ele><time>2026-04-30T14:41:18.001Z</time></trkpt><trkpt lat="36.93218485259888" lon="15.026422994025902"><ele>339.0</ele><time>2026-04-30T14:41:20.002Z</time></trkpt><trkpt lat="36.932216624863756" lon="15.026317995553326"><ele>339.0</ele><time>2026-04-30T14:41:21.002Z</time></trkpt><trkpt lat="36.93226788498445" lon="15.026223966895081"><ele>339.0</ele><time>2026-04-30T14:41:22.002Z</time></trkpt><trkpt lat="36.932366258945635" lon="15.026173198961212"><ele>339.0</ele><time>2026-04-30T14:41:24Z</time></trkpt><trkpt lat="36.93242417702491" lon="15.026301470056675"><ele>339.0</ele><time>2026-04-30T14:41:27Z</time></trkpt><trkpt lat="36.93242329755739" lon="15.026408323904603"><ele>339.0</ele><time>2026-04-30T14:41:28Z</time></trkpt><trkpt lat="36.932423706393855" lon="15.026523568563402"><ele>339.0</ele><time>2026-04-30T14:41:29Z</time></trkpt><trkpt lat="36.93243464859637" lon="15.026618950536413"><ele>339.0</ele><time>2026-04-30T14:41:30Z</time></trkpt><trkpt lat="36.93248024943013" lon="15.026716885895844"><ele>339.0</ele><time>2026-04-30T14:41:31Z</time></trkpt><trkpt lat="36.93254298155335" lon="15.026795707889786"><ele>339.0</ele><time>2026-04-30T14:41:32Z</time></trkpt><trkpt lat="36.9326417892986" lon="15.02689996585197"><ele>341.6</ele><time>2026-04-30T14:41:33Z</time></trkpt><trkpt lat="36.932736684457545" lon="15.026990695490236"><ele>344.2</ele><time>2026-04-30T14:41:34Z</time></trkpt><trkpt lat="36.9328271232438" lon="15.027055283722493"><ele>346.8</ele><time>2026-04-30T14:41:35Z</time></trkpt><trkpt lat="36.93291619843732" lon="15.027101638491416"><ele>349.40000000000003</ele><time>2026-04-30T14:41:36Z</time></trkpt><trkpt lat="36.93301153700938" lon="15.027128081278905"><ele>352.0</ele><time>2026-04-30T14:41:37Z</time></trkpt><trkpt lat="36.933089121791745" lon="15.027137204421889"><ele>352.0</ele><time>2026-04-30T14:41:38Z</time></trkpt><trkpt lat="36.93315099179105" lon="15.027114031087999"><ele>352.0</ele><time>2026-04-30T14:41:39Z</time></trkpt><trkpt lat="36.93320925354036" lon="15.027069167237896"><ele>352.0</ele><time>2026-04-30T14:41:40Z</time></trkpt><trkpt lat="36.93328091304776" lon="15.026992557304728"><ele>352.0</ele><time>2026-04-30T14:41:41Z</time></trkpt><trkpt lat="36.93336127433147" lon="15.02688493168774"><ele>352.0</ele><time>2026-04-30T14:41:42Z</time></trkpt><trkpt lat="36.93344495333279" lon="15.026781891908476"><ele>357.0</ele><time>2026-04-30T14:41:43Z</time></trkpt><trkpt lat="36.93349828214792" lon="15.026720654833053"><ele>362.0</ele><time>2026-04-30T14:41:44Z</time></trkpt><trkpt lat="36.93352281083537" lon="15.026567059196447"><ele>367.0</ele><time>2026-04-30T14:41:46Z</time></trkpt><trkpt lat="36.93349225520514" lon="15.026467279135373"><ele>372.0</ele><time>2026-04-30T14:41:47Z</time></trkpt><trkpt lat="36.9334300872901" lon="15.026369539131174"><ele>377.0</ele><time>2026-04-30T14:41:48Z</time></trkpt><trkpt lat="36.93337462669932" lon="15.02625731821361"><ele>377.0</ele><time>2026-04-30T14:41:49Z</time></trkpt><trkpt lat="36.93328313532294" lon="15.026138238795019"><ele>377.0</ele><time>2026-04-30T14:41:50Z</time></trkpt><trkpt lat="36.933176814610405" lon="15.026021104150757"><ele>377.0</ele><time>2026-04-30T14:41:51Z</time></trkpt><trkpt lat="36.93303722959062" lon="15.02590724539934"><ele>377.0</ele><time>2026-04-30T14:41:52Z</time></trkpt><trkpt lat="36.93295427279267" lon="15.025786874200245"><ele>377.1666666666667</ele><time>2026-04-30T14:41:53Z</time></trkpt><trkpt lat="36.932911403951444" lon="15.02570133958874"><ele>377.33333333333337</ele><time>2026-04-30T14:41:54Z</time></trkpt><trkpt lat="36.93286234086" lon="15.0256173455167"><ele>377.5</ele><time>2026-04-30T14:41:55Z</time></trkpt><trkpt lat="36.932813416494085" lon="15.025542172103089"><ele>377.6666666666667</ele><time>2026-04-30T14:41:56Z</time></trkpt><trkpt lat="36.93276593070886" lon="15.025438761377915"><ele>377.8333333333333</ele><time>2026-04-30T14:41:57Z</time></trkpt><trkpt lat="36.932724866830895" lon="15.025339786840004"><ele>378.0</ele><time>2026-04-30T14:41:58Z</time></trkpt><trkpt lat="36.932677569542925" lon="15.025221596065466"><ele>378.0</ele><time>2026-04-30T14:41:59Z</time></trkpt><trkpt lat="36.932643433995935" lon="15.025119540801464"><ele>378.0</ele><time>2026-04-30T14:42:00Z</time></trkpt><trkpt lat="36.9326398208973" lon="15.025034727457578"><ele>378.0</ele><time>2026-04-30T14:42:01Z</time></trkpt><trkpt lat="36.932658957770784" lon="15.024958305930983"><ele>378.0</ele><time>2026-04-30T14:42:02Z</time></trkpt><trkpt lat="36.93269315710657" lon="15.024882914736049"><ele>378.0</ele><time>2026-04-30T14:42:03Z</time></trkpt><trkpt lat="36.932763049529584" lon="15.02481099690812"><ele>378.0</ele><time>2026-04-30T14:42:04Z</time></trkpt><trkpt lat="36.93284373351447" lon="15.024732625675435"><ele>373.59999999999997</ele><time>2026-04-30T14:42:05Z</time></trkpt><trkpt lat="36.932932590396675" lon="15.02466903563877"><ele>369.2</ele><time>2026-04-30T14:42:06Z</time></trkpt><trkpt lat="36.93303112356182" lon="15.024598739970298"><ele>364.8</ele><time>2026-04-30T14:42:07Z</time></trkpt><trkpt lat="36.93312135891922" lon="15.024532296539515"><ele>360.4</ele><time>2026-04-30T14:42:08Z</time></trkpt><trkpt lat="36.93322059520847" lon="15.024494315068884"><ele>356.0</ele><time>2026-04-30T14:42:09Z</time></trkpt><trkpt lat="36.93333598329285" lon="15.02447180206459"><ele>359.0</ele><time>2026-04-30T14:42:10Z</time></trkpt><trkpt lat="36.933468565488056" lon="15.024458488041875"><ele>362.0</ele><time>2026-04-30T14:42:11Z</time></trkpt><trkpt lat="36.93360997588172" lon="15.024451231814123"><ele>365.0</ele><time>2026-04-30T14:42:12Z</time></trkpt><trkpt lat="36.93376338038865" lon="15.024447175621502"><ele>368.0</ele><time>2026-04-30T14:42:13Z</time></trkpt><trkpt lat="36.933871977744666" lon="15.024438468878596"><ele>368.0</ele><time>2026-04-30T14:42:14.001Z</time></trkpt><trkpt lat="36.93400858570125" lon="15.024440508993596"><ele>368.0</ele><time>2026-04-30T14:42:15.001Z</time></trkpt><trkpt lat="36.93414712282513" lon="15.024453690471674"><ele>368.0</ele><time>2026-04-30T14:42:16.001Z</time></trkpt><trkpt lat="36.934292916734975" lon="15.024466300230285"><ele>368.0</ele><time>2026-04-30T14:42:17.001Z</time></trkpt><trkpt lat="36.9344124065418" lon="15.024456171772862"><ele>371.25</ele><time>2026-04-30T14:42:18.001Z</time></trkpt><trkpt lat="36.93452461784381" lon="15.02440690021656"><ele>374.5</ele><time>2026-04-30T14:42:19.001Z</time></trkpt><trkpt lat="36.93464797215454" lon="15.02435094648612"><ele>377.75</ele><time>2026-04-30T14:42:20.001Z</time></trkpt><trkpt lat="36.93479574445673" lon="15.024279354342728"><ele>381.0</ele><time>2026-04-30T14:42:21.001Z</time></trkpt><trkpt lat="36.9349460092802" lon="15.024209925518397"><ele>384.25</ele><time>2026-04-30T14:42:22.001Z</time></trkpt><trkpt lat="36.93509457297049" lon="15.024139269689481"><ele>387.5</ele><time>2026-04-30T14:42:23.001Z</time></trkpt><trkpt lat="36.935216527705265" lon="15.024078777608967"><ele>390.75</ele><time>2026-04-30T14:42:24.001Z</time></trkpt><trkpt lat="36.935299616563086" lon="15.024040048642945"><ele>394.0</ele><time>2026-04-30T14:42:25.001Z</time></trkpt><trkpt lat="36.93537688605228" lon="15.023998159638316"><ele>394.00000000000006</ele><time>2026-04-30T14:42:26.001Z</time></trkpt><trkpt lat="36.935454746939065" lon="15.023951054542374"><ele>394.0</ele><time>2026-04-30T14:42:27.001Z</time></trkpt><trkpt lat="36.935518131678826" lon="15.023899382660973"><ele>394.0</ele><time>2026-04-30T14:42:28.001Z</time></trkpt><trkpt lat="36.935588666600104" lon="15.02383139089715"><ele>394.0</ele><time>2026-04-30T14:42:29.001Z</time></trkpt><trkpt lat="36.935653217987976" lon="15.023771443310865"><ele>394.00000000000006</ele><time>2026-04-30T14:42:30.001Z</time></trkpt><trkpt lat="36.93572172771062" lon="15.023716944697743"><ele>394.0</ele><time>2026-04-30T14:42:31.001Z</time></trkpt><trkpt lat="36.93584384155077" lon="15.023722918420575"><ele>395.79999999999995</ele><time>2026-04-30T14:42:33.001Z</time></trkpt><trkpt lat="36.935940323588376" lon="15.02371783566067"><ele>397.59999999999997</ele><time>2026-04-30T14:42:34.001Z</time></trkpt><trkpt lat="36.936059089115005" lon="15.02373611902804"><ele>399.4</ele><time>2026-04-30T14:42:35.001Z</time></trkpt><trkpt lat="36.936173537934366" lon="15.023754416226161"><ele>401.2</ele><time>2026-04-30T14:42:36.001Z</time></trkpt><trkpt lat="36.93628501438343" lon="15.02375455777157"><ele>403.0</ele><time>2026-04-30T14:42:37.001Z</time></trkpt><trkpt lat="36.93639127401871" lon="15.023728090365589"><ele>403.00000000000006</ele><time>2026-04-30T14:42:38.001Z</time></trkpt><trkpt lat="36.936511700705765" lon="15.023681533327945"><ele>403.0</ele><time>2026-04-30T14:42:39.001Z</time></trkpt><trkpt lat="36.936612593741486" lon="15.023647555502583"><ele>403.0</ele><time>2026-04-30T14:42:40.001Z</time></trkpt><trkpt lat="36.93668364867764" lon="15.023637305878765"><ele>403.0</ele><time>2026-04-30T14:42:41.001Z</time></trkpt><trkpt lat="36.93673826831894" lon="15.023679933315604"><ele>403.00000000000006</ele><time>2026-04-30T14:42:43.001Z</time></trkpt><trkpt lat="36.936740580632524" lon="15.023780675564884"><ele>403.0</ele><time>2026-04-30T14:42:44.001Z</time></trkpt><trkpt lat="36.9367773553768" lon="15.023866903000416"><ele>403.59999999999997</ele><time>2026-04-30T14:42:45.001Z</time></trkpt><trkpt lat="36.93683158532669" lon="15.023976738159794"><ele>404.2</ele><time>2026-04-30T14:42:46.001Z</time></trkpt><trkpt lat="36.936902709895904" lon="15.024096603471655"><ele>404.8</ele><time>2026-04-30T14:42:47.001Z</time></trkpt><trkpt lat="36.93698090994067" lon="15.024191125808288"><ele>405.4</ele><time>2026-04-30T14:42:48.001Z</time></trkpt><trkpt lat="36.93702022985357" lon="15.024298187833882"><ele>406.0</ele><time>2026-04-30T14:42:49.001Z</time></trkpt><trkpt lat="36.93707148694601" lon="15.024372848983344"><ele>406.0</ele><time>2026-04-30T14:42:50.001Z</time></trkpt><trkpt lat="36.937129291351795" lon="15.024423497791073"><ele>406.0</ele><time>2026-04-30T14:42:52.001Z</time></trkpt><trkpt lat="36.93723477094283" lon="15.024321580137443"><ele>406.0</ele><time>2026-04-30T14:42:55.001Z</time></trkpt><trkpt lat="36.93731304917847" lon="15.024243324955819"><ele>406.0</ele><time>2026-04-30T14:42:56.001Z</time></trkpt><trkpt lat="36.9373979843833" lon="15.024178452727734"><ele>406.0</ele><time>2026-04-30T14:42:57.001Z</time></trkpt><trkpt lat="36.937487797060946" lon="15.024123417399947"><ele>407.5</ele><time>2026-04-30T14:42:58.001Z</time></trkpt><trkpt lat="36.93759647183814" lon="15.024047384583746"><ele>409.0</ele><time>2026-04-30T14:42:59.001Z</time></trkpt><trkpt lat="36.93769411517339" lon="15.023975365886383"><ele>410.5</ele><time>2026-04-30T14:43:00.001Z</time></trkpt><trkpt lat="36.93779368347963" lon="15.023902485997501"><ele>412.0</ele><time>2026-04-30T14:43:01.001Z</time></trkpt><trkpt lat="36.93789845318782" lon="15.023835308238978"><ele>412.0</ele><time>2026-04-30T14:43:02.001Z</time></trkpt><trkpt lat="36.93800742937922" lon="15.023766944401517"><ele>412.0</ele><time>2026-04-30T14:43:03.001Z</time></trkpt><trkpt lat="36.93811696157573" lon="15.023692741396712"><ele>412.0</ele><time>2026-04-30T14:43:04.001Z</time></trkpt><trkpt lat="36.938218552042066" lon="15.02362370069133"><ele>412.0</ele><time>2026-04-30T14:43:05.001Z</time></trkpt><trkpt lat="36.93830088067691" lon="15.023570638703227"><ele>412.00000000000006</ele><time>2026-04-30T14:43:06.001Z</time></trkpt><trkpt lat="36.938378628823656" lon="15.02352130862289"><ele>412.0</ele><time>2026-04-30T14:43:07.001Z</time></trkpt><trkpt lat="36.93843280368661" lon="15.023463685955162"><ele>412.0</ele><time>2026-04-30T14:43:08.001Z</time></trkpt><trkpt lat="36.93848859241642" lon="15.023376783676703"><ele>412.0</ele><time>2026-04-30T14:43:09.001Z</time></trkpt><trkpt lat="36.93852037597189" lon="15.02327723989426"><ele>412.00000000000006</ele><time>2026-04-30T14:43:10.001Z</time></trkpt><trkpt lat="36.93853517442247" lon="15.023173829701602"><ele>412.0</ele><time>2026-04-30T14:43:11.001Z</time></trkpt><trkpt lat="36.93855004020943" lon="15.023051115717326"><ele>412.1666666666667</ele><time>2026-04-30T14:43:12.001Z</time></trkpt><trkpt lat="36.93857049478932" lon="15.022909550155859"><ele>412.33333333333337</ele><time>2026-04-30T14:43:13.001Z</time></trkpt><trkpt lat="36.93858813016789" lon="15.022792974190166"><ele>412.5</ele><time>2026-04-30T14:43:14.001Z</time></trkpt><trkpt lat="36.93860608897039" lon="15.02269333579196"><ele>412.66666666666663</ele><time>2026-04-30T14:43:15.001Z</time></trkpt><trkpt lat="36.9386246070874" lon="15.022610119056065"><ele>412.8333333333333</ele><time>2026-04-30T14:43:16.001Z</time></trkpt><trkpt lat="36.93864211571269" lon="15.022525629789858"><ele>413.0</ele><time>2026-04-30T14:43:17.001Z</time></trkpt><trkpt lat="36.93867037538187" lon="15.022394631354418"><ele>412.99999999999994</ele><time>2026-04-30T14:43:19.001Z</time></trkpt><trkpt lat="36.93871386953537" lon="15.02229764070907"><ele>413.0</ele><time>2026-04-30T14:43:21.001Z</time></trkpt><trkpt lat="36.938784783715555" lon="15.022256619670255"><ele>413.0</ele><time>2026-04-30T14:43:23.001Z</time></trkpt><trkpt lat="36.93889305355674" lon="15.022291527718124"><ele>413.0</ele><time>2026-04-30T14:43:25.001Z</time></trkpt><trkpt lat="36.93895694711718" lon="15.022313362247662"><ele>412.99999999999994</ele><time>2026-04-30T14:43:26.001Z</time></trkpt><trkpt lat="36.939027754871674" lon="15.02232320664773"><ele>413.0</ele><time>2026-04-30T14:43:27.001Z</time></trkpt><trkpt lat="36.93910132570444" lon="15.022352444890382"><ele>412.99999999999994</ele><time>2026-04-30T14:43:28.001Z</time></trkpt><trkpt lat="36.93918204172863" lon="15.022395203334831"><ele>413.0</ele><time>2026-04-30T14:43:29Z</time></trkpt><trkpt lat="36.93926970483074" lon="15.022436811207296"><ele>413.0</ele><time>2026-04-30T14:43:30Z</time></trkpt><trkpt lat="36.93934775208409" lon="15.022485625125507"><ele>413.0</ele><time>2026-04-30T14:43:31Z</time></trkpt><trkpt lat="36.93941286752034" lon="15.02253110884727"><ele>412.99999999999994</ele><time>2026-04-30T14:43:32Z</time></trkpt><trkpt lat="36.93945696155199" lon="15.022599378060457"><ele>413.0</ele><time>2026-04-30T14:43:33Z</time></trkpt><trkpt lat="36.93955723551312" lon="15.022708154424208"><ele>413.16666666666663</ele><time>2026-04-30T14:43:35Z</time></trkpt><trkpt lat="36.93961182848283" lon="15.022776787961456"><ele>413.3333333333333</ele><time>2026-04-30T14:43:36Z</time></trkpt><trkpt lat="36.93968627272793" lon="15.022822203572012"><ele>413.5</ele><time>2026-04-30T14:43:37Z</time></trkpt><trkpt lat="36.93976982235763" lon="15.022854369793711"><ele>413.66666666666663</ele><time>2026-04-30T14:43:38Z</time></trkpt><trkpt lat="36.939858734815815" lon="15.022868354546922"><ele>413.8333333333333</ele><time>2026-04-30T14:43:39Z</time></trkpt><trkpt lat="36.9399343036082" lon="15.022864599845768"><ele>414.0</ele><time>2026-04-30T14:43:40Z</time></trkpt><trkpt lat="36.94001850309368" lon="15.02286326435122"><ele>414.1666666666667</ele><time>2026-04-30T14:43:41Z</time></trkpt><trkpt lat="36.94011648074465" lon="15.02287529806302"><ele>414.33333333333337</ele><time>2026-04-30T14:43:42Z</time></trkpt><trkpt lat="36.94021018788007" lon="15.022886600788059"><ele>414.5</ele><time>2026-04-30T14:43:43Z</time></trkpt><trkpt lat="36.940291040726564" lon="15.022898087224211"><ele>414.6666666666667</ele><time>2026-04-30T14:43:44Z</time></trkpt><trkpt lat="36.94036472624685" lon="15.02292318675702"><ele>414.83333333333337</ele><time>2026-04-30T14:43:45Z</time></trkpt><trkpt lat="36.94045395232569" lon="15.022914845746072"><ele>415.0</ele><time>2026-04-30T14:43:46Z</time></trkpt><trkpt lat="36.940535266754246" lon="15.022926028311229"><ele>415.00000000000006</ele><time>2026-04-30T14:43:47Z</time></trkpt><trkpt lat="36.940600916869556" lon="15.022942933552285"><ele>415.0</ele><time>2026-04-30T14:43:48Z</time></trkpt><trkpt lat="36.940682724371946" lon="15.022957519810362"><ele>415.0</ele><time>2026-04-30T14:43:49Z</time></trkpt><trkpt lat="36.940763085458045" lon="15.022967539335744"><ele>415.0</ele><time>2026-04-30T14:43:50Z</time></trkpt><trkpt lat="36.94084370735709" lon="15.022978150949337"><ele>415.00000000000006</ele><time>2026-04-30T14:43:51Z</time></trkpt><trkpt lat="36.94093147463871" lon="15.022993530439289"><ele>415.0</ele><time>2026-04-30T14:43:52Z</time></trkpt><trkpt lat="36.94101479335841" lon="15.023026808357232"><ele>415.2</ele><time>2026-04-30T14:43:53Z</time></trkpt><trkpt lat="36.941109186991326" lon="15.023063999800923"><ele>415.4</ele><time>2026-04-30T14:43:54Z</time></trkpt><trkpt lat="36.94120704326781" lon="15.023107724111165"><ele>415.6</ele><time>2026-04-30T14:43:55Z</time></trkpt><trkpt lat="36.941313413341" lon="15.023151776162214"><ele>415.8</ele><time>2026-04-30T14:43:56Z</time></trkpt><trkpt lat="36.94142027214063" lon="15.023193034427004"><ele>416.0</ele><time>2026-04-30T14:43:57Z</time></trkpt><trkpt lat="36.94151349995567" lon="15.023221911227347"><ele>416.0</ele><time>2026-04-30T14:43:58Z</time></trkpt><trkpt lat="36.94160636150088" lon="15.023250642107289"><ele>416.0</ele><time>2026-04-30T14:43:59Z</time></trkpt><trkpt lat="36.941689758346314" lon="15.023300774673718"><ele>416.0</ele><time>2026-04-30T14:44:00Z</time></trkpt><trkpt lat="36.94178141463182" lon="15.023348326700404"><ele>416.0</ele><time>2026-04-30T14:44:01Z</time></trkpt><trkpt lat="36.941875442563244" lon="15.023373236175066"><ele>416.0</ele><time>2026-04-30T14:44:02Z</time></trkpt><trkpt lat="36.94197116069356" lon="15.023414274265303"><ele>416.20000000000005</ele><time>2026-04-30T14:44:03Z</time></trkpt><trkpt lat="36.942069406915444" lon="15.02343061989848"><ele>416.40000000000003</ele><time>2026-04-30T14:44:04Z</time></trkpt><trkpt lat="36.94217233658214" lon="15.023441100333779"><ele>416.6</ele><time>2026-04-30T14:44:05Z</time></trkpt><trkpt lat="36.94227492122011" lon="15.02344084981862"><ele>416.8</ele><time>2026-04-30T14:44:06Z</time></trkpt><trkpt lat="36.94237676601524" lon="15.023441183821332"><ele>417.0</ele><time>2026-04-30T14:44:07Z</time></trkpt><trkpt lat="36.942478721728676" lon="15.02344398288143"><ele>416.6</ele><time>2026-04-30T14:44:08Z</time></trkpt><trkpt lat="36.94257063038834" lon="15.023439174473053"><ele>416.20000000000005</ele><time>2026-04-30T14:44:09Z</time></trkpt><trkpt lat="36.94267338715171" lon="15.02342820686645"><ele>415.8</ele><time>2026-04-30T14:44:10Z</time></trkpt><trkpt lat="36.94278476283159" lon="15.023420371304013"><ele>415.4</ele><time>2026-04-30T14:44:11Z</time></trkpt><trkpt lat="36.942885046076015" lon="15.02341818652816"><ele>415.0</ele><time>2026-04-30T14:44:12Z</time></trkpt><trkpt lat="36.942979192116326" lon="15.023416259617026"><ele>415.0</ele><time>2026-04-30T14:44:13Z</time></trkpt><trkpt lat="36.94308010889339" lon="15.023405157424353"><ele>415.0</ele><time>2026-04-30T14:44:14Z</time></trkpt><trkpt lat="36.94317163757465" lon="15.023382553916765"><ele>415.0</ele><time>2026-04-30T14:44:15Z</time></trkpt><trkpt lat="36.943274286203895" lon="15.023361930564729"><ele>415.0</ele><time>2026-04-30T14:44:16Z</time></trkpt><trkpt lat="36.943385166235224" lon="15.02335137033661"><ele>415.0</ele><time>2026-04-30T14:44:17Z</time></trkpt><trkpt lat="36.943515365884004" lon="15.023331278727134"><ele>413.5</ele><time>2026-04-30T14:44:18Z</time></trkpt><trkpt lat="36.94364410656373" lon="15.023299246250971"><ele>412.0</ele><time>2026-04-30T14:44:19Z</time></trkpt><trkpt lat="36.943763832576565" lon="15.023267026764538"><ele>410.5</ele><time>2026-04-30T14:44:20Z</time></trkpt><trkpt lat="36.94387662348562" lon="15.023246656768478"><ele>409.0</ele><time>2026-04-30T14:44:21Z</time></trkpt><trkpt lat="36.94399960850697" lon="15.023230705036545"><ele>409.0</ele><time>2026-04-30T14:44:22Z</time></trkpt><trkpt lat="36.94413528877868" lon="15.023216002161353"><ele>409.0</ele><time>2026-04-30T14:44:23Z</time></trkpt><trkpt lat="36.944272681086254" lon="15.023194401916612"><ele>409.0</ele><time>2026-04-30T14:44:24Z</time></trkpt><trkpt lat="36.944393214708754" lon="15.023177876024349"><ele>409.0</ele><time>2026-04-30T14:44:25.001Z</time></trkpt><trkpt lat="36.94449651865273" lon="15.023144876142812"><ele>407.50000000000006</ele><time>2026-04-30T14:44:26.001Z</time></trkpt><trkpt lat="36.944594918066265" lon="15.023114832573617"><ele>406.0</ele><time>2026-04-30T14:44:27.001Z</time></trkpt><trkpt lat="36.9446952434518" lon="15.023074439651909"><ele>404.5</ele><time>2026-04-30T14:44:28.001Z</time></trkpt><trkpt lat="36.944776862036086" lon="15.023036206734087"><ele>403.0</ele><time>2026-04-30T14:44:29.001Z</time></trkpt><trkpt lat="36.94484792737441" lon="15.023014766564923"><ele>401.50000000000006</ele><time>2026-04-30T14:44:30.001Z</time></trkpt><trkpt lat="36.94492620094662" lon="15.023010163152001"><ele>400.0</ele><time>2026-04-30T14:44:31.001Z</time></trkpt><trkpt lat="36.94500742853265" lon="15.023060733650418"><ele>400.83333333333337</ele><time>2026-04-30T14:44:32.001Z</time></trkpt><trkpt lat="36.945066729694645" lon="15.023111577614332"><ele>401.6666666666667</ele><time>2026-04-30T14:44:33.001Z</time></trkpt><trkpt lat="36.94511809124918" lon="15.023170133412794"><ele>402.5</ele><time>2026-04-30T14:44:34.001Z</time></trkpt><trkpt lat="36.94515721277873" lon="15.02323899113281"><ele>403.33333333333337</ele><time>2026-04-30T14:44:35.001Z</time></trkpt><trkpt lat="36.94520212858488" lon="15.023389640553798"><ele>404.1666666666667</ele><time>2026-04-30T14:44:37.001Z</time></trkpt><trkpt lat="36.9452271461169" lon="15.023484708532287"><ele>405.0</ele><time>2026-04-30T14:44:38.001Z</time></trkpt><trkpt lat="36.945233399920696" lon="15.023578563494087"><ele>406.6666666666667</ele><time>2026-04-30T14:44:39.001Z</time></trkpt><trkpt lat="36.94524708607964" lon="15.0236661557074"><ele>408.33333333333337</ele><time>2026-04-30T14:44:40.001Z</time></trkpt><trkpt lat="36.945274818764474" lon="15.02374804312224"><ele>410.0</ele><time>2026-04-30T14:44:41.001Z</time></trkpt><trkpt lat="36.94532788376647" lon="15.023827814806511"><ele>411.6666666666667</ele><time>2026-04-30T14:44:42.001Z</time></trkpt><trkpt lat="36.94538619376923" lon="15.023881434032107"><ele>413.33333333333337</ele><time>2026-04-30T14:44:43.001Z</time></trkpt><trkpt lat="36.94547274438733" lon="15.023906676597523"><ele>415.0</ele><time>2026-04-30T14:44:44.001Z</time></trkpt><trkpt lat="36.94555704632235" lon="15.023894778933169"><ele>415.00000000000006</ele><time>2026-04-30T14:44:45.001Z</time></trkpt><trkpt lat="36.945647003622064" lon="15.023896509950251"><ele>415.0</ele><time>2026-04-30T14:44:46.001Z</time></trkpt><trkpt lat="36.94572525111112" lon="15.023881531415931"><ele>415.0</ele><time>2026-04-30T14:44:47.001Z</time></trkpt><trkpt lat="36.945810287114874" lon="15.02386732256151"><ele>415.0</ele><time>2026-04-30T14:44:48.001Z</time></trkpt><trkpt lat="36.945880754209405" lon="15.02383567752915"><ele>415.00000000000006</ele><time>2026-04-30T14:44:49.001Z</time></trkpt><trkpt lat="36.94594262917619" lon="15.023793036465666"><ele>415.0</ele><time>2026-04-30T14:44:50.001Z</time></trkpt><trkpt lat="36.945987944942054" lon="15.023731019991754"><ele>415.0</ele><time>2026-04-30T14:44:51.001Z</time></trkpt><trkpt lat="36.946039292512516" lon="15.023652764043947"><ele>415.0</ele><time>2026-04-30T14:44:52.001Z</time></trkpt><trkpt lat="36.94609710401077" lon="15.02357414506552"><ele>415.0</ele><time>2026-04-30T14:44:53.001Z</time></trkpt><trkpt lat="36.946146352781035" lon="15.02349165429485"><ele>415.0</ele><time>2026-04-30T14:44:54.001Z</time></trkpt><trkpt lat="36.94617743281499" lon="15.023417980594283"><ele>415.0</ele><time>2026-04-30T14:44:55.001Z</time></trkpt><trkpt lat="36.94620502297066" lon="15.023346869795363"><ele>415.0</ele><time>2026-04-30T14:44:56.001Z</time></trkpt><trkpt lat="36.94622758347418" lon="15.02327135661759"><ele>415.0</ele><time>2026-04-30T14:44:57.001Z</time></trkpt><trkpt lat="36.94630448323103" lon="15.023163575869006"><ele>415.0</ele><time>2026-04-30T14:44:59.001Z</time></trkpt><trkpt lat="36.946378040572725" lon="15.023048840914102"><ele>415.0</ele><time>2026-04-30T14:45:01.001Z</time></trkpt><trkpt lat="36.946484144214075" lon="15.022970545227123"><ele>415.0</ele><time>2026-04-30T14:45:21.001Z</time></trkpt><trkpt lat="36.946530978955" lon="15.023067233193638"><ele>415.0</ele><time>2026-04-30T14:45:22.001Z</time></trkpt><trkpt lat="36.946630093695795" lon="15.023152926976321"><ele>415.00000000000006</ele><time>2026-04-30T14:45:24.001Z</time></trkpt><trkpt lat="36.94666896976096" lon="15.023227771072488"><ele>415.0</ele><time>2026-04-30T14:45:25.001Z</time></trkpt><trkpt lat="36.946666252270035" lon="15.023333757212171"><ele>415.0</ele><time>2026-04-30T14:45:26.001Z</time></trkpt><trkpt lat="36.94669721104698" lon="15.02342910611239"><ele>415.0</ele><time>2026-04-30T14:45:27.001Z</time></trkpt><trkpt lat="36.94672851409441" lon="15.023528466047187"><ele>415.00000000000006</ele><time>2026-04-30T14:45:28.001Z</time></trkpt><trkpt lat="36.946761203457285" lon="15.02362690182028"><ele>415.0</ele><time>2026-04-30T14:45:29.001Z</time></trkpt><trkpt lat="36.94680019016673" lon="15.023714545565435"><ele>415.33333333333337</ele><time>2026-04-30T14:45:30.001Z</time></trkpt><trkpt lat="36.946853512473176" lon="15.023782105570838"><ele>415.6666666666667</ele><time>2026-04-30T14:45:31.001Z</time></trkpt><trkpt lat="36.946918783838626" lon="15.023842428677348"><ele>416.0</ele><time>2026-04-30T14:45:32.001Z</time></trkpt><trkpt lat="36.94698471280911" lon="15.023884312608008"><ele>416.33333333333337</ele><time>2026-04-30T14:45:33.001Z</time></trkpt><trkpt lat="36.947066501580935" lon="15.02389037136251"><ele>416.6666666666667</ele><time>2026-04-30T14:45:34.001Z</time></trkpt><trkpt lat="36.94713040590059" lon="15.023880984608912"><ele>417.0</ele><time>2026-04-30T14:45:35Z</time></trkpt><trkpt lat="36.94723691528486" lon="15.023924442787767"><ele>417.0</ele><time>2026-04-30T14:45:37Z</time></trkpt><trkpt lat="36.94734647460797" lon="15.024028330041405"><ele>417.0</ele><time>2026-04-30T14:45:39Z</time></trkpt><trkpt lat="36.947421666128314" lon="15.024095547764405"><ele>417.0</ele><time>2026-04-30T14:45:40Z</time></trkpt><trkpt lat="36.947488337361584" lon="15.024155147813556"><ele>417.0</ele><time>2026-04-30T14:45:41Z</time></trkpt><trkpt lat="36.947541839805204" lon="15.024216091717387"><ele>417.0</ele><time>2026-04-30T14:45:42Z</time></trkpt><trkpt lat="36.94758776860649" lon="15.024279530465899"><ele>417.8333333333333</ele><time>2026-04-30T14:45:43Z</time></trkpt><trkpt lat="36.9475940808224" lon="15.024361621223635"><ele>418.66666666666663</ele><time>2026-04-30T14:45:44Z</time></trkpt><trkpt lat="36.94761766535946" lon="15.024467208652407"><ele>419.5</ele><time>2026-04-30T14:45:45Z</time></trkpt><trkpt lat="36.947634602282825" lon="15.024552998961987"><ele>420.3333333333333</ele><time>2026-04-30T14:45:46Z</time></trkpt><trkpt lat="36.9476529747757" lon="15.024646060410083"><ele>421.16666666666663</ele><time>2026-04-30T14:45:47Z</time></trkpt><trkpt lat="36.947667933732305" lon="15.024728227925323"><ele>422.0</ele><time>2026-04-30T14:45:48Z</time></trkpt><trkpt lat="36.94768816971024" lon="15.024842832471684"><ele>421.99999999999994</ele><time>2026-04-30T14:45:50Z</time></trkpt><trkpt lat="36.947709626586686" lon="15.024948551864325"><ele>422.0</ele><time>2026-04-30T14:45:54Z</time></trkpt><trkpt lat="36.94772596575844" lon="15.025029056928418"><ele>422.0</ele><time>2026-04-30T14:45:59Z</time></trkpt><trkpt lat="36.947742846248445" lon="15.025128306269393"><ele>422.0</ele><time>2026-04-30T14:46:02Z</time></trkpt><trkpt lat="36.947757652818" lon="15.025215695193898"><ele>421.99999999999994</ele><time>2026-04-30T14:46:04Z</time></trkpt><trkpt lat="36.947833596996574" lon="15.025287768993351"><ele>422.0</ele><time>2026-04-30T14:46:08Z</time></trkpt><trkpt lat="36.94810525739468" lon="15.025222017897239"><ele>418.66666666666663</ele><time>2026-04-30T14:46:09Z</time></trkpt><trkpt lat="36.948186213918625" lon="15.02525010275063"><ele>415.3333333333333</ele><time>2026-04-30T14:46:12Z</time></trkpt><trkpt lat="36.94825720593227" lon="15.025276941013473"><ele>412.0</ele><time>2026-04-30T14:46:15Z</time></trkpt><trkpt lat="36.94832352582529" lon="15.025305695456465"><ele>408.66666666666663</ele><time>2026-04-30T14:46:17Z</time></trkpt><trkpt lat="36.94840397921355" lon="15.025278394741669"><ele>405.3333333333333</ele><time>2026-04-30T14:46:22Z</time></trkpt><trkpt lat="36.9484670595462" lon="15.025285035274658"><ele>402.0</ele><time>2026-04-30T14:46:24Z</time></trkpt><trkpt lat="36.948547817234775" lon="15.025263752391293"><ele>401.8333333333333</ele><time>2026-04-30T14:46:28.001Z</time></trkpt><trkpt lat="36.94861701741387" lon="15.025257751945178"><ele>401.66666666666663</ele><time>2026-04-30T14:46:32.001Z</time></trkpt><trkpt lat="36.94868845038694" lon="15.025278811656785"><ele>401.5</ele><time>2026-04-30T14:46:34.001Z</time></trkpt><trkpt lat="36.94876851873304" lon="15.02526421241053"><ele>401.3333333333333</ele><time>2026-04-30T14:46:37.001Z</time></trkpt><trkpt lat="36.94884833040361" lon="15.02523895613855"><ele>401.16666666666663</ele><time>2026-04-30T14:46:41.001Z</time></trkpt><trkpt lat="36.94890994617093" lon="15.025207973305402"><ele>401.0</ele><time>2026-04-30T14:46:44.001Z</time></trkpt><trkpt lat="36.94898550234237" lon="15.025172015327847"><ele>400.99999999999994</ele><time>2026-04-30T14:46:50.001Z</time></trkpt><trkpt lat="36.949050585838044" lon="15.025161667483912"><ele>401.0</ele><time>2026-04-30T14:46:52.001Z</time></trkpt><trkpt lat="36.949129809138064" lon="15.025113887380133"><ele>401.0</ele><time>2026-04-30T14:46:54.001Z</time></trkpt><trkpt lat="36.94919794087435" lon="15.025043146571129"><ele>401.0</ele><time>2026-04-30T14:46:57.001Z</time></trkpt><trkpt lat="36.94925518066443" lon="15.024994575489757"><ele>400.99999999999994</ele><time>2026-04-30T14:47:01.001Z</time></trkpt><trkpt lat="36.94930842210809" lon="15.024930420463026"><ele>401.0</ele><time>2026-04-30T14:47:13.001Z</time></trkpt><trkpt lat="36.94936638411625" lon="15.024885878248394"><ele>401.14285714285717</ele><time>2026-04-30T14:47:18.001Z</time></trkpt><trkpt lat="36.94942501241212" lon="15.02485071922635"><ele>401.28571428571433</ele><time>2026-04-30T14:47:23.001Z</time></trkpt><trkpt lat="36.94948951433719" lon="15.02483671490764"><ele>401.42857142857144</ele><time>2026-04-30T14:47:27.001Z</time></trkpt><trkpt lat="36.94955727082007" lon="15.024831769718551"><ele>401.57142857142856</ele><time>2026-04-30T14:47:30.001Z</time></trkpt><trkpt lat="36.94963263159135" lon="15.024818368965242"><ele>401.7142857142857</ele><time>2026-04-30T14:47:36.001Z</time></trkpt><trkpt lat="36.94969648405321" lon="15.024788520750423"><ele>401.85714285714283</ele><time>2026-04-30T14:47:43Z</time></trkpt><trkpt lat="36.94976502853255" lon="15.024756242012247"><ele>402.0</ele><time>2026-04-30T14:47:48Z</time></trkpt><trkpt lat="36.9498262812074" lon="15.02472286734102"><ele>402.0</ele><time>2026-04-30T14:47:53Z</time></trkpt><trkpt lat="36.94990571792015" lon="15.024709113648129"><ele>402.0</ele><time>2026-04-30T14:48:25Z</time></trkpt><trkpt lat="36.94987836442225" lon="15.024806641117333"><ele>402.0</ele><time>2026-04-30T14:48:40.001Z</time></trkpt><trkpt lat="36.94983368080873" lon="15.02487348562831"><ele>402.0</ele><time>2026-04-30T14:48:42.001Z</time></trkpt><trkpt lat="36.949765610658964" lon="15.024929048026896"><ele>402.0</ele><time>2026-04-30T14:48:44.001Z</time></trkpt><trkpt lat="36.94972708191759" lon="15.025003148422483"><ele>402.0</ele><time>2026-04-30T14:48:51.001Z</time></trkpt><trkpt lat="36.94968353283487" lon="15.025071736397644"><ele>401.85714285714283</ele><time>2026-04-30T14:48:58.001Z</time></trkpt><trkpt lat="36.94963615461614" lon="15.02512930486112"><ele>401.7142857142857</ele><time>2026-04-30T14:49:02.001Z</time></trkpt><trkpt lat="36.94957009775707" lon="15.025164075954976"><ele>401.57142857142856</ele><time>2026-04-30T14:49:33.001Z</time></trkpt><trkpt lat="36.94951566145755" lon="15.025219819998348"><ele>401.42857142857144</ele><time>2026-04-30T14:49:38.001Z</time></trkpt><trkpt lat="36.94946893665347" lon="15.0252815740341"><ele>401.28571428571433</ele><time>2026-04-30T14:49:42.001Z</time></trkpt><trkpt lat="36.94941691991566" lon="15.025351669810894"><ele>401.14285714285717</ele><time>2026-04-30T14:49:59Z</time></trkpt><trkpt lat="36.949470582724636" lon="15.025403046267009"><ele>401.0</ele><time>2026-04-30T14:51:42.001Z</time></trkpt><trkpt lat="36.94953504851289" lon="15.025395438064912"><ele>401.0</ele><time>2026-04-30T14:51:50.001Z</time></trkpt><trkpt lat="36.94960814895861" lon="15.025378740654238"><ele>401.0</ele><time>2026-04-30T14:51:56.999Z</time></trkpt><trkpt lat="36.94968352857224" lon="15.025377454116486"><ele>401.0</ele><time>2026-04-30T14:52:01.999Z</time></trkpt><trkpt lat="36.94974767349709" lon="15.025367815334667"><ele>401.0</ele><time>2026-04-30T14:53:27.001Z</time></trkpt><trkpt lat="36.94980235850233" lon="15.025325320357913"><ele>401.0</ele><time>2026-04-30T14:53:45.001Z</time></trkpt><trkpt lat="36.949861450834845" lon="15.02526411594785"><ele>401.0</ele><time>2026-04-30T14:53:51.001Z</time></trkpt><trkpt lat="36.94990402143814" lon="15.025200945482634"><ele>401.0</ele><time>2026-04-30T14:56:32Z</time></trkpt><trkpt lat="36.94997763272407" lon="15.025159323320896"><ele>400.99999999999994</ele><time>2026-04-30T14:56:36Z</time></trkpt><trkpt lat="36.9500542918725" lon="15.025148023735857"><ele>401.0</ele><time>2026-04-30T14:56:40Z</time></trkpt><trkpt lat="36.9501160838068" lon="15.025164152698274"><ele>401.0</ele><time>2026-04-30T14:57:00.001Z</time></trkpt><trkpt lat="36.950096914522746" lon="15.02525585429362"><ele>401.0</ele><time>2026-04-30T14:57:30.001Z</time></trkpt><trkpt lat="36.95006208406412" lon="15.025379526150536"><ele>400.99999999999994</ele><time>2026-04-30T14:57:43.001Z</time></trkpt><trkpt lat="36.95003517381155" lon="15.025468142308588"><ele>401.0</ele><time>2026-04-30T14:58:26Z</time></trkpt><trkpt lat="36.95006845556681" lon="15.025544288080939"><ele>403.14285714285717</ele><time>2026-04-30T14:58:34Z</time></trkpt><trkpt lat="36.95011821584384" lon="15.025479812480764"><ele>405.28571428571433</ele><time>2026-04-30T14:58:43Z</time></trkpt><trkpt lat="36.95017836458599" lon="15.025518122893454"><ele>407.42857142857144</ele><time>2026-04-30T14:59:39.001Z</time></trkpt><trkpt lat="36.9501551803848" lon="15.025593718159831"><ele>409.57142857142856</ele><time>2026-04-30T14:59:46.001Z</time></trkpt><trkpt lat="36.95018400420217" lon="15.025664665972633"><ele>411.7142857142857</ele><time>2026-04-30T14:59:49.001Z</time></trkpt><trkpt lat="36.95020707497561" lon="15.02575210023405"><ele>413.85714285714283</ele><time>2026-04-30T14:59:51.001Z</time></trkpt><trkpt lat="36.95022965754495" lon="15.025850290002486"><ele>416.0</ele><time>2026-04-30T14:59:55.001Z</time></trkpt><trkpt lat="36.95029540342646" lon="15.025827667847475"><ele>416.99999999999994</ele><time>2026-04-30T14:59:59.001Z</time></trkpt><trkpt lat="36.95036005624263" lon="15.025862289860429"><ele>418.0</ele><time>2026-04-30T15:00:02.001Z</time></trkpt><trkpt lat="36.950407247619296" lon="15.025942077885379"><ele>419.0</ele><time>2026-04-30T15:00:06.001Z</time></trkpt><trkpt lat="36.95044460459249" lon="15.026042653428652"><ele>420.0</ele><time>2026-04-30T15:00:09.001Z</time></trkpt><trkpt lat="36.95047073893649" lon="15.026130134958024"><ele>420.99999999999994</ele><time>2026-04-30T15:00:11.001Z</time></trkpt><trkpt lat="36.95048708310458" lon="15.026213671888987"><ele>422.0</ele><time>2026-04-30T15:00:14.001Z</time></trkpt><trkpt lat="36.950457759633494" lon="15.02629470956618"><ele>422.0</ele><time>2026-04-30T15:00:17.998Z</time></trkpt><trkpt lat="36.950387960681816" lon="15.026270913888643"><ele>422.0</ele><time>2026-04-30T15:00:19.998Z</time></trkpt><trkpt lat="36.95032950459583" lon="15.026232135196315"><ele>422.0</ele><time>2026-04-30T15:00:22.999Z</time></trkpt><trkpt lat="36.950314743016676" lon="15.026311802703871"><ele>422.0</ele><time>2026-04-30T15:10:38.002Z</time></trkpt><trkpt lat="36.95037921789716" lon="15.026315688831225"><ele>422.0</ele><time>2026-04-30T15:10:40.002Z</time></trkpt><trkpt lat="36.95047248679941" lon="15.026324427856359"><ele>422.0</ele><time>2026-04-30T15:10:42.002Z</time></trkpt><trkpt lat="36.950538660881264" lon="15.02634056247704"><ele>422.0</ele><time>2026-04-30T15:10:43.002Z</time></trkpt><trkpt lat="36.950649350921424" lon="15.026442408497536"><ele>422.0</ele><time>2026-04-30T15:10:45.002Z</time></trkpt><trkpt lat="36.95073342928187" lon="15.026520954719617"><ele>422.0</ele><time>2026-04-30T15:10:46.002Z</time></trkpt><trkpt lat="36.95081730527145" lon="15.02659557941021"><ele>422.0</ele><time>2026-04-30T15:10:47.001Z</time></trkpt><trkpt lat="36.95090334233367" lon="15.026663676704056"><ele>422.0</ele><time>2026-04-30T15:10:48.001Z</time></trkpt><trkpt lat="36.950985131639314" lon="15.026721896584608"><ele>422.0</ele><time>2026-04-30T15:10:49.001Z</time></trkpt><trkpt lat="36.95106070434609" lon="15.026779097081256"><ele>420.8</ele><time>2026-04-30T15:10:50.001Z</time></trkpt><trkpt lat="36.95112402401927" lon="15.026859996165456"><ele>419.6</ele><time>2026-04-30T15:10:51.001Z</time></trkpt><trkpt lat="36.951200478135206" lon="15.026943534743701"><ele>418.40000000000003</ele><time>2026-04-30T15:10:52.001Z</time></trkpt><trkpt lat="36.95128670599833" lon="15.027037942940431"><ele>417.20000000000005</ele><time>2026-04-30T15:10:53.001Z</time></trkpt><trkpt lat="36.95136647645309" lon="15.027128851531321"><ele>416.0</ele><time>2026-04-30T15:10:54.001Z</time></trkpt><trkpt lat="36.95144508801718" lon="15.027219747734108"><ele>416.0</ele><time>2026-04-30T15:10:55.001Z</time></trkpt><trkpt lat="36.951522407420946" lon="15.027312997194516"><ele>416.0</ele><time>2026-04-30T15:10:56.001Z</time></trkpt><trkpt lat="36.95161590852246" lon="15.027404206228711"><ele>416.0</ele><time>2026-04-30T15:10:57.001Z</time></trkpt><trkpt lat="36.951686363243056" lon="15.02752204879536"><ele>416.0</ele><time>2026-04-30T15:10:58.001Z</time></trkpt><trkpt lat="36.95176246940891" lon="15.027629061962623"><ele>415.5</ele><time>2026-04-30T15:10:59.001Z</time></trkpt><trkpt lat="36.95183716262588" lon="15.027745176092546"><ele>415.0</ele><time>2026-04-30T15:11:00Z</time></trkpt><trkpt lat="36.95189632986871" lon="15.027858349964456"><ele>414.5</ele><time>2026-04-30T15:11:01Z</time></trkpt><trkpt lat="36.95194486017326" lon="15.027980752765274"><ele>414.0</ele><time>2026-04-30T15:11:02Z</time></trkpt><trkpt lat="36.95199075247972" lon="15.028119492710632"><ele>414.0</ele><time>2026-04-30T15:11:03Z</time></trkpt><trkpt lat="36.95203308508733" lon="15.028264679381039"><ele>414.0</ele><time>2026-04-30T15:11:04Z</time></trkpt><trkpt lat="36.952068944457466" lon="15.02840785634768"><ele>414.0</ele><time>2026-04-30T15:11:05Z</time></trkpt><trkpt lat="36.9521076685351" lon="15.028545878557257"><ele>414.0</ele><time>2026-04-30T15:11:06Z</time></trkpt><trkpt lat="36.95214135789458" lon="15.028687944378564"><ele>412.75</ele><time>2026-04-30T15:11:07Z</time></trkpt><trkpt lat="36.95217184523181" lon="15.028829628133375"><ele>411.5</ele><time>2026-04-30T15:11:08Z</time></trkpt><trkpt lat="36.952199683884736" lon="15.0289832126384"><ele>410.25</ele><time>2026-04-30T15:11:09Z</time></trkpt><trkpt lat="36.952222559419035" lon="15.029140733890433"><ele>409.0</ele><time>2026-04-30T15:11:10.001Z</time></trkpt><trkpt lat="36.95225459266248" lon="15.029289755903463"><ele>408.79999999999995</ele><time>2026-04-30T15:11:11.001Z</time></trkpt><trkpt lat="36.95228446856384" lon="15.029432107525038"><ele>408.59999999999997</ele><time>2026-04-30T15:11:12.001Z</time></trkpt><trkpt lat="36.95230570710157" lon="15.029577654014467"><ele>408.4</ele><time>2026-04-30T15:11:13.001Z</time></trkpt><trkpt lat="36.95235312291629" lon="15.029698362566185"><ele>408.2</ele><time>2026-04-30T15:11:14.001Z</time></trkpt><trkpt lat="36.95239132134109" lon="15.029801193699488"><ele>408.0</ele><time>2026-04-30T15:11:15.001Z</time></trkpt><trkpt lat="36.95242464594723" lon="15.029901241957031"><ele>407.59999999999997</ele><time>2026-04-30T15:11:16.001Z</time></trkpt><trkpt lat="36.95246791182625" lon="15.029992200050561"><ele>407.2</ele><time>2026-04-30T15:11:17.001Z</time></trkpt><trkpt lat="36.95252714941301" lon="15.030076583491088"><ele>406.8</ele><time>2026-04-30T15:11:18.001Z</time></trkpt><trkpt lat="36.9526049832473" lon="15.030113972944315"><ele>406.4</ele><time>2026-04-30T15:11:19.001Z</time></trkpt><trkpt lat="36.952700028320855" lon="15.030113456927644"><ele>406.0</ele><time>2026-04-30T15:11:20.001Z</time></trkpt><trkpt lat="36.95281672679468" lon="15.030086065834674"><ele>405.8</ele><time>2026-04-30T15:11:21.001Z</time></trkpt><trkpt lat="36.95291744283306" lon="15.030079309951578"><ele>405.6</ele><time>2026-04-30T15:11:22.001Z</time></trkpt><trkpt lat="36.95301294370415" lon="15.03010770409731"><ele>405.4</ele><time>2026-04-30T15:11:23.001Z</time></trkpt><trkpt lat="36.95309674203462" lon="15.030148720971173"><ele>405.2</ele><time>2026-04-30T15:11:24.001Z</time></trkpt><trkpt lat="36.95315180127264" lon="15.030233360492396"><ele>405.0</ele><time>2026-04-30T15:11:25.001Z</time></trkpt><trkpt lat="36.95321882092009" lon="15.03030507135333"><ele>405.0</ele><time>2026-04-30T15:11:26.001Z</time></trkpt><trkpt lat="36.9533111397797" lon="15.030386335726146"><ele>405.0</ele><time>2026-04-30T15:11:27.001Z</time></trkpt><trkpt lat="36.95340199719363" lon="15.030490266970563"><ele>405.0</ele><time>2026-04-30T15:11:28.001Z</time></trkpt><trkpt lat="36.95348680371557" lon="15.030585633138767"><ele>405.0</ele><time>2026-04-30T15:11:29.001Z</time></trkpt><trkpt lat="36.95355855024006" lon="15.030669799163842"><ele>405.0</ele><time>2026-04-30T15:11:30.001Z</time></trkpt><trkpt lat="36.95363273781128" lon="15.030755495051906"><ele>402.2</ele><time>2026-04-30T15:11:31.001Z</time></trkpt><trkpt lat="36.953707726491444" lon="15.030846624753028"><ele>399.4</ele><time>2026-04-30T15:11:32.001Z</time></trkpt><trkpt lat="36.95379439921186" lon="15.03091418320351"><ele>396.6</ele><time>2026-04-30T15:11:33.001Z</time></trkpt><trkpt lat="36.95388830680431" lon="15.030968741294396"><ele>393.8</ele><time>2026-04-30T15:11:34.001Z</time></trkpt><trkpt lat="36.953981971324794" lon="15.030999827107077"><ele>391.0</ele><time>2026-04-30T15:11:35.001Z</time></trkpt><trkpt lat="36.95407987168108" lon="15.031013429410152"><ele>391.0</ele><time>2026-04-30T15:11:36.001Z</time></trkpt><trkpt lat="36.95418876207872" lon="15.031016204161094"><ele>391.0</ele><time>2026-04-30T15:11:37.001Z</time></trkpt><trkpt lat="36.954295933717596" lon="15.031010454126056"><ele>391.0</ele><time>2026-04-30T15:11:38.001Z</time></trkpt><trkpt lat="36.95439797412467" lon="15.03101064266202"><ele>391.0</ele><time>2026-04-30T15:11:39.001Z</time></trkpt><trkpt lat="36.95450134928025" lon="15.03101308913505"><ele>391.0</ele><time>2026-04-30T15:11:40.001Z</time></trkpt><trkpt lat="36.9546023130646" lon="15.031011545113024"><ele>390.20000000000005</ele><time>2026-04-30T15:11:41.001Z</time></trkpt><trkpt lat="36.954706404617994" lon="15.030990729615235"><ele>389.40000000000003</ele><time>2026-04-30T15:11:42.001Z</time></trkpt><trkpt lat="36.95481437559046" lon="15.030956046720346"><ele>388.6</ele><time>2026-04-30T15:11:43.001Z</time></trkpt><trkpt lat="36.954928168693236" lon="15.03092054548972"><ele>387.8</ele><time>2026-04-30T15:11:44.001Z</time></trkpt><trkpt lat="36.95504004136507" lon="15.030888085379539"><ele>387.0</ele><time>2026-04-30T15:11:45.001Z</time></trkpt><trkpt lat="36.95515126545276" lon="15.030855934886178"><ele>385.5</ele><time>2026-04-30T15:11:46.001Z</time></trkpt><trkpt lat="36.95526171095592" lon="15.030829464662238"><ele>384.0</ele><time>2026-04-30T15:11:47.001Z</time></trkpt><trkpt lat="36.95537508079016" lon="15.030809872921905"><ele>382.5</ele><time>2026-04-30T15:11:48.001Z</time></trkpt><trkpt lat="36.95548821128038" lon="15.030823869839317"><ele>381.0</ele><time>2026-04-30T15:11:49.001Z</time></trkpt><trkpt lat="36.955603583115376" lon="15.030790488750215"><ele>382.5</ele><time>2026-04-30T15:11:50.001Z</time></trkpt><trkpt lat="36.95571866633756" lon="15.030775031160017"><ele>384.0</ele><time>2026-04-30T15:11:51.001Z</time></trkpt><trkpt lat="36.955831001190276" lon="15.030751620698709"><ele>385.5</ele><time>2026-04-30T15:11:52.001Z</time></trkpt><trkpt lat="36.95594249251589" lon="15.030721513356971"><ele>387.0</ele><time>2026-04-30T15:11:53.001Z</time></trkpt><trkpt lat="36.956049913597106" lon="15.030695473093575"><ele>387.0</ele><time>2026-04-30T15:11:54.001Z</time></trkpt><trkpt lat="36.95615451096053" lon="15.030674597518203"><ele>387.0</ele><time>2026-04-30T15:11:55.001Z</time></trkpt><trkpt lat="36.95626276943655" lon="15.03065970821186"><ele>387.0</ele><time>2026-04-30T15:11:56.001Z</time></trkpt><trkpt lat="36.95636029254729" lon="15.030645892950997"><ele>387.0</ele><time>2026-04-30T15:11:57.001Z</time></trkpt><trkpt lat="36.9564506478523" lon="15.030635215273316"><ele>387.0</ele><time>2026-04-30T15:11:58.001Z</time></trkpt><trkpt lat="36.956532453150544" lon="15.030628803771922"><ele>387.0</ele><time>2026-04-30T15:11:59.001Z</time></trkpt><trkpt lat="36.956599835533254" lon="15.030622201021925"><ele>387.0</ele><time>2026-04-30T15:12:00.001Z</time></trkpt><trkpt lat="36.956647507936" lon="15.030566245649846"><ele>387.0</ele><time>2026-04-30T15:12:01.001Z</time></trkpt><trkpt lat="36.95669585122955" lon="15.030422167683634"><ele>387.0</ele><time>2026-04-30T15:12:03.001Z</time></trkpt><trkpt lat="36.95672669847483" lon="15.030336861791103"><ele>387.0</ele><time>2026-04-30T15:12:04.001Z</time></trkpt><trkpt lat="36.95673065884554" lon="15.030232565025083"><ele>387.0</ele><time>2026-04-30T15:12:05.001Z</time></trkpt><trkpt lat="36.95673227551387" lon="15.030133832438464"><ele>387.8333333333333</ele><time>2026-04-30T15:12:06.001Z</time></trkpt><trkpt lat="36.95676947004873" lon="15.03005170750894"><ele>388.66666666666663</ele><time>2026-04-30T15:12:07.001Z</time></trkpt><trkpt lat="36.9567830954181" lon="15.02997185484232"><ele>389.5</ele><time>2026-04-30T15:12:08.001Z</time></trkpt><trkpt lat="36.95683529881953" lon="15.029896253967934"><ele>390.3333333333333</ele><time>2026-04-30T15:12:09.001Z</time></trkpt><trkpt lat="36.956896278987145" lon="15.029813257457462"><ele>391.16666666666663</ele><time>2026-04-30T15:12:10.001Z</time></trkpt><trkpt lat="36.95694419035945" lon="15.02972736310156"><ele>392.0</ele><time>2026-04-30T15:12:11.001Z</time></trkpt><trkpt lat="36.9569992507149" lon="15.029643400384922"><ele>392.8333333333333</ele><time>2026-04-30T15:12:12.001Z</time></trkpt><trkpt lat="36.95705816685982" lon="15.02958878422938"><ele>393.66666666666663</ele><time>2026-04-30T15:12:13.001Z</time></trkpt><trkpt lat="36.95712319319568" lon="15.029565816074829"><ele>394.5</ele><time>2026-04-30T15:12:14.001Z</time></trkpt><trkpt lat="36.957234154995135" lon="15.0295799571374"><ele>395.33333333333337</ele><time>2026-04-30T15:12:16.001Z</time></trkpt><trkpt lat="36.957269055967295" lon="15.029654936141323"><ele>396.1666666666667</ele><time>2026-04-30T15:12:17.001Z</time></trkpt><trkpt lat="36.9573118483817" lon="15.029773198536445"><ele>397.0</ele><time>2026-04-30T15:12:19.001Z</time></trkpt><trkpt lat="36.95726311396074" lon="15.029859604486795"><ele>397.00000000000006</ele><time>2026-04-30T15:12:21.001Z</time></trkpt><trkpt lat="36.95724101904638" lon="15.029947720544687"><ele>397.0</ele><time>2026-04-30T15:12:22.001Z</time></trkpt><trkpt lat="36.957212794688346" lon="15.030037233361512"><ele>397.0</ele><time>2026-04-30T15:12:23.001Z</time></trkpt><trkpt lat="36.95719368074068" lon="15.030117549185269"><ele>397.0</ele><time>2026-04-30T15:12:24.001Z</time></trkpt><trkpt lat="36.95717259368608" lon="15.030198467237055"><ele>397.00000000000006</ele><time>2026-04-30T15:12:25.001Z</time></trkpt><trkpt lat="36.95719552832765" lon="15.030292471007085"><ele>397.0</ele><time>2026-04-30T15:12:26.001Z</time></trkpt><trkpt lat="36.957250051092956" lon="15.030376211623572"><ele>396.1666666666667</ele><time>2026-04-30T15:12:27.001Z</time></trkpt><trkpt lat="36.95733336427994" lon="15.030428259167282"><ele>395.33333333333337</ele><time>2026-04-30T15:12:28.001Z</time></trkpt><trkpt lat="36.95737617196195" lon="15.030531827689154"><ele>394.5</ele><time>2026-04-30T15:12:29.001Z</time></trkpt><trkpt lat="36.95741895097777" lon="15.030620136915877"><ele>393.66666666666663</ele><time>2026-04-30T15:12:30.001Z</time></trkpt><trkpt lat="36.95746025061857" lon="15.030714530052403"><ele>392.8333333333333</ele><time>2026-04-30T15:12:31.001Z</time></trkpt><trkpt lat="36.95749162914396" lon="15.030810180828299"><ele>392.0</ele><time>2026-04-30T15:12:32.001Z</time></trkpt><trkpt lat="36.95751259328496" lon="15.030899231674697"><ele>389.49999999999994</ele><time>2026-04-30T15:12:33.001Z</time></trkpt><trkpt lat="36.957499325639816" lon="15.03098143886836"><ele>387.0</ele><time>2026-04-30T15:12:34.001Z</time></trkpt><trkpt lat="36.95748688187763" lon="15.031089022848462"><ele>384.5</ele><time>2026-04-30T15:12:35.001Z</time></trkpt><trkpt lat="36.95746878655361" lon="15.031218064283477"><ele>382.0</ele><time>2026-04-30T15:12:36.001Z</time></trkpt><trkpt lat="36.95745480346834" lon="15.031334666410668"><ele>379.5</ele><time>2026-04-30T15:12:37.001Z</time></trkpt><trkpt lat="36.957441387969304" lon="15.031438527002477"><ele>377.0</ele><time>2026-04-30T15:12:38.002Z</time></trkpt><trkpt lat="36.95741990774603" lon="15.031527966721251"><ele>376.99999999999994</ele><time>2026-04-30T15:12:39.002Z</time></trkpt><trkpt lat="36.95739152478292" lon="15.03160452256855"><ele>377.0</ele><time>2026-04-30T15:12:40.002Z</time></trkpt><trkpt lat="36.957304872856746" lon="15.031607085565584"><ele>377.0</ele><time>2026-04-30T15:12:41.002Z</time></trkpt><trkpt lat="36.957227140831385" lon="15.031603110967689"><ele>377.0</ele><time>2026-04-30T15:12:42.002Z</time></trkpt><trkpt lat="36.95715197272148" lon="15.031620376618035"><ele>377.0</ele><time>2026-04-30T15:12:43.002Z</time></trkpt><trkpt lat="36.95708720564428" lon="15.031628474692427"><ele>376.99999999999994</ele><time>2026-04-30T15:12:44.002Z</time></trkpt><trkpt lat="36.957023591986896" lon="15.031678184947213"><ele>377.0</ele><time>2026-04-30T15:12:45.002Z</time></trkpt><trkpt lat="36.956953493339846" lon="15.03175259389116"><ele>377.0</ele><time>2026-04-30T15:12:46.002Z</time></trkpt><trkpt lat="36.95687920302794" lon="15.031859101741377"><ele>377.0</ele><time>2026-04-30T15:12:47.002Z</time></trkpt><trkpt lat="36.956798173774445" lon="15.032007432141278"><ele>377.0</ele><time>2026-04-30T15:12:48.002Z</time></trkpt><trkpt lat="36.95669374538352" lon="15.032156786221162"><ele>377.0</ele><time>2026-04-30T15:12:49.002Z</time></trkpt><trkpt lat="36.95660316174654" lon="15.032325461006527"><ele>379.6666666666667</ele><time>2026-04-30T15:12:50.002Z</time></trkpt><trkpt lat="36.95651280560582" lon="15.032500031608302"><ele>382.33333333333337</ele><time>2026-04-30T15:12:51.002Z</time></trkpt><trkpt lat="36.95642217821875" lon="15.032676585123433"><ele>385.0</ele><time>2026-04-30T15:12:52.002Z</time></trkpt><trkpt lat="36.95634543029436" lon="15.032830850228907"><ele>385.00000000000006</ele><time>2026-04-30T15:12:53Z</time></trkpt><trkpt lat="36.95629697746107" lon="15.032947344488157"><ele>385.0</ele><time>2026-04-30T15:12:54Z</time></trkpt><trkpt lat="36.95627149091244" lon="15.033038854652254"><ele>385.0</ele><time>2026-04-30T15:12:55Z</time></trkpt><trkpt lat="36.95624530790047" lon="15.033110937187047"><ele>385.0</ele><time>2026-04-30T15:12:56Z</time></trkpt><trkpt lat="36.956283999005684" lon="15.033193928784476"><ele>385.00000000000006</ele><time>2026-04-30T15:12:57Z</time></trkpt><trkpt lat="36.956396446113175" lon="15.033208515963395"><ele>385.0</ele><time>2026-04-30T15:12:58Z</time></trkpt><trkpt lat="36.956497756245035" lon="15.033196278610621"><ele>385.0</ele><time>2026-04-30T15:12:59Z</time></trkpt><trkpt lat="36.95661574169285" lon="15.033139431817755"><ele>385.0</ele><time>2026-04-30T15:13:00Z</time></trkpt><trkpt lat="36.95673878966355" lon="15.033069694740458"><ele>385.0</ele><time>2026-04-30T15:13:01Z</time></trkpt><trkpt lat="36.95689425537637" lon="15.033003906291414"><ele>385.0</ele><time>2026-04-30T15:13:02Z</time></trkpt><trkpt lat="36.9570729350728" lon="15.032939650679426"><ele>385.0</ele><time>2026-04-30T15:13:03Z</time></trkpt><trkpt lat="36.95725114001834" lon="15.032847694487453"><ele>385.0</ele><time>2026-04-30T15:13:04Z</time></trkpt><trkpt lat="36.95744246726254" lon="15.032750173333213"><ele>385.0</ele><time>2026-04-30T15:13:05Z</time></trkpt><trkpt lat="36.957614891270175" lon="15.03266965964468"><ele>385.0</ele><time>2026-04-30T15:13:06Z</time></trkpt><trkpt lat="36.957755574056996" lon="15.032634045101803"><ele>385.0</ele><time>2026-04-30T15:13:07Z</time></trkpt><trkpt lat="36.95786618594604" lon="15.03259333675443"><ele>385.0</ele><time>2026-04-30T15:13:08Z</time></trkpt><trkpt lat="36.957952859286976" lon="15.032568457153582"><ele>385.0</ele><time>2026-04-30T15:13:09Z</time></trkpt><trkpt lat="36.95801891129743" lon="15.032571114644675"><ele>385.0</ele><time>2026-04-30T15:13:10Z</time></trkpt><trkpt lat="36.958099693031244" lon="15.032685439879048"><ele>385.0</ele><time>2026-04-30T15:13:12Z</time></trkpt><trkpt lat="36.95813200526884" lon="15.032792666959766"><ele>385.0</ele><time>2026-04-30T15:13:13Z</time></trkpt><trkpt lat="36.958171406328304" lon="15.032949478164785"><ele>385.0</ele><time>2026-04-30T15:13:14Z</time></trkpt><trkpt lat="36.95822875126629" lon="15.033116812307606"><ele>385.0</ele><time>2026-04-30T15:13:15Z</time></trkpt><trkpt lat="36.958266729688" lon="15.033304636604077"><ele>390.0</ele><time>2026-04-30T15:13:16Z</time></trkpt><trkpt lat="36.958316841582686" lon="15.033481231446482"><ele>395.0</ele><time>2026-04-30T15:13:17Z</time></trkpt><trkpt lat="36.95837074721209" lon="15.033663568416763"><ele>400.0</ele><time>2026-04-30T15:13:18Z</time></trkpt><trkpt lat="36.95840741297555" lon="15.033859737717075"><ele>400.0</ele><time>2026-04-30T15:13:19Z</time></trkpt><trkpt lat="36.9584685501117" lon="15.034022430605223"><ele>400.0</ele><time>2026-04-30T15:13:20Z</time></trkpt><trkpt lat="36.958507892339924" lon="15.034182947873655"><ele>400.0</ele><time>2026-04-30T15:13:21Z</time></trkpt><trkpt lat="36.958546560335456" lon="15.03434211990661"><ele>400.0</ele><time>2026-04-30T15:13:22Z</time></trkpt><trkpt lat="36.95858850785516" lon="15.034502883884366"><ele>403.0</ele><time>2026-04-30T15:13:23Z</time></trkpt><trkpt lat="36.95864234265693" lon="15.034641952580559"><ele>406.0</ele><time>2026-04-30T15:13:24Z</time></trkpt><trkpt lat="36.958718659304495" lon="15.034760743211372"><ele>409.0</ele><time>2026-04-30T15:13:25Z</time></trkpt><trkpt lat="36.958824853642106" lon="15.034877410124553"><ele>412.0</ele><time>2026-04-30T15:13:26Z</time></trkpt><trkpt lat="36.95895709856877" lon="15.035001555400873"><ele>412.0</ele><time>2026-04-30T15:13:27Z</time></trkpt><trkpt lat="36.95909058765645" lon="15.035139443925939"><ele>412.0</ele><time>2026-04-30T15:13:28Z</time></trkpt><trkpt lat="36.959241090629334" lon="15.0352937187833"><ele>412.0</ele><time>2026-04-30T15:13:29Z</time></trkpt><trkpt lat="36.959391556940005" lon="15.035457961844058"><ele>412.6666666666667</ele><time>2026-04-30T15:13:30Z</time></trkpt><trkpt lat="36.95952382872895" lon="15.035601965603771"><ele>413.33333333333337</ele><time>2026-04-30T15:13:31Z</time></trkpt><trkpt lat="36.95963793286034" lon="15.035732802533403"><ele>414.0</ele><time>2026-04-30T15:13:32Z</time></trkpt><trkpt lat="36.959765057630676" lon="15.035869602018199"><ele>413.66666666666663</ele><time>2026-04-30T15:13:33.001Z</time></trkpt><trkpt lat="36.959895862182805" lon="15.03600703860285"><ele>413.3333333333333</ele><time>2026-04-30T15:13:34.001Z</time></trkpt><trkpt lat="36.96002155610648" lon="15.036146206869315"><ele>413.0</ele><time>2026-04-30T15:13:35.001Z</time></trkpt><trkpt lat="36.960148720753466" lon="15.036285213665572"><ele>413.0</ele><time>2026-04-30T15:13:36.001Z</time></trkpt><trkpt lat="36.960253311420175" lon="15.036416297389176"><ele>413.0</ele><time>2026-04-30T15:13:37.001Z</time></trkpt><trkpt lat="36.9603713712261" lon="15.036543990200474"><ele>413.0</ele><time>2026-04-30T15:13:38.001Z</time></trkpt><trkpt lat="36.96048290947409" lon="15.03666391841626"><ele>412.0</ele><time>2026-04-30T15:13:39.001Z</time></trkpt><trkpt lat="36.96060301480043" lon="15.036765553403313"><ele>411.0</ele><time>2026-04-30T15:13:40.001Z</time></trkpt><trkpt lat="36.960704265094954" lon="15.0369069464402"><ele>410.0</ele><time>2026-04-30T15:13:41.001Z</time></trkpt><trkpt lat="36.9608163931768" lon="15.037033687116965"><ele>409.0</ele><time>2026-04-30T15:13:42.001Z</time></trkpt><trkpt lat="36.960917172754414" lon="15.037147600351473"><ele>409.0</ele><time>2026-04-30T15:13:43.001Z</time></trkpt><trkpt lat="36.96101079398298" lon="15.03724216556548"><ele>409.0</ele><time>2026-04-30T15:13:44.001Z</time></trkpt><trkpt lat="36.961105705378976" lon="15.037315691070031"><ele>409.0</ele><time>2026-04-30T15:13:45.001Z</time></trkpt><trkpt lat="36.961181586962645" lon="15.037396415876527"><ele>409.0</ele><time>2026-04-30T15:13:46.001Z</time></trkpt><trkpt lat="36.961242875447354" lon="15.037468990359276"><ele>409.0</ele><time>2026-04-30T15:13:47.001Z</time></trkpt><trkpt lat="36.961273938000566" lon="15.03755303725189"><ele>409.2</ele><time>2026-04-30T15:13:48.001Z</time></trkpt><trkpt lat="36.96132394948564" lon="15.037650003396518"><ele>409.4</ele><time>2026-04-30T15:13:50.001Z</time></trkpt><trkpt lat="36.96136125895053" lon="15.03772257214185"><ele>409.6</ele><time>2026-04-30T15:13:53.001Z</time></trkpt><trkpt lat="36.96151085706686" lon="15.037638664630446"><ele>409.8</ele><time>2026-04-30T15:13:54.001Z</time></trkpt><trkpt lat="36.961603529046755" lon="15.037583776004759"><ele>410.0</ele><time>2026-04-30T15:13:55.001Z</time></trkpt><trkpt lat="36.96171423063665" lon="15.037537241352037"><ele>410.75</ele><time>2026-04-30T15:13:56.001Z</time></trkpt><trkpt lat="36.961827371123206" lon="15.037495096999017"><ele>411.5</ele><time>2026-04-30T15:13:57.001Z</time></trkpt><trkpt lat="36.96195374248781" lon="15.037445398463872"><ele>412.25</ele><time>2026-04-30T15:13:58.001Z</time></trkpt><trkpt lat="36.9620790772399" lon="15.03738364988323"><ele>413.0</ele><time>2026-04-30T15:13:59.001Z</time></trkpt><trkpt lat="36.96218156305212" lon="15.037338289492054"><ele>413.0</ele><time>2026-04-30T15:14:00.001Z</time></trkpt><trkpt lat="36.96227756392753" lon="15.037301276021077"><ele>413.0</ele><time>2026-04-30T15:14:01.001Z</time></trkpt><trkpt lat="36.962375010758464" lon="15.03726671362178"><ele>413.0</ele><time>2026-04-30T15:14:02.001Z</time></trkpt><trkpt lat="36.96248052493833" lon="15.03729937146404"><ele>413.0</ele><time>2026-04-30T15:14:04.001Z</time></trkpt><trkpt lat="36.96251117052007" lon="15.03748462112135"><ele>414.0</ele><time>2026-04-30T15:14:05.001Z</time></trkpt><trkpt lat="36.96257820281636" lon="15.037593743980429"><ele>415.0</ele><time>2026-04-30T15:14:06.001Z</time></trkpt><trkpt lat="36.96260380319131" lon="15.037695997176503"><ele>416.0</ele><time>2026-04-30T15:14:07.001Z</time></trkpt><trkpt lat="36.96263126665513" lon="15.037779168986532"><ele>417.0</ele><time>2026-04-30T15:14:10.001Z</time></trkpt><trkpt lat="36.96278975387898" lon="15.037726335690728"><ele>418.0</ele><time>2026-04-30T15:14:11.001Z</time></trkpt><trkpt lat="36.96289846367142" lon="15.037646578192572"><ele>418.0</ele><time>2026-04-30T15:14:13.001Z</time></trkpt><trkpt lat="36.962954614155265" lon="15.037595729965187"><ele>418.0</ele><time>2026-04-30T15:14:14.001Z</time></trkpt><trkpt lat="36.96302250480586" lon="15.037527948650228"><ele>418.0</ele><time>2026-04-30T15:14:15.001Z</time></trkpt><trkpt lat="36.963105144233005" lon="15.037424122825854"><ele>418.0</ele><time>2026-04-30T15:14:16.001Z</time></trkpt><trkpt lat="36.96317538390627" lon="15.037334334061484"><ele>418.0</ele><time>2026-04-30T15:14:17.001Z</time></trkpt><trkpt lat="36.96323603048726" lon="15.037256165152895"><ele>418.50000000000006</ele><time>2026-04-30T15:14:18.001Z</time></trkpt><trkpt lat="36.96330106952872" lon="15.037174793199735"><ele>419.0</ele><time>2026-04-30T15:14:19.001Z</time></trkpt><trkpt lat="36.96336734591579" lon="15.037100014123952"><ele>419.5</ele><time>2026-04-30T15:14:20.001Z</time></trkpt><trkpt lat="36.963427955901516" lon="15.03702446657041"><ele>420.0</ele><time>2026-04-30T15:14:21.001Z</time></trkpt><trkpt lat="36.96348981422899" lon="15.036951847552979"><ele>420.50000000000006</ele><time>2026-04-30T15:14:22.001Z</time></trkpt><trkpt lat="36.963542423886864" lon="15.036885677378583"><ele>421.0</ele><time>2026-04-30T15:14:23.001Z</time></trkpt><trkpt lat="36.9635872642878" lon="15.036824248907502"><ele>421.6666666666667</ele><time>2026-04-30T15:14:24.001Z</time></trkpt><trkpt lat="36.96363808263768" lon="15.036760256251988"><ele>422.33333333333337</ele><time>2026-04-30T15:14:25.001Z</time></trkpt><trkpt lat="36.963694628542754" lon="15.036682084174222"><ele>423.0</ele><time>2026-04-30T15:14:26.001Z</time></trkpt><trkpt lat="36.963758836517286" lon="15.03657656951247"><ele>423.66666666666663</ele><time>2026-04-30T15:14:27.001Z</time></trkpt><trkpt lat="36.96382357136904" lon="15.036489050684963"><ele>424.3333333333333</ele><time>2026-04-30T15:14:28.001Z</time></trkpt><trkpt lat="36.963881609651004" lon="15.036416144534918"><ele>425.0</ele><time>2026-04-30T15:14:29.001Z</time></trkpt><trkpt lat="36.96394740341376" lon="15.036331433190135"><ele>426.4</ele><time>2026-04-30T15:14:30.001Z</time></trkpt><trkpt lat="36.96400053002521" lon="15.03625673383674"><ele>427.8</ele><time>2026-04-30T15:14:31.001Z</time></trkpt><trkpt lat="36.96405296313823" lon="15.036187499515107"><ele>429.20000000000005</ele><time>2026-04-30T15:14:32.001Z</time></trkpt><trkpt lat="36.96411748458512" lon="15.036125986115612"><ele>430.6</ele><time>2026-04-30T15:14:33.001Z</time></trkpt><trkpt lat="36.964156427603584" lon="15.03605121459276"><ele>432.0</ele><time>2026-04-30T15:14:34.001Z</time></trkpt><trkpt lat="36.96424741167965" lon="15.035908671566474"><ele>432.1666666666667</ele><time>2026-04-30T15:14:36.001Z</time></trkpt><trkpt lat="36.96431629720472" lon="15.035810879155662"><ele>432.33333333333337</ele><time>2026-04-30T15:14:37.001Z</time></trkpt><trkpt lat="36.964365567472086" lon="15.035761658724352"><ele>432.5</ele><time>2026-04-30T15:14:38.001Z</time></trkpt><trkpt lat="36.964400653279164" lon="15.035678059989806"><ele>432.6666666666667</ele><time>2026-04-30T15:14:39.001Z</time></trkpt><trkpt lat="36.96445775954211" lon="15.035614455015853"><ele>432.83333333333337</ele><time>2026-04-30T15:14:40.001Z</time></trkpt><trkpt lat="36.964542600405494" lon="15.035543150590877"><ele>433.0</ele><time>2026-04-30T15:14:41.001Z</time></trkpt><trkpt lat="36.96463417705336" lon="15.035460554405615"><ele>433.6666666666667</ele><time>2026-04-30T15:14:42.001Z</time></trkpt><trkpt lat="36.96469877205322" lon="15.035394159951744"><ele>434.33333333333337</ele><time>2026-04-30T15:14:43.001Z</time></trkpt><trkpt lat="36.96476244918949" lon="15.035334230389248"><ele>435.0</ele><time>2026-04-30T15:14:44.001Z</time></trkpt><trkpt lat="36.964849503998195" lon="15.035285859174168"><ele>435.66666666666663</ele><time>2026-04-30T15:14:45.001Z</time></trkpt><trkpt lat="36.96491509575239" lon="15.035249176057723"><ele>436.3333333333333</ele><time>2026-04-30T15:14:46.001Z</time></trkpt><trkpt lat="36.964989302901785" lon="15.035184374779206"><ele>437.0</ele><time>2026-04-30T15:14:47.001Z</time></trkpt><trkpt lat="36.96509821496916" lon="15.035124042316546"><ele>437.0</ele><time>2026-04-30T15:14:48.001Z</time></trkpt><trkpt lat="36.9651976247697" lon="15.035055167722277"><ele>437.00000000000006</ele><time>2026-04-30T15:14:49.001Z</time></trkpt><trkpt lat="36.96526700134284" lon="15.03501141138783"><ele>437.00000000000006</ele><time>2026-04-30T15:14:50.001Z</time></trkpt><trkpt lat="36.965339495775765" lon="15.03495755884037"><ele>437.0</ele><time>2026-04-30T15:14:51.001Z</time></trkpt><trkpt lat="36.965415180976265" lon="15.03490189734393"><ele>437.0</ele><time>2026-04-30T15:14:52.001Z</time></trkpt><trkpt lat="36.965502973670326" lon="15.03486209459835"><ele>437.20000000000005</ele><time>2026-04-30T15:14:53.001Z</time></trkpt><trkpt lat="36.96558426945643" lon="15.034816130798037"><ele>437.40000000000003</ele><time>2026-04-30T15:14:54.001Z</time></trkpt><trkpt lat="36.96567207088325" lon="15.03476774855746"><ele>437.59999999999997</ele><time>2026-04-30T15:14:55.001Z</time></trkpt><trkpt lat="36.965739289922226" lon="15.03470328743372"><ele>437.79999999999995</ele><time>2026-04-30T15:14:56.001Z</time></trkpt><trkpt lat="36.96583329395349" lon="15.03462219922209"><ele>438.0</ele><time>2026-04-30T15:14:58.001Z</time></trkpt><trkpt lat="36.965883119932656" lon="15.034556640795016"><ele>438.0</ele><time>2026-04-30T15:15:00Z</time></trkpt><trkpt lat="36.96589461415367" lon="15.034440427485457"><ele>437.99999999999994</ele><time>2026-04-30T15:23:08.001Z</time></trkpt><trkpt lat="36.96597022493249" lon="15.034364781932181"><ele>437.99999999999994</ele><time>2026-04-30T15:23:10.001Z</time></trkpt><trkpt lat="36.96605655466421" lon="15.0343516470699"><ele>438.0</ele><time>2026-04-30T15:23:11.001Z</time></trkpt><trkpt lat="36.96616578196201" lon="15.03432877742148"><ele>438.0</ele><time>2026-04-30T15:23:12.001Z</time></trkpt><trkpt lat="36.9662885896978" lon="15.034293231285996"><ele>438.0</ele><time>2026-04-30T15:23:13.001Z</time></trkpt><trkpt lat="36.966405495958064" lon="15.034260107219637"><ele>438.0</ele><time>2026-04-30T15:23:14.001Z</time></trkpt><trkpt lat="36.9665192909636" lon="15.034235161485848"><ele>438.0</ele><time>2026-04-30T15:23:15.001Z</time></trkpt><trkpt lat="36.966628027172845" lon="15.034205337786922"><ele>438.0</ele><time>2026-04-30T15:23:16.001Z</time></trkpt><trkpt lat="36.96675164482775" lon="15.034170177250147"><ele>438.0</ele><time>2026-04-30T15:23:17.001Z</time></trkpt><trkpt lat="36.96687488442043" lon="15.034140729505479"><ele>438.0</ele><time>2026-04-30T15:23:18.001Z</time></trkpt><trkpt lat="36.96700248512252" lon="15.03410047820963"><ele>438.0</ele><time>2026-04-30T15:23:19.001Z</time></trkpt><trkpt lat="36.96714006544481" lon="15.034071873435215"><ele>438.0</ele><time>2026-04-30T15:23:20.001Z</time></trkpt><trkpt lat="36.96728070711708" lon="15.034039883673374"><ele>438.0</ele><time>2026-04-30T15:23:21.001Z</time></trkpt><trkpt lat="36.96742029508126" lon="15.034014612796934"><ele>438.0</ele><time>2026-04-30T15:23:22.001Z</time></trkpt><trkpt lat="36.96756405129744" lon="15.033985833698853"><ele>438.0</ele><time>2026-04-30T15:23:23Z</time></trkpt><trkpt lat="36.967708006700576" lon="15.03394643804922"><ele>438.0</ele><time>2026-04-30T15:23:24Z</time></trkpt><trkpt lat="36.96785845490861" lon="15.03390568739308"><ele>439.0</ele><time>2026-04-30T15:23:25Z</time></trkpt><trkpt lat="36.968013708624355" lon="15.03386951204839"><ele>440.0</ele><time>2026-04-30T15:23:26Z</time></trkpt><trkpt lat="36.96816645625445" lon="15.033835179824537"><ele>441.0</ele><time>2026-04-30T15:23:27Z</time></trkpt><trkpt lat="36.968321732034916" lon="15.033792860658544"><ele>441.33333333333337</ele><time>2026-04-30T15:23:28Z</time></trkpt><trkpt lat="36.96847599454591" lon="15.033749334612443"><ele>441.6666666666667</ele><time>2026-04-30T15:23:29Z</time></trkpt><trkpt lat="36.9686247415621" lon="15.033702833011931"><ele>442.0</ele><time>2026-04-30T15:23:30Z</time></trkpt><trkpt lat="36.9687801671028" lon="15.033651959681114"><ele>442.0</ele><time>2026-04-30T15:23:31Z</time></trkpt><trkpt lat="36.968935060591775" lon="15.033595703649892"><ele>442.0</ele><time>2026-04-30T15:23:32Z</time></trkpt><trkpt lat="36.969098574031555" lon="15.033530854396503"><ele>442.0</ele><time>2026-04-30T15:23:33Z</time></trkpt><trkpt lat="36.96926602388706" lon="15.033458573580067"><ele>442.6666666666667</ele><time>2026-04-30T15:23:34Z</time></trkpt><trkpt lat="36.969425553929256" lon="15.033395069076269"><ele>443.33333333333337</ele><time>2026-04-30T15:23:35Z</time></trkpt><trkpt lat="36.969568097518106" lon="15.033340380280451"><ele>444.0</ele><time>2026-04-30T15:23:36Z</time></trkpt><trkpt lat="36.9697099478869" lon="15.033287932124857"><ele>444.0</ele><time>2026-04-30T15:23:37Z</time></trkpt><trkpt lat="36.969860707974824" lon="15.033234365696535"><ele>444.0</ele><time>2026-04-30T15:23:38Z</time></trkpt><trkpt lat="36.97001531948244" lon="15.033187279373266"><ele>444.0</ele><time>2026-04-30T15:23:39Z</time></trkpt><trkpt lat="36.97018187105173" lon="15.033150196100594"><ele>444.0</ele><time>2026-04-30T15:23:40Z</time></trkpt><trkpt lat="36.97036814824365" lon="15.03313344644385"><ele>444.0</ele><time>2026-04-30T15:23:41Z</time></trkpt><trkpt lat="36.970544724296495" lon="15.03313958400647"><ele>444.0</ele><time>2026-04-30T15:23:42Z</time></trkpt><trkpt lat="36.970714060473284" lon="15.033146336844696"><ele>446.0</ele><time>2026-04-30T15:23:43Z</time></trkpt><trkpt lat="36.9708881935587" lon="15.033150249608958"><ele>448.0</ele><time>2026-04-30T15:23:44Z</time></trkpt><trkpt lat="36.97105763593566" lon="15.033151555274339"><ele>450.0</ele><time>2026-04-30T15:23:45Z</time></trkpt><trkpt lat="36.97123921595754" lon="15.033147924476111"><ele>450.0</ele><time>2026-04-30T15:23:46Z</time></trkpt><trkpt lat="36.971402698628005" lon="15.03314187646325"><ele>450.0</ele><time>2026-04-30T15:23:47Z</time></trkpt><trkpt lat="36.97156006001654" lon="15.033137315386684"><ele>450.0</ele><time>2026-04-30T15:23:48Z</time></trkpt><trkpt lat="36.971714610389554" lon="15.033132040191752"><ele>448.66666666666663</ele><time>2026-04-30T15:23:49Z</time></trkpt><trkpt lat="36.9718610480921" lon="15.033117235344323"><ele>447.3333333333333</ele><time>2026-04-30T15:23:50Z</time></trkpt><trkpt lat="36.9720121877781" lon="15.033074510991206"><ele>446.0</ele><time>2026-04-30T15:23:51Z</time></trkpt><trkpt lat="36.972183809788724" lon="15.033006631625053"><ele>446.0</ele><time>2026-04-30T15:23:52Z</time></trkpt><trkpt lat="36.97235040031636" lon="15.032933372593957"><ele>446.0</ele><time>2026-04-30T15:23:53Z</time></trkpt><trkpt lat="36.97252050174433" lon="15.032861309300628"><ele>446.0</ele><time>2026-04-30T15:23:54Z</time></trkpt><trkpt lat="36.972697526169526" lon="15.032788285852362"><ele>446.3333333333333</ele><time>2026-04-30T15:23:55Z</time></trkpt><trkpt lat="36.97287297035074" lon="15.032719976260564"><ele>446.66666666666663</ele><time>2026-04-30T15:23:56Z</time></trkpt><trkpt lat="36.97305125438202" lon="15.032651732661002"><ele>447.0</ele><time>2026-04-30T15:23:57Z</time></trkpt><trkpt lat="36.97320943732713" lon="15.032585486011696"><ele>446.66666666666663</ele><time>2026-04-30T15:23:58Z</time></trkpt><trkpt lat="36.973359206796346" lon="15.03251936176241"><ele>446.3333333333333</ele><time>2026-04-30T15:23:59Z</time></trkpt><trkpt lat="36.9735237951225" lon="15.032447388213429"><ele>446.0</ele><time>2026-04-30T15:24:00Z</time></trkpt><trkpt lat="36.973693278408966" lon="15.032382941755731"><ele>446.0</ele><time>2026-04-30T15:24:01Z</time></trkpt><trkpt lat="36.973856391778426" lon="15.032316077351142"><ele>446.0</ele><time>2026-04-30T15:24:02Z</time></trkpt><trkpt lat="36.9740207268111" lon="15.032251332312967"><ele>446.0</ele><time>2026-04-30T15:24:03Z</time></trkpt><trkpt lat="36.974195326841546" lon="15.032175368957345"><ele>446.0</ele><time>2026-04-30T15:24:04Z</time></trkpt><trkpt lat="36.974366067263375" lon="15.032095984252408"><ele>446.0</ele><time>2026-04-30T15:24:05Z</time></trkpt><trkpt lat="36.974551578113804" lon="15.032013331714616"><ele>446.0</ele><time>2026-04-30T15:24:06Z</time></trkpt><trkpt lat="36.97472367629774" lon="15.031937226206567"><ele>446.0</ele><time>2026-04-30T15:24:07Z</time></trkpt><trkpt lat="36.97489481517681" lon="15.031869679913497"><ele>446.0</ele><time>2026-04-30T15:24:08Z</time></trkpt><trkpt lat="36.975071227920964" lon="15.031795834697972"><ele>446.0</ele><time>2026-04-30T15:24:09Z</time></trkpt><trkpt lat="36.97524121221286" lon="15.031727491746688"><ele>447.0</ele><time>2026-04-30T15:24:10Z</time></trkpt><trkpt lat="36.9753785830061" lon="15.03167347165279"><ele>448.0</ele><time>2026-04-30T15:24:11Z</time></trkpt><trkpt lat="36.9755073696455" lon="15.031634269722117"><ele>449.0</ele><time>2026-04-30T15:24:12Z</time></trkpt><trkpt lat="36.97564398734226" lon="15.031623481069728"><ele>450.0</ele><time>2026-04-30T15:24:13Z</time></trkpt><trkpt lat="36.975779872780954" lon="15.031670159391942"><ele>451.5</ele><time>2026-04-30T15:24:14Z</time></trkpt><trkpt lat="36.97591492778954" lon="15.031730595824"><ele>453.0</ele><time>2026-04-30T15:24:15Z</time></trkpt><trkpt lat="36.976007562870635" lon="15.031837056426074"><ele>454.5</ele><time>2026-04-30T15:24:16Z</time></trkpt><trkpt lat="36.976086722049345" lon="15.031955851748801"><ele>456.0</ele><time>2026-04-30T15:24:17Z</time></trkpt><trkpt lat="36.97617304945308" lon="15.032096571062471"><ele>456.0</ele><time>2026-04-30T15:24:18Z</time></trkpt><trkpt lat="36.97626557027726" lon="15.03224567841835"><ele>456.0</ele><time>2026-04-30T15:24:19Z</time></trkpt><trkpt lat="36.976360960471794" lon="15.032371429346188"><ele>456.0</ele><time>2026-04-30T15:24:20Z</time></trkpt><trkpt lat="36.97644043801465" lon="15.0324876372576"><ele>456.0</ele><time>2026-04-30T15:24:21.001Z</time></trkpt><trkpt lat="36.9765440785177" lon="15.032581216447584"><ele>454.33333333333337</ele><time>2026-04-30T15:24:22.001Z</time></trkpt><trkpt lat="36.976681525082654" lon="15.03263867240892"><ele>452.6666666666667</ele><time>2026-04-30T15:24:23.001Z</time></trkpt><trkpt lat="36.97684127131371" lon="15.032650781881548"><ele>451.0</ele><time>2026-04-30T15:24:24.001Z</time></trkpt><trkpt lat="36.97701676352273" lon="15.032635515597486"><ele>450.0</ele><time>2026-04-30T15:24:25.001Z</time></trkpt><trkpt lat="36.977194816786714" lon="15.03260172939883"><ele>449.0</ele><time>2026-04-30T15:24:26.001Z</time></trkpt><trkpt lat="36.97736584048277" lon="15.032552476799111"><ele>448.0</ele><time>2026-04-30T15:24:27.001Z</time></trkpt><trkpt lat="36.97752674848938" lon="15.032470132747584"><ele>445.6666666666667</ele><time>2026-04-30T15:24:28.001Z</time></trkpt><trkpt lat="36.977690866081964" lon="15.032345062636955"><ele>443.33333333333337</ele><time>2026-04-30T15:24:29.001Z</time></trkpt><trkpt lat="36.977837139643675" lon="15.032205544349937"><ele>441.0</ele><time>2026-04-30T15:24:30.001Z</time></trkpt><trkpt lat="36.977970309038106" lon="15.032042645577725"><ele>441.0</ele><time>2026-04-30T15:24:31.001Z</time></trkpt><trkpt lat="36.978071271033286" lon="15.031876586358143"><ele>441.0</ele><time>2026-04-30T15:24:32.001Z</time></trkpt><trkpt lat="36.97813659037915" lon="15.031709232375684"><ele>441.0</ele><time>2026-04-30T15:24:33.001Z</time></trkpt><trkpt lat="36.97819268168002" lon="15.031553366562491"><ele>440.75</ele><time>2026-04-30T15:24:34.001Z</time></trkpt><trkpt lat="36.97825488604633" lon="15.031408428217935"><ele>440.5</ele><time>2026-04-30T15:24:35.001Z</time></trkpt><trkpt lat="36.97831466056508" lon="15.031267111733605"><ele>440.25</ele><time>2026-04-30T15:24:36.001Z</time></trkpt><trkpt lat="36.97837163705857" lon="15.031134272735665"><ele>440.0</ele><time>2026-04-30T15:24:37.001Z</time></trkpt><trkpt lat="36.97843222658226" lon="15.031005758725545"><ele>440.0</ele><time>2026-04-30T15:24:38.001Z</time></trkpt><trkpt lat="36.978498682187485" lon="15.030887841287427"><ele>440.0</ele><time>2026-04-30T15:24:39.001Z</time></trkpt><trkpt lat="36.97857494487001" lon="15.030797598102803"><ele>440.0</ele><time>2026-04-30T15:24:40.001Z</time></trkpt><trkpt lat="36.9786607829402" lon="15.030757919749608"><ele>440.0</ele><time>2026-04-30T15:24:41.001Z</time></trkpt><trkpt lat="36.97875744194862" lon="15.03077162001765"><ele>440.0</ele><time>2026-04-30T15:24:42.001Z</time></trkpt><trkpt lat="36.97884722782851" lon="15.030862063667394"><ele>440.0</ele><time>2026-04-30T15:24:43.001Z</time></trkpt><trkpt lat="36.97896581408552" lon="15.03092695725981"><ele>440.0</ele><time>2026-04-30T15:24:44.001Z</time></trkpt><trkpt lat="36.97905792184842" lon="15.030993235466047"><ele>440.0</ele><time>2026-04-30T15:24:45.001Z</time></trkpt><trkpt lat="36.97916906325143" lon="15.031050293022128"><ele>440.0</ele><time>2026-04-30T15:24:46.001Z</time></trkpt><trkpt lat="36.979300251054696" lon="15.031071913175033"><ele>439.25</ele><time>2026-04-30T15:24:47.001Z</time></trkpt><trkpt lat="36.979442041199576" lon="15.031055562911884"><ele>438.5</ele><time>2026-04-30T15:24:48.001Z</time></trkpt><trkpt lat="36.97958092796199" lon="15.031002524528223"><ele>437.75</ele><time>2026-04-30T15:24:49.001Z</time></trkpt><trkpt lat="36.97972055480196" lon="15.030916587419274"><ele>437.0</ele><time>2026-04-30T15:24:50.001Z</time></trkpt><trkpt lat="36.97986972436952" lon="15.030814599092086"><ele>437.0</ele><time>2026-04-30T15:24:51.001Z</time></trkpt><trkpt lat="36.98003389521764" lon="15.030701873830637"><ele>437.0</ele><time>2026-04-30T15:24:52.001Z</time></trkpt><trkpt lat="36.98022188847819" lon="15.03057329197903"><ele>437.0</ele><time>2026-04-30T15:24:53.001Z</time></trkpt><trkpt lat="36.980396708809195" lon="15.030454783257458"><ele>437.0</ele><time>2026-04-30T15:24:54.001Z</time></trkpt><trkpt lat="36.98055876895957" lon="15.030349802354506"><ele>437.0</ele><time>2026-04-30T15:24:55.001Z</time></trkpt><trkpt lat="36.9807204273244" lon="15.030245928956408"><ele>437.0</ele><time>2026-04-30T15:24:56.001Z</time></trkpt><trkpt lat="36.98087860900654" lon="15.030144408019176"><ele>436.3333333333333</ele><time>2026-04-30T15:24:57.001Z</time></trkpt><trkpt lat="36.98104648374562" lon="15.030034982848374"><ele>435.66666666666663</ele><time>2026-04-30T15:24:58.001Z</time></trkpt><trkpt lat="36.981202495736746" lon="15.029931066197992"><ele>435.0</ele><time>2026-04-30T15:24:59.001Z</time></trkpt><trkpt lat="36.981370933718836" lon="15.029824529281903"><ele>435.0</ele><time>2026-04-30T15:25:00.001Z</time></trkpt><trkpt lat="36.98152807506579" lon="15.029713657286885"><ele>435.0</ele><time>2026-04-30T15:25:01.001Z</time></trkpt><trkpt lat="36.98168747840109" lon="15.029607164216658"><ele>435.0</ele><time>2026-04-30T15:25:02.001Z</time></trkpt><trkpt lat="36.98186924532996" lon="15.029492085221568"><ele>434.33333333333337</ele><time>2026-04-30T15:25:03.001Z</time></trkpt><trkpt lat="36.98203948000508" lon="15.029379620462018"><ele>433.6666666666667</ele><time>2026-04-30T15:25:04.001Z</time></trkpt><trkpt lat="36.98219957084071" lon="15.029275951171774"><ele>433.0</ele><time>2026-04-30T15:25:05.001Z</time></trkpt><trkpt lat="36.98235205600574" lon="15.029181203002235"><ele>432.6666666666667</ele><time>2026-04-30T15:25:06.001Z</time></trkpt><trkpt lat="36.982495350918" lon="15.029082770062203"><ele>432.33333333333337</ele><time>2026-04-30T15:25:07.001Z</time></trkpt><trkpt lat="36.98265101269974" lon="15.028979611664209"><ele>432.0</ele><time>2026-04-30T15:25:08.001Z</time></trkpt><trkpt lat="36.98280746868076" lon="15.028894804552857"><ele>432.66666666666663</ele><time>2026-04-30T15:25:09.001Z</time></trkpt><trkpt lat="36.98297830024387" lon="15.028806432223545"><ele>433.3333333333333</ele><time>2026-04-30T15:25:10.001Z</time></trkpt><trkpt lat="36.98315588370386" lon="15.028744079172217"><ele>434.0</ele><time>2026-04-30T15:25:11.001Z</time></trkpt><trkpt lat="36.98333353599112" lon="15.028692232037837"><ele>433.66666666666663</ele><time>2026-04-30T15:25:12.001Z</time></trkpt><trkpt lat="36.98351822235968" lon="15.028633418244151"><ele>433.33333333333337</ele><time>2026-04-30T15:25:13.001Z</time></trkpt><trkpt lat="36.98370225388412" lon="15.02856353911994"><ele>433.0</ele><time>2026-04-30T15:25:14.001Z</time></trkpt><trkpt lat="36.98388508520938" lon="15.028496054347587"><ele>433.0</ele><time>2026-04-30T15:25:15.001Z</time></trkpt><trkpt lat="36.98406923012794" lon="15.028430544697413"><ele>433.0</ele><time>2026-04-30T15:25:16.001Z</time></trkpt><trkpt lat="36.98425013046118" lon="15.028365097445855"><ele>433.0</ele><time>2026-04-30T15:25:17.001Z</time></trkpt><trkpt lat="36.98442986974358" lon="15.028297307624431"><ele>433.33333333333337</ele><time>2026-04-30T15:25:18.001Z</time></trkpt><trkpt lat="36.98460094919621" lon="15.028241765441377"><ele>433.66666666666663</ele><time>2026-04-30T15:25:19.001Z</time></trkpt><trkpt lat="36.984765626188256" lon="15.028188166590217"><ele>434.0</ele><time>2026-04-30T15:25:20.001Z</time></trkpt><trkpt lat="36.9849191043512" lon="15.028138261539398"><ele>431.66666666666663</ele><time>2026-04-30T15:25:21.001Z</time></trkpt><trkpt lat="36.98507292818112" lon="15.028085004946544"><ele>429.33333333333337</ele><time>2026-04-30T15:25:22.001Z</time></trkpt><trkpt lat="36.985223863049" lon="15.028037512966918"><ele>427.0</ele><time>2026-04-30T15:25:23.001Z</time></trkpt><trkpt lat="36.98538282252939" lon="15.027973141576823"><ele>427.0</ele><time>2026-04-30T15:25:24.001Z</time></trkpt><trkpt lat="36.98553109540215" lon="15.027898095368394"><ele>427.0</ele><time>2026-04-30T15:25:25.001Z</time></trkpt><trkpt lat="36.985667579397386" lon="15.027777413452489"><ele>427.0</ele><time>2026-04-30T15:25:26.001Z</time></trkpt><trkpt lat="36.98579082752443" lon="15.027622830481171"><ele>424.6666666666667</ele><time>2026-04-30T15:25:27.001Z</time></trkpt><trkpt lat="36.98589173664198" lon="15.027442123019425"><ele>422.33333333333337</ele><time>2026-04-30T15:25:28.001Z</time></trkpt><trkpt lat="36.98595542806855" lon="15.027263423260782"><ele>420.0</ele><time>2026-04-30T15:25:29Z</time></trkpt><trkpt lat="36.98600819785809" lon="15.027125570036468"><ele>420.0</ele><time>2026-04-30T15:25:30Z</time></trkpt><trkpt lat="36.98604407311008" lon="15.0270252993219"><ele>420.0</ele><time>2026-04-30T15:25:31Z</time></trkpt><trkpt lat="36.9860673997471" lon="15.026947609217457"><ele>420.0</ele><time>2026-04-30T15:25:32Z</time></trkpt><trkpt lat="36.986086099135484" lon="15.026836727667183"><ele>420.0</ele><time>2026-04-30T15:25:34Z</time></trkpt><trkpt lat="36.98595830831641" lon="15.026710243458455"><ele>420.0</ele><time>2026-04-30T15:25:36Z</time></trkpt><trkpt lat="36.985869121725656" lon="15.026635775322907"><ele>422.5</ele><time>2026-04-30T15:25:37Z</time></trkpt><trkpt lat="36.985792835634825" lon="15.026548981015438"><ele>425.0</ele><time>2026-04-30T15:25:38Z</time></trkpt><trkpt lat="36.98572260998998" lon="15.026455579659217"><ele>427.5</ele><time>2026-04-30T15:25:39Z</time></trkpt><trkpt lat="36.9856248569811" lon="15.026379115030238"><ele>430.0</ele><time>2026-04-30T15:25:40Z</time></trkpt><trkpt lat="36.985511700838344" lon="15.026297417685734"><ele>430.0</ele><time>2026-04-30T15:25:41Z</time></trkpt><trkpt lat="36.98542690095371" lon="15.026235337697917"><ele>430.0</ele><time>2026-04-30T15:25:42Z</time></trkpt><trkpt lat="36.985334194870426" lon="15.026164943532411"><ele>430.0</ele><time>2026-04-30T15:25:43Z</time></trkpt><trkpt lat="36.985239098530926" lon="15.026082260528437"><ele>430.0</ele><time>2026-04-30T15:25:44Z</time></trkpt><trkpt lat="36.98514252801261" lon="15.025995340563385"><ele>430.0</ele><time>2026-04-30T15:25:45Z</time></trkpt><trkpt lat="36.9850582819888" lon="15.025912360799232"><ele>431.0</ele><time>2026-04-30T15:25:46Z</time></trkpt><trkpt lat="36.984967210640185" lon="15.025834627105993"><ele>432.0</ele><time>2026-04-30T15:25:47Z</time></trkpt><trkpt lat="36.98488168467477" lon="15.025759580515098"><ele>433.0</ele><time>2026-04-30T15:25:48Z</time></trkpt><trkpt lat="36.98477672198339" lon="15.02567120067526"><ele>434.0</ele><time>2026-04-30T15:25:49Z</time></trkpt><trkpt lat="36.98465865331625" lon="15.025581970636699"><ele>434.0</ele><time>2026-04-30T15:25:50Z</time></trkpt><trkpt lat="36.98456099706619" lon="15.025482130858911"><ele>434.0</ele><time>2026-04-30T15:25:51Z</time></trkpt><trkpt lat="36.98446932898462" lon="15.02538245344677"><ele>434.0</ele><time>2026-04-30T15:25:52Z</time></trkpt><trkpt lat="36.98437963106482" lon="15.025283248029027"><ele>434.0</ele><time>2026-04-30T15:25:53Z</time></trkpt><trkpt lat="36.98425908296881" lon="15.025179576898717"><ele>434.25</ele><time>2026-04-30T15:25:54Z</time></trkpt><trkpt lat="36.98414276777239" lon="15.025071128834618"><ele>434.5</ele><time>2026-04-30T15:25:55Z</time></trkpt><trkpt lat="36.98402894313202" lon="15.024981381472479"><ele>434.75</ele><time>2026-04-30T15:25:56Z</time></trkpt><trkpt lat="36.98391986460786" lon="15.024896231528576"><ele>435.0</ele><time>2026-04-30T15:25:57Z</time></trkpt><trkpt lat="36.983807844719315" lon="15.024803509123364"><ele>435.0</ele><time>2026-04-30T15:25:58Z</time></trkpt><trkpt lat="36.98369763076617" lon="15.024721916326067"><ele>435.0</ele><time>2026-04-30T15:25:59Z</time></trkpt><trkpt lat="36.98359060248535" lon="15.024643336651549"><ele>435.0</ele><time>2026-04-30T15:26:00Z</time></trkpt><trkpt lat="36.98349565575565" lon="15.024568037288995"><ele>435.0</ele><time>2026-04-30T15:26:01Z</time></trkpt><trkpt lat="36.983399528874415" lon="15.024489064224001"><ele>436.0</ele><time>2026-04-30T15:26:02Z</time></trkpt><trkpt lat="36.98330480896802" lon="15.024414357127434"><ele>437.0</ele><time>2026-04-30T15:26:03Z</time></trkpt><trkpt lat="36.9832240921375" lon="15.02435548203227"><ele>438.0</ele><time>2026-04-30T15:26:04Z</time></trkpt><trkpt lat="36.98311942483178" lon="15.024277013410098"><ele>439.0</ele><time>2026-04-30T15:26:05Z</time></trkpt><trkpt lat="36.98300736953715" lon="15.024194125295828"><ele>439.75</ele><time>2026-04-30T15:26:06Z</time></trkpt><trkpt lat="36.98290597445528" lon="15.024123710793015"><ele>440.5</ele><time>2026-04-30T15:26:07Z</time></trkpt><trkpt lat="36.98280015030478" lon="15.024052393332914"><ele>441.25</ele><time>2026-04-30T15:26:08Z</time></trkpt><trkpt lat="36.98269465342349" lon="15.023994601095692"><ele>442.0</ele><time>2026-04-30T15:26:09Z</time></trkpt><trkpt lat="36.982585939112255" lon="15.023950646392114"><ele>441.6</ele><time>2026-04-30T15:26:10Z</time></trkpt><trkpt lat="36.982483556538725" lon="15.023908570170542"><ele>441.20000000000005</ele><time>2026-04-30T15:26:11Z</time></trkpt><trkpt lat="36.982375344630796" lon="15.023863683033449"><ele>440.8</ele><time>2026-04-30T15:26:12Z</time></trkpt><trkpt lat="36.98227540463443" lon="15.023822824125485"><ele>440.4</ele><time>2026-04-30T15:26:13Z</time></trkpt><trkpt lat="36.98217050715671" lon="15.023791024405297"><ele>440.0</ele><time>2026-04-30T15:26:14Z</time></trkpt><trkpt lat="36.982034348311245" lon="15.023768269940694"><ele>440.0</ele><time>2026-04-30T15:26:15Z</time></trkpt><trkpt lat="36.98190991050084" lon="15.023752208553791"><ele>440.0</ele><time>2026-04-30T15:26:16Z</time></trkpt><trkpt lat="36.981800777542944" lon="15.023755831646458"><ele>440.0</ele><time>2026-04-30T15:26:17Z</time></trkpt><trkpt lat="36.9816688508626" lon="15.023776376449938"><ele>440.0</ele><time>2026-04-30T15:26:18Z</time></trkpt><trkpt lat="36.9815878681798" lon="15.023763649605565"><ele>440.0</ele><time>2026-04-30T15:26:19Z</time></trkpt><trkpt lat="36.981483897489106" lon="15.02377112756544"><ele>441.75</ele><time>2026-04-30T15:26:20Z</time></trkpt><trkpt lat="36.98138560315911" lon="15.023744445055474"><ele>443.5</ele><time>2026-04-30T15:26:21Z</time></trkpt><trkpt lat="36.981267502628135" lon="15.023689389253162"><ele>445.25</ele><time>2026-04-30T15:26:22Z</time></trkpt><trkpt lat="36.98114230175045" lon="15.023635294806795"><ele>447.0</ele><time>2026-04-30T15:26:23Z</time></trkpt><trkpt lat="36.981052450753076" lon="15.02358392329326"><ele>447.0</ele><time>2026-04-30T15:26:24Z</time></trkpt><trkpt lat="36.980975385852275" lon="15.023519725250777"><ele>447.00000000000006</ele><time>2026-04-30T15:26:25Z</time></trkpt><trkpt lat="36.98090646470195" lon="15.023427174195696"><ele>447.00000000000006</ele><time>2026-04-30T15:26:26Z</time></trkpt><trkpt lat="36.98085114247236" lon="15.023370682663112"><ele>447.0</ele><time>2026-04-30T15:26:27Z</time></trkpt><trkpt lat="36.980746694184845" lon="15.02331770540149"><ele>447.0</ele><time>2026-04-30T15:26:29Z</time></trkpt><trkpt lat="36.980642266626326" lon="15.02333014325455"><ele>448.5</ele><time>2026-04-30T15:26:30Z</time></trkpt><trkpt lat="36.98055678157603" lon="15.023327430257691"><ele>450.0</ele><time>2026-04-30T15:26:31Z</time></trkpt><trkpt lat="36.98049222203855" lon="15.023287054535949"><ele>451.5</ele><time>2026-04-30T15:26:32Z</time></trkpt><trkpt lat="36.98042671435587" lon="15.023226280362287"><ele>453.0</ele><time>2026-04-30T15:26:33Z</time></trkpt><trkpt lat="36.98034718220919" lon="15.02314185613338"><ele>454.5</ele><time>2026-04-30T15:26:34Z</time></trkpt><trkpt lat="36.980265239438445" lon="15.023066642641982"><ele>456.0</ele><time>2026-04-30T15:26:35Z</time></trkpt><trkpt lat="36.98017992276872" lon="15.023010028945135"><ele>457.20000000000005</ele><time>2026-04-30T15:26:36Z</time></trkpt><trkpt lat="36.98007791100815" lon="15.022936902301389"><ele>458.40000000000003</ele><time>2026-04-30T15:26:37Z</time></trkpt><trkpt lat="36.979979585464186" lon="15.022884528613167"><ele>459.6</ele><time>2026-04-30T15:26:38Z</time></trkpt><trkpt lat="36.979888647664595" lon="15.022846451897873"><ele>460.8</ele><time>2026-04-30T15:26:39Z</time></trkpt><trkpt lat="36.97981443241248" lon="15.022812523725362"><ele>462.0</ele><time>2026-04-30T15:26:40Z</time></trkpt><trkpt lat="36.979760956875396" lon="15.022768752731459"><ele>463.0</ele><time>2026-04-30T15:26:41Z</time></trkpt><trkpt lat="36.97969339752731" lon="15.0226394510584"><ele>464.0</ele><time>2026-04-30T15:26:43.001Z</time></trkpt><trkpt lat="36.9796652038595" lon="15.022549659725124"><ele>465.0</ele><time>2026-04-30T15:26:44.001Z</time></trkpt><trkpt lat="36.97962709090032" lon="15.022474631905588"><ele>466.0</ele><time>2026-04-30T15:26:45.001Z</time></trkpt><trkpt lat="36.97956273831126" lon="15.022460404246797"><ele>467.0</ele><time>2026-04-30T15:27:59Z</time></trkpt><trkpt lat="36.97949149966274" lon="15.022413228285973"><ele>468.0</ele><time>2026-04-30T15:28:01Z</time></trkpt><trkpt lat="36.97943496397353" lon="15.022345171190944"><ele>467.75</ele><time>2026-04-30T15:28:03Z</time></trkpt><trkpt lat="36.979378716797726" lon="15.022278851274503"><ele>467.5</ele><time>2026-04-30T15:28:04Z</time></trkpt><trkpt lat="36.979298557567844" lon="15.022177282230606"><ele>467.25</ele><time>2026-04-30T15:28:05Z</time></trkpt><trkpt lat="36.97919153368256" lon="15.02203531140503"><ele>467.0</ele><time>2026-04-30T15:28:06Z</time></trkpt><trkpt lat="36.97907668260365" lon="15.021894079500253"><ele>467.0</ele><time>2026-04-30T15:28:07Z</time></trkpt><trkpt lat="36.97899719701281" lon="15.021784177846254"><ele>467.00000000000006</ele><time>2026-04-30T15:28:08Z</time></trkpt><trkpt lat="36.978936768763965" lon="15.021698452240454"><ele>467.00000000000006</ele><time>2026-04-30T15:28:09Z</time></trkpt><trkpt lat="36.978837912967656" lon="15.021593009944604"><ele>467.0</ele><time>2026-04-30T15:28:11Z</time></trkpt><trkpt lat="36.9787780930597" lon="15.021551202633713"><ele>467.0</ele><time>2026-04-30T15:28:12Z</time></trkpt><trkpt lat="36.97871274042317" lon="15.021456452462994"><ele>466.40000000000003</ele><time>2026-04-30T15:28:14Z</time></trkpt><trkpt lat="36.97862628904688" lon="15.021381758461407"><ele>465.80000000000007</ele><time>2026-04-30T15:28:16Z</time></trkpt><trkpt lat="36.978561667659875" lon="15.021316458364621"><ele>465.2</ele><time>2026-04-30T15:28:18Z</time></trkpt><trkpt lat="36.97849714736118" lon="15.021268288381048"><ele>464.6</ele><time>2026-04-30T15:28:20Z</time></trkpt><trkpt lat="36.97840450264045" lon="15.021201845005097"><ele>464.0</ele><time>2026-04-30T15:28:22Z</time></trkpt><trkpt lat="36.978306245812036" lon="15.02111811294897"><ele>463.49999999999994</ele><time>2026-04-30T15:28:24Z</time></trkpt><trkpt lat="36.978228596921376" lon="15.021073735137694"><ele>463.0</ele><time>2026-04-30T15:28:25Z</time></trkpt><trkpt lat="36.97815984223472" lon="15.02102230036439"><ele>462.5</ele><time>2026-04-30T15:28:26Z</time></trkpt><trkpt lat="36.9780938382882" lon="15.020967497989089"><ele>462.0</ele><time>2026-04-30T15:28:27Z</time></trkpt><trkpt lat="36.97801456279843" lon="15.020895980584857"><ele>461.49999999999994</ele><time>2026-04-30T15:28:28Z</time></trkpt><trkpt lat="36.977948224028324" lon="15.02082630736474"><ele>461.0</ele><time>2026-04-30T15:28:29Z</time></trkpt><trkpt lat="36.97786929530938" lon="15.02077580428415"><ele>460.8</ele><time>2026-04-30T15:28:30Z</time></trkpt><trkpt lat="36.97779041973733" lon="15.020705653874746"><ele>460.6</ele><time>2026-04-30T15:28:31Z</time></trkpt><trkpt lat="36.97771010246063" lon="15.020651669062405"><ele>460.4</ele><time>2026-04-30T15:28:32Z</time></trkpt><trkpt lat="36.97765338150907" lon="15.02059795467683"><ele>460.2</ele><time>2026-04-30T15:28:33Z</time></trkpt><trkpt lat="36.97758482657889" lon="15.020540480130652"><ele>460.0</ele><time>2026-04-30T15:28:35Z</time></trkpt><trkpt lat="36.97747243770941" lon="15.020513072707162"><ele>461.6</ele><time>2026-04-30T15:28:37Z</time></trkpt><trkpt lat="36.97739187070553" lon="15.020497941007626"><ele>463.2</ele><time>2026-04-30T15:28:38Z</time></trkpt><trkpt lat="36.977327048760515" lon="15.020497776074878"><ele>464.79999999999995</ele><time>2026-04-30T15:28:39Z</time></trkpt><trkpt lat="36.97719250658958" lon="15.020512376854798"><ele>466.4</ele><time>2026-04-30T15:28:41Z</time></trkpt><trkpt lat="36.97707793788597" lon="15.020515060996704"><ele>468.0</ele><time>2026-04-30T15:28:43Z</time></trkpt><trkpt lat="36.976996412191305" lon="15.020519963870333"><ele>468.0</ele><time>2026-04-30T15:28:44Z</time></trkpt><trkpt lat="36.97689147705015" lon="15.020522529289508"><ele>468.0</ele><time>2026-04-30T15:28:46Z</time></trkpt><trkpt lat="36.97683006546171" lon="15.020502794792405"><ele>468.0</ele><time>2026-04-30T15:28:47.001Z</time></trkpt><trkpt lat="36.97676823700392" lon="15.020478489040235"><ele>468.0</ele><time>2026-04-30T15:28:48.001Z</time></trkpt><trkpt lat="36.97668295978016" lon="15.020474453318466"><ele>468.0</ele><time>2026-04-30T15:28:50.001Z</time></trkpt><trkpt lat="36.976619048006846" lon="15.02046539178482"><ele>468.0</ele><time>2026-04-30T15:28:52.001Z</time></trkpt><trkpt lat="36.976539510734284" lon="15.020484619704703"><ele>469.0</ele><time>2026-04-30T15:28:56.001Z</time></trkpt><trkpt lat="36.976474077597665" lon="15.020468516929544"><ele>470.00000000000006</ele><time>2026-04-30T15:29:03.001Z</time></trkpt><trkpt lat="36.97639454864741" lon="15.020417473528305"><ele>471.0</ele><time>2026-04-30T15:29:07.001Z</time></trkpt><trkpt lat="36.97633107817107" lon="15.020391459876157"><ele>472.0</ele><time>2026-04-30T15:29:11.001Z</time></trkpt><trkpt lat="36.976289863205544" lon="15.020327232726904"><ele>473.00000000000006</ele><time>2026-04-30T15:29:16.001Z</time></trkpt><trkpt lat="36.97623994646939" lon="15.020273689275538"><ele>474.0</ele><time>2026-04-30T15:29:18.001Z</time></trkpt><trkpt lat="36.97619334249728" lon="15.020207377254543"><ele>475.0</ele><time>2026-04-30T15:29:21.001Z</time></trkpt><trkpt lat="36.97613180449935" lon="15.02017301661271"><ele>475.00000000000006</ele><time>2026-04-30T15:29:24.001Z</time></trkpt><trkpt lat="36.97606601886076" lon="15.020085495122784"><ele>475.0</ele><time>2026-04-30T15:29:28.001Z</time></trkpt><trkpt lat="36.97600635069989" lon="15.020060192959765"><ele>475.0</ele><time>2026-04-30T15:29:30.001Z</time></trkpt><trkpt lat="36.97594313016897" lon="15.0200023498908"><ele>475.0</ele><time>2026-04-30T15:29:33.001Z</time></trkpt><trkpt lat="36.97588638414747" lon="15.019915951481439"><ele>475.00000000000006</ele><time>2026-04-30T15:29:35.001Z</time></trkpt><trkpt lat="36.975849375944726" lon="15.01984639676988"><ele>475.0</ele><time>2026-04-30T15:29:37.001Z</time></trkpt><trkpt lat="36.97582099067373" lon="15.019735233281052"><ele>475.8571428571429</ele><time>2026-04-30T15:29:40.001Z</time></trkpt><trkpt lat="36.975776939358795" lon="15.019675251500965"><ele>476.7142857142858</ele><time>2026-04-30T15:29:42Z</time></trkpt><trkpt lat="36.97572586803618" lon="15.019603229930443"><ele>477.57142857142856</ele><time>2026-04-30T15:29:46Z</time></trkpt><trkpt lat="36.975680828972706" lon="15.019534424141032"><ele>478.42857142857144</ele><time>2026-04-30T15:29:49Z</time></trkpt><trkpt lat="36.97564735530249" lon="15.019442586602201"><ele>479.2857142857143</ele><time>2026-04-30T15:29:53Z</time></trkpt><trkpt lat="36.97561325679071" lon="15.019373015715143"><ele>480.1428571428571</ele><time>2026-04-30T15:29:57Z</time></trkpt><trkpt lat="36.97558887534738" lon="15.019293847254572"><ele>480.99999999999994</ele><time>2026-04-30T15:30:01Z</time></trkpt><trkpt lat="36.975537803126855" lon="15.019222883694441"><ele>481.00000000000006</ele><time>2026-04-30T15:30:04Z</time></trkpt><trkpt lat="36.97548785074148" lon="15.01916761901454"><ele>481.0</ele><time>2026-04-30T15:30:07Z</time></trkpt><trkpt lat="36.975428695883245" lon="15.01907348784989"><ele>481.0</ele><time>2026-04-30T15:30:10Z</time></trkpt><trkpt lat="36.975362477088545" lon="15.018993371294679"><ele>481.0</ele><time>2026-04-30T15:30:12Z</time></trkpt><trkpt lat="36.975299173835516" lon="15.018924810792056"><ele>481.00000000000006</ele><time>2026-04-30T15:30:15Z</time></trkpt><trkpt lat="36.975233069755745" lon="15.018851628476586"><ele>481.0</ele><time>2026-04-30T15:30:17Z</time></trkpt><trkpt lat="36.97518240570117" lon="15.018793459283078"><ele>480.99999999999994</ele><time>2026-04-30T15:30:19Z</time></trkpt><trkpt lat="36.97514766951048" lon="15.018717453335604"><ele>481.0</ele><time>2026-04-30T15:30:25Z</time></trkpt><trkpt lat="36.97508035620901" lon="15.018657608645938"><ele>480.99999999999994</ele><time>2026-04-30T15:30:28Z</time></trkpt><trkpt lat="36.9750139279693" lon="15.018592838892912"><ele>480.99999999999994</ele><time>2026-04-30T15:30:31Z</time></trkpt><trkpt lat="36.97495398245369" lon="15.01854135096861"><ele>481.0</ele><time>2026-04-30T15:30:34Z</time></trkpt><trkpt lat="36.97490791319275" lon="15.018483142499369"><ele>480.99999999999994</ele><time>2026-04-30T15:30:36Z</time></trkpt><trkpt lat="36.97485010706193" lon="15.018432996594974"><ele>480.99999999999994</ele><time>2026-04-30T15:30:38Z</time></trkpt><trkpt lat="36.97478613828205" lon="15.0183865908039"><ele>481.20000000000005</ele><time>2026-04-30T15:30:40Z</time></trkpt><trkpt lat="36.974685041314224" lon="15.018300069766948"><ele>481.40000000000003</ele><time>2026-04-30T15:30:42Z</time></trkpt><trkpt lat="36.97462159340497" lon="15.018242718477723"><ele>481.6</ele><time>2026-04-30T15:30:43Z</time></trkpt><trkpt lat="36.97455859045855" lon="15.018175036622647"><ele>481.8</ele><time>2026-04-30T15:30:44Z</time></trkpt><trkpt lat="36.97446792077728" lon="15.018082597208048"><ele>482.0</ele><time>2026-04-30T15:30:46.001Z</time></trkpt><trkpt lat="36.97440016532026" lon="15.018047497375273"><ele>482.0</ele><time>2026-04-30T15:30:47.001Z</time></trkpt><trkpt lat="36.9743293148377" lon="15.018011518344336"><ele>482.00000000000006</ele><time>2026-04-30T15:30:48.001Z</time></trkpt><trkpt lat="36.97427204895495" lon="15.017972250044032"><ele>482.0</ele><time>2026-04-30T15:30:49.001Z</time></trkpt><trkpt lat="36.97419613848923" lon="15.017944416509753"><ele>482.0</ele><time>2026-04-30T15:30:51.001Z</time></trkpt><trkpt lat="36.97413621386268" lon="15.017913396306394"><ele>482.00000000000006</ele><time>2026-04-30T15:30:54.001Z</time></trkpt><trkpt lat="36.974104955531864" lon="15.017833829426412"><ele>482.0</ele><time>2026-04-30T15:30:58.001Z</time></trkpt><trkpt lat="36.974050433476734" lon="15.017767891455186"><ele>482.0</ele><time>2026-04-30T15:31:00.001Z</time></trkpt><trkpt lat="36.97398647367143" lon="15.017711196818997"><ele>481.8333333333333</ele><time>2026-04-30T15:31:03.001Z</time></trkpt><trkpt lat="36.973934170499156" lon="15.01765627172855"><ele>481.66666666666663</ele><time>2026-04-30T15:31:06.001Z</time></trkpt><trkpt lat="36.97392374792003" lon="15.017560482335908"><ele>481.5</ele><time>2026-04-30T15:31:11.001Z</time></trkpt><trkpt lat="36.973856459309964" lon="15.017510186680171"><ele>481.33333333333337</ele><time>2026-04-30T15:31:13.001Z</time></trkpt><trkpt lat="36.97381345208701" lon="15.017404163094936"><ele>481.1666666666667</ele><time>2026-04-30T15:31:16.001Z</time></trkpt><trkpt lat="36.973786602801255" lon="15.017320358464474"><ele>481.0</ele><time>2026-04-30T15:31:18.001Z</time></trkpt><trkpt lat="36.9737315450248" lon="15.0172411126246"><ele>482.42857142857133</ele><time>2026-04-30T15:31:21.001Z</time></trkpt><trkpt lat="36.973696901251735" lon="15.017169573580563"><ele>483.85714285714283</ele><time>2026-04-30T15:31:23.001Z</time></trkpt><trkpt lat="36.97365427709967" lon="15.017074782475218"><ele>485.2857142857142</ele><time>2026-04-30T15:31:27.001Z</time></trkpt><trkpt lat="36.973609280555806" lon="15.016993899870334"><ele>486.71428571428567</ele><time>2026-04-30T15:31:30.001Z</time></trkpt><trkpt lat="36.97357405197335" lon="15.016908989885978"><ele>488.1428571428571</ele><time>2026-04-30T15:31:33.001Z</time></trkpt><trkpt lat="36.973528564621354" lon="15.01683861266572"><ele>489.57142857142856</ele><time>2026-04-30T15:31:35.001Z</time></trkpt><trkpt lat="36.97348950405302" lon="15.016774677406666"><ele>491.0</ele><time>2026-04-30T15:31:37.001Z</time></trkpt><trkpt lat="36.97344159161683" lon="15.016674662631758"><ele>490.3333333333333</ele><time>2026-04-30T15:31:40.001Z</time></trkpt><trkpt lat="36.97339849104404" lon="15.01656173520405"><ele>489.66666666666663</ele><time>2026-04-30T15:31:43.001Z</time></trkpt><trkpt lat="36.973359943285615" lon="15.016495805444688"><ele>489.0</ele><time>2026-04-30T15:31:45.001Z</time></trkpt><trkpt lat="36.97332024952508" lon="15.016411833173596"><ele>488.33333333333337</ele><time>2026-04-30T15:31:47Z</time></trkpt><trkpt lat="36.97328473939856" lon="15.01634218344447"><ele>487.6666666666667</ele><time>2026-04-30T15:31:49Z</time></trkpt><trkpt lat="36.97327662171563" lon="15.016255922799731"><ele>487.0</ele><time>2026-04-30T15:31:52Z</time></trkpt><trkpt lat="36.97321742522684" lon="15.016196270535705"><ele>487.0</ele><time>2026-04-30T15:31:56Z</time></trkpt><trkpt lat="36.97318863097804" lon="15.016120019913092"><ele>487.0</ele><time>2026-04-30T15:31:58Z</time></trkpt><trkpt lat="36.973173725676034" lon="15.016030574794495"><ele>487.0</ele><time>2026-04-30T15:32:01Z</time></trkpt><trkpt lat="36.973135661664074" lon="15.015935431112215"><ele>487.0</ele><time>2026-04-30T15:32:03Z</time></trkpt><trkpt lat="36.97309128918628" lon="15.015878024946556"><ele>487.0</ele><time>2026-04-30T15:32:05Z</time></trkpt><trkpt lat="36.973025659515756" lon="15.015819857729012"><ele>487.0</ele><time>2026-04-30T15:32:08Z</time></trkpt><trkpt lat="36.972960895851195" lon="15.015787695200352"><ele>487.0</ele><time>2026-04-30T15:32:10Z</time></trkpt><trkpt lat="36.972885044555966" lon="15.015736955768219"><ele>487.28571428571433</ele><time>2026-04-30T15:32:13Z</time></trkpt><trkpt lat="36.97281391537994" lon="15.015718942831693"><ele>487.57142857142856</ele><time>2026-04-30T15:32:17Z</time></trkpt><trkpt lat="36.97275555508206" lon="15.015662733091673"><ele>487.8571428571429</ele><time>2026-04-30T15:32:19Z</time></trkpt><trkpt lat="36.97269920079676" lon="15.015591126773446"><ele>488.14285714285717</ele><time>2026-04-30T15:32:22Z</time></trkpt><trkpt lat="36.97263770160285" lon="15.015531668094592"><ele>488.42857142857144</ele><time>2026-04-30T15:32:25Z</time></trkpt><trkpt lat="36.97258078959838" lon="15.015478760027019"><ele>488.7142857142857</ele><time>2026-04-30T15:32:28Z</time></trkpt><trkpt lat="36.97253710130036" lon="15.015418096955788"><ele>489.0</ele><time>2026-04-30T15:32:30Z</time></trkpt><trkpt lat="36.972495162613" lon="15.015338317896122"><ele>489.0</ele><time>2026-04-30T15:32:33Z</time></trkpt><trkpt lat="36.972414095764094" lon="15.015306123620208"><ele>489.0</ele><time>2026-04-30T15:32:37Z</time></trkpt><trkpt lat="36.97234168936881" lon="15.015273437534525"><ele>489.0</ele><time>2026-04-30T15:32:40Z</time></trkpt><trkpt lat="36.972274356475054" lon="15.015235219761022"><ele>489.0</ele><time>2026-04-30T15:32:44Z</time></trkpt><trkpt lat="36.97220024180799" lon="15.015200150657844"><ele>489.0</ele><time>2026-04-30T15:32:49Z</time></trkpt><trkpt lat="36.9721215152201" lon="15.01518148136867"><ele>489.0</ele><time>2026-04-30T15:32:52Z</time></trkpt><trkpt lat="36.97205952005855" lon="15.015156502794028"><ele>489.0</ele><time>2026-04-30T15:32:55Z</time></trkpt><trkpt lat="36.971985106943904" lon="15.015116357474941"><ele>489.00000000000006</ele><time>2026-04-30T15:32:58Z</time></trkpt><trkpt lat="36.97192364831997" lon="15.015077912821535"><ele>489.0</ele><time>2026-04-30T15:33:01.001Z</time></trkpt><trkpt lat="36.97186473837533" lon="15.015043064821498"><ele>489.0</ele><time>2026-04-30T15:33:04.001Z</time></trkpt><trkpt lat="36.97179733022944" lon="15.015025012850181"><ele>489.00000000000006</ele><time>2026-04-30T15:33:07.001Z</time></trkpt><trkpt lat="36.971713910697964" lon="15.014996557814005"><ele>489.0</ele><time>2026-04-30T15:33:10.001Z</time></trkpt><trkpt lat="36.97164109133419" lon="15.014968711562041"><ele>489.0</ele><time>2026-04-30T15:33:12.001Z</time></trkpt><trkpt lat="36.97155578385513" lon="15.014941406919782"><ele>488.79999999999995</ele><time>2026-04-30T15:33:15.001Z</time></trkpt><trkpt lat="36.97146342223544" lon="15.014903366402399"><ele>488.59999999999997</ele><time>2026-04-30T15:33:18.001Z</time></trkpt><trkpt lat="36.97133603221505" lon="15.014867267273702"><ele>488.4</ele><time>2026-04-30T15:33:20.001Z</time></trkpt><trkpt lat="36.9712451671309" lon="15.014843070597637"><ele>488.2</ele><time>2026-04-30T15:33:22.001Z</time></trkpt><trkpt lat="36.971156422179746" lon="15.014876783749493"><ele>488.0</ele><time>2026-04-30T15:33:24.001Z</time></trkpt><trkpt lat="36.97108595059974" lon="15.0148962305112"><ele>487.99999999999994</ele><time>2026-04-30T15:33:26.001Z</time></trkpt><trkpt lat="36.971020907902606" lon="15.014912127808646"><ele>488.0</ele><time>2026-04-30T15:33:28.001Z</time></trkpt><trkpt lat="36.970938147758936" lon="15.014896636276356"><ele>487.99999999999994</ele><time>2026-04-30T15:33:32.001Z</time></trkpt><trkpt lat="36.97087204784868" lon="15.014917449747818"><ele>487.99999999999994</ele><time>2026-04-30T15:33:35.001Z</time></trkpt><trkpt lat="36.97080456319927" lon="15.014916996229632"><ele>488.0</ele><time>2026-04-30T15:33:38.001Z</time></trkpt><trkpt lat="36.97073677261992" lon="15.014918491996827"><ele>487.99999999999994</ele><time>2026-04-30T15:33:43.001Z</time></trkpt><trkpt lat="36.970678877956914" lon="15.014952180889969"><ele>487.99999999999994</ele><time>2026-04-30T15:33:46.001Z</time></trkpt><trkpt lat="36.970621884619575" lon="15.01489584980397"><ele>489.4</ele><time>2026-04-30T15:33:57Z</time></trkpt><trkpt lat="36.97069476475558" lon="15.014810369816928"><ele>490.79999999999995</ele><time>2026-04-30T15:34:22Z</time></trkpt><trkpt lat="36.97078869920617" lon="15.0147404608277"><ele>492.2</ele><time>2026-04-30T15:34:24Z</time></trkpt><trkpt lat="36.97081871442358" lon="15.014613665576668"><ele>493.6</ele><time>2026-04-30T15:34:26Z</time></trkpt><trkpt lat="36.970719194132904" lon="15.014568006394493"><ele>495.0</ele><time>2026-04-30T15:34:28Z</time></trkpt><trkpt lat="36.970660428601676" lon="15.014603540129633"><ele>495.0</ele><time>2026-04-30T15:34:29Z</time></trkpt><trkpt lat="36.97060360577116" lon="15.014661899289647"><ele>495.0</ele><time>2026-04-30T15:34:30Z</time></trkpt><trkpt lat="36.970551862954075" lon="15.014721996699697"><ele>495.0</ele><time>2026-04-30T15:34:31Z</time></trkpt><trkpt lat="36.9704879352994" lon="15.014761039058644"><ele>495.0</ele><time>2026-04-30T15:34:32Z</time></trkpt><trkpt lat="36.97042129163044" lon="15.014809497782387"><ele>495.0</ele><time>2026-04-30T15:34:33Z</time></trkpt><trkpt lat="36.970344222186206" lon="15.014846759199038"><ele>495.0</ele><time>2026-04-30T15:34:34Z</time></trkpt><trkpt lat="36.970258077612705" lon="15.014884574188756"><ele>495.0</ele><time>2026-04-30T15:34:35Z</time></trkpt><trkpt lat="36.97016499850679" lon="15.014887165612054"><ele>495.0</ele><time>2026-04-30T15:34:36Z</time></trkpt><trkpt lat="36.97007470189082" lon="15.014890436810362"><ele>495.0</ele><time>2026-04-30T15:34:37Z</time></trkpt><trkpt lat="36.96997865354166" lon="15.014883808197744"><ele>495.0</ele><time>2026-04-30T15:34:38Z</time></trkpt><trkpt lat="36.969884336955715" lon="15.01485363868293"><ele>495.0</ele><time>2026-04-30T15:34:39Z</time></trkpt><trkpt lat="36.969803138422826" lon="15.014790592202164"><ele>495.0</ele><time>2026-04-30T15:34:40Z</time></trkpt><trkpt lat="36.96973069054623" lon="15.014696469422335"><ele>495.0</ele><time>2026-04-30T15:34:41Z</time></trkpt><trkpt lat="36.969662590722656" lon="15.014587283026321"><ele>495.0</ele><time>2026-04-30T15:34:42Z</time></trkpt><trkpt lat="36.96959283562945" lon="15.014466335533385"><ele>495.0</ele><time>2026-04-30T15:34:43Z</time></trkpt><trkpt lat="36.96953401329207" lon="15.014337361922907"><ele>495.0</ele><time>2026-04-30T15:34:44Z</time></trkpt><trkpt lat="36.96948827378562" lon="15.014199614374903"><ele>495.0</ele><time>2026-04-30T15:34:45Z</time></trkpt><trkpt lat="36.96944231808638" lon="15.014058970516924"><ele>495.0</ele><time>2026-04-30T15:34:46Z</time></trkpt><trkpt lat="36.96938687763093" lon="15.013925796563594"><ele>495.0</ele><time>2026-04-30T15:34:47Z</time></trkpt><trkpt lat="36.96931436900098" lon="15.01380256344948"><ele>494.75</ele><time>2026-04-30T15:34:48Z</time></trkpt><trkpt lat="36.96922934866702" lon="15.013695401147459"><ele>494.5</ele><time>2026-04-30T15:34:49Z</time></trkpt><trkpt lat="36.969128653527335" lon="15.013612034813056"><ele>494.25</ele><time>2026-04-30T15:34:50Z</time></trkpt><trkpt lat="36.969020532143254" lon="15.013536708218552"><ele>494.0</ele><time>2026-04-30T15:34:51Z</time></trkpt><trkpt lat="36.96891358978536" lon="15.013460431726243"><ele>494.0</ele><time>2026-04-30T15:34:52Z</time></trkpt><trkpt lat="36.96881932210194" lon="15.013376864702481"><ele>494.0</ele><time>2026-04-30T15:34:53Z</time></trkpt><trkpt lat="36.96872709059949" lon="15.013289792734907"><ele>494.0</ele><time>2026-04-30T15:34:54Z</time></trkpt><trkpt lat="36.96863966742526" lon="15.013190567166355"><ele>494.0</ele><time>2026-04-30T15:34:55Z</time></trkpt><trkpt lat="36.96855617057747" lon="15.013082847062766"><ele>493.5</ele><time>2026-04-30T15:34:56Z</time></trkpt><trkpt lat="36.96847486954044" lon="15.012963565188949"><ele>493.0</ele><time>2026-04-30T15:34:57Z</time></trkpt><trkpt lat="36.96839651600895" lon="15.012839724679237"><ele>492.5</ele><time>2026-04-30T15:34:58Z</time></trkpt><trkpt lat="36.968316083425805" lon="15.012720483820466"><ele>492.0</ele><time>2026-04-30T15:34:59Z</time></trkpt><trkpt lat="36.9682361060115" lon="15.01260025312981"><ele>492.75</ele><time>2026-04-30T15:35:00Z</time></trkpt><trkpt lat="36.96815525357971" lon="15.012474472416619"><ele>493.5</ele><time>2026-04-30T15:35:01Z</time></trkpt><trkpt lat="36.968073344839524" lon="15.012346701808925"><ele>494.25</ele><time>2026-04-30T15:35:02Z</time></trkpt><trkpt lat="36.96799037879089" lon="15.012221673191346"><ele>495.0</ele><time>2026-04-30T15:35:03Z</time></trkpt><trkpt lat="36.96791264844133" lon="15.012094416375357"><ele>495.0</ele><time>2026-04-30T15:35:04Z</time></trkpt><trkpt lat="36.96784096764765" lon="15.011966233868563"><ele>495.0</ele><time>2026-04-30T15:35:05Z</time></trkpt><trkpt lat="36.96778349563038" lon="15.011834581648122"><ele>495.0</ele><time>2026-04-30T15:35:06Z</time></trkpt><trkpt lat="36.96774746773141" lon="15.011709914341445"><ele>495.0</ele><time>2026-04-30T15:35:07Z</time></trkpt><trkpt lat="36.96772712730999" lon="15.011593374358064"><ele>495.0</ele><time>2026-04-30T15:35:08Z</time></trkpt><trkpt lat="36.967715982164364" lon="15.011480188189186"><ele>495.5</ele><time>2026-04-30T15:35:09Z</time></trkpt><trkpt lat="36.967709985223905" lon="15.011370326707437"><ele>496.0</ele><time>2026-04-30T15:35:10Z</time></trkpt><trkpt lat="36.967701505285305" lon="15.011266653824652"><ele>496.5</ele><time>2026-04-30T15:35:11Z</time></trkpt><trkpt lat="36.967691064115144" lon="15.011167422712454"><ele>497.0</ele><time>2026-04-30T15:35:12Z</time></trkpt><trkpt lat="36.96767962413923" lon="15.0110680067372"><ele>497.5</ele><time>2026-04-30T15:35:13Z</time></trkpt><trkpt lat="36.96765077426949" lon="15.010965089283319"><ele>498.0</ele><time>2026-04-30T15:35:14Z</time></trkpt><trkpt lat="36.96760379790549" lon="15.01085589179525"><ele>498.0</ele><time>2026-04-30T15:35:15.001Z</time></trkpt><trkpt lat="36.96753690889756" lon="15.010764943333166"><ele>497.99999999999994</ele><time>2026-04-30T15:35:16.001Z</time></trkpt><trkpt lat="36.96746582832538" lon="15.010707588771412"><ele>497.99999999999994</ele><time>2026-04-30T15:35:17.001Z</time></trkpt><trkpt lat="36.96740645493708" lon="15.010675535864355"><ele>498.0</ele><time>2026-04-30T15:35:18.001Z</time></trkpt><trkpt lat="36.967503564155436" lon="15.010457895125155"><ele>498.0</ele><time>2026-04-30T15:35:24.001Z</time></trkpt><trkpt lat="36.96756880281218" lon="15.010360108380102"><ele>498.0</ele><time>2026-04-30T15:35:26.001Z</time></trkpt><trkpt lat="36.967639929195784" lon="15.010254946424142"><ele>498.0</ele><time>2026-04-30T15:35:28.001Z</time></trkpt><trkpt lat="36.96771163832864" lon="15.010150717853087"><ele>498.0</ele><time>2026-04-30T15:35:30.001Z</time></trkpt><trkpt lat="36.967749623202984" lon="15.010082934267382"><ele>498.0</ele><time>2026-04-30T15:35:49.001Z</time></trkpt><trkpt lat="36.967805234543405" lon="15.009995507757685"><ele>498.0</ele><time>2026-04-30T15:35:51.001Z</time></trkpt><trkpt lat="36.96784325144188" lon="15.009916473261143"><ele>498.0</ele><time>2026-04-30T15:35:52.001Z</time></trkpt><trkpt lat="36.96791731349471" lon="15.009809144958178"><ele>498.0</ele><time>2026-04-30T15:35:53.001Z</time></trkpt><trkpt lat="36.96798720906839" lon="15.00970868465577"><ele>497.99999999999994</ele><time>2026-04-30T15:35:54.001Z</time></trkpt><trkpt lat="36.96804473997715" lon="15.009628847674678"><ele>497.99999999999994</ele><time>2026-04-30T15:35:55.001Z</time></trkpt><trkpt lat="36.96811227794734" lon="15.009542004281736"><ele>498.0</ele><time>2026-04-30T15:35:56.001Z</time></trkpt><trkpt lat="36.96818432348332" lon="15.009448191927373"><ele>498.0</ele><time>2026-04-30T15:35:57.001Z</time></trkpt><trkpt lat="36.96823289338555" lon="15.009378092810628"><ele>498.0</ele><time>2026-04-30T15:35:58.001Z</time></trkpt><trkpt lat="36.96827292230334" lon="15.009308258746572"><ele>497.99999999999994</ele><time>2026-04-30T15:35:59Z</time></trkpt><trkpt lat="36.968315994732826" lon="15.009225954374559"><ele>497.99999999999994</ele><time>2026-04-30T15:36:00Z</time></trkpt><trkpt lat="36.96838492679524" lon="15.009091822282763"><ele>498.0</ele><time>2026-04-30T15:36:02Z</time></trkpt><trkpt lat="36.968450766927745" lon="15.008920763182928"><ele>498.0</ele><time>2026-04-30T15:36:04Z</time></trkpt><trkpt lat="36.96848714913103" lon="15.008822515780324"><ele>498.85714285714283</ele><time>2026-04-30T15:36:05Z</time></trkpt><trkpt lat="36.96855114304244" lon="15.008764289697874"><ele>499.71428571428567</ele><time>2026-04-30T15:36:07Z</time></trkpt><trkpt lat="36.968594430790965" lon="15.00868072580091"><ele>500.57142857142856</ele><time>2026-04-30T15:36:09Z</time></trkpt><trkpt lat="36.96865347885736" lon="15.008609029380409"><ele>501.42857142857144</ele><time>2026-04-30T15:36:13Z</time></trkpt><trkpt lat="36.96870777914278" lon="15.008550770780127"><ele>502.2857142857143</ele><time>2026-04-30T15:36:16Z</time></trkpt><trkpt lat="36.968696447313846" lon="15.008472406510164"><ele>503.1428571428571</ele><time>2026-04-30T15:36:26Z</time></trkpt><trkpt lat="36.96872995831479" lon="15.008404534986502"><ele>504.0</ele><time>2026-04-30T15:36:34Z</time></trkpt><trkpt lat="36.96878713448101" lon="15.008336327544379"><ele>504.5</ele><time>2026-04-30T15:36:38Z</time></trkpt><trkpt lat="36.96884320890932" lon="15.008267484104872"><ele>505.0</ele><time>2026-04-30T15:36:41Z</time></trkpt><trkpt lat="36.96888936507397" lon="15.008196725974136"><ele>505.5</ele><time>2026-04-30T15:36:43Z</time></trkpt><trkpt lat="36.96892385345438" lon="15.008099006400291"><ele>506.0</ele><time>2026-04-30T15:36:46Z</time></trkpt><trkpt lat="36.968980344994435" lon="15.008036989271254"><ele>506.5</ele><time>2026-04-30T15:36:49Z</time></trkpt><trkpt lat="36.969038804199315" lon="15.007982765683034"><ele>507.0</ele><time>2026-04-30T15:36:51Z</time></trkpt><trkpt lat="36.969085463144175" lon="15.007901077903497"><ele>507.0</ele><time>2026-04-30T15:36:53Z</time></trkpt><trkpt lat="36.969128681098766" lon="15.007791879058386"><ele>507.0</ele><time>2026-04-30T15:36:56Z</time></trkpt><trkpt lat="36.96917822074178" lon="15.007708816693293"><ele>507.0</ele><time>2026-04-30T15:36:59Z</time></trkpt><trkpt lat="36.96922871281634" lon="15.007626247610919"><ele>507.0</ele><time>2026-04-30T15:37:02Z</time></trkpt><trkpt lat="36.96929841239922" lon="15.007550363711589"><ele>507.0</ele><time>2026-04-30T15:37:05Z</time></trkpt><trkpt lat="36.96934454156838" lon="15.007485135080746"><ele>507.0</ele><time>2026-04-30T15:37:07Z</time></trkpt><trkpt lat="36.96937659421249" lon="15.007372648496824"><ele>507.5</ele><time>2026-04-30T15:37:10Z</time></trkpt><trkpt lat="36.969402027758704" lon="15.007230278204027"><ele>508.0</ele><time>2026-04-30T15:37:12Z</time></trkpt><trkpt lat="36.96942317189288" lon="15.007132717368135"><ele>508.5</ele><time>2026-04-30T15:37:14Z</time></trkpt><trkpt lat="36.96944260669313" lon="15.007041680697434"><ele>509.0</ele><time>2026-04-30T15:37:16Z</time></trkpt><trkpt lat="36.96946420167963" lon="15.006937551335295"><ele>509.5</ele><time>2026-04-30T15:37:18.001Z</time></trkpt><trkpt lat="36.969473777401" lon="15.006835791265692"><ele>510.0</ele><time>2026-04-30T15:37:21.001Z</time></trkpt><trkpt lat="36.96950699360095" lon="15.00675959051688"><ele>510.5</ele><time>2026-04-30T15:37:23.001Z</time></trkpt><trkpt lat="36.9695323676264" lon="15.006653359108581"><ele>511.0</ele><time>2026-04-30T15:37:26.001Z</time></trkpt><trkpt lat="36.9695570257752" lon="15.00657231913844"><ele>511.5</ele><time>2026-04-30T15:37:29.001Z</time></trkpt><trkpt lat="36.96959100129784" lon="15.006499661963712"><ele>512.0</ele><time>2026-04-30T15:37:32.001Z</time></trkpt><trkpt lat="36.969605504908486" lon="15.006415575940991"><ele>512.5</ele><time>2026-04-30T15:37:35.001Z</time></trkpt><trkpt lat="36.969584137535264" lon="15.006330532200163"><ele>513.0</ele><time>2026-04-30T15:37:38.001Z</time></trkpt><trkpt lat="36.96960480651433" lon="15.006218684939904"><ele>513.0</ele><time>2026-04-30T15:37:41.001Z</time></trkpt><trkpt lat="36.96960726525337" lon="15.006125502865748"><ele>513.0</ele><time>2026-04-30T15:37:44.001Z</time></trkpt><trkpt lat="36.96956985709613" lon="15.006016908432663"><ele>513.0</ele><time>2026-04-30T15:37:47.001Z</time></trkpt><trkpt lat="36.9695687222577" lon="15.005916305125519"><ele>513.0</ele><time>2026-04-30T15:37:50.001Z</time></trkpt><trkpt lat="36.96954034630897" lon="15.005842214561596"><ele>513.0</ele><time>2026-04-30T15:37:52.001Z</time></trkpt><trkpt lat="36.969487610622764" lon="15.005762637488683"><ele>513.0</ele><time>2026-04-30T15:37:55.001Z</time></trkpt><trkpt lat="36.96944834966379" lon="15.00569811620623"><ele>512.5714285714287</ele><time>2026-04-30T15:37:57.001Z</time></trkpt><trkpt lat="36.96941844170514" lon="15.00561894171228"><ele>512.1428571428571</ele><time>2026-04-30T15:38:00.001Z</time></trkpt><trkpt lat="36.96938377968383" lon="15.005535009539862"><ele>511.7142857142858</ele><time>2026-04-30T15:38:02.001Z</time></trkpt><trkpt lat="36.96937998929927" lon="15.00543557055781"><ele>511.28571428571433</ele><time>2026-04-30T15:38:05Z</time></trkpt><trkpt lat="36.9693518994708" lon="15.005337074697902"><ele>510.8571428571429</ele><time>2026-04-30T15:38:09Z</time></trkpt><trkpt lat="36.969348979656694" lon="15.005256464255284"><ele>510.42857142857144</ele><time>2026-04-30T15:38:17Z</time></trkpt><trkpt lat="36.96931711673706" lon="15.005180843472845"><ele>510.0</ele><time>2026-04-30T15:38:21Z</time></trkpt><trkpt lat="36.96927530921457" lon="15.00510448916514"><ele>510.0</ele><time>2026-04-30T15:38:24Z</time></trkpt><trkpt lat="36.96921820445385" lon="15.005040312637394"><ele>510.00000000000006</ele><time>2026-04-30T15:38:28Z</time></trkpt><trkpt lat="36.9691432947708" lon="15.005000565825187"><ele>510.0</ele><time>2026-04-30T15:38:31Z</time></trkpt><trkpt lat="36.96908522223687" lon="15.004957736330411"><ele>510.0</ele><time>2026-04-30T15:38:49Z</time></trkpt><trkpt lat="36.96903634849173" lon="15.004907435373516"><ele>510.00000000000006</ele><time>2026-04-30T15:38:53Z</time></trkpt><trkpt lat="36.96898099119852" lon="15.004860961201498"><ele>510.0</ele><time>2026-04-30T15:38:57Z</time></trkpt><trkpt lat="36.96891297165953" lon="15.00484715441371"><ele>510.0</ele><time>2026-04-30T15:39:05Z</time></trkpt><trkpt lat="36.96884662124367" lon="15.004819785163495"><ele>511.7142857142857</ele><time>2026-04-30T15:39:08Z</time></trkpt><trkpt lat="36.96878457447764" lon="15.00480598440645"><ele>513.4285714285714</ele><time>2026-04-30T15:39:12.001Z</time></trkpt><trkpt lat="36.96871951233845" lon="15.0047677459257"><ele>515.1428571428571</ele><time>2026-04-30T15:39:20.001Z</time></trkpt><trkpt lat="36.96865116146215" lon="15.004746074112239"><ele>516.8571428571429</ele><time>2026-04-30T15:39:28.001Z</time></trkpt><trkpt lat="36.96859763078172" lon="15.004701273642763"><ele>518.5714285714286</ele><time>2026-04-30T15:39:31.001Z</time></trkpt><trkpt lat="36.96852035849929" lon="15.004671445897607"><ele>520.2857142857143</ele><time>2026-04-30T15:39:34.001Z</time></trkpt><trkpt lat="36.96845178223476" lon="15.004653285423592"><ele>522.0</ele><time>2026-04-30T15:39:37.001Z</time></trkpt><trkpt lat="36.96837948233365" lon="15.004622170566037"><ele>521.8333333333334</ele><time>2026-04-30T15:39:39.001Z</time></trkpt><trkpt lat="36.968297887581365" lon="15.004609139193752"><ele>521.6666666666666</ele><time>2026-04-30T15:39:41.001Z</time></trkpt><trkpt lat="36.96820899145109" lon="15.00455852931189"><ele>521.5</ele><time>2026-04-30T15:39:44.001Z</time></trkpt><trkpt lat="36.96814258366502" lon="15.00454323317546"><ele>521.3333333333333</ele><time>2026-04-30T15:39:46.001Z</time></trkpt><trkpt lat="36.96806002537222" lon="15.004498601317657"><ele>521.1666666666666</ele><time>2026-04-30T15:39:49.001Z</time></trkpt><trkpt lat="36.9679891699534" lon="15.004456304498195"><ele>521.0</ele><time>2026-04-30T15:40:04.001Z</time></trkpt><trkpt lat="36.96792382686571" lon="15.004446819593777"><ele>521.0</ele><time>2026-04-30T15:40:11Z</time></trkpt><trkpt lat="36.96785109178693" lon="15.00446110069942"><ele>521.0</ele><time>2026-04-30T15:40:15Z</time></trkpt><trkpt lat="36.96777927628893" lon="15.004438656122296"><ele>521.0</ele><time>2026-04-30T15:40:18Z</time></trkpt><trkpt lat="36.96771039092822" lon="15.004408371576158"><ele>521.0</ele><time>2026-04-30T15:40:20Z</time></trkpt><trkpt lat="36.96763511847486" lon="15.004365540449003"><ele>521.0</ele><time>2026-04-30T15:40:23Z</time></trkpt><trkpt lat="36.96754431338958" lon="15.004313641304135"><ele>521.0</ele><time>2026-04-30T15:40:26Z</time></trkpt><trkpt lat="36.96748506556092" lon="15.004271073215882"><ele>521.6666666666666</ele><time>2026-04-30T15:40:28Z</time></trkpt><trkpt lat="36.96742627297933" lon="15.004224194778628"><ele>522.3333333333333</ele><time>2026-04-30T15:40:31Z</time></trkpt><trkpt lat="36.9673566492641" lon="15.004215686997867"><ele>523.0</ele><time>2026-04-30T15:40:34Z</time></trkpt><trkpt lat="36.967273275568964" lon="15.004219626967991"><ele>523.6666666666666</ele><time>2026-04-30T15:40:38Z</time></trkpt><trkpt lat="36.96721672991761" lon="15.004146939389086"><ele>524.3333333333334</ele><time>2026-04-30T15:40:55Z</time></trkpt><trkpt lat="36.96714796965244" lon="15.004173869365763"><ele>525.0</ele><time>2026-04-30T15:41:01Z</time></trkpt><trkpt lat="36.96707160783285" lon="15.004255425499508"><ele>525.0</ele><time>2026-04-30T15:41:08Z</time></trkpt><trkpt lat="36.967011274357574" lon="15.004346429232022"><ele>525.0</ele><time>2026-04-30T15:41:10Z</time></trkpt><trkpt lat="36.96697095642532" lon="15.004459412227204"><ele>525.0</ele><time>2026-04-30T15:41:12Z</time></trkpt><trkpt lat="36.96693044626391" lon="15.004567915206849"><ele>525.0</ele><time>2026-04-30T15:41:14Z</time></trkpt><trkpt lat="36.96689618514869" lon="15.004652923792355"><ele>525.0</ele><time>2026-04-30T15:41:16Z</time></trkpt><trkpt lat="36.96685262336326" lon="15.004736277403108"><ele>525.0</ele><time>2026-04-30T15:41:18Z</time></trkpt><trkpt lat="36.96681897282277" lon="15.004807858423762"><ele>525.0</ele><time>2026-04-30T15:41:20.001Z</time></trkpt><trkpt lat="36.96678009803681" lon="15.004879731684582"><ele>525.0</ele><time>2026-04-30T15:41:22.001Z</time></trkpt><trkpt lat="36.96672972234803" lon="15.004959120071405"><ele>525.0</ele><time>2026-04-30T15:41:25.001Z</time></trkpt><trkpt lat="36.96663862415644" lon="15.00498053683785"><ele>525.0</ele><time>2026-04-30T15:41:28.001Z</time></trkpt><trkpt lat="36.966533452643205" lon="15.004937140680006"><ele>525.0</ele><time>2026-04-30T15:41:30.001Z</time></trkpt><trkpt lat="36.96641040782615" lon="15.004916376133249"><ele>525.8</ele><time>2026-04-30T15:41:32.001Z</time></trkpt><trkpt lat="36.966320765801626" lon="15.004861700393453"><ele>526.6</ele><time>2026-04-30T15:41:34.001Z</time></trkpt><trkpt lat="36.96622060037569" lon="15.004780539551565"><ele>527.4</ele><time>2026-04-30T15:41:36.001Z</time></trkpt><trkpt lat="36.96616188919078" lon="15.004748845231733"><ele>528.2</ele><time>2026-04-30T15:41:37.001Z</time></trkpt><trkpt lat="36.96604973672733" lon="15.004758398965745"><ele>529.0</ele><time>2026-04-30T15:41:39.001Z</time></trkpt><trkpt lat="36.9659799737354" lon="15.004786421776759"><ele>529.0</ele><time>2026-04-30T15:41:40.001Z</time></trkpt><trkpt lat="36.965911063343604" lon="15.004783827412771"><ele>529.0</ele><time>2026-04-30T15:41:41.001Z</time></trkpt><trkpt lat="36.96584880732475" lon="15.004796306501964"><ele>529.0</ele><time>2026-04-30T15:41:42.001Z</time></trkpt><trkpt lat="36.965744192180026" lon="15.004827950274018"><ele>529.0</ele><time>2026-04-30T15:41:44.001Z</time></trkpt><trkpt lat="36.96567572091014" lon="15.004821190983845"><ele>529.0</ele><time>2026-04-30T15:41:45.001Z</time></trkpt><trkpt lat="36.96560677434958" lon="15.004807032105548"><ele>529.0</ele><time>2026-04-30T15:41:46.001Z</time></trkpt><trkpt lat="36.96553914343881" lon="15.00479100916651"><ele>529.0</ele><time>2026-04-30T15:41:47.001Z</time></trkpt><trkpt lat="36.96546722187726" lon="15.004784675623846"><ele>528.6666666666667</ele><time>2026-04-30T15:41:48.001Z</time></trkpt><trkpt lat="36.965392988237916" lon="15.004775450083647"><ele>528.3333333333334</ele><time>2026-04-30T15:41:49.001Z</time></trkpt><trkpt lat="36.965321774576964" lon="15.00475455431476"><ele>528.0</ele><time>2026-04-30T15:41:50.001Z</time></trkpt><trkpt lat="36.965246263244595" lon="15.004723093511956"><ele>527.6666666666666</ele><time>2026-04-30T15:41:51.001Z</time></trkpt><trkpt lat="36.96514103571769" lon="15.004649760523769"><ele>527.3333333333333</ele><time>2026-04-30T15:41:53.001Z</time></trkpt><trkpt lat="36.965074852110675" lon="15.004606996093518"><ele>527.0</ele><time>2026-04-30T15:41:54.001Z</time></trkpt><trkpt lat="36.96499990533642" lon="15.004551965410917"><ele>526.5</ele><time>2026-04-30T15:41:55.001Z</time></trkpt><trkpt lat="36.96494055777739" lon="15.00451087183047"><ele>526.0</ele><time>2026-04-30T15:41:56.001Z</time></trkpt><trkpt lat="36.96488637749623" lon="15.004470297927801"><ele>525.5</ele><time>2026-04-30T15:41:57.001Z</time></trkpt><trkpt lat="36.964833652703696" lon="15.004426193162885"><ele>525.0</ele><time>2026-04-30T15:41:58.001Z</time></trkpt><trkpt lat="36.964741161729755" lon="15.004337791582518"><ele>524.5</ele><time>2026-04-30T15:42:00.001Z</time></trkpt><trkpt lat="36.96467505793219" lon="15.004259970461298"><ele>524.0</ele><time>2026-04-30T15:42:02.001Z</time></trkpt><trkpt lat="36.96460357287631" lon="15.004194662292218"><ele>524.4</ele><time>2026-04-30T15:42:04.001Z</time></trkpt><trkpt lat="36.964537405767246" lon="15.004137631558278"><ele>524.8</ele><time>2026-04-30T15:42:07.001Z</time></trkpt><trkpt lat="36.964586136188075" lon="15.003996837310797"><ele>525.2</ele><time>2026-04-30T15:42:08.001Z</time></trkpt><trkpt lat="36.96460665270772" lon="15.003890240341457"><ele>525.6</ele><time>2026-04-30T15:42:09.001Z</time></trkpt><trkpt lat="36.96459837619819" lon="15.003760501606294"><ele>526.0</ele><time>2026-04-30T15:42:10.001Z</time></trkpt><trkpt lat="36.96457016491953" lon="15.003632457998092"><ele>526.0</ele><time>2026-04-30T15:42:11.001Z</time></trkpt><trkpt lat="36.9645200076945" lon="15.003497239136603"><ele>526.0</ele><time>2026-04-30T15:42:12.001Z</time></trkpt><trkpt lat="36.964443417057474" lon="15.00336472010546"><ele>526.0</ele><time>2026-04-30T15:42:13.001Z</time></trkpt><trkpt lat="36.96435901040447" lon="15.00323363216788"><ele>526.0</ele><time>2026-04-30T15:42:14.001Z</time></trkpt><trkpt lat="36.964278236200805" lon="15.003090013676118"><ele>526.25</ele><time>2026-04-30T15:42:15.001Z</time></trkpt><trkpt lat="36.96420165878761" lon="15.002936825793936"><ele>526.5</ele><time>2026-04-30T15:42:16.001Z</time></trkpt><trkpt lat="36.96412637378962" lon="15.002780702611318"><ele>526.75</ele><time>2026-04-30T15:42:17Z</time></trkpt><trkpt lat="36.96404748150949" lon="15.002624098585315"><ele>527.0</ele><time>2026-04-30T15:42:18Z</time></trkpt><trkpt lat="36.963970098609096" lon="15.002484099551138"><ele>527.75</ele><time>2026-04-30T15:42:19Z</time></trkpt><trkpt lat="36.96389616770817" lon="15.0023505020016"><ele>528.5</ele><time>2026-04-30T15:42:20Z</time></trkpt><trkpt lat="36.963836457625284" lon="15.00223253172936"><ele>529.25</ele><time>2026-04-30T15:42:21Z</time></trkpt><trkpt lat="36.96380985907979" lon="15.002109502786672"><ele>530.0</ele><time>2026-04-30T15:42:22Z</time></trkpt><trkpt lat="36.963796500463644" lon="15.001969875448978"><ele>530.0</ele><time>2026-04-30T15:42:23Z</time></trkpt><trkpt lat="36.963778719628145" lon="15.001816429369466"><ele>530.0</ele><time>2026-04-30T15:42:24Z</time></trkpt><trkpt lat="36.96375513041612" lon="15.00165068441041"><ele>530.0</ele><time>2026-04-30T15:42:25Z</time></trkpt><trkpt lat="36.96371635584856" lon="15.001484997612513"><ele>530.0</ele><time>2026-04-30T15:42:26Z</time></trkpt><trkpt lat="36.96365598228927" lon="15.00132355914819"><ele>531.0</ele><time>2026-04-30T15:42:27Z</time></trkpt><trkpt lat="36.96357539291321" lon="15.001176675606434"><ele>532.0</ele><time>2026-04-30T15:42:28Z</time></trkpt><trkpt lat="36.96348408817716" lon="15.00103885304612"><ele>533.0</ele><time>2026-04-30T15:42:29Z</time></trkpt><trkpt lat="36.963385810625006" lon="15.00091263224036"><ele>534.0</ele><time>2026-04-30T15:42:30Z</time></trkpt><trkpt lat="36.96329085413406" lon="15.000785145237542"><ele>534.25</ele><time>2026-04-30T15:42:31Z</time></trkpt><trkpt lat="36.96319484831095" lon="15.000661533459734"><ele>534.5</ele><time>2026-04-30T15:42:32Z</time></trkpt><trkpt lat="36.96309561469504" lon="15.00054199656247"><ele>534.75</ele><time>2026-04-30T15:42:33Z</time></trkpt><trkpt lat="36.96300270778931" lon="15.000419599914895"><ele>535.0</ele><time>2026-04-30T15:42:34Z</time></trkpt><trkpt lat="36.962918207105304" lon="15.00028770954404"><ele>535.0</ele><time>2026-04-30T15:42:35Z</time></trkpt><trkpt lat="36.96284811814963" lon="15.000137687880526"><ele>535.0</ele><time>2026-04-30T15:42:36Z</time></trkpt><trkpt lat="36.96279206491535" lon="14.999975919940546"><ele>535.0</ele><time>2026-04-30T15:42:37Z</time></trkpt><trkpt lat="36.96273716735062" lon="14.999812922790401"><ele>535.0</ele><time>2026-04-30T15:42:38Z</time></trkpt><trkpt lat="36.96267073504562" lon="14.99964748287955"><ele>535.0</ele><time>2026-04-30T15:42:39Z</time></trkpt><trkpt lat="36.96260131258062" lon="14.999483302641753"><ele>535.0</ele><time>2026-04-30T15:42:40Z</time></trkpt><trkpt lat="36.962528925133256" lon="14.999323505870269"><ele>535.0</ele><time>2026-04-30T15:42:41Z</time></trkpt><trkpt lat="36.962460553546656" lon="14.999170133765322"><ele>535.0</ele><time>2026-04-30T15:42:42Z</time></trkpt><trkpt lat="36.962379428776465" lon="14.99903852790227"><ele>534.0</ele><time>2026-04-30T15:42:43Z</time></trkpt><trkpt lat="36.9622674854279" lon="14.998907558340557"><ele>533.0</ele><time>2026-04-30T15:42:44Z</time></trkpt><trkpt lat="36.962148059588166" lon="14.998776654543898"><ele>532.0</ele><time>2026-04-30T15:42:45Z</time></trkpt><trkpt lat="36.96203450243011" lon="14.998657396689536"><ele>532.0</ele><time>2026-04-30T15:42:46Z</time></trkpt><trkpt lat="36.96193002687931" lon="14.998546875541855"><ele>532.0</ele><time>2026-04-30T15:42:47Z</time></trkpt><trkpt lat="36.961840370648666" lon="14.998440754141303"><ele>532.0</ele><time>2026-04-30T15:42:48Z</time></trkpt><trkpt lat="36.961760093202344" lon="14.998343799378466"><ele>532.0</ele><time>2026-04-30T15:42:49Z</time></trkpt><trkpt lat="36.96165765760329" lon="14.99827392436586"><ele>532.4</ele><time>2026-04-30T15:42:50Z</time></trkpt><trkpt lat="36.961536180240394" lon="14.99824667564883"><ele>532.8000000000001</ele><time>2026-04-30T15:42:51Z</time></trkpt><trkpt lat="36.96142792893537" lon="14.998258460178882"><ele>533.2</ele><time>2026-04-30T15:42:52Z</time></trkpt><trkpt lat="36.96135237202055" lon="14.998250612058008"><ele>533.6</ele><time>2026-04-30T15:42:53Z</time></trkpt><trkpt lat="36.961297162126456" lon="14.998199192612972"><ele>534.0</ele><time>2026-04-30T15:42:54Z</time></trkpt><trkpt lat="36.96124000569613" lon="14.998103030145343"><ele>534.0</ele><time>2026-04-30T15:42:55Z</time></trkpt><trkpt lat="36.96117090654152" lon="14.99798056192569"><ele>534.0</ele><time>2026-04-30T15:42:56Z</time></trkpt><trkpt lat="36.961094896813634" lon="14.997844515211854"><ele>534.0</ele><time>2026-04-30T15:42:57Z</time></trkpt><trkpt lat="36.961016704785905" lon="14.997689841175719"><ele>534.0</ele><time>2026-04-30T15:42:58Z</time></trkpt><trkpt lat="36.960927753127635" lon="14.997533549957286"><ele>534.5</ele><time>2026-04-30T15:42:59Z</time></trkpt><trkpt lat="36.96084356172264" lon="14.99739205222227"><ele>535.0</ele><time>2026-04-30T15:43:00Z</time></trkpt><trkpt lat="36.96076793370788" lon="14.997265372775434"><ele>535.5</ele><time>2026-04-30T15:43:01Z</time></trkpt><trkpt lat="36.96068876823052" lon="14.997132545816758"><ele>536.0</ele><time>2026-04-30T15:43:02Z</time></trkpt><trkpt lat="36.96060640046656" lon="14.99699974861503"><ele>536.0</ele><time>2026-04-30T15:43:03Z</time></trkpt><trkpt lat="36.96052615999077" lon="14.996861583900609"><ele>536.0</ele><time>2026-04-30T15:43:04Z</time></trkpt><trkpt lat="36.960442965597366" lon="14.996725044209033"><ele>536.0</ele><time>2026-04-30T15:43:05Z</time></trkpt><trkpt lat="36.960352817020286" lon="14.996590853092828"><ele>536.0</ele><time>2026-04-30T15:43:06Z</time></trkpt><trkpt lat="36.96025599142037" lon="14.996449001702587"><ele>536.25</ele><time>2026-04-30T15:43:07Z</time></trkpt><trkpt lat="36.96016229938631" lon="14.996307180422692"><ele>536.5</ele><time>2026-04-30T15:43:08Z</time></trkpt><trkpt lat="36.96006988030518" lon="14.996173528317025"><ele>536.75</ele><time>2026-04-30T15:43:09Z</time></trkpt><trkpt lat="36.95998492324646" lon="14.996028114063016"><ele>537.0</ele><time>2026-04-30T15:43:10Z</time></trkpt><trkpt lat="36.95990905953991" lon="14.995874089205149"><ele>540.0</ele><time>2026-04-30T15:43:11Z</time></trkpt><trkpt lat="36.9598372098562" lon="14.995706066841613"><ele>543.0</ele><time>2026-04-30T15:43:12Z</time></trkpt><trkpt lat="36.959778151284716" lon="14.995531009255261"><ele>546.0</ele><time>2026-04-30T15:43:13Z</time></trkpt><trkpt lat="36.959733460920184" lon="14.995345685383162"><ele>546.0</ele><time>2026-04-30T15:43:14Z</time></trkpt><trkpt lat="36.95969666583342" lon="14.99515869998186"><ele>546.0</ele><time>2026-04-30T15:43:15Z</time></trkpt><trkpt lat="36.959654624914506" lon="14.99496601780804"><ele>546.0</ele><time>2026-04-30T15:43:16Z</time></trkpt><trkpt lat="36.95961817373533" lon="14.994796089454741"><ele>546.5</ele><time>2026-04-30T15:43:17Z</time></trkpt><trkpt lat="36.95958707488362" lon="14.994632801130862"><ele>547.0</ele><time>2026-04-30T15:43:18Z</time></trkpt><trkpt lat="36.959567940000674" lon="14.994461685591569"><ele>547.5</ele><time>2026-04-30T15:43:19Z</time></trkpt><trkpt lat="36.95955649356292" lon="14.99428201573396"><ele>548.0</ele><time>2026-04-30T15:43:20Z</time></trkpt><trkpt lat="36.959546628206084" lon="14.994091967527687"><ele>549.0</ele><time>2026-04-30T15:43:21Z</time></trkpt><trkpt lat="36.95953640489719" lon="14.99389410876038"><ele>550.0</ele><time>2026-04-30T15:43:22Z</time></trkpt><trkpt lat="36.95953028898946" lon="14.993685641440395"><ele>551.0</ele><time>2026-04-30T15:43:23Z</time></trkpt><trkpt lat="36.95952459116545" lon="14.993498525510915"><ele>551.75</ele><time>2026-04-30T15:43:24Z</time></trkpt><trkpt lat="36.95951741673333" lon="14.993328013755178"><ele>552.5</ele><time>2026-04-30T15:43:25.001Z</time></trkpt><trkpt lat="36.9595082100418" lon="14.993170133323881"><ele>553.25</ele><time>2026-04-30T15:43:26.001Z</time></trkpt><trkpt lat="36.95949138824067" lon="14.993028475113746"><ele>554.0</ele><time>2026-04-30T15:43:27.001Z</time></trkpt><trkpt lat="36.959460664907155" lon="14.992903256189582"><ele>554.0</ele><time>2026-04-30T15:43:28.001Z</time></trkpt><trkpt lat="36.959407073097054" lon="14.99278936495976"><ele>554.0</ele><time>2026-04-30T15:43:29.001Z</time></trkpt><trkpt lat="36.95933333437423" lon="14.992674552456705"><ele>554.0</ele><time>2026-04-30T15:43:30.001Z</time></trkpt><trkpt lat="36.959247005953635" lon="14.992551884531172"><ele>554.0</ele><time>2026-04-30T15:43:31.001Z</time></trkpt><trkpt lat="36.959171843595215" lon="14.992423499402065"><ele>552.75</ele><time>2026-04-30T15:43:32.001Z</time></trkpt><trkpt lat="36.95911991810328" lon="14.992298409906706"><ele>551.5</ele><time>2026-04-30T15:43:33.001Z</time></trkpt><trkpt lat="36.959084813519894" lon="14.992165197434428"><ele>550.25</ele><time>2026-04-30T15:43:34.001Z</time></trkpt><trkpt lat="36.95905390392188" lon="14.992023113910118"><ele>549.0</ele><time>2026-04-30T15:43:35.001Z</time></trkpt><trkpt lat="36.95904392004498" lon="14.991881331204807"><ele>549.0</ele><time>2026-04-30T15:43:36.001Z</time></trkpt><trkpt lat="36.959055632890255" lon="14.991739320381283"><ele>549.0</ele><time>2026-04-30T15:43:37.001Z</time></trkpt><trkpt lat="36.95907898079671" lon="14.991579074138688"><ele>549.0</ele><time>2026-04-30T15:43:38.001Z</time></trkpt><trkpt lat="36.95911316336877" lon="14.991410679204957"><ele>549.0</ele><time>2026-04-30T15:43:39.001Z</time></trkpt><trkpt lat="36.95916547934376" lon="14.991239293523156"><ele>550.0</ele><time>2026-04-30T15:43:40.001Z</time></trkpt><trkpt lat="36.95922476561596" lon="14.991054770039375"><ele>551.0</ele><time>2026-04-30T15:43:41.001Z</time></trkpt><trkpt lat="36.95928380159062" lon="14.990870456430033"><ele>552.0</ele><time>2026-04-30T15:43:42.001Z</time></trkpt><trkpt lat="36.95932969537582" lon="14.99067397396552"><ele>552.5</ele><time>2026-04-30T15:43:43.001Z</time></trkpt><trkpt lat="36.95932606693265" lon="14.99049264730288"><ele>553.0</ele><time>2026-04-30T15:43:44.001Z</time></trkpt><trkpt lat="36.959317079137584" lon="14.990320971163047"><ele>553.5</ele><time>2026-04-30T15:43:45.001Z</time></trkpt><trkpt lat="36.95929643724079" lon="14.990139730116866"><ele>554.0</ele><time>2026-04-30T15:43:46.001Z</time></trkpt><trkpt lat="36.9592432418035" lon="14.989946140195395"><ele>555.0</ele><time>2026-04-30T15:43:47.001Z</time></trkpt><trkpt lat="36.95916772962624" lon="14.989720048139962"><ele>556.0</ele><time>2026-04-30T15:43:48.001Z</time></trkpt><trkpt lat="36.95910339108003" lon="14.989519637418544"><ele>557.0</ele><time>2026-04-30T15:43:49.001Z</time></trkpt><trkpt lat="36.95905390182979" lon="14.989342575391905"><ele>557.0</ele><time>2026-04-30T15:43:50.001Z</time></trkpt><trkpt lat="36.959015411333645" lon="14.989176414774057"><ele>557.0</ele><time>2026-04-30T15:43:51.001Z</time></trkpt><trkpt lat="36.958978440396294" lon="14.989004638676462"><ele>557.0</ele><time>2026-04-30T15:43:52.001Z</time></trkpt><trkpt lat="36.95894899881488" lon="14.988826048143748"><ele>557.0</ele><time>2026-04-30T15:43:53.001Z</time></trkpt><trkpt lat="36.958931871847895" lon="14.988641179696181"><ele>558.3333333333333</ele><time>2026-04-30T15:43:54.001Z</time></trkpt><trkpt lat="36.9589211275649" lon="14.988433495485067"><ele>559.6666666666666</ele><time>2026-04-30T15:43:55.001Z</time></trkpt><trkpt lat="36.958925090649984" lon="14.988205754217779"><ele>561.0</ele><time>2026-04-30T15:43:56.001Z</time></trkpt><trkpt lat="36.958938483408524" lon="14.987966258000169"><ele>561.6666666666666</ele><time>2026-04-30T15:43:57.001Z</time></trkpt><trkpt lat="36.9589461597967" lon="14.987713516876383"><ele>562.3333333333333</ele><time>2026-04-30T15:43:58.001Z</time></trkpt><trkpt lat="36.958935274670644" lon="14.987478059403523"><ele>563.0</ele><time>2026-04-30T15:43:59.001Z</time></trkpt><trkpt lat="36.9589215528434" lon="14.987222697395366"><ele>563.0</ele><time>2026-04-30T15:44:00.001Z</time></trkpt><trkpt lat="36.95890476271946" lon="14.986975837890249"><ele>563.0</ele><time>2026-04-30T15:44:01.001Z</time></trkpt><trkpt lat="36.958871064765795" lon="14.9867478532191"><ele>563.0</ele><time>2026-04-30T15:44:02.001Z</time></trkpt><trkpt lat="36.95883649805834" lon="14.986537957890867"><ele>564.6666666666666</ele><time>2026-04-30T15:44:03.001Z</time></trkpt><trkpt lat="36.95882262515594" lon="14.986346020917455"><ele>566.3333333333334</ele><time>2026-04-30T15:44:04.001Z</time></trkpt><trkpt lat="36.95883344476591" lon="14.986148399093976"><ele>568.0</ele><time>2026-04-30T15:44:05.001Z</time></trkpt><trkpt lat="36.9588709887607" lon="14.9859337423663"><ele>569.3333333333334</ele><time>2026-04-30T15:44:06.001Z</time></trkpt><trkpt lat="36.95892856825651" lon="14.9856981349678"><ele>570.6666666666666</ele><time>2026-04-30T15:44:07.001Z</time></trkpt><trkpt lat="36.95897889655145" lon="14.985467010309709"><ele>572.0</ele><time>2026-04-30T15:44:08.001Z</time></trkpt><trkpt lat="36.95902382729249" lon="14.985228548694547"><ele>572.3333333333333</ele><time>2026-04-30T15:44:09.001Z</time></trkpt><trkpt lat="36.95906462374883" lon="14.984992949213575"><ele>572.6666666666666</ele><time>2026-04-30T15:44:10.001Z</time></trkpt><trkpt lat="36.95908902316701" lon="14.984779509924115"><ele>573.0</ele><time>2026-04-30T15:44:11.001Z</time></trkpt><trkpt lat="36.959107881577864" lon="14.984574565667087"><ele>573.0</ele><time>2026-04-30T15:44:12.001Z</time></trkpt><trkpt lat="36.95910075493245" lon="14.984388797628469"><ele>573.0</ele><time>2026-04-30T15:44:13.001Z</time></trkpt><trkpt lat="36.95907757611883" lon="14.984218545042989"><ele>573.0</ele><time>2026-04-30T15:44:14.001Z</time></trkpt><trkpt lat="36.95907028267031" lon="14.984076180432524"><ele>573.0</ele><time>2026-04-30T15:44:15.001Z</time></trkpt><trkpt lat="36.95909651432917" lon="14.983950111962034"><ele>573.0</ele><time>2026-04-30T15:44:16.001Z</time></trkpt><trkpt lat="36.95914929871386" lon="14.983814505471111"><ele>573.0</ele><time>2026-04-30T15:44:17.001Z</time></trkpt><trkpt lat="36.95921208629221" lon="14.983658283995291"><ele>573.0</ele><time>2026-04-30T15:44:18.001Z</time></trkpt><trkpt lat="36.959280493785194" lon="14.983488403535462"><ele>573.0</ele><time>2026-04-30T15:44:19.001Z</time></trkpt><trkpt lat="36.95935118276758" lon="14.983305090131267"><ele>574.3333333333334</ele><time>2026-04-30T15:44:20.001Z</time></trkpt><trkpt lat="36.95942414751763" lon="14.983115783546346"><ele>575.6666666666667</ele><time>2026-04-30T15:44:21.001Z</time></trkpt><trkpt lat="36.959500485930626" lon="14.9829199928031"><ele>577.0</ele><time>2026-04-30T15:44:22.001Z</time></trkpt><trkpt lat="36.95957545371402" lon="14.982730369922495"><ele>577.0</ele><time>2026-04-30T15:44:23Z</time></trkpt><trkpt lat="36.95964919216851" lon="14.982562742968245"><ele>577.0</ele><time>2026-04-30T15:44:24Z</time></trkpt><trkpt lat="36.95972585488241" lon="14.982373685147746"><ele>577.0</ele><time>2026-04-30T15:44:25Z</time></trkpt><trkpt lat="36.959823554890136" lon="14.982186760721204"><ele>577.0</ele><time>2026-04-30T15:44:26Z</time></trkpt><trkpt lat="36.959933489780084" lon="14.9820123565061"><ele>577.0</ele><time>2026-04-30T15:44:27Z</time></trkpt><trkpt lat="36.960045867303236" lon="14.981845547913336"><ele>577.0</ele><time>2026-04-30T15:44:28Z</time></trkpt><trkpt lat="36.960143135647805" lon="14.981691573833551"><ele>578.75</ele><time>2026-04-30T15:44:29Z</time></trkpt><trkpt lat="36.960217650914785" lon="14.981549519750537"><ele>580.5</ele><time>2026-04-30T15:44:30Z</time></trkpt><trkpt lat="36.960272763536494" lon="14.981394423223094"><ele>582.25</ele><time>2026-04-30T15:44:31Z</time></trkpt><trkpt lat="36.96030748152235" lon="14.981229682398414"><ele>584.0</ele><time>2026-04-30T15:44:32Z</time></trkpt><trkpt lat="36.960354661167464" lon="14.981080429281166"><ele>584.0</ele><time>2026-04-30T15:44:33Z</time></trkpt><trkpt lat="36.96043610622122" lon="14.980946877799774"><ele>584.0</ele><time>2026-04-30T15:44:34Z</time></trkpt><trkpt lat="36.96054534638622" lon="14.980800061774236"><ele>584.0</ele><time>2026-04-30T15:44:35Z</time></trkpt><trkpt lat="36.960655712170336" lon="14.980634461224865"><ele>584.6666666666666</ele><time>2026-04-30T15:44:36Z</time></trkpt><trkpt lat="36.96076259987997" lon="14.98046815643389"><ele>585.3333333333334</ele><time>2026-04-30T15:44:37Z</time></trkpt><trkpt lat="36.96086178399301" lon="14.98031808517827"><ele>586.0</ele><time>2026-04-30T15:44:38Z</time></trkpt><trkpt lat="36.96095149749143" lon="14.980185159611041"><ele>586.0</ele><time>2026-04-30T15:44:39Z</time></trkpt><trkpt lat="36.96102591926064" lon="14.980055606513377"><ele>586.0</ele><time>2026-04-30T15:44:40Z</time></trkpt><trkpt lat="36.9610831610215" lon="14.979904715929822"><ele>586.0</ele><time>2026-04-30T15:44:41Z</time></trkpt><trkpt lat="36.96112508385736" lon="14.979726408317884"><ele>586.0</ele><time>2026-04-30T15:44:42Z</time></trkpt><trkpt lat="36.96116257157623" lon="14.979519403963732"><ele>586.0</ele><time>2026-04-30T15:44:43Z</time></trkpt><trkpt lat="36.961201640611364" lon="14.979301981499736"><ele>586.0</ele><time>2026-04-30T15:44:44Z</time></trkpt><trkpt lat="36.961248544404874" lon="14.979062644457821"><ele>586.0</ele><time>2026-04-30T15:44:45Z</time></trkpt><trkpt lat="36.96129862894774" lon="14.97881867037598"><ele>586.0</ele><time>2026-04-30T15:44:46Z</time></trkpt><trkpt lat="36.961340777639364" lon="14.978595206546377"><ele>586.0</ele><time>2026-04-30T15:44:47Z</time></trkpt><trkpt lat="36.96137823884002" lon="14.978402884493025"><ele>586.0</ele><time>2026-04-30T15:44:48Z</time></trkpt><trkpt lat="36.96140871963404" lon="14.978229286530858"><ele>586.75</ele><time>2026-04-30T15:44:49Z</time></trkpt><trkpt lat="36.961446946205825" lon="14.978062340873263"><ele>587.5</ele><time>2026-04-30T15:44:50Z</time></trkpt><trkpt lat="36.961489664539016" lon="14.977902656288117"><ele>588.25</ele><time>2026-04-30T15:44:51Z</time></trkpt><trkpt lat="36.96154218216468" lon="14.977754396449537"><ele>589.0</ele><time>2026-04-30T15:44:52Z</time></trkpt><trkpt lat="36.96160208723355" lon="14.977611528281768"><ele>589.5</ele><time>2026-04-30T15:44:53Z</time></trkpt><trkpt lat="36.96166794053002" lon="14.977473232774344"><ele>590.0</ele><time>2026-04-30T15:44:54Z</time></trkpt><trkpt lat="36.96173114021563" lon="14.977326474449775"><ele>590.5</ele><time>2026-04-30T15:44:55Z</time></trkpt><trkpt lat="36.961794357988715" lon="14.977167510432661"><ele>591.0</ele><time>2026-04-30T15:44:56Z</time></trkpt><trkpt lat="36.96186600512418" lon="14.977005645119112"><ele>591.0</ele><time>2026-04-30T15:44:57Z</time></trkpt><trkpt lat="36.96194339524465" lon="14.976831856980702"><ele>591.0</ele><time>2026-04-30T15:44:58Z</time></trkpt><trkpt lat="36.962014258095365" lon="14.976663255098407"><ele>591.0</ele><time>2026-04-30T15:44:59Z</time></trkpt><trkpt lat="36.962080536414256" lon="14.976506125995359"><ele>591.0</ele><time>2026-04-30T15:45:00Z</time></trkpt><trkpt lat="36.96214419034385" lon="14.976347476578715"><ele>591.0</ele><time>2026-04-30T15:45:01Z</time></trkpt><trkpt lat="36.962205956838986" lon="14.976187522423277"><ele>591.0</ele><time>2026-04-30T15:45:02Z</time></trkpt><trkpt lat="36.96226333705898" lon="14.976040842402957"><ele>591.0</ele><time>2026-04-30T15:45:03Z</time></trkpt><trkpt lat="36.96231617377941" lon="14.975909094736021"><ele>591.0</ele><time>2026-04-30T15:45:04Z</time></trkpt><trkpt lat="36.96235678086024" lon="14.97578172011125"><ele>591.0</ele><time>2026-04-30T15:45:05Z</time></trkpt><trkpt lat="36.962390063937704" lon="14.975655714981452"><ele>591.0</ele><time>2026-04-30T15:45:06Z</time></trkpt><trkpt lat="36.96241662873507" lon="14.975534450594461"><ele>591.0</ele><time>2026-04-30T15:45:07Z</time></trkpt><trkpt lat="36.96244638474055" lon="14.975429883512321"><ele>591.0</ele><time>2026-04-30T15:45:08Z</time></trkpt><trkpt lat="36.96246179020566" lon="14.975323860164442"><ele>591.0</ele><time>2026-04-30T15:45:09Z</time></trkpt><trkpt lat="36.96246606926068" lon="14.975209690164851"><ele>591.0</ele><time>2026-04-30T15:45:10Z</time></trkpt><trkpt lat="36.96247445254125" lon="14.97509904272853"><ele>591.0</ele><time>2026-04-30T15:45:11Z</time></trkpt><trkpt lat="36.96248420192097" lon="14.974987140315669"><ele>591.0</ele><time>2026-04-30T15:45:12Z</time></trkpt><trkpt lat="36.96249276636504" lon="14.974885464602709"><ele>591.0</ele><time>2026-04-30T15:45:13Z</time></trkpt><trkpt lat="36.962499269813584" lon="14.974788635177296"><ele>591.0</ele><time>2026-04-30T15:45:14Z</time></trkpt><trkpt lat="36.96250587100343" lon="14.974709826843709"><ele>591.1666666666666</ele><time>2026-04-30T15:45:15Z</time></trkpt><trkpt lat="36.96252626291547" lon="14.974618491632068"><ele>591.3333333333334</ele><time>2026-04-30T15:45:17Z</time></trkpt><trkpt lat="36.96252846550895" lon="14.974532392416412"><ele>591.5</ele><time>2026-04-30T15:46:05.001Z</time></trkpt><trkpt lat="36.962537164983985" lon="14.9746159267556"><ele>591.6666666666667</ele><time>2026-04-30T15:46:24.001Z</time></trkpt><trkpt lat="36.962637389185765" lon="14.97459910560989"><ele>591.8333333333334</ele><time>2026-04-30T15:46:53Z</time></trkpt><trkpt lat="36.962755527516606" lon="14.974513652566989"><ele>592.0</ele><time>2026-04-30T15:47:08Z</time></trkpt><trkpt lat="36.96271088990688" lon="14.974583984958816"><ele>592.0</ele><time>2026-04-30T15:47:15Z</time></trkpt><trkpt lat="36.962722585085295" lon="14.974488166530051"><ele>592.0</ele><time>2026-04-30T15:47:20Z</time></trkpt><trkpt lat="36.96269063390889" lon="14.97456654441153"><ele>592.0</ele><time>2026-04-30T15:47:21Z</time></trkpt><trkpt lat="36.96261445462532" lon="14.97460636390943"><ele>592.0</ele><time>2026-04-30T15:47:24Z</time></trkpt><trkpt lat="36.96251569215935" lon="14.974481448213437"><ele>592.0</ele><time>2026-04-30T16:00:45Z</time></trkpt><trkpt lat="36.96257531113745" lon="14.974425090930694"><ele>592.0</ele><time>2026-04-30T16:00:46Z</time></trkpt><trkpt lat="36.96275636951646" lon="14.974453456097985"><ele>592.0</ele><time>2026-04-30T16:00:59.001Z</time></trkpt><trkpt lat="36.96255185179143" lon="14.974615853293772"><ele>592.0</ele><time>2026-04-30T16:01:06.001Z</time></trkpt><trkpt lat="36.96276139617018" lon="14.974180973290125"><ele>592.0</ele><time>2026-04-30T16:01:10Z</time></trkpt><trkpt lat="36.96258607034245" lon="14.974483174074265"><ele>592.0</ele><time>2026-04-30T16:01:14Z</time></trkpt><trkpt lat="36.96250677353632" lon="14.974567658751841"><ele>592.0</ele><time>2026-04-30T16:01:28Z</time></trkpt><trkpt lat="36.96252224146716" lon="14.974433282087743"><ele>592.4</ele><time>2026-04-30T16:04:00Z</time></trkpt><trkpt lat="36.96252926262621" lon="14.97428650202962"><ele>592.8000000000001</ele><time>2026-04-30T16:04:02Z</time></trkpt><trkpt lat="36.9624918504797" lon="14.974203322755095"><ele>593.2</ele><time>2026-04-30T16:04:04Z</time></trkpt><trkpt lat="36.962372824778214" lon="14.97418545711955"><ele>593.6</ele><time>2026-04-30T16:04:06Z</time></trkpt><trkpt lat="36.96230247995484" lon="14.97418655152237"><ele>594.0</ele><time>2026-04-30T16:04:07Z</time></trkpt><trkpt lat="36.962227866159616" lon="14.974177378332737"><ele>594.2</ele><time>2026-04-30T16:04:08Z</time></trkpt><trkpt lat="36.96213951529881" lon="14.974162796142082"><ele>594.4</ele><time>2026-04-30T16:04:09Z</time></trkpt><trkpt lat="36.96204981828013" lon="14.974130952829398"><ele>594.6</ele><time>2026-04-30T16:04:10Z</time></trkpt><trkpt lat="36.96196259801486" lon="14.974120763180954"><ele>594.8</ele><time>2026-04-30T16:04:11Z</time></trkpt><trkpt lat="36.96187039259569" lon="14.974132110330329"><ele>595.0</ele><time>2026-04-30T16:04:12Z</time></trkpt><trkpt lat="36.96178141278426" lon="14.974139619896468"><ele>594.8</ele><time>2026-04-30T16:04:13Z</time></trkpt><trkpt lat="36.96169044594387" lon="14.974155954144448"><ele>594.6</ele><time>2026-04-30T16:04:14Z</time></trkpt><trkpt lat="36.96159839476296" lon="14.974200073753815"><ele>594.4</ele><time>2026-04-30T16:04:15Z</time></trkpt><trkpt lat="36.96150910956482" lon="14.974252317669558"><ele>594.2</ele><time>2026-04-30T16:04:16Z</time></trkpt><trkpt lat="36.96143438167287" lon="14.974297356685193"><ele>594.0</ele><time>2026-04-30T16:04:17Z</time></trkpt><trkpt lat="36.96136010448165" lon="14.974342124032336"><ele>593.6666666666666</ele><time>2026-04-30T16:04:18Z</time></trkpt><trkpt lat="36.96128669976133" lon="14.974385622176198"><ele>593.3333333333334</ele><time>2026-04-30T16:04:19Z</time></trkpt><trkpt lat="36.96122322287241" lon="14.974423167282476"><ele>593.0</ele><time>2026-04-30T16:04:20Z</time></trkpt><trkpt lat="36.9611448110763" lon="14.974469546617625"><ele>592.6666666666667</ele><time>2026-04-30T16:04:22Z</time></trkpt><trkpt lat="36.96104784887907" lon="14.974483935236348"><ele>592.3333333333334</ele><time>2026-04-30T16:04:25Z</time></trkpt><trkpt lat="36.960994951232266" lon="14.974431705531865"><ele>592.0</ele><time>2026-04-30T16:04:26Z</time></trkpt><trkpt lat="36.960934488466535" lon="14.974397107797472"><ele>592.4</ele><time>2026-04-30T16:04:27Z</time></trkpt><trkpt lat="36.960813491383625" lon="14.974358123719462"><ele>592.8000000000001</ele><time>2026-04-30T16:04:29Z</time></trkpt><trkpt lat="36.96074480596697" lon="14.974327624100798"><ele>593.2</ele><time>2026-04-30T16:04:30Z</time></trkpt><trkpt lat="36.960673223397706" lon="14.97428456664719"><ele>593.6</ele><time>2026-04-30T16:04:31Z</time></trkpt><trkpt lat="36.960594818669556" lon="14.97423095114904"><ele>594.0</ele><time>2026-04-30T16:04:32Z</time></trkpt><trkpt lat="36.96051253209312" lon="14.97417585647932"><ele>594.0</ele><time>2026-04-30T16:04:33Z</time></trkpt><trkpt lat="36.96042947336236" lon="14.974120929881645"><ele>594.0</ele><time>2026-04-30T16:04:34Z</time></trkpt><trkpt lat="36.960346826212366" lon="14.974064571957356"><ele>594.0</ele><time>2026-04-30T16:04:35Z</time></trkpt><trkpt lat="36.960262772178794" lon="14.974004515011114"><ele>594.0</ele><time>2026-04-30T16:04:36Z</time></trkpt><trkpt lat="36.96016707211857" lon="14.973946691028944"><ele>594.0</ele><time>2026-04-30T16:04:37Z</time></trkpt><trkpt lat="36.96007139832424" lon="14.973883849527054"><ele>593.25</ele><time>2026-04-30T16:04:38Z</time></trkpt><trkpt lat="36.95997217594361" lon="14.973827070013995"><ele>592.5</ele><time>2026-04-30T16:04:39Z</time></trkpt><trkpt lat="36.95987128214007" lon="14.973763576038001"><ele>591.75</ele><time>2026-04-30T16:04:40Z</time></trkpt><trkpt lat="36.95977022959238" lon="14.97369578769592"><ele>591.0</ele><time>2026-04-30T16:04:41Z</time></trkpt><trkpt lat="36.959669544282505" lon="14.973626475154294"><ele>591.0</ele><time>2026-04-30T16:04:42Z</time></trkpt><trkpt lat="36.959565508199915" lon="14.973562426428835"><ele>591.0</ele><time>2026-04-30T16:04:43Z</time></trkpt><trkpt lat="36.959473167989934" lon="14.973509853417603"><ele>591.0</ele><time>2026-04-30T16:04:44Z</time></trkpt><trkpt lat="36.95939201320049" lon="14.973462162425559"><ele>591.0</ele><time>2026-04-30T16:04:45Z</time></trkpt><trkpt lat="36.95929946062968" lon="14.973405207556718"><ele>591.0</ele><time>2026-04-30T16:04:46Z</time></trkpt><trkpt lat="36.959201777440065" lon="14.973344765267568"><ele>592.75</ele><time>2026-04-30T16:04:47Z</time></trkpt><trkpt lat="36.95910024978889" lon="14.97326994720525"><ele>594.5</ele><time>2026-04-30T16:04:48Z</time></trkpt><trkpt lat="36.95900483979601" lon="14.973183316784816"><ele>596.25</ele><time>2026-04-30T16:04:49Z</time></trkpt><trkpt lat="36.95890755474236" lon="14.973099606102014"><ele>598.0</ele><time>2026-04-30T16:04:50Z</time></trkpt><trkpt lat="36.958808293061274" lon="14.97301517726651"><ele>598.0</ele><time>2026-04-30T16:04:51Z</time></trkpt><trkpt lat="36.95870982393244" lon="14.972931777452324"><ele>598.0</ele><time>2026-04-30T16:04:52Z</time></trkpt><trkpt lat="36.958615727715525" lon="14.972852419484104"><ele>598.0</ele><time>2026-04-30T16:04:53Z</time></trkpt><trkpt lat="36.95851831100784" lon="14.972773931072144"><ele>598.0</ele><time>2026-04-30T16:04:54Z</time></trkpt><trkpt lat="36.95842518980928" lon="14.972697735878354"><ele>597.75</ele><time>2026-04-30T16:04:55Z</time></trkpt><trkpt lat="36.95833330389287" lon="14.972617801079682"><ele>597.5</ele><time>2026-04-30T16:04:56Z</time></trkpt><trkpt lat="36.95824074195268" lon="14.97252810825926"><ele>597.25</ele><time>2026-04-30T16:04:57Z</time></trkpt><trkpt lat="36.95815210127074" lon="14.972437634668523"><ele>597.0</ele><time>2026-04-30T16:04:58Z</time></trkpt><trkpt lat="36.95806414728497" lon="14.97236038501553"><ele>597.3333333333334</ele><time>2026-04-30T16:04:59Z</time></trkpt><trkpt lat="36.95798544364156" lon="14.97230042099522"><ele>597.6666666666666</ele><time>2026-04-30T16:05:00Z</time></trkpt><trkpt lat="36.95792064277113" lon="14.97224875814375"><ele>598.0</ele><time>2026-04-30T16:05:01Z</time></trkpt><trkpt lat="36.95785482488003" lon="14.972225549431073"><ele>598.3333333333333</ele><time>2026-04-30T16:05:02Z</time></trkpt><trkpt lat="36.95778767994545" lon="14.97224148079387"><ele>598.6666666666666</ele><time>2026-04-30T16:05:03Z</time></trkpt><trkpt lat="36.95769480819515" lon="14.972231928719356"><ele>599.0</ele><time>2026-04-30T16:05:04Z</time></trkpt><trkpt lat="36.95759813465761" lon="14.972221933085871"><ele>599.0</ele><time>2026-04-30T16:05:05Z</time></trkpt><trkpt lat="36.95749288865907" lon="14.972210183183673"><ele>599.0</ele><time>2026-04-30T16:05:06Z</time></trkpt><trkpt lat="36.95740019419805" lon="14.972195555113352"><ele>599.0</ele><time>2026-04-30T16:05:07Z</time></trkpt><trkpt lat="36.95731245361155" lon="14.972172110377402"><ele>599.0</ele><time>2026-04-30T16:05:08Z</time></trkpt><trkpt lat="36.95721651722337" lon="14.972142003739044"><ele>599.0</ele><time>2026-04-30T16:05:09Z</time></trkpt><trkpt lat="36.9571159060946" lon="14.97207684576285"><ele>599.0</ele><time>2026-04-30T16:05:10Z</time></trkpt><trkpt lat="36.95702740631339" lon="14.972012280655228"><ele>599.0</ele><time>2026-04-30T16:05:11Z</time></trkpt><trkpt lat="36.95695199447986" lon="14.971948532828797"><ele>599.0</ele><time>2026-04-30T16:05:12Z</time></trkpt><trkpt lat="36.95688960279384" lon="14.971892790295557"><ele>599.0</ele><time>2026-04-30T16:05:13Z</time></trkpt><trkpt lat="36.95683247046921" lon="14.971847009244096"><ele>599.0</ele><time>2026-04-30T16:05:14Z</time></trkpt><trkpt lat="36.9567677171751" lon="14.97179852253768"><ele>599.0</ele><time>2026-04-30T16:05:15Z</time></trkpt><trkpt lat="36.956695168143234" lon="14.97174382984205"><ele>599.0</ele><time>2026-04-30T16:05:16Z</time></trkpt><trkpt lat="36.956616658505006" lon="14.971692556338892"><ele>599.0</ele><time>2026-04-30T16:05:17Z</time></trkpt><trkpt lat="36.95653988965174" lon="14.971641128912955"><ele>599.0</ele><time>2026-04-30T16:05:18Z</time></trkpt><trkpt lat="36.95647135188697" lon="14.971600071014832"><ele>599.0</ele><time>2026-04-30T16:05:19Z</time></trkpt><trkpt lat="36.95640795860479" lon="14.971564298784429"><ele>599.0</ele><time>2026-04-30T16:05:20Z</time></trkpt><trkpt lat="36.95631039155565" lon="14.971515668599926"><ele>599.0</ele><time>2026-04-30T16:05:21.999Z</time></trkpt><trkpt lat="36.95624950018344" lon="14.971484254663238"><ele>599.3333333333333</ele><time>2026-04-30T16:05:25.999Z</time></trkpt><trkpt lat="36.95618921260895" lon="14.971518605664528"><ele>599.6666666666666</ele><time>2026-04-30T16:05:31.999Z</time></trkpt><trkpt lat="36.956139896376996" lon="14.971467845069833"><ele>600.0</ele><time>2026-04-30T16:05:32.999Z</time></trkpt><trkpt lat="36.95606722099542" lon="14.971458055132455"><ele>600.3333333333334</ele><time>2026-04-30T16:05:35.999Z</time></trkpt><trkpt lat="36.95598584515492" lon="14.971447093158451"><ele>600.6666666666667</ele><time>2026-04-30T16:05:38.999Z</time></trkpt><trkpt lat="36.95594944166709" lon="14.971292549477491"><ele>601.0</ele><time>2026-04-30T16:05:40.999Z</time></trkpt><trkpt lat="36.95587638430089" lon="14.971237396969924"><ele>600.3333333333334</ele><time>2026-04-30T16:05:45Z</time></trkpt><trkpt lat="36.955811984813145" lon="14.971179122620857"><ele>599.6666666666667</ele><time>2026-04-30T16:05:48Z</time></trkpt><trkpt lat="36.95574475952563" lon="14.97115000794703"><ele>599.0</ele><time>2026-04-30T16:05:52Z</time></trkpt><trkpt lat="36.95570042488963" lon="14.97108701560233"><ele>598.3333333333334</ele><time>2026-04-30T16:05:57Z</time></trkpt><trkpt lat="36.9556379612781" lon="14.971013207704113"><ele>597.6666666666666</ele><time>2026-04-30T16:06:01Z</time></trkpt><trkpt lat="36.955581200341996" lon="14.970953683711235"><ele>597.0</ele><time>2026-04-30T16:06:05Z</time></trkpt><trkpt lat="36.95552559172646" lon="14.970887885463211"><ele>596.4285714285714</ele><time>2026-04-30T16:06:09Z</time></trkpt><trkpt lat="36.955461092467786" lon="14.970838663974352"><ele>595.8571428571429</ele><time>2026-04-30T16:06:13Z</time></trkpt><trkpt lat="36.95540089771837" lon="14.970793127604853"><ele>595.2857142857142</ele><time>2026-04-30T16:06:17Z</time></trkpt><trkpt lat="36.9553463930381" lon="14.97075277657362"><ele>594.7142857142858</ele><time>2026-04-30T16:06:20Z</time></trkpt><trkpt lat="36.95528823481429" lon="14.97072213029348"><ele>594.1428571428571</ele><time>2026-04-30T16:06:25Z</time></trkpt><trkpt lat="36.95523048701986" lon="14.970684824315198"><ele>593.5714285714286</ele><time>2026-04-30T16:06:30Z</time></trkpt><trkpt lat="36.95516601477433" lon="14.970673012295233"><ele>593.0</ele><time>2026-04-30T16:06:34Z</time></trkpt><trkpt lat="36.95507559512738" lon="14.970682962978529"><ele>592.1666666666666</ele><time>2026-04-30T16:06:38Z</time></trkpt><trkpt lat="36.954991064996264" lon="14.970687950842585"><ele>591.3333333333333</ele><time>2026-04-30T16:06:42Z</time></trkpt><trkpt lat="36.95489960658781" lon="14.970698912402423"><ele>590.5</ele><time>2026-04-30T16:06:45Z</time></trkpt><trkpt lat="36.954837544362604" lon="14.970658542387895"><ele>589.6666666666666</ele><time>2026-04-30T16:06:49Z</time></trkpt><trkpt lat="36.954785130343204" lon="14.97061125596784"><ele>588.8333333333334</ele><time>2026-04-30T16:06:53Z</time></trkpt><trkpt lat="36.95472586113869" lon="14.970543692726547"><ele>588.0</ele><time>2026-04-30T16:06:56Z</time></trkpt><trkpt lat="36.95467524044256" lon="14.970478603757282"><ele>588.0</ele><time>2026-04-30T16:06:59Z</time></trkpt><trkpt lat="36.95461266289519" lon="14.970417387245531"><ele>588.0</ele><time>2026-04-30T16:07:04.001Z</time></trkpt><trkpt lat="36.95456878765967" lon="14.970356042379775"><ele>588.0</ele><time>2026-04-30T16:07:07.001Z</time></trkpt><trkpt lat="36.9545072702679" lon="14.970290084382652"><ele>588.0</ele><time>2026-04-30T16:07:09.001Z</time></trkpt><trkpt lat="36.9544341487826" lon="14.970221259411698"><ele>588.0</ele><time>2026-04-30T16:07:12.001Z</time></trkpt><trkpt lat="36.95434939928963" lon="14.970168234366062"><ele>588.0</ele><time>2026-04-30T16:07:15.001Z</time></trkpt><trkpt lat="36.954282592049324" lon="14.970132779101023"><ele>588.0</ele><time>2026-04-30T16:07:17.001Z</time></trkpt><trkpt lat="36.95421554020314" lon="14.970097072556829"><ele>588.0</ele><time>2026-04-30T16:07:19.001Z</time></trkpt><trkpt lat="36.954145552570864" lon="14.970079053294759"><ele>588.0</ele><time>2026-04-30T16:07:21.001Z</time></trkpt><trkpt lat="36.95406980063404" lon="14.970057120503434"><ele>588.0</ele><time>2026-04-30T16:07:23.001Z</time></trkpt><trkpt lat="36.95399900117514" lon="14.970056763048092"><ele>588.0</ele><time>2026-04-30T16:07:26.001Z</time></trkpt><trkpt lat="36.953935149933656" lon="14.970068380854464"><ele>588.0</ele><time>2026-04-30T16:07:29Z</time></trkpt><trkpt lat="36.95387009720163" lon="14.970071075815236"><ele>588.0</ele><time>2026-04-30T16:07:31Z</time></trkpt><trkpt lat="36.95380388697887" lon="14.970083267870264"><ele>587.5714285714286</ele><time>2026-04-30T16:07:33Z</time></trkpt><trkpt lat="36.95372899193027" lon="14.970099807318952"><ele>587.1428571428571</ele><time>2026-04-30T16:07:36Z</time></trkpt><trkpt lat="36.953650369712044" lon="14.970118547468433"><ele>586.7142857142858</ele><time>2026-04-30T16:07:39Z</time></trkpt><trkpt lat="36.95358284645335" lon="14.97014810162946"><ele>586.2857142857142</ele><time>2026-04-30T16:07:41Z</time></trkpt><trkpt lat="36.9535128290672" lon="14.970186303416423"><ele>585.8571428571429</ele><time>2026-04-30T16:07:44Z</time></trkpt><trkpt lat="36.9534489691839" lon="14.970212050791899"><ele>585.4285714285714</ele><time>2026-04-30T16:07:48Z</time></trkpt><trkpt lat="36.95339316035996" lon="14.970275485261563"><ele>585.0</ele><time>2026-04-30T16:07:53Z</time></trkpt><trkpt lat="36.95334582018398" lon="14.970327688601573"><ele>585.0</ele><time>2026-04-30T16:07:55Z</time></trkpt><trkpt lat="36.95329916227734" lon="14.970397248079937"><ele>585.0</ele><time>2026-04-30T16:08:03Z</time></trkpt><trkpt lat="36.95323934549973" lon="14.970453956609905"><ele>585.0</ele><time>2026-04-30T16:08:06Z</time></trkpt><trkpt lat="36.95318563678629" lon="14.97052561924994"><ele>585.0</ele><time>2026-04-30T16:08:08Z</time></trkpt><trkpt lat="36.953142066383116" lon="14.970599891869808"><ele>585.0</ele><time>2026-04-30T16:08:11Z</time></trkpt><trkpt lat="36.953106392907905" lon="14.970686624304728"><ele>585.0</ele><time>2026-04-30T16:08:14Z</time></trkpt><trkpt lat="36.95307221536969" lon="14.970764983507152"><ele>585.0</ele><time>2026-04-30T16:08:20Z</time></trkpt><trkpt lat="36.95303685121569" lon="14.970839042307269"><ele>585.5</ele><time>2026-04-30T16:08:23Z</time></trkpt><trkpt lat="36.95299445373683" lon="14.970910812870947"><ele>586.0</ele><time>2026-04-30T16:08:29Z</time></trkpt><trkpt lat="36.952935295224805" lon="14.970964710964688"><ele>586.5</ele><time>2026-04-30T16:08:39.001Z</time></trkpt><trkpt lat="36.952860963486785" lon="14.971005398680388"><ele>587.0</ele><time>2026-04-30T16:09:03.001Z</time></trkpt><trkpt lat="36.952793997950536" lon="14.971045958113102"><ele>587.5</ele><time>2026-04-30T16:09:22.001Z</time></trkpt><trkpt lat="36.95273344647614" lon="14.971096156390214"><ele>588.0</ele><time>2026-04-30T16:09:34Z</time></trkpt><trkpt lat="36.95266310333451" lon="14.971145280479892"><ele>588.0</ele><time>2026-04-30T16:09:41Z</time></trkpt><trkpt lat="36.95260818293206" lon="14.97119410811501"><ele>588.0</ele><time>2026-04-30T16:09:46Z</time></trkpt><trkpt lat="36.95253883313035" lon="14.971224289277474"><ele>588.0</ele><time>2026-04-30T16:09:51Z</time></trkpt><trkpt lat="36.952483195118205" lon="14.971278578404021"><ele>588.0</ele><time>2026-04-30T16:09:56Z</time></trkpt><trkpt lat="36.952413095091444" lon="14.971316301174033"><ele>588.0</ele><time>2026-04-30T16:10:00Z</time></trkpt><trkpt lat="36.952334819367394" lon="14.971344833391793"><ele>588.0</ele><time>2026-04-30T16:10:05Z</time></trkpt><trkpt lat="36.95225679780851" lon="14.97133777753757"><ele>588.0</ele><time>2026-04-30T16:10:08Z</time></trkpt><trkpt lat="36.9521728829835" lon="14.971365200536356"><ele>585.8333333333334</ele><time>2026-04-30T16:10:34.001Z</time></trkpt><trkpt lat="36.95209211516303" lon="14.971384042992334"><ele>583.6666666666666</ele><time>2026-04-30T16:10:37.001Z</time></trkpt><trkpt lat="36.952005513051816" lon="14.97138600940319"><ele>581.5</ele><time>2026-04-30T16:10:40.001Z</time></trkpt><trkpt lat="36.95191986504596" lon="14.971404342772365"><ele>579.3333333333333</ele><time>2026-04-30T16:10:44.001Z</time></trkpt><trkpt lat="36.95185487543389" lon="14.971414347404963"><ele>577.1666666666666</ele><time>2026-04-30T16:10:46.001Z</time></trkpt><trkpt lat="36.95178727924006" lon="14.971432063627736"><ele>575.0</ele><time>2026-04-30T16:10:49.001Z</time></trkpt><trkpt lat="36.95172317295655" lon="14.971441492370642"><ele>574.1666666666666</ele><time>2026-04-30T16:10:51.001Z</time></trkpt><trkpt lat="36.951649106280264" lon="14.971444347237687"><ele>573.3333333333333</ele><time>2026-04-30T16:10:53.001Z</time></trkpt><trkpt lat="36.95158413658029" lon="14.971453798512652"><ele>572.5</ele><time>2026-04-30T16:10:55.001Z</time></trkpt><trkpt lat="36.95150296946321" lon="14.971478209868241"><ele>571.6666666666666</ele><time>2026-04-30T16:10:58.001Z</time></trkpt><trkpt lat="36.95141720708893" lon="14.971486559116881"><ele>570.8333333333334</ele><time>2026-04-30T16:11:02.001Z</time></trkpt><trkpt lat="36.95133879679843" lon="14.971498835230225"><ele>570.0</ele><time>2026-04-30T16:11:05.001Z</time></trkpt><trkpt lat="36.951278092017525" lon="14.971524123834822"><ele>570.0</ele><time>2026-04-30T16:11:08.001Z</time></trkpt><trkpt lat="36.95120639182595" lon="14.971539629024207"><ele>570.0</ele><time>2026-04-30T16:11:11.001Z</time></trkpt><trkpt lat="36.95114418570089" lon="14.971567318754492"><ele>570.0</ele><time>2026-04-30T16:11:14.001Z</time></trkpt><trkpt lat="36.95107155058593" lon="14.971581963852515"><ele>570.0</ele><time>2026-04-30T16:11:17.001Z</time></trkpt><trkpt lat="36.95102800071198" lon="14.971653091875408"><ele>570.0</ele><time>2026-04-30T16:11:23.001Z</time></trkpt><trkpt lat="36.95107070531032" lon="14.971725000792233"><ele>570.0</ele><time>2026-04-30T16:11:27.001Z</time></trkpt><trkpt lat="36.95110110045804" lon="14.971803787072773"><ele>570.0</ele><time>2026-04-30T16:11:30.001Z</time></trkpt><trkpt lat="36.95112902759791" lon="14.97190442841267"><ele>571.8571428571429</ele><time>2026-04-30T16:11:33.001Z</time></trkpt><trkpt lat="36.9511494097304" lon="14.97200146464531"><ele>573.7142857142858</ele><time>2026-04-30T16:11:36.001Z</time></trkpt><trkpt lat="36.951148571343275" lon="14.972086453483625"><ele>575.5714285714287</ele><time>2026-04-30T16:11:50Z</time></trkpt><trkpt lat="36.95115435530124" lon="14.972180974030893"><ele>577.4285714285714</ele><time>2026-04-30T16:11:53Z</time></trkpt><trkpt lat="36.95113791979503" lon="14.972268832890098"><ele>579.2857142857143</ele><time>2026-04-30T16:11:58Z</time></trkpt><trkpt lat="36.95115042517226" lon="14.972358037588274"><ele>581.1428571428572</ele><time>2026-04-30T16:12:03Z</time></trkpt><trkpt lat="36.95117337322668" lon="14.972435031517826"><ele>583.0</ele><time>2026-04-30T16:12:07Z</time></trkpt><trkpt lat="36.951162402026874" lon="14.972516203180557"><ele>583.1428571428572</ele><time>2026-04-30T16:12:23Z</time></trkpt><trkpt lat="36.9511510354653" lon="14.9725938175708"><ele>583.2857142857143</ele><time>2026-04-30T16:12:29Z</time></trkpt><trkpt lat="36.951152080526946" lon="14.972683064773333"><ele>583.4285714285714</ele><time>2026-04-30T16:12:50.001Z</time></trkpt><trkpt lat="36.951138174136986" lon="14.972800714945265"><ele>583.5714285714287</ele><time>2026-04-30T16:13:39.001Z</time></trkpt><trkpt lat="36.95108282944031" lon="14.972863924972126"><ele>583.7142857142858</ele><time>2026-04-30T16:15:43.001Z</time></trkpt><trkpt lat="36.95106528610654" lon="14.972950151757024"><ele>583.8571428571429</ele><time>2026-04-30T16:15:46.001Z</time></trkpt><trkpt lat="36.95102103547701" lon="14.973008458045914"><ele>584.0</ele><time>2026-04-30T16:15:51.001Z</time></trkpt><trkpt lat="36.95098582206794" lon="14.97308857278538"><ele>584.0</ele><time>2026-04-30T16:16:00Z</time></trkpt><trkpt lat="36.95098220269035" lon="14.973191654057064"><ele>584.0</ele><time>2026-04-30T16:16:04Z</time></trkpt><trkpt lat="36.95096119710435" lon="14.973273606614047"><ele>584.0</ele><time>2026-04-30T16:16:06Z</time></trkpt><trkpt lat="36.95095971053434" lon="14.973366391877983"><ele>584.0</ele><time>2026-04-30T16:16:10Z</time></trkpt><trkpt lat="36.95094509505784" lon="14.973466277748267"><ele>584.0</ele><time>2026-04-30T16:16:13Z</time></trkpt><trkpt lat="36.950935738357686" lon="14.973552935983165"><ele>584.0</ele><time>2026-04-30T16:16:15Z</time></trkpt><trkpt lat="36.9509235736557" lon="14.973657750418846"><ele>584.0</ele><time>2026-04-30T16:16:18Z</time></trkpt><trkpt lat="36.95091483983999" lon="14.973736235765921"><ele>584.0</ele><time>2026-04-30T16:16:21Z</time></trkpt><trkpt lat="36.950880240554916" lon="14.973836821641157"><ele>584.0</ele><time>2026-04-30T16:16:24Z</time></trkpt><trkpt lat="36.95085438869012" lon="14.973927466735917"><ele>584.0</ele><time>2026-04-30T16:16:28Z</time></trkpt><trkpt lat="36.95083469762671" lon="14.97400348833801"><ele>584.0</ele><time>2026-04-30T16:16:31Z</time></trkpt><trkpt lat="36.9508185112758" lon="14.97408071917664"><ele>584.0</ele><time>2026-04-30T16:16:36Z</time></trkpt><trkpt lat="36.950799887009374" lon="14.974160997860086"><ele>584.0</ele><time>2026-04-30T16:16:43Z</time></trkpt><trkpt lat="36.9507858701862" lon="14.974245432435"><ele>584.0</ele><time>2026-04-30T16:16:59Z</time></trkpt><trkpt lat="36.95077023665558" lon="14.974328317507995"><ele>584.0</ele><time>2026-04-30T16:17:02.001Z</time></trkpt><trkpt lat="36.95076238963788" lon="14.974412883242914"><ele>584.0</ele><time>2026-04-30T16:17:05.001Z</time></trkpt><trkpt lat="36.95073214937948" lon="14.974491461412693"><ele>584.0</ele><time>2026-04-30T16:17:20.001Z</time></trkpt><trkpt lat="36.95071994618826" lon="14.974591724289892"><ele>584.0</ele><time>2026-04-30T16:17:26.001Z</time></trkpt><trkpt lat="36.95070665519929" lon="14.974674475855279"><ele>584.0</ele><time>2026-04-30T16:17:33.001Z</time></trkpt><trkpt lat="36.95067378654253" lon="14.974743190365004"><ele>584.0</ele><time>2026-04-30T16:17:38.001Z</time></trkpt><trkpt lat="36.95064242725137" lon="14.974816085975458"><ele>584.0</ele><time>2026-04-30T16:17:52.001Z</time></trkpt><trkpt lat="36.950621955766586" lon="14.974901943666891"><ele>584.0</ele><time>2026-04-30T16:17:55.001Z</time></trkpt><trkpt lat="36.9506050455758" lon="14.975007977497734"><ele>584.0</ele><time>2026-04-30T16:17:59Z</time></trkpt><trkpt lat="36.9505758117147" lon="14.975081395082043"><ele>584.0</ele><time>2026-04-30T16:18:03Z</time></trkpt><trkpt lat="36.95055310912238" lon="14.975169027566734"><ele>584.0</ele><time>2026-04-30T16:18:06Z</time></trkpt><trkpt lat="36.95054634815269" lon="14.975250473021967"><ele>584.0</ele><time>2026-04-30T16:18:10Z</time></trkpt><trkpt lat="36.950530133934215" lon="14.975330759373815"><ele>584.0</ele><time>2026-04-30T16:18:20Z</time></trkpt><trkpt lat="36.95056790111413" lon="14.975397699249859"><ele>584.3333333333333</ele><time>2026-04-30T16:18:25Z</time></trkpt><trkpt lat="36.95061066736173" lon="14.975477657138194"><ele>584.6666666666666</ele><time>2026-04-30T16:18:30Z</time></trkpt><trkpt lat="36.950657854592826" lon="14.975555699588492"><ele>585.0</ele><time>2026-04-30T16:18:37Z</time></trkpt><trkpt lat="36.950679920443555" lon="14.975645488971434"><ele>585.3333333333334</ele><time>2026-04-30T16:18:41Z</time></trkpt><trkpt lat="36.95072243624313" lon="14.975724934919445"><ele>585.6666666666667</ele><time>2026-04-30T16:18:45Z</time></trkpt><trkpt lat="36.95077006779224" lon="14.975806852061892"><ele>586.0</ele><time>2026-04-30T16:18:51Z</time></trkpt><trkpt lat="36.950803872642645" lon="14.975892278659341"><ele>585.9999999999999</ele><time>2026-04-30T16:18:57Z</time></trkpt><trkpt lat="36.95084157688302" lon="14.97596020716038"><ele>586.0</ele><time>2026-04-30T16:19:01Z</time></trkpt><trkpt lat="36.950883331617305" lon="14.97603394629789"><ele>586.0</ele><time>2026-04-30T16:19:05Z</time></trkpt><trkpt lat="36.950904736331644" lon="14.976109436771706"><ele>586.0</ele><time>2026-04-30T16:19:08Z</time></trkpt><trkpt lat="36.950947086239516" lon="14.976175291647698"><ele>586.0</ele><time>2026-04-30T16:19:32.001Z</time></trkpt><trkpt lat="36.9509686080838" lon="14.976253137067953"><ele>585.9999999999999</ele><time>2026-04-30T16:19:35.001Z</time></trkpt><trkpt lat="36.95100083560158" lon="14.976343364867056"><ele>586.0</ele><time>2026-04-30T16:19:38.001Z</time></trkpt><trkpt lat="36.951045336195335" lon="14.976423010490603"><ele>585.9999999999999</ele><time>2026-04-30T16:19:41.001Z</time></trkpt><trkpt lat="36.951090587657205" lon="14.97651126391219"><ele>586.0</ele><time>2026-04-30T16:19:44.001Z</time></trkpt><trkpt lat="36.95113241980161" lon="14.976576379035567"><ele>586.0</ele><time>2026-04-30T16:19:46.001Z</time></trkpt><trkpt lat="36.951182817531766" lon="14.976654387710683"><ele>586.0</ele><time>2026-04-30T16:19:48.001Z</time></trkpt><trkpt lat="36.95121858542169" lon="14.976727401884274"><ele>586.0</ele><time>2026-04-30T16:19:50.001Z</time></trkpt><trkpt lat="36.95126610097876" lon="14.97679461592772"><ele>585.9999999999999</ele><time>2026-04-30T16:19:52.001Z</time></trkpt><trkpt lat="36.95131529214242" lon="14.976868788127463"><ele>586.0</ele><time>2026-04-30T16:19:54.001Z</time></trkpt><trkpt lat="36.95137193492226" lon="14.976925252788897"><ele>585.9999999999999</ele><time>2026-04-30T16:19:56.001Z</time></trkpt><trkpt lat="36.95141586833046" lon="14.976990856013641"><ele>586.0</ele><time>2026-04-30T16:19:58.001Z</time></trkpt><trkpt lat="36.951457656417716" lon="14.977051999365916"><ele>586.0</ele><time>2026-04-30T16:20:02.001Z</time></trkpt><trkpt lat="36.95149510286528" lon="14.977120107350784"><ele>586.0</ele><time>2026-04-30T16:20:07Z</time></trkpt><trkpt lat="36.95153499213687" lon="14.977193884310319"><ele>586.0</ele><time>2026-04-30T16:20:19Z</time></trkpt><trkpt lat="36.951574181720595" lon="14.977292122287883"><ele>585.9999999999999</ele><time>2026-04-30T16:20:23Z</time></trkpt><trkpt lat="36.95160893268021" lon="14.977366360284476"><ele>586.0</ele><time>2026-04-30T16:20:27Z</time></trkpt><trkpt lat="36.951640551571806" lon="14.977438321741145"><ele>586.0</ele><time>2026-04-30T16:20:33Z</time></trkpt><trkpt lat="36.95156424305535" lon="14.977534350124989"><ele>586.0</ele><time>2026-04-30T16:20:39Z</time></trkpt><trkpt lat="36.95146305876092" lon="14.977605955962234"><ele>586.0</ele><time>2026-04-30T16:20:41Z</time></trkpt><trkpt lat="36.95139493096135" lon="14.97762016851431"><ele>586.0</ele><time>2026-04-30T16:20:42Z</time></trkpt><trkpt lat="36.9513245183653" lon="14.977666667397203"><ele>586.0</ele><time>2026-04-30T16:20:43Z</time></trkpt><trkpt lat="36.95124209942672" lon="14.977717693941244"><ele>586.0</ele><time>2026-04-30T16:20:44Z</time></trkpt><trkpt lat="36.95115380140748" lon="14.9777685026173"><ele>586.0</ele><time>2026-04-30T16:20:45Z</time></trkpt><trkpt lat="36.951065444076754" lon="14.977833389568685"><ele>586.0</ele><time>2026-04-30T16:20:46Z</time></trkpt><trkpt lat="36.95095850002819" lon="14.977876500403886"><ele>586.0</ele><time>2026-04-30T16:20:47Z</time></trkpt><trkpt lat="36.950839242035975" lon="14.977921666352186"><ele>586.0</ele><time>2026-04-30T16:20:48Z</time></trkpt><trkpt lat="36.95069757228958" lon="14.977953516502817"><ele>585.5</ele><time>2026-04-30T16:20:49Z</time></trkpt><trkpt lat="36.95055084739961" lon="14.978008619368415"><ele>585.0</ele><time>2026-04-30T16:20:50Z</time></trkpt><trkpt lat="36.95040848203684" lon="14.978073960518957"><ele>584.5</ele><time>2026-04-30T16:20:51Z</time></trkpt><trkpt lat="36.950279412918114" lon="14.97814526802248"><ele>584.0</ele><time>2026-04-30T16:20:52Z</time></trkpt><trkpt lat="36.95015460898297" lon="14.97821598043739"><ele>583.5</ele><time>2026-04-30T16:20:53Z</time></trkpt><trkpt lat="36.95003719033426" lon="14.978282508437928"><ele>583.0</ele><time>2026-04-30T16:20:54Z</time></trkpt><trkpt lat="36.94991672236063" lon="14.978350764149914"><ele>582.5</ele><time>2026-04-30T16:20:55Z</time></trkpt><trkpt lat="36.949796324918736" lon="14.978417069047563"><ele>582.0</ele><time>2026-04-30T16:20:56Z</time></trkpt><trkpt lat="36.9496744162536" lon="14.978483514319981"><ele>582.0</ele><time>2026-04-30T16:20:57Z</time></trkpt><trkpt lat="36.94955073694054" lon="14.978550924669351"><ele>582.0</ele><time>2026-04-30T16:20:58Z</time></trkpt><trkpt lat="36.949426680504494" lon="14.978627112433406"><ele>582.0</ele><time>2026-04-30T16:20:59Z</time></trkpt><trkpt lat="36.9492956792873" lon="14.978671027492926"><ele>582.0</ele><time>2026-04-30T16:21:00Z</time></trkpt><trkpt lat="36.94916398236794" lon="14.9787187221124"><ele>581.25</ele><time>2026-04-30T16:21:01Z</time></trkpt><trkpt lat="36.949033154962265" lon="14.978774539558115"><ele>580.5</ele><time>2026-04-30T16:21:02Z</time></trkpt><trkpt lat="36.948890773795306" lon="14.978800798048342"><ele>579.75</ele><time>2026-04-30T16:21:03Z</time></trkpt><trkpt lat="36.948752538417814" lon="14.97882832008221"><ele>579.0</ele><time>2026-04-30T16:21:04Z</time></trkpt><trkpt lat="36.94861481188037" lon="14.978858743042354"><ele>579.0</ele><time>2026-04-30T16:21:05Z</time></trkpt><trkpt lat="36.948481315581404" lon="14.978884172796727"><ele>579.0</ele><time>2026-04-30T16:21:06Z</time></trkpt><trkpt lat="36.948346346188345" lon="14.978909043783094"><ele>579.0</ele><time>2026-04-30T16:21:07Z</time></trkpt><trkpt lat="36.94821117591637" lon="14.978936344359445"><ele>579.0</ele><time>2026-04-30T16:21:08Z</time></trkpt><trkpt lat="36.94807364494992" lon="14.978965793191005"><ele>578.5</ele><time>2026-04-30T16:21:09Z</time></trkpt><trkpt lat="36.94793200317276" lon="14.978992069791413"><ele>578.0</ele><time>2026-04-30T16:21:10Z</time></trkpt><trkpt lat="36.947790375921294" lon="14.979012357930864"><ele>577.5</ele><time>2026-04-30T16:21:11Z</time></trkpt><trkpt lat="36.94764744468954" lon="14.979023969815335"><ele>577.0</ele><time>2026-04-30T16:21:12Z</time></trkpt><trkpt lat="36.94750288032673" lon="14.979024977378181"><ele>576.5</ele><time>2026-04-30T16:21:13Z</time></trkpt><trkpt lat="36.9473570433408" lon="14.979011219110175"><ele>576.0</ele><time>2026-04-30T16:21:14Z</time></trkpt><trkpt lat="36.94721460131263" lon="14.978981201016756"><ele>575.5</ele><time>2026-04-30T16:21:15Z</time></trkpt><trkpt lat="36.94707321551521" lon="14.978933863346256"><ele>575.0</ele><time>2026-04-30T16:21:16Z</time></trkpt><trkpt lat="36.946933178509845" lon="14.97888172504762"><ele>575.0</ele><time>2026-04-30T16:21:17Z</time></trkpt><trkpt lat="36.946790636192766" lon="14.97882873767665"><ele>575.0</ele><time>2026-04-30T16:21:18Z</time></trkpt><trkpt lat="36.946652811239034" lon="14.978781535889418"><ele>575.0</ele><time>2026-04-30T16:21:19Z</time></trkpt><trkpt lat="36.94651041879264" lon="14.978749194964776"><ele>575.0</ele><time>2026-04-30T16:21:20Z</time></trkpt><trkpt lat="36.9463677079362" lon="14.978726150345022"><ele>575.0</ele><time>2026-04-30T16:21:21Z</time></trkpt><trkpt lat="36.94622494389237" lon="14.978715117144175"><ele>575.0</ele><time>2026-04-30T16:21:22.001Z</time></trkpt><trkpt lat="36.94608497540139" lon="14.978709561169063"><ele>575.0</ele><time>2026-04-30T16:21:23.001Z</time></trkpt><trkpt lat="36.94594482381962" lon="14.978702632565646"><ele>575.0</ele><time>2026-04-30T16:21:24.001Z</time></trkpt><trkpt lat="36.94580537348052" lon="14.978684570104793"><ele>575.0</ele><time>2026-04-30T16:21:25.001Z</time></trkpt><trkpt lat="36.945659127451776" lon="14.978646598325593"><ele>575.0</ele><time>2026-04-30T16:21:26.001Z</time></trkpt><trkpt lat="36.94550992153219" lon="14.978587891982984"><ele>575.0</ele><time>2026-04-30T16:21:27.001Z</time></trkpt><trkpt lat="36.945360704135936" lon="14.978512850318522"><ele>575.0</ele><time>2026-04-30T16:21:28.001Z</time></trkpt><trkpt lat="36.94521540168119" lon="14.97842400835386"><ele>575.0</ele><time>2026-04-30T16:21:29.001Z</time></trkpt><trkpt lat="36.945091560902554" lon="14.978325635877727"><ele>575.0</ele><time>2026-04-30T16:21:30.001Z</time></trkpt><trkpt lat="36.94498216739728" lon="14.978227695855718"><ele>575.0</ele><time>2026-04-30T16:21:31.001Z</time></trkpt><trkpt lat="36.944871294423685" lon="14.978144652501104"><ele>573.5</ele><time>2026-04-30T16:21:32.001Z</time></trkpt><trkpt lat="36.94474624019741" lon="14.97808387096393"><ele>572.0</ele><time>2026-04-30T16:21:33.001Z</time></trkpt><trkpt lat="36.94460664195163" lon="14.978059336522227"><ele>570.5</ele><time>2026-04-30T16:21:34.001Z</time></trkpt><trkpt lat="36.94446082471773" lon="14.978085329425863"><ele>569.0</ele><time>2026-04-30T16:21:35.001Z</time></trkpt><trkpt lat="36.9443073023538" lon="14.978149346304457"><ele>568.3333333333333</ele><time>2026-04-30T16:21:36.001Z</time></trkpt><trkpt lat="36.944149794614134" lon="14.978194780741843"><ele>567.6666666666666</ele><time>2026-04-30T16:21:37.001Z</time></trkpt><trkpt lat="36.943989128930674" lon="14.97824723927924"><ele>567.0</ele><time>2026-04-30T16:21:38.001Z</time></trkpt><trkpt lat="36.94383433699022" lon="14.978297694118327"><ele>567.0</ele><time>2026-04-30T16:21:39.001Z</time></trkpt><trkpt lat="36.94367474762447" lon="14.97834895373731"><ele>567.0</ele><time>2026-04-30T16:21:40.001Z</time></trkpt><trkpt lat="36.94351183549034" lon="14.978397272421851"><ele>567.0</ele><time>2026-04-30T16:21:41.001Z</time></trkpt><trkpt lat="36.94334280292579" lon="14.978445040520688"><ele>566.0</ele><time>2026-04-30T16:21:42.001Z</time></trkpt><trkpt lat="36.94317951874896" lon="14.97848863113774"><ele>565.0</ele><time>2026-04-30T16:21:43.001Z</time></trkpt><trkpt lat="36.943013870693115" lon="14.97853166634892"><ele>564.0</ele><time>2026-04-30T16:21:44.001Z</time></trkpt><trkpt lat="36.94285424541147" lon="14.978584582141359"><ele>564.0</ele><time>2026-04-30T16:21:45.001Z</time></trkpt><trkpt lat="36.94268733053993" lon="14.978616776436237"><ele>564.0</ele><time>2026-04-30T16:21:46.001Z</time></trkpt><trkpt lat="36.94251819124846" lon="14.978652739055468"><ele>564.0</ele><time>2026-04-30T16:21:47.001Z</time></trkpt><trkpt lat="36.94236097145226" lon="14.978689589263519"><ele>563.3333333333334</ele><time>2026-04-30T16:21:48.001Z</time></trkpt><trkpt lat="36.94220322448751" lon="14.97872746969156"><ele>562.6666666666667</ele><time>2026-04-30T16:21:49.001Z</time></trkpt><trkpt lat="36.94204504896221" lon="14.978762787857443"><ele>562.0</ele><time>2026-04-30T16:21:50.001Z</time></trkpt><trkpt lat="36.941891376408336" lon="14.978796242523192"><ele>562.0</ele><time>2026-04-30T16:21:51.001Z</time></trkpt><trkpt lat="36.941736499358065" lon="14.978828280410227"><ele>562.0</ele><time>2026-04-30T16:21:52.001Z</time></trkpt><trkpt lat="36.9415835343188" lon="14.97885541529579"><ele>562.0</ele><time>2026-04-30T16:21:53.001Z</time></trkpt><trkpt lat="36.9414338081242" lon="14.978885355158381"><ele>561.6666666666667</ele><time>2026-04-30T16:21:54.001Z</time></trkpt><trkpt lat="36.94128188805432" lon="14.978920567996598"><ele>561.3333333333334</ele><time>2026-04-30T16:21:55.001Z</time></trkpt><trkpt lat="36.94113078092859" lon="14.978955719889186"><ele>561.0</ele><time>2026-04-30T16:21:56.001Z</time></trkpt><trkpt lat="36.94097458139661" lon="14.978986891853163"><ele>561.0</ele><time>2026-04-30T16:21:57.001Z</time></trkpt><trkpt lat="36.94081661316217" lon="14.979006295404272"><ele>561.0</ele><time>2026-04-30T16:21:58.001Z</time></trkpt><trkpt lat="36.94065743172042" lon="14.979017680639075"><ele>561.0</ele><time>2026-04-30T16:21:59.001Z</time></trkpt><trkpt lat="36.94050497167025" lon="14.979028034685243"><ele>561.0</ele><time>2026-04-30T16:22:00.001Z</time></trkpt><trkpt lat="36.940341109162325" lon="14.979042489772588"><ele>561.0</ele><time>2026-04-30T16:22:01.001Z</time></trkpt><trkpt lat="36.94017588756108" lon="14.979054001480545"><ele>561.0</ele><time>2026-04-30T16:22:02.001Z</time></trkpt><trkpt lat="36.940010993675905" lon="14.979062494124449"><ele>559.6666666666666</ele><time>2026-04-30T16:22:03.001Z</time></trkpt><trkpt lat="36.93984971959582" lon="14.979067502611617"><ele>558.3333333333333</ele><time>2026-04-30T16:22:04.001Z</time></trkpt><trkpt lat="36.93968356133701" lon="14.979069113930562"><ele>557.0</ele><time>2026-04-30T16:22:05.001Z</time></trkpt><trkpt lat="36.93951639202351" lon="14.979066804519157"><ele>557.0</ele><time>2026-04-30T16:22:06.001Z</time></trkpt><trkpt lat="36.93934405252019" lon="14.979065143682021"><ele>557.0</ele><time>2026-04-30T16:22:07.001Z</time></trkpt><trkpt lat="36.939168673411075" lon="14.97906332711968"><ele>557.0</ele><time>2026-04-30T16:22:08.001Z</time></trkpt><trkpt lat="36.93898589332598" lon="14.979064964048876"><ele>556.0</ele><time>2026-04-30T16:22:09.001Z</time></trkpt><trkpt lat="36.93879917300549" lon="14.979054466026303"><ele>555.0</ele><time>2026-04-30T16:22:10Z</time></trkpt><trkpt lat="36.93861874299038" lon="14.979046096841806"><ele>554.0</ele><time>2026-04-30T16:22:11Z</time></trkpt><trkpt lat="36.93843420319101" lon="14.979037529159378"><ele>553.3333333333333</ele><time>2026-04-30T16:22:12Z</time></trkpt><trkpt lat="36.93824247076236" lon="14.97902596574177"><ele>552.6666666666666</ele><time>2026-04-30T16:22:13Z</time></trkpt><trkpt lat="36.93805258059712" lon="14.979016057042656"><ele>552.0</ele><time>2026-04-30T16:22:14Z</time></trkpt><trkpt lat="36.93786051731922" lon="14.97901134206045"><ele>552.0</ele><time>2026-04-30T16:22:15Z</time></trkpt><trkpt lat="36.9376660145751" lon="14.978989256630713"><ele>552.0</ele><time>2026-04-30T16:22:16Z</time></trkpt><trkpt lat="36.93746791401086" lon="14.978978625750287"><ele>552.0</ele><time>2026-04-30T16:22:17Z</time></trkpt><trkpt lat="36.93727041734087" lon="14.978962184966145"><ele>551.6666666666666</ele><time>2026-04-30T16:22:18Z</time></trkpt><trkpt lat="36.93707563188403" lon="14.97895154072552"><ele>551.3333333333333</ele><time>2026-04-30T16:22:19Z</time></trkpt><trkpt lat="36.93688209621718" lon="14.97894411603611"><ele>551.0</ele><time>2026-04-30T16:22:20Z</time></trkpt><trkpt lat="36.93668440510259" lon="14.978937601151012"><ele>551.0</ele><time>2026-04-30T16:22:21Z</time></trkpt><trkpt lat="36.93648408585759" lon="14.978937812917048"><ele>551.0</ele><time>2026-04-30T16:22:22Z</time></trkpt><trkpt lat="36.93628478514515" lon="14.978947241412504"><ele>551.0</ele><time>2026-04-30T16:22:23Z</time></trkpt><trkpt lat="36.9360897732052" lon="14.978965849719131"><ele>551.0</ele><time>2026-04-30T16:22:24Z</time></trkpt><trkpt lat="36.935903214267896" lon="14.978974561016067"><ele>551.0</ele><time>2026-04-30T16:22:25Z</time></trkpt><trkpt lat="36.93572327103864" lon="14.978988940637059"><ele>551.0</ele><time>2026-04-30T16:22:26Z</time></trkpt><trkpt lat="36.93554711676087" lon="14.979008984222334"><ele>550.0</ele><time>2026-04-30T16:22:27Z</time></trkpt><trkpt lat="36.93536790568881" lon="14.97903322934268"><ele>549.0</ele><time>2026-04-30T16:22:28Z</time></trkpt><trkpt lat="36.93518774173011" lon="14.979051888358729"><ele>548.0</ele><time>2026-04-30T16:22:29Z</time></trkpt><trkpt lat="36.93500344863778" lon="14.97906759524368"><ele>547.3333333333333</ele><time>2026-04-30T16:22:30Z</time></trkpt><trkpt lat="36.93481912820516" lon="14.97906975978452"><ele>546.6666666666666</ele><time>2026-04-30T16:22:31Z</time></trkpt><trkpt lat="36.934630819937475" lon="14.979060596549541"><ele>546.0</ele><time>2026-04-30T16:22:32Z</time></trkpt><trkpt lat="36.93444757225232" lon="14.979040381547604"><ele>546.0</ele><time>2026-04-30T16:22:33Z</time></trkpt><trkpt lat="36.93426524638666" lon="14.979012371532528"><ele>546.0</ele><time>2026-04-30T16:22:34Z</time></trkpt><trkpt lat="36.93407886370598" lon="14.978987120662543"><ele>546.0</ele><time>2026-04-30T16:22:35Z</time></trkpt><trkpt lat="36.933894771472396" lon="14.978972841155239"><ele>546.3333333333334</ele><time>2026-04-30T16:22:36Z</time></trkpt><trkpt lat="36.933719034670865" lon="14.978987185983948"><ele>546.6666666666667</ele><time>2026-04-30T16:22:37Z</time></trkpt><trkpt lat="36.93353381580648" lon="14.979023634415919"><ele>547.0</ele><time>2026-04-30T16:22:38Z</time></trkpt><trkpt lat="36.933343494636404" lon="14.979073549270355"><ele>547.0</ele><time>2026-04-30T16:22:39Z</time></trkpt><trkpt lat="36.933156588149345" lon="14.97912687353903"><ele>547.0</ele><time>2026-04-30T16:22:40Z</time></trkpt><trkpt lat="36.932968975564506" lon="14.979177635016498"><ele>547.0</ele><time>2026-04-30T16:22:41Z</time></trkpt><trkpt lat="36.93278408878173" lon="14.97925080381749"><ele>548.0</ele><time>2026-04-30T16:22:42Z</time></trkpt><trkpt lat="36.93260185686369" lon="14.979341424741259"><ele>549.0</ele><time>2026-04-30T16:22:43Z</time></trkpt><trkpt lat="36.93242804909483" lon="14.979447518591586"><ele>550.0</ele><time>2026-04-30T16:22:44Z</time></trkpt><trkpt lat="36.93228008903692" lon="14.97956247358017"><ele>550.0</ele><time>2026-04-30T16:22:45Z</time></trkpt><trkpt lat="36.932136510855344" lon="14.979663159605646"><ele>550.0</ele><time>2026-04-30T16:22:46Z</time></trkpt><trkpt lat="36.93199281851498" lon="14.979795912442476"><ele>550.0</ele><time>2026-04-30T16:22:47Z</time></trkpt><trkpt lat="36.931862170738604" lon="14.97992399907485"><ele>550.0</ele><time>2026-04-30T16:22:48Z</time></trkpt><trkpt lat="36.93175782905372" lon="14.98003252260749"><ele>550.0</ele><time>2026-04-30T16:22:49Z</time></trkpt><trkpt lat="36.931668660371336" lon="14.980128957678437"><ele>550.0</ele><time>2026-04-30T16:22:50Z</time></trkpt><trkpt lat="36.93159582430321" lon="14.980237643491074"><ele>550.0</ele><time>2026-04-30T16:22:51Z</time></trkpt><trkpt lat="36.93154359909882" lon="14.980362346313877"><ele>548.0</ele><time>2026-04-30T16:22:52Z</time></trkpt><trkpt lat="36.93152270618901" lon="14.980521484286735"><ele>546.0</ele><time>2026-04-30T16:22:53Z</time></trkpt><trkpt lat="36.931534912694126" lon="14.98069856976738"><ele>544.0</ele><time>2026-04-30T16:22:54Z</time></trkpt><trkpt lat="36.931590177760626" lon="14.980883719522764"><ele>542.0</ele><time>2026-04-30T16:22:55Z</time></trkpt><trkpt lat="36.931640821679125" lon="14.981066865334629"><ele>542.25</ele><time>2026-04-30T16:22:56Z</time></trkpt><trkpt lat="36.93169525075281" lon="14.981227774843468"><ele>542.5</ele><time>2026-04-30T16:22:57Z</time></trkpt><trkpt lat="36.931763340830884" lon="14.981370326827792"><ele>542.75</ele><time>2026-04-30T16:22:58Z</time></trkpt><trkpt lat="36.9318553519329" lon="14.981501641639788"><ele>543.0</ele><time>2026-04-30T16:22:59Z</time></trkpt><trkpt lat="36.93194820952047" lon="14.981624403382273"><ele>541.4</ele><time>2026-04-30T16:23:00Z</time></trkpt><trkpt lat="36.93204339010571" lon="14.981737897157043"><ele>539.8</ele><time>2026-04-30T16:23:01Z</time></trkpt><trkpt lat="36.93212609357662" lon="14.98183702710197"><ele>538.2</ele><time>2026-04-30T16:23:02Z</time></trkpt><trkpt lat="36.932191682508666" lon="14.98192848068225"><ele>536.6</ele><time>2026-04-30T16:23:03Z</time></trkpt><trkpt lat="36.93223734025031" lon="14.982016859658067"><ele>535.0</ele><time>2026-04-30T16:23:04Z</time></trkpt><trkpt lat="36.93225760099697" lon="14.982100329357708"><ele>535.0</ele><time>2026-04-30T16:23:05Z</time></trkpt><trkpt lat="36.932217143147795" lon="14.982217700116554"><ele>535.0</ele><time>2026-04-30T16:23:07Z</time></trkpt><trkpt lat="36.932163708924904" lon="14.982261533372524"><ele>535.0</ele><time>2026-04-30T16:23:08Z</time></trkpt><trkpt lat="36.93206901215369" lon="14.982269580370325"><ele>535.0</ele><time>2026-04-30T16:23:09Z</time></trkpt><trkpt lat="36.93195592111024" lon="14.982230951408887"><ele>535.0</ele><time>2026-04-30T16:23:10Z</time></trkpt><trkpt lat="36.93182572014762" lon="14.982180203147237"><ele>533.3333333333334</ele><time>2026-04-30T16:23:11Z</time></trkpt><trkpt lat="36.93167392896961" lon="14.982137057825565"><ele>531.6666666666666</ele><time>2026-04-30T16:23:12Z</time></trkpt><trkpt lat="36.93152153117794" lon="14.982119781021929"><ele>530.0</ele><time>2026-04-30T16:23:13Z</time></trkpt><trkpt lat="36.93137295198791" lon="14.982120616514205"><ele>530.0</ele><time>2026-04-30T16:23:14Z</time></trkpt><trkpt lat="36.93122502182464" lon="14.982142348437227"><ele>530.0</ele><time>2026-04-30T16:23:15Z</time></trkpt><trkpt lat="36.931080192937024" lon="14.982182849238244"><ele>530.0</ele><time>2026-04-30T16:23:16Z</time></trkpt><trkpt lat="36.930945583710894" lon="14.982218076958443"><ele>530.0</ele><time>2026-04-30T16:23:17Z</time></trkpt><trkpt lat="36.9308262736162" lon="14.982273092864114"><ele>529.6666666666666</ele><time>2026-04-30T16:23:18Z</time></trkpt><trkpt lat="36.93073362989911" lon="14.982332717787722"><ele>529.3333333333333</ele><time>2026-04-30T16:23:19Z</time></trkpt><trkpt lat="36.930682740363956" lon="14.982391807699821"><ele>529.0</ele><time>2026-04-30T16:23:20Z</time></trkpt><trkpt lat="36.93061843823877" lon="14.982387604290206"><ele>528.6666666666666</ele><time>2026-04-30T16:23:21Z</time></trkpt><trkpt lat="36.93053507627059" lon="14.982353090710845"><ele>528.3333333333334</ele><time>2026-04-30T16:23:22Z</time></trkpt><trkpt lat="36.93042002969667" lon="14.982300780111407"><ele>528.0</ele><time>2026-04-30T16:23:23Z</time></trkpt><trkpt lat="36.93029504137741" lon="14.98223165794836"><ele>528.0</ele><time>2026-04-30T16:23:24Z</time></trkpt><trkpt lat="36.93017122205001" lon="14.98216603828536"><ele>528.0</ele><time>2026-04-30T16:23:25Z</time></trkpt><trkpt lat="36.93003211385058" lon="14.982094762128005"><ele>528.0</ele><time>2026-04-30T16:23:26Z</time></trkpt><trkpt lat="36.92989551871079" lon="14.982020061004697"><ele>528.0</ele><time>2026-04-30T16:23:27Z</time></trkpt><trkpt lat="36.929763948377364" lon="14.981938161081601"><ele>527.5</ele><time>2026-04-30T16:23:28.001Z</time></trkpt><trkpt lat="36.92963926952927" lon="14.981848303351462"><ele>527.0</ele><time>2026-04-30T16:23:29.001Z</time></trkpt><trkpt lat="36.92951702663939" lon="14.981752542714826"><ele>526.5</ele><time>2026-04-30T16:23:30.001Z</time></trkpt><trkpt lat="36.92939499831978" lon="14.98165424691054"><ele>526.0</ele><time>2026-04-30T16:23:31.001Z</time></trkpt><trkpt lat="36.92927145955071" lon="14.98155735347561"><ele>526.25</ele><time>2026-04-30T16:23:32.001Z</time></trkpt><trkpt lat="36.92914590965928" lon="14.981464976910013"><ele>526.5</ele><time>2026-04-30T16:23:33.001Z</time></trkpt><trkpt lat="36.92901720936634" lon="14.981374038408276"><ele>526.75</ele><time>2026-04-30T16:23:34.001Z</time></trkpt><trkpt lat="36.92889003588568" lon="14.981283673819043"><ele>527.0</ele><time>2026-04-30T16:23:35.001Z</time></trkpt><trkpt lat="36.92876133128788" lon="14.98118817542879"><ele>527.0</ele><time>2026-04-30T16:23:36.001Z</time></trkpt><trkpt lat="36.92864570571732" lon="14.981095323318991"><ele>527.0</ele><time>2026-04-30T16:23:37.001Z</time></trkpt><trkpt lat="36.92854547474378" lon="14.981000963418474"><ele>527.0</ele><time>2026-04-30T16:23:38.001Z</time></trkpt><trkpt lat="36.92845573668734" lon="14.980899022635752"><ele>527.0</ele><time>2026-04-30T16:23:39.001Z</time></trkpt><trkpt lat="36.92838169307803" lon="14.980803496457984"><ele>527.75</ele><time>2026-04-30T16:23:40.001Z</time></trkpt><trkpt lat="36.92829285092457" lon="14.980755769429704"><ele>528.5</ele><time>2026-04-30T16:23:41.001Z</time></trkpt><trkpt lat="36.92818185477767" lon="14.980746337456214"><ele>529.25</ele><time>2026-04-30T16:23:42.001Z</time></trkpt><trkpt lat="36.92805864875508" lon="14.980766024133777"><ele>530.0</ele><time>2026-04-30T16:23:43.001Z</time></trkpt><trkpt lat="36.92792326842369" lon="14.980812221038692"><ele>530.0</ele><time>2026-04-30T16:23:44.001Z</time></trkpt><trkpt lat="36.9277766136597" lon="14.98083949022419"><ele>530.0</ele><time>2026-04-30T16:23:45.001Z</time></trkpt><trkpt lat="36.927627295516366" lon="14.980873589885483"><ele>530.0</ele><time>2026-04-30T16:23:46.001Z</time></trkpt><trkpt lat="36.9274823587104" lon="14.980906690166117"><ele>530.0</ele><time>2026-04-30T16:23:47.001Z</time></trkpt><trkpt lat="36.927340850045" lon="14.98094797098265"><ele>529.0</ele><time>2026-04-30T16:23:48.001Z</time></trkpt><trkpt lat="36.92719154205829" lon="14.980946822743713"><ele>528.0</ele><time>2026-04-30T16:23:49.001Z</time></trkpt><trkpt lat="36.92703848981345" lon="14.980932768815778"><ele>527.0</ele><time>2026-04-30T16:23:50.001Z</time></trkpt><trkpt lat="36.92687904427341" lon="14.980927512741289"><ele>526.6666666666666</ele><time>2026-04-30T16:23:51.001Z</time></trkpt><trkpt lat="36.926723435729244" lon="14.980929149396722"><ele>526.3333333333334</ele><time>2026-04-30T16:23:52.001Z</time></trkpt><trkpt lat="36.926569699298916" lon="14.98092632569664"><ele>526.0</ele><time>2026-04-30T16:23:53.001Z</time></trkpt><trkpt lat="36.926412378688475" lon="14.980917410594229"><ele>526.0</ele><time>2026-04-30T16:23:54.001Z</time></trkpt><trkpt lat="36.92624973354643" lon="14.980906662674965"><ele>526.0</ele><time>2026-04-30T16:23:55.001Z</time></trkpt><trkpt lat="36.92608893319483" lon="14.980899733981017"><ele>526.0</ele><time>2026-04-30T16:23:56.001Z</time></trkpt><trkpt lat="36.92592044622253" lon="14.980897500335576"><ele>524.3333333333334</ele><time>2026-04-30T16:23:57.001Z</time></trkpt><trkpt lat="36.925758637813715" lon="14.980899101929136"><ele>522.6666666666666</ele><time>2026-04-30T16:23:58.001Z</time></trkpt><trkpt lat="36.92558910427037" lon="14.980899266449036"><ele>521.0</ele><time>2026-04-30T16:23:59.001Z</time></trkpt><trkpt lat="36.92541636997873" lon="14.980898935488957"><ele>521.0</ele><time>2026-04-30T16:24:00.001Z</time></trkpt><trkpt lat="36.92525453244597" lon="14.980897797944912"><ele>521.0</ele><time>2026-04-30T16:24:01.001Z</time></trkpt><trkpt lat="36.92510572940117" lon="14.980905445488768"><ele>521.0</ele><time>2026-04-30T16:24:02.001Z</time></trkpt><trkpt lat="36.924943520366334" lon="14.980925684199015"><ele>519.3333333333333</ele><time>2026-04-30T16:24:03.001Z</time></trkpt><trkpt lat="36.92479203201939" lon="14.980960496320538"><ele>517.6666666666666</ele><time>2026-04-30T16:24:04.001Z</time></trkpt><trkpt lat="36.924646083676194" lon="14.98101433599523"><ele>516.0</ele><time>2026-04-30T16:24:05.001Z</time></trkpt><trkpt lat="36.92449300599758" lon="14.981050319453365"><ele>516.0</ele><time>2026-04-30T16:24:06.001Z</time></trkpt><trkpt lat="36.92436458938206" lon="14.98113321736831"><ele>516.0</ele><time>2026-04-30T16:24:07.001Z</time></trkpt><trkpt lat="36.92425444807381" lon="14.981226687465764"><ele>516.0</ele><time>2026-04-30T16:24:08.001Z</time></trkpt><trkpt lat="36.92415183014082" lon="14.981329286743538"><ele>516.0</ele><time>2026-04-30T16:24:09.001Z</time></trkpt><trkpt lat="36.92405672810072" lon="14.981443584992672"><ele>515.75</ele><time>2026-04-30T16:24:10.001Z</time></trkpt><trkpt lat="36.9239703710383" lon="14.98155981281022"><ele>515.5</ele><time>2026-04-30T16:24:11.001Z</time></trkpt><trkpt lat="36.923882740041144" lon="14.981677557394555"><ele>515.25</ele><time>2026-04-30T16:24:12.001Z</time></trkpt><trkpt lat="36.923792020993446" lon="14.981792300851783"><ele>515.0</ele><time>2026-04-30T16:24:13.001Z</time></trkpt><trkpt lat="36.92369434097339" lon="14.981894297571746"><ele>514.5</ele><time>2026-04-30T16:24:14.001Z</time></trkpt><trkpt lat="36.92358033294782" lon="14.981976909096106"><ele>514.0</ele><time>2026-04-30T16:24:15.001Z</time></trkpt><trkpt lat="36.92346898555614" lon="14.982053314421258"><ele>513.5</ele><time>2026-04-30T16:24:16Z</time></trkpt><trkpt lat="36.923371034112655" lon="14.982125969163171"><ele>513.0</ele><time>2026-04-30T16:24:17Z</time></trkpt><trkpt lat="36.92326101342608" lon="14.982151517813739"><ele>513.0</ele><time>2026-04-30T16:24:18Z</time></trkpt><trkpt lat="36.923150405580884" lon="14.982140569264454"><ele>513.0</ele><time>2026-04-30T16:24:19Z</time></trkpt><trkpt lat="36.923037521114445" lon="14.982136845645387"><ele>513.0</ele><time>2026-04-30T16:24:20Z</time></trkpt><trkpt lat="36.922930860911094" lon="14.982174110978216"><ele>513.0</ele><time>2026-04-30T16:24:21Z</time></trkpt><trkpt lat="36.92282352106709" lon="14.982258446402895"><ele>513.0</ele><time>2026-04-30T16:24:22Z</time></trkpt><trkpt lat="36.92272731072432" lon="14.982380018947598"><ele>513.0</ele><time>2026-04-30T16:24:23Z</time></trkpt><trkpt lat="36.92261510484108" lon="14.98250825759325"><ele>513.0</ele><time>2026-04-30T16:24:24Z</time></trkpt><trkpt lat="36.92250270115444" lon="14.982628622466898"><ele>513.0</ele><time>2026-04-30T16:24:25Z</time></trkpt><trkpt lat="36.92238269138227" lon="14.982746286730906"><ele>513.0</ele><time>2026-04-30T16:24:26Z</time></trkpt><trkpt lat="36.92226233571345" lon="14.982858423299566"><ele>513.0</ele><time>2026-04-30T16:24:27Z</time></trkpt><trkpt lat="36.92214549611755" lon="14.98296242772052"><ele>513.0</ele><time>2026-04-30T16:24:28Z</time></trkpt><trkpt lat="36.92202703889387" lon="14.98306208944404"><ele>513.0</ele><time>2026-04-30T16:24:29Z</time></trkpt><trkpt lat="36.92190312958403" lon="14.9831634092337"><ele>513.0</ele><time>2026-04-30T16:24:30Z</time></trkpt><trkpt lat="36.921775864657285" lon="14.983267472827578"><ele>513.0</ele><time>2026-04-30T16:24:31Z</time></trkpt><trkpt lat="36.92165794956311" lon="14.983358791476848"><ele>513.0</ele><time>2026-04-30T16:24:32Z</time></trkpt><trkpt lat="36.92154842106674" lon="14.983433646637822"><ele>513.0</ele><time>2026-04-30T16:24:33Z</time></trkpt><trkpt lat="36.9214347332671" lon="14.983512255627941"><ele>511.75</ele><time>2026-04-30T16:24:34Z</time></trkpt><trkpt lat="36.921338888670014" lon="14.98363946301392"><ele>510.5</ele><time>2026-04-30T16:24:35Z</time></trkpt><trkpt lat="36.92126117058499" lon="14.983757914229068"><ele>509.25</ele><time>2026-04-30T16:24:36Z</time></trkpt><trkpt lat="36.921190385998365" lon="14.983865798184063"><ele>508.0</ele><time>2026-04-30T16:24:37Z</time></trkpt><trkpt lat="36.92112341221011" lon="14.983959220981331"><ele>508.0</ele><time>2026-04-30T16:24:38Z</time></trkpt><trkpt lat="36.92104861491603" lon="14.984037874102738"><ele>507.99999999999994</ele><time>2026-04-30T16:24:39Z</time></trkpt><trkpt lat="36.920960394399444" lon="14.984091850686784"><ele>507.99999999999994</ele><time>2026-04-30T16:24:40Z</time></trkpt><trkpt lat="36.92085994136909" lon="14.98414452210976"><ele>508.0</ele><time>2026-04-30T16:24:41Z</time></trkpt><trkpt lat="36.9207418640782" lon="14.984138868520803"><ele>508.0</ele><time>2026-04-30T16:24:42Z</time></trkpt><trkpt lat="36.92061775974022" lon="14.984118424748697"><ele>506.25</ele><time>2026-04-30T16:24:43Z</time></trkpt><trkpt lat="36.920499159879476" lon="14.98408110664367"><ele>504.5</ele><time>2026-04-30T16:24:44Z</time></trkpt><trkpt lat="36.92039066657899" lon="14.984020232999972"><ele>502.75</ele><time>2026-04-30T16:24:45Z</time></trkpt><trkpt lat="36.92029666748631" lon="14.983938805269302"><ele>501.0</ele><time>2026-04-30T16:24:46Z</time></trkpt><trkpt lat="36.9202131770899" lon="14.983842736305643"><ele>501.0</ele><time>2026-04-30T16:24:47Z</time></trkpt><trkpt lat="36.92012333823963" lon="14.983737835515988"><ele>501.0</ele><time>2026-04-30T16:24:48Z</time></trkpt><trkpt lat="36.920070250343976" lon="14.983601477662209"><ele>501.0</ele><time>2026-04-30T16:24:49Z</time></trkpt><trkpt lat="36.92002592473239" lon="14.983467937364829"><ele>501.0</ele><time>2026-04-30T16:24:50Z</time></trkpt><trkpt lat="36.91997438345048" lon="14.98333954950575"><ele>498.5</ele><time>2026-04-30T16:24:51Z</time></trkpt><trkpt lat="36.91990467183546" lon="14.983218303386794"><ele>496.0</ele><time>2026-04-30T16:24:52Z</time></trkpt><trkpt lat="36.919806119482395" lon="14.983115607045681"><ele>493.5</ele><time>2026-04-30T16:24:53Z</time></trkpt><trkpt lat="36.91969151496041" lon="14.983031560630831"><ele>491.0</ele><time>2026-04-30T16:24:54Z</time></trkpt><trkpt lat="36.91955860009135" lon="14.982974400271383"><ele>491.0</ele><time>2026-04-30T16:24:55Z</time></trkpt><trkpt lat="36.91939442019062" lon="14.982932133583262"><ele>491.0</ele><time>2026-04-30T16:24:56Z</time></trkpt><trkpt lat="36.91920804584538" lon="14.982890785173012"><ele>491.0</ele><time>2026-04-30T16:24:57Z</time></trkpt><trkpt lat="36.919012113727746" lon="14.98285059171727"><ele>491.3333333333333</ele><time>2026-04-30T16:24:58Z</time></trkpt><trkpt lat="36.91883268341961" lon="14.982825918839369"><ele>491.66666666666663</ele><time>2026-04-30T16:24:59Z</time></trkpt><trkpt lat="36.91866439179926" lon="14.982821226847506"><ele>492.0</ele><time>2026-04-30T16:25:00Z</time></trkpt><trkpt lat="36.91851146502087" lon="14.982799075760164"><ele>491.0</ele><time>2026-04-30T16:25:01Z</time></trkpt><trkpt lat="36.91837817896907" lon="14.98280807026405"><ele>490.0</ele><time>2026-04-30T16:25:02Z</time></trkpt><trkpt lat="36.91826420828255" lon="14.982818307085898"><ele>489.0</ele><time>2026-04-30T16:25:03Z</time></trkpt><trkpt lat="36.91815363544881" lon="14.982766062927054"><ele>488.0</ele><time>2026-04-30T16:25:04Z</time></trkpt><trkpt lat="36.918053416723865" lon="14.982673066032692"><ele>488.0</ele><time>2026-04-30T16:25:05Z</time></trkpt><trkpt lat="36.91794654518324" lon="14.98253046650818"><ele>488.0</ele><time>2026-04-30T16:25:06Z</time></trkpt><trkpt lat="36.91782802383063" lon="14.98236710101565"><ele>488.0</ele><time>2026-04-30T16:25:07Z</time></trkpt><trkpt lat="36.91771388561152" lon="14.982213278551017"><ele>486.3333333333333</ele><time>2026-04-30T16:25:08Z</time></trkpt><trkpt lat="36.91760676874442" lon="14.982067534085033"><ele>484.66666666666663</ele><time>2026-04-30T16:25:09Z</time></trkpt><trkpt lat="36.91750269545851" lon="14.981916323491356"><ele>483.0</ele><time>2026-04-30T16:25:10Z</time></trkpt><trkpt lat="36.91740517526603" lon="14.981771577601334"><ele>483.0</ele><time>2026-04-30T16:25:11Z</time></trkpt><trkpt lat="36.91731999610345" lon="14.981631850754392"><ele>483.0</ele><time>2026-04-30T16:25:12Z</time></trkpt><trkpt lat="36.917235643405164" lon="14.981491620653166"><ele>483.0</ele><time>2026-04-30T16:25:13Z</time></trkpt><trkpt lat="36.91715861755189" lon="14.98136891359062"><ele>483.0</ele><time>2026-04-30T16:25:14Z</time></trkpt><trkpt lat="36.91709389353466" lon="14.981259808072142"><ele>483.0</ele><time>2026-04-30T16:25:15Z</time></trkpt><trkpt lat="36.917046070930986" lon="14.981159348728095"><ele>482.99999999999994</ele><time>2026-04-30T16:25:16Z</time></trkpt><trkpt lat="36.91699450644148" lon="14.981059754200873"><ele>482.99999999999994</ele><time>2026-04-30T16:25:17Z</time></trkpt><trkpt lat="36.917022629492244" lon="14.980933157878365"><ele>483.0</ele><time>2026-04-30T16:25:18Z</time></trkpt><trkpt lat="36.91706308684657" lon="14.980797306448007"><ele>483.0</ele><time>2026-04-30T16:25:19Z</time></trkpt><trkpt lat="36.917083276510404" lon="14.980661987931798"><ele>481.59999999999997</ele><time>2026-04-30T16:25:20Z</time></trkpt><trkpt lat="36.917108293683214" lon="14.980561380703575"><ele>480.19999999999993</ele><time>2026-04-30T16:25:21Z</time></trkpt><trkpt lat="36.917123434872245" lon="14.98047477868933"><ele>478.8</ele><time>2026-04-30T16:25:22.001Z</time></trkpt><trkpt lat="36.91709177238441" lon="14.980329911802723"><ele>477.4</ele><time>2026-04-30T16:25:24.001Z</time></trkpt><trkpt lat="36.9170043981935" lon="14.980266057620048"><ele>476.0</ele><time>2026-04-30T16:25:25.001Z</time></trkpt><trkpt lat="36.916890345997004" lon="14.980200235776426"><ele>476.0</ele><time>2026-04-30T16:25:26.001Z</time></trkpt><trkpt lat="36.916764478148714" lon="14.980128684653462"><ele>476.0</ele><time>2026-04-30T16:25:27.001Z</time></trkpt><trkpt lat="36.91665315936743" lon="14.980078404047715"><ele>476.0</ele><time>2026-04-30T16:25:28.001Z</time></trkpt><trkpt lat="36.916555075743105" lon="14.980046797277273"><ele>476.0</ele><time>2026-04-30T16:25:29.001Z</time></trkpt><trkpt lat="36.91647455583182" lon="14.980017666879448"><ele>476.0</ele><time>2026-04-30T16:25:30.001Z</time></trkpt><trkpt lat="36.91638712041426" lon="14.979957530256709"><ele>474.16666666666663</ele><time>2026-04-30T16:25:32.001Z</time></trkpt><trkpt lat="36.916353573219176" lon="14.979889791720485"><ele>472.3333333333333</ele><time>2026-04-30T16:25:33.001Z</time></trkpt><trkpt lat="36.91642145279244" lon="14.979792563155696"><ele>470.5</ele><time>2026-04-30T16:25:34.001Z</time></trkpt><trkpt lat="36.91647485582425" lon="14.979716643029992"><ele>468.66666666666663</ele><time>2026-04-30T16:25:35.001Z</time></trkpt><trkpt lat="36.91649696393097" lon="14.97963408777408"><ele>466.8333333333333</ele><time>2026-04-30T16:25:36.001Z</time></trkpt><trkpt lat="36.91648405372879" lon="14.97950035201209"><ele>465.0</ele><time>2026-04-30T16:25:38.001Z</time></trkpt><trkpt lat="36.916384265931214" lon="14.979448805920114"><ele>465.0</ele><time>2026-04-30T16:25:40.001Z</time></trkpt><trkpt lat="36.91629186419573" lon="14.979472830168348"><ele>465.0</ele><time>2026-04-30T16:25:41.001Z</time></trkpt><trkpt lat="36.916193911505786" lon="14.979502857454603"><ele>465.0</ele><time>2026-04-30T16:25:42.001Z</time></trkpt><trkpt lat="36.91608985818037" lon="14.979529899302305"><ele>465.0</ele><time>2026-04-30T16:25:43.001Z</time></trkpt><trkpt lat="36.915991511122115" lon="14.979540683236017"><ele>465.0</ele><time>2026-04-30T16:25:44.001Z</time></trkpt><trkpt lat="36.91590248082626" lon="14.979533619018401"><ele>464.1666666666667</ele><time>2026-04-30T16:25:45.001Z</time></trkpt><trkpt lat="36.915814206798046" lon="14.979501675234022"><ele>463.33333333333337</ele><time>2026-04-30T16:25:46.001Z</time></trkpt><trkpt lat="36.915735992598144" lon="14.979451771963086"><ele>462.5</ele><time>2026-04-30T16:25:47.001Z</time></trkpt><trkpt lat="36.9156675923633" lon="14.979407176464912"><ele>461.6666666666667</ele><time>2026-04-30T16:25:48.001Z</time></trkpt><trkpt lat="36.91559979581913" lon="14.97936414010896"><ele>460.83333333333337</ele><time>2026-04-30T16:25:49.001Z</time></trkpt><trkpt lat="36.91552831129999" lon="14.97933204864242"><ele>460.0</ele><time>2026-04-30T16:25:50.001Z</time></trkpt><trkpt lat="36.915448705343685" lon="14.979324248973715"><ele>460.0</ele><time>2026-04-30T16:25:51.001Z</time></trkpt><trkpt lat="36.915362846937846" lon="14.979351017026346"><ele>460.0</ele><time>2026-04-30T16:25:52.001Z</time></trkpt><trkpt lat="36.9152758774446" lon="14.979392692160294"><ele>460.0</ele><time>2026-04-30T16:25:53.001Z</time></trkpt><trkpt lat="36.91519625492041" lon="14.979479968519154"><ele>460.0</ele><time>2026-04-30T16:25:54.001Z</time></trkpt><trkpt lat="36.91512567143395" lon="14.979589001466804"><ele>460.0</ele><time>2026-04-30T16:25:55.001Z</time></trkpt><trkpt lat="36.91506451201111" lon="14.979705602135098"><ele>459.4</ele><time>2026-04-30T16:25:56.001Z</time></trkpt><trkpt lat="36.9150049011909" lon="14.979824893417097"><ele>458.8</ele><time>2026-04-30T16:25:57.001Z</time></trkpt><trkpt lat="36.914945558023945" lon="14.979936262396123"><ele>458.20000000000005</ele><time>2026-04-30T16:25:58.001Z</time></trkpt><trkpt lat="36.91488308751752" lon="14.980034405188517"><ele>457.6</ele><time>2026-04-30T16:25:59.001Z</time></trkpt><trkpt lat="36.91481052751088" lon="14.980112074592935"><ele>457.0</ele><time>2026-04-30T16:26:00.001Z</time></trkpt><trkpt lat="36.914719397220004" lon="14.980162662889445"><ele>457.0</ele><time>2026-04-30T16:26:01.001Z</time></trkpt><trkpt lat="36.91461149202503" lon="14.98020338812304"><ele>457.0</ele><time>2026-04-30T16:26:02.001Z</time></trkpt><trkpt lat="36.914493599421085" lon="14.980241154483766"><ele>457.0</ele><time>2026-04-30T16:26:03.001Z</time></trkpt><trkpt lat="36.914371398196366" lon="14.980282127907685"><ele>457.0</ele><time>2026-04-30T16:26:04.001Z</time></trkpt><trkpt lat="36.91424823572422" lon="14.980290348549467"><ele>454.20000000000005</ele><time>2026-04-30T16:26:05.001Z</time></trkpt><trkpt lat="36.91413772881125" lon="14.980279436490457"><ele>451.40000000000003</ele><time>2026-04-30T16:26:06.001Z</time></trkpt><trkpt lat="36.914040816759766" lon="14.98025780884826"><ele>448.59999999999997</ele><time>2026-04-30T16:26:07.001Z</time></trkpt><trkpt lat="36.91394644383609" lon="14.980227106186792"><ele>445.79999999999995</ele><time>2026-04-30T16:26:08.001Z</time></trkpt><trkpt lat="36.91384950146951" lon="14.980184501302391"><ele>443.0</ele><time>2026-04-30T16:26:09.001Z</time></trkpt><trkpt lat="36.9137502242036" lon="14.980136118669876"><ele>443.0</ele><time>2026-04-30T16:26:10.001Z</time></trkpt><trkpt lat="36.91365180508804" lon="14.980074242932972"><ele>443.0</ele><time>2026-04-30T16:26:11.001Z</time></trkpt><trkpt lat="36.913552510147525" lon="14.980004305017061"><ele>443.0</ele><time>2026-04-30T16:26:12.001Z</time></trkpt><trkpt lat="36.91344859160628" lon="14.97992987019858"><ele>443.0</ele><time>2026-04-30T16:26:13.001Z</time></trkpt><trkpt lat="36.913345338083744" lon="14.979857498390455"><ele>440.2</ele><time>2026-04-30T16:26:14.001Z</time></trkpt><trkpt lat="36.91324843912825" lon="14.979784994082513"><ele>437.4</ele><time>2026-04-30T16:26:15.001Z</time></trkpt><trkpt lat="36.91316055139308" lon="14.979711726412722"><ele>434.59999999999997</ele><time>2026-04-30T16:26:16.001Z</time></trkpt><trkpt lat="36.9130681983904" lon="14.979641815227572"><ele>431.79999999999995</ele><time>2026-04-30T16:26:17.001Z</time></trkpt><trkpt lat="36.91296568303425" lon="14.979578246540513"><ele>429.0</ele><time>2026-04-30T16:26:18.001Z</time></trkpt><trkpt lat="36.91286177049978" lon="14.979530486156094"><ele>429.0</ele><time>2026-04-30T16:26:19.001Z</time></trkpt><trkpt lat="36.91275646670368" lon="14.979487891789844"><ele>429.0</ele><time>2026-04-30T16:26:20.001Z</time></trkpt><trkpt lat="36.91265760715734" lon="14.979434768335135"><ele>429.0</ele><time>2026-04-30T16:26:21.001Z</time></trkpt><trkpt lat="36.91256364433219" lon="14.979366892220595"><ele>429.0</ele><time>2026-04-30T16:26:22Z</time></trkpt><trkpt lat="36.91247812413469" lon="14.979296373874819"><ele>429.0</ele><time>2026-04-30T16:26:23Z</time></trkpt><trkpt lat="36.912411605969154" lon="14.979240588098339"><ele>427.0</ele><time>2026-04-30T16:26:24Z</time></trkpt><trkpt lat="36.91235189875269" lon="14.979202075865137"><ele>425.0</ele><time>2026-04-30T16:26:25Z</time></trkpt><trkpt lat="36.912278702922336" lon="14.979159882510125"><ele>423.0</ele><time>2026-04-30T16:26:27Z</time></trkpt><trkpt lat="36.91220786519538" lon="14.979347083663084"><ele>421.0</ele><time>2026-04-30T16:27:09Z</time></trkpt><trkpt lat="36.912269127136156" lon="14.97950229990197"><ele>420.6</ele><time>2026-04-30T16:27:11Z</time></trkpt><trkpt lat="36.91229617229951" lon="14.979583408697618"><ele>420.20000000000005</ele><time>2026-04-30T16:27:12Z</time></trkpt><trkpt lat="36.91230573081923" lon="14.979682183771288"><ele>419.79999999999995</ele><time>2026-04-30T16:27:14Z</time></trkpt><trkpt lat="36.91218565664019" lon="14.979710840406991"><ele>419.4</ele><time>2026-04-30T16:27:17Z</time></trkpt><trkpt lat="36.91210774714862" lon="14.979667134260147"><ele>419.0</ele><time>2026-04-30T16:27:18Z</time></trkpt><trkpt lat="36.91200816695048" lon="14.979604140252745"><ele>419.0</ele><time>2026-04-30T16:27:19Z</time></trkpt><trkpt lat="36.911895118692314" lon="14.979528101774529"><ele>419.0</ele><time>2026-04-30T16:27:20Z</time></trkpt><trkpt lat="36.91176625055414" lon="14.979444469669838"><ele>419.0</ele><time>2026-04-30T16:27:21Z</time></trkpt><trkpt lat="36.91163355023994" lon="14.979369944974568"><ele>419.0</ele><time>2026-04-30T16:27:22Z</time></trkpt><trkpt lat="36.9115120075568" lon="14.979298730771227"><ele>416.25</ele><time>2026-04-30T16:27:23Z</time></trkpt><trkpt lat="36.911390452632354" lon="14.979226678034612"><ele>413.5</ele><time>2026-04-30T16:27:24Z</time></trkpt><trkpt lat="36.91127404720035" lon="14.979159146773698"><ele>410.75</ele><time>2026-04-30T16:27:25Z</time></trkpt><trkpt lat="36.911163862631824" lon="14.979093727670863"><ele>408.0</ele><time>2026-04-30T16:27:26Z</time></trkpt><trkpt lat="36.91105660697851" lon="14.9790430668487"><ele>408.0</ele><time>2026-04-30T16:27:27Z</time></trkpt><trkpt lat="36.910960006564885" lon="14.979007477840758"><ele>408.0</ele><time>2026-04-30T16:27:28Z</time></trkpt><trkpt lat="36.91089770322435" lon="14.978966765013572"><ele>408.0</ele><time>2026-04-30T16:27:29Z</time></trkpt><trkpt lat="36.910861194975595" lon="14.978899276427896"><ele>408.0</ele><time>2026-04-30T16:27:30Z</time></trkpt><trkpt lat="36.91082905854463" lon="14.978783059792985"><ele>408.0</ele><time>2026-04-30T16:27:32Z</time></trkpt><trkpt lat="36.9107281285833" lon="14.978790699247773"><ele>408.0</ele><time>2026-04-30T16:27:34Z</time></trkpt><trkpt lat="36.91068186237433" lon="14.978860587555657"><ele>404.79999999999995</ele><time>2026-04-30T16:27:35Z</time></trkpt><trkpt lat="36.91060890576958" lon="14.978834246091937"><ele>401.6</ele><time>2026-04-30T16:27:37Z</time></trkpt><trkpt lat="36.91056200528712" lon="14.978736455357316"><ele>398.4</ele><time>2026-04-30T16:27:38Z</time></trkpt><trkpt lat="36.91051932856939" lon="14.978627503048694"><ele>395.20000000000005</ele><time>2026-04-30T16:27:39Z</time></trkpt><trkpt lat="36.91047655562729" lon="14.978495796256409"><ele>392.0</ele><time>2026-04-30T16:27:40Z</time></trkpt><trkpt lat="36.91043256338325" lon="14.97833914705546"><ele>391.75</ele><time>2026-04-30T16:27:41Z</time></trkpt><trkpt lat="36.91037953540447" lon="14.978194460445025"><ele>391.5</ele><time>2026-04-30T16:27:42Z</time></trkpt><trkpt lat="36.91031778480171" lon="14.97806808315171"><ele>391.25</ele><time>2026-04-30T16:27:43Z</time></trkpt><trkpt lat="36.91025210004892" lon="14.977946919252027"><ele>391.0</ele><time>2026-04-30T16:27:44Z</time></trkpt><trkpt lat="36.9101821785646" lon="14.977830803531885"><ele>391.0</ele><time>2026-04-30T16:27:45Z</time></trkpt><trkpt lat="36.910106858584214" lon="14.977723330009784"><ele>391.0</ele><time>2026-04-30T16:27:46Z</time></trkpt><trkpt lat="36.91002669811922" lon="14.97761944623822"><ele>391.0</ele><time>2026-04-30T16:27:47Z</time></trkpt><trkpt lat="36.90994622942441" lon="14.977519402925395"><ele>391.0</ele><time>2026-04-30T16:27:48.001Z</time></trkpt><trkpt lat="36.90986579391115" lon="14.97741429831225"><ele>387.75</ele><time>2026-04-30T16:27:49.001Z</time></trkpt><trkpt lat="36.90977792514105" lon="14.977300036809572"><ele>384.5</ele><time>2026-04-30T16:27:50.001Z</time></trkpt><trkpt lat="36.909697362178115" lon="14.977176453800249"><ele>381.25</ele><time>2026-04-30T16:27:51.001Z</time></trkpt><trkpt lat="36.909633081032524" lon="14.97704521376856"><ele>378.0</ele><time>2026-04-30T16:27:52.001Z</time></trkpt><trkpt lat="36.90959497102224" lon="14.97690951898267"><ele>378.0</ele><time>2026-04-30T16:27:53.001Z</time></trkpt><trkpt lat="36.909570719365895" lon="14.976776302348341"><ele>378.0</ele><time>2026-04-30T16:27:54.001Z</time></trkpt><trkpt lat="36.90952536181125" lon="14.976676817515871"><ele>378.0</ele><time>2026-04-30T16:27:55.001Z</time></trkpt><trkpt lat="36.909453346800404" lon="14.9766097593224"><ele>378.0</ele><time>2026-04-30T16:27:56.001Z</time></trkpt><trkpt lat="36.90935023162403" lon="14.976590165373322"><ele>378.0</ele><time>2026-04-30T16:27:57.001Z</time></trkpt><trkpt lat="36.909246000159634" lon="14.97660285532461"><ele>377.0</ele><time>2026-04-30T16:27:58.001Z</time></trkpt><trkpt lat="36.90912564747729" lon="14.976646929767712"><ele>376.0</ele><time>2026-04-30T16:27:59.001Z</time></trkpt><trkpt lat="36.90900507586693" lon="14.976699447587363"><ele>375.0</ele><time>2026-04-30T16:28:00.001Z</time></trkpt><trkpt lat="36.90887069791452" lon="14.976721080728087"><ele>374.0</ele><time>2026-04-30T16:28:01.001Z</time></trkpt><trkpt lat="36.908728371893616" lon="14.976779740143025"><ele>371.33333333333337</ele><time>2026-04-30T16:28:02.001Z</time></trkpt><trkpt lat="36.90857111901397" lon="14.976802348746102"><ele>368.6666666666667</ele><time>2026-04-30T16:28:03.001Z</time></trkpt><trkpt lat="36.90841696446978" lon="14.976851850075343"><ele>366.0</ele><time>2026-04-30T16:28:04.001Z</time></trkpt><trkpt lat="36.90827468223888" lon="14.976900037712296"><ele>363.75</ele><time>2026-04-30T16:28:05.001Z</time></trkpt><trkpt lat="36.90814023155191" lon="14.976942697201018"><ele>361.5</ele><time>2026-04-30T16:28:06.001Z</time></trkpt><trkpt lat="36.90800903524199" lon="14.976960830213297"><ele>359.25</ele><time>2026-04-30T16:28:07.001Z</time></trkpt><trkpt lat="36.907891672717454" lon="14.977006357615958"><ele>357.0</ele><time>2026-04-30T16:28:08.001Z</time></trkpt><trkpt lat="36.90777918177196" lon="14.977017210803531"><ele>357.0</ele><time>2026-04-30T16:28:09.001Z</time></trkpt><trkpt lat="36.90767398408903" lon="14.977010684487695"><ele>357.0</ele><time>2026-04-30T16:28:10.001Z</time></trkpt><trkpt lat="36.907566522924085" lon="14.976984238183631"><ele>357.0</ele><time>2026-04-30T16:28:11.001Z</time></trkpt><trkpt lat="36.90744964812869" lon="14.976943681291086"><ele>357.0</ele><time>2026-04-30T16:28:12.001Z</time></trkpt><trkpt lat="36.90733383758987" lon="14.976897669829778"><ele>356.0</ele><time>2026-04-30T16:28:13.001Z</time></trkpt><trkpt lat="36.90722551177092" lon="14.97685065110714"><ele>355.0</ele><time>2026-04-30T16:28:14.001Z</time></trkpt><trkpt lat="36.907123674693054" lon="14.97681544634768"><ele>354.0</ele><time>2026-04-30T16:28:15.001Z</time></trkpt><trkpt lat="36.90701761089643" lon="14.976804492078557"><ele>353.0</ele><time>2026-04-30T16:28:16.001Z</time></trkpt><trkpt lat="36.90690264061551" lon="14.97682850767735"><ele>352.0</ele><time>2026-04-30T16:28:17.001Z</time></trkpt><trkpt lat="36.906778536686815" lon="14.976866585205697"><ele>352.0</ele><time>2026-04-30T16:28:18.001Z</time></trkpt><trkpt lat="36.90664230151235" lon="14.97690711752655"><ele>352.0</ele><time>2026-04-30T16:28:19.001Z</time></trkpt><trkpt lat="36.90650594759956" lon="14.976973811088577"><ele>352.0</ele><time>2026-04-30T16:28:20.001Z</time></trkpt><trkpt lat="36.90636558444051" lon="14.977070956048424"><ele>352.0</ele><time>2026-04-30T16:28:21.001Z</time></trkpt><trkpt lat="36.90620028616335" lon="14.977158793662182"><ele>352.0</ele><time>2026-04-30T16:28:22.001Z</time></trkpt><trkpt lat="36.90604081927841" lon="14.977264580079567"><ele>352.0</ele><time>2026-04-30T16:28:23.001Z</time></trkpt><trkpt lat="36.90588505630899" lon="14.977368097356452"><ele>352.0</ele><time>2026-04-30T16:28:24.001Z</time></trkpt><trkpt lat="36.90574042339635" lon="14.977467860394304"><ele>349.0</ele><time>2026-04-30T16:28:25.001Z</time></trkpt><trkpt lat="36.90560569114818" lon="14.977562721678868"><ele>346.0</ele><time>2026-04-30T16:28:26.001Z</time></trkpt><trkpt lat="36.90547306066446" lon="14.977652412297397"><ele>343.0</ele><time>2026-04-30T16:28:27.001Z</time></trkpt><trkpt lat="36.90534743566998" lon="14.977730974736124"><ele>340.0</ele><time>2026-04-30T16:28:28Z</time></trkpt><trkpt lat="36.90521993255107" lon="14.977813381645577"><ele>340.0</ele><time>2026-04-30T16:28:29Z</time></trkpt><trkpt lat="36.905104225625614" lon="14.977925165219728"><ele>340.0</ele><time>2026-04-30T16:28:30Z</time></trkpt><trkpt lat="36.90499076327956" lon="14.978044073170633"><ele>340.0</ele><time>2026-04-30T16:28:31Z</time></trkpt><trkpt lat="36.90487355472393" lon="14.97816690758858"><ele>340.0</ele><time>2026-04-30T16:28:32Z</time></trkpt><trkpt lat="36.904756010625896" lon="14.978283019489622"><ele>336.5</ele><time>2026-04-30T16:28:33Z</time></trkpt><trkpt lat="36.90464201952991" lon="14.978386158997086"><ele>333.0</ele><time>2026-04-30T16:28:34Z</time></trkpt><trkpt lat="36.904529762626694" lon="14.978481873361531"><ele>329.5</ele><time>2026-04-30T16:28:35Z</time></trkpt><trkpt lat="36.90442799694712" lon="14.978567887066127"><ele>326.0</ele><time>2026-04-30T16:28:36Z</time></trkpt><trkpt lat="36.90434012871305" lon="14.978641098774796"><ele>326.0</ele><time>2026-04-30T16:28:37Z</time></trkpt><trkpt lat="36.90426578828287" lon="14.978709627734153"><ele>326.0</ele><time>2026-04-30T16:28:38Z</time></trkpt><trkpt lat="36.904206908145746" lon="14.978770169870499"><ele>326.0</ele><time>2026-04-30T16:28:39Z</time></trkpt><trkpt lat="36.90415649008181" lon="14.978882195779097"><ele>326.0</ele><time>2026-04-30T16:28:40Z</time></trkpt><trkpt lat="36.9041646305864" lon="14.979028771894908"><ele>326.0</ele><time>2026-04-30T16:28:41Z</time></trkpt><trkpt lat="36.904169655850886" lon="14.9791525130396"><ele>325.0</ele><time>2026-04-30T16:28:42Z</time></trkpt><trkpt lat="36.90417313058123" lon="14.979264352770183"><ele>324.0</ele><time>2026-04-30T16:28:43Z</time></trkpt><trkpt lat="36.90417114954523" lon="14.979367173709585"><ele>323.0</ele><time>2026-04-30T16:28:44Z</time></trkpt><trkpt lat="36.90415572930096" lon="14.979472372730106"><ele>322.0</ele><time>2026-04-30T16:28:45Z</time></trkpt><trkpt lat="36.904115605341154" lon="14.97956914438627"><ele>321.0</ele><time>2026-04-30T16:28:46Z</time></trkpt><trkpt lat="36.9040631509991" lon="14.97968779083645"><ele>321.0</ele><time>2026-04-30T16:28:47Z</time></trkpt><trkpt lat="36.90400854349268" lon="14.979794866415384"><ele>321.0</ele><time>2026-04-30T16:28:48Z</time></trkpt><trkpt lat="36.90395038587958" lon="14.979882163444458"><ele>321.0</ele><time>2026-04-30T16:28:49Z</time></trkpt><trkpt lat="36.903871609785256" lon="14.97993934622451"><ele>321.0</ele><time>2026-04-30T16:28:50Z</time></trkpt><trkpt lat="36.903774523488764" lon="14.98001199993555"><ele>321.0</ele><time>2026-04-30T16:28:51Z</time></trkpt><trkpt lat="36.90367762065521" lon="14.980098032504669"><ele>318.75</ele><time>2026-04-30T16:28:52Z</time></trkpt><trkpt lat="36.90359506677238" lon="14.980207578756643"><ele>316.5</ele><time>2026-04-30T16:28:53Z</time></trkpt><trkpt lat="36.90354012622208" lon="14.980346535751641"><ele>314.25</ele><time>2026-04-30T16:28:54Z</time></trkpt><trkpt lat="36.90349510390777" lon="14.980484136141367"><ele>312.0</ele><time>2026-04-30T16:28:55Z</time></trkpt><trkpt lat="36.9034530634501" lon="14.980604123833366"><ele>312.0</ele><time>2026-04-30T16:28:56Z</time></trkpt><trkpt lat="36.90342816482949" lon="14.980732008887756"><ele>312.0</ele><time>2026-04-30T16:28:57Z</time></trkpt><trkpt lat="36.90343313054593" lon="14.980867226174835"><ele>312.0</ele><time>2026-04-30T16:28:58Z</time></trkpt><trkpt lat="36.903483196496495" lon="14.98098514497869"><ele>312.0</ele><time>2026-04-30T16:28:59Z</time></trkpt><trkpt lat="36.90349949152568" lon="14.981082006530206"><ele>312.0</ele><time>2026-04-30T16:29:00Z</time></trkpt><trkpt lat="36.90346205093524" lon="14.981188906880927"><ele>310.5</ele><time>2026-04-30T16:29:02Z</time></trkpt><trkpt lat="36.903392436390924" lon="14.981245415531482"><ele>309.0</ele><time>2026-04-30T16:29:03Z</time></trkpt><trkpt lat="36.90330770742615" lon="14.981361190338234"><ele>307.5</ele><time>2026-04-30T16:29:04Z</time></trkpt><trkpt lat="36.90320204521478" lon="14.981505567898283"><ele>306.0</ele><time>2026-04-30T16:29:05Z</time></trkpt><trkpt lat="36.90309491917928" lon="14.981651946151908"><ele>302.6666666666667</ele><time>2026-04-30T16:29:06Z</time></trkpt><trkpt lat="36.902991531256724" lon="14.98179501887769"><ele>299.33333333333337</ele><time>2026-04-30T16:29:07Z</time></trkpt><trkpt lat="36.90288685087116" lon="14.981943419078645"><ele>296.0</ele><time>2026-04-30T16:29:08Z</time></trkpt><trkpt lat="36.90278924499915" lon="14.98209485899048"><ele>296.0</ele><time>2026-04-30T16:29:09Z</time></trkpt><trkpt lat="36.90271066016493" lon="14.982245560033277"><ele>296.0</ele><time>2026-04-30T16:29:10Z</time></trkpt><trkpt lat="36.90265215903963" lon="14.982394826551705"><ele>296.0</ele><time>2026-04-30T16:29:11Z</time></trkpt><trkpt lat="36.902593037072776" lon="14.982519383367231"><ele>296.0</ele><time>2026-04-30T16:29:12Z</time></trkpt><trkpt lat="36.90252039720196" lon="14.982634879597866"><ele>295.8</ele><time>2026-04-30T16:29:13Z</time></trkpt><trkpt lat="36.90244313475463" lon="14.982700938041104"><ele>295.6</ele><time>2026-04-30T16:29:14Z</time></trkpt><trkpt lat="36.902363460720444" lon="14.982754323365059"><ele>295.4</ele><time>2026-04-30T16:29:15Z</time></trkpt><trkpt lat="36.90226385089345" lon="14.982790913362019"><ele>295.2</ele><time>2026-04-30T16:29:16Z</time></trkpt><trkpt lat="36.90215848165032" lon="14.98281165374227"><ele>295.0</ele><time>2026-04-30T16:29:17Z</time></trkpt><trkpt lat="36.902027779837766" lon="14.982814543664524"><ele>295.0</ele><time>2026-04-30T16:29:18Z</time></trkpt><trkpt lat="36.901893710858886" lon="14.9828285961106"><ele>295.0</ele><time>2026-04-30T16:29:19Z</time></trkpt><trkpt lat="36.90175872756998" lon="14.982798232455876"><ele>295.0</ele><time>2026-04-30T16:29:20Z</time></trkpt><trkpt lat="36.90163669615707" lon="14.982752333577848"><ele>295.0</ele><time>2026-04-30T16:29:21Z</time></trkpt><trkpt lat="36.90154942430725" lon="14.982689113366126"><ele>296.0</ele><time>2026-04-30T16:29:22Z</time></trkpt><trkpt lat="36.90149367273124" lon="14.98260535747551"><ele>297.0</ele><time>2026-04-30T16:29:23Z</time></trkpt><trkpt lat="36.90145066015167" lon="14.982488810123488"><ele>298.0</ele><time>2026-04-30T16:29:24Z</time></trkpt><trkpt lat="36.90140677333391" lon="14.982366114828194"><ele>299.0</ele><time>2026-04-30T16:29:25Z</time></trkpt><trkpt lat="36.901333315643605" lon="14.98227249269153"><ele>300.0</ele><time>2026-04-30T16:29:26Z</time></trkpt><trkpt lat="36.90123055722633" lon="14.9821974325925"><ele>300.5</ele><time>2026-04-30T16:29:27Z</time></trkpt><trkpt lat="36.90110328355665" lon="14.982126035511085"><ele>301.0</ele><time>2026-04-30T16:29:28Z</time></trkpt><trkpt lat="36.90096927671867" lon="14.982061090272278"><ele>301.5</ele><time>2026-04-30T16:29:29Z</time></trkpt><trkpt lat="36.90085116342534" lon="14.981997620027471"><ele>302.0</ele><time>2026-04-30T16:29:30Z</time></trkpt><trkpt lat="36.900741150560364" lon="14.981922882656315"><ele>302.5</ele><time>2026-04-30T16:29:31Z</time></trkpt><trkpt lat="36.90064147776026" lon="14.981837731146898"><ele>303.0</ele><time>2026-04-30T16:29:32Z</time></trkpt><trkpt lat="36.900541084857636" lon="14.981749113612318"><ele>303.5</ele><time>2026-04-30T16:29:33Z</time></trkpt><trkpt lat="36.90043548386359" lon="14.981637285658358"><ele>304.0</ele><time>2026-04-30T16:29:34Z</time></trkpt><trkpt lat="36.90033014987254" lon="14.981517373947495"><ele>301.3333333333333</ele><time>2026-04-30T16:29:35Z</time></trkpt><trkpt lat="36.900221098870034" lon="14.981395036309127"><ele>298.6666666666667</ele><time>2026-04-30T16:29:36Z</time></trkpt><trkpt lat="36.90011057056165" lon="14.98124736713823"><ele>296.0</ele><time>2026-04-30T16:29:37Z</time></trkpt><trkpt lat="36.90000027871698" lon="14.981078517690477"><ele>296.0</ele><time>2026-04-30T16:29:38Z</time></trkpt><trkpt lat="36.899896982818966" lon="14.980915316397791"><ele>296.0</ele><time>2026-04-30T16:29:39Z</time></trkpt><trkpt lat="36.89980140510937" lon="14.980766517304634"><ele>296.0</ele><time>2026-04-30T16:29:40Z</time></trkpt><trkpt lat="36.899707250837196" lon="14.980625742380978"><ele>295.0</ele><time>2026-04-30T16:29:41Z</time></trkpt><trkpt lat="36.89962582393494" lon="14.980484801523376"><ele>294.0</ele><time>2026-04-30T16:29:42Z</time></trkpt><trkpt lat="36.89955954904823" lon="14.980350738997892"><ele>293.0</ele><time>2026-04-30T16:29:43Z</time></trkpt><trkpt lat="36.89951197741996" lon="14.980206280958217"><ele>292.0</ele><time>2026-04-30T16:29:44Z</time></trkpt><trkpt lat="36.899483126030724" lon="14.98004964146294"><ele>288.0</ele><time>2026-04-30T16:29:45Z</time></trkpt><trkpt lat="36.89943926258084" lon="14.979876245794424"><ele>284.0</ele><time>2026-04-30T16:29:46Z</time></trkpt><trkpt lat="36.899380876296476" lon="14.979691906613963"><ele>280.0</ele><time>2026-04-30T16:29:47Z</time></trkpt><trkpt lat="36.89930969574642" lon="14.97951268935831"><ele>280.0</ele><time>2026-04-30T16:29:48Z</time></trkpt><trkpt lat="36.89925958885349" lon="14.979376374337743"><ele>280.0</ele><time>2026-04-30T16:29:49Z</time></trkpt><trkpt lat="36.899223621401795" lon="14.979294837540674"><ele>280.0</ele><time>2026-04-30T16:29:50Z</time></trkpt><trkpt lat="36.89916773751614" lon="14.979246254550448"><ele>280.0</ele><time>2026-04-30T16:29:51Z</time></trkpt><trkpt lat="36.899083516319706" lon="14.9792075098102"><ele>280.0</ele><time>2026-04-30T16:29:52Z</time></trkpt><trkpt lat="36.89895934733605" lon="14.97915680811522"><ele>283.0</ele><time>2026-04-30T16:29:53Z</time></trkpt><trkpt lat="36.898812873969966" lon="14.97908918983413"><ele>286.0</ele><time>2026-04-30T16:29:54Z</time></trkpt><trkpt lat="36.89866149162743" lon="14.979007399816828"><ele>289.0</ele><time>2026-04-30T16:29:55Z</time></trkpt><trkpt lat="36.89850937735795" lon="14.978928364130645"><ele>288.66666666666663</ele><time>2026-04-30T16:29:56Z</time></trkpt><trkpt lat="36.898346331600116" lon="14.978842602461592"><ele>288.3333333333333</ele><time>2026-04-30T16:29:57Z</time></trkpt><trkpt lat="36.89818124151502" lon="14.978746579915354"><ele>288.0</ele><time>2026-04-30T16:29:58Z</time></trkpt><trkpt lat="36.898031234479774" lon="14.978664109672186"><ele>288.0</ele><time>2026-04-30T16:29:59Z</time></trkpt><trkpt lat="36.89789518506156" lon="14.978595741998998"><ele>288.0</ele><time>2026-04-30T16:30:00Z</time></trkpt><trkpt lat="36.89777858337859" lon="14.978541294044838"><ele>288.0</ele><time>2026-04-30T16:30:01Z</time></trkpt><trkpt lat="36.897671643517576" lon="14.978495013395854"><ele>288.0</ele><time>2026-04-30T16:30:02Z</time></trkpt><trkpt lat="36.897570270999715" lon="14.97848129835885"><ele>286.5</ele><time>2026-04-30T16:30:03Z</time></trkpt><trkpt lat="36.89746529891879" lon="14.978504158109818"><ele>285.0</ele><time>2026-04-30T16:30:04Z</time></trkpt><trkpt lat="36.897343883919746" lon="14.978541595640598"><ele>283.5</ele><time>2026-04-30T16:30:05Z</time></trkpt><trkpt lat="36.89720425726651" lon="14.97859432636051"><ele>282.0</ele><time>2026-04-30T16:30:06Z</time></trkpt><trkpt lat="36.89708199330513" lon="14.978637852020357"><ele>282.0</ele><time>2026-04-30T16:30:07Z</time></trkpt><trkpt lat="36.89696889266252" lon="14.978648533011935"><ele>282.0</ele><time>2026-04-30T16:30:08Z</time></trkpt><trkpt lat="36.89684409404738" lon="14.97864264235283"><ele>282.0</ele><time>2026-04-30T16:30:09Z</time></trkpt><trkpt lat="36.89671244898757" lon="14.978641810099543"><ele>282.0</ele><time>2026-04-30T16:30:10Z</time></trkpt><trkpt lat="36.8965848189548" lon="14.978640902998904"><ele>281.4</ele><time>2026-04-30T16:30:11Z</time></trkpt><trkpt lat="36.896464933336766" lon="14.97863031649587"><ele>280.79999999999995</ele><time>2026-04-30T16:30:12.001Z</time></trkpt><trkpt lat="36.89634700738474" lon="14.978605131235096"><ele>280.2</ele><time>2026-04-30T16:30:13.001Z</time></trkpt><trkpt lat="36.89624154495373" lon="14.978574919795646"><ele>279.59999999999997</ele><time>2026-04-30T16:30:14.001Z</time></trkpt><trkpt lat="36.89615202069451" lon="14.97854342948067"><ele>279.0</ele><time>2026-04-30T16:30:15.001Z</time></trkpt><trkpt lat="36.89607275248687" lon="14.978504129855464"><ele>279.0</ele><time>2026-04-30T16:30:16.001Z</time></trkpt><trkpt lat="36.89600800158499" lon="14.978450670229538"><ele>279.0</ele><time>2026-04-30T16:30:17.001Z</time></trkpt><trkpt lat="36.89595969421428" lon="14.978385533348806"><ele>279.0</ele><time>2026-04-30T16:30:18.001Z</time></trkpt><trkpt lat="36.89594544758099" lon="14.978303819432037"><ele>279.0</ele><time>2026-04-30T16:30:19.001Z</time></trkpt><trkpt lat="36.89595941566352" lon="14.978204377164134"><ele>279.0</ele><time>2026-04-30T16:30:20.001Z</time></trkpt><trkpt lat="36.89598478548486" lon="14.978088020721978"><ele>279.0</ele><time>2026-04-30T16:30:21.001Z</time></trkpt><trkpt lat="36.8959761885449" lon="14.977963930320799"><ele>278.8333333333333</ele><time>2026-04-30T16:30:22.001Z</time></trkpt><trkpt lat="36.895971281974866" lon="14.977849053220998"><ele>278.6666666666667</ele><time>2026-04-30T16:30:23.001Z</time></trkpt><trkpt lat="36.89592487601005" lon="14.97775378628063"><ele>278.5</ele><time>2026-04-30T16:30:24.001Z</time></trkpt><trkpt lat="36.89586993414132" lon="14.977674121430459"><ele>278.33333333333337</ele><time>2026-04-30T16:30:25.001Z</time></trkpt><trkpt lat="36.89580421656975" lon="14.977614447455133"><ele>278.1666666666667</ele><time>2026-04-30T16:30:26.001Z</time></trkpt><trkpt lat="36.89573118623999" lon="14.977597541959643"><ele>278.0</ele><time>2026-04-30T16:30:27.001Z</time></trkpt><trkpt lat="36.8956535995932" lon="14.97758864427028"><ele>278.0</ele><time>2026-04-30T16:30:28.001Z</time></trkpt><trkpt lat="36.895569270725936" lon="14.97764390069362"><ele>278.0</ele><time>2026-04-30T16:30:29.001Z</time></trkpt><trkpt lat="36.89549446997173" lon="14.977708401060543"><ele>278.0</ele><time>2026-04-30T16:30:30.001Z</time></trkpt><trkpt lat="36.89542896378215" lon="14.97777138350371"><ele>278.0</ele><time>2026-04-30T16:30:31.001Z</time></trkpt><trkpt lat="36.895374594531766" lon="14.977823073634253"><ele>278.0</ele><time>2026-04-30T16:30:32.001Z</time></trkpt><trkpt lat="36.895287499183326" lon="14.977884028739936"><ele>278.0</ele><time>2026-04-30T16:30:34Z</time></trkpt><trkpt lat="36.89521805705708" lon="14.977843664647631"><ele>278.0</ele><time>2026-04-30T16:30:35Z</time></trkpt><trkpt lat="36.89515258631266" lon="14.97776147444697"><ele>278.0</ele><time>2026-04-30T16:30:36Z</time></trkpt><trkpt lat="36.89509200191908" lon="14.977651500258498"><ele>278.0</ele><time>2026-04-30T16:30:37Z</time></trkpt><trkpt lat="36.89505938845076" lon="14.977548818224099"><ele>278.0</ele><time>2026-04-30T16:30:38Z</time></trkpt><trkpt lat="36.89505673447233" lon="14.977459779362839"><ele>278.0</ele><time>2026-04-30T16:30:39Z</time></trkpt><trkpt lat="36.89506575952505" lon="14.977373913352013"><ele>278.0</ele><time>2026-04-30T16:30:40Z</time></trkpt><trkpt lat="36.89503493591568" lon="14.977268788753"><ele>275.6</ele><time>2026-04-30T16:30:42Z</time></trkpt><trkpt lat="36.894933134632964" lon="14.977257991720561"><ele>273.20000000000005</ele><time>2026-04-30T16:30:43Z</time></trkpt><trkpt lat="36.8948513613012" lon="14.977279691601865"><ele>270.8</ele><time>2026-04-30T16:30:44Z</time></trkpt><trkpt lat="36.894768064965774" lon="14.977355442614783"><ele>268.40000000000003</ele><time>2026-04-30T16:30:45Z</time></trkpt><trkpt lat="36.894712563475245" lon="14.977427867951"><ele>266.0</ele><time>2026-04-30T16:30:46Z</time></trkpt><trkpt lat="36.89467406041526" lon="14.977520215119325"><ele>266.0</ele><time>2026-04-30T16:30:47Z</time></trkpt><trkpt lat="36.89466500892051" lon="14.977622478567962"><ele>266.0</ele><time>2026-04-30T16:30:48Z</time></trkpt><trkpt lat="36.89472997659612" lon="14.97772383651828"><ele>266.0</ele><time>2026-04-30T16:30:49Z</time></trkpt><trkpt lat="36.894754326564794" lon="14.977807361287784"><ele>266.0</ele><time>2026-04-30T16:30:50Z</time></trkpt><trkpt lat="36.89475548831182" lon="14.977953546265367"><ele>266.0</ele><time>2026-04-30T16:30:52Z</time></trkpt><trkpt lat="36.89473224279928" lon="14.978048283237888"><ele>266.0</ele><time>2026-04-30T16:30:53Z</time></trkpt><trkpt lat="36.894698267694345" lon="14.978169655058627"><ele>266.0</ele><time>2026-04-30T16:30:54Z</time></trkpt><trkpt lat="36.894649340488186" lon="14.978299653626646"><ele>266.0</ele><time>2026-04-30T16:30:55Z</time></trkpt><trkpt lat="36.89458077125134" lon="14.978469293835655"><ele>266.0</ele><time>2026-04-30T16:30:56Z</time></trkpt><trkpt lat="36.894503752928024" lon="14.97865240278705"><ele>267.75</ele><time>2026-04-30T16:30:57Z</time></trkpt><trkpt lat="36.89442851053842" lon="14.978816255822727"><ele>269.5</ele><time>2026-04-30T16:30:58Z</time></trkpt><trkpt lat="36.89436254981432" lon="14.978964073864203"><ele>271.25</ele><time>2026-04-30T16:30:59Z</time></trkpt><trkpt lat="36.89430543312082" lon="14.97910336837271"><ele>273.0</ele><time>2026-04-30T16:31:00Z</time></trkpt><trkpt lat="36.89425602482249" lon="14.97922584340791"><ele>269.75</ele><time>2026-04-30T16:31:01Z</time></trkpt><trkpt lat="36.89418858199303" lon="14.979334550418743"><ele>266.5</ele><time>2026-04-30T16:31:02Z</time></trkpt><trkpt lat="36.8940871749495" lon="14.979431807030965"><ele>263.25</ele><time>2026-04-30T16:31:03Z</time></trkpt><trkpt lat="36.89398860562656" lon="14.979536405829695"><ele>260.0</ele><time>2026-04-30T16:31:04Z</time></trkpt><trkpt lat="36.89390350243194" lon="14.979628082549489"><ele>260.0</ele><time>2026-04-30T16:31:05Z</time></trkpt><trkpt lat="36.89382908315019" lon="14.979723892294285"><ele>260.0</ele><time>2026-04-30T16:31:06Z</time></trkpt><trkpt lat="36.89375730037752" lon="14.979825341460879"><ele>260.0</ele><time>2026-04-30T16:31:07Z</time></trkpt><trkpt lat="36.89370369051497" lon="14.979916726114194"><ele>260.0</ele><time>2026-04-30T16:31:08Z</time></trkpt><trkpt lat="36.893694578716676" lon="14.98004474875219"><ele>260.0</ele><time>2026-04-30T16:31:09Z</time></trkpt><trkpt lat="36.89371149386196" lon="14.980169999540344"><ele>262.0</ele><time>2026-04-30T16:31:10Z</time></trkpt><trkpt lat="36.89369407723815" lon="14.980250125322783"><ele>264.0</ele><time>2026-04-30T16:31:11Z</time></trkpt><trkpt lat="36.893602607782846" lon="14.980364146022021"><ele>266.0</ele><time>2026-04-30T16:31:13Z</time></trkpt><trkpt lat="36.89349905844576" lon="14.980375686088665"><ele>268.0</ele><time>2026-04-30T16:31:14Z</time></trkpt><trkpt lat="36.89338502913324" lon="14.980377315472653"><ele>270.0</ele><time>2026-04-30T16:31:15Z</time></trkpt><trkpt lat="36.89330012142584" lon="14.9803980515264"><ele>267.85714285714283</ele><time>2026-04-30T16:31:16Z</time></trkpt><trkpt lat="36.89323874551911" lon="14.980442483596127"><ele>265.71428571428567</ele><time>2026-04-30T16:31:17Z</time></trkpt><trkpt lat="36.893186738615135" lon="14.980493552862287"><ele>263.57142857142856</ele><time>2026-04-30T16:31:18Z</time></trkpt><trkpt lat="36.89317769658085" lon="14.980597542946434"><ele>261.42857142857144</ele><time>2026-04-30T16:31:19Z</time></trkpt><trkpt lat="36.89320031696074" lon="14.980687991962668"><ele>259.28571428571433</ele><time>2026-04-30T16:31:20Z</time></trkpt><trkpt lat="36.89320422140015" lon="14.98077851635222"><ele>257.14285714285717</ele><time>2026-04-30T16:31:21Z</time></trkpt><trkpt lat="36.89317343037836" lon="14.980864264928076"><ele>255.0</ele><time>2026-04-30T16:31:22Z</time></trkpt><trkpt lat="36.893137172188105" lon="14.980938286561003"><ele>255.0</ele><time>2026-04-30T16:31:23Z</time></trkpt><trkpt lat="36.89309613197258" lon="14.981046327365574"><ele>255.0</ele><time>2026-04-30T16:31:25Z</time></trkpt><trkpt lat="36.89303293212992" lon="14.981016052995718"><ele>255.0</ele><time>2026-04-30T16:31:27Z</time></trkpt><trkpt lat="36.89308183353323" lon="14.980861289527287"><ele>255.0</ele><time>2026-04-30T16:31:29Z</time></trkpt><trkpt lat="36.893109019799184" lon="14.980761185063317"><ele>255.0</ele><time>2026-04-30T16:31:30Z</time></trkpt><trkpt lat="36.8931013360231" lon="14.98065959386971"><ele>252.8</ele><time>2026-04-30T16:31:31Z</time></trkpt><trkpt lat="36.89305487663419" lon="14.980558093051643"><ele>250.6</ele><time>2026-04-30T16:31:32Z</time></trkpt><trkpt lat="36.89302537377366" lon="14.980457802659124"><ele>248.39999999999998</ele><time>2026-04-30T16:31:33Z</time></trkpt><trkpt lat="36.89303479872196" lon="14.980348671385402"><ele>246.2</ele><time>2026-04-30T16:31:34Z</time></trkpt><trkpt lat="36.89306915023697" lon="14.980229672574618"><ele>244.0</ele><time>2026-04-30T16:31:35Z</time></trkpt><trkpt lat="36.893122797990415" lon="14.980107590309395"><ele>241.39999999999998</ele><time>2026-04-30T16:31:36Z</time></trkpt><trkpt lat="36.8931980893278" lon="14.97999627928966"><ele>238.79999999999998</ele><time>2026-04-30T16:31:37Z</time></trkpt><trkpt lat="36.89327432601162" lon="14.979907767513499"><ele>236.20000000000002</ele><time>2026-04-30T16:31:38Z</time></trkpt><trkpt lat="36.89332887703476" lon="14.979819017214686"><ele>233.60000000000002</ele><time>2026-04-30T16:31:39Z</time></trkpt><trkpt lat="36.89335747646877" lon="14.979734712881156"><ele>231.0</ele><time>2026-04-30T16:31:40Z</time></trkpt><trkpt lat="36.8933313119255" lon="14.979608221002941"><ele>231.0</ele><time>2026-04-30T16:31:42Z</time></trkpt><trkpt lat="36.89323009800098" lon="14.979551589178032"><ele>231.00000000000003</ele><time>2026-04-30T16:31:44Z</time></trkpt><trkpt lat="36.893160683249256" lon="14.97958383359682"><ele>231.00000000000003</ele><time>2026-04-30T16:31:45Z</time></trkpt><trkpt lat="36.893093785853374" lon="14.979639535336274"><ele>231.0</ele><time>2026-04-30T16:31:46Z</time></trkpt><trkpt lat="36.89299567781805" lon="14.9796990547173"><ele>231.0</ele><time>2026-04-30T16:31:47Z</time></trkpt><trkpt lat="36.89289351871936" lon="14.979768526884493"><ele>231.0</ele><time>2026-04-30T16:31:48Z</time></trkpt><trkpt lat="36.89279928630414" lon="14.979832545226817"><ele>231.00000000000003</ele><time>2026-04-30T16:31:49Z</time></trkpt><trkpt lat="36.892711853202194" lon="14.979896313351832"><ele>231.00000000000003</ele><time>2026-04-30T16:31:50Z</time></trkpt><trkpt lat="36.89262894732801" lon="14.979989005067049"><ele>231.0</ele><time>2026-04-30T16:31:51Z</time></trkpt><trkpt lat="36.89256383481318" lon="14.980128157901243"><ele>231.0</ele><time>2026-04-30T16:31:52Z</time></trkpt><trkpt lat="36.892465586512515" lon="14.98025198099631"><ele>224.66666666666669</ele><time>2026-04-30T16:31:53Z</time></trkpt><trkpt lat="36.89235922099069" lon="14.980352991449228"><ele>218.33333333333334</ele><time>2026-04-30T16:31:54Z</time></trkpt><trkpt lat="36.89222446928198" lon="14.980467288451226"><ele>212.0</ele><time>2026-04-30T16:31:55Z</time></trkpt><trkpt lat="36.892087354922786" lon="14.980584238165907"><ele>212.0</ele><time>2026-04-30T16:31:56Z</time></trkpt><trkpt lat="36.891964046589656" lon="14.980728747606904"><ele>212.0</ele><time>2026-04-30T16:31:57Z</time></trkpt><trkpt lat="36.8918554251097" lon="14.980866856478285"><ele>212.0</ele><time>2026-04-30T16:31:58Z</time></trkpt><trkpt lat="36.891728680197716" lon="14.98097875622343"><ele>208.25</ele><time>2026-04-30T16:31:59Z</time></trkpt><trkpt lat="36.89161205015544" lon="14.981095166426885"><ele>204.5</ele><time>2026-04-30T16:32:00Z</time></trkpt><trkpt lat="36.8915086444808" lon="14.981196263915132"><ele>200.75</ele><time>2026-04-30T16:32:01Z</time></trkpt><trkpt lat="36.89140243920297" lon="14.981287876706187"><ele>197.0</ele><time>2026-04-30T16:32:02Z</time></trkpt><trkpt lat="36.891281357268724" lon="14.98137324503518"><ele>197.0</ele><time>2026-04-30T16:32:03Z</time></trkpt><trkpt lat="36.89114695460597" lon="14.98145484111773"><ele>197.0</ele><time>2026-04-30T16:32:04Z</time></trkpt><trkpt lat="36.891020102739326" lon="14.981529115786335"><ele>197.0</ele><time>2026-04-30T16:32:05Z</time></trkpt><trkpt lat="36.890887921455636" lon="14.981607840419407"><ele>197.0</ele><time>2026-04-30T16:32:06Z</time></trkpt><trkpt lat="36.89075696043876" lon="14.981691317154102"><ele>193.0</ele><time>2026-04-30T16:32:07Z</time></trkpt><trkpt lat="36.890628434243084" lon="14.98176540589187"><ele>189.0</ele><time>2026-04-30T16:32:08Z</time></trkpt><trkpt lat="36.890501041767" lon="14.981831701277178"><ele>185.0</ele><time>2026-04-30T16:32:09Z</time></trkpt><trkpt lat="36.89038001274589" lon="14.98189087056512"><ele>181.0</ele><time>2026-04-30T16:32:10Z</time></trkpt><trkpt lat="36.890267373488754" lon="14.981940767294713"><ele>181.0</ele><time>2026-04-30T16:32:11Z</time></trkpt><trkpt lat="36.890171186544016" lon="14.98202074261561"><ele>181.0</ele><time>2026-04-30T16:32:12Z</time></trkpt><trkpt lat="36.89008067677452" lon="14.982090566545068"><ele>181.0</ele><time>2026-04-30T16:32:13Z</time></trkpt><trkpt lat="36.889991857389006" lon="14.982143202452507"><ele>181.0</ele><time>2026-04-30T16:32:14Z</time></trkpt><trkpt lat="36.88993428319195" lon="14.982176495362074"><ele>181.0</ele><time>2026-04-30T16:32:15Z</time></trkpt><trkpt lat="36.88985065499573" lon="14.982277874519568"><ele>181.0</ele><time>2026-04-30T16:32:17Z</time></trkpt><trkpt lat="36.88987282429921" lon="14.982370802914149"><ele>181.0</ele><time>2026-04-30T16:32:18Z</time></trkpt><trkpt lat="36.889919349717" lon="14.982435714895976"><ele>181.0</ele><time>2026-04-30T16:32:19Z</time></trkpt><trkpt lat="36.89002525065242" lon="14.982405587896265"><ele>181.0</ele><time>2026-04-30T16:32:20Z</time></trkpt><trkpt lat="36.890109176822776" lon="14.982335291226757"><ele>181.0</ele><time>2026-04-30T16:32:21Z</time></trkpt><trkpt lat="36.890172418352094" lon="14.982260800536443"><ele>181.0</ele><time>2026-04-30T16:32:22Z</time></trkpt><trkpt lat="36.89022301448277" lon="14.98219604479768"><ele>181.0</ele><time>2026-04-30T16:32:23Z</time></trkpt><trkpt lat="36.890281416988614" lon="14.982148333469688"><ele>181.0</ele><time>2026-04-30T16:32:24Z</time></trkpt><trkpt lat="36.8903616010744" lon="14.982127554621265"><ele>181.0</ele><time>2026-04-30T16:32:26Z</time></trkpt><trkpt lat="36.890358730108666" lon="14.982246510185506"><ele>181.0</ele><time>2026-04-30T16:32:28Z</time></trkpt><trkpt lat="36.89030196768974" lon="14.98231817077666"><ele>181.0</ele><time>2026-04-30T16:32:29Z</time></trkpt><trkpt lat="36.890243760511744" lon="14.982412359755989"><ele>181.0</ele><time>2026-04-30T16:32:30.001Z</time></trkpt><trkpt lat="36.89018191496448" lon="14.982506239844657"><ele>180.0</ele><time>2026-04-30T16:32:31.001Z</time></trkpt><trkpt lat="36.890119365987" lon="14.982630746755216"><ele>179.0</ele><time>2026-04-30T16:32:32.001Z</time></trkpt><trkpt lat="36.89003981394073" lon="14.982754078932368"><ele>178.0</ele><time>2026-04-30T16:32:33.001Z</time></trkpt><trkpt lat="36.88995662361003" lon="14.982864520120145"><ele>177.0</ele><time>2026-04-30T16:32:34.001Z</time></trkpt><trkpt lat="36.88988420231252" lon="14.98299186387045"><ele>172.75</ele><time>2026-04-30T16:32:35.001Z</time></trkpt><trkpt lat="36.889809784683166" lon="14.983083020556826"><ele>168.5</ele><time>2026-04-30T16:32:36.001Z</time></trkpt><trkpt lat="36.889724639103676" lon="14.98317407487285"><ele>164.25</ele><time>2026-04-30T16:32:37.001Z</time></trkpt><trkpt lat="36.88963246523735" lon="14.983264879587981"><ele>160.0</ele><time>2026-04-30T16:32:38.001Z</time></trkpt><trkpt lat="36.889536505634545" lon="14.983359795908743"><ele>158.0</ele><time>2026-04-30T16:32:39.001Z</time></trkpt><trkpt lat="36.88946169084768" lon="14.983484157612736"><ele>156.0</ele><time>2026-04-30T16:32:40Z</time></trkpt><trkpt lat="36.889402327823255" lon="14.983604251182928"><ele>154.0</ele><time>2026-04-30T16:32:41Z</time></trkpt><trkpt lat="36.889335548258245" lon="14.983713499363562"><ele>152.0</ele><time>2026-04-30T16:32:42Z</time></trkpt><trkpt lat="36.88926197318297" lon="14.983815421096253"><ele>149.75</ele><time>2026-04-30T16:32:43Z</time></trkpt><trkpt lat="36.889152025225535" lon="14.983886212111967"><ele>147.5</ele><time>2026-04-30T16:32:44Z</time></trkpt><trkpt lat="36.889024161739336" lon="14.983928171087229"><ele>145.25</ele><time>2026-04-30T16:32:45Z</time></trkpt><trkpt lat="36.88888426416197" lon="14.983952836467434"><ele>143.0</ele><time>2026-04-30T16:32:46Z</time></trkpt><trkpt lat="36.888733279732776" lon="14.983974170464508"><ele>143.0</ele><time>2026-04-30T16:32:47Z</time></trkpt><trkpt lat="36.88858099740336" lon="14.98397198853578"><ele>143.0</ele><time>2026-04-30T16:32:48Z</time></trkpt><trkpt lat="36.888441416553746" lon="14.983964019836813"><ele>143.0</ele><time>2026-04-30T16:32:49Z</time></trkpt><trkpt lat="36.88830042216848" lon="14.983948259108798"><ele>143.0</ele><time>2026-04-30T16:32:50Z</time></trkpt><trkpt lat="36.888155666761484" lon="14.98391561222036"><ele>141.33333333333331</ele><time>2026-04-30T16:32:51Z</time></trkpt><trkpt lat="36.88800827542722" lon="14.98386226740066"><ele>139.66666666666666</ele><time>2026-04-30T16:32:52Z</time></trkpt><trkpt lat="36.88783961068356" lon="14.983792112730308"><ele>138.0</ele><time>2026-04-30T16:32:53Z</time></trkpt><trkpt lat="36.887646671859756" lon="14.983714371497921"><ele>135.33333333333334</ele><time>2026-04-30T16:32:54Z</time></trkpt><trkpt lat="36.88744786725014" lon="14.983633342950272"><ele>132.66666666666669</ele><time>2026-04-30T16:32:55Z</time></trkpt><trkpt lat="36.88727283318815" lon="14.983561556308684"><ele>130.0</ele><time>2026-04-30T16:32:56Z</time></trkpt><trkpt lat="36.88711088161153" lon="14.983492090887268"><ele>130.0</ele><time>2026-04-30T16:32:57Z</time></trkpt><trkpt lat="36.886952865685316" lon="14.983428661724593"><ele>130.0</ele><time>2026-04-30T16:32:58Z</time></trkpt><trkpt lat="36.886803231541236" lon="14.983368448356378"><ele>130.0</ele><time>2026-04-30T16:32:59Z</time></trkpt><trkpt lat="36.88667330684407" lon="14.983309827858477"><ele>129.8</ele><time>2026-04-30T16:33:00Z</time></trkpt><trkpt lat="36.88655759385273" lon="14.983265689368542"><ele>129.6</ele><time>2026-04-30T16:33:01Z</time></trkpt><trkpt lat="36.88646803707994" lon="14.983237964139464"><ele>129.4</ele><time>2026-04-30T16:33:02Z</time></trkpt><trkpt lat="36.88638958085982" lon="14.983218235406467"><ele>129.2</ele><time>2026-04-30T16:33:03Z</time></trkpt><trkpt lat="36.8863048057005" lon="14.983203001585695"><ele>129.0</ele><time>2026-04-30T16:33:04Z</time></trkpt><trkpt lat="36.88620037740355" lon="14.9832852545485"><ele>127.33333333333334</ele><time>2026-04-30T16:33:05Z</time></trkpt><trkpt lat="36.88610259394784" lon="14.983410017795997"><ele>125.66666666666667</ele><time>2026-04-30T16:33:06Z</time></trkpt><trkpt lat="36.886005812949385" lon="14.983588020446179"><ele>124.0</ele><time>2026-04-30T16:33:07Z</time></trkpt><trkpt lat="36.88589775562442" lon="14.983771802378179"><ele>124.0</ele><time>2026-04-30T16:33:08Z</time></trkpt><trkpt lat="36.88578556538903" lon="14.983955927116314"><ele>124.0</ele><time>2026-04-30T16:33:09Z</time></trkpt><trkpt lat="36.88565867632698" lon="14.984163706431657"><ele>124.0</ele><time>2026-04-30T16:33:10Z</time></trkpt><trkpt lat="36.88552338283878" lon="14.984374550624475"><ele>124.0</ele><time>2026-04-30T16:33:11Z</time></trkpt><trkpt lat="36.88538557097863" lon="14.984586996809936"><ele>124.0</ele><time>2026-04-30T16:33:12Z</time></trkpt><trkpt lat="36.88523878012047" lon="14.984792754667515"><ele>124.0</ele><time>2026-04-30T16:33:13Z</time></trkpt><trkpt lat="36.88508567999133" lon="14.985005369227911"><ele>126.0</ele><time>2026-04-30T16:33:14Z</time></trkpt><trkpt lat="36.88494317258899" lon="14.9852145127836"><ele>128.0</ele><time>2026-04-30T16:33:15Z</time></trkpt><trkpt lat="36.88480949985757" lon="14.98542678858522"><ele>130.0</ele><time>2026-04-30T16:33:16Z</time></trkpt><trkpt lat="36.88471265819899" lon="14.985617498079682"><ele>130.0</ele><time>2026-04-30T16:33:17Z</time></trkpt><trkpt lat="36.88463286160973" lon="14.985778000139081"><ele>130.0</ele><time>2026-04-30T16:33:18Z</time></trkpt><trkpt lat="36.88455922496054" lon="14.985928226136288"><ele>130.0</ele><time>2026-04-30T16:33:19Z</time></trkpt><trkpt lat="36.88450042348122" lon="14.986053613483321"><ele>130.0</ele><time>2026-04-30T16:33:20Z</time></trkpt><trkpt lat="36.884449789488194" lon="14.986155046947468"><ele>129.0</ele><time>2026-04-30T16:33:21Z</time></trkpt><trkpt lat="36.884391304019196" lon="14.986219481560223"><ele>128.0</ele><time>2026-04-30T16:33:22Z</time></trkpt><trkpt lat="36.884326207534286" lon="14.98627042653317"><ele>127.0</ele><time>2026-04-30T16:33:23Z</time></trkpt><trkpt lat="36.88420797804999" lon="14.986227565596781"><ele>126.0</ele><time>2026-04-30T16:33:24Z</time></trkpt><trkpt lat="36.88406363397116" lon="14.986231527299251"><ele>125.0</ele><time>2026-04-30T16:33:25Z</time></trkpt><trkpt lat="36.88390475617569" lon="14.986244097623509"><ele>125.0</ele><time>2026-04-30T16:33:26Z</time></trkpt><trkpt lat="36.88376668903626" lon="14.986253431617188"><ele>125.0</ele><time>2026-04-30T16:33:27Z</time></trkpt><trkpt lat="36.883657435656545" lon="14.986258809271574"><ele>125.0</ele><time>2026-04-30T16:33:28Z</time></trkpt><trkpt lat="36.88356369663524" lon="14.986291597841417"><ele>125.0</ele><time>2026-04-30T16:33:29Z</time></trkpt><trkpt lat="36.883492597585615" lon="14.986356983398347"><ele>125.0</ele><time>2026-04-30T16:33:30Z</time></trkpt><trkpt lat="36.88340803950005" lon="14.986444771762981"><ele>124.33333333333333</ele><time>2026-04-30T16:33:31Z</time></trkpt><trkpt lat="36.88332128246763" lon="14.986577425232824"><ele>123.66666666666666</ele><time>2026-04-30T16:33:32Z</time></trkpt><trkpt lat="36.883222204951764" lon="14.986755238279835"><ele>123.0</ele><time>2026-04-30T16:33:33Z</time></trkpt><trkpt lat="36.88311738739486" lon="14.986955123464849"><ele>123.0</ele><time>2026-04-30T16:33:34Z</time></trkpt><trkpt lat="36.88302626101922" lon="14.987132634558268"><ele>123.0</ele><time>2026-04-30T16:33:35Z</time></trkpt><trkpt lat="36.88296193381283" lon="14.987288403463257"><ele>123.0</ele><time>2026-04-30T16:33:36Z</time></trkpt><trkpt lat="36.88289826387532" lon="14.987413358875568"><ele>123.0</ele><time>2026-04-30T16:33:37Z</time></trkpt><trkpt lat="36.882826848369675" lon="14.98749272214798"><ele>123.2</ele><time>2026-04-30T16:33:38Z</time></trkpt><trkpt lat="36.88277985985006" lon="14.987549718699235"><ele>123.4</ele><time>2026-04-30T16:33:39Z</time></trkpt><trkpt lat="36.88269830819704" lon="14.987553875871681"><ele>123.60000000000001</ele><time>2026-04-30T16:33:40Z</time></trkpt><trkpt lat="36.882586895582214" lon="14.98748464802002"><ele>123.80000000000001</ele><time>2026-04-30T16:33:41Z</time></trkpt><trkpt lat="36.882436247577616" lon="14.987433576674709"><ele>124.0</ele><time>2026-04-30T16:33:42Z</time></trkpt><trkpt lat="36.882277676479404" lon="14.987385351748697"><ele>120.33333333333334</ele><time>2026-04-30T16:33:43Z</time></trkpt><trkpt lat="36.88211204885908" lon="14.987341178260527"><ele>116.66666666666666</ele><time>2026-04-30T16:33:44Z</time></trkpt><trkpt lat="36.88194255116337" lon="14.987293916090746"><ele>113.0</ele><time>2026-04-30T16:33:45Z</time></trkpt><trkpt lat="36.881763160630996" lon="14.987244302394553"><ele>111.33333333333333</ele><time>2026-04-30T16:33:46Z</time></trkpt><trkpt lat="36.881578318630346" lon="14.98718874926348"><ele>109.66666666666666</ele><time>2026-04-30T16:33:47Z</time></trkpt><trkpt lat="36.88138852248907" lon="14.987136892510561"><ele>108.0</ele><time>2026-04-30T16:33:48Z</time></trkpt><trkpt lat="36.88121961414908" lon="14.987087017963765"><ele>108.0</ele><time>2026-04-30T16:33:49Z</time></trkpt><trkpt lat="36.88106285521328" lon="14.98704406848934"><ele>108.0</ele><time>2026-04-30T16:33:50Z</time></trkpt><trkpt lat="36.8809154958523" lon="14.987002323530076"><ele>108.0</ele><time>2026-04-30T16:33:51Z</time></trkpt><trkpt lat="36.88076713165773" lon="14.986957863301098"><ele>106.0</ele><time>2026-04-30T16:33:52Z</time></trkpt><trkpt lat="36.88060954962822" lon="14.98690660576302"><ele>104.0</ele><time>2026-04-30T16:33:53Z</time></trkpt><trkpt lat="36.88044300562259" lon="14.986855616562545"><ele>102.0</ele><time>2026-04-30T16:33:54Z</time></trkpt><trkpt lat="36.880275142146374" lon="14.986815585536222"><ele>102.0</ele><time>2026-04-30T16:33:55Z</time></trkpt><trkpt lat="36.88010303592557" lon="14.986769597759418"><ele>102.0</ele><time>2026-04-30T16:33:56Z</time></trkpt><trkpt lat="36.87992044751839" lon="14.986720432916774"><ele>102.0</ele><time>2026-04-30T16:33:57Z</time></trkpt><trkpt lat="36.87973986187267" lon="14.986671193503236"><ele>100.66666666666666</ele><time>2026-04-30T16:33:58Z</time></trkpt><trkpt lat="36.87955858510123" lon="14.986623997259665"><ele>99.33333333333333</ele><time>2026-04-30T16:33:59Z</time></trkpt><trkpt lat="36.879375860161566" lon="14.98657164201668"><ele>98.0</ele><time>2026-04-30T16:34:00Z</time></trkpt><trkpt lat="36.879210492570536" lon="14.986519428488972"><ele>97.33333333333333</ele><time>2026-04-30T16:34:01Z</time></trkpt><trkpt lat="36.879049624276846" lon="14.986469751221298"><ele>96.66666666666666</ele><time>2026-04-30T16:34:02Z</time></trkpt><trkpt lat="36.87888192998208" lon="14.98642624607717"><ele>96.0</ele><time>2026-04-30T16:34:03Z</time></trkpt><trkpt lat="36.878714755388025" lon="14.986386218582256"><ele>96.0</ele><time>2026-04-30T16:34:04Z</time></trkpt><trkpt lat="36.878552147064056" lon="14.986346421106223"><ele>96.0</ele><time>2026-04-30T16:34:05Z</time></trkpt><trkpt lat="36.878391592854456" lon="14.98630120177217"><ele>96.0</ele><time>2026-04-30T16:34:06Z</time></trkpt><trkpt lat="36.87822868704714" lon="14.986255633953583"><ele>95.33333333333333</ele><time>2026-04-30T16:34:07Z</time></trkpt><trkpt lat="36.87807238159662" lon="14.986213123428557"><ele>94.66666666666666</ele><time>2026-04-30T16:34:08Z</time></trkpt><trkpt lat="36.87791290279056" lon="14.986169480424856"><ele>94.0</ele><time>2026-04-30T16:34:09Z</time></trkpt><trkpt lat="36.87774963075064" lon="14.986122347183114"><ele>93.0</ele><time>2026-04-30T16:34:10Z</time></trkpt><trkpt lat="36.877592587243186" lon="14.986079509080362"><ele>92.0</ele><time>2026-04-30T16:34:11Z</time></trkpt><trkpt lat="36.87743139676995" lon="14.986035088071432"><ele>91.0</ele><time>2026-04-30T16:34:12Z</time></trkpt><trkpt lat="36.87726672023535" lon="14.98599151666939"><ele>91.0</ele><time>2026-04-30T16:34:13Z</time></trkpt><trkpt lat="36.87711226585647" lon="14.985955278574627"><ele>91.0</ele><time>2026-04-30T16:34:14Z</time></trkpt><trkpt lat="36.876953497681995" lon="14.985916748157443"><ele>91.0</ele><time>2026-04-30T16:34:15Z</time></trkpt><trkpt lat="36.87679527259214" lon="14.985886434095978"><ele>90.0</ele><time>2026-04-30T16:34:16Z</time></trkpt><trkpt lat="36.876626555317664" lon="14.985870187918"><ele>89.0</ele><time>2026-04-30T16:34:17Z</time></trkpt><trkpt lat="36.876467170105876" lon="14.985873027821855"><ele>88.0</ele><time>2026-04-30T16:34:18Z</time></trkpt><trkpt lat="36.87629577975711" lon="14.985912375932378"><ele>88.0</ele><time>2026-04-30T16:34:19Z</time></trkpt><trkpt lat="36.87612461682352" lon="14.985974154686462"><ele>88.0</ele><time>2026-04-30T16:34:20Z</time></trkpt><trkpt lat="36.87594620089165" lon="14.986030134144412"><ele>88.0</ele><time>2026-04-30T16:34:21Z</time></trkpt><trkpt lat="36.87578264587841" lon="14.986115446533598"><ele>88.0</ele><time>2026-04-30T16:34:22Z</time></trkpt><trkpt lat="36.87563189849896" lon="14.986202428123278"><ele>88.0</ele><time>2026-04-30T16:34:23Z</time></trkpt><trkpt lat="36.87548628154405" lon="14.986292202121826"><ele>88.0</ele><time>2026-04-30T16:34:24Z</time></trkpt><trkpt lat="36.8753469686153" lon="14.98639985876355"><ele>88.0</ele><time>2026-04-30T16:34:25Z</time></trkpt><trkpt lat="36.875207633030286" lon="14.986480486014228"><ele>88.0</ele><time>2026-04-30T16:34:26Z</time></trkpt><trkpt lat="36.87506046829811" lon="14.986550431582716"><ele>88.0</ele><time>2026-04-30T16:34:27Z</time></trkpt><trkpt lat="36.87491456959548" lon="14.986640930073413"><ele>86.0</ele><time>2026-04-30T16:34:28Z</time></trkpt><trkpt lat="36.874762144139844" lon="14.986738126935919"><ele>84.0</ele><time>2026-04-30T16:34:29Z</time></trkpt><trkpt lat="36.874616729330235" lon="14.98683449103255"><ele>82.0</ele><time>2026-04-30T16:34:30Z</time></trkpt><trkpt lat="36.87446592481933" lon="14.986935736463328"><ele>82.0</ele><time>2026-04-30T16:34:31Z</time></trkpt><trkpt lat="36.87431495773427" lon="14.987042935325041"><ele>82.0</ele><time>2026-04-30T16:34:32Z</time></trkpt><trkpt lat="36.87416461448339" lon="14.987155309721489"><ele>82.0</ele><time>2026-04-30T16:34:33Z</time></trkpt><trkpt lat="36.874010283541324" lon="14.987267363377251"><ele>82.0</ele><time>2026-04-30T16:34:34Z</time></trkpt><trkpt lat="36.873848978497456" lon="14.987368807637086"><ele>82.0</ele><time>2026-04-30T16:34:35Z</time></trkpt><trkpt lat="36.87367398671856" lon="14.98747472783539"><ele>82.0</ele><time>2026-04-30T16:34:36Z</time></trkpt><trkpt lat="36.8735024991117" lon="14.987577824086348"><ele>80.33333333333333</ele><time>2026-04-30T16:34:37Z</time></trkpt><trkpt lat="36.873347252211666" lon="14.987669399183657"><ele>78.66666666666667</ele><time>2026-04-30T16:34:38.001Z</time></trkpt><trkpt lat="36.873195954473346" lon="14.987758644893445"><ele>77.0</ele><time>2026-04-30T16:34:39.001Z</time></trkpt><trkpt lat="36.87305506303351" lon="14.987861409043653"><ele>77.0</ele><time>2026-04-30T16:34:40.001Z</time></trkpt><trkpt lat="36.872905140195826" lon="14.987930186862632"><ele>77.0</ele><time>2026-04-30T16:34:41.001Z</time></trkpt><trkpt lat="36.87276187640315" lon="14.988014693575884"><ele>77.0</ele><time>2026-04-30T16:34:42.001Z</time></trkpt><trkpt lat="36.87261566363828" lon="14.988099171272697"><ele>76.66666666666667</ele><time>2026-04-30T16:34:43.001Z</time></trkpt><trkpt lat="36.87247333515322" lon="14.988181365538571"><ele>76.33333333333333</ele><time>2026-04-30T16:34:44.001Z</time></trkpt><trkpt lat="36.87233412769502" lon="14.988261757466116"><ele>76.0</ele><time>2026-04-30T16:34:45.001Z</time></trkpt><trkpt lat="36.87219029681462" lon="14.988345615394351"><ele>76.0</ele><time>2026-04-30T16:34:46Z</time></trkpt><trkpt lat="36.87205178758598" lon="14.988428016624916"><ele>76.0</ele><time>2026-04-30T16:34:47Z</time></trkpt><trkpt lat="36.87190890906838" lon="14.988513017263772"><ele>76.0</ele><time>2026-04-30T16:34:48Z</time></trkpt><trkpt lat="36.8717677572934" lon="14.988592086373068"><ele>75.25</ele><time>2026-04-30T16:34:49Z</time></trkpt><trkpt lat="36.87162433239994" lon="14.988671261781427"><ele>74.5</ele><time>2026-04-30T16:34:50Z</time></trkpt><trkpt lat="36.871484418490006" lon="14.988748499043284"><ele>73.75</ele><time>2026-04-30T16:34:51Z</time></trkpt><trkpt lat="36.87136033675161" lon="14.988816997573052"><ele>73.0</ele><time>2026-04-30T16:34:52Z</time></trkpt><trkpt lat="36.87124500093523" lon="14.988880666714698"><ele>73.0</ele><time>2026-04-30T16:34:53Z</time></trkpt><trkpt lat="36.871136426713996" lon="14.98893429861726"><ele>73.0</ele><time>2026-04-30T16:34:54Z</time></trkpt><trkpt lat="36.871031783997125" lon="14.988978115797522"><ele>73.0</ele><time>2026-04-30T16:34:55Z</time></trkpt><trkpt lat="36.87092082127486" lon="14.988998175136839"><ele>73.0</ele><time>2026-04-30T16:34:56Z</time></trkpt><trkpt lat="36.870802488840056" lon="14.988980362616513"><ele>73.25</ele><time>2026-04-30T16:34:57Z</time></trkpt><trkpt lat="36.87067096412763" lon="14.988955065140667"><ele>73.5</ele><time>2026-04-30T16:34:58Z</time></trkpt><trkpt lat="36.87053303709707" lon="14.988901440523069"><ele>73.75</ele><time>2026-04-30T16:34:59Z</time></trkpt><trkpt lat="36.87038242658388" lon="14.988857364379388"><ele>74.0</ele><time>2026-04-30T16:35:00Z</time></trkpt><trkpt lat="36.87023093628004" lon="14.988813492750342"><ele>74.0</ele><time>2026-04-30T16:35:01Z</time></trkpt><trkpt lat="36.87008345362828" lon="14.988764773802426"><ele>74.0</ele><time>2026-04-30T16:35:02Z</time></trkpt><trkpt lat="36.86993880350052" lon="14.988714911452389"><ele>74.0</ele><time>2026-04-30T16:35:03Z</time></trkpt><trkpt lat="36.869799065500146" lon="14.988664978586844"><ele>74.0</ele><time>2026-04-30T16:35:04Z</time></trkpt><trkpt lat="36.869661379978645" lon="14.988599566445078"><ele>74.0</ele><time>2026-04-30T16:35:05Z</time></trkpt><trkpt lat="36.86953953968809" lon="14.988502930073944"><ele>74.0</ele><time>2026-04-30T16:35:06Z</time></trkpt><trkpt lat="36.86944137856958" lon="14.98838923689178"><ele>74.0</ele><time>2026-04-30T16:35:07Z</time></trkpt><trkpt lat="36.86934969528774" lon="14.988282534039698"><ele>74.0</ele><time>2026-04-30T16:35:08Z</time></trkpt><trkpt lat="36.86926358335833" lon="14.988184363519373"><ele>73.66666666666667</ele><time>2026-04-30T16:35:09Z</time></trkpt><trkpt lat="36.869180842508825" lon="14.988103668556358"><ele>73.33333333333334</ele><time>2026-04-30T16:35:10Z</time></trkpt><trkpt lat="36.86910012072712" lon="14.988044393347954"><ele>73.0</ele><time>2026-04-30T16:35:11Z</time></trkpt><trkpt lat="36.86904012298963" lon="14.98799893066233"><ele>72.66666666666667</ele><time>2026-04-30T16:35:12Z</time></trkpt><trkpt lat="36.86896075091174" lon="14.987949086148761"><ele>72.33333333333333</ele><time>2026-04-30T16:35:14Z</time></trkpt><trkpt lat="36.86889755265822" lon="14.987906975052812"><ele>72.0</ele><time>2026-04-30T16:35:16Z</time></trkpt><trkpt lat="36.86878998807945" lon="14.987971161642896"><ele>72.0</ele><time>2026-04-30T16:35:17Z</time></trkpt><trkpt lat="36.86870239158178" lon="14.988034906292057"><ele>72.0</ele><time>2026-04-30T16:35:19Z</time></trkpt><trkpt lat="36.86862195820885" lon="14.988062487895881"><ele>72.0</ele><time>2026-04-30T16:35:21Z</time></trkpt><trkpt lat="36.868556855862565" lon="14.988073720838258"><ele>72.0</ele><time>2026-04-30T16:35:22Z</time></trkpt><trkpt lat="36.868475450000396" lon="14.988070184907528"><ele>72.0</ele><time>2026-04-30T16:35:23Z</time></trkpt><trkpt lat="36.86837214770013" lon="14.988076987930803"><ele>72.0</ele><time>2026-04-30T16:35:24Z</time></trkpt><trkpt lat="36.86825317764408" lon="14.988094186823503"><ele>72.0</ele><time>2026-04-30T16:35:25Z</time></trkpt><trkpt lat="36.868136065679266" lon="14.988139314152713"><ele>72.0</ele><time>2026-04-30T16:35:26Z</time></trkpt><trkpt lat="36.86801438997465" lon="14.988185232059307"><ele>72.0</ele><time>2026-04-30T16:35:27Z</time></trkpt><trkpt lat="36.86790636989005" lon="14.98826121652464"><ele>72.0</ele><time>2026-04-30T16:35:28Z</time></trkpt><trkpt lat="36.86778559042296" lon="14.988357509774271"><ele>73.5</ele><time>2026-04-30T16:35:29Z</time></trkpt><trkpt lat="36.867663030435246" lon="14.988456336681406"><ele>75.0</ele><time>2026-04-30T16:35:30Z</time></trkpt><trkpt lat="36.867547307312215" lon="14.988553023611043"><ele>76.5</ele><time>2026-04-30T16:35:31Z</time></trkpt><trkpt lat="36.86745168030667" lon="14.98867932912861"><ele>78.0</ele><time>2026-04-30T16:35:32Z</time></trkpt><trkpt lat="36.86734077294778" lon="14.988774990568093"><ele>78.0</ele><time>2026-04-30T16:35:33Z</time></trkpt><trkpt lat="36.867222052127026" lon="14.988864464570119"><ele>78.0</ele><time>2026-04-30T16:35:34Z</time></trkpt><trkpt lat="36.86709779939305" lon="14.988954485906527"><ele>78.0</ele><time>2026-04-30T16:35:35Z</time></trkpt><trkpt lat="36.86696827867272" lon="14.9890435400025"><ele>78.0</ele><time>2026-04-30T16:35:36Z</time></trkpt><trkpt lat="36.866820652832196" lon="14.989095420542437"><ele>77.0</ele><time>2026-04-30T16:35:37Z</time></trkpt><trkpt lat="36.866672928336136" lon="14.98916679540925"><ele>76.0</ele><time>2026-04-30T16:35:38Z</time></trkpt><trkpt lat="36.86653781847327" lon="14.989247534397773"><ele>75.0</ele><time>2026-04-30T16:35:39Z</time></trkpt><trkpt lat="36.866403856499645" lon="14.9893490942116"><ele>78.33333333333333</ele><time>2026-04-30T16:35:40Z</time></trkpt><trkpt lat="36.86627323981903" lon="14.989463687073311"><ele>81.66666666666666</ele><time>2026-04-30T16:35:41Z</time></trkpt><trkpt lat="36.86615607303262" lon="14.98958536820815"><ele>85.0</ele><time>2026-04-30T16:35:42Z</time></trkpt><trkpt lat="36.8660577566325" lon="14.989709979276258"><ele>85.0</ele><time>2026-04-30T16:35:43Z</time></trkpt><trkpt lat="36.8659568534058" lon="14.989832358580019"><ele>85.0</ele><time>2026-04-30T16:35:44Z</time></trkpt><trkpt lat="36.86585737802354" lon="14.989935674107532"><ele>85.0</ele><time>2026-04-30T16:35:45Z</time></trkpt><trkpt lat="36.86575974956312" lon="14.990015803584797"><ele>85.0</ele><time>2026-04-30T16:35:46Z</time></trkpt><trkpt lat="36.86565590817061" lon="14.990090348064763"><ele>85.75</ele><time>2026-04-30T16:35:47Z</time></trkpt><trkpt lat="36.86554927232255" lon="14.99017142942812"><ele>86.5</ele><time>2026-04-30T16:35:48Z</time></trkpt><trkpt lat="36.86542391274909" lon="14.990218346396965"><ele>87.25</ele><time>2026-04-30T16:35:49Z</time></trkpt><trkpt lat="36.86529149196421" lon="14.990244059368749"><ele>88.0</ele><time>2026-04-30T16:35:50Z</time></trkpt><trkpt lat="36.86515351152388" lon="14.990262230470522"><ele>87.4</ele><time>2026-04-30T16:35:51Z</time></trkpt><trkpt lat="36.86503201781246" lon="14.990263269973623"><ele>86.80000000000001</ele><time>2026-04-30T16:35:52Z</time></trkpt><trkpt lat="36.86493078811272" lon="14.990264046624441"><ele>86.2</ele><time>2026-04-30T16:35:53Z</time></trkpt><trkpt lat="36.86484518605405" lon="14.990271817685043"><ele>85.6</ele><time>2026-04-30T16:35:54Z</time></trkpt><trkpt lat="36.86476679857225" lon="14.990266403389192"><ele>85.0</ele><time>2026-04-30T16:35:55Z</time></trkpt><trkpt lat="36.86469990116317" lon="14.990227625908572"><ele>85.0</ele><time>2026-04-30T16:35:56Z</time></trkpt><trkpt lat="36.86456412177204" lon="14.99023360834556"><ele>85.0</ele><time>2026-04-30T16:35:58Z</time></trkpt><trkpt lat="36.864484523534394" lon="14.990246581805218"><ele>85.0</ele><time>2026-04-30T16:35:59Z</time></trkpt><trkpt lat="36.864403581616706" lon="14.990268378915808"><ele>85.0</ele><time>2026-04-30T16:36:00Z</time></trkpt><trkpt lat="36.86431779705703" lon="14.99028949200223"><ele>85.0</ele><time>2026-04-30T16:36:01Z</time></trkpt><trkpt lat="36.86421712406075" lon="14.990316749336648"><ele>84.33333333333333</ele><time>2026-04-30T16:36:02Z</time></trkpt><trkpt lat="36.86410059100575" lon="14.990320357559114"><ele>83.66666666666667</ele><time>2026-04-30T16:36:04Z</time></trkpt><trkpt lat="36.86403414211082" lon="14.990309907354632"><ele>83.0</ele><time>2026-04-30T16:36:06Z</time></trkpt><trkpt lat="36.86396775172753" lon="14.989743358736824"><ele>80.60000000000001</ele><time>2026-04-30T16:36:08Z</time></trkpt><trkpt lat="36.863929836466305" lon="14.989627695159022"><ele>78.2</ele><time>2026-04-30T16:36:09Z</time></trkpt><trkpt lat="36.863880222846156" lon="14.989536983525513"><ele>75.8</ele><time>2026-04-30T16:36:10Z</time></trkpt><trkpt lat="36.86381556901377" lon="14.989443834385693"><ele>73.4</ele><time>2026-04-30T16:36:11Z</time></trkpt><trkpt lat="36.8637494057237" lon="14.989346528649923"><ele>71.0</ele><time>2026-04-30T16:36:12Z</time></trkpt><trkpt lat="36.86368563293769" lon="14.989241099670373"><ele>70.6</ele><time>2026-04-30T16:36:13Z</time></trkpt><trkpt lat="36.86362624830504" lon="14.989136920222474"><ele>70.19999999999999</ele><time>2026-04-30T16:36:14Z</time></trkpt><trkpt lat="36.86357863667634" lon="14.989051544160468"><ele>69.80000000000001</ele><time>2026-04-30T16:36:15Z</time></trkpt><trkpt lat="36.86352898920228" lon="14.98896338886109"><ele>69.4</ele><time>2026-04-30T16:36:16Z</time></trkpt><trkpt lat="36.863470366393564" lon="14.988859046868521"><ele>69.0</ele><time>2026-04-30T16:36:17Z</time></trkpt><trkpt lat="36.86341114771567" lon="14.988751805574548"><ele>69.0</ele><time>2026-04-30T16:36:18Z</time></trkpt><trkpt lat="36.86335247222104" lon="14.988650650279114"><ele>69.0</ele><time>2026-04-30T16:36:19Z</time></trkpt><trkpt lat="36.86330122896963" lon="14.988557880224997"><ele>69.0</ele><time>2026-04-30T16:36:20Z</time></trkpt><trkpt lat="36.86325864189891" lon="14.98847781660372"><ele>69.0</ele><time>2026-04-30T16:36:21Z</time></trkpt><trkpt lat="36.863235688573525" lon="14.988397063665799"><ele>69.0</ele><time>2026-04-30T16:36:22Z</time></trkpt><trkpt lat="36.86323454786832" lon="14.988316282004229"><ele>69.0</ele><time>2026-04-30T16:36:23Z</time></trkpt><trkpt lat="36.86322259053259" lon="14.988208901840357"><ele>68.0</ele><time>2026-04-30T16:36:24Z</time></trkpt><trkpt lat="36.8631778122238" lon="14.988092391611904"><ele>67.0</ele><time>2026-04-30T16:36:25Z</time></trkpt><trkpt lat="36.86312575113195" lon="14.987974382589432"><ele>66.0</ele><time>2026-04-30T16:36:26Z</time></trkpt><trkpt lat="36.86307802895549" lon="14.987869687429717"><ele>65.0</ele><time>2026-04-30T16:36:27Z</time></trkpt><trkpt lat="36.863038366534994" lon="14.987774925772484"><ele>64.0</ele><time>2026-04-30T16:36:28Z</time></trkpt><trkpt lat="36.86300672798565" lon="14.987685666090401"><ele>63.99999999999999</ele><time>2026-04-30T16:36:29Z</time></trkpt><trkpt lat="36.862969226172744" lon="14.987604988536106"><ele>64.0</ele><time>2026-04-30T16:36:30Z</time></trkpt><trkpt lat="36.862916461479514" lon="14.98755719670322"><ele>64.0</ele><time>2026-04-30T16:36:31Z</time></trkpt><trkpt lat="36.86285355753506" lon="14.987540340195022"><ele>64.0</ele><time>2026-04-30T16:36:32Z</time></trkpt><trkpt lat="36.862776528655566" lon="14.987523243299467"><ele>63.99999999999999</ele><time>2026-04-30T16:36:33Z</time></trkpt><trkpt lat="36.86269467896677" lon="14.98745283141575"><ele>64.0</ele><time>2026-04-30T16:36:34Z</time></trkpt><trkpt lat="36.862609230773" lon="14.987363396226774"><ele>64.2</ele><time>2026-04-30T16:36:35Z</time></trkpt><trkpt lat="36.86252258252045" lon="14.987294758346671"><ele>64.4</ele><time>2026-04-30T16:36:36Z</time></trkpt><trkpt lat="36.86244348094643" lon="14.987250336873789"><ele>64.6</ele><time>2026-04-30T16:36:37Z</time></trkpt><trkpt lat="36.8623509852704" lon="14.98721567886106"><ele>64.8</ele><time>2026-04-30T16:36:38Z</time></trkpt><trkpt lat="36.862264408713564" lon="14.987181810895011"><ele>65.0</ele><time>2026-04-30T16:36:39Z</time></trkpt><trkpt lat="36.862176543517485" lon="14.987131525267289"><ele>65.0</ele><time>2026-04-30T16:36:40Z</time></trkpt><trkpt lat="36.862094596987646" lon="14.987077010232872"><ele>65.0</ele><time>2026-04-30T16:36:41Z</time></trkpt><trkpt lat="36.86203212709061" lon="14.987035546043279"><ele>65.0</ele><time>2026-04-30T16:36:42Z</time></trkpt><trkpt lat="36.86197198108503" lon="14.98699781325425"><ele>65.0</ele><time>2026-04-30T16:36:43Z</time></trkpt><trkpt lat="36.86187036011093" lon="14.98696908229182"><ele>65.0</ele><time>2026-04-30T16:36:45Z</time></trkpt><trkpt lat="36.86179437064681" lon="14.986927669174703"><ele>65.0</ele><time>2026-04-30T16:36:47Z</time></trkpt><trkpt lat="36.86174028710979" lon="14.986846669337885"><ele>64.2</ele><time>2026-04-30T16:36:49Z</time></trkpt><trkpt lat="36.861675222757796" lon="14.986748359365565"><ele>63.4</ele><time>2026-04-30T16:36:51Z</time></trkpt><trkpt lat="36.861620825265526" lon="14.986642987499362"><ele>62.599999999999994</ele><time>2026-04-30T16:36:53Z</time></trkpt><trkpt lat="36.86154715721135" lon="14.986549525185087"><ele>61.8</ele><time>2026-04-30T16:36:55Z</time></trkpt><trkpt lat="36.86150514228757" lon="14.986487366610667"><ele>61.0</ele><time>2026-04-30T16:36:56Z</time></trkpt><trkpt lat="36.86146452894616" lon="14.986393709783984"><ele>60.33333333333333</ele><time>2026-04-30T16:36:58Z</time></trkpt><trkpt lat="36.86145191893211" lon="14.986303498561945"><ele>59.666666666666664</ele><time>2026-04-30T16:37:00Z</time></trkpt><trkpt lat="36.86146386933294" lon="14.986214009670254"><ele>59.0</ele><time>2026-04-30T16:37:03Z</time></trkpt><trkpt lat="36.861494674077036" lon="14.986111950083492"><ele>58.33333333333333</ele><time>2026-04-30T16:37:06Z</time></trkpt><trkpt lat="36.86150916139575" lon="14.98598375273472"><ele>57.666666666666664</ele><time>2026-04-30T16:37:09Z</time></trkpt><trkpt lat="36.86153391579374" lon="14.985868136607962"><ele>57.0</ele><time>2026-04-30T16:37:11Z</time></trkpt><trkpt lat="36.86148491110752" lon="14.985815953701392"><ele>56.666666666666664</ele><time>2026-04-30T16:37:13Z</time></trkpt><trkpt lat="36.861422616123676" lon="14.98577075683804"><ele>56.33333333333333</ele><time>2026-04-30T16:37:14Z</time></trkpt><trkpt lat="36.86136187314745" lon="14.98570930067229"><ele>56.0</ele><time>2026-04-30T16:37:15Z</time></trkpt><trkpt lat="36.86129109197841" lon="14.985586780532646"><ele>55.666666666666664</ele><time>2026-04-30T16:37:17Z</time></trkpt><trkpt lat="36.86125145049926" lon="14.985525227870447"><ele>55.33333333333333</ele><time>2026-04-30T16:37:18Z</time></trkpt><trkpt lat="36.861168734011684" lon="14.98547234113959"><ele>55.0</ele><time>2026-04-30T16:37:20Z</time></trkpt><trkpt lat="36.861101109188596" lon="14.985471615908391"><ele>54.99999999999999</ele><time>2026-04-30T16:37:22Z</time></trkpt><trkpt lat="36.8610491286905" lon="14.985425633372591"><ele>55.0</ele><time>2026-04-30T16:37:23Z</time></trkpt><trkpt lat="36.860984172203345" lon="14.985374207821584"><ele>55.0</ele><time>2026-04-30T16:37:24Z</time></trkpt><trkpt lat="36.860921759620034" lon="14.98532587235484"><ele>55.0</ele><time>2026-04-30T16:37:26Z</time></trkpt><trkpt lat="36.86092560211299" lon="14.985240647576703"><ele>54.99999999999999</ele><time>2026-04-30T16:37:29Z</time></trkpt><trkpt lat="36.860960422751496" lon="14.985165132227573"><ele>55.0</ele><time>2026-04-30T16:37:31Z</time></trkpt><trkpt lat="36.86099629674507" lon="14.98501293805206"><ele>55.33333333333333</ele><time>2026-04-30T16:37:33Z</time></trkpt><trkpt lat="36.86102593258265" lon="14.984932070150508"><ele>55.666666666666664</ele><time>2026-04-30T16:37:34Z</time></trkpt><trkpt lat="36.86105507705065" lon="14.984852542937052"><ele>56.0</ele><time>2026-04-30T16:37:35Z</time></trkpt><trkpt lat="36.861108800347374" lon="14.98476480897017"><ele>56.33333333333333</ele><time>2026-04-30T16:37:36Z</time></trkpt><trkpt lat="36.86115077328808" lon="14.984673344061889"><ele>56.666666666666664</ele><time>2026-04-30T16:37:37Z</time></trkpt><trkpt lat="36.86121187726418" lon="14.984553178604752"><ele>57.0</ele><time>2026-04-30T16:37:38Z</time></trkpt><trkpt lat="36.86125745945399" lon="14.98442363981654"><ele>57.0</ele><time>2026-04-30T16:37:39Z</time></trkpt><trkpt lat="36.86131718551265" lon="14.984334844513153"><ele>57.0</ele><time>2026-04-30T16:37:40Z</time></trkpt><trkpt lat="36.86136501687983" lon="14.984237703825602"><ele>57.0</ele><time>2026-04-30T16:37:41Z</time></trkpt><trkpt lat="36.86139944882171" lon="14.984148678830223"><ele>57.0</ele><time>2026-04-30T16:37:42Z</time></trkpt><trkpt lat="36.86144073685986" lon="14.984036482026486"><ele>57.0</ele><time>2026-04-30T16:37:44Z</time></trkpt><trkpt lat="36.86138473277479" lon="14.983975269241933"><ele>57.0</ele><time>2026-04-30T16:37:45Z</time></trkpt><trkpt lat="36.86126945355174" lon="14.98388582602316"><ele>58.0</ele><time>2026-04-30T16:37:47Z</time></trkpt><trkpt lat="36.86119194082607" lon="14.983834707873898"><ele>59.0</ele><time>2026-04-30T16:37:48Z</time></trkpt><trkpt lat="36.86111121857209" lon="14.983757004168003"><ele>60.0</ele><time>2026-04-30T16:37:49Z</time></trkpt><trkpt lat="36.86101459101256" lon="14.983686260695649"><ele>61.0</ele><time>2026-04-30T16:37:50Z</time></trkpt><trkpt lat="36.8609371740105" lon="14.983608956458177"><ele>62.0</ele><time>2026-04-30T16:37:51Z</time></trkpt><trkpt lat="36.860857684669924" lon="14.983543063699985"><ele>63.2</ele><time>2026-04-30T16:37:52Z</time></trkpt><trkpt lat="36.86077378211075" lon="14.983474612324907"><ele>64.4</ele><time>2026-04-30T16:37:53Z</time></trkpt><trkpt lat="36.86068056989347" lon="14.983388508735572"><ele>65.6</ele><time>2026-04-30T16:37:54Z</time></trkpt><trkpt lat="36.86058080832467" lon="14.983301370954564"><ele>66.8</ele><time>2026-04-30T16:37:55Z</time></trkpt><trkpt lat="36.86050696859888" lon="14.983204650356633"><ele>68.0</ele><time>2026-04-30T16:37:56Z</time></trkpt><trkpt lat="36.86041767173528" lon="14.983140179838308"><ele>69.0</ele><time>2026-04-30T16:37:57Z</time></trkpt><trkpt lat="36.86033350262858" lon="14.983052770670113"><ele>70.0</ele><time>2026-04-30T16:37:58Z</time></trkpt><trkpt lat="36.86022567225445" lon="14.982955211664196"><ele>71.0</ele><time>2026-04-30T16:37:59Z</time></trkpt><trkpt lat="36.860110734745795" lon="14.98284606895247"><ele>72.0</ele><time>2026-04-30T16:38:00Z</time></trkpt><trkpt lat="36.8599734871845" lon="14.98271713015267"><ele>73.5</ele><time>2026-04-30T16:38:01Z</time></trkpt><trkpt lat="36.85986256225941" lon="14.982613687352927"><ele>75.0</ele><time>2026-04-30T16:38:02Z</time></trkpt><trkpt lat="36.859760732348775" lon="14.98251819133797"><ele>76.5</ele><time>2026-04-30T16:38:03Z</time></trkpt><trkpt lat="36.85966589445253" lon="14.9824294366309"><ele>78.0</ele><time>2026-04-30T16:38:04Z</time></trkpt><trkpt lat="36.85957085674755" lon="14.982339539703743"><ele>78.2</ele><time>2026-04-30T16:38:05Z</time></trkpt><trkpt lat="36.859503905213195" lon="14.982231705973781"><ele>78.4</ele><time>2026-04-30T16:38:06Z</time></trkpt><trkpt lat="36.85941650049565" lon="14.982146794551365"><ele>78.60000000000001</ele><time>2026-04-30T16:38:07Z</time></trkpt><trkpt lat="36.85935261869627" lon="14.98203674238929"><ele>78.8</ele><time>2026-04-30T16:38:08Z</time></trkpt><trkpt lat="36.85927155403736" lon="14.981965233127527"><ele>79.0</ele><time>2026-04-30T16:38:09Z</time></trkpt><trkpt lat="36.85922814197326" lon="14.981888675036705"><ele>80.33333333333333</ele><time>2026-04-30T16:38:10Z</time></trkpt><trkpt lat="36.85917613266391" lon="14.981830179553848"><ele>81.66666666666667</ele><time>2026-04-30T16:38:12Z</time></trkpt><trkpt lat="36.85912619722936" lon="14.981754389772268"><ele>83.0</ele><time>2026-04-30T16:38:14Z</time></trkpt><trkpt lat="36.85901275612603" lon="14.981400779347677"><ele>84.5</ele><time>2026-04-30T16:38:15Z</time></trkpt><trkpt lat="36.8590005143915" lon="14.981631403455973"><ele>86.0</ele><time>2026-04-30T16:38:17Z</time></trkpt><trkpt lat="36.85914704939252" lon="14.981198395999128"><ele>86.0</ele><time>2026-04-30T16:38:22Z</time></trkpt><trkpt lat="36.85918841908452" lon="14.981136101238294"><ele>86.0</ele><time>2026-04-30T16:38:23Z</time></trkpt><trkpt lat="36.859235278476206" lon="14.981050996645191"><ele>86.0</ele><time>2026-04-30T16:38:24Z</time></trkpt><trkpt lat="36.85929063144334" lon="14.980969078189254"><ele>86.0</ele><time>2026-04-30T16:38:25Z</time></trkpt><trkpt lat="36.85933485518131" lon="14.980821072418625"><ele>86.0</ele><time>2026-04-30T16:38:27Z</time></trkpt><trkpt lat="36.85926298600483" lon="14.980702461687647"><ele>86.8</ele><time>2026-04-30T16:38:29Z</time></trkpt><trkpt lat="36.85918081542094" lon="14.980644301503494"><ele>87.6</ele><time>2026-04-30T16:38:30Z</time></trkpt><trkpt lat="36.859073152251305" lon="14.980579326231151"><ele>88.4</ele><time>2026-04-30T16:38:31Z</time></trkpt><trkpt lat="36.85899008285804" lon="14.980479022318853"><ele>89.2</ele><time>2026-04-30T16:38:32Z</time></trkpt><trkpt lat="36.85889809747906" lon="14.98042006011923"><ele>90.0</ele><time>2026-04-30T16:38:33Z</time></trkpt><trkpt lat="36.85882177648706" lon="14.980346154961621"><ele>90.0</ele><time>2026-04-30T16:38:34Z</time></trkpt><trkpt lat="36.85872737680871" lon="14.980265294438894"><ele>90.0</ele><time>2026-04-30T16:38:35Z</time></trkpt><trkpt lat="36.85863708647643" lon="14.98017427764177"><ele>90.0</ele><time>2026-04-30T16:38:36Z</time></trkpt><trkpt lat="36.85854994070523" lon="14.980081756686882"><ele>90.0</ele><time>2026-04-30T16:38:37Z</time></trkpt><trkpt lat="36.85845234772116" lon="14.980004482515854"><ele>89.75</ele><time>2026-04-30T16:38:38Z</time></trkpt><trkpt lat="36.85835501466255" lon="14.979900404463983"><ele>89.5</ele><time>2026-04-30T16:38:39Z</time></trkpt><trkpt lat="36.85825600997757" lon="14.97982152963589"><ele>89.25</ele><time>2026-04-30T16:38:40Z</time></trkpt><trkpt lat="36.858165328771776" lon="14.979733988003611"><ele>89.0</ele><time>2026-04-30T16:38:41Z</time></trkpt><trkpt lat="36.85807881015533" lon="14.979649264552014"><ele>89.0</ele><time>2026-04-30T16:38:42Z</time></trkpt><trkpt lat="36.85799105894421" lon="14.979562978868419"><ele>89.0</ele><time>2026-04-30T16:38:43Z</time></trkpt><trkpt lat="36.85788913460231" lon="14.979479224627502"><ele>89.0</ele><time>2026-04-30T16:38:44Z</time></trkpt><trkpt lat="36.85779621231246" lon="14.979415927689377"><ele>89.0</ele><time>2026-04-30T16:38:45Z</time></trkpt><trkpt lat="36.857715005266755" lon="14.97934104103952"><ele>89.0</ele><time>2026-04-30T16:38:46Z</time></trkpt><trkpt lat="36.85764724566995" lon="14.979257119337893"><ele>88.80000000000001</ele><time>2026-04-30T16:38:47Z</time></trkpt><trkpt lat="36.85757361155441" lon="14.979190508992852"><ele>88.60000000000001</ele><time>2026-04-30T16:38:48Z</time></trkpt><trkpt lat="36.85749964660948" lon="14.979121372965295"><ele>88.4</ele><time>2026-04-30T16:38:49Z</time></trkpt><trkpt lat="36.857415745008474" lon="14.979060002009138"><ele>88.2</ele><time>2026-04-30T16:38:50Z</time></trkpt><trkpt lat="36.85734635580299" lon="14.978962756752917"><ele>88.0</ele><time>2026-04-30T16:38:51Z</time></trkpt><trkpt lat="36.85724747199834" lon="14.978881931637149"><ele>87.75</ele><time>2026-04-30T16:38:52Z</time></trkpt><trkpt lat="36.85713284818396" lon="14.978808755648666"><ele>87.5</ele><time>2026-04-30T16:38:53Z</time></trkpt><trkpt lat="36.85703239983165" lon="14.978680541760799"><ele>87.25</ele><time>2026-04-30T16:38:54Z</time></trkpt><trkpt lat="36.85693372298488" lon="14.978575812293633"><ele>87.0</ele><time>2026-04-30T16:38:55Z</time></trkpt><trkpt lat="36.856844953652" lon="14.978474440313558"><ele>88.25</ele><time>2026-04-30T16:38:56Z</time></trkpt><trkpt lat="36.85674680460043" lon="14.97839185988936"><ele>89.5</ele><time>2026-04-30T16:38:57Z</time></trkpt><trkpt lat="36.85664935475861" lon="14.978287080372784"><ele>90.75</ele><time>2026-04-30T16:38:58Z</time></trkpt><trkpt lat="36.85655076796988" lon="14.9782029658894"><ele>92.0</ele><time>2026-04-30T16:38:59Z</time></trkpt><trkpt lat="36.85647241309247" lon="14.978130831704055"><ele>92.0</ele><time>2026-04-30T16:39:00Z</time></trkpt><trkpt lat="36.85640564164233" lon="14.97806354792898"><ele>92.0</ele><time>2026-04-30T16:39:01Z</time></trkpt><trkpt lat="36.85633583855954" lon="14.978005256608668"><ele>92.0</ele><time>2026-04-30T16:39:02Z</time></trkpt><trkpt lat="36.85628011381499" lon="14.977947140435347"><ele>92.0</ele><time>2026-04-30T16:39:03Z</time></trkpt><trkpt lat="36.85621968556485" lon="14.977910854533095"><ele>92.0</ele><time>2026-04-30T16:39:05Z</time></trkpt><trkpt lat="36.8561301818026" lon="14.978055506150316"><ele>92.0</ele><time>2026-04-30T16:39:06Z</time></trkpt><trkpt lat="36.85607309263745" lon="14.978130063089054"><ele>92.0</ele><time>2026-04-30T16:39:07Z</time></trkpt><trkpt lat="36.85600763431694" lon="14.978206322972504"><ele>92.0</ele><time>2026-04-30T16:39:09Z</time></trkpt><trkpt lat="36.855908464148044" lon="14.978112293737263"><ele>92.0</ele><time>2026-04-30T16:39:11Z</time></trkpt><trkpt lat="36.855837031355414" lon="14.978055950498012"><ele>92.0</ele><time>2026-04-30T16:39:12Z</time></trkpt><trkpt lat="36.85574851542347" lon="14.977978343053323"><ele>93.25</ele><time>2026-04-30T16:39:13Z</time></trkpt><trkpt lat="36.85563847492047" lon="14.977882212583829"><ele>94.5</ele><time>2026-04-30T16:39:14Z</time></trkpt><trkpt lat="36.855522714776384" lon="14.977769611348743"><ele>95.75</ele><time>2026-04-30T16:39:15Z</time></trkpt><trkpt lat="36.855405811657896" lon="14.97765299359583"><ele>97.0</ele><time>2026-04-30T16:39:16Z</time></trkpt><trkpt lat="36.85525727115688" lon="14.977512470882516"><ele>97.66666666666667</ele><time>2026-04-30T16:39:17Z</time></trkpt><trkpt lat="36.85512634410448" lon="14.977384581358804"><ele>98.33333333333334</ele><time>2026-04-30T16:39:18Z</time></trkpt><trkpt lat="36.85498434435084" lon="14.977240411454384"><ele>99.0</ele><time>2026-04-30T16:39:19Z</time></trkpt><trkpt lat="36.85485954298482" lon="14.977132690534818"><ele>100.0</ele><time>2026-04-30T16:39:20Z</time></trkpt><trkpt lat="36.854751742107865" lon="14.977035715784792"><ele>101.0</ele><time>2026-04-30T16:39:21Z</time></trkpt><trkpt lat="36.85461498820652" lon="14.976902324895047"><ele>102.0</ele><time>2026-04-30T16:39:22Z</time></trkpt><trkpt lat="36.85448159437305" lon="14.976770488985574"><ele>102.33333333333334</ele><time>2026-04-30T16:39:23Z</time></trkpt><trkpt lat="36.85433589350366" lon="14.976634924231341"><ele>102.66666666666667</ele><time>2026-04-30T16:39:24Z</time></trkpt><trkpt lat="36.85417762817642" lon="14.976489608496655"><ele>103.0</ele><time>2026-04-30T16:39:25Z</time></trkpt><trkpt lat="36.85405661941952" lon="14.976375112037235"><ele>103.0</ele><time>2026-04-30T16:39:26Z</time></trkpt><trkpt lat="36.853952394005134" lon="14.976270361960347"><ele>103.0</ele><time>2026-04-30T16:39:27Z</time></trkpt><trkpt lat="36.85384900208571" lon="14.976176059120453"><ele>103.0</ele><time>2026-04-30T16:39:28Z</time></trkpt><trkpt lat="36.853733358861966" lon="14.976070742990911"><ele>103.0</ele><time>2026-04-30T16:39:29Z</time></trkpt><trkpt lat="36.85361586897248" lon="14.975963346850195"><ele>103.0</ele><time>2026-04-30T16:39:30Z</time></trkpt><trkpt lat="36.85352651830489" lon="14.975880443071445"><ele>103.0</ele><time>2026-04-30T16:39:31Z</time></trkpt><trkpt lat="36.85341722507737" lon="14.9757782468987"><ele>103.0</ele><time>2026-04-30T16:39:32Z</time></trkpt><trkpt lat="36.85330766359905" lon="14.97567774800686"><ele>103.0</ele><time>2026-04-30T16:39:33Z</time></trkpt><trkpt lat="36.85319732492662" lon="14.975568248836142"><ele>102.5</ele><time>2026-04-30T16:39:34Z</time></trkpt><trkpt lat="36.85309289041473" lon="14.975482897790451"><ele>102.0</ele><time>2026-04-30T16:39:35Z</time></trkpt><trkpt lat="36.85298441183437" lon="14.97538623142963"><ele>101.5</ele><time>2026-04-30T16:39:36Z</time></trkpt><trkpt lat="36.85287238160211" lon="14.975276325777171"><ele>101.0</ele><time>2026-04-30T16:39:37Z</time></trkpt><trkpt lat="36.85275676167275" lon="14.975166292900555"><ele>101.0</ele><time>2026-04-30T16:39:38Z</time></trkpt><trkpt lat="36.85264298961271" lon="14.975051038322407"><ele>101.0</ele><time>2026-04-30T16:39:39Z</time></trkpt><trkpt lat="36.852520760509606" lon="14.9749427059107"><ele>101.0</ele><time>2026-04-30T16:39:40Z</time></trkpt><trkpt lat="36.85239478092179" lon="14.974829421591336"><ele>100.0</ele><time>2026-04-30T16:39:41Z</time></trkpt><trkpt lat="36.85226577976305" lon="14.974704007374623"><ele>99.0</ele><time>2026-04-30T16:39:42Z</time></trkpt><trkpt lat="36.852139535827725" lon="14.974579437185213"><ele>98.0</ele><time>2026-04-30T16:39:43Z</time></trkpt><trkpt lat="36.85203305984044" lon="14.974473985274798"><ele>98.0</ele><time>2026-04-30T16:39:44Z</time></trkpt><trkpt lat="36.8519222436466" lon="14.97436078903097"><ele>98.0</ele><time>2026-04-30T16:39:45Z</time></trkpt><trkpt lat="36.851801672519265" lon="14.974241082035693"><ele>98.0</ele><time>2026-04-30T16:39:46Z</time></trkpt><trkpt lat="36.85166760521227" lon="14.974119037181351"><ele>97.5</ele><time>2026-04-30T16:39:47Z</time></trkpt><trkpt lat="36.85153946059101" lon="14.974002085312144"><ele>97.0</ele><time>2026-04-30T16:39:48Z</time></trkpt><trkpt lat="36.85142749022082" lon="14.973898700941586"><ele>96.5</ele><time>2026-04-30T16:39:49Z</time></trkpt><trkpt lat="36.85132780984508" lon="14.973806094081274"><ele>96.0</ele><time>2026-04-30T16:39:50Z</time></trkpt><trkpt lat="36.85122092530193" lon="14.973709724359233"><ele>96.0</ele><time>2026-04-30T16:39:51Z</time></trkpt><trkpt lat="36.85110182656339" lon="14.973600864424855"><ele>96.0</ele><time>2026-04-30T16:39:52Z</time></trkpt><trkpt lat="36.85098514913789" lon="14.973489277394567"><ele>96.0</ele><time>2026-04-30T16:39:53Z</time></trkpt><trkpt lat="36.8508866422537" lon="14.9733961245781"><ele>96.0</ele><time>2026-04-30T16:39:54Z</time></trkpt><trkpt lat="36.85080882315071" lon="14.97331499719854"><ele>96.6</ele><time>2026-04-30T16:39:55Z</time></trkpt><trkpt lat="36.85072303057498" lon="14.973231267990922"><ele>97.19999999999999</ele><time>2026-04-30T16:39:56Z</time></trkpt><trkpt lat="36.85063149796118" lon="14.973151966868542"><ele>97.80000000000001</ele><time>2026-04-30T16:39:57Z</time></trkpt><trkpt lat="36.850534829645966" lon="14.973074672384522"><ele>98.4</ele><time>2026-04-30T16:39:58Z</time></trkpt><trkpt lat="36.85046011374843" lon="14.973013195332468"><ele>99.0</ele><time>2026-04-30T16:39:59Z</time></trkpt><trkpt lat="36.850387626954976" lon="14.972949048503205"><ele>99.0</ele><time>2026-04-30T16:40:00Z</time></trkpt><trkpt lat="36.8503296119405" lon="14.972884067011735"><ele>99.0</ele><time>2026-04-30T16:40:01Z</time></trkpt><trkpt lat="36.85026600309031" lon="14.972815498593999"><ele>99.0</ele><time>2026-04-30T16:40:02Z</time></trkpt><trkpt lat="36.85017357988051" lon="14.972723157635953"><ele>99.0</ele><time>2026-04-30T16:40:03Z</time></trkpt><trkpt lat="36.850083636498795" lon="14.972642971166412"><ele>99.0</ele><time>2026-04-30T16:40:04Z</time></trkpt><trkpt lat="36.8500090421034" lon="14.972570373807933"><ele>99.0</ele><time>2026-04-30T16:40:05Z</time></trkpt><trkpt lat="36.84995121080148" lon="14.972513230319532"><ele>99.0</ele><time>2026-04-30T16:40:06Z</time></trkpt><trkpt lat="36.849885206013894" lon="14.972470411498225"><ele>99.0</ele><time>2026-04-30T16:40:15Z</time></trkpt><trkpt lat="36.849812687391825" lon="14.972593879802936"><ele>99.0</ele><time>2026-04-30T16:40:16Z</time></trkpt><trkpt lat="36.84977773333652" lon="14.97272230498625"><ele>99.0</ele><time>2026-04-30T16:40:17Z</time></trkpt><trkpt lat="36.84974698122562" lon="14.972835291268158"><ele>99.0</ele><time>2026-04-30T16:40:18Z</time></trkpt><trkpt lat="36.849713270347635" lon="14.972959148722545"><ele>99.0</ele><time>2026-04-30T16:40:19Z</time></trkpt><trkpt lat="36.84967375058172" lon="14.973104348567697"><ele>99.0</ele><time>2026-04-30T16:40:20Z</time></trkpt><trkpt lat="36.8496243664222" lon="14.973285791391422"><ele>99.0</ele><time>2026-04-30T16:40:21Z</time></trkpt><trkpt lat="36.84957089736389" lon="14.97348432544123"><ele>98.66666666666666</ele><time>2026-04-30T16:40:22Z</time></trkpt><trkpt lat="36.84950972662631" lon="14.97371209281865"><ele>98.33333333333333</ele><time>2026-04-30T16:40:23Z</time></trkpt><trkpt lat="36.849448276376926" lon="14.973940900637736"><ele>98.0</ele><time>2026-04-30T16:40:24Z</time></trkpt><trkpt lat="36.84939184422538" lon="14.974151024060493"><ele>97.66666666666666</ele><time>2026-04-30T16:40:25Z</time></trkpt><trkpt lat="36.84933026866086" lon="14.974380167101204"><ele>97.33333333333334</ele><time>2026-04-30T16:40:26Z</time></trkpt><trkpt lat="36.84926713587396" lon="14.974611224803695"><ele>97.0</ele><time>2026-04-30T16:40:27Z</time></trkpt><trkpt lat="36.84920825569097" lon="14.974825928042069"><ele>96.33333333333334</ele><time>2026-04-30T16:40:28Z</time></trkpt><trkpt lat="36.84914906779996" lon="14.975041753008776"><ele>95.66666666666667</ele><time>2026-04-30T16:40:29Z</time></trkpt><trkpt lat="36.84908717952503" lon="14.97526858491749"><ele>95.0</ele><time>2026-04-30T16:40:30Z</time></trkpt><trkpt lat="36.84903307541853" lon="14.9754693150741"><ele>95.0</ele><time>2026-04-30T16:40:31Z</time></trkpt><trkpt lat="36.848979858834745" lon="14.975666752424786"><ele>95.0</ele><time>2026-04-30T16:40:32Z</time></trkpt><trkpt lat="36.84892133765861" lon="14.975883870319109"><ele>95.0</ele><time>2026-04-30T16:40:33Z</time></trkpt><trkpt lat="36.84885816655736" lon="14.976118239502389"><ele>95.0</ele><time>2026-04-30T16:40:34Z</time></trkpt><trkpt lat="36.84879139493145" lon="14.97636372171589"><ele>95.0</ele><time>2026-04-30T16:40:35Z</time></trkpt><trkpt lat="36.84871193620398" lon="14.976653565593757"><ele>95.5</ele><time>2026-04-30T16:40:36Z</time></trkpt><trkpt lat="36.84862469717995" lon="14.976971458579504"><ele>96.0</ele><time>2026-04-30T16:40:37Z</time></trkpt><trkpt lat="36.8485390504247" lon="14.977277049300076"><ele>96.0</ele><time>2026-04-30T16:40:38Z</time></trkpt><trkpt lat="36.84847800538806" lon="14.977495737586043"><ele>96.0</ele><time>2026-04-30T16:40:39Z</time></trkpt><trkpt lat="36.848427027297" lon="14.977678870431925"><ele>96.0</ele><time>2026-04-30T16:40:40Z</time></trkpt><trkpt lat="36.848377847235035" lon="14.97785613671384"><ele>95.6</ele><time>2026-04-30T16:40:41Z</time></trkpt><trkpt lat="36.84833452252078" lon="14.978013971009522"><ele>95.19999999999999</ele><time>2026-04-30T16:40:42Z</time></trkpt><trkpt lat="36.8482990210782" lon="14.978143304693772"><ele>94.80000000000001</ele><time>2026-04-30T16:40:43Z</time></trkpt><trkpt lat="36.84826739137199" lon="14.978258533552014"><ele>94.4</ele><time>2026-04-30T16:40:44Z</time></trkpt><trkpt lat="36.84824241090744" lon="14.978349538922798"><ele>94.0</ele><time>2026-04-30T16:40:45Z</time></trkpt><trkpt lat="36.84821302097603" lon="14.978456607964203"><ele>94.0</ele><time>2026-04-30T16:40:47Z</time></trkpt><trkpt lat="36.848141061452175" lon="14.978448191766637"><ele>94.0</ele><time>2026-04-30T16:41:59Z</time></trkpt><trkpt lat="36.848040536032066" lon="14.978437351727518"><ele>94.0</ele><time>2026-04-30T16:42:00Z</time></trkpt><trkpt lat="36.84790902031206" lon="14.978413961899577"><ele>94.0</ele><time>2026-04-30T16:42:01Z</time></trkpt><trkpt lat="36.847773335368096" lon="14.978381477026767"><ele>94.0</ele><time>2026-04-30T16:42:02Z</time></trkpt><trkpt lat="36.847640549508505" lon="14.978346952188668"><ele>92.25</ele><time>2026-04-30T16:42:03Z</time></trkpt><trkpt lat="36.847525051223" lon="14.97830949552741"><ele>90.5</ele><time>2026-04-30T16:42:04Z</time></trkpt><trkpt lat="36.84741986307422" lon="14.978275266579887"><ele>88.75</ele><time>2026-04-30T16:42:05Z</time></trkpt><trkpt lat="36.84730548232358" lon="14.978259012362923"><ele>87.0</ele><time>2026-04-30T16:42:06Z</time></trkpt><trkpt lat="36.847172024199274" lon="14.978271588836"><ele>87.0</ele><time>2026-04-30T16:42:07Z</time></trkpt><trkpt lat="36.847037060916676" lon="14.978280734254248"><ele>87.0</ele><time>2026-04-30T16:42:08Z</time></trkpt><trkpt lat="36.84690866006514" lon="14.978292115043327"><ele>87.0</ele><time>2026-04-30T16:42:09Z</time></trkpt><trkpt lat="36.84678141768814" lon="14.97830486573397"><ele>87.0</ele><time>2026-04-30T16:42:10Z</time></trkpt><trkpt lat="36.84666113255927" lon="14.978314448872636"><ele>84.75</ele><time>2026-04-30T16:42:11Z</time></trkpt><trkpt lat="36.8465452395026" lon="14.978339843894306"><ele>82.5</ele><time>2026-04-30T16:42:12Z</time></trkpt><trkpt lat="36.84642101532699" lon="14.97834618776975"><ele>80.25</ele><time>2026-04-30T16:42:13Z</time></trkpt><trkpt lat="36.84630275083132" lon="14.978355177046213"><ele>78.0</ele><time>2026-04-30T16:42:14Z</time></trkpt><trkpt lat="36.84619103715709" lon="14.978369595415495"><ele>78.0</ele><time>2026-04-30T16:42:15Z</time></trkpt><trkpt lat="36.846083370019606" lon="14.97838771965901"><ele>78.0</ele><time>2026-04-30T16:42:16Z</time></trkpt><trkpt lat="36.845972203293435" lon="14.978409152399763"><ele>78.0</ele><time>2026-04-30T16:42:17Z</time></trkpt><trkpt lat="36.84587798712658" lon="14.978480607416676"><ele>78.0</ele><time>2026-04-30T16:42:18Z</time></trkpt><trkpt lat="36.84580209339741" lon="14.978508991787745"><ele>78.0</ele><time>2026-04-30T16:42:19Z</time></trkpt><trkpt lat="36.84572106716601" lon="14.978496866585408"><ele>76.75</ele><time>2026-04-30T16:42:20Z</time></trkpt><trkpt lat="36.84559919354854" lon="14.9784670115748"><ele>75.5</ele><time>2026-04-30T16:42:21Z</time></trkpt><trkpt lat="36.84545174248803" lon="14.97846434437275"><ele>74.25</ele><time>2026-04-30T16:42:22Z</time></trkpt><trkpt lat="36.845291067760904" lon="14.978462083160853"><ele>73.0</ele><time>2026-04-30T16:42:23Z</time></trkpt><trkpt lat="36.84514241652991" lon="14.978497402112362"><ele>71.25</ele><time>2026-04-30T16:42:24Z</time></trkpt><trkpt lat="36.84500863266743" lon="14.978514569988596"><ele>69.5</ele><time>2026-04-30T16:42:25Z</time></trkpt><trkpt lat="36.84488410930727" lon="14.978549325856232"><ele>67.75</ele><time>2026-04-30T16:42:26Z</time></trkpt><trkpt lat="36.84477117704231" lon="14.978598999064934"><ele>66.0</ele><time>2026-04-30T16:42:27Z</time></trkpt><trkpt lat="36.844661144934264" lon="14.97861285953632"><ele>66.0</ele><time>2026-04-30T16:42:28Z</time></trkpt><trkpt lat="36.844562176860904" lon="14.97859446402132"><ele>66.0</ele><time>2026-04-30T16:42:29Z</time></trkpt><trkpt lat="36.84448456997447" lon="14.97861875879392"><ele>66.0</ele><time>2026-04-30T16:42:30Z</time></trkpt><trkpt lat="36.844384322183394" lon="14.978628136887547"><ele>66.0</ele><time>2026-04-30T16:42:31Z</time></trkpt><trkpt lat="36.84425978720639" lon="14.978633782453713"><ele>66.0</ele><time>2026-04-30T16:42:32Z</time></trkpt><trkpt lat="36.84411364591704" lon="14.97869729262097"><ele>65.66666666666667</ele><time>2026-04-30T16:42:33Z</time></trkpt><trkpt lat="36.84396607315357" lon="14.97876197925092"><ele>65.33333333333334</ele><time>2026-04-30T16:42:34Z</time></trkpt><trkpt lat="36.84381493693283" lon="14.978833526874595"><ele>65.0</ele><time>2026-04-30T16:42:35Z</time></trkpt><trkpt lat="36.8436535938784" lon="14.978884918144942"><ele>65.0</ele><time>2026-04-30T16:42:36Z</time></trkpt><trkpt lat="36.84351558307662" lon="14.978960515470018"><ele>65.0</ele><time>2026-04-30T16:42:37Z</time></trkpt><trkpt lat="36.84339492430611" lon="14.97900171506136"><ele>65.0</ele><time>2026-04-30T16:42:38Z</time></trkpt><trkpt lat="36.84327752022864" lon="14.979045701688618"><ele>65.0</ele><time>2026-04-30T16:42:39Z</time></trkpt><trkpt lat="36.84313432807443" lon="14.979079022372229"><ele>65.0</ele><time>2026-04-30T16:42:40Z</time></trkpt><trkpt lat="36.84297869578892" lon="14.979097442435293"><ele>65.0</ele><time>2026-04-30T16:42:41Z</time></trkpt><trkpt lat="36.84281530980539" lon="14.979080659788119"><ele>65.0</ele><time>2026-04-30T16:42:42Z</time></trkpt><trkpt lat="36.8426559057475" lon="14.979063051047204"><ele>65.33333333333334</ele><time>2026-04-30T16:42:43Z</time></trkpt><trkpt lat="36.842487399819284" lon="14.979060218761036"><ele>65.66666666666667</ele><time>2026-04-30T16:42:44Z</time></trkpt><trkpt lat="36.8423308190286" lon="14.979030890594718"><ele>66.0</ele><time>2026-04-30T16:42:45Z</time></trkpt><trkpt lat="36.842189492581326" lon="14.979016485370293"><ele>66.0</ele><time>2026-04-30T16:42:46Z</time></trkpt><trkpt lat="36.84205559457717" lon="14.9790143455777"><ele>66.0</ele><time>2026-04-30T16:42:47Z</time></trkpt><trkpt lat="36.84191650104855" lon="14.979016512846176"><ele>66.0</ele><time>2026-04-30T16:42:48Z</time></trkpt><trkpt lat="36.84177019470329" lon="14.97902959826175"><ele>66.0</ele><time>2026-04-30T16:42:49Z</time></trkpt><trkpt lat="36.84161641092055" lon="14.979054853289185"><ele>66.33333333333333</ele><time>2026-04-30T16:42:50Z</time></trkpt><trkpt lat="36.84145638140162" lon="14.97909404948258"><ele>66.66666666666666</ele><time>2026-04-30T16:42:51Z</time></trkpt><trkpt lat="36.84128594813413" lon="14.979133082894467"><ele>67.0</ele><time>2026-04-30T16:42:52Z</time></trkpt><trkpt lat="36.84112094757758" lon="14.979186734435622"><ele>65.33333333333333</ele><time>2026-04-30T16:42:53Z</time></trkpt><trkpt lat="36.8409697940291" lon="14.979239082937406"><ele>63.66666666666667</ele><time>2026-04-30T16:42:54Z</time></trkpt><trkpt lat="36.84081085634817" lon="14.97927482775391"><ele>62.0</ele><time>2026-04-30T16:42:55Z</time></trkpt><trkpt lat="36.84066884668401" lon="14.979326489575795"><ele>61.333333333333336</ele><time>2026-04-30T16:42:56Z</time></trkpt><trkpt lat="36.840538917324714" lon="14.979431076209186"><ele>60.66666666666667</ele><time>2026-04-30T16:42:57Z</time></trkpt><trkpt lat="36.840412674693184" lon="14.979527226904578"><ele>60.0</ele><time>2026-04-30T16:42:58Z</time></trkpt><trkpt lat="36.840277549692104" lon="14.97960880027483"><ele>60.0</ele><time>2026-04-30T16:42:59Z</time></trkpt><trkpt lat="36.840173407934344" lon="14.979701287908354"><ele>60.0</ele><time>2026-04-30T16:43:00Z</time></trkpt><trkpt lat="36.84007291952873" lon="14.979784300974867"><ele>60.0</ele><time>2026-04-30T16:43:01Z</time></trkpt><trkpt lat="36.839981353381475" lon="14.979855461558614"><ele>60.0</ele><time>2026-04-30T16:43:02Z</time></trkpt><trkpt lat="36.83990969433465" lon="14.979908871341433"><ele>60.0</ele><time>2026-04-30T16:43:03Z</time></trkpt><trkpt lat="36.839849980349136" lon="14.979942627684416"><ele>59.75</ele><time>2026-04-30T16:43:04Z</time></trkpt><trkpt lat="36.839756261951365" lon="14.97991493519271"><ele>59.5</ele><time>2026-04-30T16:43:05Z</time></trkpt><trkpt lat="36.83962956525524" lon="14.9798515696878"><ele>59.25</ele><time>2026-04-30T16:43:06Z</time></trkpt><trkpt lat="36.83947965919835" lon="14.979782064434495"><ele>59.0</ele><time>2026-04-30T16:43:07Z</time></trkpt><trkpt lat="36.8392939176451" lon="14.97970398358352"><ele>59.0</ele><time>2026-04-30T16:43:08Z</time></trkpt><trkpt lat="36.83910096317346" lon="14.979642695130838"><ele>59.0</ele><time>2026-04-30T16:43:09Z</time></trkpt><trkpt lat="36.838913225962244" lon="14.979618243726517"><ele>59.0</ele><time>2026-04-30T16:43:10Z</time></trkpt><trkpt lat="36.83875659971743" lon="14.979616249225366"><ele>59.0</ele><time>2026-04-30T16:43:11Z</time></trkpt><trkpt lat="36.83859344169329" lon="14.97958903058455"><ele>59.0</ele><time>2026-04-30T16:43:12Z</time></trkpt><trkpt lat="36.83841827803817" lon="14.979552349837899"><ele>59.0</ele><time>2026-04-30T16:43:13Z</time></trkpt><trkpt lat="36.83825807360066" lon="14.979516081209498"><ele>59.0</ele><time>2026-04-30T16:43:14Z</time></trkpt><trkpt lat="36.838099413297314" lon="14.979477853279604"><ele>59.0</ele><time>2026-04-30T16:43:15Z</time></trkpt><trkpt lat="36.83793853005122" lon="14.979424055424202"><ele>59.0</ele><time>2026-04-30T16:43:16Z</time></trkpt><trkpt lat="36.837776586106834" lon="14.979360599034731"><ele>59.0</ele><time>2026-04-30T16:43:17Z</time></trkpt><trkpt lat="36.83761458436251" lon="14.979287971125576"><ele>59.0</ele><time>2026-04-30T16:43:18Z</time></trkpt><trkpt lat="36.837470073315046" lon="14.979215596923279"><ele>59.0</ele><time>2026-04-30T16:43:19Z</time></trkpt><trkpt lat="36.837343226904196" lon="14.979149316892089"><ele>61.0</ele><time>2026-04-30T16:43:20Z</time></trkpt><trkpt lat="36.83721848576276" lon="14.979088328842925"><ele>63.0</ele><time>2026-04-30T16:43:21Z</time></trkpt><trkpt lat="36.8370900951426" lon="14.979021809677912"><ele>65.0</ele><time>2026-04-30T16:43:22Z</time></trkpt><trkpt lat="36.83696855627227" lon="14.978941928510961"><ele>67.0</ele><time>2026-04-30T16:43:23Z</time></trkpt><trkpt lat="36.83684829869649" lon="14.978843404409346"><ele>66.0</ele><time>2026-04-30T16:43:24Z</time></trkpt><trkpt lat="36.83674158346907" lon="14.9787329022484"><ele>65.0</ele><time>2026-04-30T16:43:25Z</time></trkpt><trkpt lat="36.83665167015476" lon="14.978623162412179"><ele>64.0</ele><time>2026-04-30T16:43:26Z</time></trkpt><trkpt lat="36.83656415069028" lon="14.97853075722714"><ele>63.0</ele><time>2026-04-30T16:43:27Z</time></trkpt><trkpt lat="36.836484189153204" lon="14.978456778525926"><ele>63.0</ele><time>2026-04-30T16:43:28Z</time></trkpt><trkpt lat="36.83642401168065" lon="14.978400727118615"><ele>63.0</ele><time>2026-04-30T16:43:29Z</time></trkpt><trkpt lat="36.836356465643696" lon="14.978336422865173"><ele>63.0</ele><time>2026-04-30T16:43:31Z</time></trkpt><trkpt lat="36.83627826329003" lon="14.978281297554478"><ele>63.0</ele><time>2026-04-30T16:43:34Z</time></trkpt><trkpt lat="36.836204913102804" lon="14.978214358944083"><ele>63.0</ele><time>2026-04-30T16:43:35Z</time></trkpt><trkpt lat="36.836107560345596" lon="14.978138816126238"><ele>62.5</ele><time>2026-04-30T16:43:36Z</time></trkpt><trkpt lat="36.83600054813064" lon="14.978054220681704"><ele>62.0</ele><time>2026-04-30T16:43:37Z</time></trkpt><trkpt lat="36.83590126247722" lon="14.977985747047367"><ele>61.5</ele><time>2026-04-30T16:43:38Z</time></trkpt><trkpt lat="36.83580616517973" lon="14.977907929391007"><ele>61.0</ele><time>2026-04-30T16:43:39Z</time></trkpt><trkpt lat="36.83571448791401" lon="14.977829788683362"><ele>61.0</ele><time>2026-04-30T16:43:40Z</time></trkpt><trkpt lat="36.835620953061394" lon="14.977776845768446"><ele>60.99999999999999</ele><time>2026-04-30T16:43:41Z</time></trkpt><trkpt lat="36.83551341848951" lon="14.977753790646018"><ele>60.99999999999999</ele><time>2026-04-30T16:43:42Z</time></trkpt><trkpt lat="36.83540555212022" lon="14.977724123527443"><ele>61.0</ele><time>2026-04-30T16:43:43Z</time></trkpt><trkpt lat="36.83532730547445" lon="14.97765940589744"><ele>61.0</ele><time>2026-04-30T16:43:44Z</time></trkpt><trkpt lat="36.835261085343376" lon="14.977576763286555"><ele>61.5</ele><time>2026-04-30T16:43:45Z</time></trkpt><trkpt lat="36.83516960383919" lon="14.977469448177375"><ele>62.0</ele><time>2026-04-30T16:43:46Z</time></trkpt><trkpt lat="36.835069016915284" lon="14.977368734682058"><ele>62.5</ele><time>2026-04-30T16:43:47Z</time></trkpt><trkpt lat="36.834957753561035" lon="14.97727781983956"><ele>63.0</ele><time>2026-04-30T16:43:48Z</time></trkpt><trkpt lat="36.83486897567104" lon="14.977206315694216"><ele>63.75</ele><time>2026-04-30T16:43:49Z</time></trkpt><trkpt lat="36.83475103972887" lon="14.977152918729635"><ele>64.5</ele><time>2026-04-30T16:43:50Z</time></trkpt><trkpt lat="36.83459727488455" lon="14.977104998199835"><ele>65.25</ele><time>2026-04-30T16:43:51Z</time></trkpt><trkpt lat="36.83444068589949" lon="14.977055138355842"><ele>66.0</ele><time>2026-04-30T16:43:52Z</time></trkpt><trkpt lat="36.83426723013003" lon="14.97698674152558"><ele>66.5</ele><time>2026-04-30T16:43:53Z</time></trkpt><trkpt lat="36.83412915988805" lon="14.976917174858293"><ele>67.0</ele><time>2026-04-30T16:43:54Z</time></trkpt><trkpt lat="36.83400549383304" lon="14.976844620920282"><ele>67.5</ele><time>2026-04-30T16:43:55Z</time></trkpt><trkpt lat="36.83390582557581" lon="14.976766359828405"><ele>68.0</ele><time>2026-04-30T16:43:56Z</time></trkpt><trkpt lat="36.83381161149502" lon="14.9766634544209"><ele>70.0</ele><time>2026-04-30T16:43:57Z</time></trkpt><trkpt lat="36.83371258655767" lon="14.976549492165443"><ele>72.0</ele><time>2026-04-30T16:43:58Z</time></trkpt><trkpt lat="36.83358582798105" lon="14.976380928564456"><ele>74.0</ele><time>2026-04-30T16:43:59Z</time></trkpt><trkpt lat="36.833479165150706" lon="14.976230989364907"><ele>74.0</ele><time>2026-04-30T16:44:00Z</time></trkpt><trkpt lat="36.83338847539278" lon="14.976091038233662"><ele>74.0</ele><time>2026-04-30T16:44:01Z</time></trkpt><trkpt lat="36.83331249333124" lon="14.975979244450999"><ele>74.0</ele><time>2026-04-30T16:44:02Z</time></trkpt><trkpt lat="36.83324743703014" lon="14.975893826485954"><ele>74.0</ele><time>2026-04-30T16:44:03Z</time></trkpt><trkpt lat="36.83320526671786" lon="14.975813906183026"><ele>74.0</ele><time>2026-04-30T16:44:04Z</time></trkpt><trkpt lat="36.83318815477905" lon="14.975731087186366"><ele>74.0</ele><time>2026-04-30T16:44:05Z</time></trkpt><trkpt lat="36.83316739538181" lon="14.975576971813494"><ele>74.0</ele><time>2026-04-30T16:44:07Z</time></trkpt><trkpt lat="36.833127525375396" lon="14.975509906304246"><ele>74.0</ele><time>2026-04-30T16:44:08Z</time></trkpt><trkpt lat="36.83307600914548" lon="14.975425602062966"><ele>74.0</ele><time>2026-04-30T16:44:09Z</time></trkpt><trkpt lat="36.83301165202195" lon="14.975328143609225"><ele>74.0</ele><time>2026-04-30T16:44:10Z</time></trkpt><trkpt lat="36.832951274581596" lon="14.975234350682234"><ele>74.0</ele><time>2026-04-30T16:44:11Z</time></trkpt><trkpt lat="36.832892258135026" lon="14.975136094092854"><ele>74.0</ele><time>2026-04-30T16:44:12Z</time></trkpt><trkpt lat="36.83283606610753" lon="14.975055368252406"><ele>74.0</ele><time>2026-04-30T16:44:13Z</time></trkpt><trkpt lat="36.832775042334575" lon="14.974991344268918"><ele>74.0</ele><time>2026-04-30T16:44:14Z</time></trkpt><trkpt lat="36.83270332368542" lon="14.974912453693209"><ele>74.0</ele><time>2026-04-30T16:44:15Z</time></trkpt><trkpt lat="36.83264782398069" lon="14.974832647558564"><ele>74.0</ele><time>2026-04-30T16:44:16Z</time></trkpt><trkpt lat="36.83260187226358" lon="14.974758842708427"><ele>73.5</ele><time>2026-04-30T16:44:17Z</time></trkpt><trkpt lat="36.83255774549292" lon="14.974700893964293"><ele>73.0</ele><time>2026-04-30T16:44:18Z</time></trkpt><trkpt lat="36.83249462219433" lon="14.974640565670306"><ele>72.5</ele><time>2026-04-30T16:44:19Z</time></trkpt><trkpt lat="36.83243428544487" lon="14.974594730643485"><ele>72.0</ele><time>2026-04-30T16:44:20Z</time></trkpt><trkpt lat="36.83231262196089" lon="14.974551911290195"><ele>71.5</ele><time>2026-04-30T16:44:22Z</time></trkpt><trkpt lat="36.832224476522164" lon="14.974546630448064"><ele>71.0</ele><time>2026-04-30T16:44:24Z</time></trkpt><trkpt lat="36.83217346958918" lon="14.974594959983106"><ele>71.0</ele><time>2026-04-30T16:44:26Z</time></trkpt><trkpt lat="36.83210167016956" lon="14.974555696783785"><ele>71.0</ele><time>2026-04-30T16:44:28Z</time></trkpt><trkpt lat="36.83199258351404" lon="14.974428334808362"><ele>71.0</ele><time>2026-04-30T16:44:30Z</time></trkpt><trkpt lat="36.83190373295342" lon="14.974335314366758"><ele>71.0</ele><time>2026-04-30T16:44:31Z</time></trkpt><trkpt lat="36.83180101034386" lon="14.974240798404448"><ele>72.0</ele><time>2026-04-30T16:44:32Z</time></trkpt><trkpt lat="36.831656328251675" lon="14.97413558898205"><ele>73.0</ele><time>2026-04-30T16:44:33Z</time></trkpt><trkpt lat="36.83146782398781" lon="14.974020800493939"><ele>74.0</ele><time>2026-04-30T16:44:34Z</time></trkpt><trkpt lat="36.83131131881074" lon="14.97392526951394"><ele>74.0</ele><time>2026-04-30T16:44:35Z</time></trkpt><trkpt lat="36.831175020360625" lon="14.973833487448436"><ele>74.0</ele><time>2026-04-30T16:44:36Z</time></trkpt><trkpt lat="36.83104949640924" lon="14.973759684065254"><ele>74.0</ele><time>2026-04-30T16:44:37Z</time></trkpt><trkpt lat="36.83093996595539" lon="14.973693557815581"><ele>74.0</ele><time>2026-04-30T16:44:38Z</time></trkpt><trkpt lat="36.83082491237463" lon="14.973623067872476"><ele>74.25</ele><time>2026-04-30T16:44:39Z</time></trkpt><trkpt lat="36.83071389374542" lon="14.973550999269769"><ele>74.5</ele><time>2026-04-30T16:44:40Z</time></trkpt><trkpt lat="36.83059415951848" lon="14.973477220102968"><ele>74.75</ele><time>2026-04-30T16:44:41Z</time></trkpt><trkpt lat="36.8304738311293" lon="14.973409228356521"><ele>75.0</ele><time>2026-04-30T16:44:42Z</time></trkpt><trkpt lat="36.83036410987675" lon="14.973343136970716"><ele>75.0</ele><time>2026-04-30T16:44:43Z</time></trkpt><trkpt lat="36.830278815019064" lon="14.973298937132597"><ele>75.0</ele><time>2026-04-30T16:44:44Z</time></trkpt><trkpt lat="36.83019129306396" lon="14.97325483888355"><ele>75.0</ele><time>2026-04-30T16:44:45Z</time></trkpt><trkpt lat="36.8300891726443" lon="14.973207366341228"><ele>75.0</ele><time>2026-04-30T16:44:46Z</time></trkpt><trkpt lat="36.8299985715935" lon="14.973176291260696"><ele>75.0</ele><time>2026-04-30T16:44:47Z</time></trkpt><trkpt lat="36.82992840712604" lon="14.973138767250417"><ele>75.2</ele><time>2026-04-30T16:44:48Z</time></trkpt><trkpt lat="36.82985473785496" lon="14.973115747720966"><ele>75.4</ele><time>2026-04-30T16:44:50Z</time></trkpt><trkpt lat="36.829770866166285" lon="14.973078319083804"><ele>75.6</ele><time>2026-04-30T16:45:31Z</time></trkpt><trkpt lat="36.82970886550979" lon="14.972981594328026"><ele>75.8</ele><time>2026-04-30T16:45:32Z</time></trkpt><trkpt lat="36.82963473339082" lon="14.972865850913923"><ele>76.0</ele><time>2026-04-30T16:45:33Z</time></trkpt><trkpt lat="36.82954821016979" lon="14.972736049139154"><ele>76.0</ele><time>2026-04-30T16:45:34Z</time></trkpt><trkpt lat="36.82944882889742" lon="14.9725834189199"><ele>76.0</ele><time>2026-04-30T16:45:35Z</time></trkpt><trkpt lat="36.82934567471354" lon="14.972411258201628"><ele>76.0</ele><time>2026-04-30T16:45:36Z</time></trkpt><trkpt lat="36.82925074425081" lon="14.972232036157038"><ele>77.33333333333333</ele><time>2026-04-30T16:45:37Z</time></trkpt><trkpt lat="36.82914660417547" lon="14.97202992607762"><ele>78.66666666666667</ele><time>2026-04-30T16:45:38Z</time></trkpt><trkpt lat="36.829029348441324" lon="14.9718169383234"><ele>80.0</ele><time>2026-04-30T16:45:39Z</time></trkpt><trkpt lat="36.828904540227505" lon="14.971598397674487"><ele>81.66666666666667</ele><time>2026-04-30T16:45:40Z</time></trkpt><trkpt lat="36.82878433220399" lon="14.971367494242278"><ele>83.33333333333333</ele><time>2026-04-30T16:45:41Z</time></trkpt><trkpt lat="36.82866860864727" lon="14.97114384228855"><ele>85.0</ele><time>2026-04-30T16:45:42Z</time></trkpt><trkpt lat="36.82856197555191" lon="14.970938306422651"><ele>86.0</ele><time>2026-04-30T16:45:43Z</time></trkpt><trkpt lat="36.82844927998651" lon="14.97071759545011"><ele>87.0</ele><time>2026-04-30T16:45:44Z</time></trkpt><trkpt lat="36.82833087926133" lon="14.970487348455412"><ele>88.0</ele><time>2026-04-30T16:45:45Z</time></trkpt><trkpt lat="36.82821457491298" lon="14.97026079120978"><ele>88.0</ele><time>2026-04-30T16:45:46Z</time></trkpt><trkpt lat="36.82810016183826" lon="14.97003222714624"><ele>88.0</ele><time>2026-04-30T16:45:47Z</time></trkpt><trkpt lat="36.82798773024871" lon="14.969809047013037"><ele>88.0</ele><time>2026-04-30T16:45:48Z</time></trkpt><trkpt lat="36.827870343686655" lon="14.969579635421036"><ele>89.0</ele><time>2026-04-30T16:45:49Z</time></trkpt><trkpt lat="36.82775526349735" lon="14.969368885983112"><ele>90.0</ele><time>2026-04-30T16:45:50Z</time></trkpt><trkpt lat="36.82764025215755" lon="14.969141336673168"><ele>91.0</ele><time>2026-04-30T16:45:51Z</time></trkpt><trkpt lat="36.82751575451343" lon="14.968909299811905"><ele>91.0</ele><time>2026-04-30T16:45:52Z</time></trkpt><trkpt lat="36.82739977898996" lon="14.968689214041916"><ele>91.0</ele><time>2026-04-30T16:45:53Z</time></trkpt><trkpt lat="36.82729158219732" lon="14.968479694267867"><ele>91.0</ele><time>2026-04-30T16:45:54Z</time></trkpt><trkpt lat="36.82718465958055" lon="14.968274076783127"><ele>92.66666666666666</ele><time>2026-04-30T16:45:55Z</time></trkpt><trkpt lat="36.8270840147249" lon="14.968082057281189"><ele>94.33333333333333</ele><time>2026-04-30T16:45:56Z</time></trkpt><trkpt lat="36.826983377025726" lon="14.967893116529535"><ele>96.0</ele><time>2026-04-30T16:45:57Z</time></trkpt><trkpt lat="36.8268898136696" lon="14.967714805143784"><ele>96.0</ele><time>2026-04-30T16:45:58Z</time></trkpt><trkpt lat="36.826805036778715" lon="14.96755410581238"><ele>96.0</ele><time>2026-04-30T16:45:59Z</time></trkpt><trkpt lat="36.826726254810715" lon="14.967405861548707"><ele>96.0</ele><time>2026-04-30T16:46:00Z</time></trkpt><trkpt lat="36.82664875379794" lon="14.967260969082703"><ele>96.0</ele><time>2026-04-30T16:46:01Z</time></trkpt><trkpt lat="36.82657290446198" lon="14.967111080030108"><ele>97.0</ele><time>2026-04-30T16:46:02Z</time></trkpt><trkpt lat="36.82649713462678" lon="14.966967737621598"><ele>98.0</ele><time>2026-04-30T16:46:03Z</time></trkpt><trkpt lat="36.826431889372316" lon="14.966842316054661"><ele>99.0</ele><time>2026-04-30T16:46:04Z</time></trkpt><trkpt lat="36.82636607969852" lon="14.966717341388373"><ele>100.0</ele><time>2026-04-30T16:46:05Z</time></trkpt><trkpt lat="36.8263095841584" lon="14.966602792540478"><ele>100.2</ele><time>2026-04-30T16:46:06Z</time></trkpt><trkpt lat="36.82624563826994" lon="14.966480704545031"><ele>100.4</ele><time>2026-04-30T16:46:07Z</time></trkpt><trkpt lat="36.82618177004498" lon="14.9663638522598"><ele>100.6</ele><time>2026-04-30T16:46:08Z</time></trkpt><trkpt lat="36.826125438228544" lon="14.966261911205414"><ele>100.8</ele><time>2026-04-30T16:46:09Z</time></trkpt><trkpt lat="36.82608481294984" lon="14.96618279204143"><ele>101.0</ele><time>2026-04-30T16:46:10Z</time></trkpt><trkpt lat="36.82603920975875" lon="14.966090244163922"><ele>101.0</ele><time>2026-04-30T16:46:12Z</time></trkpt><trkpt lat="36.82598022416276" lon="14.965966398377105"><ele>101.0</ele><time>2026-04-30T16:46:16Z</time></trkpt><trkpt lat="36.82591432553025" lon="14.96586626461513"><ele>101.0</ele><time>2026-04-30T16:46:18Z</time></trkpt><trkpt lat="36.825834528869535" lon="14.965758106601635"><ele>101.0</ele><time>2026-04-30T16:46:20Z</time></trkpt><trkpt lat="36.825783864180316" lon="14.965675047478806"><ele>101.0</ele><time>2026-04-30T16:46:21Z</time></trkpt><trkpt lat="36.82573344541318" lon="14.96557734059464"><ele>101.19999999999999</ele><time>2026-04-30T16:46:22Z</time></trkpt><trkpt lat="36.825684740107725" lon="14.965474627875627"><ele>101.39999999999999</ele><time>2026-04-30T16:46:23Z</time></trkpt><trkpt lat="36.82563261122909" lon="14.965362643942926"><ele>101.6</ele><time>2026-04-30T16:46:24Z</time></trkpt><trkpt lat="36.8255787773408" lon="14.965243021757377"><ele>101.8</ele><time>2026-04-30T16:46:25Z</time></trkpt><trkpt lat="36.825532846602364" lon="14.965135193344619"><ele>102.0</ele><time>2026-04-30T16:46:26Z</time></trkpt><trkpt lat="36.825483333320925" lon="14.96503465240562"><ele>102.25</ele><time>2026-04-30T16:46:27Z</time></trkpt><trkpt lat="36.82542386865846" lon="14.964935651675011"><ele>102.5</ele><time>2026-04-30T16:46:28Z</time></trkpt><trkpt lat="36.82535543035824" lon="14.964819249367128"><ele>102.75</ele><time>2026-04-30T16:46:29Z</time></trkpt><trkpt lat="36.82528592742544" lon="14.964696778849635"><ele>103.0</ele><time>2026-04-30T16:46:30Z</time></trkpt><trkpt lat="36.825212737963604" lon="14.964564083011686"><ele>103.25</ele><time>2026-04-30T16:46:31Z</time></trkpt><trkpt lat="36.82514103414464" lon="14.964423542936126"><ele>103.5</ele><time>2026-04-30T16:46:32Z</time></trkpt><trkpt lat="36.82507563229766" lon="14.964291255227879"><ele>103.75</ele><time>2026-04-30T16:46:33Z</time></trkpt><trkpt lat="36.82501012701005" lon="14.96417048295633"><ele>104.0</ele><time>2026-04-30T16:46:34Z</time></trkpt><trkpt lat="36.82494033817531" lon="14.96405622616251"><ele>104.0</ele><time>2026-04-30T16:46:35Z</time></trkpt><trkpt lat="36.82486388452338" lon="14.963936359423537"><ele>104.0</ele><time>2026-04-30T16:46:36Z</time></trkpt><trkpt lat="36.824817926712804" lon="14.96380358861724"><ele>104.0</ele><time>2026-04-30T16:46:38Z</time></trkpt><trkpt lat="36.82478209643681" lon="14.963730664236103"><ele>104.0</ele><time>2026-04-30T16:46:39Z</time></trkpt><trkpt lat="36.82471494322175" lon="14.96361100524392"><ele>104.0</ele><time>2026-04-30T16:46:41Z</time></trkpt><trkpt lat="36.82464208400829" lon="14.963471833171424"><ele>104.0</ele><time>2026-04-30T16:46:43Z</time></trkpt><trkpt lat="36.824613936391785" lon="14.96339727605545"><ele>104.0</ele><time>2026-04-30T16:46:44Z</time></trkpt><trkpt lat="36.824589934559086" lon="14.9632664177433"><ele>104.0</ele><time>2026-04-30T16:46:46Z</time></trkpt><trkpt lat="36.82458812128534" lon="14.963164928301577"><ele>104.0</ele><time>2026-04-30T16:46:48Z</time></trkpt><trkpt lat="36.82461631790178" lon="14.96305524745391"><ele>104.0</ele><time>2026-04-30T16:46:50Z</time></trkpt><trkpt lat="36.82463013529723" lon="14.96292149633761"><ele>104.66666666666666</ele><time>2026-04-30T16:46:52Z</time></trkpt><trkpt lat="36.82469768501551" lon="14.962893187771943"><ele>105.33333333333333</ele><time>2026-04-30T16:46:53Z</time></trkpt><trkpt lat="36.8247725909979" lon="14.962822489702116"><ele>106.0</ele><time>2026-04-30T16:46:55Z</time></trkpt><trkpt lat="36.82482418852119" lon="14.962765292953707"><ele>106.66666666666666</ele><time>2026-04-30T16:46:56Z</time></trkpt><trkpt lat="36.82489317356284" lon="14.96268390678793"><ele>107.33333333333333</ele><time>2026-04-30T16:46:57Z</time></trkpt><trkpt lat="36.82498400217731" lon="14.962589204775156"><ele>108.0</ele><time>2026-04-30T16:46:58Z</time></trkpt><trkpt lat="36.825087273008776" lon="14.962480695386372"><ele>110.0</ele><time>2026-04-30T16:46:59Z</time></trkpt><trkpt lat="36.82520396624202" lon="14.96236356693448"><ele>112.0</ele><time>2026-04-30T16:47:00Z</time></trkpt><trkpt lat="36.82534047254169" lon="14.962253846574512"><ele>114.0</ele><time>2026-04-30T16:47:01Z</time></trkpt><trkpt lat="36.82550144470783" lon="14.96213834541272"><ele>114.0</ele><time>2026-04-30T16:47:02Z</time></trkpt><trkpt lat="36.825614213549905" lon="14.962029707349378"><ele>114.0</ele><time>2026-04-30T16:47:03Z</time></trkpt><trkpt lat="36.82571044293497" lon="14.96192800608674"><ele>114.0</ele><time>2026-04-30T16:47:04Z</time></trkpt><trkpt lat="36.82579831032883" lon="14.961836736883592"><ele>114.0</ele><time>2026-04-30T16:47:05Z</time></trkpt><trkpt lat="36.82588589703397" lon="14.961744102637452"><ele>116.5</ele><time>2026-04-30T16:47:06Z</time></trkpt><trkpt lat="36.82598132119609" lon="14.961644614145696"><ele>119.0</ele><time>2026-04-30T16:47:07Z</time></trkpt><trkpt lat="36.82607506456794" lon="14.961547670497"><ele>121.5</ele><time>2026-04-30T16:47:08Z</time></trkpt><trkpt lat="36.82616524042631" lon="14.961457476292964"><ele>124.0</ele><time>2026-04-30T16:47:09Z</time></trkpt><trkpt lat="36.82624704734796" lon="14.96137992706972"><ele>124.0</ele><time>2026-04-30T16:47:10Z</time></trkpt><trkpt lat="36.82632161172087" lon="14.96131306378568"><ele>124.0</ele><time>2026-04-30T16:47:11Z</time></trkpt><trkpt lat="36.82639449598764" lon="14.96124402744576"><ele>124.0</ele><time>2026-04-30T16:47:12Z</time></trkpt><trkpt lat="36.82646602010896" lon="14.961171084233028"><ele>124.0</ele><time>2026-04-30T16:47:13Z</time></trkpt><trkpt lat="36.82653304991597" lon="14.961090217269474"><ele>124.0</ele><time>2026-04-30T16:47:14Z</time></trkpt><trkpt lat="36.82658435507531" lon="14.961011080025346"><ele>124.00000000000001</ele><time>2026-04-30T16:47:15Z</time></trkpt><trkpt lat="36.826627306240276" lon="14.960930441182999"><ele>124.0</ele><time>2026-04-30T16:47:16Z</time></trkpt><trkpt lat="36.826692329737824" lon="14.960789452119156"><ele>124.0</ele><time>2026-04-30T16:47:18Z</time></trkpt><trkpt lat="36.82672180878091" lon="14.960703593384629"><ele>124.0</ele><time>2026-04-30T16:47:19Z</time></trkpt><trkpt lat="36.826755293750665" lon="14.960613595757692"><ele>124.00000000000001</ele><time>2026-04-30T16:47:20Z</time></trkpt><trkpt lat="36.82678936613109" lon="14.960537427954526"><ele>124.0</ele><time>2026-04-30T16:47:21Z</time></trkpt><trkpt lat="36.82682859240978" lon="14.960441726696668"><ele>126.16666666666667</ele><time>2026-04-30T16:47:22Z</time></trkpt><trkpt lat="36.82686954489492" lon="14.960347152184594"><ele>128.33333333333334</ele><time>2026-04-30T16:47:23Z</time></trkpt><trkpt lat="36.82691255518767" lon="14.960248428628118"><ele>130.5</ele><time>2026-04-30T16:47:24Z</time></trkpt><trkpt lat="36.826953272210105" lon="14.960146971573021"><ele>132.66666666666666</ele><time>2026-04-30T16:47:25Z</time></trkpt><trkpt lat="36.82698768372683" lon="14.96005167648887"><ele>134.83333333333331</ele><time>2026-04-30T16:47:26Z</time></trkpt><trkpt lat="36.827019808069245" lon="14.95995899701958"><ele>137.0</ele><time>2026-04-30T16:47:27Z</time></trkpt><trkpt lat="36.827052931694276" lon="14.959873771490482"><ele>137.16666666666666</ele><time>2026-04-30T16:47:28Z</time></trkpt><trkpt lat="36.82708057524993" lon="14.959801109104927"><ele>137.33333333333331</ele><time>2026-04-30T16:47:29Z</time></trkpt><trkpt lat="36.82712903163951" lon="14.959683870502168"><ele>137.5</ele><time>2026-04-30T16:47:31Z</time></trkpt><trkpt lat="36.827152638217484" lon="14.959609244241815"><ele>137.66666666666666</ele><time>2026-04-30T16:47:32Z</time></trkpt><trkpt lat="36.82719751023018" lon="14.959468484090324"><ele>137.83333333333334</ele><time>2026-04-30T16:47:34Z</time></trkpt><trkpt lat="36.82723231718179" lon="14.959402407668668"><ele>138.0</ele><time>2026-04-30T16:47:35Z</time></trkpt><trkpt lat="36.82727335049314" lon="14.959329717238218"><ele>138.0</ele><time>2026-04-30T16:47:36Z</time></trkpt><trkpt lat="36.827306498989564" lon="14.959227271663377"><ele>138.0</ele><time>2026-04-30T16:47:37Z</time></trkpt><trkpt lat="36.8273365342707" lon="14.959118823080901"><ele>138.0</ele><time>2026-04-30T16:47:38Z</time></trkpt><trkpt lat="36.82736257685705" lon="14.959010791684937"><ele>138.0</ele><time>2026-04-30T16:47:39Z</time></trkpt><trkpt lat="36.82741197579618" lon="14.958867156613842"><ele>138.0</ele><time>2026-04-30T16:47:41Z</time></trkpt><trkpt lat="36.827452330334125" lon="14.95872645184991"><ele>138.33333333333334</ele><time>2026-04-30T16:47:43Z</time></trkpt><trkpt lat="36.827501601853236" lon="14.958583796507062"><ele>138.66666666666666</ele><time>2026-04-30T16:47:45Z</time></trkpt><trkpt lat="36.8275244163378" lon="14.958507869365672"><ele>139.0</ele><time>2026-04-30T16:47:46Z</time></trkpt><trkpt lat="36.82756530133377" lon="14.958390116521153"><ele>139.33333333333331</ele><time>2026-04-30T16:47:48Z</time></trkpt><trkpt lat="36.8275983581493" lon="14.958313955371517"><ele>139.66666666666666</ele><time>2026-04-30T16:47:49Z</time></trkpt><trkpt lat="36.82762989768663" lon="14.958225387321189"><ele>140.0</ele><time>2026-04-30T16:47:50Z</time></trkpt><trkpt lat="36.827668686524774" lon="14.958122054186092"><ele>141.0</ele><time>2026-04-30T16:47:51Z</time></trkpt><trkpt lat="36.82770441091908" lon="14.958025050287146"><ele>142.0</ele><time>2026-04-30T16:47:52Z</time></trkpt><trkpt lat="36.827733492089216" lon="14.957947836305681"><ele>143.0</ele><time>2026-04-30T16:47:53Z</time></trkpt><trkpt lat="36.82776737455932" lon="14.95786447170316"><ele>144.0</ele><time>2026-04-30T16:47:54Z</time></trkpt><trkpt lat="36.827803427945895" lon="14.957780441003745"><ele>145.0</ele><time>2026-04-30T16:47:55Z</time></trkpt><trkpt lat="36.82784126568712" lon="14.957676400090905"><ele>146.0</ele><time>2026-04-30T16:47:56Z</time></trkpt><trkpt lat="36.82787774896205" lon="14.957581378502695"><ele>145.66666666666666</ele><time>2026-04-30T16:47:57Z</time></trkpt><trkpt lat="36.82790705114879" lon="14.957502297532114"><ele>145.33333333333331</ele><time>2026-04-30T16:47:58Z</time></trkpt><trkpt lat="36.82793476052358" lon="14.957421732504345"><ele>145.0</ele><time>2026-04-30T16:47:59Z</time></trkpt><trkpt lat="36.82795951615281" lon="14.95733281528148"><ele>144.66666666666666</ele><time>2026-04-30T16:48:00Z</time></trkpt><trkpt lat="36.82798270903877" lon="14.95724191658895"><ele>144.33333333333334</ele><time>2026-04-30T16:48:01Z</time></trkpt><trkpt lat="36.827995400212906" lon="14.957149244493975"><ele>144.0</ele><time>2026-04-30T16:48:02Z</time></trkpt><trkpt lat="36.82800636243739" lon="14.95704611274718"><ele>144.0</ele><time>2026-04-30T16:48:03Z</time></trkpt><trkpt lat="36.82800461024338" lon="14.956946797298457"><ele>144.0</ele><time>2026-04-30T16:48:04Z</time></trkpt><trkpt lat="36.82799516945551" lon="14.956844132924292"><ele>144.0</ele><time>2026-04-30T16:48:05Z</time></trkpt><trkpt lat="36.827983443077606" lon="14.956746193170575"><ele>144.0</ele><time>2026-04-30T16:48:06Z</time></trkpt><trkpt lat="36.8279644286667" lon="14.956640752901789"><ele>144.0</ele><time>2026-04-30T16:48:07Z</time></trkpt><trkpt lat="36.82794087004743" lon="14.956533252112193"><ele>144.0</ele><time>2026-04-30T16:48:08Z</time></trkpt><trkpt lat="36.8279207560188" lon="14.95643238005243"><ele>144.16666666666666</ele><time>2026-04-30T16:48:09Z</time></trkpt><trkpt lat="36.82788605153795" lon="14.956360877845414"><ele>144.33333333333334</ele><time>2026-04-30T16:48:10Z</time></trkpt><trkpt lat="36.8278237436711" lon="14.9563035747164"><ele>144.5</ele><time>2026-04-30T16:48:11Z</time></trkpt><trkpt lat="36.82774172444075" lon="14.956246363844395"><ele>144.66666666666669</ele><time>2026-04-30T16:48:12Z</time></trkpt><trkpt lat="36.827676927409335" lon="14.956211479366383"><ele>144.83333333333334</ele><time>2026-04-30T16:48:13Z</time></trkpt><trkpt lat="36.8275955276495" lon="14.956180966084677"><ele>145.0</ele><time>2026-04-30T16:48:15Z</time></trkpt><trkpt lat="36.82749194583486" lon="14.9563498978323"><ele>145.0</ele><time>2026-04-30T16:48:16Z</time></trkpt><trkpt lat="36.827448499283236" lon="14.9564292059469"><ele>145.0</ele><time>2026-04-30T16:48:17Z</time></trkpt><trkpt lat="36.82734910308436" lon="14.956392417605342"><ele>145.0</ele><time>2026-04-30T16:48:18Z</time></trkpt><trkpt lat="36.82727099131893" lon="14.956390580350604"><ele>145.0</ele><time>2026-04-30T16:48:20Z</time></trkpt><trkpt lat="36.82724030075911" lon="14.956485946160642"><ele>145.0</ele><time>2026-04-30T16:48:25Z</time></trkpt><trkpt lat="36.82721933436866" lon="14.956563283427396"><ele>145.0</ele><time>2026-04-30T16:48:33Z</time></trkpt><trkpt lat="36.82744247432879" lon="14.956551444645372"><ele>145.0</ele><time>2026-04-30T16:48:34Z</time></trkpt><trkpt lat="36.827314719160555" lon="14.956421221226389"><ele>145.0</ele><time>2026-04-30T16:49:25Z</time></trkpt></trkseg></trk></gpx>